<?xml version="1.0" encoding="UTF-8" standalone="no" ?>
<gpx xmlns="http://www.topografix.com/GPX/1/1" xmlns:xsi="http://www.w3.org/2001/XMLSchema-instance" xsi:schemaLocation="http://www.topografix.com/GPX/1/1 http://www.topografix.com/GPX/1/1/gpx.xsd" version="1.1" creator="VisuGPX - https://www.visugpx.com">
  <metadata>
    <name>2017-07-10 Bike ride-Amberieux en Dombes O via Monthieux</name>
    <desc><![CDATA[2017-07-10 Bike ride-Amberieux en Dombes O via Monthieux]]></desc>
  </metadata>
  <wpt lat="45.92455" lon="4.73717">
    <ele>174</ele>
    <name><![CDATA[2017-07-10 10:34 (Start)]]></name>
  </wpt>
  <wpt lat="45.9246" lon="4.73699">
    <ele>174</ele>
    <name><![CDATA[2017-07-10 10:34 (End)]]></name>
    <desc><![CDATA[Created by Google My Tracks on Android  Name: 2017-07-10 10:34 Activity type: biking Description: - Total distance: 46.56 km (28.9 mi) Total time: 2:26:37 Moving time: 2:25:38 Average speed: 19.05 km/h (11.8 mi/h) Average moving speed: 19.18 km/h (11.9 mi/h) Max speed: 46.53 km/h (28.9 mi/h) Average pace: 3:09 min/km (5:04 min/mi) Average moving pace: 3:08 min/km (5:02 min/mi) Fastest pace: 1:17 min/km (2:05 min/mi) Max elevation: 320 m (1051 ft) Min elevation: 165 m (542 ft) Elevation gain: 651 m (2137 ft) Max grade: 11 % Min grade: -12 % Recorded: 10/07/2017 10:34]]></desc>
  </wpt>
  <trk>
    <name><![CDATA[2017-07-10 10:34]]></name>
    <trkseg>
      <trkpt lat="45.92455" lon="4.73717">
        <ele>174</ele>
        <time>2017-07-10T08:34:10.295Z</time>
      </trkpt>
      <trkpt lat="45.92456" lon="4.73715">
        <ele>174</ele>
        <time>2017-07-10T08:34:32Z</time>
      </trkpt>
      <trkpt lat="45.92456" lon="4.73715">
        <ele>174</ele>
        <time>2017-07-10T08:34:33Z</time>
      </trkpt>
      <trkpt lat="45.92458" lon="4.73715">
        <ele>174</ele>
        <time>2017-07-10T08:34:45Z</time>
      </trkpt>
      <trkpt lat="45.92459" lon="4.73714">
        <ele>174</ele>
        <time>2017-07-10T08:34:46Z</time>
      </trkpt>
      <trkpt lat="45.92465" lon="4.73705">
        <ele>174</ele>
        <time>2017-07-10T08:34:51Z</time>
      </trkpt>
      <trkpt lat="45.92465" lon="4.73702">
        <ele>174</ele>
        <time>2017-07-10T08:34:52Z</time>
      </trkpt>
      <trkpt lat="45.92464" lon="4.73691">
        <ele>174</ele>
        <time>2017-07-10T08:34:56Z</time>
      </trkpt>
      <trkpt lat="45.92464" lon="4.73688">
        <ele>174</ele>
        <time>2017-07-10T08:34:57Z</time>
      </trkpt>
      <trkpt lat="45.92465" lon="4.7368">
        <ele>174</ele>
        <time>2017-07-10T08:34:59Z</time>
      </trkpt>
      <trkpt lat="45.92466" lon="4.73675">
        <ele>174</ele>
        <time>2017-07-10T08:35:00Z</time>
      </trkpt>
      <trkpt lat="45.92466" lon="4.73664">
        <ele>174</ele>
        <time>2017-07-10T08:35:02Z</time>
      </trkpt>
      <trkpt lat="45.92468" lon="4.73659">
        <ele>174</ele>
        <time>2017-07-10T08:35:03Z</time>
      </trkpt>
      <trkpt lat="45.92472" lon="4.73649">
        <ele>174</ele>
        <time>2017-07-10T08:35:05Z</time>
      </trkpt>
      <trkpt lat="45.92475" lon="4.73646">
        <ele>174</ele>
        <time>2017-07-10T08:35:06Z</time>
      </trkpt>
      <trkpt lat="45.92482" lon="4.73643">
        <ele>174</ele>
        <time>2017-07-10T08:35:08Z</time>
      </trkpt>
      <trkpt lat="45.92487" lon="4.73644">
        <ele>174</ele>
        <time>2017-07-10T08:35:09Z</time>
      </trkpt>
      <trkpt lat="45.92492" lon="4.73644">
        <ele>174</ele>
        <time>2017-07-10T08:35:10Z</time>
      </trkpt>
      <trkpt lat="45.92497" lon="4.73644">
        <ele>174</ele>
        <time>2017-07-10T08:35:11Z</time>
      </trkpt>
      <trkpt lat="45.92502" lon="4.73644">
        <ele>174</ele>
        <time>2017-07-10T08:35:12Z</time>
      </trkpt>
      <trkpt lat="45.92507" lon="4.73643">
        <ele>174</ele>
        <time>2017-07-10T08:35:13Z</time>
      </trkpt>
      <trkpt lat="45.92513" lon="4.73643">
        <ele>174</ele>
        <time>2017-07-10T08:35:14Z</time>
      </trkpt>
      <trkpt lat="45.92519" lon="4.73643">
        <ele>173</ele>
        <time>2017-07-10T08:35:15Z</time>
      </trkpt>
      <trkpt lat="45.92525" lon="4.73642">
        <ele>173</ele>
        <time>2017-07-10T08:35:16Z</time>
      </trkpt>
      <trkpt lat="45.9253" lon="4.73641">
        <ele>173</ele>
        <time>2017-07-10T08:35:17Z</time>
      </trkpt>
      <trkpt lat="45.92536" lon="4.7364">
        <ele>173</ele>
        <time>2017-07-10T08:35:18Z</time>
      </trkpt>
      <trkpt lat="45.92541" lon="4.7364">
        <ele>173</ele>
        <time>2017-07-10T08:35:19Z</time>
      </trkpt>
      <trkpt lat="45.92547" lon="4.73638">
        <ele>173</ele>
        <time>2017-07-10T08:35:20Z</time>
      </trkpt>
      <trkpt lat="45.92552" lon="4.73637">
        <ele>173</ele>
        <time>2017-07-10T08:35:21Z</time>
      </trkpt>
      <trkpt lat="45.92556" lon="4.73636">
        <ele>173</ele>
        <time>2017-07-10T08:35:22Z</time>
      </trkpt>
      <trkpt lat="45.92561" lon="4.73635">
        <ele>173</ele>
        <time>2017-07-10T08:35:23Z</time>
      </trkpt>
      <trkpt lat="45.92566" lon="4.73633">
        <ele>173</ele>
        <time>2017-07-10T08:35:24Z</time>
      </trkpt>
      <trkpt lat="45.92571" lon="4.73631">
        <ele>173</ele>
        <time>2017-07-10T08:35:25Z</time>
      </trkpt>
      <trkpt lat="45.92576" lon="4.7363">
        <ele>173</ele>
        <time>2017-07-10T08:35:26Z</time>
      </trkpt>
      <trkpt lat="45.92581" lon="4.73629">
        <ele>173</ele>
        <time>2017-07-10T08:35:27Z</time>
      </trkpt>
      <trkpt lat="45.92587" lon="4.73628">
        <ele>172</ele>
        <time>2017-07-10T08:35:28Z</time>
      </trkpt>
      <trkpt lat="45.92593" lon="4.73628">
        <ele>172</ele>
        <time>2017-07-10T08:35:29Z</time>
      </trkpt>
      <trkpt lat="45.92599" lon="4.73627">
        <ele>173</ele>
        <time>2017-07-10T08:35:30Z</time>
      </trkpt>
      <trkpt lat="45.92605" lon="4.73627">
        <ele>173</ele>
        <time>2017-07-10T08:35:31Z</time>
      </trkpt>
      <trkpt lat="45.9261" lon="4.73628">
        <ele>173</ele>
        <time>2017-07-10T08:35:32Z</time>
      </trkpt>
      <trkpt lat="45.92616" lon="4.73633">
        <ele>173</ele>
        <time>2017-07-10T08:35:33Z</time>
      </trkpt>
      <trkpt lat="45.92621" lon="4.73638">
        <ele>173</ele>
        <time>2017-07-10T08:35:34Z</time>
      </trkpt>
      <trkpt lat="45.92625" lon="4.73646">
        <ele>173</ele>
        <time>2017-07-10T08:35:35Z</time>
      </trkpt>
      <trkpt lat="45.92628" lon="4.73654">
        <ele>173</ele>
        <time>2017-07-10T08:35:36Z</time>
      </trkpt>
      <trkpt lat="45.92631" lon="4.73661">
        <ele>173</ele>
        <time>2017-07-10T08:35:37Z</time>
      </trkpt>
      <trkpt lat="45.92634" lon="4.73668">
        <ele>173</ele>
        <time>2017-07-10T08:35:38Z</time>
      </trkpt>
      <trkpt lat="45.92638" lon="4.73675">
        <ele>173</ele>
        <time>2017-07-10T08:35:39Z</time>
      </trkpt>
      <trkpt lat="45.92642" lon="4.73682">
        <ele>173</ele>
        <time>2017-07-10T08:35:40Z</time>
      </trkpt>
      <trkpt lat="45.92646" lon="4.73687">
        <ele>173</ele>
        <time>2017-07-10T08:35:41Z</time>
      </trkpt>
      <trkpt lat="45.92652" lon="4.73692">
        <ele>173</ele>
        <time>2017-07-10T08:35:42Z</time>
      </trkpt>
      <trkpt lat="45.92657" lon="4.73697">
        <ele>173</ele>
        <time>2017-07-10T08:35:43Z</time>
      </trkpt>
      <trkpt lat="45.92662" lon="4.73701">
        <ele>173</ele>
        <time>2017-07-10T08:35:44Z</time>
      </trkpt>
      <trkpt lat="45.92668" lon="4.73705">
        <ele>174</ele>
        <time>2017-07-10T08:35:45Z</time>
      </trkpt>
      <trkpt lat="45.92674" lon="4.73708">
        <ele>174</ele>
        <time>2017-07-10T08:35:46Z</time>
      </trkpt>
      <trkpt lat="45.9268" lon="4.73711">
        <ele>173</ele>
        <time>2017-07-10T08:35:47Z</time>
      </trkpt>
      <trkpt lat="45.92686" lon="4.73713">
        <ele>173</ele>
        <time>2017-07-10T08:35:48Z</time>
      </trkpt>
      <trkpt lat="45.92691" lon="4.73715">
        <ele>173</ele>
        <time>2017-07-10T08:35:49Z</time>
      </trkpt>
      <trkpt lat="45.92697" lon="4.73716">
        <ele>173</ele>
        <time>2017-07-10T08:35:50Z</time>
      </trkpt>
      <trkpt lat="45.92703" lon="4.73718">
        <ele>173</ele>
        <time>2017-07-10T08:35:51Z</time>
      </trkpt>
      <trkpt lat="45.92708" lon="4.73719">
        <ele>173</ele>
        <time>2017-07-10T08:35:52Z</time>
      </trkpt>
      <trkpt lat="45.92714" lon="4.73721">
        <ele>173</ele>
        <time>2017-07-10T08:35:53Z</time>
      </trkpt>
      <trkpt lat="45.92719" lon="4.73722">
        <ele>173</ele>
        <time>2017-07-10T08:35:54Z</time>
      </trkpt>
      <trkpt lat="45.92725" lon="4.73723">
        <ele>173</ele>
        <time>2017-07-10T08:35:55Z</time>
      </trkpt>
      <trkpt lat="45.92731" lon="4.73724">
        <ele>173</ele>
        <time>2017-07-10T08:35:56Z</time>
      </trkpt>
      <trkpt lat="45.92736" lon="4.73726">
        <ele>173</ele>
        <time>2017-07-10T08:35:57Z</time>
      </trkpt>
      <trkpt lat="45.92741" lon="4.73727">
        <ele>173</ele>
        <time>2017-07-10T08:35:58Z</time>
      </trkpt>
      <trkpt lat="45.92746" lon="4.73728">
        <ele>173</ele>
        <time>2017-07-10T08:35:59Z</time>
      </trkpt>
      <trkpt lat="45.92752" lon="4.73729">
        <ele>172</ele>
        <time>2017-07-10T08:36:00Z</time>
      </trkpt>
      <trkpt lat="45.92757" lon="4.73731">
        <ele>172</ele>
        <time>2017-07-10T08:36:01Z</time>
      </trkpt>
      <trkpt lat="45.92762" lon="4.73734">
        <ele>172</ele>
        <time>2017-07-10T08:36:02Z</time>
      </trkpt>
      <trkpt lat="45.92767" lon="4.73736">
        <ele>172</ele>
        <time>2017-07-10T08:36:03Z</time>
      </trkpt>
      <trkpt lat="45.92772" lon="4.73738">
        <ele>172</ele>
        <time>2017-07-10T08:36:04Z</time>
      </trkpt>
      <trkpt lat="45.92776" lon="4.7374">
        <ele>172</ele>
        <time>2017-07-10T08:36:05Z</time>
      </trkpt>
      <trkpt lat="45.92782" lon="4.73736">
        <ele>172</ele>
        <time>2017-07-10T08:36:07Z</time>
      </trkpt>
      <trkpt lat="45.92784" lon="4.7373">
        <ele>172</ele>
        <time>2017-07-10T08:36:08Z</time>
      </trkpt>
      <trkpt lat="45.92785" lon="4.73724">
        <ele>172</ele>
        <time>2017-07-10T08:36:09Z</time>
      </trkpt>
      <trkpt lat="45.92787" lon="4.73717">
        <ele>172</ele>
        <time>2017-07-10T08:36:10Z</time>
      </trkpt>
      <trkpt lat="45.92789" lon="4.73709">
        <ele>172</ele>
        <time>2017-07-10T08:36:11Z</time>
      </trkpt>
      <trkpt lat="45.92791" lon="4.73701">
        <ele>172</ele>
        <time>2017-07-10T08:36:12Z</time>
      </trkpt>
      <trkpt lat="45.92793" lon="4.73693">
        <ele>172</ele>
        <time>2017-07-10T08:36:13Z</time>
      </trkpt>
      <trkpt lat="45.92794" lon="4.73685">
        <ele>172</ele>
        <time>2017-07-10T08:36:14Z</time>
      </trkpt>
      <trkpt lat="45.92796" lon="4.73677">
        <ele>172</ele>
        <time>2017-07-10T08:36:15Z</time>
      </trkpt>
      <trkpt lat="45.92798" lon="4.73669">
        <ele>172</ele>
        <time>2017-07-10T08:36:16Z</time>
      </trkpt>
      <trkpt lat="45.928" lon="4.73662">
        <ele>172</ele>
        <time>2017-07-10T08:36:17Z</time>
      </trkpt>
      <trkpt lat="45.92801" lon="4.73655">
        <ele>172</ele>
        <time>2017-07-10T08:36:18Z</time>
      </trkpt>
      <trkpt lat="45.92803" lon="4.73649">
        <ele>172</ele>
        <time>2017-07-10T08:36:19Z</time>
      </trkpt>
      <trkpt lat="45.92806" lon="4.73642">
        <ele>172</ele>
        <time>2017-07-10T08:36:20Z</time>
      </trkpt>
      <trkpt lat="45.92812" lon="4.73634">
        <ele>172</ele>
        <time>2017-07-10T08:36:22Z</time>
      </trkpt>
      <trkpt lat="45.92815" lon="4.7363">
        <ele>172</ele>
        <time>2017-07-10T08:36:23Z</time>
      </trkpt>
      <trkpt lat="45.92818" lon="4.73625">
        <ele>172</ele>
        <time>2017-07-10T08:36:24Z</time>
      </trkpt>
      <trkpt lat="45.92819" lon="4.73618">
        <ele>172</ele>
        <time>2017-07-10T08:36:25Z</time>
      </trkpt>
      <trkpt lat="45.92819" lon="4.7361">
        <ele>172</ele>
        <time>2017-07-10T08:36:26Z</time>
      </trkpt>
      <trkpt lat="45.92819" lon="4.73602">
        <ele>171</ele>
        <time>2017-07-10T08:36:27Z</time>
      </trkpt>
      <trkpt lat="45.92819" lon="4.73594">
        <ele>171</ele>
        <time>2017-07-10T08:36:28Z</time>
      </trkpt>
      <trkpt lat="45.92819" lon="4.73586">
        <ele>171</ele>
        <time>2017-07-10T08:36:29Z</time>
      </trkpt>
      <trkpt lat="45.92819" lon="4.73578">
        <ele>171</ele>
        <time>2017-07-10T08:36:30Z</time>
      </trkpt>
      <trkpt lat="45.92819" lon="4.7357">
        <ele>171</ele>
        <time>2017-07-10T08:36:31Z</time>
      </trkpt>
      <trkpt lat="45.9282" lon="4.73562">
        <ele>171</ele>
        <time>2017-07-10T08:36:32Z</time>
      </trkpt>
      <trkpt lat="45.9282" lon="4.73553">
        <ele>171</ele>
        <time>2017-07-10T08:36:33Z</time>
      </trkpt>
      <trkpt lat="45.92821" lon="4.73544">
        <ele>171</ele>
        <time>2017-07-10T08:36:34Z</time>
      </trkpt>
      <trkpt lat="45.92822" lon="4.73536">
        <ele>172</ele>
        <time>2017-07-10T08:36:35Z</time>
      </trkpt>
      <trkpt lat="45.92822" lon="4.73528">
        <ele>172</ele>
        <time>2017-07-10T08:36:36Z</time>
      </trkpt>
      <trkpt lat="45.92822" lon="4.7352">
        <ele>172</ele>
        <time>2017-07-10T08:36:37Z</time>
      </trkpt>
      <trkpt lat="45.92823" lon="4.73513">
        <ele>172</ele>
        <time>2017-07-10T08:36:38Z</time>
      </trkpt>
      <trkpt lat="45.92824" lon="4.73505">
        <ele>172</ele>
        <time>2017-07-10T08:36:39Z</time>
      </trkpt>
      <trkpt lat="45.92824" lon="4.73497">
        <ele>172</ele>
        <time>2017-07-10T08:36:40Z</time>
      </trkpt>
      <trkpt lat="45.92825" lon="4.7349">
        <ele>172</ele>
        <time>2017-07-10T08:36:41Z</time>
      </trkpt>
      <trkpt lat="45.92826" lon="4.73481">
        <ele>172</ele>
        <time>2017-07-10T08:36:42Z</time>
      </trkpt>
      <trkpt lat="45.92827" lon="4.73473">
        <ele>172</ele>
        <time>2017-07-10T08:36:43Z</time>
      </trkpt>
      <trkpt lat="45.92828" lon="4.73465">
        <ele>172</ele>
        <time>2017-07-10T08:36:44Z</time>
      </trkpt>
      <trkpt lat="45.92829" lon="4.73456">
        <ele>172</ele>
        <time>2017-07-10T08:36:45Z</time>
      </trkpt>
      <trkpt lat="45.9283" lon="4.73448">
        <ele>172</ele>
        <time>2017-07-10T08:36:46Z</time>
      </trkpt>
      <trkpt lat="45.92831" lon="4.73439">
        <ele>172</ele>
        <time>2017-07-10T08:36:47Z</time>
      </trkpt>
      <trkpt lat="45.92831" lon="4.7343">
        <ele>172</ele>
        <time>2017-07-10T08:36:48Z</time>
      </trkpt>
      <trkpt lat="45.92832" lon="4.73421">
        <ele>172</ele>
        <time>2017-07-10T08:36:49Z</time>
      </trkpt>
      <trkpt lat="45.92834" lon="4.73412">
        <ele>172</ele>
        <time>2017-07-10T08:36:50Z</time>
      </trkpt>
      <trkpt lat="45.92835" lon="4.73403">
        <ele>172</ele>
        <time>2017-07-10T08:36:51Z</time>
      </trkpt>
      <trkpt lat="45.92836" lon="4.73395">
        <ele>172</ele>
        <time>2017-07-10T08:36:52Z</time>
      </trkpt>
      <trkpt lat="45.92838" lon="4.73386">
        <ele>172</ele>
        <time>2017-07-10T08:36:53Z</time>
      </trkpt>
      <trkpt lat="45.92839" lon="4.73378">
        <ele>172</ele>
        <time>2017-07-10T08:36:54Z</time>
      </trkpt>
      <trkpt lat="45.92841" lon="4.73369">
        <ele>171</ele>
        <time>2017-07-10T08:36:55Z</time>
      </trkpt>
      <trkpt lat="45.92842" lon="4.73361">
        <ele>171</ele>
        <time>2017-07-10T08:36:56Z</time>
      </trkpt>
      <trkpt lat="45.92844" lon="4.73353">
        <ele>171</ele>
        <time>2017-07-10T08:36:57Z</time>
      </trkpt>
      <trkpt lat="45.92845" lon="4.73345">
        <ele>171</ele>
        <time>2017-07-10T08:36:58Z</time>
      </trkpt>
      <trkpt lat="45.92846" lon="4.73337">
        <ele>171</ele>
        <time>2017-07-10T08:36:59Z</time>
      </trkpt>
      <trkpt lat="45.92846" lon="4.73329">
        <ele>171</ele>
        <time>2017-07-10T08:37:00Z</time>
      </trkpt>
      <trkpt lat="45.92848" lon="4.7332">
        <ele>171</ele>
        <time>2017-07-10T08:37:01Z</time>
      </trkpt>
      <trkpt lat="45.92848" lon="4.73312">
        <ele>171</ele>
        <time>2017-07-10T08:37:02Z</time>
      </trkpt>
      <trkpt lat="45.9285" lon="4.73303">
        <ele>171</ele>
        <time>2017-07-10T08:37:03Z</time>
      </trkpt>
      <trkpt lat="45.92851" lon="4.73294">
        <ele>171</ele>
        <time>2017-07-10T08:37:04Z</time>
      </trkpt>
      <trkpt lat="45.92851" lon="4.73286">
        <ele>171</ele>
        <time>2017-07-10T08:37:05Z</time>
      </trkpt>
      <trkpt lat="45.92852" lon="4.73276">
        <ele>171</ele>
        <time>2017-07-10T08:37:06Z</time>
      </trkpt>
      <trkpt lat="45.92853" lon="4.73267">
        <ele>171</ele>
        <time>2017-07-10T08:37:07Z</time>
      </trkpt>
      <trkpt lat="45.92854" lon="4.73257">
        <ele>171</ele>
        <time>2017-07-10T08:37:08Z</time>
      </trkpt>
      <trkpt lat="45.92855" lon="4.73248">
        <ele>171</ele>
        <time>2017-07-10T08:37:09Z</time>
      </trkpt>
      <trkpt lat="45.92857" lon="4.73238">
        <ele>171</ele>
        <time>2017-07-10T08:37:10Z</time>
      </trkpt>
      <trkpt lat="45.92858" lon="4.73229">
        <ele>171</ele>
        <time>2017-07-10T08:37:11Z</time>
      </trkpt>
      <trkpt lat="45.92859" lon="4.7322">
        <ele>171</ele>
        <time>2017-07-10T08:37:12Z</time>
      </trkpt>
      <trkpt lat="45.92861" lon="4.73211">
        <ele>171</ele>
        <time>2017-07-10T08:37:13Z</time>
      </trkpt>
      <trkpt lat="45.92862" lon="4.73202">
        <ele>171</ele>
        <time>2017-07-10T08:37:14Z</time>
      </trkpt>
      <trkpt lat="45.92863" lon="4.73193">
        <ele>171</ele>
        <time>2017-07-10T08:37:15Z</time>
      </trkpt>
      <trkpt lat="45.92864" lon="4.73183">
        <ele>171</ele>
        <time>2017-07-10T08:37:16Z</time>
      </trkpt>
      <trkpt lat="45.92866" lon="4.73174">
        <ele>171</ele>
        <time>2017-07-10T08:37:17Z</time>
      </trkpt>
      <trkpt lat="45.92867" lon="4.73164">
        <ele>171</ele>
        <time>2017-07-10T08:37:18Z</time>
      </trkpt>
      <trkpt lat="45.92868" lon="4.73154">
        <ele>171</ele>
        <time>2017-07-10T08:37:19Z</time>
      </trkpt>
      <trkpt lat="45.92869" lon="4.73144">
        <ele>171</ele>
        <time>2017-07-10T08:37:20Z</time>
      </trkpt>
      <trkpt lat="45.92871" lon="4.73134">
        <ele>171</ele>
        <time>2017-07-10T08:37:21Z</time>
      </trkpt>
      <trkpt lat="45.92873" lon="4.73124">
        <ele>171</ele>
        <time>2017-07-10T08:37:22Z</time>
      </trkpt>
      <trkpt lat="45.92875" lon="4.73114">
        <ele>172</ele>
        <time>2017-07-10T08:37:23Z</time>
      </trkpt>
      <trkpt lat="45.92877" lon="4.73104">
        <ele>172</ele>
        <time>2017-07-10T08:37:24Z</time>
      </trkpt>
      <trkpt lat="45.9288" lon="4.73095">
        <ele>172</ele>
        <time>2017-07-10T08:37:25Z</time>
      </trkpt>
      <trkpt lat="45.92883" lon="4.73086">
        <ele>172</ele>
        <time>2017-07-10T08:37:26Z</time>
      </trkpt>
      <trkpt lat="45.92886" lon="4.73078">
        <ele>172</ele>
        <time>2017-07-10T08:37:27Z</time>
      </trkpt>
      <trkpt lat="45.92889" lon="4.7307">
        <ele>172</ele>
        <time>2017-07-10T08:37:28Z</time>
      </trkpt>
      <trkpt lat="45.92893" lon="4.73063">
        <ele>172</ele>
        <time>2017-07-10T08:37:29Z</time>
      </trkpt>
      <trkpt lat="45.92897" lon="4.73056">
        <ele>172</ele>
        <time>2017-07-10T08:37:30Z</time>
      </trkpt>
      <trkpt lat="45.92901" lon="4.7305">
        <ele>172</ele>
        <time>2017-07-10T08:37:31Z</time>
      </trkpt>
      <trkpt lat="45.92905" lon="4.73044">
        <ele>172</ele>
        <time>2017-07-10T08:37:32Z</time>
      </trkpt>
      <trkpt lat="45.92909" lon="4.73038">
        <ele>172</ele>
        <time>2017-07-10T08:37:33Z</time>
      </trkpt>
      <trkpt lat="45.92913" lon="4.73032">
        <ele>172</ele>
        <time>2017-07-10T08:37:34Z</time>
      </trkpt>
      <trkpt lat="45.92918" lon="4.73026">
        <ele>172</ele>
        <time>2017-07-10T08:37:35Z</time>
      </trkpt>
      <trkpt lat="45.92922" lon="4.7302">
        <ele>172</ele>
        <time>2017-07-10T08:37:36Z</time>
      </trkpt>
      <trkpt lat="45.92928" lon="4.73014">
        <ele>172</ele>
        <time>2017-07-10T08:37:37Z</time>
      </trkpt>
      <trkpt lat="45.92933" lon="4.73008">
        <ele>171</ele>
        <time>2017-07-10T08:37:38Z</time>
      </trkpt>
      <trkpt lat="45.92938" lon="4.73003">
        <ele>171</ele>
        <time>2017-07-10T08:37:39Z</time>
      </trkpt>
      <trkpt lat="45.92943" lon="4.72997">
        <ele>171</ele>
        <time>2017-07-10T08:37:40Z</time>
      </trkpt>
      <trkpt lat="45.92949" lon="4.72991">
        <ele>171</ele>
        <time>2017-07-10T08:37:41Z</time>
      </trkpt>
      <trkpt lat="45.92954" lon="4.72985">
        <ele>171</ele>
        <time>2017-07-10T08:37:42Z</time>
      </trkpt>
      <trkpt lat="45.92959" lon="4.72978">
        <ele>171</ele>
        <time>2017-07-10T08:37:43Z</time>
      </trkpt>
      <trkpt lat="45.92964" lon="4.72972">
        <ele>171</ele>
        <time>2017-07-10T08:37:44Z</time>
      </trkpt>
      <trkpt lat="45.9297" lon="4.72966">
        <ele>171</ele>
        <time>2017-07-10T08:37:45Z</time>
      </trkpt>
      <trkpt lat="45.92975" lon="4.7296">
        <ele>171</ele>
        <time>2017-07-10T08:37:46Z</time>
      </trkpt>
      <trkpt lat="45.9298" lon="4.72954">
        <ele>171</ele>
        <time>2017-07-10T08:37:47Z</time>
      </trkpt>
      <trkpt lat="45.92985" lon="4.72948">
        <ele>171</ele>
        <time>2017-07-10T08:37:48Z</time>
      </trkpt>
      <trkpt lat="45.9299" lon="4.72941">
        <ele>171</ele>
        <time>2017-07-10T08:37:49Z</time>
      </trkpt>
      <trkpt lat="45.92995" lon="4.72935">
        <ele>171</ele>
        <time>2017-07-10T08:37:50Z</time>
      </trkpt>
      <trkpt lat="45.93" lon="4.72929">
        <ele>170</ele>
        <time>2017-07-10T08:37:51Z</time>
      </trkpt>
      <trkpt lat="45.93005" lon="4.72923">
        <ele>170</ele>
        <time>2017-07-10T08:37:52Z</time>
      </trkpt>
      <trkpt lat="45.9301" lon="4.72917">
        <ele>171</ele>
        <time>2017-07-10T08:37:53Z</time>
      </trkpt>
      <trkpt lat="45.93015" lon="4.72911">
        <ele>171</ele>
        <time>2017-07-10T08:37:54Z</time>
      </trkpt>
      <trkpt lat="45.9302" lon="4.72905">
        <ele>172</ele>
        <time>2017-07-10T08:37:55Z</time>
      </trkpt>
      <trkpt lat="45.93025" lon="4.72899">
        <ele>172</ele>
        <time>2017-07-10T08:37:56Z</time>
      </trkpt>
      <trkpt lat="45.93029" lon="4.72893">
        <ele>172</ele>
        <time>2017-07-10T08:37:57Z</time>
      </trkpt>
      <trkpt lat="45.93035" lon="4.72888">
        <ele>172</ele>
        <time>2017-07-10T08:37:58Z</time>
      </trkpt>
      <trkpt lat="45.9304" lon="4.72882">
        <ele>172</ele>
        <time>2017-07-10T08:37:59Z</time>
      </trkpt>
      <trkpt lat="45.93045" lon="4.72877">
        <ele>172</ele>
        <time>2017-07-10T08:38:00Z</time>
      </trkpt>
      <trkpt lat="45.93049" lon="4.72871">
        <ele>172</ele>
        <time>2017-07-10T08:38:01Z</time>
      </trkpt>
      <trkpt lat="45.93055" lon="4.72865">
        <ele>172</ele>
        <time>2017-07-10T08:38:02Z</time>
      </trkpt>
      <trkpt lat="45.9306" lon="4.7286">
        <ele>172</ele>
        <time>2017-07-10T08:38:03Z</time>
      </trkpt>
      <trkpt lat="45.93065" lon="4.72854">
        <ele>172</ele>
        <time>2017-07-10T08:38:04Z</time>
      </trkpt>
      <trkpt lat="45.93069" lon="4.72848">
        <ele>172</ele>
        <time>2017-07-10T08:38:05Z</time>
      </trkpt>
      <trkpt lat="45.93073" lon="4.72842">
        <ele>173</ele>
        <time>2017-07-10T08:38:06Z</time>
      </trkpt>
      <trkpt lat="45.93078" lon="4.72836">
        <ele>173</ele>
        <time>2017-07-10T08:38:07Z</time>
      </trkpt>
      <trkpt lat="45.93084" lon="4.7283">
        <ele>173</ele>
        <time>2017-07-10T08:38:08Z</time>
      </trkpt>
      <trkpt lat="45.9309" lon="4.72824">
        <ele>172</ele>
        <time>2017-07-10T08:38:09Z</time>
      </trkpt>
      <trkpt lat="45.93095" lon="4.72815">
        <ele>172</ele>
        <time>2017-07-10T08:38:10Z</time>
      </trkpt>
      <trkpt lat="45.93103" lon="4.7281">
        <ele>172</ele>
        <time>2017-07-10T08:38:11Z</time>
      </trkpt>
      <trkpt lat="45.93109" lon="4.72808">
        <ele>171</ele>
        <time>2017-07-10T08:38:12Z</time>
      </trkpt>
      <trkpt lat="45.93113" lon="4.72802">
        <ele>171</ele>
        <time>2017-07-10T08:38:13Z</time>
      </trkpt>
      <trkpt lat="45.93118" lon="4.72796">
        <ele>171</ele>
        <time>2017-07-10T08:38:14Z</time>
      </trkpt>
      <trkpt lat="45.93123" lon="4.7279">
        <ele>171</ele>
        <time>2017-07-10T08:38:15Z</time>
      </trkpt>
      <trkpt lat="45.93127" lon="4.72785">
        <ele>171</ele>
        <time>2017-07-10T08:38:16Z</time>
      </trkpt>
      <trkpt lat="45.93132" lon="4.72779">
        <ele>171</ele>
        <time>2017-07-10T08:38:17Z</time>
      </trkpt>
      <trkpt lat="45.93137" lon="4.72774">
        <ele>171</ele>
        <time>2017-07-10T08:38:18Z</time>
      </trkpt>
      <trkpt lat="45.93141" lon="4.72769">
        <ele>171</ele>
        <time>2017-07-10T08:38:19Z</time>
      </trkpt>
      <trkpt lat="45.93146" lon="4.72764">
        <ele>171</ele>
        <time>2017-07-10T08:38:20Z</time>
      </trkpt>
      <trkpt lat="45.93151" lon="4.72759">
        <ele>170</ele>
        <time>2017-07-10T08:38:21Z</time>
      </trkpt>
      <trkpt lat="45.93155" lon="4.72753">
        <ele>170</ele>
        <time>2017-07-10T08:38:22Z</time>
      </trkpt>
      <trkpt lat="45.9316" lon="4.72747">
        <ele>170</ele>
        <time>2017-07-10T08:38:23Z</time>
      </trkpt>
      <trkpt lat="45.93164" lon="4.72741">
        <ele>170</ele>
        <time>2017-07-10T08:38:24Z</time>
      </trkpt>
      <trkpt lat="45.93169" lon="4.72734">
        <ele>170</ele>
        <time>2017-07-10T08:38:25Z</time>
      </trkpt>
      <trkpt lat="45.93174" lon="4.72727">
        <ele>170</ele>
        <time>2017-07-10T08:38:26Z</time>
      </trkpt>
      <trkpt lat="45.93179" lon="4.72722">
        <ele>170</ele>
        <time>2017-07-10T08:38:27Z</time>
      </trkpt>
      <trkpt lat="45.93184" lon="4.72716">
        <ele>169</ele>
        <time>2017-07-10T08:38:28Z</time>
      </trkpt>
      <trkpt lat="45.93188" lon="4.7271">
        <ele>169</ele>
        <time>2017-07-10T08:38:29Z</time>
      </trkpt>
      <trkpt lat="45.93194" lon="4.72704">
        <ele>169</ele>
        <time>2017-07-10T08:38:30Z</time>
      </trkpt>
      <trkpt lat="45.93199" lon="4.72698">
        <ele>169</ele>
        <time>2017-07-10T08:38:31Z</time>
      </trkpt>
      <trkpt lat="45.93203" lon="4.72692">
        <ele>169</ele>
        <time>2017-07-10T08:38:32Z</time>
      </trkpt>
      <trkpt lat="45.93208" lon="4.72686">
        <ele>169</ele>
        <time>2017-07-10T08:38:33Z</time>
      </trkpt>
      <trkpt lat="45.93213" lon="4.7268">
        <ele>169</ele>
        <time>2017-07-10T08:38:34Z</time>
      </trkpt>
      <trkpt lat="45.93217" lon="4.72675">
        <ele>169</ele>
        <time>2017-07-10T08:38:35Z</time>
      </trkpt>
      <trkpt lat="45.93222" lon="4.72669">
        <ele>169</ele>
        <time>2017-07-10T08:38:36Z</time>
      </trkpt>
      <trkpt lat="45.93226" lon="4.72664">
        <ele>170</ele>
        <time>2017-07-10T08:38:37Z</time>
      </trkpt>
      <trkpt lat="45.93231" lon="4.72658">
        <ele>169</ele>
        <time>2017-07-10T08:38:38Z</time>
      </trkpt>
      <trkpt lat="45.93235" lon="4.72653">
        <ele>169</ele>
        <time>2017-07-10T08:38:39Z</time>
      </trkpt>
      <trkpt lat="45.9324" lon="4.72648">
        <ele>170</ele>
        <time>2017-07-10T08:38:40Z</time>
      </trkpt>
      <trkpt lat="45.93245" lon="4.72642">
        <ele>170</ele>
        <time>2017-07-10T08:38:41Z</time>
      </trkpt>
      <trkpt lat="45.93249" lon="4.72637">
        <ele>170</ele>
        <time>2017-07-10T08:38:42Z</time>
      </trkpt>
      <trkpt lat="45.93254" lon="4.72631">
        <ele>170</ele>
        <time>2017-07-10T08:38:43Z</time>
      </trkpt>
      <trkpt lat="45.93259" lon="4.72626">
        <ele>170</ele>
        <time>2017-07-10T08:38:44Z</time>
      </trkpt>
      <trkpt lat="45.93263" lon="4.7262">
        <ele>170</ele>
        <time>2017-07-10T08:38:45Z</time>
      </trkpt>
      <trkpt lat="45.93267" lon="4.72615">
        <ele>170</ele>
        <time>2017-07-10T08:38:46Z</time>
      </trkpt>
      <trkpt lat="45.93272" lon="4.7261">
        <ele>170</ele>
        <time>2017-07-10T08:38:47Z</time>
      </trkpt>
      <trkpt lat="45.93276" lon="4.72605">
        <ele>170</ele>
        <time>2017-07-10T08:38:48Z</time>
      </trkpt>
      <trkpt lat="45.93281" lon="4.726">
        <ele>170</ele>
        <time>2017-07-10T08:38:49Z</time>
      </trkpt>
      <trkpt lat="45.93285" lon="4.72595">
        <ele>170</ele>
        <time>2017-07-10T08:38:50Z</time>
      </trkpt>
      <trkpt lat="45.9329" lon="4.7259">
        <ele>170</ele>
        <time>2017-07-10T08:38:51Z</time>
      </trkpt>
      <trkpt lat="45.93294" lon="4.72584">
        <ele>170</ele>
        <time>2017-07-10T08:38:52Z</time>
      </trkpt>
      <trkpt lat="45.93298" lon="4.72579">
        <ele>171</ele>
        <time>2017-07-10T08:38:53Z</time>
      </trkpt>
      <trkpt lat="45.93302" lon="4.72574">
        <ele>171</ele>
        <time>2017-07-10T08:38:54Z</time>
      </trkpt>
      <trkpt lat="45.93306" lon="4.72569">
        <ele>171</ele>
        <time>2017-07-10T08:38:55Z</time>
      </trkpt>
      <trkpt lat="45.93311" lon="4.72564">
        <ele>171</ele>
        <time>2017-07-10T08:38:56Z</time>
      </trkpt>
      <trkpt lat="45.93315" lon="4.72558">
        <ele>171</ele>
        <time>2017-07-10T08:38:57Z</time>
      </trkpt>
      <trkpt lat="45.9332" lon="4.72553">
        <ele>172</ele>
        <time>2017-07-10T08:38:58Z</time>
      </trkpt>
      <trkpt lat="45.93325" lon="4.72547">
        <ele>172</ele>
        <time>2017-07-10T08:38:59Z</time>
      </trkpt>
      <trkpt lat="45.9333" lon="4.72542">
        <ele>172</ele>
        <time>2017-07-10T08:39:00Z</time>
      </trkpt>
      <trkpt lat="45.93335" lon="4.72536">
        <ele>171</ele>
        <time>2017-07-10T08:39:01Z</time>
      </trkpt>
      <trkpt lat="45.9334" lon="4.72531">
        <ele>172</ele>
        <time>2017-07-10T08:39:02Z</time>
      </trkpt>
      <trkpt lat="45.93345" lon="4.72525">
        <ele>172</ele>
        <time>2017-07-10T08:39:03Z</time>
      </trkpt>
      <trkpt lat="45.93349" lon="4.7252">
        <ele>172</ele>
        <time>2017-07-10T08:39:04Z</time>
      </trkpt>
      <trkpt lat="45.93354" lon="4.72514">
        <ele>172</ele>
        <time>2017-07-10T08:39:05Z</time>
      </trkpt>
      <trkpt lat="45.93358" lon="4.72509">
        <ele>172</ele>
        <time>2017-07-10T08:39:06Z</time>
      </trkpt>
      <trkpt lat="45.93362" lon="4.72503">
        <ele>172</ele>
        <time>2017-07-10T08:39:07Z</time>
      </trkpt>
      <trkpt lat="45.93366" lon="4.72498">
        <ele>173</ele>
        <time>2017-07-10T08:39:08Z</time>
      </trkpt>
      <trkpt lat="45.93371" lon="4.72493">
        <ele>173</ele>
        <time>2017-07-10T08:39:09Z</time>
      </trkpt>
      <trkpt lat="45.93376" lon="4.72487">
        <ele>173</ele>
        <time>2017-07-10T08:39:10Z</time>
      </trkpt>
      <trkpt lat="45.9338" lon="4.72482">
        <ele>173</ele>
        <time>2017-07-10T08:39:11Z</time>
      </trkpt>
      <trkpt lat="45.93385" lon="4.72477">
        <ele>173</ele>
        <time>2017-07-10T08:39:12Z</time>
      </trkpt>
      <trkpt lat="45.93389" lon="4.72472">
        <ele>173</ele>
        <time>2017-07-10T08:39:13Z</time>
      </trkpt>
      <trkpt lat="45.93392" lon="4.72465">
        <ele>173</ele>
        <time>2017-07-10T08:39:14Z</time>
      </trkpt>
      <trkpt lat="45.93395" lon="4.72459">
        <ele>173</ele>
        <time>2017-07-10T08:39:15Z</time>
      </trkpt>
      <trkpt lat="45.93397" lon="4.72453">
        <ele>173</ele>
        <time>2017-07-10T08:39:16Z</time>
      </trkpt>
      <trkpt lat="45.93398" lon="4.72447">
        <ele>173</ele>
        <time>2017-07-10T08:39:17Z</time>
      </trkpt>
      <trkpt lat="45.93402" lon="4.72435">
        <ele>173</ele>
        <time>2017-07-10T08:39:19Z</time>
      </trkpt>
      <trkpt lat="45.93405" lon="4.72431">
        <ele>173</ele>
        <time>2017-07-10T08:39:20Z</time>
      </trkpt>
      <trkpt lat="45.93408" lon="4.72426">
        <ele>174</ele>
        <time>2017-07-10T08:39:21Z</time>
      </trkpt>
      <trkpt lat="45.93412" lon="4.72422">
        <ele>174</ele>
        <time>2017-07-10T08:39:22Z</time>
      </trkpt>
      <trkpt lat="45.93417" lon="4.72419">
        <ele>174</ele>
        <time>2017-07-10T08:39:23Z</time>
      </trkpt>
      <trkpt lat="45.93423" lon="4.72417">
        <ele>174</ele>
        <time>2017-07-10T08:39:24Z</time>
      </trkpt>
      <trkpt lat="45.93429" lon="4.72415">
        <ele>174</ele>
        <time>2017-07-10T08:39:25Z</time>
      </trkpt>
      <trkpt lat="45.93434" lon="4.72412">
        <ele>174</ele>
        <time>2017-07-10T08:39:26Z</time>
      </trkpt>
      <trkpt lat="45.9344" lon="4.72409">
        <ele>174</ele>
        <time>2017-07-10T08:39:27Z</time>
      </trkpt>
      <trkpt lat="45.93445" lon="4.72405">
        <ele>173</ele>
        <time>2017-07-10T08:39:28Z</time>
      </trkpt>
      <trkpt lat="45.93451" lon="4.724">
        <ele>173</ele>
        <time>2017-07-10T08:39:29Z</time>
      </trkpt>
      <trkpt lat="45.93457" lon="4.72395">
        <ele>173</ele>
        <time>2017-07-10T08:39:30Z</time>
      </trkpt>
      <trkpt lat="45.93462" lon="4.72389">
        <ele>173</ele>
        <time>2017-07-10T08:39:31Z</time>
      </trkpt>
      <trkpt lat="45.93467" lon="4.72384">
        <ele>173</ele>
        <time>2017-07-10T08:39:32Z</time>
      </trkpt>
      <trkpt lat="45.93471" lon="4.72378">
        <ele>173</ele>
        <time>2017-07-10T08:39:33Z</time>
      </trkpt>
      <trkpt lat="45.93475" lon="4.72371">
        <ele>173</ele>
        <time>2017-07-10T08:39:34Z</time>
      </trkpt>
      <trkpt lat="45.9348" lon="4.72365">
        <ele>173</ele>
        <time>2017-07-10T08:39:35Z</time>
      </trkpt>
      <trkpt lat="45.93484" lon="4.72359">
        <ele>173</ele>
        <time>2017-07-10T08:39:36Z</time>
      </trkpt>
      <trkpt lat="45.93489" lon="4.72353">
        <ele>173</ele>
        <time>2017-07-10T08:39:37Z</time>
      </trkpt>
      <trkpt lat="45.93494" lon="4.72347">
        <ele>173</ele>
        <time>2017-07-10T08:39:38Z</time>
      </trkpt>
      <trkpt lat="45.93499" lon="4.72341">
        <ele>173</ele>
        <time>2017-07-10T08:39:39Z</time>
      </trkpt>
      <trkpt lat="45.93505" lon="4.72336">
        <ele>173</ele>
        <time>2017-07-10T08:39:40Z</time>
      </trkpt>
      <trkpt lat="45.93509" lon="4.7233">
        <ele>173</ele>
        <time>2017-07-10T08:39:41Z</time>
      </trkpt>
      <trkpt lat="45.93513" lon="4.72324">
        <ele>173</ele>
        <time>2017-07-10T08:39:42Z</time>
      </trkpt>
      <trkpt lat="45.93516" lon="4.72318">
        <ele>173</ele>
        <time>2017-07-10T08:39:43Z</time>
      </trkpt>
      <trkpt lat="45.9352" lon="4.72312">
        <ele>173</ele>
        <time>2017-07-10T08:39:44Z</time>
      </trkpt>
      <trkpt lat="45.93522" lon="4.72305">
        <ele>173</ele>
        <time>2017-07-10T08:39:45Z</time>
      </trkpt>
      <trkpt lat="45.93525" lon="4.72298">
        <ele>172</ele>
        <time>2017-07-10T08:39:46Z</time>
      </trkpt>
      <trkpt lat="45.93528" lon="4.72291">
        <ele>172</ele>
        <time>2017-07-10T08:39:47Z</time>
      </trkpt>
      <trkpt lat="45.93531" lon="4.72283">
        <ele>172</ele>
        <time>2017-07-10T08:39:48Z</time>
      </trkpt>
      <trkpt lat="45.93534" lon="4.72276">
        <ele>172</ele>
        <time>2017-07-10T08:39:49Z</time>
      </trkpt>
      <trkpt lat="45.93537" lon="4.72269">
        <ele>172</ele>
        <time>2017-07-10T08:39:50Z</time>
      </trkpt>
      <trkpt lat="45.93539" lon="4.72262">
        <ele>172</ele>
        <time>2017-07-10T08:39:51Z</time>
      </trkpt>
      <trkpt lat="45.93542" lon="4.72254">
        <ele>172</ele>
        <time>2017-07-10T08:39:52Z</time>
      </trkpt>
      <trkpt lat="45.93545" lon="4.72247">
        <ele>172</ele>
        <time>2017-07-10T08:39:53Z</time>
      </trkpt>
      <trkpt lat="45.93547" lon="4.7224">
        <ele>172</ele>
        <time>2017-07-10T08:39:54Z</time>
      </trkpt>
      <trkpt lat="45.9355" lon="4.72234">
        <ele>172</ele>
        <time>2017-07-10T08:39:55Z</time>
      </trkpt>
      <trkpt lat="45.93553" lon="4.7223">
        <ele>173</ele>
        <time>2017-07-10T08:39:56Z</time>
      </trkpt>
      <trkpt lat="45.93558" lon="4.72228">
        <ele>173</ele>
        <time>2017-07-10T08:39:57Z</time>
      </trkpt>
      <trkpt lat="45.93563" lon="4.72229">
        <ele>173</ele>
        <time>2017-07-10T08:39:58Z</time>
      </trkpt>
      <trkpt lat="45.93568" lon="4.72232">
        <ele>173</ele>
        <time>2017-07-10T08:39:59Z</time>
      </trkpt>
      <trkpt lat="45.93573" lon="4.72237">
        <ele>173</ele>
        <time>2017-07-10T08:40:00Z</time>
      </trkpt>
      <trkpt lat="45.93577" lon="4.72243">
        <ele>173</ele>
        <time>2017-07-10T08:40:01Z</time>
      </trkpt>
      <trkpt lat="45.93581" lon="4.72247">
        <ele>173</ele>
        <time>2017-07-10T08:40:02Z</time>
      </trkpt>
      <trkpt lat="45.93586" lon="4.72251">
        <ele>173</ele>
        <time>2017-07-10T08:40:03Z</time>
      </trkpt>
      <trkpt lat="45.9359" lon="4.72255">
        <ele>173</ele>
        <time>2017-07-10T08:40:04Z</time>
      </trkpt>
      <trkpt lat="45.93594" lon="4.72258">
        <ele>173</ele>
        <time>2017-07-10T08:40:05Z</time>
      </trkpt>
      <trkpt lat="45.93599" lon="4.72262">
        <ele>173</ele>
        <time>2017-07-10T08:40:06Z</time>
      </trkpt>
      <trkpt lat="45.93603" lon="4.72267">
        <ele>173</ele>
        <time>2017-07-10T08:40:07Z</time>
      </trkpt>
      <trkpt lat="45.93607" lon="4.72271">
        <ele>172</ele>
        <time>2017-07-10T08:40:08Z</time>
      </trkpt>
      <trkpt lat="45.93611" lon="4.72276">
        <ele>172</ele>
        <time>2017-07-10T08:40:09Z</time>
      </trkpt>
      <trkpt lat="45.93616" lon="4.72281">
        <ele>172</ele>
        <time>2017-07-10T08:40:10Z</time>
      </trkpt>
      <trkpt lat="45.93622" lon="4.72286">
        <ele>172</ele>
        <time>2017-07-10T08:40:11Z</time>
      </trkpt>
      <trkpt lat="45.93627" lon="4.72292">
        <ele>172</ele>
        <time>2017-07-10T08:40:12Z</time>
      </trkpt>
      <trkpt lat="45.93632" lon="4.72296">
        <ele>172</ele>
        <time>2017-07-10T08:40:13Z</time>
      </trkpt>
      <trkpt lat="45.93637" lon="4.723">
        <ele>172</ele>
        <time>2017-07-10T08:40:14Z</time>
      </trkpt>
      <trkpt lat="45.93642" lon="4.72305">
        <ele>172</ele>
        <time>2017-07-10T08:40:15Z</time>
      </trkpt>
      <trkpt lat="45.93647" lon="4.7231">
        <ele>172</ele>
        <time>2017-07-10T08:40:16Z</time>
      </trkpt>
      <trkpt lat="45.93653" lon="4.72315">
        <ele>172</ele>
        <time>2017-07-10T08:40:17Z</time>
      </trkpt>
      <trkpt lat="45.93657" lon="4.72319">
        <ele>172</ele>
        <time>2017-07-10T08:40:18Z</time>
      </trkpt>
      <trkpt lat="45.93662" lon="4.72323">
        <ele>171</ele>
        <time>2017-07-10T08:40:19Z</time>
      </trkpt>
      <trkpt lat="45.93667" lon="4.72327">
        <ele>171</ele>
        <time>2017-07-10T08:40:20Z</time>
      </trkpt>
      <trkpt lat="45.93672" lon="4.72332">
        <ele>171</ele>
        <time>2017-07-10T08:40:21Z</time>
      </trkpt>
      <trkpt lat="45.93677" lon="4.72337">
        <ele>171</ele>
        <time>2017-07-10T08:40:22Z</time>
      </trkpt>
      <trkpt lat="45.93683" lon="4.72343">
        <ele>171</ele>
        <time>2017-07-10T08:40:23Z</time>
      </trkpt>
      <trkpt lat="45.93688" lon="4.72348">
        <ele>171</ele>
        <time>2017-07-10T08:40:24Z</time>
      </trkpt>
      <trkpt lat="45.93693" lon="4.72352">
        <ele>171</ele>
        <time>2017-07-10T08:40:25Z</time>
      </trkpt>
      <trkpt lat="45.93699" lon="4.72357">
        <ele>171</ele>
        <time>2017-07-10T08:40:26Z</time>
      </trkpt>
      <trkpt lat="45.93704" lon="4.72362">
        <ele>171</ele>
        <time>2017-07-10T08:40:27Z</time>
      </trkpt>
      <trkpt lat="45.93709" lon="4.72368">
        <ele>172</ele>
        <time>2017-07-10T08:40:28Z</time>
      </trkpt>
      <trkpt lat="45.93714" lon="4.72374">
        <ele>172</ele>
        <time>2017-07-10T08:40:29Z</time>
      </trkpt>
      <trkpt lat="45.93718" lon="4.7238">
        <ele>171</ele>
        <time>2017-07-10T08:40:30Z</time>
      </trkpt>
      <trkpt lat="45.93723" lon="4.72384">
        <ele>171</ele>
        <time>2017-07-10T08:40:31Z</time>
      </trkpt>
      <trkpt lat="45.93728" lon="4.72389">
        <ele>171</ele>
        <time>2017-07-10T08:40:32Z</time>
      </trkpt>
      <trkpt lat="45.93732" lon="4.72394">
        <ele>171</ele>
        <time>2017-07-10T08:40:33Z</time>
      </trkpt>
      <trkpt lat="45.93736" lon="4.72398">
        <ele>171</ele>
        <time>2017-07-10T08:40:34Z</time>
      </trkpt>
      <trkpt lat="45.93741" lon="4.72403">
        <ele>171</ele>
        <time>2017-07-10T08:40:35Z</time>
      </trkpt>
      <trkpt lat="45.93746" lon="4.72407">
        <ele>171</ele>
        <time>2017-07-10T08:40:36Z</time>
      </trkpt>
      <trkpt lat="45.93751" lon="4.72411">
        <ele>171</ele>
        <time>2017-07-10T08:40:37Z</time>
      </trkpt>
      <trkpt lat="45.93756" lon="4.72416">
        <ele>171</ele>
        <time>2017-07-10T08:40:38Z</time>
      </trkpt>
      <trkpt lat="45.93762" lon="4.72421">
        <ele>171</ele>
        <time>2017-07-10T08:40:39Z</time>
      </trkpt>
      <trkpt lat="45.93767" lon="4.72427">
        <ele>171</ele>
        <time>2017-07-10T08:40:40Z</time>
      </trkpt>
      <trkpt lat="45.93772" lon="4.72432">
        <ele>171</ele>
        <time>2017-07-10T08:40:41Z</time>
      </trkpt>
      <trkpt lat="45.93777" lon="4.72438">
        <ele>172</ele>
        <time>2017-07-10T08:40:42Z</time>
      </trkpt>
      <trkpt lat="45.93782" lon="4.72444">
        <ele>172</ele>
        <time>2017-07-10T08:40:43Z</time>
      </trkpt>
      <trkpt lat="45.93788" lon="4.72449">
        <ele>172</ele>
        <time>2017-07-10T08:40:44Z</time>
      </trkpt>
      <trkpt lat="45.93794" lon="4.72454">
        <ele>172</ele>
        <time>2017-07-10T08:40:45Z</time>
      </trkpt>
      <trkpt lat="45.93799" lon="4.72458">
        <ele>172</ele>
        <time>2017-07-10T08:40:46Z</time>
      </trkpt>
      <trkpt lat="45.93803" lon="4.72462">
        <ele>172</ele>
        <time>2017-07-10T08:40:47Z</time>
      </trkpt>
      <trkpt lat="45.93808" lon="4.72469">
        <ele>172</ele>
        <time>2017-07-10T08:40:48Z</time>
      </trkpt>
      <trkpt lat="45.93814" lon="4.72475">
        <ele>172</ele>
        <time>2017-07-10T08:40:49Z</time>
      </trkpt>
      <trkpt lat="45.9382" lon="4.72481">
        <ele>173</ele>
        <time>2017-07-10T08:40:50Z</time>
      </trkpt>
      <trkpt lat="45.93825" lon="4.72487">
        <ele>173</ele>
        <time>2017-07-10T08:40:51Z</time>
      </trkpt>
      <trkpt lat="45.93831" lon="4.72492">
        <ele>173</ele>
        <time>2017-07-10T08:40:52Z</time>
      </trkpt>
      <trkpt lat="45.93836" lon="4.72496">
        <ele>174</ele>
        <time>2017-07-10T08:40:53Z</time>
      </trkpt>
      <trkpt lat="45.93842" lon="4.72501">
        <ele>174</ele>
        <time>2017-07-10T08:40:54Z</time>
      </trkpt>
      <trkpt lat="45.93848" lon="4.72506">
        <ele>174</ele>
        <time>2017-07-10T08:40:55Z</time>
      </trkpt>
      <trkpt lat="45.93853" lon="4.7251">
        <ele>173</ele>
        <time>2017-07-10T08:40:56Z</time>
      </trkpt>
      <trkpt lat="45.93856" lon="4.72517">
        <ele>173</ele>
        <time>2017-07-10T08:40:57Z</time>
      </trkpt>
      <trkpt lat="45.93862" lon="4.72521">
        <ele>173</ele>
        <time>2017-07-10T08:40:58Z</time>
      </trkpt>
      <trkpt lat="45.93868" lon="4.72522">
        <ele>173</ele>
        <time>2017-07-10T08:40:59Z</time>
      </trkpt>
      <trkpt lat="45.93874" lon="4.72521">
        <ele>173</ele>
        <time>2017-07-10T08:41:00Z</time>
      </trkpt>
      <trkpt lat="45.9388" lon="4.72519">
        <ele>173</ele>
        <time>2017-07-10T08:41:01Z</time>
      </trkpt>
      <trkpt lat="45.93884" lon="4.72515">
        <ele>173</ele>
        <time>2017-07-10T08:41:02Z</time>
      </trkpt>
      <trkpt lat="45.93889" lon="4.7251">
        <ele>173</ele>
        <time>2017-07-10T08:41:03Z</time>
      </trkpt>
      <trkpt lat="45.93893" lon="4.72505">
        <ele>172</ele>
        <time>2017-07-10T08:41:04Z</time>
      </trkpt>
      <trkpt lat="45.93898" lon="4.725">
        <ele>172</ele>
        <time>2017-07-10T08:41:05Z</time>
      </trkpt>
      <trkpt lat="45.93902" lon="4.72495">
        <ele>172</ele>
        <time>2017-07-10T08:41:06Z</time>
      </trkpt>
      <trkpt lat="45.93907" lon="4.72489">
        <ele>172</ele>
        <time>2017-07-10T08:41:07Z</time>
      </trkpt>
      <trkpt lat="45.93911" lon="4.72483">
        <ele>172</ele>
        <time>2017-07-10T08:41:08Z</time>
      </trkpt>
      <trkpt lat="45.93916" lon="4.72477">
        <ele>172</ele>
        <time>2017-07-10T08:41:09Z</time>
      </trkpt>
      <trkpt lat="45.9392" lon="4.72472">
        <ele>171</ele>
        <time>2017-07-10T08:41:10Z</time>
      </trkpt>
      <trkpt lat="45.93925" lon="4.72466">
        <ele>171</ele>
        <time>2017-07-10T08:41:11Z</time>
      </trkpt>
      <trkpt lat="45.93929" lon="4.7246">
        <ele>171</ele>
        <time>2017-07-10T08:41:12Z</time>
      </trkpt>
      <trkpt lat="45.93933" lon="4.72453">
        <ele>171</ele>
        <time>2017-07-10T08:41:13Z</time>
      </trkpt>
      <trkpt lat="45.93938" lon="4.72447">
        <ele>171</ele>
        <time>2017-07-10T08:41:14Z</time>
      </trkpt>
      <trkpt lat="45.93943" lon="4.72442">
        <ele>171</ele>
        <time>2017-07-10T08:41:15Z</time>
      </trkpt>
      <trkpt lat="45.93948" lon="4.72436">
        <ele>171</ele>
        <time>2017-07-10T08:41:16Z</time>
      </trkpt>
      <trkpt lat="45.93952" lon="4.72431">
        <ele>171</ele>
        <time>2017-07-10T08:41:17Z</time>
      </trkpt>
      <trkpt lat="45.93957" lon="4.72426">
        <ele>171</ele>
        <time>2017-07-10T08:41:18Z</time>
      </trkpt>
      <trkpt lat="45.93961" lon="4.72421">
        <ele>171</ele>
        <time>2017-07-10T08:41:19Z</time>
      </trkpt>
      <trkpt lat="45.93966" lon="4.72415">
        <ele>171</ele>
        <time>2017-07-10T08:41:20Z</time>
      </trkpt>
      <trkpt lat="45.93971" lon="4.7241">
        <ele>171</ele>
        <time>2017-07-10T08:41:21Z</time>
      </trkpt>
      <trkpt lat="45.93976" lon="4.72404">
        <ele>171</ele>
        <time>2017-07-10T08:41:22Z</time>
      </trkpt>
      <trkpt lat="45.93981" lon="4.72398">
        <ele>171</ele>
        <time>2017-07-10T08:41:23Z</time>
      </trkpt>
      <trkpt lat="45.93986" lon="4.72392">
        <ele>171</ele>
        <time>2017-07-10T08:41:24Z</time>
      </trkpt>
      <trkpt lat="45.93991" lon="4.72385">
        <ele>171</ele>
        <time>2017-07-10T08:41:25Z</time>
      </trkpt>
      <trkpt lat="45.93996" lon="4.72379">
        <ele>171</ele>
        <time>2017-07-10T08:41:26Z</time>
      </trkpt>
      <trkpt lat="45.94002" lon="4.72373">
        <ele>171</ele>
        <time>2017-07-10T08:41:27Z</time>
      </trkpt>
      <trkpt lat="45.94007" lon="4.72367">
        <ele>171</ele>
        <time>2017-07-10T08:41:28Z</time>
      </trkpt>
      <trkpt lat="45.94011" lon="4.72361">
        <ele>171</ele>
        <time>2017-07-10T08:41:29Z</time>
      </trkpt>
      <trkpt lat="45.94017" lon="4.72354">
        <ele>171</ele>
        <time>2017-07-10T08:41:30Z</time>
      </trkpt>
      <trkpt lat="45.94021" lon="4.72348">
        <ele>171</ele>
        <time>2017-07-10T08:41:31Z</time>
      </trkpt>
      <trkpt lat="45.94026" lon="4.72342">
        <ele>171</ele>
        <time>2017-07-10T08:41:32Z</time>
      </trkpt>
      <trkpt lat="45.9403" lon="4.72336">
        <ele>171</ele>
        <time>2017-07-10T08:41:33Z</time>
      </trkpt>
      <trkpt lat="45.94034" lon="4.72331">
        <ele>171</ele>
        <time>2017-07-10T08:41:34Z</time>
      </trkpt>
      <trkpt lat="45.94038" lon="4.72325">
        <ele>171</ele>
        <time>2017-07-10T08:41:35Z</time>
      </trkpt>
      <trkpt lat="45.94042" lon="4.7232">
        <ele>171</ele>
        <time>2017-07-10T08:41:36Z</time>
      </trkpt>
      <trkpt lat="45.94046" lon="4.72314">
        <ele>171</ele>
        <time>2017-07-10T08:41:37Z</time>
      </trkpt>
      <trkpt lat="45.9405" lon="4.72308">
        <ele>171</ele>
        <time>2017-07-10T08:41:38Z</time>
      </trkpt>
      <trkpt lat="45.94054" lon="4.72302">
        <ele>171</ele>
        <time>2017-07-10T08:41:39Z</time>
      </trkpt>
      <trkpt lat="45.94059" lon="4.72297">
        <ele>171</ele>
        <time>2017-07-10T08:41:40Z</time>
      </trkpt>
      <trkpt lat="45.94063" lon="4.72292">
        <ele>171</ele>
        <time>2017-07-10T08:41:41Z</time>
      </trkpt>
      <trkpt lat="45.94068" lon="4.72287">
        <ele>171</ele>
        <time>2017-07-10T08:41:42Z</time>
      </trkpt>
      <trkpt lat="45.94073" lon="4.72283">
        <ele>171</ele>
        <time>2017-07-10T08:41:43Z</time>
      </trkpt>
      <trkpt lat="45.94079" lon="4.72279">
        <ele>171</ele>
        <time>2017-07-10T08:41:44Z</time>
      </trkpt>
      <trkpt lat="45.94085" lon="4.72276">
        <ele>171</ele>
        <time>2017-07-10T08:41:45Z</time>
      </trkpt>
      <trkpt lat="45.9409" lon="4.72274">
        <ele>171</ele>
        <time>2017-07-10T08:41:46Z</time>
      </trkpt>
      <trkpt lat="45.94095" lon="4.72273">
        <ele>171</ele>
        <time>2017-07-10T08:41:47Z</time>
      </trkpt>
      <trkpt lat="45.941" lon="4.72272">
        <ele>171</ele>
        <time>2017-07-10T08:41:48Z</time>
      </trkpt>
      <trkpt lat="45.94105" lon="4.72273">
        <ele>171</ele>
        <time>2017-07-10T08:41:49Z</time>
      </trkpt>
      <trkpt lat="45.9411" lon="4.72274">
        <ele>171</ele>
        <time>2017-07-10T08:41:50Z</time>
      </trkpt>
      <trkpt lat="45.94115" lon="4.72276">
        <ele>171</ele>
        <time>2017-07-10T08:41:51Z</time>
      </trkpt>
      <trkpt lat="45.94119" lon="4.72279">
        <ele>171</ele>
        <time>2017-07-10T08:41:52Z</time>
      </trkpt>
      <trkpt lat="45.94124" lon="4.72281">
        <ele>171</ele>
        <time>2017-07-10T08:41:53Z</time>
      </trkpt>
      <trkpt lat="45.94129" lon="4.72284">
        <ele>171</ele>
        <time>2017-07-10T08:41:54Z</time>
      </trkpt>
      <trkpt lat="45.94134" lon="4.72286">
        <ele>171</ele>
        <time>2017-07-10T08:41:55Z</time>
      </trkpt>
      <trkpt lat="45.9414" lon="4.72288">
        <ele>171</ele>
        <time>2017-07-10T08:41:56Z</time>
      </trkpt>
      <trkpt lat="45.94145" lon="4.7229">
        <ele>171</ele>
        <time>2017-07-10T08:41:57Z</time>
      </trkpt>
      <trkpt lat="45.94151" lon="4.72293">
        <ele>171</ele>
        <time>2017-07-10T08:41:58Z</time>
      </trkpt>
      <trkpt lat="45.94157" lon="4.72294">
        <ele>171</ele>
        <time>2017-07-10T08:41:59Z</time>
      </trkpt>
      <trkpt lat="45.94163" lon="4.72295">
        <ele>171</ele>
        <time>2017-07-10T08:42:00Z</time>
      </trkpt>
      <trkpt lat="45.94169" lon="4.72296">
        <ele>171</ele>
        <time>2017-07-10T08:42:01Z</time>
      </trkpt>
      <trkpt lat="45.94175" lon="4.72296">
        <ele>171</ele>
        <time>2017-07-10T08:42:02Z</time>
      </trkpt>
      <trkpt lat="45.94182" lon="4.72297">
        <ele>171</ele>
        <time>2017-07-10T08:42:03Z</time>
      </trkpt>
      <trkpt lat="45.94187" lon="4.72297">
        <ele>171</ele>
        <time>2017-07-10T08:42:04Z</time>
      </trkpt>
      <trkpt lat="45.94193" lon="4.72297">
        <ele>171</ele>
        <time>2017-07-10T08:42:05Z</time>
      </trkpt>
      <trkpt lat="45.94198" lon="4.72297">
        <ele>171</ele>
        <time>2017-07-10T08:42:06Z</time>
      </trkpt>
      <trkpt lat="45.94203" lon="4.72296">
        <ele>171</ele>
        <time>2017-07-10T08:42:07Z</time>
      </trkpt>
      <trkpt lat="45.94208" lon="4.72296">
        <ele>171</ele>
        <time>2017-07-10T08:42:08Z</time>
      </trkpt>
      <trkpt lat="45.94213" lon="4.72295">
        <ele>171</ele>
        <time>2017-07-10T08:42:09Z</time>
      </trkpt>
      <trkpt lat="45.94217" lon="4.72294">
        <ele>171</ele>
        <time>2017-07-10T08:42:10Z</time>
      </trkpt>
      <trkpt lat="45.94222" lon="4.72294">
        <ele>171</ele>
        <time>2017-07-10T08:42:11Z</time>
      </trkpt>
      <trkpt lat="45.94227" lon="4.72293">
        <ele>171</ele>
        <time>2017-07-10T08:42:12Z</time>
      </trkpt>
      <trkpt lat="45.94233" lon="4.72292">
        <ele>171</ele>
        <time>2017-07-10T08:42:13Z</time>
      </trkpt>
      <trkpt lat="45.94238" lon="4.7229">
        <ele>171</ele>
        <time>2017-07-10T08:42:14Z</time>
      </trkpt>
      <trkpt lat="45.94243" lon="4.72287">
        <ele>171</ele>
        <time>2017-07-10T08:42:15Z</time>
      </trkpt>
      <trkpt lat="45.94249" lon="4.72285">
        <ele>171</ele>
        <time>2017-07-10T08:42:16Z</time>
      </trkpt>
      <trkpt lat="45.94254" lon="4.72283">
        <ele>171</ele>
        <time>2017-07-10T08:42:17Z</time>
      </trkpt>
      <trkpt lat="45.94259" lon="4.72282">
        <ele>171</ele>
        <time>2017-07-10T08:42:18Z</time>
      </trkpt>
      <trkpt lat="45.94267" lon="4.72279">
        <ele>171</ele>
        <time>2017-07-10T08:42:20Z</time>
      </trkpt>
      <trkpt lat="45.9427" lon="4.72279">
        <ele>171</ele>
        <time>2017-07-10T08:42:21Z</time>
      </trkpt>
      <trkpt lat="45.94276" lon="4.72282">
        <ele>171</ele>
        <time>2017-07-10T08:42:24Z</time>
      </trkpt>
      <trkpt lat="45.94278" lon="4.72286">
        <ele>171</ele>
        <time>2017-07-10T08:42:25Z</time>
      </trkpt>
      <trkpt lat="45.94282" lon="4.72295">
        <ele>171</ele>
        <time>2017-07-10T08:42:27Z</time>
      </trkpt>
      <trkpt lat="45.94284" lon="4.723">
        <ele>171</ele>
        <time>2017-07-10T08:42:28Z</time>
      </trkpt>
      <trkpt lat="45.94289" lon="4.72311">
        <ele>171</ele>
        <time>2017-07-10T08:42:30Z</time>
      </trkpt>
      <trkpt lat="45.94292" lon="4.72316">
        <ele>171</ele>
        <time>2017-07-10T08:42:31Z</time>
      </trkpt>
      <trkpt lat="45.94295" lon="4.72322">
        <ele>171</ele>
        <time>2017-07-10T08:42:32Z</time>
      </trkpt>
      <trkpt lat="45.94298" lon="4.72328">
        <ele>171</ele>
        <time>2017-07-10T08:42:33Z</time>
      </trkpt>
      <trkpt lat="45.94301" lon="4.72334">
        <ele>172</ele>
        <time>2017-07-10T08:42:34Z</time>
      </trkpt>
      <trkpt lat="45.94304" lon="4.72341">
        <ele>172</ele>
        <time>2017-07-10T08:42:35Z</time>
      </trkpt>
      <trkpt lat="45.94306" lon="4.72348">
        <ele>172</ele>
        <time>2017-07-10T08:42:36Z</time>
      </trkpt>
      <trkpt lat="45.94309" lon="4.72355">
        <ele>172</ele>
        <time>2017-07-10T08:42:37Z</time>
      </trkpt>
      <trkpt lat="45.94313" lon="4.72362">
        <ele>172</ele>
        <time>2017-07-10T08:42:38Z</time>
      </trkpt>
      <trkpt lat="45.94316" lon="4.72369">
        <ele>172</ele>
        <time>2017-07-10T08:42:39Z</time>
      </trkpt>
      <trkpt lat="45.94319" lon="4.72376">
        <ele>172</ele>
        <time>2017-07-10T08:42:40Z</time>
      </trkpt>
      <trkpt lat="45.94322" lon="4.72383">
        <ele>172</ele>
        <time>2017-07-10T08:42:41Z</time>
      </trkpt>
      <trkpt lat="45.94325" lon="4.72389">
        <ele>172</ele>
        <time>2017-07-10T08:42:42Z</time>
      </trkpt>
      <trkpt lat="45.94328" lon="4.72395">
        <ele>172</ele>
        <time>2017-07-10T08:42:43Z</time>
      </trkpt>
      <trkpt lat="45.9433" lon="4.72401">
        <ele>173</ele>
        <time>2017-07-10T08:42:44Z</time>
      </trkpt>
      <trkpt lat="45.94333" lon="4.72407">
        <ele>173</ele>
        <time>2017-07-10T08:42:45Z</time>
      </trkpt>
      <trkpt lat="45.94336" lon="4.72413">
        <ele>173</ele>
        <time>2017-07-10T08:42:46Z</time>
      </trkpt>
      <trkpt lat="45.94339" lon="4.72419">
        <ele>173</ele>
        <time>2017-07-10T08:42:47Z</time>
      </trkpt>
      <trkpt lat="45.94342" lon="4.72424">
        <ele>173</ele>
        <time>2017-07-10T08:42:48Z</time>
      </trkpt>
      <trkpt lat="45.94344" lon="4.72431">
        <ele>173</ele>
        <time>2017-07-10T08:42:49Z</time>
      </trkpt>
      <trkpt lat="45.94347" lon="4.72437">
        <ele>173</ele>
        <time>2017-07-10T08:42:50Z</time>
      </trkpt>
      <trkpt lat="45.9435" lon="4.72443">
        <ele>173</ele>
        <time>2017-07-10T08:42:51Z</time>
      </trkpt>
      <trkpt lat="45.94353" lon="4.72449">
        <ele>173</ele>
        <time>2017-07-10T08:42:52Z</time>
      </trkpt>
      <trkpt lat="45.94357" lon="4.72456">
        <ele>173</ele>
        <time>2017-07-10T08:42:53Z</time>
      </trkpt>
      <trkpt lat="45.9436" lon="4.72462">
        <ele>173</ele>
        <time>2017-07-10T08:42:54Z</time>
      </trkpt>
      <trkpt lat="45.94363" lon="4.72469">
        <ele>173</ele>
        <time>2017-07-10T08:42:55Z</time>
      </trkpt>
      <trkpt lat="45.94366" lon="4.72476">
        <ele>173</ele>
        <time>2017-07-10T08:42:56Z</time>
      </trkpt>
      <trkpt lat="45.94368" lon="4.72483">
        <ele>173</ele>
        <time>2017-07-10T08:42:57Z</time>
      </trkpt>
      <trkpt lat="45.9437" lon="4.7249">
        <ele>173</ele>
        <time>2017-07-10T08:42:58Z</time>
      </trkpt>
      <trkpt lat="45.94373" lon="4.72497">
        <ele>173</ele>
        <time>2017-07-10T08:42:59Z</time>
      </trkpt>
      <trkpt lat="45.94375" lon="4.72504">
        <ele>173</ele>
        <time>2017-07-10T08:43:00Z</time>
      </trkpt>
      <trkpt lat="45.94376" lon="4.72511">
        <ele>174</ele>
        <time>2017-07-10T08:43:01Z</time>
      </trkpt>
      <trkpt lat="45.94379" lon="4.72517">
        <ele>174</ele>
        <time>2017-07-10T08:43:02Z</time>
      </trkpt>
      <trkpt lat="45.94381" lon="4.72524">
        <ele>174</ele>
        <time>2017-07-10T08:43:03Z</time>
      </trkpt>
      <trkpt lat="45.94383" lon="4.7253">
        <ele>174</ele>
        <time>2017-07-10T08:43:04Z</time>
      </trkpt>
      <trkpt lat="45.94385" lon="4.72536">
        <ele>174</ele>
        <time>2017-07-10T08:43:05Z</time>
      </trkpt>
      <trkpt lat="45.94386" lon="4.72543">
        <ele>173</ele>
        <time>2017-07-10T08:43:06Z</time>
      </trkpt>
      <trkpt lat="45.94388" lon="4.72551">
        <ele>173</ele>
        <time>2017-07-10T08:43:07Z</time>
      </trkpt>
      <trkpt lat="45.94389" lon="4.72558">
        <ele>173</ele>
        <time>2017-07-10T08:43:08Z</time>
      </trkpt>
      <trkpt lat="45.94391" lon="4.72566">
        <ele>173</ele>
        <time>2017-07-10T08:43:09Z</time>
      </trkpt>
      <trkpt lat="45.94393" lon="4.72574">
        <ele>173</ele>
        <time>2017-07-10T08:43:10Z</time>
      </trkpt>
      <trkpt lat="45.94394" lon="4.72581">
        <ele>173</ele>
        <time>2017-07-10T08:43:11Z</time>
      </trkpt>
      <trkpt lat="45.94395" lon="4.72589">
        <ele>173</ele>
        <time>2017-07-10T08:43:12Z</time>
      </trkpt>
      <trkpt lat="45.94396" lon="4.72596">
        <ele>173</ele>
        <time>2017-07-10T08:43:13Z</time>
      </trkpt>
      <trkpt lat="45.94397" lon="4.72604">
        <ele>173</ele>
        <time>2017-07-10T08:43:14Z</time>
      </trkpt>
      <trkpt lat="45.94398" lon="4.72611">
        <ele>173</ele>
        <time>2017-07-10T08:43:15Z</time>
      </trkpt>
      <trkpt lat="45.94399" lon="4.72618">
        <ele>173</ele>
        <time>2017-07-10T08:43:16Z</time>
      </trkpt>
      <trkpt lat="45.944" lon="4.72627">
        <ele>174</ele>
        <time>2017-07-10T08:43:17Z</time>
      </trkpt>
      <trkpt lat="45.94401" lon="4.72634">
        <ele>174</ele>
        <time>2017-07-10T08:43:18Z</time>
      </trkpt>
      <trkpt lat="45.94402" lon="4.72642">
        <ele>174</ele>
        <time>2017-07-10T08:43:19Z</time>
      </trkpt>
      <trkpt lat="45.94403" lon="4.7265">
        <ele>174</ele>
        <time>2017-07-10T08:43:20Z</time>
      </trkpt>
      <trkpt lat="45.94404" lon="4.72658">
        <ele>174</ele>
        <time>2017-07-10T08:43:21Z</time>
      </trkpt>
      <trkpt lat="45.94405" lon="4.72666">
        <ele>174</ele>
        <time>2017-07-10T08:43:22Z</time>
      </trkpt>
      <trkpt lat="45.94406" lon="4.72675">
        <ele>173</ele>
        <time>2017-07-10T08:43:23Z</time>
      </trkpt>
      <trkpt lat="45.94407" lon="4.72683">
        <ele>173</ele>
        <time>2017-07-10T08:43:24Z</time>
      </trkpt>
      <trkpt lat="45.94408" lon="4.72691">
        <ele>173</ele>
        <time>2017-07-10T08:43:25Z</time>
      </trkpt>
      <trkpt lat="45.94408" lon="4.72698">
        <ele>172</ele>
        <time>2017-07-10T08:43:26Z</time>
      </trkpt>
      <trkpt lat="45.94409" lon="4.72705">
        <ele>172</ele>
        <time>2017-07-10T08:43:27Z</time>
      </trkpt>
      <trkpt lat="45.9441" lon="4.72711">
        <ele>172</ele>
        <time>2017-07-10T08:43:28Z</time>
      </trkpt>
      <trkpt lat="45.94411" lon="4.72718">
        <ele>172</ele>
        <time>2017-07-10T08:43:29Z</time>
      </trkpt>
      <trkpt lat="45.94412" lon="4.72725">
        <ele>172</ele>
        <time>2017-07-10T08:43:30Z</time>
      </trkpt>
      <trkpt lat="45.94413" lon="4.72732">
        <ele>172</ele>
        <time>2017-07-10T08:43:31Z</time>
      </trkpt>
      <trkpt lat="45.94414" lon="4.72739">
        <ele>171</ele>
        <time>2017-07-10T08:43:32Z</time>
      </trkpt>
      <trkpt lat="45.94415" lon="4.72746">
        <ele>171</ele>
        <time>2017-07-10T08:43:33Z</time>
      </trkpt>
      <trkpt lat="45.94416" lon="4.72753">
        <ele>171</ele>
        <time>2017-07-10T08:43:34Z</time>
      </trkpt>
      <trkpt lat="45.94417" lon="4.72761">
        <ele>170</ele>
        <time>2017-07-10T08:43:35Z</time>
      </trkpt>
      <trkpt lat="45.94418" lon="4.72768">
        <ele>169</ele>
        <time>2017-07-10T08:43:36Z</time>
      </trkpt>
      <trkpt lat="45.94419" lon="4.72776">
        <ele>168</ele>
        <time>2017-07-10T08:43:37Z</time>
      </trkpt>
      <trkpt lat="45.94419" lon="4.72784">
        <ele>168</ele>
        <time>2017-07-10T08:43:38Z</time>
      </trkpt>
      <trkpt lat="45.9442" lon="4.72791">
        <ele>168</ele>
        <time>2017-07-10T08:43:39Z</time>
      </trkpt>
      <trkpt lat="45.94421" lon="4.72798">
        <ele>167</ele>
        <time>2017-07-10T08:43:40Z</time>
      </trkpt>
      <trkpt lat="45.94423" lon="4.72805">
        <ele>167</ele>
        <time>2017-07-10T08:43:41Z</time>
      </trkpt>
      <trkpt lat="45.94424" lon="4.72811">
        <ele>167</ele>
        <time>2017-07-10T08:43:42Z</time>
      </trkpt>
      <trkpt lat="45.94425" lon="4.72818">
        <ele>167</ele>
        <time>2017-07-10T08:43:43Z</time>
      </trkpt>
      <trkpt lat="45.94425" lon="4.72825">
        <ele>167</ele>
        <time>2017-07-10T08:43:44Z</time>
      </trkpt>
      <trkpt lat="45.94426" lon="4.72832">
        <ele>166</ele>
        <time>2017-07-10T08:43:45Z</time>
      </trkpt>
      <trkpt lat="45.94427" lon="4.72838">
        <ele>166</ele>
        <time>2017-07-10T08:43:46Z</time>
      </trkpt>
      <trkpt lat="45.94428" lon="4.72845">
        <ele>166</ele>
        <time>2017-07-10T08:43:47Z</time>
      </trkpt>
      <trkpt lat="45.94429" lon="4.72857">
        <ele>166</ele>
        <time>2017-07-10T08:43:49Z</time>
      </trkpt>
      <trkpt lat="45.94431" lon="4.72864">
        <ele>166</ele>
        <time>2017-07-10T08:43:50Z</time>
      </trkpt>
      <trkpt lat="45.94433" lon="4.72876">
        <ele>166</ele>
        <time>2017-07-10T08:43:52Z</time>
      </trkpt>
      <trkpt lat="45.94434" lon="4.72882">
        <ele>166</ele>
        <time>2017-07-10T08:43:53Z</time>
      </trkpt>
      <trkpt lat="45.94436" lon="4.72894">
        <ele>166</ele>
        <time>2017-07-10T08:43:55Z</time>
      </trkpt>
      <trkpt lat="45.94436" lon="4.729">
        <ele>166</ele>
        <time>2017-07-10T08:43:56Z</time>
      </trkpt>
      <trkpt lat="45.94438" lon="4.72911">
        <ele>166</ele>
        <time>2017-07-10T08:43:58Z</time>
      </trkpt>
      <trkpt lat="45.94439" lon="4.72917">
        <ele>167</ele>
        <time>2017-07-10T08:43:59Z</time>
      </trkpt>
      <trkpt lat="45.9444" lon="4.72924">
        <ele>167</ele>
        <time>2017-07-10T08:44:00Z</time>
      </trkpt>
      <trkpt lat="45.94441" lon="4.72931">
        <ele>167</ele>
        <time>2017-07-10T08:44:01Z</time>
      </trkpt>
      <trkpt lat="45.94442" lon="4.72938">
        <ele>167</ele>
        <time>2017-07-10T08:44:02Z</time>
      </trkpt>
      <trkpt lat="45.94443" lon="4.72945">
        <ele>167</ele>
        <time>2017-07-10T08:44:03Z</time>
      </trkpt>
      <trkpt lat="45.94444" lon="4.72952">
        <ele>167</ele>
        <time>2017-07-10T08:44:04Z</time>
      </trkpt>
      <trkpt lat="45.94445" lon="4.7296">
        <ele>167</ele>
        <time>2017-07-10T08:44:05Z</time>
      </trkpt>
      <trkpt lat="45.94446" lon="4.72968">
        <ele>167</ele>
        <time>2017-07-10T08:44:06Z</time>
      </trkpt>
      <trkpt lat="45.94447" lon="4.72977">
        <ele>167</ele>
        <time>2017-07-10T08:44:07Z</time>
      </trkpt>
      <trkpt lat="45.94449" lon="4.72986">
        <ele>167</ele>
        <time>2017-07-10T08:44:08Z</time>
      </trkpt>
      <trkpt lat="45.9445" lon="4.72994">
        <ele>167</ele>
        <time>2017-07-10T08:44:09Z</time>
      </trkpt>
      <trkpt lat="45.94451" lon="4.73004">
        <ele>169</ele>
        <time>2017-07-10T08:44:10Z</time>
      </trkpt>
      <trkpt lat="45.94453" lon="4.73013">
        <ele>169</ele>
        <time>2017-07-10T08:44:11Z</time>
      </trkpt>
      <trkpt lat="45.94454" lon="4.73022">
        <ele>169</ele>
        <time>2017-07-10T08:44:12Z</time>
      </trkpt>
      <trkpt lat="45.94456" lon="4.73032">
        <ele>169</ele>
        <time>2017-07-10T08:44:13Z</time>
      </trkpt>
      <trkpt lat="45.94457" lon="4.73042">
        <ele>169</ele>
        <time>2017-07-10T08:44:14Z</time>
      </trkpt>
      <trkpt lat="45.94458" lon="4.73053">
        <ele>170</ele>
        <time>2017-07-10T08:44:15Z</time>
      </trkpt>
      <trkpt lat="45.9446" lon="4.73063">
        <ele>170</ele>
        <time>2017-07-10T08:44:16Z</time>
      </trkpt>
      <trkpt lat="45.94461" lon="4.73074">
        <ele>170</ele>
        <time>2017-07-10T08:44:17Z</time>
      </trkpt>
      <trkpt lat="45.94462" lon="4.73084">
        <ele>171</ele>
        <time>2017-07-10T08:44:18Z</time>
      </trkpt>
      <trkpt lat="45.94463" lon="4.73096">
        <ele>171</ele>
        <time>2017-07-10T08:44:19Z</time>
      </trkpt>
      <trkpt lat="45.94463" lon="4.73107">
        <ele>172</ele>
        <time>2017-07-10T08:44:20Z</time>
      </trkpt>
      <trkpt lat="45.94465" lon="4.73117">
        <ele>172</ele>
        <time>2017-07-10T08:44:21Z</time>
      </trkpt>
      <trkpt lat="45.94466" lon="4.73127">
        <ele>172</ele>
        <time>2017-07-10T08:44:22Z</time>
      </trkpt>
      <trkpt lat="45.94467" lon="4.73136">
        <ele>172</ele>
        <time>2017-07-10T08:44:23Z</time>
      </trkpt>
      <trkpt lat="45.94468" lon="4.73145">
        <ele>172</ele>
        <time>2017-07-10T08:44:24Z</time>
      </trkpt>
      <trkpt lat="45.94469" lon="4.73153">
        <ele>172</ele>
        <time>2017-07-10T08:44:25Z</time>
      </trkpt>
      <trkpt lat="45.94471" lon="4.73162">
        <ele>172</ele>
        <time>2017-07-10T08:44:26Z</time>
      </trkpt>
      <trkpt lat="45.94472" lon="4.7317">
        <ele>174</ele>
        <time>2017-07-10T08:44:27Z</time>
      </trkpt>
      <trkpt lat="45.94473" lon="4.73178">
        <ele>174</ele>
        <time>2017-07-10T08:44:28Z</time>
      </trkpt>
      <trkpt lat="45.94474" lon="4.73186">
        <ele>174</ele>
        <time>2017-07-10T08:44:29Z</time>
      </trkpt>
      <trkpt lat="45.94476" lon="4.73194">
        <ele>174</ele>
        <time>2017-07-10T08:44:30Z</time>
      </trkpt>
      <trkpt lat="45.94477" lon="4.73202">
        <ele>174</ele>
        <time>2017-07-10T08:44:31Z</time>
      </trkpt>
      <trkpt lat="45.94478" lon="4.7321">
        <ele>175</ele>
        <time>2017-07-10T08:44:32Z</time>
      </trkpt>
      <trkpt lat="45.94479" lon="4.73218">
        <ele>175</ele>
        <time>2017-07-10T08:44:33Z</time>
      </trkpt>
      <trkpt lat="45.9448" lon="4.73226">
        <ele>175</ele>
        <time>2017-07-10T08:44:34Z</time>
      </trkpt>
      <trkpt lat="45.94481" lon="4.73233">
        <ele>175</ele>
        <time>2017-07-10T08:44:35Z</time>
      </trkpt>
      <trkpt lat="45.94482" lon="4.7324">
        <ele>175</ele>
        <time>2017-07-10T08:44:36Z</time>
      </trkpt>
      <trkpt lat="45.94483" lon="4.73246">
        <ele>175</ele>
        <time>2017-07-10T08:44:37Z</time>
      </trkpt>
      <trkpt lat="45.94484" lon="4.73253">
        <ele>176</ele>
        <time>2017-07-10T08:44:38Z</time>
      </trkpt>
      <trkpt lat="45.94485" lon="4.73259">
        <ele>176</ele>
        <time>2017-07-10T08:44:39Z</time>
      </trkpt>
      <trkpt lat="45.94485" lon="4.73265">
        <ele>177</ele>
        <time>2017-07-10T08:44:40Z</time>
      </trkpt>
      <trkpt lat="45.94486" lon="4.73272">
        <ele>177</ele>
        <time>2017-07-10T08:44:41Z</time>
      </trkpt>
      <trkpt lat="45.94487" lon="4.73278">
        <ele>177</ele>
        <time>2017-07-10T08:44:42Z</time>
      </trkpt>
      <trkpt lat="45.94488" lon="4.73285">
        <ele>177</ele>
        <time>2017-07-10T08:44:43Z</time>
      </trkpt>
      <trkpt lat="45.94488" lon="4.73291">
        <ele>177</ele>
        <time>2017-07-10T08:44:44Z</time>
      </trkpt>
      <trkpt lat="45.94489" lon="4.73298">
        <ele>177</ele>
        <time>2017-07-10T08:44:45Z</time>
      </trkpt>
      <trkpt lat="45.9449" lon="4.73304">
        <ele>177</ele>
        <time>2017-07-10T08:44:46Z</time>
      </trkpt>
      <trkpt lat="45.94491" lon="4.73311">
        <ele>177</ele>
        <time>2017-07-10T08:44:47Z</time>
      </trkpt>
      <trkpt lat="45.94491" lon="4.73318">
        <ele>177</ele>
        <time>2017-07-10T08:44:48Z</time>
      </trkpt>
      <trkpt lat="45.94492" lon="4.73324">
        <ele>177</ele>
        <time>2017-07-10T08:44:49Z</time>
      </trkpt>
      <trkpt lat="45.94493" lon="4.73331">
        <ele>177</ele>
        <time>2017-07-10T08:44:50Z</time>
      </trkpt>
      <trkpt lat="45.94494" lon="4.73337">
        <ele>178</ele>
        <time>2017-07-10T08:44:51Z</time>
      </trkpt>
      <trkpt lat="45.94495" lon="4.73344">
        <ele>178</ele>
        <time>2017-07-10T08:44:52Z</time>
      </trkpt>
      <trkpt lat="45.94495" lon="4.7335">
        <ele>178</ele>
        <time>2017-07-10T08:44:53Z</time>
      </trkpt>
      <trkpt lat="45.94496" lon="4.73357">
        <ele>178</ele>
        <time>2017-07-10T08:44:54Z</time>
      </trkpt>
      <trkpt lat="45.94497" lon="4.73364">
        <ele>179</ele>
        <time>2017-07-10T08:44:55Z</time>
      </trkpt>
      <trkpt lat="45.94498" lon="4.73371">
        <ele>179</ele>
        <time>2017-07-10T08:44:56Z</time>
      </trkpt>
      <trkpt lat="45.94499" lon="4.73378">
        <ele>179</ele>
        <time>2017-07-10T08:44:57Z</time>
      </trkpt>
      <trkpt lat="45.94499" lon="4.73391">
        <ele>179</ele>
        <time>2017-07-10T08:44:59Z</time>
      </trkpt>
      <trkpt lat="45.945" lon="4.73397">
        <ele>179</ele>
        <time>2017-07-10T08:45:00Z</time>
      </trkpt>
      <trkpt lat="45.945" lon="4.73409">
        <ele>180</ele>
        <time>2017-07-10T08:45:02Z</time>
      </trkpt>
      <trkpt lat="45.94501" lon="4.73415">
        <ele>180</ele>
        <time>2017-07-10T08:45:03Z</time>
      </trkpt>
      <trkpt lat="45.94501" lon="4.73428">
        <ele>180</ele>
        <time>2017-07-10T08:45:05Z</time>
      </trkpt>
      <trkpt lat="45.94501" lon="4.73434">
        <ele>181</ele>
        <time>2017-07-10T08:45:06Z</time>
      </trkpt>
      <trkpt lat="45.94502" lon="4.73446">
        <ele>181</ele>
        <time>2017-07-10T08:45:08Z</time>
      </trkpt>
      <trkpt lat="45.94501" lon="4.73452">
        <ele>181</ele>
        <time>2017-07-10T08:45:09Z</time>
      </trkpt>
      <trkpt lat="45.94502" lon="4.73463">
        <ele>181</ele>
        <time>2017-07-10T08:45:11Z</time>
      </trkpt>
      <trkpt lat="45.94502" lon="4.73469">
        <ele>181</ele>
        <time>2017-07-10T08:45:12Z</time>
      </trkpt>
      <trkpt lat="45.94503" lon="4.73479">
        <ele>182</ele>
        <time>2017-07-10T08:45:14Z</time>
      </trkpt>
      <trkpt lat="45.94503" lon="4.73486">
        <ele>182</ele>
        <time>2017-07-10T08:45:15Z</time>
      </trkpt>
      <trkpt lat="45.94502" lon="4.73498">
        <ele>183</ele>
        <time>2017-07-10T08:45:17Z</time>
      </trkpt>
      <trkpt lat="45.94502" lon="4.73504">
        <ele>183</ele>
        <time>2017-07-10T08:45:18Z</time>
      </trkpt>
      <trkpt lat="45.94501" lon="4.73516">
        <ele>183</ele>
        <time>2017-07-10T08:45:20Z</time>
      </trkpt>
      <trkpt lat="45.94501" lon="4.73521">
        <ele>183</ele>
        <time>2017-07-10T08:45:21Z</time>
      </trkpt>
      <trkpt lat="45.945" lon="4.73533">
        <ele>183</ele>
        <time>2017-07-10T08:45:23Z</time>
      </trkpt>
      <trkpt lat="45.94501" lon="4.73539">
        <ele>183</ele>
        <time>2017-07-10T08:45:24Z</time>
      </trkpt>
      <trkpt lat="45.94501" lon="4.73551">
        <ele>183</ele>
        <time>2017-07-10T08:45:26Z</time>
      </trkpt>
      <trkpt lat="45.945" lon="4.73557">
        <ele>184</ele>
        <time>2017-07-10T08:45:27Z</time>
      </trkpt>
      <trkpt lat="45.94499" lon="4.73569">
        <ele>185</ele>
        <time>2017-07-10T08:45:29Z</time>
      </trkpt>
      <trkpt lat="45.94498" lon="4.73575">
        <ele>185</ele>
        <time>2017-07-10T08:45:30Z</time>
      </trkpt>
      <trkpt lat="45.94498" lon="4.73582">
        <ele>185</ele>
        <time>2017-07-10T08:45:31Z</time>
      </trkpt>
      <trkpt lat="45.94497" lon="4.73589">
        <ele>185</ele>
        <time>2017-07-10T08:45:32Z</time>
      </trkpt>
      <trkpt lat="45.94495" lon="4.73601">
        <ele>185</ele>
        <time>2017-07-10T08:45:34Z</time>
      </trkpt>
      <trkpt lat="45.94495" lon="4.73608">
        <ele>186</ele>
        <time>2017-07-10T08:45:35Z</time>
      </trkpt>
      <trkpt lat="45.94494" lon="4.73614">
        <ele>186</ele>
        <time>2017-07-10T08:45:36Z</time>
      </trkpt>
      <trkpt lat="45.94493" lon="4.73621">
        <ele>186</ele>
        <time>2017-07-10T08:45:37Z</time>
      </trkpt>
      <trkpt lat="45.94492" lon="4.73628">
        <ele>186</ele>
        <time>2017-07-10T08:45:38Z</time>
      </trkpt>
      <trkpt lat="45.94491" lon="4.73634">
        <ele>186</ele>
        <time>2017-07-10T08:45:39Z</time>
      </trkpt>
      <trkpt lat="45.94491" lon="4.73642">
        <ele>186</ele>
        <time>2017-07-10T08:45:40Z</time>
      </trkpt>
      <trkpt lat="45.9449" lon="4.73649">
        <ele>186</ele>
        <time>2017-07-10T08:45:41Z</time>
      </trkpt>
      <trkpt lat="45.94489" lon="4.73656">
        <ele>185</ele>
        <time>2017-07-10T08:45:42Z</time>
      </trkpt>
      <trkpt lat="45.94488" lon="4.73663">
        <ele>185</ele>
        <time>2017-07-10T08:45:43Z</time>
      </trkpt>
      <trkpt lat="45.94488" lon="4.73671">
        <ele>185</ele>
        <time>2017-07-10T08:45:44Z</time>
      </trkpt>
      <trkpt lat="45.94487" lon="4.73678">
        <ele>186</ele>
        <time>2017-07-10T08:45:45Z</time>
      </trkpt>
      <trkpt lat="45.94487" lon="4.73685">
        <ele>186</ele>
        <time>2017-07-10T08:45:46Z</time>
      </trkpt>
      <trkpt lat="45.94486" lon="4.73692">
        <ele>186</ele>
        <time>2017-07-10T08:45:47Z</time>
      </trkpt>
      <trkpt lat="45.94485" lon="4.73699">
        <ele>186</ele>
        <time>2017-07-10T08:45:48Z</time>
      </trkpt>
      <trkpt lat="45.94484" lon="4.73706">
        <ele>186</ele>
        <time>2017-07-10T08:45:49Z</time>
      </trkpt>
      <trkpt lat="45.94483" lon="4.73713">
        <ele>186</ele>
        <time>2017-07-10T08:45:50Z</time>
      </trkpt>
      <trkpt lat="45.94482" lon="4.7372">
        <ele>186</ele>
        <time>2017-07-10T08:45:51Z</time>
      </trkpt>
      <trkpt lat="45.94481" lon="4.73727">
        <ele>186</ele>
        <time>2017-07-10T08:45:52Z</time>
      </trkpt>
      <trkpt lat="45.94479" lon="4.73733">
        <ele>186</ele>
        <time>2017-07-10T08:45:53Z</time>
      </trkpt>
      <trkpt lat="45.94476" lon="4.73745">
        <ele>186</ele>
        <time>2017-07-10T08:45:55Z</time>
      </trkpt>
      <trkpt lat="45.94475" lon="4.7375">
        <ele>186</ele>
        <time>2017-07-10T08:45:56Z</time>
      </trkpt>
      <trkpt lat="45.94475" lon="4.73756">
        <ele>186</ele>
        <time>2017-07-10T08:45:57Z</time>
      </trkpt>
      <trkpt lat="45.94476" lon="4.73763">
        <ele>186</ele>
        <time>2017-07-10T08:45:58Z</time>
      </trkpt>
      <trkpt lat="45.94479" lon="4.7377">
        <ele>186</ele>
        <time>2017-07-10T08:45:59Z</time>
      </trkpt>
      <trkpt lat="45.94483" lon="4.73775">
        <ele>186</ele>
        <time>2017-07-10T08:46:00Z</time>
      </trkpt>
      <trkpt lat="45.94488" lon="4.73778">
        <ele>186</ele>
        <time>2017-07-10T08:46:01Z</time>
      </trkpt>
      <trkpt lat="45.94492" lon="4.73782">
        <ele>186</ele>
        <time>2017-07-10T08:46:02Z</time>
      </trkpt>
      <trkpt lat="45.94496" lon="4.73786">
        <ele>186</ele>
        <time>2017-07-10T08:46:03Z</time>
      </trkpt>
      <trkpt lat="45.945" lon="4.73789">
        <ele>186</ele>
        <time>2017-07-10T08:46:04Z</time>
      </trkpt>
      <trkpt lat="45.94508" lon="4.73796">
        <ele>186</ele>
        <time>2017-07-10T08:46:06Z</time>
      </trkpt>
      <trkpt lat="45.94511" lon="4.73799">
        <ele>186</ele>
        <time>2017-07-10T08:46:07Z</time>
      </trkpt>
      <trkpt lat="45.94518" lon="4.73806">
        <ele>186</ele>
        <time>2017-07-10T08:46:09Z</time>
      </trkpt>
      <trkpt lat="45.94521" lon="4.7381">
        <ele>186</ele>
        <time>2017-07-10T08:46:10Z</time>
      </trkpt>
      <trkpt lat="45.94525" lon="4.73814">
        <ele>186</ele>
        <time>2017-07-10T08:46:11Z</time>
      </trkpt>
      <trkpt lat="45.94529" lon="4.73817">
        <ele>186</ele>
        <time>2017-07-10T08:46:12Z</time>
      </trkpt>
      <trkpt lat="45.94533" lon="4.73821">
        <ele>186</ele>
        <time>2017-07-10T08:46:13Z</time>
      </trkpt>
      <trkpt lat="45.94537" lon="4.73825">
        <ele>186</ele>
        <time>2017-07-10T08:46:14Z</time>
      </trkpt>
      <trkpt lat="45.94541" lon="4.73829">
        <ele>186</ele>
        <time>2017-07-10T08:46:15Z</time>
      </trkpt>
      <trkpt lat="45.94544" lon="4.73833">
        <ele>186</ele>
        <time>2017-07-10T08:46:16Z</time>
      </trkpt>
      <trkpt lat="45.94552" lon="4.7384">
        <ele>186</ele>
        <time>2017-07-10T08:46:18Z</time>
      </trkpt>
      <trkpt lat="45.94555" lon="4.73844">
        <ele>186</ele>
        <time>2017-07-10T08:46:19Z</time>
      </trkpt>
      <trkpt lat="45.94561" lon="4.7385">
        <ele>186</ele>
        <time>2017-07-10T08:46:21Z</time>
      </trkpt>
      <trkpt lat="45.94565" lon="4.73853">
        <ele>186</ele>
        <time>2017-07-10T08:46:22Z</time>
      </trkpt>
      <trkpt lat="45.94569" lon="4.73858">
        <ele>186</ele>
        <time>2017-07-10T08:46:23Z</time>
      </trkpt>
      <trkpt lat="45.94573" lon="4.73861">
        <ele>186</ele>
        <time>2017-07-10T08:46:24Z</time>
      </trkpt>
      <trkpt lat="45.94576" lon="4.73866">
        <ele>186</ele>
        <time>2017-07-10T08:46:25Z</time>
      </trkpt>
      <trkpt lat="45.9458" lon="4.73869">
        <ele>186</ele>
        <time>2017-07-10T08:46:26Z</time>
      </trkpt>
      <trkpt lat="45.94584" lon="4.73874">
        <ele>187</ele>
        <time>2017-07-10T08:46:27Z</time>
      </trkpt>
      <trkpt lat="45.94588" lon="4.73878">
        <ele>187</ele>
        <time>2017-07-10T08:46:28Z</time>
      </trkpt>
      <trkpt lat="45.94592" lon="4.73883">
        <ele>187</ele>
        <time>2017-07-10T08:46:29Z</time>
      </trkpt>
      <trkpt lat="45.94596" lon="4.73886">
        <ele>187</ele>
        <time>2017-07-10T08:46:30Z</time>
      </trkpt>
      <trkpt lat="45.94602" lon="4.73894">
        <ele>187</ele>
        <time>2017-07-10T08:46:32Z</time>
      </trkpt>
      <trkpt lat="45.94605" lon="4.73897">
        <ele>187</ele>
        <time>2017-07-10T08:46:33Z</time>
      </trkpt>
      <trkpt lat="45.9461" lon="4.73904">
        <ele>187</ele>
        <time>2017-07-10T08:46:35Z</time>
      </trkpt>
      <trkpt lat="45.94613" lon="4.73908">
        <ele>187</ele>
        <time>2017-07-10T08:46:36Z</time>
      </trkpt>
      <trkpt lat="45.9462" lon="4.73916">
        <ele>187</ele>
        <time>2017-07-10T08:46:38Z</time>
      </trkpt>
      <trkpt lat="45.94623" lon="4.7392">
        <ele>187</ele>
        <time>2017-07-10T08:46:39Z</time>
      </trkpt>
      <trkpt lat="45.94626" lon="4.73925">
        <ele>187</ele>
        <time>2017-07-10T08:46:40Z</time>
      </trkpt>
      <trkpt lat="45.9463" lon="4.73929">
        <ele>187</ele>
        <time>2017-07-10T08:46:41Z</time>
      </trkpt>
      <trkpt lat="45.94636" lon="4.73937">
        <ele>187</ele>
        <time>2017-07-10T08:46:43Z</time>
      </trkpt>
      <trkpt lat="45.94639" lon="4.73941">
        <ele>187</ele>
        <time>2017-07-10T08:46:44Z</time>
      </trkpt>
      <trkpt lat="45.94646" lon="4.73949">
        <ele>187</ele>
        <time>2017-07-10T08:46:46Z</time>
      </trkpt>
      <trkpt lat="45.94649" lon="4.73953">
        <ele>187</ele>
        <time>2017-07-10T08:46:47Z</time>
      </trkpt>
      <trkpt lat="45.94655" lon="4.73962">
        <ele>187</ele>
        <time>2017-07-10T08:46:49Z</time>
      </trkpt>
      <trkpt lat="45.94658" lon="4.73966">
        <ele>187</ele>
        <time>2017-07-10T08:46:50Z</time>
      </trkpt>
      <trkpt lat="45.94662" lon="4.73971">
        <ele>187</ele>
        <time>2017-07-10T08:46:51Z</time>
      </trkpt>
      <trkpt lat="45.94665" lon="4.73975">
        <ele>187</ele>
        <time>2017-07-10T08:46:52Z</time>
      </trkpt>
      <trkpt lat="45.94671" lon="4.73984">
        <ele>187</ele>
        <time>2017-07-10T08:46:54Z</time>
      </trkpt>
      <trkpt lat="45.94675" lon="4.73989">
        <ele>187</ele>
        <time>2017-07-10T08:46:55Z</time>
      </trkpt>
      <trkpt lat="45.94678" lon="4.73993">
        <ele>187</ele>
        <time>2017-07-10T08:46:56Z</time>
      </trkpt>
      <trkpt lat="45.94682" lon="4.73998">
        <ele>187</ele>
        <time>2017-07-10T08:46:57Z</time>
      </trkpt>
      <trkpt lat="45.94685" lon="4.74003">
        <ele>187</ele>
        <time>2017-07-10T08:46:58Z</time>
      </trkpt>
      <trkpt lat="45.94688" lon="4.74008">
        <ele>187</ele>
        <time>2017-07-10T08:46:59Z</time>
      </trkpt>
      <trkpt lat="45.94692" lon="4.74012">
        <ele>187</ele>
        <time>2017-07-10T08:47:00Z</time>
      </trkpt>
      <trkpt lat="45.94695" lon="4.74017">
        <ele>187</ele>
        <time>2017-07-10T08:47:01Z</time>
      </trkpt>
      <trkpt lat="45.94699" lon="4.74022">
        <ele>187</ele>
        <time>2017-07-10T08:47:02Z</time>
      </trkpt>
      <trkpt lat="45.94703" lon="4.74026">
        <ele>187</ele>
        <time>2017-07-10T08:47:03Z</time>
      </trkpt>
      <trkpt lat="45.94709" lon="4.74034">
        <ele>187</ele>
        <time>2017-07-10T08:47:05Z</time>
      </trkpt>
      <trkpt lat="45.94713" lon="4.74038">
        <ele>187</ele>
        <time>2017-07-10T08:47:06Z</time>
      </trkpt>
      <trkpt lat="45.94716" lon="4.74042">
        <ele>187</ele>
        <time>2017-07-10T08:47:07Z</time>
      </trkpt>
      <trkpt lat="45.94719" lon="4.74047">
        <ele>187</ele>
        <time>2017-07-10T08:47:08Z</time>
      </trkpt>
      <trkpt lat="45.94723" lon="4.74052">
        <ele>187</ele>
        <time>2017-07-10T08:47:09Z</time>
      </trkpt>
      <trkpt lat="45.94726" lon="4.74057">
        <ele>188</ele>
        <time>2017-07-10T08:47:10Z</time>
      </trkpt>
      <trkpt lat="45.9473" lon="4.74062">
        <ele>188</ele>
        <time>2017-07-10T08:47:11Z</time>
      </trkpt>
      <trkpt lat="45.94734" lon="4.74066">
        <ele>188</ele>
        <time>2017-07-10T08:47:12Z</time>
      </trkpt>
      <trkpt lat="45.94737" lon="4.74071">
        <ele>188</ele>
        <time>2017-07-10T08:47:13Z</time>
      </trkpt>
      <trkpt lat="45.94741" lon="4.74075">
        <ele>188</ele>
        <time>2017-07-10T08:47:14Z</time>
      </trkpt>
      <trkpt lat="45.94744" lon="4.7408">
        <ele>189</ele>
        <time>2017-07-10T08:47:15Z</time>
      </trkpt>
      <trkpt lat="45.94748" lon="4.74085">
        <ele>189</ele>
        <time>2017-07-10T08:47:16Z</time>
      </trkpt>
      <trkpt lat="45.94751" lon="4.7409">
        <ele>189</ele>
        <time>2017-07-10T08:47:17Z</time>
      </trkpt>
      <trkpt lat="45.94755" lon="4.74094">
        <ele>189</ele>
        <time>2017-07-10T08:47:18Z</time>
      </trkpt>
      <trkpt lat="45.94758" lon="4.74099">
        <ele>189</ele>
        <time>2017-07-10T08:47:19Z</time>
      </trkpt>
      <trkpt lat="45.94761" lon="4.74104">
        <ele>189</ele>
        <time>2017-07-10T08:47:20Z</time>
      </trkpt>
      <trkpt lat="45.94767" lon="4.74113">
        <ele>189</ele>
        <time>2017-07-10T08:47:22Z</time>
      </trkpt>
      <trkpt lat="45.9477" lon="4.74117">
        <ele>189</ele>
        <time>2017-07-10T08:47:23Z</time>
      </trkpt>
      <trkpt lat="45.94776" lon="4.74125">
        <ele>189</ele>
        <time>2017-07-10T08:47:25Z</time>
      </trkpt>
      <trkpt lat="45.94779" lon="4.7413">
        <ele>189</ele>
        <time>2017-07-10T08:47:26Z</time>
      </trkpt>
      <trkpt lat="45.94783" lon="4.74134">
        <ele>189</ele>
        <time>2017-07-10T08:47:27Z</time>
      </trkpt>
      <trkpt lat="45.94786" lon="4.74139">
        <ele>189</ele>
        <time>2017-07-10T08:47:28Z</time>
      </trkpt>
      <trkpt lat="45.9479" lon="4.74144">
        <ele>189</ele>
        <time>2017-07-10T08:47:29Z</time>
      </trkpt>
      <trkpt lat="45.94793" lon="4.74149">
        <ele>189</ele>
        <time>2017-07-10T08:47:30Z</time>
      </trkpt>
      <trkpt lat="45.94797" lon="4.74154">
        <ele>189</ele>
        <time>2017-07-10T08:47:31Z</time>
      </trkpt>
      <trkpt lat="45.948" lon="4.74158">
        <ele>189</ele>
        <time>2017-07-10T08:47:32Z</time>
      </trkpt>
      <trkpt lat="45.94804" lon="4.74163">
        <ele>189</ele>
        <time>2017-07-10T08:47:33Z</time>
      </trkpt>
      <trkpt lat="45.94807" lon="4.74169">
        <ele>189</ele>
        <time>2017-07-10T08:47:34Z</time>
      </trkpt>
      <trkpt lat="45.9481" lon="4.74175">
        <ele>189</ele>
        <time>2017-07-10T08:47:35Z</time>
      </trkpt>
      <trkpt lat="45.94814" lon="4.74181">
        <ele>189</ele>
        <time>2017-07-10T08:47:36Z</time>
      </trkpt>
      <trkpt lat="45.94817" lon="4.74187">
        <ele>189</ele>
        <time>2017-07-10T08:47:37Z</time>
      </trkpt>
      <trkpt lat="45.9482" lon="4.74193">
        <ele>189</ele>
        <time>2017-07-10T08:47:38Z</time>
      </trkpt>
      <trkpt lat="45.94823" lon="4.74199">
        <ele>189</ele>
        <time>2017-07-10T08:47:39Z</time>
      </trkpt>
      <trkpt lat="45.94826" lon="4.74205">
        <ele>189</ele>
        <time>2017-07-10T08:47:40Z</time>
      </trkpt>
      <trkpt lat="45.94829" lon="4.74211">
        <ele>189</ele>
        <time>2017-07-10T08:47:41Z</time>
      </trkpt>
      <trkpt lat="45.94832" lon="4.74217">
        <ele>189</ele>
        <time>2017-07-10T08:47:42Z</time>
      </trkpt>
      <trkpt lat="45.94835" lon="4.74223">
        <ele>190</ele>
        <time>2017-07-10T08:47:43Z</time>
      </trkpt>
      <trkpt lat="45.94838" lon="4.74228">
        <ele>190</ele>
        <time>2017-07-10T08:47:44Z</time>
      </trkpt>
      <trkpt lat="45.94841" lon="4.74234">
        <ele>190</ele>
        <time>2017-07-10T08:47:45Z</time>
      </trkpt>
      <trkpt lat="45.94844" lon="4.7424">
        <ele>190</ele>
        <time>2017-07-10T08:47:46Z</time>
      </trkpt>
      <trkpt lat="45.94848" lon="4.74245">
        <ele>190</ele>
        <time>2017-07-10T08:47:47Z</time>
      </trkpt>
      <trkpt lat="45.94852" lon="4.74251">
        <ele>190</ele>
        <time>2017-07-10T08:47:48Z</time>
      </trkpt>
      <trkpt lat="45.94855" lon="4.74257">
        <ele>190</ele>
        <time>2017-07-10T08:47:49Z</time>
      </trkpt>
      <trkpt lat="45.94858" lon="4.74263">
        <ele>190</ele>
        <time>2017-07-10T08:47:50Z</time>
      </trkpt>
      <trkpt lat="45.94862" lon="4.74269">
        <ele>190</ele>
        <time>2017-07-10T08:47:51Z</time>
      </trkpt>
      <trkpt lat="45.94865" lon="4.74275">
        <ele>191</ele>
        <time>2017-07-10T08:47:52Z</time>
      </trkpt>
      <trkpt lat="45.94868" lon="4.74281">
        <ele>191</ele>
        <time>2017-07-10T08:47:53Z</time>
      </trkpt>
      <trkpt lat="45.94871" lon="4.74288">
        <ele>191</ele>
        <time>2017-07-10T08:47:54Z</time>
      </trkpt>
      <trkpt lat="45.94874" lon="4.74294">
        <ele>191</ele>
        <time>2017-07-10T08:47:55Z</time>
      </trkpt>
      <trkpt lat="45.94877" lon="4.74301">
        <ele>191</ele>
        <time>2017-07-10T08:47:56Z</time>
      </trkpt>
      <trkpt lat="45.9488" lon="4.74307">
        <ele>191</ele>
        <time>2017-07-10T08:47:57Z</time>
      </trkpt>
      <trkpt lat="45.94883" lon="4.74313">
        <ele>191</ele>
        <time>2017-07-10T08:47:58Z</time>
      </trkpt>
      <trkpt lat="45.94886" lon="4.7432">
        <ele>191</ele>
        <time>2017-07-10T08:47:59Z</time>
      </trkpt>
      <trkpt lat="45.94888" lon="4.74325">
        <ele>191</ele>
        <time>2017-07-10T08:48:00Z</time>
      </trkpt>
      <trkpt lat="45.94893" lon="4.74336">
        <ele>191</ele>
        <time>2017-07-10T08:48:02Z</time>
      </trkpt>
      <trkpt lat="45.94896" lon="4.74341">
        <ele>191</ele>
        <time>2017-07-10T08:48:03Z</time>
      </trkpt>
      <trkpt lat="45.94901" lon="4.74351">
        <ele>191</ele>
        <time>2017-07-10T08:48:05Z</time>
      </trkpt>
      <trkpt lat="45.94903" lon="4.74356">
        <ele>191</ele>
        <time>2017-07-10T08:48:06Z</time>
      </trkpt>
      <trkpt lat="45.94906" lon="4.74361">
        <ele>191</ele>
        <time>2017-07-10T08:48:07Z</time>
      </trkpt>
      <trkpt lat="45.94909" lon="4.74367">
        <ele>191</ele>
        <time>2017-07-10T08:48:08Z</time>
      </trkpt>
      <trkpt lat="45.94912" lon="4.74373">
        <ele>191</ele>
        <time>2017-07-10T08:48:09Z</time>
      </trkpt>
      <trkpt lat="45.94915" lon="4.74379">
        <ele>191</ele>
        <time>2017-07-10T08:48:10Z</time>
      </trkpt>
      <trkpt lat="45.94919" lon="4.74389">
        <ele>192</ele>
        <time>2017-07-10T08:48:12Z</time>
      </trkpt>
      <trkpt lat="45.94922" lon="4.74394">
        <ele>192</ele>
        <time>2017-07-10T08:48:13Z</time>
      </trkpt>
      <trkpt lat="45.94927" lon="4.74404">
        <ele>192</ele>
        <time>2017-07-10T08:48:15Z</time>
      </trkpt>
      <trkpt lat="45.94929" lon="4.74409">
        <ele>192</ele>
        <time>2017-07-10T08:48:16Z</time>
      </trkpt>
      <trkpt lat="45.94932" lon="4.74414">
        <ele>192</ele>
        <time>2017-07-10T08:48:17Z</time>
      </trkpt>
      <trkpt lat="45.94935" lon="4.74419">
        <ele>192</ele>
        <time>2017-07-10T08:48:18Z</time>
      </trkpt>
      <trkpt lat="45.94938" lon="4.74424">
        <ele>192</ele>
        <time>2017-07-10T08:48:19Z</time>
      </trkpt>
      <trkpt lat="45.94941" lon="4.7443">
        <ele>192</ele>
        <time>2017-07-10T08:48:20Z</time>
      </trkpt>
      <trkpt lat="45.94944" lon="4.74435">
        <ele>192</ele>
        <time>2017-07-10T08:48:21Z</time>
      </trkpt>
      <trkpt lat="45.94947" lon="4.7444">
        <ele>192</ele>
        <time>2017-07-10T08:48:22Z</time>
      </trkpt>
      <trkpt lat="45.94952" lon="4.7445">
        <ele>192</ele>
        <time>2017-07-10T08:48:24Z</time>
      </trkpt>
      <trkpt lat="45.94954" lon="4.74455">
        <ele>192</ele>
        <time>2017-07-10T08:48:25Z</time>
      </trkpt>
      <trkpt lat="45.94959" lon="4.74466">
        <ele>193</ele>
        <time>2017-07-10T08:48:27Z</time>
      </trkpt>
      <trkpt lat="45.94962" lon="4.74472">
        <ele>193</ele>
        <time>2017-07-10T08:48:28Z</time>
      </trkpt>
      <trkpt lat="45.94965" lon="4.74478">
        <ele>193</ele>
        <time>2017-07-10T08:48:29Z</time>
      </trkpt>
      <trkpt lat="45.94969" lon="4.74483">
        <ele>193</ele>
        <time>2017-07-10T08:48:30Z</time>
      </trkpt>
      <trkpt lat="45.94972" lon="4.74489">
        <ele>193</ele>
        <time>2017-07-10T08:48:31Z</time>
      </trkpt>
      <trkpt lat="45.94975" lon="4.74495">
        <ele>193</ele>
        <time>2017-07-10T08:48:32Z</time>
      </trkpt>
      <trkpt lat="45.94979" lon="4.74501">
        <ele>193</ele>
        <time>2017-07-10T08:48:33Z</time>
      </trkpt>
      <trkpt lat="45.94982" lon="4.74506">
        <ele>193</ele>
        <time>2017-07-10T08:48:34Z</time>
      </trkpt>
      <trkpt lat="45.94985" lon="4.74512">
        <ele>193</ele>
        <time>2017-07-10T08:48:35Z</time>
      </trkpt>
      <trkpt lat="45.94987" lon="4.74517">
        <ele>193</ele>
        <time>2017-07-10T08:48:36Z</time>
      </trkpt>
      <trkpt lat="45.9499" lon="4.74522">
        <ele>193</ele>
        <time>2017-07-10T08:48:37Z</time>
      </trkpt>
      <trkpt lat="45.94993" lon="4.74527">
        <ele>193</ele>
        <time>2017-07-10T08:48:38Z</time>
      </trkpt>
      <trkpt lat="45.94996" lon="4.74533">
        <ele>193</ele>
        <time>2017-07-10T08:48:39Z</time>
      </trkpt>
      <trkpt lat="45.94998" lon="4.74538">
        <ele>193</ele>
        <time>2017-07-10T08:48:40Z</time>
      </trkpt>
      <trkpt lat="45.95001" lon="4.74544">
        <ele>194</ele>
        <time>2017-07-10T08:48:41Z</time>
      </trkpt>
      <trkpt lat="45.95004" lon="4.7455">
        <ele>194</ele>
        <time>2017-07-10T08:48:42Z</time>
      </trkpt>
      <trkpt lat="45.95007" lon="4.74555">
        <ele>194</ele>
        <time>2017-07-10T08:48:43Z</time>
      </trkpt>
      <trkpt lat="45.95009" lon="4.7456">
        <ele>194</ele>
        <time>2017-07-10T08:48:44Z</time>
      </trkpt>
      <trkpt lat="45.95012" lon="4.74565">
        <ele>194</ele>
        <time>2017-07-10T08:48:45Z</time>
      </trkpt>
      <trkpt lat="45.95015" lon="4.7457">
        <ele>194</ele>
        <time>2017-07-10T08:48:46Z</time>
      </trkpt>
      <trkpt lat="45.95018" lon="4.74575">
        <ele>194</ele>
        <time>2017-07-10T08:48:47Z</time>
      </trkpt>
      <trkpt lat="45.9502" lon="4.7458">
        <ele>194</ele>
        <time>2017-07-10T08:48:48Z</time>
      </trkpt>
      <trkpt lat="45.95023" lon="4.74586">
        <ele>194</ele>
        <time>2017-07-10T08:48:49Z</time>
      </trkpt>
      <trkpt lat="45.95026" lon="4.74592">
        <ele>194</ele>
        <time>2017-07-10T08:48:50Z</time>
      </trkpt>
      <trkpt lat="45.95028" lon="4.74598">
        <ele>194</ele>
        <time>2017-07-10T08:48:51Z</time>
      </trkpt>
      <trkpt lat="45.95031" lon="4.74603">
        <ele>194</ele>
        <time>2017-07-10T08:48:52Z</time>
      </trkpt>
      <trkpt lat="45.95036" lon="4.74613">
        <ele>194</ele>
        <time>2017-07-10T08:48:54Z</time>
      </trkpt>
      <trkpt lat="45.95038" lon="4.74618">
        <ele>194</ele>
        <time>2017-07-10T08:48:55Z</time>
      </trkpt>
      <trkpt lat="45.95041" lon="4.74623">
        <ele>194</ele>
        <time>2017-07-10T08:48:56Z</time>
      </trkpt>
      <trkpt lat="45.95045" lon="4.74629">
        <ele>194</ele>
        <time>2017-07-10T08:48:57Z</time>
      </trkpt>
      <trkpt lat="45.95048" lon="4.74635">
        <ele>194</ele>
        <time>2017-07-10T08:48:58Z</time>
      </trkpt>
      <trkpt lat="45.95052" lon="4.74641">
        <ele>194</ele>
        <time>2017-07-10T08:48:59Z</time>
      </trkpt>
      <trkpt lat="45.95055" lon="4.74647">
        <ele>194</ele>
        <time>2017-07-10T08:49:00Z</time>
      </trkpt>
      <trkpt lat="45.95059" lon="4.74653">
        <ele>194</ele>
        <time>2017-07-10T08:49:01Z</time>
      </trkpt>
      <trkpt lat="45.95062" lon="4.74659">
        <ele>195</ele>
        <time>2017-07-10T08:49:02Z</time>
      </trkpt>
      <trkpt lat="45.95066" lon="4.74665">
        <ele>195</ele>
        <time>2017-07-10T08:49:03Z</time>
      </trkpt>
      <trkpt lat="45.95069" lon="4.74671">
        <ele>194</ele>
        <time>2017-07-10T08:49:04Z</time>
      </trkpt>
      <trkpt lat="45.95072" lon="4.74676">
        <ele>194</ele>
        <time>2017-07-10T08:49:05Z</time>
      </trkpt>
      <trkpt lat="45.95075" lon="4.74682">
        <ele>194</ele>
        <time>2017-07-10T08:49:06Z</time>
      </trkpt>
      <trkpt lat="45.95078" lon="4.74687">
        <ele>194</ele>
        <time>2017-07-10T08:49:07Z</time>
      </trkpt>
      <trkpt lat="45.95082" lon="4.74693">
        <ele>194</ele>
        <time>2017-07-10T08:49:08Z</time>
      </trkpt>
      <trkpt lat="45.95085" lon="4.74699">
        <ele>194</ele>
        <time>2017-07-10T08:49:09Z</time>
      </trkpt>
      <trkpt lat="45.95089" lon="4.74705">
        <ele>194</ele>
        <time>2017-07-10T08:49:10Z</time>
      </trkpt>
      <trkpt lat="45.95092" lon="4.74712">
        <ele>194</ele>
        <time>2017-07-10T08:49:11Z</time>
      </trkpt>
      <trkpt lat="45.95096" lon="4.74718">
        <ele>194</ele>
        <time>2017-07-10T08:49:12Z</time>
      </trkpt>
      <trkpt lat="45.95099" lon="4.74723">
        <ele>194</ele>
        <time>2017-07-10T08:49:13Z</time>
      </trkpt>
      <trkpt lat="45.95102" lon="4.74729">
        <ele>194</ele>
        <time>2017-07-10T08:49:14Z</time>
      </trkpt>
      <trkpt lat="45.95106" lon="4.74735">
        <ele>194</ele>
        <time>2017-07-10T08:49:15Z</time>
      </trkpt>
      <trkpt lat="45.95109" lon="4.7474">
        <ele>194</ele>
        <time>2017-07-10T08:49:16Z</time>
      </trkpt>
      <trkpt lat="45.95112" lon="4.74746">
        <ele>194</ele>
        <time>2017-07-10T08:49:17Z</time>
      </trkpt>
      <trkpt lat="45.95116" lon="4.74751">
        <ele>194</ele>
        <time>2017-07-10T08:49:18Z</time>
      </trkpt>
      <trkpt lat="45.95119" lon="4.74757">
        <ele>194</ele>
        <time>2017-07-10T08:49:19Z</time>
      </trkpt>
      <trkpt lat="45.95122" lon="4.74763">
        <ele>194</ele>
        <time>2017-07-10T08:49:20Z</time>
      </trkpt>
      <trkpt lat="45.95126" lon="4.74769">
        <ele>194</ele>
        <time>2017-07-10T08:49:21Z</time>
      </trkpt>
      <trkpt lat="45.95129" lon="4.74774">
        <ele>194</ele>
        <time>2017-07-10T08:49:22Z</time>
      </trkpt>
      <trkpt lat="45.95133" lon="4.7478">
        <ele>194</ele>
        <time>2017-07-10T08:49:23Z</time>
      </trkpt>
      <trkpt lat="45.95136" lon="4.74786">
        <ele>194</ele>
        <time>2017-07-10T08:49:24Z</time>
      </trkpt>
      <trkpt lat="45.9514" lon="4.74791">
        <ele>194</ele>
        <time>2017-07-10T08:49:25Z</time>
      </trkpt>
      <trkpt lat="45.95143" lon="4.74796">
        <ele>194</ele>
        <time>2017-07-10T08:49:26Z</time>
      </trkpt>
      <trkpt lat="45.95147" lon="4.74802">
        <ele>194</ele>
        <time>2017-07-10T08:49:27Z</time>
      </trkpt>
      <trkpt lat="45.9515" lon="4.74808">
        <ele>194</ele>
        <time>2017-07-10T08:49:28Z</time>
      </trkpt>
      <trkpt lat="45.95154" lon="4.74814">
        <ele>194</ele>
        <time>2017-07-10T08:49:29Z</time>
      </trkpt>
      <trkpt lat="45.95158" lon="4.7482">
        <ele>194</ele>
        <time>2017-07-10T08:49:30Z</time>
      </trkpt>
      <trkpt lat="45.95161" lon="4.74826">
        <ele>194</ele>
        <time>2017-07-10T08:49:31Z</time>
      </trkpt>
      <trkpt lat="45.95165" lon="4.74832">
        <ele>194</ele>
        <time>2017-07-10T08:49:32Z</time>
      </trkpt>
      <trkpt lat="45.95168" lon="4.74837">
        <ele>194</ele>
        <time>2017-07-10T08:49:33Z</time>
      </trkpt>
      <trkpt lat="45.95171" lon="4.74842">
        <ele>194</ele>
        <time>2017-07-10T08:49:34Z</time>
      </trkpt>
      <trkpt lat="45.95174" lon="4.74847">
        <ele>194</ele>
        <time>2017-07-10T08:49:35Z</time>
      </trkpt>
      <trkpt lat="45.95177" lon="4.74852">
        <ele>194</ele>
        <time>2017-07-10T08:49:36Z</time>
      </trkpt>
      <trkpt lat="45.95181" lon="4.74857">
        <ele>194</ele>
        <time>2017-07-10T08:49:37Z</time>
      </trkpt>
      <trkpt lat="45.95184" lon="4.74862">
        <ele>194</ele>
        <time>2017-07-10T08:49:38Z</time>
      </trkpt>
      <trkpt lat="45.95187" lon="4.74867">
        <ele>194</ele>
        <time>2017-07-10T08:49:39Z</time>
      </trkpt>
      <trkpt lat="45.9519" lon="4.74872">
        <ele>194</ele>
        <time>2017-07-10T08:49:40Z</time>
      </trkpt>
      <trkpt lat="45.95193" lon="4.74878">
        <ele>194</ele>
        <time>2017-07-10T08:49:41Z</time>
      </trkpt>
      <trkpt lat="45.95197" lon="4.74883">
        <ele>194</ele>
        <time>2017-07-10T08:49:42Z</time>
      </trkpt>
      <trkpt lat="45.952" lon="4.74888">
        <ele>194</ele>
        <time>2017-07-10T08:49:43Z</time>
      </trkpt>
      <trkpt lat="45.95203" lon="4.74893">
        <ele>194</ele>
        <time>2017-07-10T08:49:44Z</time>
      </trkpt>
      <trkpt lat="45.95206" lon="4.74898">
        <ele>194</ele>
        <time>2017-07-10T08:49:45Z</time>
      </trkpt>
      <trkpt lat="45.95209" lon="4.74903">
        <ele>193</ele>
        <time>2017-07-10T08:49:46Z</time>
      </trkpt>
      <trkpt lat="45.95213" lon="4.74908">
        <ele>193</ele>
        <time>2017-07-10T08:49:47Z</time>
      </trkpt>
      <trkpt lat="45.95216" lon="4.74914">
        <ele>193</ele>
        <time>2017-07-10T08:49:48Z</time>
      </trkpt>
      <trkpt lat="45.9522" lon="4.74919">
        <ele>192</ele>
        <time>2017-07-10T08:49:49Z</time>
      </trkpt>
      <trkpt lat="45.95223" lon="4.74925">
        <ele>192</ele>
        <time>2017-07-10T08:49:50Z</time>
      </trkpt>
      <trkpt lat="45.95227" lon="4.7493">
        <ele>192</ele>
        <time>2017-07-10T08:49:51Z</time>
      </trkpt>
      <trkpt lat="45.95231" lon="4.74936">
        <ele>192</ele>
        <time>2017-07-10T08:49:52Z</time>
      </trkpt>
      <trkpt lat="45.95234" lon="4.74942">
        <ele>192</ele>
        <time>2017-07-10T08:49:53Z</time>
      </trkpt>
      <trkpt lat="45.95238" lon="4.74947">
        <ele>192</ele>
        <time>2017-07-10T08:49:54Z</time>
      </trkpt>
      <trkpt lat="45.95241" lon="4.74952">
        <ele>192</ele>
        <time>2017-07-10T08:49:55Z</time>
      </trkpt>
      <trkpt lat="45.95245" lon="4.74957">
        <ele>192</ele>
        <time>2017-07-10T08:49:56Z</time>
      </trkpt>
      <trkpt lat="45.95248" lon="4.74962">
        <ele>191</ele>
        <time>2017-07-10T08:49:57Z</time>
      </trkpt>
      <trkpt lat="45.95251" lon="4.74967">
        <ele>192</ele>
        <time>2017-07-10T08:49:58Z</time>
      </trkpt>
      <trkpt lat="45.95254" lon="4.74972">
        <ele>192</ele>
        <time>2017-07-10T08:49:59Z</time>
      </trkpt>
      <trkpt lat="45.95258" lon="4.74977">
        <ele>192</ele>
        <time>2017-07-10T08:50:00Z</time>
      </trkpt>
      <trkpt lat="45.95261" lon="4.74983">
        <ele>192</ele>
        <time>2017-07-10T08:50:01Z</time>
      </trkpt>
      <trkpt lat="45.95264" lon="4.74988">
        <ele>192</ele>
        <time>2017-07-10T08:50:02Z</time>
      </trkpt>
      <trkpt lat="45.95267" lon="4.74994">
        <ele>192</ele>
        <time>2017-07-10T08:50:03Z</time>
      </trkpt>
      <trkpt lat="45.9527" lon="4.75">
        <ele>192</ele>
        <time>2017-07-10T08:50:04Z</time>
      </trkpt>
      <trkpt lat="45.95274" lon="4.75005">
        <ele>191</ele>
        <time>2017-07-10T08:50:05Z</time>
      </trkpt>
      <trkpt lat="45.95277" lon="4.75011">
        <ele>191</ele>
        <time>2017-07-10T08:50:06Z</time>
      </trkpt>
      <trkpt lat="45.95281" lon="4.75017">
        <ele>191</ele>
        <time>2017-07-10T08:50:07Z</time>
      </trkpt>
      <trkpt lat="45.95285" lon="4.75023">
        <ele>191</ele>
        <time>2017-07-10T08:50:08Z</time>
      </trkpt>
      <trkpt lat="45.95289" lon="4.75029">
        <ele>191</ele>
        <time>2017-07-10T08:50:09Z</time>
      </trkpt>
      <trkpt lat="45.95293" lon="4.75035">
        <ele>191</ele>
        <time>2017-07-10T08:50:10Z</time>
      </trkpt>
      <trkpt lat="45.95297" lon="4.75041">
        <ele>191</ele>
        <time>2017-07-10T08:50:11Z</time>
      </trkpt>
      <trkpt lat="45.953" lon="4.75047">
        <ele>191</ele>
        <time>2017-07-10T08:50:12Z</time>
      </trkpt>
      <trkpt lat="45.95304" lon="4.75053">
        <ele>191</ele>
        <time>2017-07-10T08:50:13Z</time>
      </trkpt>
      <trkpt lat="45.95308" lon="4.75059">
        <ele>192</ele>
        <time>2017-07-10T08:50:14Z</time>
      </trkpt>
      <trkpt lat="45.95312" lon="4.75065">
        <ele>192</ele>
        <time>2017-07-10T08:50:15Z</time>
      </trkpt>
      <trkpt lat="45.95316" lon="4.7507">
        <ele>192</ele>
        <time>2017-07-10T08:50:16Z</time>
      </trkpt>
      <trkpt lat="45.9532" lon="4.75076">
        <ele>192</ele>
        <time>2017-07-10T08:50:17Z</time>
      </trkpt>
      <trkpt lat="45.95323" lon="4.75081">
        <ele>192</ele>
        <time>2017-07-10T08:50:18Z</time>
      </trkpt>
      <trkpt lat="45.95327" lon="4.75087">
        <ele>192</ele>
        <time>2017-07-10T08:50:19Z</time>
      </trkpt>
      <trkpt lat="45.95331" lon="4.75093">
        <ele>191</ele>
        <time>2017-07-10T08:50:20Z</time>
      </trkpt>
      <trkpt lat="45.95334" lon="4.75098">
        <ele>192</ele>
        <time>2017-07-10T08:50:21Z</time>
      </trkpt>
      <trkpt lat="45.95338" lon="4.75104">
        <ele>192</ele>
        <time>2017-07-10T08:50:22Z</time>
      </trkpt>
      <trkpt lat="45.95342" lon="4.7511">
        <ele>192</ele>
        <time>2017-07-10T08:50:23Z</time>
      </trkpt>
      <trkpt lat="45.95346" lon="4.75116">
        <ele>192</ele>
        <time>2017-07-10T08:50:24Z</time>
      </trkpt>
      <trkpt lat="45.9535" lon="4.75122">
        <ele>191</ele>
        <time>2017-07-10T08:50:25Z</time>
      </trkpt>
      <trkpt lat="45.95353" lon="4.75128">
        <ele>191</ele>
        <time>2017-07-10T08:50:26Z</time>
      </trkpt>
      <trkpt lat="45.95358" lon="4.75134">
        <ele>191</ele>
        <time>2017-07-10T08:50:27Z</time>
      </trkpt>
      <trkpt lat="45.95361" lon="4.7514">
        <ele>191</ele>
        <time>2017-07-10T08:50:28Z</time>
      </trkpt>
      <trkpt lat="45.95365" lon="4.75146">
        <ele>191</ele>
        <time>2017-07-10T08:50:29Z</time>
      </trkpt>
      <trkpt lat="45.95369" lon="4.75152">
        <ele>191</ele>
        <time>2017-07-10T08:50:30Z</time>
      </trkpt>
      <trkpt lat="45.95372" lon="4.75158">
        <ele>191</ele>
        <time>2017-07-10T08:50:31Z</time>
      </trkpt>
      <trkpt lat="45.95376" lon="4.75165">
        <ele>191</ele>
        <time>2017-07-10T08:50:32Z</time>
      </trkpt>
      <trkpt lat="45.9538" lon="4.75171">
        <ele>189</ele>
        <time>2017-07-10T08:50:33Z</time>
      </trkpt>
      <trkpt lat="45.95384" lon="4.75177">
        <ele>189</ele>
        <time>2017-07-10T08:50:34Z</time>
      </trkpt>
      <trkpt lat="45.95388" lon="4.75184">
        <ele>189</ele>
        <time>2017-07-10T08:50:35Z</time>
      </trkpt>
      <trkpt lat="45.95392" lon="4.7519">
        <ele>189</ele>
        <time>2017-07-10T08:50:36Z</time>
      </trkpt>
      <trkpt lat="45.95396" lon="4.75196">
        <ele>189</ele>
        <time>2017-07-10T08:50:37Z</time>
      </trkpt>
      <trkpt lat="45.95399" lon="4.75202">
        <ele>189</ele>
        <time>2017-07-10T08:50:38Z</time>
      </trkpt>
      <trkpt lat="45.95402" lon="4.75209">
        <ele>189</ele>
        <time>2017-07-10T08:50:39Z</time>
      </trkpt>
      <trkpt lat="45.95405" lon="4.75215">
        <ele>189</ele>
        <time>2017-07-10T08:50:40Z</time>
      </trkpt>
      <trkpt lat="45.95409" lon="4.75222">
        <ele>189</ele>
        <time>2017-07-10T08:50:41Z</time>
      </trkpt>
      <trkpt lat="45.95413" lon="4.75228">
        <ele>189</ele>
        <time>2017-07-10T08:50:42Z</time>
      </trkpt>
      <trkpt lat="45.95417" lon="4.75235">
        <ele>189</ele>
        <time>2017-07-10T08:50:43Z</time>
      </trkpt>
      <trkpt lat="45.9542" lon="4.75242">
        <ele>190</ele>
        <time>2017-07-10T08:50:44Z</time>
      </trkpt>
      <trkpt lat="45.95423" lon="4.75248">
        <ele>190</ele>
        <time>2017-07-10T08:50:45Z</time>
      </trkpt>
      <trkpt lat="45.95427" lon="4.75254">
        <ele>189</ele>
        <time>2017-07-10T08:50:46Z</time>
      </trkpt>
      <trkpt lat="45.9543" lon="4.75261">
        <ele>189</ele>
        <time>2017-07-10T08:50:47Z</time>
      </trkpt>
      <trkpt lat="45.95434" lon="4.75268">
        <ele>189</ele>
        <time>2017-07-10T08:50:48Z</time>
      </trkpt>
      <trkpt lat="45.95438" lon="4.75275">
        <ele>188</ele>
        <time>2017-07-10T08:50:49Z</time>
      </trkpt>
      <trkpt lat="45.95441" lon="4.75282">
        <ele>188</ele>
        <time>2017-07-10T08:50:50Z</time>
      </trkpt>
      <trkpt lat="45.95445" lon="4.75289">
        <ele>188</ele>
        <time>2017-07-10T08:50:51Z</time>
      </trkpt>
      <trkpt lat="45.95449" lon="4.75296">
        <ele>188</ele>
        <time>2017-07-10T08:50:52Z</time>
      </trkpt>
      <trkpt lat="45.95452" lon="4.75302">
        <ele>188</ele>
        <time>2017-07-10T08:50:53Z</time>
      </trkpt>
      <trkpt lat="45.95456" lon="4.75309">
        <ele>188</ele>
        <time>2017-07-10T08:50:54Z</time>
      </trkpt>
      <trkpt lat="45.9546" lon="4.75316">
        <ele>188</ele>
        <time>2017-07-10T08:50:55Z</time>
      </trkpt>
      <trkpt lat="45.95464" lon="4.75323">
        <ele>188</ele>
        <time>2017-07-10T08:50:56Z</time>
      </trkpt>
      <trkpt lat="45.95468" lon="4.7533">
        <ele>188</ele>
        <time>2017-07-10T08:50:57Z</time>
      </trkpt>
      <trkpt lat="45.95472" lon="4.75338">
        <ele>186</ele>
        <time>2017-07-10T08:50:58Z</time>
      </trkpt>
      <trkpt lat="45.95476" lon="4.75345">
        <ele>186</ele>
        <time>2017-07-10T08:50:59Z</time>
      </trkpt>
      <trkpt lat="45.95479" lon="4.75352">
        <ele>186</ele>
        <time>2017-07-10T08:51:00Z</time>
      </trkpt>
      <trkpt lat="45.95483" lon="4.7536">
        <ele>186</ele>
        <time>2017-07-10T08:51:01Z</time>
      </trkpt>
      <trkpt lat="45.95487" lon="4.75367">
        <ele>186</ele>
        <time>2017-07-10T08:51:02Z</time>
      </trkpt>
      <trkpt lat="45.9549" lon="4.75375">
        <ele>185</ele>
        <time>2017-07-10T08:51:03Z</time>
      </trkpt>
      <trkpt lat="45.95494" lon="4.75383">
        <ele>185</ele>
        <time>2017-07-10T08:51:04Z</time>
      </trkpt>
      <trkpt lat="45.95497" lon="4.7539">
        <ele>185</ele>
        <time>2017-07-10T08:51:05Z</time>
      </trkpt>
      <trkpt lat="45.955" lon="4.75398">
        <ele>187</ele>
        <time>2017-07-10T08:51:06Z</time>
      </trkpt>
      <trkpt lat="45.95503" lon="4.75406">
        <ele>187</ele>
        <time>2017-07-10T08:51:07Z</time>
      </trkpt>
      <trkpt lat="45.95505" lon="4.75415">
        <ele>186</ele>
        <time>2017-07-10T08:51:08Z</time>
      </trkpt>
      <trkpt lat="45.95507" lon="4.75424">
        <ele>186</ele>
        <time>2017-07-10T08:51:09Z</time>
      </trkpt>
      <trkpt lat="45.95509" lon="4.75433">
        <ele>186</ele>
        <time>2017-07-10T08:51:10Z</time>
      </trkpt>
      <trkpt lat="45.9551" lon="4.75443">
        <ele>187</ele>
        <time>2017-07-10T08:51:11Z</time>
      </trkpt>
      <trkpt lat="45.95511" lon="4.75453">
        <ele>187</ele>
        <time>2017-07-10T08:51:12Z</time>
      </trkpt>
      <trkpt lat="45.9551" lon="4.75463">
        <ele>186</ele>
        <time>2017-07-10T08:51:13Z</time>
      </trkpt>
      <trkpt lat="45.95511" lon="4.75473">
        <ele>186</ele>
        <time>2017-07-10T08:51:14Z</time>
      </trkpt>
      <trkpt lat="45.95512" lon="4.75482">
        <ele>186</ele>
        <time>2017-07-10T08:51:15Z</time>
      </trkpt>
      <trkpt lat="45.95515" lon="4.75491">
        <ele>186</ele>
        <time>2017-07-10T08:51:16Z</time>
      </trkpt>
      <trkpt lat="45.95519" lon="4.75498">
        <ele>186</ele>
        <time>2017-07-10T08:51:17Z</time>
      </trkpt>
      <trkpt lat="45.95525" lon="4.75502">
        <ele>185</ele>
        <time>2017-07-10T08:51:18Z</time>
      </trkpt>
      <trkpt lat="45.9553" lon="4.75505">
        <ele>185</ele>
        <time>2017-07-10T08:51:19Z</time>
      </trkpt>
      <trkpt lat="45.95535" lon="4.75509">
        <ele>186</ele>
        <time>2017-07-10T08:51:20Z</time>
      </trkpt>
      <trkpt lat="45.95539" lon="4.75513">
        <ele>186</ele>
        <time>2017-07-10T08:51:21Z</time>
      </trkpt>
      <trkpt lat="45.95544" lon="4.75518">
        <ele>186</ele>
        <time>2017-07-10T08:51:22Z</time>
      </trkpt>
      <trkpt lat="45.95548" lon="4.75523">
        <ele>186</ele>
        <time>2017-07-10T08:51:23Z</time>
      </trkpt>
      <trkpt lat="45.95553" lon="4.75527">
        <ele>186</ele>
        <time>2017-07-10T08:51:24Z</time>
      </trkpt>
      <trkpt lat="45.95558" lon="4.75532">
        <ele>186</ele>
        <time>2017-07-10T08:51:25Z</time>
      </trkpt>
      <trkpt lat="45.95563" lon="4.75536">
        <ele>186</ele>
        <time>2017-07-10T08:51:26Z</time>
      </trkpt>
      <trkpt lat="45.95568" lon="4.75541">
        <ele>186</ele>
        <time>2017-07-10T08:51:27Z</time>
      </trkpt>
      <trkpt lat="45.95573" lon="4.75547">
        <ele>186</ele>
        <time>2017-07-10T08:51:28Z</time>
      </trkpt>
      <trkpt lat="45.95578" lon="4.75553">
        <ele>186</ele>
        <time>2017-07-10T08:51:29Z</time>
      </trkpt>
      <trkpt lat="45.95583" lon="4.75559">
        <ele>186</ele>
        <time>2017-07-10T08:51:30Z</time>
      </trkpt>
      <trkpt lat="45.95587" lon="4.75566">
        <ele>188</ele>
        <time>2017-07-10T08:51:31Z</time>
      </trkpt>
      <trkpt lat="45.95591" lon="4.75573">
        <ele>187</ele>
        <time>2017-07-10T08:51:32Z</time>
      </trkpt>
      <trkpt lat="45.95595" lon="4.75581">
        <ele>187</ele>
        <time>2017-07-10T08:51:33Z</time>
      </trkpt>
      <trkpt lat="45.95598" lon="4.75589">
        <ele>187</ele>
        <time>2017-07-10T08:51:34Z</time>
      </trkpt>
      <trkpt lat="45.95601" lon="4.75596">
        <ele>187</ele>
        <time>2017-07-10T08:51:35Z</time>
      </trkpt>
      <trkpt lat="45.95603" lon="4.75603">
        <ele>187</ele>
        <time>2017-07-10T08:51:36Z</time>
      </trkpt>
      <trkpt lat="45.95606" lon="4.7561">
        <ele>188</ele>
        <time>2017-07-10T08:51:37Z</time>
      </trkpt>
      <trkpt lat="45.95608" lon="4.75617">
        <ele>188</ele>
        <time>2017-07-10T08:51:38Z</time>
      </trkpt>
      <trkpt lat="45.9561" lon="4.75623">
        <ele>188</ele>
        <time>2017-07-10T08:51:39Z</time>
      </trkpt>
      <trkpt lat="45.95612" lon="4.75631">
        <ele>188</ele>
        <time>2017-07-10T08:51:40Z</time>
      </trkpt>
      <trkpt lat="45.95614" lon="4.75638">
        <ele>188</ele>
        <time>2017-07-10T08:51:41Z</time>
      </trkpt>
      <trkpt lat="45.95616" lon="4.75646">
        <ele>188</ele>
        <time>2017-07-10T08:51:42Z</time>
      </trkpt>
      <trkpt lat="45.95618" lon="4.75653">
        <ele>188</ele>
        <time>2017-07-10T08:51:43Z</time>
      </trkpt>
      <trkpt lat="45.9562" lon="4.75661">
        <ele>188</ele>
        <time>2017-07-10T08:51:44Z</time>
      </trkpt>
      <trkpt lat="45.95621" lon="4.75669">
        <ele>187</ele>
        <time>2017-07-10T08:51:45Z</time>
      </trkpt>
      <trkpt lat="45.95622" lon="4.75677">
        <ele>187</ele>
        <time>2017-07-10T08:51:46Z</time>
      </trkpt>
      <trkpt lat="45.95623" lon="4.75684">
        <ele>187</ele>
        <time>2017-07-10T08:51:47Z</time>
      </trkpt>
      <trkpt lat="45.95624" lon="4.75691">
        <ele>187</ele>
        <time>2017-07-10T08:51:48Z</time>
      </trkpt>
      <trkpt lat="45.95625" lon="4.75698">
        <ele>187</ele>
        <time>2017-07-10T08:51:49Z</time>
      </trkpt>
      <trkpt lat="45.95627" lon="4.75705">
        <ele>187</ele>
        <time>2017-07-10T08:51:50Z</time>
      </trkpt>
      <trkpt lat="45.95628" lon="4.75713">
        <ele>187</ele>
        <time>2017-07-10T08:51:51Z</time>
      </trkpt>
      <trkpt lat="45.95629" lon="4.75721">
        <ele>187</ele>
        <time>2017-07-10T08:51:52Z</time>
      </trkpt>
      <trkpt lat="45.9563" lon="4.75729">
        <ele>187</ele>
        <time>2017-07-10T08:51:53Z</time>
      </trkpt>
      <trkpt lat="45.95631" lon="4.75737">
        <ele>187</ele>
        <time>2017-07-10T08:51:54Z</time>
      </trkpt>
      <trkpt lat="45.95632" lon="4.75745">
        <ele>187</ele>
        <time>2017-07-10T08:51:55Z</time>
      </trkpt>
      <trkpt lat="45.95633" lon="4.75753">
        <ele>186</ele>
        <time>2017-07-10T08:51:56Z</time>
      </trkpt>
      <trkpt lat="45.95634" lon="4.75761">
        <ele>186</ele>
        <time>2017-07-10T08:51:57Z</time>
      </trkpt>
      <trkpt lat="45.95635" lon="4.75769">
        <ele>186</ele>
        <time>2017-07-10T08:51:58Z</time>
      </trkpt>
      <trkpt lat="45.95637" lon="4.75776">
        <ele>186</ele>
        <time>2017-07-10T08:51:59Z</time>
      </trkpt>
      <trkpt lat="45.95638" lon="4.75784">
        <ele>185</ele>
        <time>2017-07-10T08:52:00Z</time>
      </trkpt>
      <trkpt lat="45.95639" lon="4.75792">
        <ele>185</ele>
        <time>2017-07-10T08:52:01Z</time>
      </trkpt>
      <trkpt lat="45.95641" lon="4.758">
        <ele>185</ele>
        <time>2017-07-10T08:52:02Z</time>
      </trkpt>
      <trkpt lat="45.95642" lon="4.75808">
        <ele>185</ele>
        <time>2017-07-10T08:52:03Z</time>
      </trkpt>
      <trkpt lat="45.95644" lon="4.75816">
        <ele>185</ele>
        <time>2017-07-10T08:52:04Z</time>
      </trkpt>
      <trkpt lat="45.95645" lon="4.75824">
        <ele>185</ele>
        <time>2017-07-10T08:52:05Z</time>
      </trkpt>
      <trkpt lat="45.95648" lon="4.75833">
        <ele>185</ele>
        <time>2017-07-10T08:52:06Z</time>
      </trkpt>
      <trkpt lat="45.9565" lon="4.75842">
        <ele>185</ele>
        <time>2017-07-10T08:52:07Z</time>
      </trkpt>
      <trkpt lat="45.95652" lon="4.7585">
        <ele>184</ele>
        <time>2017-07-10T08:52:08Z</time>
      </trkpt>
      <trkpt lat="45.95654" lon="4.75858">
        <ele>184</ele>
        <time>2017-07-10T08:52:09Z</time>
      </trkpt>
      <trkpt lat="45.95656" lon="4.75867">
        <ele>184</ele>
        <time>2017-07-10T08:52:10Z</time>
      </trkpt>
      <trkpt lat="45.95659" lon="4.75875">
        <ele>184</ele>
        <time>2017-07-10T08:52:11Z</time>
      </trkpt>
      <trkpt lat="45.95661" lon="4.75883">
        <ele>184</ele>
        <time>2017-07-10T08:52:12Z</time>
      </trkpt>
      <trkpt lat="45.95664" lon="4.7589">
        <ele>184</ele>
        <time>2017-07-10T08:52:13Z</time>
      </trkpt>
      <trkpt lat="45.95667" lon="4.75898">
        <ele>184</ele>
        <time>2017-07-10T08:52:14Z</time>
      </trkpt>
      <trkpt lat="45.9567" lon="4.75905">
        <ele>185</ele>
        <time>2017-07-10T08:52:15Z</time>
      </trkpt>
      <trkpt lat="45.95673" lon="4.75913">
        <ele>185</ele>
        <time>2017-07-10T08:52:16Z</time>
      </trkpt>
      <trkpt lat="45.95676" lon="4.75921">
        <ele>184</ele>
        <time>2017-07-10T08:52:17Z</time>
      </trkpt>
      <trkpt lat="45.9568" lon="4.75928">
        <ele>185</ele>
        <time>2017-07-10T08:52:18Z</time>
      </trkpt>
      <trkpt lat="45.95683" lon="4.75936">
        <ele>185</ele>
        <time>2017-07-10T08:52:19Z</time>
      </trkpt>
      <trkpt lat="45.95686" lon="4.75944">
        <ele>185</ele>
        <time>2017-07-10T08:52:20Z</time>
      </trkpt>
      <trkpt lat="45.95689" lon="4.75951">
        <ele>185</ele>
        <time>2017-07-10T08:52:21Z</time>
      </trkpt>
      <trkpt lat="45.95693" lon="4.75958">
        <ele>185</ele>
        <time>2017-07-10T08:52:22Z</time>
      </trkpt>
      <trkpt lat="45.95696" lon="4.75964">
        <ele>185</ele>
        <time>2017-07-10T08:52:23Z</time>
      </trkpt>
      <trkpt lat="45.95699" lon="4.75971">
        <ele>185</ele>
        <time>2017-07-10T08:52:24Z</time>
      </trkpt>
      <trkpt lat="45.95702" lon="4.75978">
        <ele>185</ele>
        <time>2017-07-10T08:52:25Z</time>
      </trkpt>
      <trkpt lat="45.95705" lon="4.75984">
        <ele>185</ele>
        <time>2017-07-10T08:52:26Z</time>
      </trkpt>
      <trkpt lat="45.95708" lon="4.7599">
        <ele>185</ele>
        <time>2017-07-10T08:52:27Z</time>
      </trkpt>
      <trkpt lat="45.95711" lon="4.75996">
        <ele>185</ele>
        <time>2017-07-10T08:52:28Z</time>
      </trkpt>
      <trkpt lat="45.95714" lon="4.76002">
        <ele>184</ele>
        <time>2017-07-10T08:52:29Z</time>
      </trkpt>
      <trkpt lat="45.95717" lon="4.76009">
        <ele>184</ele>
        <time>2017-07-10T08:52:30Z</time>
      </trkpt>
      <trkpt lat="45.9572" lon="4.76015">
        <ele>184</ele>
        <time>2017-07-10T08:52:31Z</time>
      </trkpt>
      <trkpt lat="45.95723" lon="4.76022">
        <ele>184</ele>
        <time>2017-07-10T08:52:32Z</time>
      </trkpt>
      <trkpt lat="45.95726" lon="4.76028">
        <ele>184</ele>
        <time>2017-07-10T08:52:33Z</time>
      </trkpt>
      <trkpt lat="45.95729" lon="4.76035">
        <ele>184</ele>
        <time>2017-07-10T08:52:34Z</time>
      </trkpt>
      <trkpt lat="45.95732" lon="4.76042">
        <ele>184</ele>
        <time>2017-07-10T08:52:35Z</time>
      </trkpt>
      <trkpt lat="45.95735" lon="4.76048">
        <ele>184</ele>
        <time>2017-07-10T08:52:36Z</time>
      </trkpt>
      <trkpt lat="45.95738" lon="4.76055">
        <ele>184</ele>
        <time>2017-07-10T08:52:37Z</time>
      </trkpt>
      <trkpt lat="45.95741" lon="4.76061">
        <ele>184</ele>
        <time>2017-07-10T08:52:38Z</time>
      </trkpt>
      <trkpt lat="45.95743" lon="4.76067">
        <ele>185</ele>
        <time>2017-07-10T08:52:39Z</time>
      </trkpt>
      <trkpt lat="45.95746" lon="4.76074">
        <ele>185</ele>
        <time>2017-07-10T08:52:40Z</time>
      </trkpt>
      <trkpt lat="45.95749" lon="4.7608">
        <ele>185</ele>
        <time>2017-07-10T08:52:41Z</time>
      </trkpt>
      <trkpt lat="45.95751" lon="4.76086">
        <ele>185</ele>
        <time>2017-07-10T08:52:42Z</time>
      </trkpt>
      <trkpt lat="45.95753" lon="4.76093">
        <ele>186</ele>
        <time>2017-07-10T08:52:43Z</time>
      </trkpt>
      <trkpt lat="45.95755" lon="4.761">
        <ele>186</ele>
        <time>2017-07-10T08:52:44Z</time>
      </trkpt>
      <trkpt lat="45.95756" lon="4.76108">
        <ele>186</ele>
        <time>2017-07-10T08:52:45Z</time>
      </trkpt>
      <trkpt lat="45.95758" lon="4.76116">
        <ele>186</ele>
        <time>2017-07-10T08:52:46Z</time>
      </trkpt>
      <trkpt lat="45.95759" lon="4.76124">
        <ele>186</ele>
        <time>2017-07-10T08:52:47Z</time>
      </trkpt>
      <trkpt lat="45.9576" lon="4.76132">
        <ele>186</ele>
        <time>2017-07-10T08:52:48Z</time>
      </trkpt>
      <trkpt lat="45.95761" lon="4.76139">
        <ele>186</ele>
        <time>2017-07-10T08:52:49Z</time>
      </trkpt>
      <trkpt lat="45.95761" lon="4.76147">
        <ele>186</ele>
        <time>2017-07-10T08:52:50Z</time>
      </trkpt>
      <trkpt lat="45.95761" lon="4.76154">
        <ele>186</ele>
        <time>2017-07-10T08:52:51Z</time>
      </trkpt>
      <trkpt lat="45.95762" lon="4.76162">
        <ele>186</ele>
        <time>2017-07-10T08:52:52Z</time>
      </trkpt>
      <trkpt lat="45.95763" lon="4.76169">
        <ele>185</ele>
        <time>2017-07-10T08:52:53Z</time>
      </trkpt>
      <trkpt lat="45.95763" lon="4.76177">
        <ele>185</ele>
        <time>2017-07-10T08:52:54Z</time>
      </trkpt>
      <trkpt lat="45.95764" lon="4.76185">
        <ele>186</ele>
        <time>2017-07-10T08:52:55Z</time>
      </trkpt>
      <trkpt lat="45.95764" lon="4.76193">
        <ele>186</ele>
        <time>2017-07-10T08:52:56Z</time>
      </trkpt>
      <trkpt lat="45.95765" lon="4.76201">
        <ele>186</ele>
        <time>2017-07-10T08:52:57Z</time>
      </trkpt>
      <trkpt lat="45.95765" lon="4.76209">
        <ele>186</ele>
        <time>2017-07-10T08:52:58Z</time>
      </trkpt>
      <trkpt lat="45.95766" lon="4.76217">
        <ele>186</ele>
        <time>2017-07-10T08:52:59Z</time>
      </trkpt>
      <trkpt lat="45.95767" lon="4.76225">
        <ele>186</ele>
        <time>2017-07-10T08:53:00Z</time>
      </trkpt>
      <trkpt lat="45.95767" lon="4.76233">
        <ele>186</ele>
        <time>2017-07-10T08:53:01Z</time>
      </trkpt>
      <trkpt lat="45.95767" lon="4.76241">
        <ele>186</ele>
        <time>2017-07-10T08:53:02Z</time>
      </trkpt>
      <trkpt lat="45.95768" lon="4.76248">
        <ele>186</ele>
        <time>2017-07-10T08:53:03Z</time>
      </trkpt>
      <trkpt lat="45.95768" lon="4.76256">
        <ele>185</ele>
        <time>2017-07-10T08:53:04Z</time>
      </trkpt>
      <trkpt lat="45.95768" lon="4.76263">
        <ele>185</ele>
        <time>2017-07-10T08:53:05Z</time>
      </trkpt>
      <trkpt lat="45.95769" lon="4.7627">
        <ele>186</ele>
        <time>2017-07-10T08:53:06Z</time>
      </trkpt>
      <trkpt lat="45.95769" lon="4.76277">
        <ele>186</ele>
        <time>2017-07-10T08:53:07Z</time>
      </trkpt>
      <trkpt lat="45.95769" lon="4.76284">
        <ele>186</ele>
        <time>2017-07-10T08:53:08Z</time>
      </trkpt>
      <trkpt lat="45.95769" lon="4.76291">
        <ele>186</ele>
        <time>2017-07-10T08:53:09Z</time>
      </trkpt>
      <trkpt lat="45.9577" lon="4.76299">
        <ele>186</ele>
        <time>2017-07-10T08:53:10Z</time>
      </trkpt>
      <trkpt lat="45.9577" lon="4.76306">
        <ele>186</ele>
        <time>2017-07-10T08:53:11Z</time>
      </trkpt>
      <trkpt lat="45.9577" lon="4.76313">
        <ele>185</ele>
        <time>2017-07-10T08:53:12Z</time>
      </trkpt>
      <trkpt lat="45.9577" lon="4.7632">
        <ele>185</ele>
        <time>2017-07-10T08:53:13Z</time>
      </trkpt>
      <trkpt lat="45.9577" lon="4.76327">
        <ele>185</ele>
        <time>2017-07-10T08:53:14Z</time>
      </trkpt>
      <trkpt lat="45.9577" lon="4.76333">
        <ele>185</ele>
        <time>2017-07-10T08:53:15Z</time>
      </trkpt>
      <trkpt lat="45.9577" lon="4.7634">
        <ele>186</ele>
        <time>2017-07-10T08:53:16Z</time>
      </trkpt>
      <trkpt lat="45.95771" lon="4.76348">
        <ele>186</ele>
        <time>2017-07-10T08:53:17Z</time>
      </trkpt>
      <trkpt lat="45.95771" lon="4.76356">
        <ele>186</ele>
        <time>2017-07-10T08:53:18Z</time>
      </trkpt>
      <trkpt lat="45.95771" lon="4.76363">
        <ele>186</ele>
        <time>2017-07-10T08:53:19Z</time>
      </trkpt>
      <trkpt lat="45.95772" lon="4.76371">
        <ele>186</ele>
        <time>2017-07-10T08:53:20Z</time>
      </trkpt>
      <trkpt lat="45.95772" lon="4.76378">
        <ele>186</ele>
        <time>2017-07-10T08:53:21Z</time>
      </trkpt>
      <trkpt lat="45.95773" lon="4.76384">
        <ele>186</ele>
        <time>2017-07-10T08:53:22Z</time>
      </trkpt>
      <trkpt lat="45.95774" lon="4.76391">
        <ele>186</ele>
        <time>2017-07-10T08:53:23Z</time>
      </trkpt>
      <trkpt lat="45.95774" lon="4.76397">
        <ele>186</ele>
        <time>2017-07-10T08:53:24Z</time>
      </trkpt>
      <trkpt lat="45.95775" lon="4.76404">
        <ele>186</ele>
        <time>2017-07-10T08:53:25Z</time>
      </trkpt>
      <trkpt lat="45.95775" lon="4.76411">
        <ele>186</ele>
        <time>2017-07-10T08:53:26Z</time>
      </trkpt>
      <trkpt lat="45.95776" lon="4.76418">
        <ele>186</ele>
        <time>2017-07-10T08:53:27Z</time>
      </trkpt>
      <trkpt lat="45.95778" lon="4.76425">
        <ele>186</ele>
        <time>2017-07-10T08:53:28Z</time>
      </trkpt>
      <trkpt lat="45.95779" lon="4.76433">
        <ele>186</ele>
        <time>2017-07-10T08:53:29Z</time>
      </trkpt>
      <trkpt lat="45.9578" lon="4.76441">
        <ele>186</ele>
        <time>2017-07-10T08:53:30Z</time>
      </trkpt>
      <trkpt lat="45.95781" lon="4.76448">
        <ele>186</ele>
        <time>2017-07-10T08:53:31Z</time>
      </trkpt>
      <trkpt lat="45.95783" lon="4.76456">
        <ele>186</ele>
        <time>2017-07-10T08:53:32Z</time>
      </trkpt>
      <trkpt lat="45.95783" lon="4.76464">
        <ele>186</ele>
        <time>2017-07-10T08:53:33Z</time>
      </trkpt>
      <trkpt lat="45.95784" lon="4.76471">
        <ele>186</ele>
        <time>2017-07-10T08:53:34Z</time>
      </trkpt>
      <trkpt lat="45.95785" lon="4.76478">
        <ele>186</ele>
        <time>2017-07-10T08:53:35Z</time>
      </trkpt>
      <trkpt lat="45.95786" lon="4.76485">
        <ele>186</ele>
        <time>2017-07-10T08:53:36Z</time>
      </trkpt>
      <trkpt lat="45.95788" lon="4.76492">
        <ele>186</ele>
        <time>2017-07-10T08:53:37Z</time>
      </trkpt>
      <trkpt lat="45.95789" lon="4.76499">
        <ele>186</ele>
        <time>2017-07-10T08:53:38Z</time>
      </trkpt>
      <trkpt lat="45.95791" lon="4.76506">
        <ele>187</ele>
        <time>2017-07-10T08:53:39Z</time>
      </trkpt>
      <trkpt lat="45.95792" lon="4.76513">
        <ele>187</ele>
        <time>2017-07-10T08:53:40Z</time>
      </trkpt>
      <trkpt lat="45.95793" lon="4.76521">
        <ele>187</ele>
        <time>2017-07-10T08:53:41Z</time>
      </trkpt>
      <trkpt lat="45.95794" lon="4.76528">
        <ele>187</ele>
        <time>2017-07-10T08:53:42Z</time>
      </trkpt>
      <trkpt lat="45.95796" lon="4.76536">
        <ele>187</ele>
        <time>2017-07-10T08:53:43Z</time>
      </trkpt>
      <trkpt lat="45.95796" lon="4.76543">
        <ele>187</ele>
        <time>2017-07-10T08:53:44Z</time>
      </trkpt>
      <trkpt lat="45.95798" lon="4.7655">
        <ele>187</ele>
        <time>2017-07-10T08:53:45Z</time>
      </trkpt>
      <trkpt lat="45.95799" lon="4.76557">
        <ele>187</ele>
        <time>2017-07-10T08:53:46Z</time>
      </trkpt>
      <trkpt lat="45.958" lon="4.76564">
        <ele>187</ele>
        <time>2017-07-10T08:53:47Z</time>
      </trkpt>
      <trkpt lat="45.95801" lon="4.7657">
        <ele>187</ele>
        <time>2017-07-10T08:53:48Z</time>
      </trkpt>
      <trkpt lat="45.95802" lon="4.76577">
        <ele>187</ele>
        <time>2017-07-10T08:53:49Z</time>
      </trkpt>
      <trkpt lat="45.95803" lon="4.76584">
        <ele>187</ele>
        <time>2017-07-10T08:53:50Z</time>
      </trkpt>
      <trkpt lat="45.95804" lon="4.76592">
        <ele>188</ele>
        <time>2017-07-10T08:53:51Z</time>
      </trkpt>
      <trkpt lat="45.95805" lon="4.766">
        <ele>188</ele>
        <time>2017-07-10T08:53:52Z</time>
      </trkpt>
      <trkpt lat="45.95806" lon="4.76607">
        <ele>188</ele>
        <time>2017-07-10T08:53:53Z</time>
      </trkpt>
      <trkpt lat="45.95807" lon="4.76614">
        <ele>188</ele>
        <time>2017-07-10T08:53:54Z</time>
      </trkpt>
      <trkpt lat="45.95808" lon="4.7662">
        <ele>188</ele>
        <time>2017-07-10T08:53:55Z</time>
      </trkpt>
      <trkpt lat="45.9581" lon="4.76633">
        <ele>188</ele>
        <time>2017-07-10T08:53:57Z</time>
      </trkpt>
      <trkpt lat="45.95811" lon="4.76639">
        <ele>188</ele>
        <time>2017-07-10T08:53:58Z</time>
      </trkpt>
      <trkpt lat="45.95812" lon="4.76646">
        <ele>188</ele>
        <time>2017-07-10T08:53:59Z</time>
      </trkpt>
      <trkpt lat="45.95814" lon="4.76653">
        <ele>188</ele>
        <time>2017-07-10T08:54:00Z</time>
      </trkpt>
      <trkpt lat="45.95815" lon="4.7666">
        <ele>188</ele>
        <time>2017-07-10T08:54:01Z</time>
      </trkpt>
      <trkpt lat="45.95816" lon="4.76668">
        <ele>188</ele>
        <time>2017-07-10T08:54:02Z</time>
      </trkpt>
      <trkpt lat="45.95817" lon="4.76675">
        <ele>189</ele>
        <time>2017-07-10T08:54:03Z</time>
      </trkpt>
      <trkpt lat="45.95818" lon="4.76683">
        <ele>189</ele>
        <time>2017-07-10T08:54:04Z</time>
      </trkpt>
      <trkpt lat="45.95819" lon="4.7669">
        <ele>189</ele>
        <time>2017-07-10T08:54:05Z</time>
      </trkpt>
      <trkpt lat="45.9582" lon="4.76696">
        <ele>189</ele>
        <time>2017-07-10T08:54:06Z</time>
      </trkpt>
      <trkpt lat="45.95821" lon="4.76703">
        <ele>189</ele>
        <time>2017-07-10T08:54:07Z</time>
      </trkpt>
      <trkpt lat="45.95822" lon="4.76709">
        <ele>189</ele>
        <time>2017-07-10T08:54:08Z</time>
      </trkpt>
      <trkpt lat="45.95823" lon="4.76715">
        <ele>189</ele>
        <time>2017-07-10T08:54:09Z</time>
      </trkpt>
      <trkpt lat="45.95823" lon="4.76722">
        <ele>190</ele>
        <time>2017-07-10T08:54:10Z</time>
      </trkpt>
      <trkpt lat="45.95824" lon="4.76729">
        <ele>190</ele>
        <time>2017-07-10T08:54:11Z</time>
      </trkpt>
      <trkpt lat="45.95825" lon="4.76736">
        <ele>190</ele>
        <time>2017-07-10T08:54:12Z</time>
      </trkpt>
      <trkpt lat="45.95826" lon="4.76743">
        <ele>190</ele>
        <time>2017-07-10T08:54:13Z</time>
      </trkpt>
      <trkpt lat="45.95827" lon="4.7675">
        <ele>191</ele>
        <time>2017-07-10T08:54:14Z</time>
      </trkpt>
      <trkpt lat="45.95827" lon="4.76756">
        <ele>191</ele>
        <time>2017-07-10T08:54:15Z</time>
      </trkpt>
      <trkpt lat="45.95828" lon="4.76763">
        <ele>190</ele>
        <time>2017-07-10T08:54:16Z</time>
      </trkpt>
      <trkpt lat="45.95829" lon="4.76774">
        <ele>190</ele>
        <time>2017-07-10T08:54:18Z</time>
      </trkpt>
      <trkpt lat="45.9583" lon="4.76781">
        <ele>190</ele>
        <time>2017-07-10T08:54:19Z</time>
      </trkpt>
      <trkpt lat="45.95831" lon="4.76787">
        <ele>190</ele>
        <time>2017-07-10T08:54:20Z</time>
      </trkpt>
      <trkpt lat="45.95831" lon="4.76795">
        <ele>190</ele>
        <time>2017-07-10T08:54:21Z</time>
      </trkpt>
      <trkpt lat="45.95831" lon="4.76803">
        <ele>190</ele>
        <time>2017-07-10T08:54:22Z</time>
      </trkpt>
      <trkpt lat="45.95831" lon="4.76811">
        <ele>190</ele>
        <time>2017-07-10T08:54:23Z</time>
      </trkpt>
      <trkpt lat="45.95831" lon="4.76819">
        <ele>190</ele>
        <time>2017-07-10T08:54:24Z</time>
      </trkpt>
      <trkpt lat="45.95829" lon="4.76827">
        <ele>190</ele>
        <time>2017-07-10T08:54:25Z</time>
      </trkpt>
      <trkpt lat="45.95828" lon="4.76835">
        <ele>190</ele>
        <time>2017-07-10T08:54:26Z</time>
      </trkpt>
      <trkpt lat="45.95826" lon="4.76842">
        <ele>190</ele>
        <time>2017-07-10T08:54:27Z</time>
      </trkpt>
      <trkpt lat="45.95825" lon="4.7685">
        <ele>190</ele>
        <time>2017-07-10T08:54:28Z</time>
      </trkpt>
      <trkpt lat="45.95823" lon="4.76857">
        <ele>189</ele>
        <time>2017-07-10T08:54:29Z</time>
      </trkpt>
      <trkpt lat="45.95822" lon="4.76865">
        <ele>189</ele>
        <time>2017-07-10T08:54:30Z</time>
      </trkpt>
      <trkpt lat="45.9582" lon="4.76872">
        <ele>189</ele>
        <time>2017-07-10T08:54:31Z</time>
      </trkpt>
      <trkpt lat="45.95818" lon="4.7688">
        <ele>189</ele>
        <time>2017-07-10T08:54:32Z</time>
      </trkpt>
      <trkpt lat="45.95817" lon="4.76888">
        <ele>189</ele>
        <time>2017-07-10T08:54:33Z</time>
      </trkpt>
      <trkpt lat="45.95815" lon="4.76895">
        <ele>189</ele>
        <time>2017-07-10T08:54:34Z</time>
      </trkpt>
      <trkpt lat="45.95813" lon="4.76902">
        <ele>189</ele>
        <time>2017-07-10T08:54:35Z</time>
      </trkpt>
      <trkpt lat="45.95812" lon="4.76909">
        <ele>189</ele>
        <time>2017-07-10T08:54:36Z</time>
      </trkpt>
      <trkpt lat="45.95811" lon="4.76916">
        <ele>189</ele>
        <time>2017-07-10T08:54:37Z</time>
      </trkpt>
      <trkpt lat="45.95809" lon="4.76923">
        <ele>189</ele>
        <time>2017-07-10T08:54:38Z</time>
      </trkpt>
      <trkpt lat="45.95808" lon="4.76931">
        <ele>189</ele>
        <time>2017-07-10T08:54:39Z</time>
      </trkpt>
      <trkpt lat="45.95806" lon="4.76938">
        <ele>189</ele>
        <time>2017-07-10T08:54:40Z</time>
      </trkpt>
      <trkpt lat="45.95805" lon="4.76945">
        <ele>189</ele>
        <time>2017-07-10T08:54:41Z</time>
      </trkpt>
      <trkpt lat="45.95804" lon="4.76952">
        <ele>189</ele>
        <time>2017-07-10T08:54:42Z</time>
      </trkpt>
      <trkpt lat="45.95803" lon="4.76959">
        <ele>189</ele>
        <time>2017-07-10T08:54:43Z</time>
      </trkpt>
      <trkpt lat="45.95802" lon="4.76966">
        <ele>189</ele>
        <time>2017-07-10T08:54:44Z</time>
      </trkpt>
      <trkpt lat="45.95801" lon="4.76973">
        <ele>189</ele>
        <time>2017-07-10T08:54:45Z</time>
      </trkpt>
      <trkpt lat="45.958" lon="4.76981">
        <ele>189</ele>
        <time>2017-07-10T08:54:46Z</time>
      </trkpt>
      <trkpt lat="45.958" lon="4.76989">
        <ele>189</ele>
        <time>2017-07-10T08:54:47Z</time>
      </trkpt>
      <trkpt lat="45.958" lon="4.76998">
        <ele>189</ele>
        <time>2017-07-10T08:54:48Z</time>
      </trkpt>
      <trkpt lat="45.95801" lon="4.77006">
        <ele>190</ele>
        <time>2017-07-10T08:54:49Z</time>
      </trkpt>
      <trkpt lat="45.95803" lon="4.77013">
        <ele>190</ele>
        <time>2017-07-10T08:54:50Z</time>
      </trkpt>
      <trkpt lat="45.95805" lon="4.77021">
        <ele>190</ele>
        <time>2017-07-10T08:54:51Z</time>
      </trkpt>
      <trkpt lat="45.95808" lon="4.77027">
        <ele>190</ele>
        <time>2017-07-10T08:54:52Z</time>
      </trkpt>
      <trkpt lat="45.9581" lon="4.77033">
        <ele>190</ele>
        <time>2017-07-10T08:54:53Z</time>
      </trkpt>
      <trkpt lat="45.95812" lon="4.77039">
        <ele>190</ele>
        <time>2017-07-10T08:54:54Z</time>
      </trkpt>
      <trkpt lat="45.95815" lon="4.77045">
        <ele>190</ele>
        <time>2017-07-10T08:54:55Z</time>
      </trkpt>
      <trkpt lat="45.95817" lon="4.77051">
        <ele>190</ele>
        <time>2017-07-10T08:54:56Z</time>
      </trkpt>
      <trkpt lat="45.9582" lon="4.77057">
        <ele>190</ele>
        <time>2017-07-10T08:54:57Z</time>
      </trkpt>
      <trkpt lat="45.95823" lon="4.77063">
        <ele>191</ele>
        <time>2017-07-10T08:54:58Z</time>
      </trkpt>
      <trkpt lat="45.95826" lon="4.7707">
        <ele>191</ele>
        <time>2017-07-10T08:54:59Z</time>
      </trkpt>
      <trkpt lat="45.95829" lon="4.77077">
        <ele>191</ele>
        <time>2017-07-10T08:55:00Z</time>
      </trkpt>
      <trkpt lat="45.95832" lon="4.77084">
        <ele>192</ele>
        <time>2017-07-10T08:55:01Z</time>
      </trkpt>
      <trkpt lat="45.95834" lon="4.77091">
        <ele>192</ele>
        <time>2017-07-10T08:55:02Z</time>
      </trkpt>
      <trkpt lat="45.95836" lon="4.77097">
        <ele>193</ele>
        <time>2017-07-10T08:55:03Z</time>
      </trkpt>
      <trkpt lat="45.95838" lon="4.77104">
        <ele>193</ele>
        <time>2017-07-10T08:55:04Z</time>
      </trkpt>
      <trkpt lat="45.9584" lon="4.7711">
        <ele>193</ele>
        <time>2017-07-10T08:55:05Z</time>
      </trkpt>
      <trkpt lat="45.95843" lon="4.77122">
        <ele>193</ele>
        <time>2017-07-10T08:55:07Z</time>
      </trkpt>
      <trkpt lat="45.95845" lon="4.77128">
        <ele>193</ele>
        <time>2017-07-10T08:55:08Z</time>
      </trkpt>
      <trkpt lat="45.95847" lon="4.77134">
        <ele>193</ele>
        <time>2017-07-10T08:55:09Z</time>
      </trkpt>
      <trkpt lat="45.95849" lon="4.7714">
        <ele>193</ele>
        <time>2017-07-10T08:55:10Z</time>
      </trkpt>
      <trkpt lat="45.95851" lon="4.77147">
        <ele>192</ele>
        <time>2017-07-10T08:55:11Z</time>
      </trkpt>
      <trkpt lat="45.95852" lon="4.77153">
        <ele>192</ele>
        <time>2017-07-10T08:55:12Z</time>
      </trkpt>
      <trkpt lat="45.95854" lon="4.77159">
        <ele>192</ele>
        <time>2017-07-10T08:55:13Z</time>
      </trkpt>
      <trkpt lat="45.95856" lon="4.77166">
        <ele>192</ele>
        <time>2017-07-10T08:55:14Z</time>
      </trkpt>
      <trkpt lat="45.95858" lon="4.77172">
        <ele>192</ele>
        <time>2017-07-10T08:55:15Z</time>
      </trkpt>
      <trkpt lat="45.9586" lon="4.77179">
        <ele>192</ele>
        <time>2017-07-10T08:55:16Z</time>
      </trkpt>
      <trkpt lat="45.95862" lon="4.77186">
        <ele>192</ele>
        <time>2017-07-10T08:55:17Z</time>
      </trkpt>
      <trkpt lat="45.95863" lon="4.77193">
        <ele>192</ele>
        <time>2017-07-10T08:55:18Z</time>
      </trkpt>
      <trkpt lat="45.95865" lon="4.772">
        <ele>193</ele>
        <time>2017-07-10T08:55:19Z</time>
      </trkpt>
      <trkpt lat="45.95866" lon="4.77207">
        <ele>193</ele>
        <time>2017-07-10T08:55:20Z</time>
      </trkpt>
      <trkpt lat="45.95868" lon="4.77214">
        <ele>193</ele>
        <time>2017-07-10T08:55:21Z</time>
      </trkpt>
      <trkpt lat="45.95869" lon="4.77221">
        <ele>193</ele>
        <time>2017-07-10T08:55:22Z</time>
      </trkpt>
      <trkpt lat="45.95871" lon="4.77227">
        <ele>193</ele>
        <time>2017-07-10T08:55:23Z</time>
      </trkpt>
      <trkpt lat="45.95872" lon="4.77233">
        <ele>193</ele>
        <time>2017-07-10T08:55:24Z</time>
      </trkpt>
      <trkpt lat="45.95873" lon="4.77239">
        <ele>193</ele>
        <time>2017-07-10T08:55:25Z</time>
      </trkpt>
      <trkpt lat="45.95875" lon="4.77246">
        <ele>193</ele>
        <time>2017-07-10T08:55:26Z</time>
      </trkpt>
      <trkpt lat="45.95877" lon="4.77252">
        <ele>193</ele>
        <time>2017-07-10T08:55:27Z</time>
      </trkpt>
      <trkpt lat="45.95878" lon="4.77258">
        <ele>193</ele>
        <time>2017-07-10T08:55:28Z</time>
      </trkpt>
      <trkpt lat="45.9588" lon="4.77266">
        <ele>193</ele>
        <time>2017-07-10T08:55:29Z</time>
      </trkpt>
      <trkpt lat="45.95881" lon="4.77273">
        <ele>193</ele>
        <time>2017-07-10T08:55:30Z</time>
      </trkpt>
      <trkpt lat="45.95883" lon="4.77279">
        <ele>193</ele>
        <time>2017-07-10T08:55:31Z</time>
      </trkpt>
      <trkpt lat="45.95885" lon="4.77286">
        <ele>193</ele>
        <time>2017-07-10T08:55:32Z</time>
      </trkpt>
      <trkpt lat="45.95886" lon="4.77293">
        <ele>193</ele>
        <time>2017-07-10T08:55:33Z</time>
      </trkpt>
      <trkpt lat="45.95888" lon="4.77299">
        <ele>193</ele>
        <time>2017-07-10T08:55:34Z</time>
      </trkpt>
      <trkpt lat="45.95889" lon="4.77306">
        <ele>193</ele>
        <time>2017-07-10T08:55:35Z</time>
      </trkpt>
      <trkpt lat="45.95891" lon="4.77312">
        <ele>193</ele>
        <time>2017-07-10T08:55:36Z</time>
      </trkpt>
      <trkpt lat="45.95895" lon="4.77324">
        <ele>193</ele>
        <time>2017-07-10T08:55:38Z</time>
      </trkpt>
      <trkpt lat="45.95897" lon="4.77329">
        <ele>194</ele>
        <time>2017-07-10T08:55:39Z</time>
      </trkpt>
      <trkpt lat="45.95898" lon="4.77335">
        <ele>193</ele>
        <time>2017-07-10T08:55:40Z</time>
      </trkpt>
      <trkpt lat="45.959" lon="4.77341">
        <ele>193</ele>
        <time>2017-07-10T08:55:41Z</time>
      </trkpt>
      <trkpt lat="45.95902" lon="4.77347">
        <ele>193</ele>
        <time>2017-07-10T08:55:42Z</time>
      </trkpt>
      <trkpt lat="45.95905" lon="4.77354">
        <ele>193</ele>
        <time>2017-07-10T08:55:43Z</time>
      </trkpt>
      <trkpt lat="45.95907" lon="4.7736">
        <ele>193</ele>
        <time>2017-07-10T08:55:44Z</time>
      </trkpt>
      <trkpt lat="45.95909" lon="4.77367">
        <ele>193</ele>
        <time>2017-07-10T08:55:45Z</time>
      </trkpt>
      <trkpt lat="45.95911" lon="4.77374">
        <ele>193</ele>
        <time>2017-07-10T08:55:46Z</time>
      </trkpt>
      <trkpt lat="45.95913" lon="4.7738">
        <ele>193</ele>
        <time>2017-07-10T08:55:47Z</time>
      </trkpt>
      <trkpt lat="45.95917" lon="4.77392">
        <ele>196</ele>
        <time>2017-07-10T08:55:49Z</time>
      </trkpt>
      <trkpt lat="45.95919" lon="4.77397">
        <ele>196</ele>
        <time>2017-07-10T08:55:50Z</time>
      </trkpt>
      <trkpt lat="45.95921" lon="4.77402">
        <ele>195</ele>
        <time>2017-07-10T08:55:51Z</time>
      </trkpt>
      <trkpt lat="45.95923" lon="4.77408">
        <ele>195</ele>
        <time>2017-07-10T08:55:52Z</time>
      </trkpt>
      <trkpt lat="45.95925" lon="4.77414">
        <ele>195</ele>
        <time>2017-07-10T08:55:53Z</time>
      </trkpt>
      <trkpt lat="45.95927" lon="4.7742">
        <ele>195</ele>
        <time>2017-07-10T08:55:54Z</time>
      </trkpt>
      <trkpt lat="45.95931" lon="4.77431">
        <ele>195</ele>
        <time>2017-07-10T08:55:56Z</time>
      </trkpt>
      <trkpt lat="45.95933" lon="4.77437">
        <ele>195</ele>
        <time>2017-07-10T08:55:57Z</time>
      </trkpt>
      <trkpt lat="45.95935" lon="4.77443">
        <ele>195</ele>
        <time>2017-07-10T08:55:58Z</time>
      </trkpt>
      <trkpt lat="45.95938" lon="4.77449">
        <ele>195</ele>
        <time>2017-07-10T08:55:59Z</time>
      </trkpt>
      <trkpt lat="45.9594" lon="4.77455">
        <ele>196</ele>
        <time>2017-07-10T08:56:00Z</time>
      </trkpt>
      <trkpt lat="45.95942" lon="4.77462">
        <ele>195</ele>
        <time>2017-07-10T08:56:01Z</time>
      </trkpt>
      <trkpt lat="45.95944" lon="4.77468">
        <ele>195</ele>
        <time>2017-07-10T08:56:02Z</time>
      </trkpt>
      <trkpt lat="45.95947" lon="4.77475">
        <ele>195</ele>
        <time>2017-07-10T08:56:03Z</time>
      </trkpt>
      <trkpt lat="45.9595" lon="4.77481">
        <ele>195</ele>
        <time>2017-07-10T08:56:04Z</time>
      </trkpt>
      <trkpt lat="45.95952" lon="4.77487">
        <ele>196</ele>
        <time>2017-07-10T08:56:05Z</time>
      </trkpt>
      <trkpt lat="45.95954" lon="4.77493">
        <ele>196</ele>
        <time>2017-07-10T08:56:06Z</time>
      </trkpt>
      <trkpt lat="45.95956" lon="4.77499">
        <ele>196</ele>
        <time>2017-07-10T08:56:07Z</time>
      </trkpt>
      <trkpt lat="45.95958" lon="4.77505">
        <ele>195</ele>
        <time>2017-07-10T08:56:08Z</time>
      </trkpt>
      <trkpt lat="45.95961" lon="4.7751">
        <ele>195</ele>
        <time>2017-07-10T08:56:09Z</time>
      </trkpt>
      <trkpt lat="45.95965" lon="4.7752">
        <ele>195</ele>
        <time>2017-07-10T08:56:11Z</time>
      </trkpt>
      <trkpt lat="45.95968" lon="4.77525">
        <ele>195</ele>
        <time>2017-07-10T08:56:12Z</time>
      </trkpt>
      <trkpt lat="45.95973" lon="4.77534">
        <ele>196</ele>
        <time>2017-07-10T08:56:14Z</time>
      </trkpt>
      <trkpt lat="45.95974" lon="4.77539">
        <ele>195</ele>
        <time>2017-07-10T08:56:15Z</time>
      </trkpt>
      <trkpt lat="45.95978" lon="4.77547">
        <ele>196</ele>
        <time>2017-07-10T08:56:17Z</time>
      </trkpt>
      <trkpt lat="45.9598" lon="4.77551">
        <ele>196</ele>
        <time>2017-07-10T08:56:18Z</time>
      </trkpt>
      <trkpt lat="45.95983" lon="4.7756">
        <ele>196</ele>
        <time>2017-07-10T08:56:20Z</time>
      </trkpt>
      <trkpt lat="45.95985" lon="4.77566">
        <ele>196</ele>
        <time>2017-07-10T08:56:21Z</time>
      </trkpt>
      <trkpt lat="45.95987" lon="4.77572">
        <ele>196</ele>
        <time>2017-07-10T08:56:22Z</time>
      </trkpt>
      <trkpt lat="45.95989" lon="4.77577">
        <ele>196</ele>
        <time>2017-07-10T08:56:23Z</time>
      </trkpt>
      <trkpt lat="45.95992" lon="4.77583">
        <ele>196</ele>
        <time>2017-07-10T08:56:24Z</time>
      </trkpt>
      <trkpt lat="45.95995" lon="4.77589">
        <ele>196</ele>
        <time>2017-07-10T08:56:25Z</time>
      </trkpt>
      <trkpt lat="45.95997" lon="4.77594">
        <ele>196</ele>
        <time>2017-07-10T08:56:26Z</time>
      </trkpt>
      <trkpt lat="45.96001" lon="4.77598">
        <ele>198</ele>
        <time>2017-07-10T08:56:27Z</time>
      </trkpt>
      <trkpt lat="45.96005" lon="4.77603">
        <ele>198</ele>
        <time>2017-07-10T08:56:28Z</time>
      </trkpt>
      <trkpt lat="45.96008" lon="4.77607">
        <ele>199</ele>
        <time>2017-07-10T08:56:29Z</time>
      </trkpt>
      <trkpt lat="45.96012" lon="4.77611">
        <ele>199</ele>
        <time>2017-07-10T08:56:30Z</time>
      </trkpt>
      <trkpt lat="45.96015" lon="4.77615">
        <ele>199</ele>
        <time>2017-07-10T08:56:31Z</time>
      </trkpt>
      <trkpt lat="45.96019" lon="4.7762">
        <ele>199</ele>
        <time>2017-07-10T08:56:32Z</time>
      </trkpt>
      <trkpt lat="45.96023" lon="4.77624">
        <ele>199</ele>
        <time>2017-07-10T08:56:33Z</time>
      </trkpt>
      <trkpt lat="45.96027" lon="4.77628">
        <ele>199</ele>
        <time>2017-07-10T08:56:34Z</time>
      </trkpt>
      <trkpt lat="45.96031" lon="4.77632">
        <ele>199</ele>
        <time>2017-07-10T08:56:35Z</time>
      </trkpt>
      <trkpt lat="45.96038" lon="4.77639">
        <ele>199</ele>
        <time>2017-07-10T08:56:37Z</time>
      </trkpt>
      <trkpt lat="45.96041" lon="4.77643">
        <ele>199</ele>
        <time>2017-07-10T08:56:38Z</time>
      </trkpt>
      <trkpt lat="45.96046" lon="4.77651">
        <ele>199</ele>
        <time>2017-07-10T08:56:40Z</time>
      </trkpt>
      <trkpt lat="45.9605" lon="4.77655">
        <ele>200</ele>
        <time>2017-07-10T08:56:41Z</time>
      </trkpt>
      <trkpt lat="45.96053" lon="4.77659">
        <ele>200</ele>
        <time>2017-07-10T08:56:42Z</time>
      </trkpt>
      <trkpt lat="45.96056" lon="4.77665">
        <ele>200</ele>
        <time>2017-07-10T08:56:43Z</time>
      </trkpt>
      <trkpt lat="45.9606" lon="4.77669">
        <ele>198</ele>
        <time>2017-07-10T08:56:44Z</time>
      </trkpt>
      <trkpt lat="45.96063" lon="4.77674">
        <ele>198</ele>
        <time>2017-07-10T08:56:45Z</time>
      </trkpt>
      <trkpt lat="45.96066" lon="4.77678">
        <ele>198</ele>
        <time>2017-07-10T08:56:46Z</time>
      </trkpt>
      <trkpt lat="45.96069" lon="4.77683">
        <ele>198</ele>
        <time>2017-07-10T08:56:47Z</time>
      </trkpt>
      <trkpt lat="45.96072" lon="4.77688">
        <ele>198</ele>
        <time>2017-07-10T08:56:48Z</time>
      </trkpt>
      <trkpt lat="45.96076" lon="4.77693">
        <ele>197</ele>
        <time>2017-07-10T08:56:49Z</time>
      </trkpt>
      <trkpt lat="45.96079" lon="4.77698">
        <ele>197</ele>
        <time>2017-07-10T08:56:50Z</time>
      </trkpt>
      <trkpt lat="45.96082" lon="4.77703">
        <ele>197</ele>
        <time>2017-07-10T08:56:51Z</time>
      </trkpt>
      <trkpt lat="45.96085" lon="4.77709">
        <ele>200</ele>
        <time>2017-07-10T08:56:52Z</time>
      </trkpt>
      <trkpt lat="45.96089" lon="4.77714">
        <ele>199</ele>
        <time>2017-07-10T08:56:53Z</time>
      </trkpt>
      <trkpt lat="45.96092" lon="4.77719">
        <ele>199</ele>
        <time>2017-07-10T08:56:54Z</time>
      </trkpt>
      <trkpt lat="45.96095" lon="4.77724">
        <ele>199</ele>
        <time>2017-07-10T08:56:55Z</time>
      </trkpt>
      <trkpt lat="45.96098" lon="4.7773">
        <ele>199</ele>
        <time>2017-07-10T08:56:56Z</time>
      </trkpt>
      <trkpt lat="45.96101" lon="4.77735">
        <ele>199</ele>
        <time>2017-07-10T08:56:57Z</time>
      </trkpt>
      <trkpt lat="45.96105" lon="4.7774">
        <ele>199</ele>
        <time>2017-07-10T08:56:58Z</time>
      </trkpt>
      <trkpt lat="45.96108" lon="4.77745">
        <ele>199</ele>
        <time>2017-07-10T08:56:59Z</time>
      </trkpt>
      <trkpt lat="45.96111" lon="4.7775">
        <ele>199</ele>
        <time>2017-07-10T08:57:00Z</time>
      </trkpt>
      <trkpt lat="45.96114" lon="4.77755">
        <ele>197</ele>
        <time>2017-07-10T08:57:01Z</time>
      </trkpt>
      <trkpt lat="45.96117" lon="4.7776">
        <ele>197</ele>
        <time>2017-07-10T08:57:02Z</time>
      </trkpt>
      <trkpt lat="45.9612" lon="4.77765">
        <ele>197</ele>
        <time>2017-07-10T08:57:03Z</time>
      </trkpt>
      <trkpt lat="45.96124" lon="4.7777">
        <ele>197</ele>
        <time>2017-07-10T08:57:04Z</time>
      </trkpt>
      <trkpt lat="45.96127" lon="4.77775">
        <ele>198</ele>
        <time>2017-07-10T08:57:05Z</time>
      </trkpt>
      <trkpt lat="45.9613" lon="4.7778">
        <ele>198</ele>
        <time>2017-07-10T08:57:06Z</time>
      </trkpt>
      <trkpt lat="45.96133" lon="4.77785">
        <ele>198</ele>
        <time>2017-07-10T08:57:07Z</time>
      </trkpt>
      <trkpt lat="45.96137" lon="4.77791">
        <ele>198</ele>
        <time>2017-07-10T08:57:08Z</time>
      </trkpt>
      <trkpt lat="45.9614" lon="4.77796">
        <ele>198</ele>
        <time>2017-07-10T08:57:09Z</time>
      </trkpt>
      <trkpt lat="45.96144" lon="4.77802">
        <ele>198</ele>
        <time>2017-07-10T08:57:10Z</time>
      </trkpt>
      <trkpt lat="45.96148" lon="4.77807">
        <ele>198</ele>
        <time>2017-07-10T08:57:11Z</time>
      </trkpt>
      <trkpt lat="45.96151" lon="4.77814">
        <ele>198</ele>
        <time>2017-07-10T08:57:12Z</time>
      </trkpt>
      <trkpt lat="45.96155" lon="4.77821">
        <ele>198</ele>
        <time>2017-07-10T08:57:13Z</time>
      </trkpt>
      <trkpt lat="45.96158" lon="4.77829">
        <ele>198</ele>
        <time>2017-07-10T08:57:14Z</time>
      </trkpt>
      <trkpt lat="45.96162" lon="4.77835">
        <ele>198</ele>
        <time>2017-07-10T08:57:15Z</time>
      </trkpt>
      <trkpt lat="45.96165" lon="4.77841">
        <ele>198</ele>
        <time>2017-07-10T08:57:16Z</time>
      </trkpt>
      <trkpt lat="45.96168" lon="4.77847">
        <ele>200</ele>
        <time>2017-07-10T08:57:17Z</time>
      </trkpt>
      <trkpt lat="45.96171" lon="4.77852">
        <ele>201</ele>
        <time>2017-07-10T08:57:18Z</time>
      </trkpt>
      <trkpt lat="45.96174" lon="4.77858">
        <ele>201</ele>
        <time>2017-07-10T08:57:19Z</time>
      </trkpt>
      <trkpt lat="45.96178" lon="4.77863">
        <ele>201</ele>
        <time>2017-07-10T08:57:20Z</time>
      </trkpt>
      <trkpt lat="45.96182" lon="4.77868">
        <ele>201</ele>
        <time>2017-07-10T08:57:21Z</time>
      </trkpt>
      <trkpt lat="45.96185" lon="4.77874">
        <ele>201</ele>
        <time>2017-07-10T08:57:22Z</time>
      </trkpt>
      <trkpt lat="45.96187" lon="4.7788">
        <ele>201</ele>
        <time>2017-07-10T08:57:23Z</time>
      </trkpt>
      <trkpt lat="45.96193" lon="4.7789">
        <ele>201</ele>
        <time>2017-07-10T08:57:25Z</time>
      </trkpt>
      <trkpt lat="45.96196" lon="4.77894">
        <ele>201</ele>
        <time>2017-07-10T08:57:26Z</time>
      </trkpt>
      <trkpt lat="45.96199" lon="4.77899">
        <ele>201</ele>
        <time>2017-07-10T08:57:27Z</time>
      </trkpt>
      <trkpt lat="45.96202" lon="4.77904">
        <ele>202</ele>
        <time>2017-07-10T08:57:28Z</time>
      </trkpt>
      <trkpt lat="45.96205" lon="4.77908">
        <ele>202</ele>
        <time>2017-07-10T08:57:29Z</time>
      </trkpt>
      <trkpt lat="45.96208" lon="4.77913">
        <ele>202</ele>
        <time>2017-07-10T08:57:30Z</time>
      </trkpt>
      <trkpt lat="45.96211" lon="4.77918">
        <ele>199</ele>
        <time>2017-07-10T08:57:31Z</time>
      </trkpt>
      <trkpt lat="45.96214" lon="4.77923">
        <ele>200</ele>
        <time>2017-07-10T08:57:32Z</time>
      </trkpt>
      <trkpt lat="45.96217" lon="4.77928">
        <ele>200</ele>
        <time>2017-07-10T08:57:33Z</time>
      </trkpt>
      <trkpt lat="45.96221" lon="4.77933">
        <ele>200</ele>
        <time>2017-07-10T08:57:34Z</time>
      </trkpt>
      <trkpt lat="45.96224" lon="4.77938">
        <ele>200</ele>
        <time>2017-07-10T08:57:35Z</time>
      </trkpt>
      <trkpt lat="45.96227" lon="4.77943">
        <ele>200</ele>
        <time>2017-07-10T08:57:36Z</time>
      </trkpt>
      <trkpt lat="45.96231" lon="4.77947">
        <ele>200</ele>
        <time>2017-07-10T08:57:37Z</time>
      </trkpt>
      <trkpt lat="45.96235" lon="4.77952">
        <ele>200</ele>
        <time>2017-07-10T08:57:38Z</time>
      </trkpt>
      <trkpt lat="45.96242" lon="4.77959">
        <ele>199</ele>
        <time>2017-07-10T08:57:40Z</time>
      </trkpt>
      <trkpt lat="45.96245" lon="4.77964">
        <ele>199</ele>
        <time>2017-07-10T08:57:41Z</time>
      </trkpt>
      <trkpt lat="45.9625" lon="4.77968">
        <ele>199</ele>
        <time>2017-07-10T08:57:42Z</time>
      </trkpt>
      <trkpt lat="45.96254" lon="4.77971">
        <ele>203</ele>
        <time>2017-07-10T08:57:43Z</time>
      </trkpt>
      <trkpt lat="45.96258" lon="4.77975">
        <ele>203</ele>
        <time>2017-07-10T08:57:44Z</time>
      </trkpt>
      <trkpt lat="45.96263" lon="4.77981">
        <ele>202</ele>
        <time>2017-07-10T08:57:45Z</time>
      </trkpt>
      <trkpt lat="45.96267" lon="4.77987">
        <ele>202</ele>
        <time>2017-07-10T08:57:46Z</time>
      </trkpt>
      <trkpt lat="45.96272" lon="4.77992">
        <ele>202</ele>
        <time>2017-07-10T08:57:47Z</time>
      </trkpt>
      <trkpt lat="45.96277" lon="4.77995">
        <ele>203</ele>
        <time>2017-07-10T08:57:48Z</time>
      </trkpt>
      <trkpt lat="45.96281" lon="4.77999">
        <ele>203</ele>
        <time>2017-07-10T08:57:49Z</time>
      </trkpt>
      <trkpt lat="45.96284" lon="4.78003">
        <ele>199</ele>
        <time>2017-07-10T08:57:50Z</time>
      </trkpt>
      <trkpt lat="45.96288" lon="4.78006">
        <ele>199</ele>
        <time>2017-07-10T08:57:51Z</time>
      </trkpt>
      <trkpt lat="45.96293" lon="4.78011">
        <ele>199</ele>
        <time>2017-07-10T08:57:52Z</time>
      </trkpt>
      <trkpt lat="45.96297" lon="4.78015">
        <ele>199</ele>
        <time>2017-07-10T08:57:53Z</time>
      </trkpt>
      <trkpt lat="45.96301" lon="4.78018">
        <ele>199</ele>
        <time>2017-07-10T08:57:54Z</time>
      </trkpt>
      <trkpt lat="45.96305" lon="4.78022">
        <ele>200</ele>
        <time>2017-07-10T08:57:55Z</time>
      </trkpt>
      <trkpt lat="45.96311" lon="4.7803">
        <ele>200</ele>
        <time>2017-07-10T08:57:57Z</time>
      </trkpt>
      <trkpt lat="45.96315" lon="4.78034">
        <ele>199</ele>
        <time>2017-07-10T08:57:58Z</time>
      </trkpt>
      <trkpt lat="45.96319" lon="4.78038">
        <ele>199</ele>
        <time>2017-07-10T08:57:59Z</time>
      </trkpt>
      <trkpt lat="45.96323" lon="4.78043">
        <ele>199</ele>
        <time>2017-07-10T08:58:00Z</time>
      </trkpt>
      <trkpt lat="45.96327" lon="4.78047">
        <ele>199</ele>
        <time>2017-07-10T08:58:01Z</time>
      </trkpt>
      <trkpt lat="45.96331" lon="4.78052">
        <ele>199</ele>
        <time>2017-07-10T08:58:02Z</time>
      </trkpt>
      <trkpt lat="45.96335" lon="4.78058">
        <ele>202</ele>
        <time>2017-07-10T08:58:03Z</time>
      </trkpt>
      <trkpt lat="45.96339" lon="4.78063">
        <ele>201</ele>
        <time>2017-07-10T08:58:04Z</time>
      </trkpt>
      <trkpt lat="45.96343" lon="4.78068">
        <ele>201</ele>
        <time>2017-07-10T08:58:05Z</time>
      </trkpt>
      <trkpt lat="45.96347" lon="4.78073">
        <ele>201</ele>
        <time>2017-07-10T08:58:06Z</time>
      </trkpt>
      <trkpt lat="45.96351" lon="4.78078">
        <ele>201</ele>
        <time>2017-07-10T08:58:07Z</time>
      </trkpt>
      <trkpt lat="45.96355" lon="4.78082">
        <ele>201</ele>
        <time>2017-07-10T08:58:08Z</time>
      </trkpt>
      <trkpt lat="45.96361" lon="4.7809">
        <ele>199</ele>
        <time>2017-07-10T08:58:10Z</time>
      </trkpt>
      <trkpt lat="45.96365" lon="4.78093">
        <ele>199</ele>
        <time>2017-07-10T08:58:11Z</time>
      </trkpt>
      <trkpt lat="45.96372" lon="4.781">
        <ele>199</ele>
        <time>2017-07-10T08:58:13Z</time>
      </trkpt>
      <trkpt lat="45.96376" lon="4.78103">
        <ele>200</ele>
        <time>2017-07-10T08:58:14Z</time>
      </trkpt>
      <trkpt lat="45.9638" lon="4.78107">
        <ele>200</ele>
        <time>2017-07-10T08:58:15Z</time>
      </trkpt>
      <trkpt lat="45.96384" lon="4.78111">
        <ele>200</ele>
        <time>2017-07-10T08:58:16Z</time>
      </trkpt>
      <trkpt lat="45.96389" lon="4.78115">
        <ele>200</ele>
        <time>2017-07-10T08:58:17Z</time>
      </trkpt>
      <trkpt lat="45.96394" lon="4.78119">
        <ele>200</ele>
        <time>2017-07-10T08:58:18Z</time>
      </trkpt>
      <trkpt lat="45.96398" lon="4.78122">
        <ele>200</ele>
        <time>2017-07-10T08:58:19Z</time>
      </trkpt>
      <trkpt lat="45.96402" lon="4.78126">
        <ele>200</ele>
        <time>2017-07-10T08:58:20Z</time>
      </trkpt>
      <trkpt lat="45.96406" lon="4.78129">
        <ele>199</ele>
        <time>2017-07-10T08:58:21Z</time>
      </trkpt>
      <trkpt lat="45.9641" lon="4.78133">
        <ele>199</ele>
        <time>2017-07-10T08:58:22Z</time>
      </trkpt>
      <trkpt lat="45.96414" lon="4.78137">
        <ele>199</ele>
        <time>2017-07-10T08:58:23Z</time>
      </trkpt>
      <trkpt lat="45.96418" lon="4.78141">
        <ele>203</ele>
        <time>2017-07-10T08:58:24Z</time>
      </trkpt>
      <trkpt lat="45.96422" lon="4.78146">
        <ele>202</ele>
        <time>2017-07-10T08:58:25Z</time>
      </trkpt>
      <trkpt lat="45.96427" lon="4.7815">
        <ele>202</ele>
        <time>2017-07-10T08:58:26Z</time>
      </trkpt>
      <trkpt lat="45.96432" lon="4.78155">
        <ele>202</ele>
        <time>2017-07-10T08:58:27Z</time>
      </trkpt>
      <trkpt lat="45.96436" lon="4.78159">
        <ele>202</ele>
        <time>2017-07-10T08:58:28Z</time>
      </trkpt>
      <trkpt lat="45.96441" lon="4.78164">
        <ele>203</ele>
        <time>2017-07-10T08:58:29Z</time>
      </trkpt>
      <trkpt lat="45.96445" lon="4.78168">
        <ele>199</ele>
        <time>2017-07-10T08:58:30Z</time>
      </trkpt>
      <trkpt lat="45.96449" lon="4.78172">
        <ele>199</ele>
        <time>2017-07-10T08:58:31Z</time>
      </trkpt>
      <trkpt lat="45.96453" lon="4.78177">
        <ele>200</ele>
        <time>2017-07-10T08:58:32Z</time>
      </trkpt>
      <trkpt lat="45.96457" lon="4.78181">
        <ele>200</ele>
        <time>2017-07-10T08:58:33Z</time>
      </trkpt>
      <trkpt lat="45.96462" lon="4.78185">
        <ele>200</ele>
        <time>2017-07-10T08:58:34Z</time>
      </trkpt>
      <trkpt lat="45.96466" lon="4.78189">
        <ele>200</ele>
        <time>2017-07-10T08:58:35Z</time>
      </trkpt>
      <trkpt lat="45.96471" lon="4.78192">
        <ele>200</ele>
        <time>2017-07-10T08:58:36Z</time>
      </trkpt>
      <trkpt lat="45.96477" lon="4.78195">
        <ele>200</ele>
        <time>2017-07-10T08:58:37Z</time>
      </trkpt>
      <trkpt lat="45.96482" lon="4.78198">
        <ele>200</ele>
        <time>2017-07-10T08:58:38Z</time>
      </trkpt>
      <trkpt lat="45.96487" lon="4.78201">
        <ele>200</ele>
        <time>2017-07-10T08:58:39Z</time>
      </trkpt>
      <trkpt lat="45.96493" lon="4.78204">
        <ele>200</ele>
        <time>2017-07-10T08:58:40Z</time>
      </trkpt>
      <trkpt lat="45.96498" lon="4.78208">
        <ele>200</ele>
        <time>2017-07-10T08:58:41Z</time>
      </trkpt>
      <trkpt lat="45.96501" lon="4.78213">
        <ele>205</ele>
        <time>2017-07-10T08:58:42Z</time>
      </trkpt>
      <trkpt lat="45.96505" lon="4.78218">
        <ele>204</ele>
        <time>2017-07-10T08:58:43Z</time>
      </trkpt>
      <trkpt lat="45.96509" lon="4.78223">
        <ele>204</ele>
        <time>2017-07-10T08:58:44Z</time>
      </trkpt>
      <trkpt lat="45.96512" lon="4.78228">
        <ele>204</ele>
        <time>2017-07-10T08:58:45Z</time>
      </trkpt>
      <trkpt lat="45.96515" lon="4.78233">
        <ele>203</ele>
        <time>2017-07-10T08:58:46Z</time>
      </trkpt>
      <trkpt lat="45.9652" lon="4.78243">
        <ele>203</ele>
        <time>2017-07-10T08:58:48Z</time>
      </trkpt>
      <trkpt lat="45.96523" lon="4.78248">
        <ele>203</ele>
        <time>2017-07-10T08:58:49Z</time>
      </trkpt>
      <trkpt lat="45.96528" lon="4.78258">
        <ele>200</ele>
        <time>2017-07-10T08:58:51Z</time>
      </trkpt>
      <trkpt lat="45.96531" lon="4.78263">
        <ele>200</ele>
        <time>2017-07-10T08:58:52Z</time>
      </trkpt>
      <trkpt lat="45.96535" lon="4.78269">
        <ele>200</ele>
        <time>2017-07-10T08:58:53Z</time>
      </trkpt>
      <trkpt lat="45.96538" lon="4.78274">
        <ele>200</ele>
        <time>2017-07-10T08:58:54Z</time>
      </trkpt>
      <trkpt lat="45.96541" lon="4.78279">
        <ele>200</ele>
        <time>2017-07-10T08:58:55Z</time>
      </trkpt>
      <trkpt lat="45.96544" lon="4.78284">
        <ele>200</ele>
        <time>2017-07-10T08:58:56Z</time>
      </trkpt>
      <trkpt lat="45.96548" lon="4.78289">
        <ele>200</ele>
        <time>2017-07-10T08:58:57Z</time>
      </trkpt>
      <trkpt lat="45.96552" lon="4.78293">
        <ele>200</ele>
        <time>2017-07-10T08:58:58Z</time>
      </trkpt>
      <trkpt lat="45.96556" lon="4.78297">
        <ele>200</ele>
        <time>2017-07-10T08:58:59Z</time>
      </trkpt>
      <trkpt lat="45.96561" lon="4.78301">
        <ele>200</ele>
        <time>2017-07-10T08:59:00Z</time>
      </trkpt>
      <trkpt lat="45.96565" lon="4.78305">
        <ele>200</ele>
        <time>2017-07-10T08:59:01Z</time>
      </trkpt>
      <trkpt lat="45.96569" lon="4.7831">
        <ele>199</ele>
        <time>2017-07-10T08:59:02Z</time>
      </trkpt>
      <trkpt lat="45.96573" lon="4.78314">
        <ele>199</ele>
        <time>2017-07-10T08:59:03Z</time>
      </trkpt>
      <trkpt lat="45.96576" lon="4.78318">
        <ele>199</ele>
        <time>2017-07-10T08:59:04Z</time>
      </trkpt>
      <trkpt lat="45.96583" lon="4.78326">
        <ele>199</ele>
        <time>2017-07-10T08:59:06Z</time>
      </trkpt>
      <trkpt lat="45.96587" lon="4.7833">
        <ele>200</ele>
        <time>2017-07-10T08:59:07Z</time>
      </trkpt>
      <trkpt lat="45.96591" lon="4.78333">
        <ele>200</ele>
        <time>2017-07-10T08:59:08Z</time>
      </trkpt>
      <trkpt lat="45.96595" lon="4.78337">
        <ele>199</ele>
        <time>2017-07-10T08:59:09Z</time>
      </trkpt>
      <trkpt lat="45.96599" lon="4.78341">
        <ele>200</ele>
        <time>2017-07-10T08:59:10Z</time>
      </trkpt>
      <trkpt lat="45.96603" lon="4.78344">
        <ele>200</ele>
        <time>2017-07-10T08:59:11Z</time>
      </trkpt>
      <trkpt lat="45.96608" lon="4.78348">
        <ele>200</ele>
        <time>2017-07-10T08:59:12Z</time>
      </trkpt>
      <trkpt lat="45.96612" lon="4.78352">
        <ele>200</ele>
        <time>2017-07-10T08:59:13Z</time>
      </trkpt>
      <trkpt lat="45.96616" lon="4.78356">
        <ele>201</ele>
        <time>2017-07-10T08:59:14Z</time>
      </trkpt>
      <trkpt lat="45.9662" lon="4.78361">
        <ele>201</ele>
        <time>2017-07-10T08:59:15Z</time>
      </trkpt>
      <trkpt lat="45.96624" lon="4.78365">
        <ele>201</ele>
        <time>2017-07-10T08:59:16Z</time>
      </trkpt>
      <trkpt lat="45.96628" lon="4.78369">
        <ele>201</ele>
        <time>2017-07-10T08:59:17Z</time>
      </trkpt>
      <trkpt lat="45.96632" lon="4.78373">
        <ele>201</ele>
        <time>2017-07-10T08:59:18Z</time>
      </trkpt>
      <trkpt lat="45.96636" lon="4.78377">
        <ele>201</ele>
        <time>2017-07-10T08:59:19Z</time>
      </trkpt>
      <trkpt lat="45.96644" lon="4.78383">
        <ele>201</ele>
        <time>2017-07-10T08:59:21Z</time>
      </trkpt>
      <trkpt lat="45.96648" lon="4.78386">
        <ele>201</ele>
        <time>2017-07-10T08:59:22Z</time>
      </trkpt>
      <trkpt lat="45.96652" lon="4.7839">
        <ele>201</ele>
        <time>2017-07-10T08:59:23Z</time>
      </trkpt>
      <trkpt lat="45.96656" lon="4.78394">
        <ele>201</ele>
        <time>2017-07-10T08:59:24Z</time>
      </trkpt>
      <trkpt lat="45.96661" lon="4.78397">
        <ele>201</ele>
        <time>2017-07-10T08:59:25Z</time>
      </trkpt>
      <trkpt lat="45.96665" lon="4.78402">
        <ele>201</ele>
        <time>2017-07-10T08:59:26Z</time>
      </trkpt>
      <trkpt lat="45.9667" lon="4.78405">
        <ele>203</ele>
        <time>2017-07-10T08:59:27Z</time>
      </trkpt>
      <trkpt lat="45.96674" lon="4.78409">
        <ele>203</ele>
        <time>2017-07-10T08:59:28Z</time>
      </trkpt>
      <trkpt lat="45.96678" lon="4.78413">
        <ele>203</ele>
        <time>2017-07-10T08:59:29Z</time>
      </trkpt>
      <trkpt lat="45.96682" lon="4.78416">
        <ele>203</ele>
        <time>2017-07-10T08:59:30Z</time>
      </trkpt>
      <trkpt lat="45.96688" lon="4.78422">
        <ele>202</ele>
        <time>2017-07-10T08:59:32Z</time>
      </trkpt>
      <trkpt lat="45.96692" lon="4.78425">
        <ele>202</ele>
        <time>2017-07-10T08:59:33Z</time>
      </trkpt>
      <trkpt lat="45.96695" lon="4.78429">
        <ele>202</ele>
        <time>2017-07-10T08:59:34Z</time>
      </trkpt>
      <trkpt lat="45.96699" lon="4.78432">
        <ele>203</ele>
        <time>2017-07-10T08:59:35Z</time>
      </trkpt>
      <trkpt lat="45.96702" lon="4.78437">
        <ele>203</ele>
        <time>2017-07-10T08:59:36Z</time>
      </trkpt>
      <trkpt lat="45.96705" lon="4.78442">
        <ele>203</ele>
        <time>2017-07-10T08:59:37Z</time>
      </trkpt>
      <trkpt lat="45.96709" lon="4.78447">
        <ele>203</ele>
        <time>2017-07-10T08:59:38Z</time>
      </trkpt>
      <trkpt lat="45.96712" lon="4.78452">
        <ele>203</ele>
        <time>2017-07-10T08:59:39Z</time>
      </trkpt>
      <trkpt lat="45.96717" lon="4.78456">
        <ele>203</ele>
        <time>2017-07-10T08:59:40Z</time>
      </trkpt>
      <trkpt lat="45.96721" lon="4.78459">
        <ele>203</ele>
        <time>2017-07-10T08:59:41Z</time>
      </trkpt>
      <trkpt lat="45.96726" lon="4.78463">
        <ele>203</ele>
        <time>2017-07-10T08:59:42Z</time>
      </trkpt>
      <trkpt lat="45.96731" lon="4.78467">
        <ele>203</ele>
        <time>2017-07-10T08:59:43Z</time>
      </trkpt>
      <trkpt lat="45.96735" lon="4.78471">
        <ele>203</ele>
        <time>2017-07-10T08:59:44Z</time>
      </trkpt>
      <trkpt lat="45.9674" lon="4.78476">
        <ele>203</ele>
        <time>2017-07-10T08:59:45Z</time>
      </trkpt>
      <trkpt lat="45.96745" lon="4.7848">
        <ele>203</ele>
        <time>2017-07-10T08:59:46Z</time>
      </trkpt>
      <trkpt lat="45.9675" lon="4.78484">
        <ele>203</ele>
        <time>2017-07-10T08:59:47Z</time>
      </trkpt>
      <trkpt lat="45.96754" lon="4.78489">
        <ele>204</ele>
        <time>2017-07-10T08:59:48Z</time>
      </trkpt>
      <trkpt lat="45.96758" lon="4.78493">
        <ele>204</ele>
        <time>2017-07-10T08:59:49Z</time>
      </trkpt>
      <trkpt lat="45.96762" lon="4.78498">
        <ele>204</ele>
        <time>2017-07-10T08:59:50Z</time>
      </trkpt>
      <trkpt lat="45.96767" lon="4.78502">
        <ele>203</ele>
        <time>2017-07-10T08:59:51Z</time>
      </trkpt>
      <trkpt lat="45.96771" lon="4.78506">
        <ele>203</ele>
        <time>2017-07-10T08:59:52Z</time>
      </trkpt>
      <trkpt lat="45.96774" lon="4.78511">
        <ele>203</ele>
        <time>2017-07-10T08:59:53Z</time>
      </trkpt>
      <trkpt lat="45.96778" lon="4.78516">
        <ele>203</ele>
        <time>2017-07-10T08:59:54Z</time>
      </trkpt>
      <trkpt lat="45.96781" lon="4.78522">
        <ele>203</ele>
        <time>2017-07-10T08:59:55Z</time>
      </trkpt>
      <trkpt lat="45.96785" lon="4.78527">
        <ele>203</ele>
        <time>2017-07-10T08:59:56Z</time>
      </trkpt>
      <trkpt lat="45.96789" lon="4.78532">
        <ele>203</ele>
        <time>2017-07-10T08:59:57Z</time>
      </trkpt>
      <trkpt lat="45.96792" lon="4.78538">
        <ele>203</ele>
        <time>2017-07-10T08:59:58Z</time>
      </trkpt>
      <trkpt lat="45.96796" lon="4.78543">
        <ele>203</ele>
        <time>2017-07-10T08:59:59Z</time>
      </trkpt>
      <trkpt lat="45.96799" lon="4.78549">
        <ele>203</ele>
        <time>2017-07-10T09:00:00Z</time>
      </trkpt>
      <trkpt lat="45.96802" lon="4.78555">
        <ele>203</ele>
        <time>2017-07-10T09:00:01Z</time>
      </trkpt>
      <trkpt lat="45.96806" lon="4.7856">
        <ele>203</ele>
        <time>2017-07-10T09:00:02Z</time>
      </trkpt>
      <trkpt lat="45.9681" lon="4.78564">
        <ele>203</ele>
        <time>2017-07-10T09:00:03Z</time>
      </trkpt>
      <trkpt lat="45.96813" lon="4.78569">
        <ele>203</ele>
        <time>2017-07-10T09:00:04Z</time>
      </trkpt>
      <trkpt lat="45.96816" lon="4.78573">
        <ele>203</ele>
        <time>2017-07-10T09:00:05Z</time>
      </trkpt>
      <trkpt lat="45.96822" lon="4.78581">
        <ele>203</ele>
        <time>2017-07-10T09:00:07Z</time>
      </trkpt>
      <trkpt lat="45.96824" lon="4.78586">
        <ele>202</ele>
        <time>2017-07-10T09:00:08Z</time>
      </trkpt>
      <trkpt lat="45.96828" lon="4.78595">
        <ele>202</ele>
        <time>2017-07-10T09:00:10Z</time>
      </trkpt>
      <trkpt lat="45.9683" lon="4.78601">
        <ele>202</ele>
        <time>2017-07-10T09:00:11Z</time>
      </trkpt>
      <trkpt lat="45.96831" lon="4.78607">
        <ele>202</ele>
        <time>2017-07-10T09:00:12Z</time>
      </trkpt>
      <trkpt lat="45.96834" lon="4.78614">
        <ele>203</ele>
        <time>2017-07-10T09:00:13Z</time>
      </trkpt>
      <trkpt lat="45.96836" lon="4.78619">
        <ele>203</ele>
        <time>2017-07-10T09:00:14Z</time>
      </trkpt>
      <trkpt lat="45.96838" lon="4.78625">
        <ele>203</ele>
        <time>2017-07-10T09:00:15Z</time>
      </trkpt>
      <trkpt lat="45.9684" lon="4.78631">
        <ele>203</ele>
        <time>2017-07-10T09:00:16Z</time>
      </trkpt>
      <trkpt lat="45.96842" lon="4.78637">
        <ele>203</ele>
        <time>2017-07-10T09:00:17Z</time>
      </trkpt>
      <trkpt lat="45.96844" lon="4.78643">
        <ele>203</ele>
        <time>2017-07-10T09:00:18Z</time>
      </trkpt>
      <trkpt lat="45.96846" lon="4.78649">
        <ele>203</ele>
        <time>2017-07-10T09:00:19Z</time>
      </trkpt>
      <trkpt lat="45.96848" lon="4.78655">
        <ele>203</ele>
        <time>2017-07-10T09:00:20Z</time>
      </trkpt>
      <trkpt lat="45.96851" lon="4.78661">
        <ele>203</ele>
        <time>2017-07-10T09:00:21Z</time>
      </trkpt>
      <trkpt lat="45.96853" lon="4.78667">
        <ele>202</ele>
        <time>2017-07-10T09:00:22Z</time>
      </trkpt>
      <trkpt lat="45.96857" lon="4.78672">
        <ele>202</ele>
        <time>2017-07-10T09:00:23Z</time>
      </trkpt>
      <trkpt lat="45.9686" lon="4.78678">
        <ele>202</ele>
        <time>2017-07-10T09:00:24Z</time>
      </trkpt>
      <trkpt lat="45.96864" lon="4.78684">
        <ele>202</ele>
        <time>2017-07-10T09:00:25Z</time>
      </trkpt>
      <trkpt lat="45.96868" lon="4.7869">
        <ele>202</ele>
        <time>2017-07-10T09:00:26Z</time>
      </trkpt>
      <trkpt lat="45.96871" lon="4.78696">
        <ele>202</ele>
        <time>2017-07-10T09:00:27Z</time>
      </trkpt>
      <trkpt lat="45.96873" lon="4.78702">
        <ele>202</ele>
        <time>2017-07-10T09:00:28Z</time>
      </trkpt>
      <trkpt lat="45.96875" lon="4.78708">
        <ele>202</ele>
        <time>2017-07-10T09:00:29Z</time>
      </trkpt>
      <trkpt lat="45.9688" lon="4.78718">
        <ele>202</ele>
        <time>2017-07-10T09:00:31Z</time>
      </trkpt>
      <trkpt lat="45.96882" lon="4.78723">
        <ele>202</ele>
        <time>2017-07-10T09:00:32Z</time>
      </trkpt>
      <trkpt lat="45.96884" lon="4.78728">
        <ele>202</ele>
        <time>2017-07-10T09:00:33Z</time>
      </trkpt>
      <trkpt lat="45.96887" lon="4.78734">
        <ele>202</ele>
        <time>2017-07-10T09:00:34Z</time>
      </trkpt>
      <trkpt lat="45.9689" lon="4.78741">
        <ele>202</ele>
        <time>2017-07-10T09:00:35Z</time>
      </trkpt>
      <trkpt lat="45.96893" lon="4.78747">
        <ele>202</ele>
        <time>2017-07-10T09:00:36Z</time>
      </trkpt>
      <trkpt lat="45.96896" lon="4.78753">
        <ele>201</ele>
        <time>2017-07-10T09:00:37Z</time>
      </trkpt>
      <trkpt lat="45.96898" lon="4.78758">
        <ele>201</ele>
        <time>2017-07-10T09:00:38Z</time>
      </trkpt>
      <trkpt lat="45.96901" lon="4.78764">
        <ele>201</ele>
        <time>2017-07-10T09:00:39Z</time>
      </trkpt>
      <trkpt lat="45.96903" lon="4.78769">
        <ele>201</ele>
        <time>2017-07-10T09:00:40Z</time>
      </trkpt>
      <trkpt lat="45.96908" lon="4.78779">
        <ele>201</ele>
        <time>2017-07-10T09:00:42Z</time>
      </trkpt>
      <trkpt lat="45.9691" lon="4.78783">
        <ele>201</ele>
        <time>2017-07-10T09:00:43Z</time>
      </trkpt>
      <trkpt lat="45.96914" lon="4.78791">
        <ele>201</ele>
        <time>2017-07-10T09:00:45Z</time>
      </trkpt>
      <trkpt lat="45.96916" lon="4.78795">
        <ele>201</ele>
        <time>2017-07-10T09:00:46Z</time>
      </trkpt>
      <trkpt lat="45.9692" lon="4.78803">
        <ele>203</ele>
        <time>2017-07-10T09:00:48Z</time>
      </trkpt>
      <trkpt lat="45.96923" lon="4.78808">
        <ele>203</ele>
        <time>2017-07-10T09:00:49Z</time>
      </trkpt>
      <trkpt lat="45.96928" lon="4.78817">
        <ele>202</ele>
        <time>2017-07-10T09:00:51Z</time>
      </trkpt>
      <trkpt lat="45.96931" lon="4.78822">
        <ele>202</ele>
        <time>2017-07-10T09:00:52Z</time>
      </trkpt>
      <trkpt lat="45.96935" lon="4.78826">
        <ele>202</ele>
        <time>2017-07-10T09:00:53Z</time>
      </trkpt>
      <trkpt lat="45.96939" lon="4.78831">
        <ele>202</ele>
        <time>2017-07-10T09:00:54Z</time>
      </trkpt>
      <trkpt lat="45.96943" lon="4.78835">
        <ele>202</ele>
        <time>2017-07-10T09:00:55Z</time>
      </trkpt>
      <trkpt lat="45.96947" lon="4.78839">
        <ele>202</ele>
        <time>2017-07-10T09:00:56Z</time>
      </trkpt>
      <trkpt lat="45.9695" lon="4.78844">
        <ele>202</ele>
        <time>2017-07-10T09:00:57Z</time>
      </trkpt>
      <trkpt lat="45.96954" lon="4.78848">
        <ele>203</ele>
        <time>2017-07-10T09:00:58Z</time>
      </trkpt>
      <trkpt lat="45.96958" lon="4.78852">
        <ele>203</ele>
        <time>2017-07-10T09:00:59Z</time>
      </trkpt>
      <trkpt lat="45.96962" lon="4.78857">
        <ele>203</ele>
        <time>2017-07-10T09:01:00Z</time>
      </trkpt>
      <trkpt lat="45.96966" lon="4.78862">
        <ele>203</ele>
        <time>2017-07-10T09:01:01Z</time>
      </trkpt>
      <trkpt lat="45.96969" lon="4.78866">
        <ele>203</ele>
        <time>2017-07-10T09:01:02Z</time>
      </trkpt>
      <trkpt lat="45.96973" lon="4.78871">
        <ele>203</ele>
        <time>2017-07-10T09:01:03Z</time>
      </trkpt>
      <trkpt lat="45.96977" lon="4.78875">
        <ele>203</ele>
        <time>2017-07-10T09:01:04Z</time>
      </trkpt>
      <trkpt lat="45.96983" lon="4.78883">
        <ele>203</ele>
        <time>2017-07-10T09:01:06Z</time>
      </trkpt>
      <trkpt lat="45.96987" lon="4.78887">
        <ele>203</ele>
        <time>2017-07-10T09:01:07Z</time>
      </trkpt>
      <trkpt lat="45.96993" lon="4.78895">
        <ele>203</ele>
        <time>2017-07-10T09:01:09Z</time>
      </trkpt>
      <trkpt lat="45.96997" lon="4.78899">
        <ele>204</ele>
        <time>2017-07-10T09:01:10Z</time>
      </trkpt>
      <trkpt lat="45.97" lon="4.78904">
        <ele>206</ele>
        <time>2017-07-10T09:01:11Z</time>
      </trkpt>
      <trkpt lat="45.97004" lon="4.78908">
        <ele>205</ele>
        <time>2017-07-10T09:01:12Z</time>
      </trkpt>
      <trkpt lat="45.9701" lon="4.78917">
        <ele>204</ele>
        <time>2017-07-10T09:01:14Z</time>
      </trkpt>
      <trkpt lat="45.97013" lon="4.78921">
        <ele>205</ele>
        <time>2017-07-10T09:01:15Z</time>
      </trkpt>
      <trkpt lat="45.97019" lon="4.7893">
        <ele>205</ele>
        <time>2017-07-10T09:01:17Z</time>
      </trkpt>
      <trkpt lat="45.97022" lon="4.78935">
        <ele>205</ele>
        <time>2017-07-10T09:01:18Z</time>
      </trkpt>
      <trkpt lat="45.97026" lon="4.78939">
        <ele>205</ele>
        <time>2017-07-10T09:01:19Z</time>
      </trkpt>
      <trkpt lat="45.97029" lon="4.78944">
        <ele>205</ele>
        <time>2017-07-10T09:01:20Z</time>
      </trkpt>
      <trkpt lat="45.97032" lon="4.78949">
        <ele>205</ele>
        <time>2017-07-10T09:01:21Z</time>
      </trkpt>
      <trkpt lat="45.97034" lon="4.78955">
        <ele>205</ele>
        <time>2017-07-10T09:01:22Z</time>
      </trkpt>
      <trkpt lat="45.97038" lon="4.7896">
        <ele>205</ele>
        <time>2017-07-10T09:01:23Z</time>
      </trkpt>
      <trkpt lat="45.9704" lon="4.78965">
        <ele>205</ele>
        <time>2017-07-10T09:01:24Z</time>
      </trkpt>
      <trkpt lat="45.97045" lon="4.78975">
        <ele>205</ele>
        <time>2017-07-10T09:01:26Z</time>
      </trkpt>
      <trkpt lat="45.97046" lon="4.78981">
        <ele>205</ele>
        <time>2017-07-10T09:01:27Z</time>
      </trkpt>
      <trkpt lat="45.9705" lon="4.78991">
        <ele>205</ele>
        <time>2017-07-10T09:01:29Z</time>
      </trkpt>
      <trkpt lat="45.97051" lon="4.78996">
        <ele>205</ele>
        <time>2017-07-10T09:01:30Z</time>
      </trkpt>
      <trkpt lat="45.97055" lon="4.79007">
        <ele>203</ele>
        <time>2017-07-10T09:01:32Z</time>
      </trkpt>
      <trkpt lat="45.97057" lon="4.79013">
        <ele>203</ele>
        <time>2017-07-10T09:01:33Z</time>
      </trkpt>
      <trkpt lat="45.97059" lon="4.7902">
        <ele>203</ele>
        <time>2017-07-10T09:01:34Z</time>
      </trkpt>
      <trkpt lat="45.97061" lon="4.79026">
        <ele>203</ele>
        <time>2017-07-10T09:01:35Z</time>
      </trkpt>
      <trkpt lat="45.97063" lon="4.79033">
        <ele>203</ele>
        <time>2017-07-10T09:01:36Z</time>
      </trkpt>
      <trkpt lat="45.97065" lon="4.7904">
        <ele>203</ele>
        <time>2017-07-10T09:01:37Z</time>
      </trkpt>
      <trkpt lat="45.97066" lon="4.79047">
        <ele>203</ele>
        <time>2017-07-10T09:01:38Z</time>
      </trkpt>
      <trkpt lat="45.97069" lon="4.79054">
        <ele>203</ele>
        <time>2017-07-10T09:01:39Z</time>
      </trkpt>
      <trkpt lat="45.97071" lon="4.7906">
        <ele>203</ele>
        <time>2017-07-10T09:01:40Z</time>
      </trkpt>
      <trkpt lat="45.97072" lon="4.79067">
        <ele>204</ele>
        <time>2017-07-10T09:01:41Z</time>
      </trkpt>
      <trkpt lat="45.97074" lon="4.79074">
        <ele>204</ele>
        <time>2017-07-10T09:01:42Z</time>
      </trkpt>
      <trkpt lat="45.97075" lon="4.79081">
        <ele>204</ele>
        <time>2017-07-10T09:01:43Z</time>
      </trkpt>
      <trkpt lat="45.97076" lon="4.79088">
        <ele>204</ele>
        <time>2017-07-10T09:01:44Z</time>
      </trkpt>
      <trkpt lat="45.97078" lon="4.79095">
        <ele>204</ele>
        <time>2017-07-10T09:01:45Z</time>
      </trkpt>
      <trkpt lat="45.9708" lon="4.79102">
        <ele>204</ele>
        <time>2017-07-10T09:01:46Z</time>
      </trkpt>
      <trkpt lat="45.97082" lon="4.79109">
        <ele>204</ele>
        <time>2017-07-10T09:01:47Z</time>
      </trkpt>
      <trkpt lat="45.97084" lon="4.79116">
        <ele>206</ele>
        <time>2017-07-10T09:01:48Z</time>
      </trkpt>
      <trkpt lat="45.97087" lon="4.79121">
        <ele>206</ele>
        <time>2017-07-10T09:01:49Z</time>
      </trkpt>
      <trkpt lat="45.9709" lon="4.79127">
        <ele>206</ele>
        <time>2017-07-10T09:01:50Z</time>
      </trkpt>
      <trkpt lat="45.97093" lon="4.79132">
        <ele>206</ele>
        <time>2017-07-10T09:01:51Z</time>
      </trkpt>
      <trkpt lat="45.97096" lon="4.79138">
        <ele>206</ele>
        <time>2017-07-10T09:01:52Z</time>
      </trkpt>
      <trkpt lat="45.97099" lon="4.79144">
        <ele>206</ele>
        <time>2017-07-10T09:01:53Z</time>
      </trkpt>
      <trkpt lat="45.97102" lon="4.7915">
        <ele>206</ele>
        <time>2017-07-10T09:01:54Z</time>
      </trkpt>
      <trkpt lat="45.97105" lon="4.79156">
        <ele>206</ele>
        <time>2017-07-10T09:01:55Z</time>
      </trkpt>
      <trkpt lat="45.97108" lon="4.79162">
        <ele>206</ele>
        <time>2017-07-10T09:01:56Z</time>
      </trkpt>
      <trkpt lat="45.97112" lon="4.79168">
        <ele>205</ele>
        <time>2017-07-10T09:01:57Z</time>
      </trkpt>
      <trkpt lat="45.97115" lon="4.79175">
        <ele>206</ele>
        <time>2017-07-10T09:01:58Z</time>
      </trkpt>
      <trkpt lat="45.97118" lon="4.79182">
        <ele>206</ele>
        <time>2017-07-10T09:01:59Z</time>
      </trkpt>
      <trkpt lat="45.97121" lon="4.79188">
        <ele>206</ele>
        <time>2017-07-10T09:02:00Z</time>
      </trkpt>
      <trkpt lat="45.97124" lon="4.79195">
        <ele>206</ele>
        <time>2017-07-10T09:02:01Z</time>
      </trkpt>
      <trkpt lat="45.97126" lon="4.79201">
        <ele>206</ele>
        <time>2017-07-10T09:02:02Z</time>
      </trkpt>
      <trkpt lat="45.97129" lon="4.79207">
        <ele>206</ele>
        <time>2017-07-10T09:02:03Z</time>
      </trkpt>
      <trkpt lat="45.97131" lon="4.79213">
        <ele>206</ele>
        <time>2017-07-10T09:02:04Z</time>
      </trkpt>
      <trkpt lat="45.97134" lon="4.7922">
        <ele>205</ele>
        <time>2017-07-10T09:02:05Z</time>
      </trkpt>
      <trkpt lat="45.97137" lon="4.79226">
        <ele>205</ele>
        <time>2017-07-10T09:02:06Z</time>
      </trkpt>
      <trkpt lat="45.97139" lon="4.79231">
        <ele>205</ele>
        <time>2017-07-10T09:02:07Z</time>
      </trkpt>
      <trkpt lat="45.97141" lon="4.79237">
        <ele>205</ele>
        <time>2017-07-10T09:02:08Z</time>
      </trkpt>
      <trkpt lat="45.97143" lon="4.79243">
        <ele>205</ele>
        <time>2017-07-10T09:02:09Z</time>
      </trkpt>
      <trkpt lat="45.97146" lon="4.79249">
        <ele>205</ele>
        <time>2017-07-10T09:02:10Z</time>
      </trkpt>
      <trkpt lat="45.97148" lon="4.79254">
        <ele>204</ele>
        <time>2017-07-10T09:02:11Z</time>
      </trkpt>
      <trkpt lat="45.97151" lon="4.7926">
        <ele>204</ele>
        <time>2017-07-10T09:02:12Z</time>
      </trkpt>
      <trkpt lat="45.97153" lon="4.79267">
        <ele>204</ele>
        <time>2017-07-10T09:02:13Z</time>
      </trkpt>
      <trkpt lat="45.97156" lon="4.79273">
        <ele>204</ele>
        <time>2017-07-10T09:02:14Z</time>
      </trkpt>
      <trkpt lat="45.97159" lon="4.7928">
        <ele>204</ele>
        <time>2017-07-10T09:02:15Z</time>
      </trkpt>
      <trkpt lat="45.97162" lon="4.79286">
        <ele>204</ele>
        <time>2017-07-10T09:02:16Z</time>
      </trkpt>
      <trkpt lat="45.97164" lon="4.79293">
        <ele>204</ele>
        <time>2017-07-10T09:02:17Z</time>
      </trkpt>
      <trkpt lat="45.97167" lon="4.793">
        <ele>204</ele>
        <time>2017-07-10T09:02:18Z</time>
      </trkpt>
      <trkpt lat="45.97169" lon="4.79306">
        <ele>207</ele>
        <time>2017-07-10T09:02:19Z</time>
      </trkpt>
      <trkpt lat="45.97174" lon="4.79316">
        <ele>207</ele>
        <time>2017-07-10T09:02:21Z</time>
      </trkpt>
      <trkpt lat="45.97176" lon="4.79321">
        <ele>207</ele>
        <time>2017-07-10T09:02:22Z</time>
      </trkpt>
      <trkpt lat="45.97179" lon="4.79326">
        <ele>206</ele>
        <time>2017-07-10T09:02:23Z</time>
      </trkpt>
      <trkpt lat="45.97181" lon="4.79332">
        <ele>207</ele>
        <time>2017-07-10T09:02:24Z</time>
      </trkpt>
      <trkpt lat="45.97183" lon="4.79337">
        <ele>206</ele>
        <time>2017-07-10T09:02:25Z</time>
      </trkpt>
      <trkpt lat="45.97186" lon="4.79343">
        <ele>207</ele>
        <time>2017-07-10T09:02:26Z</time>
      </trkpt>
      <trkpt lat="45.97189" lon="4.79349">
        <ele>207</ele>
        <time>2017-07-10T09:02:27Z</time>
      </trkpt>
      <trkpt lat="45.97192" lon="4.79355">
        <ele>207</ele>
        <time>2017-07-10T09:02:28Z</time>
      </trkpt>
      <trkpt lat="45.97195" lon="4.79361">
        <ele>207</ele>
        <time>2017-07-10T09:02:29Z</time>
      </trkpt>
      <trkpt lat="45.97197" lon="4.79367">
        <ele>207</ele>
        <time>2017-07-10T09:02:30Z</time>
      </trkpt>
      <trkpt lat="45.972" lon="4.79373">
        <ele>207</ele>
        <time>2017-07-10T09:02:31Z</time>
      </trkpt>
      <trkpt lat="45.97202" lon="4.79379">
        <ele>208</ele>
        <time>2017-07-10T09:02:32Z</time>
      </trkpt>
      <trkpt lat="45.97206" lon="4.79389">
        <ele>208</ele>
        <time>2017-07-10T09:02:34Z</time>
      </trkpt>
      <trkpt lat="45.97208" lon="4.79395">
        <ele>208</ele>
        <time>2017-07-10T09:02:35Z</time>
      </trkpt>
      <trkpt lat="45.9721" lon="4.79401">
        <ele>208</ele>
        <time>2017-07-10T09:02:36Z</time>
      </trkpt>
      <trkpt lat="45.97213" lon="4.79407">
        <ele>208</ele>
        <time>2017-07-10T09:02:37Z</time>
      </trkpt>
      <trkpt lat="45.97217" lon="4.79417">
        <ele>208</ele>
        <time>2017-07-10T09:02:39Z</time>
      </trkpt>
      <trkpt lat="45.9722" lon="4.79422">
        <ele>208</ele>
        <time>2017-07-10T09:02:40Z</time>
      </trkpt>
      <trkpt lat="45.97224" lon="4.79431">
        <ele>209</ele>
        <time>2017-07-10T09:02:42Z</time>
      </trkpt>
      <trkpt lat="45.97226" lon="4.79437">
        <ele>209</ele>
        <time>2017-07-10T09:02:43Z</time>
      </trkpt>
      <trkpt lat="45.9723" lon="4.79448">
        <ele>209</ele>
        <time>2017-07-10T09:02:45Z</time>
      </trkpt>
      <trkpt lat="45.97232" lon="4.79454">
        <ele>209</ele>
        <time>2017-07-10T09:02:46Z</time>
      </trkpt>
      <trkpt lat="45.97234" lon="4.79459">
        <ele>209</ele>
        <time>2017-07-10T09:02:47Z</time>
      </trkpt>
      <trkpt lat="45.97236" lon="4.79465">
        <ele>209</ele>
        <time>2017-07-10T09:02:48Z</time>
      </trkpt>
      <trkpt lat="45.97238" lon="4.79471">
        <ele>209</ele>
        <time>2017-07-10T09:02:49Z</time>
      </trkpt>
      <trkpt lat="45.9724" lon="4.79478">
        <ele>209</ele>
        <time>2017-07-10T09:02:50Z</time>
      </trkpt>
      <trkpt lat="45.97243" lon="4.79488">
        <ele>210</ele>
        <time>2017-07-10T09:02:52Z</time>
      </trkpt>
      <trkpt lat="45.97244" lon="4.79493">
        <ele>210</ele>
        <time>2017-07-10T09:02:53Z</time>
      </trkpt>
      <trkpt lat="45.97246" lon="4.79503">
        <ele>211</ele>
        <time>2017-07-10T09:02:55Z</time>
      </trkpt>
      <trkpt lat="45.97247" lon="4.79509">
        <ele>210</ele>
        <time>2017-07-10T09:02:56Z</time>
      </trkpt>
      <trkpt lat="45.97249" lon="4.79522">
        <ele>210</ele>
        <time>2017-07-10T09:02:58Z</time>
      </trkpt>
      <trkpt lat="45.9725" lon="4.79529">
        <ele>210</ele>
        <time>2017-07-10T09:02:59Z</time>
      </trkpt>
      <trkpt lat="45.97252" lon="4.79536">
        <ele>214</ele>
        <time>2017-07-10T09:03:00Z</time>
      </trkpt>
      <trkpt lat="45.97253" lon="4.79543">
        <ele>214</ele>
        <time>2017-07-10T09:03:01Z</time>
      </trkpt>
      <trkpt lat="45.97254" lon="4.79549">
        <ele>214</ele>
        <time>2017-07-10T09:03:02Z</time>
      </trkpt>
      <trkpt lat="45.97255" lon="4.79556">
        <ele>213</ele>
        <time>2017-07-10T09:03:03Z</time>
      </trkpt>
      <trkpt lat="45.97257" lon="4.79567">
        <ele>213</ele>
        <time>2017-07-10T09:03:05Z</time>
      </trkpt>
      <trkpt lat="45.97259" lon="4.79574">
        <ele>212</ele>
        <time>2017-07-10T09:03:06Z</time>
      </trkpt>
      <trkpt lat="45.97259" lon="4.7958">
        <ele>212</ele>
        <time>2017-07-10T09:03:07Z</time>
      </trkpt>
      <trkpt lat="45.9726" lon="4.79586">
        <ele>212</ele>
        <time>2017-07-10T09:03:08Z</time>
      </trkpt>
      <trkpt lat="45.97259" lon="4.79599">
        <ele>212</ele>
        <time>2017-07-10T09:03:10Z</time>
      </trkpt>
      <trkpt lat="45.97258" lon="4.79605">
        <ele>213</ele>
        <time>2017-07-10T09:03:11Z</time>
      </trkpt>
      <trkpt lat="45.97257" lon="4.79618">
        <ele>213</ele>
        <time>2017-07-10T09:03:13Z</time>
      </trkpt>
      <trkpt lat="45.97257" lon="4.79624">
        <ele>213</ele>
        <time>2017-07-10T09:03:14Z</time>
      </trkpt>
      <trkpt lat="45.97258" lon="4.79637">
        <ele>213</ele>
        <time>2017-07-10T09:03:16Z</time>
      </trkpt>
      <trkpt lat="45.97258" lon="4.79643">
        <ele>212</ele>
        <time>2017-07-10T09:03:17Z</time>
      </trkpt>
      <trkpt lat="45.97258" lon="4.79649">
        <ele>212</ele>
        <time>2017-07-10T09:03:18Z</time>
      </trkpt>
      <trkpt lat="45.97256" lon="4.79656">
        <ele>211</ele>
        <time>2017-07-10T09:03:19Z</time>
      </trkpt>
      <trkpt lat="45.97254" lon="4.79663">
        <ele>209</ele>
        <time>2017-07-10T09:03:20Z</time>
      </trkpt>
      <trkpt lat="45.97253" lon="4.79671">
        <ele>209</ele>
        <time>2017-07-10T09:03:21Z</time>
      </trkpt>
      <trkpt lat="45.97251" lon="4.79678">
        <ele>210</ele>
        <time>2017-07-10T09:03:22Z</time>
      </trkpt>
      <trkpt lat="45.9725" lon="4.79686">
        <ele>211</ele>
        <time>2017-07-10T09:03:23Z</time>
      </trkpt>
      <trkpt lat="45.9725" lon="4.79693">
        <ele>208</ele>
        <time>2017-07-10T09:03:24Z</time>
      </trkpt>
      <trkpt lat="45.97249" lon="4.79699">
        <ele>208</ele>
        <time>2017-07-10T09:03:25Z</time>
      </trkpt>
      <trkpt lat="45.97248" lon="4.79706">
        <ele>208</ele>
        <time>2017-07-10T09:03:26Z</time>
      </trkpt>
      <trkpt lat="45.97248" lon="4.79713">
        <ele>209</ele>
        <time>2017-07-10T09:03:27Z</time>
      </trkpt>
      <trkpt lat="45.97246" lon="4.7972">
        <ele>209</ele>
        <time>2017-07-10T09:03:28Z</time>
      </trkpt>
      <trkpt lat="45.97245" lon="4.79728">
        <ele>209</ele>
        <time>2017-07-10T09:03:29Z</time>
      </trkpt>
      <trkpt lat="45.97244" lon="4.79736">
        <ele>209</ele>
        <time>2017-07-10T09:03:30Z</time>
      </trkpt>
      <trkpt lat="45.97243" lon="4.79743">
        <ele>209</ele>
        <time>2017-07-10T09:03:31Z</time>
      </trkpt>
      <trkpt lat="45.97242" lon="4.7975">
        <ele>209</ele>
        <time>2017-07-10T09:03:32Z</time>
      </trkpt>
      <trkpt lat="45.97241" lon="4.79757">
        <ele>209</ele>
        <time>2017-07-10T09:03:33Z</time>
      </trkpt>
      <trkpt lat="45.9724" lon="4.79764">
        <ele>209</ele>
        <time>2017-07-10T09:03:34Z</time>
      </trkpt>
      <trkpt lat="45.97239" lon="4.7977">
        <ele>210</ele>
        <time>2017-07-10T09:03:35Z</time>
      </trkpt>
      <trkpt lat="45.97239" lon="4.79776">
        <ele>210</ele>
        <time>2017-07-10T09:03:36Z</time>
      </trkpt>
      <trkpt lat="45.97238" lon="4.79783">
        <ele>210</ele>
        <time>2017-07-10T09:03:37Z</time>
      </trkpt>
      <trkpt lat="45.97238" lon="4.7979">
        <ele>210</ele>
        <time>2017-07-10T09:03:38Z</time>
      </trkpt>
      <trkpt lat="45.97238" lon="4.79797">
        <ele>210</ele>
        <time>2017-07-10T09:03:39Z</time>
      </trkpt>
      <trkpt lat="45.97238" lon="4.79805">
        <ele>210</ele>
        <time>2017-07-10T09:03:40Z</time>
      </trkpt>
      <trkpt lat="45.97238" lon="4.79811">
        <ele>210</ele>
        <time>2017-07-10T09:03:41Z</time>
      </trkpt>
      <trkpt lat="45.97238" lon="4.79824">
        <ele>211</ele>
        <time>2017-07-10T09:03:43Z</time>
      </trkpt>
      <trkpt lat="45.97238" lon="4.7983">
        <ele>211</ele>
        <time>2017-07-10T09:03:44Z</time>
      </trkpt>
      <trkpt lat="45.97239" lon="4.79837">
        <ele>212</ele>
        <time>2017-07-10T09:03:45Z</time>
      </trkpt>
      <trkpt lat="45.9724" lon="4.79844">
        <ele>211</ele>
        <time>2017-07-10T09:03:46Z</time>
      </trkpt>
      <trkpt lat="45.97241" lon="4.7985">
        <ele>211</ele>
        <time>2017-07-10T09:03:47Z</time>
      </trkpt>
      <trkpt lat="45.97242" lon="4.79857">
        <ele>211</ele>
        <time>2017-07-10T09:03:48Z</time>
      </trkpt>
      <trkpt lat="45.97246" lon="4.79867">
        <ele>211</ele>
        <time>2017-07-10T09:03:50Z</time>
      </trkpt>
      <trkpt lat="45.97247" lon="4.79873">
        <ele>211</ele>
        <time>2017-07-10T09:03:51Z</time>
      </trkpt>
      <trkpt lat="45.97251" lon="4.79882">
        <ele>213</ele>
        <time>2017-07-10T09:03:53Z</time>
      </trkpt>
      <trkpt lat="45.97252" lon="4.79886">
        <ele>213</ele>
        <time>2017-07-10T09:03:54Z</time>
      </trkpt>
      <trkpt lat="45.97254" lon="4.79894">
        <ele>213</ele>
        <time>2017-07-10T09:03:56Z</time>
      </trkpt>
      <trkpt lat="45.97254" lon="4.79898">
        <ele>213</ele>
        <time>2017-07-10T09:03:57Z</time>
      </trkpt>
      <trkpt lat="45.97255" lon="4.79911">
        <ele>212</ele>
        <time>2017-07-10T09:04:02Z</time>
      </trkpt>
      <trkpt lat="45.97256" lon="4.79913">
        <ele>212</ele>
        <time>2017-07-10T09:04:03Z</time>
      </trkpt>
      <trkpt lat="45.97263" lon="4.79919">
        <ele>212</ele>
        <time>2017-07-10T09:04:06Z</time>
      </trkpt>
      <trkpt lat="45.97266" lon="4.79919">
        <ele>212</ele>
        <time>2017-07-10T09:04:07Z</time>
      </trkpt>
      <trkpt lat="45.97274" lon="4.79917">
        <ele>212</ele>
        <time>2017-07-10T09:04:09Z</time>
      </trkpt>
      <trkpt lat="45.97278" lon="4.79917">
        <ele>212</ele>
        <time>2017-07-10T09:04:10Z</time>
      </trkpt>
      <trkpt lat="45.97286" lon="4.79917">
        <ele>213</ele>
        <time>2017-07-10T09:04:12Z</time>
      </trkpt>
      <trkpt lat="45.9729" lon="4.79917">
        <ele>213</ele>
        <time>2017-07-10T09:04:13Z</time>
      </trkpt>
      <trkpt lat="45.97298" lon="4.79915">
        <ele>213</ele>
        <time>2017-07-10T09:04:15Z</time>
      </trkpt>
      <trkpt lat="45.97302" lon="4.79915">
        <ele>213</ele>
        <time>2017-07-10T09:04:16Z</time>
      </trkpt>
      <trkpt lat="45.97311" lon="4.79914">
        <ele>213</ele>
        <time>2017-07-10T09:04:18Z</time>
      </trkpt>
      <trkpt lat="45.97315" lon="4.79914">
        <ele>213</ele>
        <time>2017-07-10T09:04:19Z</time>
      </trkpt>
      <trkpt lat="45.97323" lon="4.79913">
        <ele>213</ele>
        <time>2017-07-10T09:04:21Z</time>
      </trkpt>
      <trkpt lat="45.97327" lon="4.79912">
        <ele>213</ele>
        <time>2017-07-10T09:04:22Z</time>
      </trkpt>
      <trkpt lat="45.97334" lon="4.7991">
        <ele>214</ele>
        <time>2017-07-10T09:04:24Z</time>
      </trkpt>
      <trkpt lat="45.97338" lon="4.7991">
        <ele>214</ele>
        <time>2017-07-10T09:04:25Z</time>
      </trkpt>
      <trkpt lat="45.97346" lon="4.79909">
        <ele>215</ele>
        <time>2017-07-10T09:04:27Z</time>
      </trkpt>
      <trkpt lat="45.97349" lon="4.79907">
        <ele>215</ele>
        <time>2017-07-10T09:04:28Z</time>
      </trkpt>
      <trkpt lat="45.97357" lon="4.79904">
        <ele>216</ele>
        <time>2017-07-10T09:04:30Z</time>
      </trkpt>
      <trkpt lat="45.97362" lon="4.79904">
        <ele>216</ele>
        <time>2017-07-10T09:04:31Z</time>
      </trkpt>
      <trkpt lat="45.97369" lon="4.79904">
        <ele>217</ele>
        <time>2017-07-10T09:04:33Z</time>
      </trkpt>
      <trkpt lat="45.97374" lon="4.79902">
        <ele>217</ele>
        <time>2017-07-10T09:04:34Z</time>
      </trkpt>
      <trkpt lat="45.97381" lon="4.799">
        <ele>217</ele>
        <time>2017-07-10T09:04:36Z</time>
      </trkpt>
      <trkpt lat="45.97384" lon="4.79899">
        <ele>217</ele>
        <time>2017-07-10T09:04:37Z</time>
      </trkpt>
      <trkpt lat="45.9739" lon="4.79899">
        <ele>217</ele>
        <time>2017-07-10T09:04:39Z</time>
      </trkpt>
      <trkpt lat="45.97394" lon="4.79899">
        <ele>217</ele>
        <time>2017-07-10T09:04:40Z</time>
      </trkpt>
      <trkpt lat="45.97401" lon="4.79898">
        <ele>217</ele>
        <time>2017-07-10T09:04:42Z</time>
      </trkpt>
      <trkpt lat="45.97405" lon="4.79898">
        <ele>217</ele>
        <time>2017-07-10T09:04:43Z</time>
      </trkpt>
      <trkpt lat="45.97413" lon="4.79899">
        <ele>217</ele>
        <time>2017-07-10T09:04:45Z</time>
      </trkpt>
      <trkpt lat="45.97417" lon="4.79898">
        <ele>219</ele>
        <time>2017-07-10T09:04:46Z</time>
      </trkpt>
      <trkpt lat="45.97424" lon="4.79898">
        <ele>219</ele>
        <time>2017-07-10T09:04:48Z</time>
      </trkpt>
      <trkpt lat="45.97428" lon="4.79898">
        <ele>219</ele>
        <time>2017-07-10T09:04:49Z</time>
      </trkpt>
      <trkpt lat="45.97435" lon="4.79898">
        <ele>219</ele>
        <time>2017-07-10T09:04:51Z</time>
      </trkpt>
      <trkpt lat="45.97439" lon="4.79898">
        <ele>220</ele>
        <time>2017-07-10T09:04:52Z</time>
      </trkpt>
      <trkpt lat="45.97447" lon="4.79898">
        <ele>220</ele>
        <time>2017-07-10T09:04:54Z</time>
      </trkpt>
      <trkpt lat="45.97451" lon="4.79897">
        <ele>220</ele>
        <time>2017-07-10T09:04:55Z</time>
      </trkpt>
      <trkpt lat="45.97458" lon="4.79896">
        <ele>220</ele>
        <time>2017-07-10T09:04:57Z</time>
      </trkpt>
      <trkpt lat="45.97462" lon="4.79895">
        <ele>220</ele>
        <time>2017-07-10T09:04:58Z</time>
      </trkpt>
      <trkpt lat="45.9747" lon="4.79895">
        <ele>221</ele>
        <time>2017-07-10T09:05:00Z</time>
      </trkpt>
      <trkpt lat="45.97474" lon="4.79895">
        <ele>221</ele>
        <time>2017-07-10T09:05:01Z</time>
      </trkpt>
      <trkpt lat="45.97482" lon="4.79895">
        <ele>221</ele>
        <time>2017-07-10T09:05:03Z</time>
      </trkpt>
      <trkpt lat="45.97486" lon="4.79894">
        <ele>221</ele>
        <time>2017-07-10T09:05:04Z</time>
      </trkpt>
      <trkpt lat="45.97494" lon="4.79892">
        <ele>221</ele>
        <time>2017-07-10T09:05:06Z</time>
      </trkpt>
      <trkpt lat="45.97498" lon="4.79892">
        <ele>221</ele>
        <time>2017-07-10T09:05:07Z</time>
      </trkpt>
      <trkpt lat="45.97505" lon="4.79891">
        <ele>221</ele>
        <time>2017-07-10T09:05:09Z</time>
      </trkpt>
      <trkpt lat="45.97509" lon="4.79891">
        <ele>221</ele>
        <time>2017-07-10T09:05:10Z</time>
      </trkpt>
      <trkpt lat="45.97516" lon="4.79891">
        <ele>221</ele>
        <time>2017-07-10T09:05:12Z</time>
      </trkpt>
      <trkpt lat="45.9752" lon="4.79892">
        <ele>221</ele>
        <time>2017-07-10T09:05:13Z</time>
      </trkpt>
      <trkpt lat="45.97526" lon="4.79891">
        <ele>221</ele>
        <time>2017-07-10T09:05:15Z</time>
      </trkpt>
      <trkpt lat="45.97529" lon="4.7989">
        <ele>221</ele>
        <time>2017-07-10T09:05:16Z</time>
      </trkpt>
      <trkpt lat="45.97536" lon="4.7989">
        <ele>221</ele>
        <time>2017-07-10T09:05:18Z</time>
      </trkpt>
      <trkpt lat="45.97538" lon="4.79889">
        <ele>221</ele>
        <time>2017-07-10T09:05:19Z</time>
      </trkpt>
      <trkpt lat="45.97547" lon="4.79887">
        <ele>221</ele>
        <time>2017-07-10T09:05:22Z</time>
      </trkpt>
      <trkpt lat="45.97551" lon="4.79887">
        <ele>221</ele>
        <time>2017-07-10T09:05:23Z</time>
      </trkpt>
      <trkpt lat="45.97558" lon="4.79885">
        <ele>221</ele>
        <time>2017-07-10T09:05:25Z</time>
      </trkpt>
      <trkpt lat="45.97562" lon="4.79884">
        <ele>221</ele>
        <time>2017-07-10T09:05:26Z</time>
      </trkpt>
      <trkpt lat="45.97569" lon="4.79882">
        <ele>221</ele>
        <time>2017-07-10T09:05:28Z</time>
      </trkpt>
      <trkpt lat="45.97573" lon="4.79881">
        <ele>221</ele>
        <time>2017-07-10T09:05:29Z</time>
      </trkpt>
      <trkpt lat="45.97579" lon="4.79879">
        <ele>221</ele>
        <time>2017-07-10T09:05:31Z</time>
      </trkpt>
      <trkpt lat="45.97582" lon="4.79878">
        <ele>221</ele>
        <time>2017-07-10T09:05:32Z</time>
      </trkpt>
      <trkpt lat="45.97588" lon="4.79876">
        <ele>221</ele>
        <time>2017-07-10T09:05:34Z</time>
      </trkpt>
      <trkpt lat="45.97591" lon="4.79874">
        <ele>221</ele>
        <time>2017-07-10T09:05:35Z</time>
      </trkpt>
      <trkpt lat="45.97598" lon="4.79872">
        <ele>221</ele>
        <time>2017-07-10T09:05:37Z</time>
      </trkpt>
      <trkpt lat="45.97602" lon="4.79871">
        <ele>221</ele>
        <time>2017-07-10T09:05:38Z</time>
      </trkpt>
      <trkpt lat="45.97608" lon="4.79868">
        <ele>221</ele>
        <time>2017-07-10T09:05:40Z</time>
      </trkpt>
      <trkpt lat="45.97611" lon="4.79867">
        <ele>221</ele>
        <time>2017-07-10T09:05:41Z</time>
      </trkpt>
      <trkpt lat="45.97617" lon="4.79865">
        <ele>221</ele>
        <time>2017-07-10T09:05:43Z</time>
      </trkpt>
      <trkpt lat="45.9762" lon="4.79864">
        <ele>221</ele>
        <time>2017-07-10T09:05:44Z</time>
      </trkpt>
      <trkpt lat="45.97628" lon="4.79862">
        <ele>221</ele>
        <time>2017-07-10T09:05:46Z</time>
      </trkpt>
      <trkpt lat="45.97631" lon="4.79861">
        <ele>221</ele>
        <time>2017-07-10T09:05:47Z</time>
      </trkpt>
      <trkpt lat="45.97638" lon="4.79859">
        <ele>221</ele>
        <time>2017-07-10T09:05:49Z</time>
      </trkpt>
      <trkpt lat="45.97641" lon="4.79858">
        <ele>221</ele>
        <time>2017-07-10T09:05:50Z</time>
      </trkpt>
      <trkpt lat="45.97649" lon="4.79855">
        <ele>221</ele>
        <time>2017-07-10T09:05:52Z</time>
      </trkpt>
      <trkpt lat="45.97653" lon="4.79853">
        <ele>221</ele>
        <time>2017-07-10T09:05:53Z</time>
      </trkpt>
      <trkpt lat="45.9766" lon="4.7985">
        <ele>221</ele>
        <time>2017-07-10T09:05:55Z</time>
      </trkpt>
      <trkpt lat="45.97664" lon="4.79848">
        <ele>221</ele>
        <time>2017-07-10T09:05:56Z</time>
      </trkpt>
      <trkpt lat="45.97671" lon="4.79846">
        <ele>221</ele>
        <time>2017-07-10T09:05:58Z</time>
      </trkpt>
      <trkpt lat="45.97674" lon="4.79845">
        <ele>221</ele>
        <time>2017-07-10T09:05:59Z</time>
      </trkpt>
      <trkpt lat="45.97681" lon="4.79843">
        <ele>221</ele>
        <time>2017-07-10T09:06:01Z</time>
      </trkpt>
      <trkpt lat="45.97684" lon="4.79841">
        <ele>221</ele>
        <time>2017-07-10T09:06:02Z</time>
      </trkpt>
      <trkpt lat="45.97692" lon="4.79839">
        <ele>220</ele>
        <time>2017-07-10T09:06:05Z</time>
      </trkpt>
      <trkpt lat="45.97695" lon="4.79839">
        <ele>220</ele>
        <time>2017-07-10T09:06:06Z</time>
      </trkpt>
      <trkpt lat="45.97703" lon="4.79837">
        <ele>220</ele>
        <time>2017-07-10T09:06:08Z</time>
      </trkpt>
      <trkpt lat="45.97707" lon="4.79837">
        <ele>220</ele>
        <time>2017-07-10T09:06:09Z</time>
      </trkpt>
      <trkpt lat="45.97715" lon="4.79834">
        <ele>220</ele>
        <time>2017-07-10T09:06:11Z</time>
      </trkpt>
      <trkpt lat="45.9772" lon="4.79833">
        <ele>223</ele>
        <time>2017-07-10T09:06:12Z</time>
      </trkpt>
      <trkpt lat="45.97728" lon="4.79832">
        <ele>223</ele>
        <time>2017-07-10T09:06:14Z</time>
      </trkpt>
      <trkpt lat="45.97732" lon="4.79831">
        <ele>223</ele>
        <time>2017-07-10T09:06:15Z</time>
      </trkpt>
      <trkpt lat="45.97741" lon="4.79829">
        <ele>222</ele>
        <time>2017-07-10T09:06:17Z</time>
      </trkpt>
      <trkpt lat="45.97746" lon="4.79829">
        <ele>222</ele>
        <time>2017-07-10T09:06:18Z</time>
      </trkpt>
      <trkpt lat="45.9775" lon="4.79828">
        <ele>222</ele>
        <time>2017-07-10T09:06:19Z</time>
      </trkpt>
      <trkpt lat="45.97755" lon="4.79827">
        <ele>222</ele>
        <time>2017-07-10T09:06:20Z</time>
      </trkpt>
      <trkpt lat="45.9776" lon="4.79826">
        <ele>223</ele>
        <time>2017-07-10T09:06:21Z</time>
      </trkpt>
      <trkpt lat="45.97765" lon="4.79825">
        <ele>223</ele>
        <time>2017-07-10T09:06:22Z</time>
      </trkpt>
      <trkpt lat="45.9777" lon="4.79824">
        <ele>223</ele>
        <time>2017-07-10T09:06:23Z</time>
      </trkpt>
      <trkpt lat="45.97776" lon="4.79823">
        <ele>223</ele>
        <time>2017-07-10T09:06:24Z</time>
      </trkpt>
      <trkpt lat="45.97781" lon="4.79821">
        <ele>223</ele>
        <time>2017-07-10T09:06:25Z</time>
      </trkpt>
      <trkpt lat="45.97787" lon="4.7982">
        <ele>223</ele>
        <time>2017-07-10T09:06:26Z</time>
      </trkpt>
      <trkpt lat="45.97792" lon="4.7982">
        <ele>223</ele>
        <time>2017-07-10T09:06:27Z</time>
      </trkpt>
      <trkpt lat="45.97797" lon="4.79819">
        <ele>223</ele>
        <time>2017-07-10T09:06:28Z</time>
      </trkpt>
      <trkpt lat="45.97802" lon="4.79818">
        <ele>223</ele>
        <time>2017-07-10T09:06:29Z</time>
      </trkpt>
      <trkpt lat="45.97807" lon="4.79817">
        <ele>223</ele>
        <time>2017-07-10T09:06:30Z</time>
      </trkpt>
      <trkpt lat="45.97812" lon="4.79816">
        <ele>223</ele>
        <time>2017-07-10T09:06:31Z</time>
      </trkpt>
      <trkpt lat="45.97816" lon="4.79815">
        <ele>223</ele>
        <time>2017-07-10T09:06:32Z</time>
      </trkpt>
      <trkpt lat="45.97821" lon="4.79813">
        <ele>223</ele>
        <time>2017-07-10T09:06:33Z</time>
      </trkpt>
      <trkpt lat="45.97825" lon="4.79812">
        <ele>223</ele>
        <time>2017-07-10T09:06:34Z</time>
      </trkpt>
      <trkpt lat="45.9783" lon="4.7981">
        <ele>223</ele>
        <time>2017-07-10T09:06:35Z</time>
      </trkpt>
      <trkpt lat="45.97835" lon="4.7981">
        <ele>224</ele>
        <time>2017-07-10T09:06:36Z</time>
      </trkpt>
      <trkpt lat="45.97839" lon="4.79809">
        <ele>224</ele>
        <time>2017-07-10T09:06:37Z</time>
      </trkpt>
      <trkpt lat="45.97844" lon="4.79808">
        <ele>224</ele>
        <time>2017-07-10T09:06:38Z</time>
      </trkpt>
      <trkpt lat="45.9785" lon="4.79807">
        <ele>224</ele>
        <time>2017-07-10T09:06:39Z</time>
      </trkpt>
      <trkpt lat="45.97856" lon="4.79806">
        <ele>224</ele>
        <time>2017-07-10T09:06:40Z</time>
      </trkpt>
      <trkpt lat="45.97862" lon="4.79805">
        <ele>224</ele>
        <time>2017-07-10T09:06:41Z</time>
      </trkpt>
      <trkpt lat="45.97867" lon="4.79804">
        <ele>224</ele>
        <time>2017-07-10T09:06:42Z</time>
      </trkpt>
      <trkpt lat="45.97872" lon="4.79803">
        <ele>224</ele>
        <time>2017-07-10T09:06:43Z</time>
      </trkpt>
      <trkpt lat="45.97876" lon="4.79803">
        <ele>224</ele>
        <time>2017-07-10T09:06:44Z</time>
      </trkpt>
      <trkpt lat="45.97881" lon="4.79803">
        <ele>224</ele>
        <time>2017-07-10T09:06:45Z</time>
      </trkpt>
      <trkpt lat="45.97886" lon="4.79803">
        <ele>224</ele>
        <time>2017-07-10T09:06:46Z</time>
      </trkpt>
      <trkpt lat="45.97891" lon="4.79803">
        <ele>224</ele>
        <time>2017-07-10T09:06:47Z</time>
      </trkpt>
      <trkpt lat="45.97897" lon="4.79803">
        <ele>224</ele>
        <time>2017-07-10T09:06:48Z</time>
      </trkpt>
      <trkpt lat="45.97902" lon="4.79802">
        <ele>224</ele>
        <time>2017-07-10T09:06:49Z</time>
      </trkpt>
      <trkpt lat="45.97907" lon="4.79801">
        <ele>224</ele>
        <time>2017-07-10T09:06:50Z</time>
      </trkpt>
      <trkpt lat="45.97913" lon="4.798">
        <ele>224</ele>
        <time>2017-07-10T09:06:51Z</time>
      </trkpt>
      <trkpt lat="45.97919" lon="4.79799">
        <ele>224</ele>
        <time>2017-07-10T09:06:52Z</time>
      </trkpt>
      <trkpt lat="45.97924" lon="4.79799">
        <ele>224</ele>
        <time>2017-07-10T09:06:53Z</time>
      </trkpt>
      <trkpt lat="45.9793" lon="4.79798">
        <ele>224</ele>
        <time>2017-07-10T09:06:54Z</time>
      </trkpt>
      <trkpt lat="45.97936" lon="4.79797">
        <ele>224</ele>
        <time>2017-07-10T09:06:55Z</time>
      </trkpt>
      <trkpt lat="45.97941" lon="4.79796">
        <ele>224</ele>
        <time>2017-07-10T09:06:56Z</time>
      </trkpt>
      <trkpt lat="45.97946" lon="4.79795">
        <ele>224</ele>
        <time>2017-07-10T09:06:57Z</time>
      </trkpt>
      <trkpt lat="45.97952" lon="4.79794">
        <ele>224</ele>
        <time>2017-07-10T09:06:58Z</time>
      </trkpt>
      <trkpt lat="45.97957" lon="4.79793">
        <ele>224</ele>
        <time>2017-07-10T09:06:59Z</time>
      </trkpt>
      <trkpt lat="45.97962" lon="4.79793">
        <ele>224</ele>
        <time>2017-07-10T09:07:00Z</time>
      </trkpt>
      <trkpt lat="45.97967" lon="4.79792">
        <ele>224</ele>
        <time>2017-07-10T09:07:01Z</time>
      </trkpt>
      <trkpt lat="45.97972" lon="4.79792">
        <ele>224</ele>
        <time>2017-07-10T09:07:02Z</time>
      </trkpt>
      <trkpt lat="45.97978" lon="4.79792">
        <ele>224</ele>
        <time>2017-07-10T09:07:03Z</time>
      </trkpt>
      <trkpt lat="45.97984" lon="4.7979">
        <ele>224</ele>
        <time>2017-07-10T09:07:04Z</time>
      </trkpt>
      <trkpt lat="45.97991" lon="4.79789">
        <ele>224</ele>
        <time>2017-07-10T09:07:05Z</time>
      </trkpt>
      <trkpt lat="45.97997" lon="4.79789">
        <ele>224</ele>
        <time>2017-07-10T09:07:06Z</time>
      </trkpt>
      <trkpt lat="45.98002" lon="4.79788">
        <ele>223</ele>
        <time>2017-07-10T09:07:07Z</time>
      </trkpt>
      <trkpt lat="45.98008" lon="4.79786">
        <ele>223</ele>
        <time>2017-07-10T09:07:08Z</time>
      </trkpt>
      <trkpt lat="45.98013" lon="4.79785">
        <ele>223</ele>
        <time>2017-07-10T09:07:09Z</time>
      </trkpt>
      <trkpt lat="45.98018" lon="4.79784">
        <ele>223</ele>
        <time>2017-07-10T09:07:10Z</time>
      </trkpt>
      <trkpt lat="45.98023" lon="4.79783">
        <ele>223</ele>
        <time>2017-07-10T09:07:11Z</time>
      </trkpt>
      <trkpt lat="45.98028" lon="4.79782">
        <ele>223</ele>
        <time>2017-07-10T09:07:12Z</time>
      </trkpt>
      <trkpt lat="45.98034" lon="4.79781">
        <ele>223</ele>
        <time>2017-07-10T09:07:13Z</time>
      </trkpt>
      <trkpt lat="45.98039" lon="4.79781">
        <ele>223</ele>
        <time>2017-07-10T09:07:14Z</time>
      </trkpt>
      <trkpt lat="45.98045" lon="4.79781">
        <ele>223</ele>
        <time>2017-07-10T09:07:15Z</time>
      </trkpt>
      <trkpt lat="45.9805" lon="4.7978">
        <ele>223</ele>
        <time>2017-07-10T09:07:16Z</time>
      </trkpt>
      <trkpt lat="45.98055" lon="4.79779">
        <ele>223</ele>
        <time>2017-07-10T09:07:17Z</time>
      </trkpt>
      <trkpt lat="45.9806" lon="4.79779">
        <ele>223</ele>
        <time>2017-07-10T09:07:18Z</time>
      </trkpt>
      <trkpt lat="45.98065" lon="4.79778">
        <ele>223</ele>
        <time>2017-07-10T09:07:19Z</time>
      </trkpt>
      <trkpt lat="45.98069" lon="4.79777">
        <ele>223</ele>
        <time>2017-07-10T09:07:20Z</time>
      </trkpt>
      <trkpt lat="45.98074" lon="4.79777">
        <ele>223</ele>
        <time>2017-07-10T09:07:21Z</time>
      </trkpt>
      <trkpt lat="45.98079" lon="4.79776">
        <ele>223</ele>
        <time>2017-07-10T09:07:22Z</time>
      </trkpt>
      <trkpt lat="45.98084" lon="4.79776">
        <ele>223</ele>
        <time>2017-07-10T09:07:23Z</time>
      </trkpt>
      <trkpt lat="45.98089" lon="4.79775">
        <ele>223</ele>
        <time>2017-07-10T09:07:24Z</time>
      </trkpt>
      <trkpt lat="45.98094" lon="4.79774">
        <ele>223</ele>
        <time>2017-07-10T09:07:25Z</time>
      </trkpt>
      <trkpt lat="45.98099" lon="4.79773">
        <ele>223</ele>
        <time>2017-07-10T09:07:26Z</time>
      </trkpt>
      <trkpt lat="45.98104" lon="4.79772">
        <ele>224</ele>
        <time>2017-07-10T09:07:27Z</time>
      </trkpt>
      <trkpt lat="45.98109" lon="4.79771">
        <ele>224</ele>
        <time>2017-07-10T09:07:28Z</time>
      </trkpt>
      <trkpt lat="45.98114" lon="4.79771">
        <ele>224</ele>
        <time>2017-07-10T09:07:29Z</time>
      </trkpt>
      <trkpt lat="45.98118" lon="4.79771">
        <ele>224</ele>
        <time>2017-07-10T09:07:30Z</time>
      </trkpt>
      <trkpt lat="45.98127" lon="4.7977">
        <ele>224</ele>
        <time>2017-07-10T09:07:32Z</time>
      </trkpt>
      <trkpt lat="45.98131" lon="4.79769">
        <ele>224</ele>
        <time>2017-07-10T09:07:33Z</time>
      </trkpt>
      <trkpt lat="45.9814" lon="4.79767">
        <ele>224</ele>
        <time>2017-07-10T09:07:35Z</time>
      </trkpt>
      <trkpt lat="45.98144" lon="4.79767">
        <ele>224</ele>
        <time>2017-07-10T09:07:36Z</time>
      </trkpt>
      <trkpt lat="45.98152" lon="4.79768">
        <ele>225</ele>
        <time>2017-07-10T09:07:38Z</time>
      </trkpt>
      <trkpt lat="45.98156" lon="4.79769">
        <ele>225</ele>
        <time>2017-07-10T09:07:39Z</time>
      </trkpt>
      <trkpt lat="45.98163" lon="4.79773">
        <ele>225</ele>
        <time>2017-07-10T09:07:42Z</time>
      </trkpt>
      <trkpt lat="45.98166" lon="4.79776">
        <ele>225</ele>
        <time>2017-07-10T09:07:43Z</time>
      </trkpt>
      <trkpt lat="45.98172" lon="4.7978">
        <ele>226</ele>
        <time>2017-07-10T09:07:45Z</time>
      </trkpt>
      <trkpt lat="45.98174" lon="4.79782">
        <ele>226</ele>
        <time>2017-07-10T09:07:46Z</time>
      </trkpt>
      <trkpt lat="45.98179" lon="4.79792">
        <ele>226</ele>
        <time>2017-07-10T09:07:49Z</time>
      </trkpt>
      <trkpt lat="45.9818" lon="4.79797">
        <ele>226</ele>
        <time>2017-07-10T09:07:50Z</time>
      </trkpt>
      <trkpt lat="45.98183" lon="4.79806">
        <ele>225</ele>
        <time>2017-07-10T09:07:52Z</time>
      </trkpt>
      <trkpt lat="45.98185" lon="4.79811">
        <ele>225</ele>
        <time>2017-07-10T09:07:53Z</time>
      </trkpt>
      <trkpt lat="45.98187" lon="4.79818">
        <ele>225</ele>
        <time>2017-07-10T09:07:54Z</time>
      </trkpt>
      <trkpt lat="45.98189" lon="4.79824">
        <ele>225</ele>
        <time>2017-07-10T09:07:55Z</time>
      </trkpt>
      <trkpt lat="45.98192" lon="4.79831">
        <ele>225</ele>
        <time>2017-07-10T09:07:56Z</time>
      </trkpt>
      <trkpt lat="45.98195" lon="4.79839">
        <ele>225</ele>
        <time>2017-07-10T09:07:57Z</time>
      </trkpt>
      <trkpt lat="45.98197" lon="4.79847">
        <ele>225</ele>
        <time>2017-07-10T09:07:58Z</time>
      </trkpt>
      <trkpt lat="45.982" lon="4.79855">
        <ele>225</ele>
        <time>2017-07-10T09:07:59Z</time>
      </trkpt>
      <trkpt lat="45.98202" lon="4.79862">
        <ele>225</ele>
        <time>2017-07-10T09:08:00Z</time>
      </trkpt>
      <trkpt lat="45.98205" lon="4.79869">
        <ele>225</ele>
        <time>2017-07-10T09:08:01Z</time>
      </trkpt>
      <trkpt lat="45.98208" lon="4.79877">
        <ele>225</ele>
        <time>2017-07-10T09:08:02Z</time>
      </trkpt>
      <trkpt lat="45.9821" lon="4.79885">
        <ele>225</ele>
        <time>2017-07-10T09:08:03Z</time>
      </trkpt>
      <trkpt lat="45.98213" lon="4.79893">
        <ele>225</ele>
        <time>2017-07-10T09:08:04Z</time>
      </trkpt>
      <trkpt lat="45.98216" lon="4.799">
        <ele>225</ele>
        <time>2017-07-10T09:08:05Z</time>
      </trkpt>
      <trkpt lat="45.98219" lon="4.79906">
        <ele>225</ele>
        <time>2017-07-10T09:08:06Z</time>
      </trkpt>
      <trkpt lat="45.98222" lon="4.79913">
        <ele>225</ele>
        <time>2017-07-10T09:08:07Z</time>
      </trkpt>
      <trkpt lat="45.98224" lon="4.7992">
        <ele>225</ele>
        <time>2017-07-10T09:08:08Z</time>
      </trkpt>
      <trkpt lat="45.98227" lon="4.79927">
        <ele>225</ele>
        <time>2017-07-10T09:08:09Z</time>
      </trkpt>
      <trkpt lat="45.9823" lon="4.79935">
        <ele>225</ele>
        <time>2017-07-10T09:08:10Z</time>
      </trkpt>
      <trkpt lat="45.98232" lon="4.79942">
        <ele>225</ele>
        <time>2017-07-10T09:08:11Z</time>
      </trkpt>
      <trkpt lat="45.98234" lon="4.79949">
        <ele>225</ele>
        <time>2017-07-10T09:08:12Z</time>
      </trkpt>
      <trkpt lat="45.98237" lon="4.79955">
        <ele>225</ele>
        <time>2017-07-10T09:08:13Z</time>
      </trkpt>
      <trkpt lat="45.9824" lon="4.79962">
        <ele>225</ele>
        <time>2017-07-10T09:08:14Z</time>
      </trkpt>
      <trkpt lat="45.98242" lon="4.79969">
        <ele>225</ele>
        <time>2017-07-10T09:08:15Z</time>
      </trkpt>
      <trkpt lat="45.98244" lon="4.79976">
        <ele>225</ele>
        <time>2017-07-10T09:08:16Z</time>
      </trkpt>
      <trkpt lat="45.98247" lon="4.79983">
        <ele>225</ele>
        <time>2017-07-10T09:08:17Z</time>
      </trkpt>
      <trkpt lat="45.9825" lon="4.79989">
        <ele>226</ele>
        <time>2017-07-10T09:08:18Z</time>
      </trkpt>
      <trkpt lat="45.98252" lon="4.79996">
        <ele>227</ele>
        <time>2017-07-10T09:08:19Z</time>
      </trkpt>
      <trkpt lat="45.98254" lon="4.80003">
        <ele>227</ele>
        <time>2017-07-10T09:08:20Z</time>
      </trkpt>
      <trkpt lat="45.98257" lon="4.80009">
        <ele>227</ele>
        <time>2017-07-10T09:08:21Z</time>
      </trkpt>
      <trkpt lat="45.9826" lon="4.80016">
        <ele>228</ele>
        <time>2017-07-10T09:08:22Z</time>
      </trkpt>
      <trkpt lat="45.98263" lon="4.80022">
        <ele>228</ele>
        <time>2017-07-10T09:08:23Z</time>
      </trkpt>
      <trkpt lat="45.98266" lon="4.80029">
        <ele>228</ele>
        <time>2017-07-10T09:08:24Z</time>
      </trkpt>
      <trkpt lat="45.98269" lon="4.80036">
        <ele>229</ele>
        <time>2017-07-10T09:08:25Z</time>
      </trkpt>
      <trkpt lat="45.98271" lon="4.80042">
        <ele>229</ele>
        <time>2017-07-10T09:08:26Z</time>
      </trkpt>
      <trkpt lat="45.98273" lon="4.80049">
        <ele>229</ele>
        <time>2017-07-10T09:08:27Z</time>
      </trkpt>
      <trkpt lat="45.98275" lon="4.80055">
        <ele>229</ele>
        <time>2017-07-10T09:08:28Z</time>
      </trkpt>
      <trkpt lat="45.98276" lon="4.80061">
        <ele>229</ele>
        <time>2017-07-10T09:08:29Z</time>
      </trkpt>
      <trkpt lat="45.98278" lon="4.80067">
        <ele>229</ele>
        <time>2017-07-10T09:08:30Z</time>
      </trkpt>
      <trkpt lat="45.9828" lon="4.80074">
        <ele>229</ele>
        <time>2017-07-10T09:08:31Z</time>
      </trkpt>
      <trkpt lat="45.98283" lon="4.8008">
        <ele>229</ele>
        <time>2017-07-10T09:08:32Z</time>
      </trkpt>
      <trkpt lat="45.98285" lon="4.80086">
        <ele>228</ele>
        <time>2017-07-10T09:08:33Z</time>
      </trkpt>
      <trkpt lat="45.98288" lon="4.80093">
        <ele>228</ele>
        <time>2017-07-10T09:08:34Z</time>
      </trkpt>
      <trkpt lat="45.9829" lon="4.801">
        <ele>228</ele>
        <time>2017-07-10T09:08:35Z</time>
      </trkpt>
      <trkpt lat="45.98293" lon="4.80109">
        <ele>228</ele>
        <time>2017-07-10T09:08:36Z</time>
      </trkpt>
      <trkpt lat="45.98295" lon="4.80117">
        <ele>228</ele>
        <time>2017-07-10T09:08:37Z</time>
      </trkpt>
      <trkpt lat="45.98297" lon="4.80124">
        <ele>228</ele>
        <time>2017-07-10T09:08:38Z</time>
      </trkpt>
      <trkpt lat="45.98299" lon="4.80131">
        <ele>228</ele>
        <time>2017-07-10T09:08:39Z</time>
      </trkpt>
      <trkpt lat="45.98302" lon="4.80138">
        <ele>228</ele>
        <time>2017-07-10T09:08:40Z</time>
      </trkpt>
      <trkpt lat="45.98304" lon="4.80145">
        <ele>228</ele>
        <time>2017-07-10T09:08:41Z</time>
      </trkpt>
      <trkpt lat="45.98307" lon="4.80152">
        <ele>228</ele>
        <time>2017-07-10T09:08:42Z</time>
      </trkpt>
      <trkpt lat="45.98308" lon="4.80158">
        <ele>228</ele>
        <time>2017-07-10T09:08:43Z</time>
      </trkpt>
      <trkpt lat="45.98311" lon="4.80164">
        <ele>228</ele>
        <time>2017-07-10T09:08:44Z</time>
      </trkpt>
      <trkpt lat="45.98313" lon="4.80169">
        <ele>227</ele>
        <time>2017-07-10T09:08:45Z</time>
      </trkpt>
      <trkpt lat="45.98315" lon="4.80176">
        <ele>227</ele>
        <time>2017-07-10T09:08:46Z</time>
      </trkpt>
      <trkpt lat="45.98317" lon="4.80183">
        <ele>227</ele>
        <time>2017-07-10T09:08:47Z</time>
      </trkpt>
      <trkpt lat="45.98319" lon="4.8019">
        <ele>227</ele>
        <time>2017-07-10T09:08:48Z</time>
      </trkpt>
      <trkpt lat="45.98322" lon="4.80196">
        <ele>227</ele>
        <time>2017-07-10T09:08:49Z</time>
      </trkpt>
      <trkpt lat="45.98324" lon="4.80203">
        <ele>227</ele>
        <time>2017-07-10T09:08:50Z</time>
      </trkpt>
      <trkpt lat="45.98326" lon="4.80209">
        <ele>227</ele>
        <time>2017-07-10T09:08:51Z</time>
      </trkpt>
      <trkpt lat="45.98328" lon="4.80215">
        <ele>227</ele>
        <time>2017-07-10T09:08:52Z</time>
      </trkpt>
      <trkpt lat="45.98329" lon="4.80221">
        <ele>227</ele>
        <time>2017-07-10T09:08:53Z</time>
      </trkpt>
      <trkpt lat="45.9833" lon="4.80228">
        <ele>228</ele>
        <time>2017-07-10T09:08:54Z</time>
      </trkpt>
      <trkpt lat="45.98329" lon="4.80234">
        <ele>228</ele>
        <time>2017-07-10T09:08:55Z</time>
      </trkpt>
      <trkpt lat="45.98327" lon="4.80241">
        <ele>229</ele>
        <time>2017-07-10T09:08:56Z</time>
      </trkpt>
      <trkpt lat="45.98326" lon="4.80248">
        <ele>229</ele>
        <time>2017-07-10T09:08:57Z</time>
      </trkpt>
      <trkpt lat="45.98324" lon="4.80256">
        <ele>228</ele>
        <time>2017-07-10T09:08:58Z</time>
      </trkpt>
      <trkpt lat="45.98323" lon="4.80263">
        <ele>228</ele>
        <time>2017-07-10T09:08:59Z</time>
      </trkpt>
      <trkpt lat="45.98322" lon="4.8027">
        <ele>227</ele>
        <time>2017-07-10T09:09:00Z</time>
      </trkpt>
      <trkpt lat="45.9832" lon="4.80278">
        <ele>227</ele>
        <time>2017-07-10T09:09:01Z</time>
      </trkpt>
      <trkpt lat="45.98318" lon="4.80286">
        <ele>226</ele>
        <time>2017-07-10T09:09:02Z</time>
      </trkpt>
      <trkpt lat="45.98316" lon="4.80294">
        <ele>226</ele>
        <time>2017-07-10T09:09:03Z</time>
      </trkpt>
      <trkpt lat="45.98313" lon="4.80303">
        <ele>226</ele>
        <time>2017-07-10T09:09:04Z</time>
      </trkpt>
      <trkpt lat="45.9831" lon="4.80311">
        <ele>226</ele>
        <time>2017-07-10T09:09:05Z</time>
      </trkpt>
      <trkpt lat="45.98308" lon="4.8032">
        <ele>226</ele>
        <time>2017-07-10T09:09:06Z</time>
      </trkpt>
      <trkpt lat="45.98308" lon="4.8033">
        <ele>226</ele>
        <time>2017-07-10T09:09:07Z</time>
      </trkpt>
      <trkpt lat="45.98306" lon="4.80339">
        <ele>226</ele>
        <time>2017-07-10T09:09:08Z</time>
      </trkpt>
      <trkpt lat="45.98304" lon="4.80349">
        <ele>225</ele>
        <time>2017-07-10T09:09:09Z</time>
      </trkpt>
      <trkpt lat="45.98302" lon="4.80358">
        <ele>225</ele>
        <time>2017-07-10T09:09:10Z</time>
      </trkpt>
      <trkpt lat="45.983" lon="4.80367">
        <ele>225</ele>
        <time>2017-07-10T09:09:11Z</time>
      </trkpt>
      <trkpt lat="45.98298" lon="4.80377">
        <ele>225</ele>
        <time>2017-07-10T09:09:12Z</time>
      </trkpt>
      <trkpt lat="45.98296" lon="4.80387">
        <ele>224</ele>
        <time>2017-07-10T09:09:13Z</time>
      </trkpt>
      <trkpt lat="45.98293" lon="4.80397">
        <ele>224</ele>
        <time>2017-07-10T09:09:14Z</time>
      </trkpt>
      <trkpt lat="45.98291" lon="4.80408">
        <ele>224</ele>
        <time>2017-07-10T09:09:15Z</time>
      </trkpt>
      <trkpt lat="45.98289" lon="4.80418">
        <ele>224</ele>
        <time>2017-07-10T09:09:16Z</time>
      </trkpt>
      <trkpt lat="45.98287" lon="4.80428">
        <ele>224</ele>
        <time>2017-07-10T09:09:17Z</time>
      </trkpt>
      <trkpt lat="45.98286" lon="4.80438">
        <ele>224</ele>
        <time>2017-07-10T09:09:18Z</time>
      </trkpt>
      <trkpt lat="45.98284" lon="4.80449">
        <ele>223</ele>
        <time>2017-07-10T09:09:19Z</time>
      </trkpt>
      <trkpt lat="45.98282" lon="4.8046">
        <ele>223</ele>
        <time>2017-07-10T09:09:20Z</time>
      </trkpt>
      <trkpt lat="45.9828" lon="4.8047">
        <ele>223</ele>
        <time>2017-07-10T09:09:21Z</time>
      </trkpt>
      <trkpt lat="45.98279" lon="4.8048">
        <ele>223</ele>
        <time>2017-07-10T09:09:22Z</time>
      </trkpt>
      <trkpt lat="45.98276" lon="4.8049">
        <ele>223</ele>
        <time>2017-07-10T09:09:23Z</time>
      </trkpt>
      <trkpt lat="45.98273" lon="4.80499">
        <ele>223</ele>
        <time>2017-07-10T09:09:24Z</time>
      </trkpt>
      <trkpt lat="45.98271" lon="4.80508">
        <ele>223</ele>
        <time>2017-07-10T09:09:25Z</time>
      </trkpt>
      <trkpt lat="45.98269" lon="4.80517">
        <ele>223</ele>
        <time>2017-07-10T09:09:26Z</time>
      </trkpt>
      <trkpt lat="45.98267" lon="4.80525">
        <ele>224</ele>
        <time>2017-07-10T09:09:27Z</time>
      </trkpt>
      <trkpt lat="45.98264" lon="4.80532">
        <ele>224</ele>
        <time>2017-07-10T09:09:28Z</time>
      </trkpt>
      <trkpt lat="45.98261" lon="4.80539">
        <ele>224</ele>
        <time>2017-07-10T09:09:29Z</time>
      </trkpt>
      <trkpt lat="45.98258" lon="4.80546">
        <ele>224</ele>
        <time>2017-07-10T09:09:30Z</time>
      </trkpt>
      <trkpt lat="45.98255" lon="4.80554">
        <ele>224</ele>
        <time>2017-07-10T09:09:31Z</time>
      </trkpt>
      <trkpt lat="45.98253" lon="4.80562">
        <ele>224</ele>
        <time>2017-07-10T09:09:32Z</time>
      </trkpt>
      <trkpt lat="45.98251" lon="4.8057">
        <ele>224</ele>
        <time>2017-07-10T09:09:33Z</time>
      </trkpt>
      <trkpt lat="45.98249" lon="4.80577">
        <ele>224</ele>
        <time>2017-07-10T09:09:34Z</time>
      </trkpt>
      <trkpt lat="45.98247" lon="4.80584">
        <ele>224</ele>
        <time>2017-07-10T09:09:35Z</time>
      </trkpt>
      <trkpt lat="45.98245" lon="4.8059">
        <ele>224</ele>
        <time>2017-07-10T09:09:36Z</time>
      </trkpt>
      <trkpt lat="45.98243" lon="4.80596">
        <ele>224</ele>
        <time>2017-07-10T09:09:37Z</time>
      </trkpt>
      <trkpt lat="45.9824" lon="4.80603">
        <ele>224</ele>
        <time>2017-07-10T09:09:38Z</time>
      </trkpt>
      <trkpt lat="45.98238" lon="4.8061">
        <ele>224</ele>
        <time>2017-07-10T09:09:39Z</time>
      </trkpt>
      <trkpt lat="45.98236" lon="4.80616">
        <ele>224</ele>
        <time>2017-07-10T09:09:40Z</time>
      </trkpt>
      <trkpt lat="45.98235" lon="4.80623">
        <ele>224</ele>
        <time>2017-07-10T09:09:41Z</time>
      </trkpt>
      <trkpt lat="45.98233" lon="4.80629">
        <ele>224</ele>
        <time>2017-07-10T09:09:42Z</time>
      </trkpt>
      <trkpt lat="45.98231" lon="4.80636">
        <ele>224</ele>
        <time>2017-07-10T09:09:43Z</time>
      </trkpt>
      <trkpt lat="45.98228" lon="4.80643">
        <ele>224</ele>
        <time>2017-07-10T09:09:44Z</time>
      </trkpt>
      <trkpt lat="45.98226" lon="4.80649">
        <ele>224</ele>
        <time>2017-07-10T09:09:45Z</time>
      </trkpt>
      <trkpt lat="45.98222" lon="4.80658">
        <ele>224</ele>
        <time>2017-07-10T09:09:47Z</time>
      </trkpt>
      <trkpt lat="45.9822" lon="4.80662">
        <ele>224</ele>
        <time>2017-07-10T09:09:48Z</time>
      </trkpt>
      <trkpt lat="45.98213" lon="4.80668">
        <ele>224</ele>
        <time>2017-07-10T09:09:50Z</time>
      </trkpt>
      <trkpt lat="45.9821" lon="4.80669">
        <ele>224</ele>
        <time>2017-07-10T09:09:51Z</time>
      </trkpt>
      <trkpt lat="45.98203" lon="4.80672">
        <ele>225</ele>
        <time>2017-07-10T09:09:53Z</time>
      </trkpt>
      <trkpt lat="45.98199" lon="4.80673">
        <ele>225</ele>
        <time>2017-07-10T09:09:54Z</time>
      </trkpt>
      <trkpt lat="45.98191" lon="4.80675">
        <ele>225</ele>
        <time>2017-07-10T09:09:56Z</time>
      </trkpt>
      <trkpt lat="45.98187" lon="4.80677">
        <ele>225</ele>
        <time>2017-07-10T09:09:57Z</time>
      </trkpt>
      <trkpt lat="45.98182" lon="4.80678">
        <ele>225</ele>
        <time>2017-07-10T09:09:58Z</time>
      </trkpt>
      <trkpt lat="45.98177" lon="4.80679">
        <ele>225</ele>
        <time>2017-07-10T09:09:59Z</time>
      </trkpt>
      <trkpt lat="45.98169" lon="4.8068">
        <ele>225</ele>
        <time>2017-07-10T09:10:01Z</time>
      </trkpt>
      <trkpt lat="45.98164" lon="4.80681">
        <ele>227</ele>
        <time>2017-07-10T09:10:02Z</time>
      </trkpt>
      <trkpt lat="45.98156" lon="4.80682">
        <ele>227</ele>
        <time>2017-07-10T09:10:04Z</time>
      </trkpt>
      <trkpt lat="45.98151" lon="4.80683">
        <ele>227</ele>
        <time>2017-07-10T09:10:05Z</time>
      </trkpt>
      <trkpt lat="45.98143" lon="4.80682">
        <ele>228</ele>
        <time>2017-07-10T09:10:07Z</time>
      </trkpt>
      <trkpt lat="45.98138" lon="4.80682">
        <ele>228</ele>
        <time>2017-07-10T09:10:08Z</time>
      </trkpt>
      <trkpt lat="45.9813" lon="4.80683">
        <ele>228</ele>
        <time>2017-07-10T09:10:10Z</time>
      </trkpt>
      <trkpt lat="45.98126" lon="4.80684">
        <ele>228</ele>
        <time>2017-07-10T09:10:11Z</time>
      </trkpt>
      <trkpt lat="45.98119" lon="4.80684">
        <ele>228</ele>
        <time>2017-07-10T09:10:13Z</time>
      </trkpt>
      <trkpt lat="45.98116" lon="4.80684">
        <ele>228</ele>
        <time>2017-07-10T09:10:14Z</time>
      </trkpt>
      <trkpt lat="45.9811" lon="4.80684">
        <ele>228</ele>
        <time>2017-07-10T09:10:16Z</time>
      </trkpt>
      <trkpt lat="45.98107" lon="4.80684">
        <ele>228</ele>
        <time>2017-07-10T09:10:17Z</time>
      </trkpt>
      <trkpt lat="45.981" lon="4.80686">
        <ele>228</ele>
        <time>2017-07-10T09:10:19Z</time>
      </trkpt>
      <trkpt lat="45.98096" lon="4.80686">
        <ele>228</ele>
        <time>2017-07-10T09:10:20Z</time>
      </trkpt>
      <trkpt lat="45.98089" lon="4.80686">
        <ele>228</ele>
        <time>2017-07-10T09:10:22Z</time>
      </trkpt>
      <trkpt lat="45.98086" lon="4.80686">
        <ele>228</ele>
        <time>2017-07-10T09:10:23Z</time>
      </trkpt>
      <trkpt lat="45.98077" lon="4.80686">
        <ele>229</ele>
        <time>2017-07-10T09:10:26Z</time>
      </trkpt>
      <trkpt lat="45.98074" lon="4.80687">
        <ele>229</ele>
        <time>2017-07-10T09:10:27Z</time>
      </trkpt>
      <trkpt lat="45.98065" lon="4.80689">
        <ele>230</ele>
        <time>2017-07-10T09:10:30Z</time>
      </trkpt>
      <trkpt lat="45.98062" lon="4.8069">
        <ele>230</ele>
        <time>2017-07-10T09:10:31Z</time>
      </trkpt>
      <trkpt lat="45.98056" lon="4.80691">
        <ele>230</ele>
        <time>2017-07-10T09:10:33Z</time>
      </trkpt>
      <trkpt lat="45.98053" lon="4.80692">
        <ele>230</ele>
        <time>2017-07-10T09:10:34Z</time>
      </trkpt>
      <trkpt lat="45.98047" lon="4.80695">
        <ele>230</ele>
        <time>2017-07-10T09:10:36Z</time>
      </trkpt>
      <trkpt lat="45.98044" lon="4.80695">
        <ele>230</ele>
        <time>2017-07-10T09:10:37Z</time>
      </trkpt>
      <trkpt lat="45.98036" lon="4.80701">
        <ele>230</ele>
        <time>2017-07-10T09:10:40Z</time>
      </trkpt>
      <trkpt lat="45.98034" lon="4.80706">
        <ele>231</ele>
        <time>2017-07-10T09:10:41Z</time>
      </trkpt>
      <trkpt lat="45.98034" lon="4.80715">
        <ele>231</ele>
        <time>2017-07-10T09:10:43Z</time>
      </trkpt>
      <trkpt lat="45.98034" lon="4.8072">
        <ele>231</ele>
        <time>2017-07-10T09:10:44Z</time>
      </trkpt>
      <trkpt lat="45.98036" lon="4.80729">
        <ele>231</ele>
        <time>2017-07-10T09:10:46Z</time>
      </trkpt>
      <trkpt lat="45.98036" lon="4.80733">
        <ele>231</ele>
        <time>2017-07-10T09:10:47Z</time>
      </trkpt>
      <trkpt lat="45.98039" lon="4.80745">
        <ele>231</ele>
        <time>2017-07-10T09:10:50Z</time>
      </trkpt>
      <trkpt lat="45.9804" lon="4.80749">
        <ele>231</ele>
        <time>2017-07-10T09:10:51Z</time>
      </trkpt>
      <trkpt lat="45.98041" lon="4.80757">
        <ele>233</ele>
        <time>2017-07-10T09:10:53Z</time>
      </trkpt>
      <trkpt lat="45.98043" lon="4.80762">
        <ele>233</ele>
        <time>2017-07-10T09:10:54Z</time>
      </trkpt>
      <trkpt lat="45.98046" lon="4.80773">
        <ele>233</ele>
        <time>2017-07-10T09:10:57Z</time>
      </trkpt>
      <trkpt lat="45.98047" lon="4.80778">
        <ele>233</ele>
        <time>2017-07-10T09:10:58Z</time>
      </trkpt>
      <trkpt lat="45.9805" lon="4.80789">
        <ele>233</ele>
        <time>2017-07-10T09:11:01Z</time>
      </trkpt>
      <trkpt lat="45.98052" lon="4.80793">
        <ele>233</ele>
        <time>2017-07-10T09:11:02Z</time>
      </trkpt>
      <trkpt lat="45.98053" lon="4.80802">
        <ele>234</ele>
        <time>2017-07-10T09:11:04Z</time>
      </trkpt>
      <trkpt lat="45.98054" lon="4.80806">
        <ele>234</ele>
        <time>2017-07-10T09:11:05Z</time>
      </trkpt>
      <trkpt lat="45.98055" lon="4.80815">
        <ele>234</ele>
        <time>2017-07-10T09:11:07Z</time>
      </trkpt>
      <trkpt lat="45.98055" lon="4.80819">
        <ele>234</ele>
        <time>2017-07-10T09:11:08Z</time>
      </trkpt>
      <trkpt lat="45.98058" lon="4.80827">
        <ele>234</ele>
        <time>2017-07-10T09:11:10Z</time>
      </trkpt>
      <trkpt lat="45.98059" lon="4.80832">
        <ele>234</ele>
        <time>2017-07-10T09:11:11Z</time>
      </trkpt>
      <trkpt lat="45.98062" lon="4.8084">
        <ele>236</ele>
        <time>2017-07-10T09:11:13Z</time>
      </trkpt>
      <trkpt lat="45.98062" lon="4.80844">
        <ele>236</ele>
        <time>2017-07-10T09:11:14Z</time>
      </trkpt>
      <trkpt lat="45.98065" lon="4.80856">
        <ele>236</ele>
        <time>2017-07-10T09:11:17Z</time>
      </trkpt>
      <trkpt lat="45.98067" lon="4.8086">
        <ele>236</ele>
        <time>2017-07-10T09:11:18Z</time>
      </trkpt>
      <trkpt lat="45.98069" lon="4.80871">
        <ele>237</ele>
        <time>2017-07-10T09:11:21Z</time>
      </trkpt>
      <trkpt lat="45.9807" lon="4.80875">
        <ele>237</ele>
        <time>2017-07-10T09:11:22Z</time>
      </trkpt>
      <trkpt lat="45.98072" lon="4.80883">
        <ele>237</ele>
        <time>2017-07-10T09:11:24Z</time>
      </trkpt>
      <trkpt lat="45.98072" lon="4.80888">
        <ele>238</ele>
        <time>2017-07-10T09:11:25Z</time>
      </trkpt>
      <trkpt lat="45.98075" lon="4.809">
        <ele>238</ele>
        <time>2017-07-10T09:11:28Z</time>
      </trkpt>
      <trkpt lat="45.98076" lon="4.80904">
        <ele>238</ele>
        <time>2017-07-10T09:11:29Z</time>
      </trkpt>
      <trkpt lat="45.98079" lon="4.80914">
        <ele>239</ele>
        <time>2017-07-10T09:11:32Z</time>
      </trkpt>
      <trkpt lat="45.98079" lon="4.80918">
        <ele>239</ele>
        <time>2017-07-10T09:11:33Z</time>
      </trkpt>
      <trkpt lat="45.98081" lon="4.80926">
        <ele>240</ele>
        <time>2017-07-10T09:11:35Z</time>
      </trkpt>
      <trkpt lat="45.98083" lon="4.80931">
        <ele>240</ele>
        <time>2017-07-10T09:11:36Z</time>
      </trkpt>
      <trkpt lat="45.98085" lon="4.8094">
        <ele>238</ele>
        <time>2017-07-10T09:11:38Z</time>
      </trkpt>
      <trkpt lat="45.98087" lon="4.80944">
        <ele>238</ele>
        <time>2017-07-10T09:11:39Z</time>
      </trkpt>
      <trkpt lat="45.9809" lon="4.80952">
        <ele>238</ele>
        <time>2017-07-10T09:11:41Z</time>
      </trkpt>
      <trkpt lat="45.98091" lon="4.80957">
        <ele>238</ele>
        <time>2017-07-10T09:11:42Z</time>
      </trkpt>
      <trkpt lat="45.98092" lon="4.80967">
        <ele>239</ele>
        <time>2017-07-10T09:11:44Z</time>
      </trkpt>
      <trkpt lat="45.98092" lon="4.80971">
        <ele>239</ele>
        <time>2017-07-10T09:11:45Z</time>
      </trkpt>
      <trkpt lat="45.98097" lon="4.8098">
        <ele>239</ele>
        <time>2017-07-10T09:11:48Z</time>
      </trkpt>
      <trkpt lat="45.98098" lon="4.80983">
        <ele>239</ele>
        <time>2017-07-10T09:11:49Z</time>
      </trkpt>
      <trkpt lat="45.981" lon="4.80993">
        <ele>240</ele>
        <time>2017-07-10T09:11:52Z</time>
      </trkpt>
      <trkpt lat="45.981" lon="4.80997">
        <ele>240</ele>
        <time>2017-07-10T09:11:53Z</time>
      </trkpt>
      <trkpt lat="45.98103" lon="4.81004">
        <ele>242</ele>
        <time>2017-07-10T09:11:55Z</time>
      </trkpt>
      <trkpt lat="45.98105" lon="4.81008">
        <ele>242</ele>
        <time>2017-07-10T09:11:56Z</time>
      </trkpt>
      <trkpt lat="45.98107" lon="4.81017">
        <ele>242</ele>
        <time>2017-07-10T09:11:58Z</time>
      </trkpt>
      <trkpt lat="45.98109" lon="4.81022">
        <ele>242</ele>
        <time>2017-07-10T09:11:59Z</time>
      </trkpt>
      <trkpt lat="45.98112" lon="4.81031">
        <ele>242</ele>
        <time>2017-07-10T09:12:01Z</time>
      </trkpt>
      <trkpt lat="45.98114" lon="4.81035">
        <ele>242</ele>
        <time>2017-07-10T09:12:02Z</time>
      </trkpt>
      <trkpt lat="45.98118" lon="4.81045">
        <ele>242</ele>
        <time>2017-07-10T09:12:04Z</time>
      </trkpt>
      <trkpt lat="45.98119" lon="4.81049">
        <ele>243</ele>
        <time>2017-07-10T09:12:05Z</time>
      </trkpt>
      <trkpt lat="45.98121" lon="4.81058">
        <ele>243</ele>
        <time>2017-07-10T09:12:07Z</time>
      </trkpt>
      <trkpt lat="45.98122" lon="4.81062">
        <ele>243</ele>
        <time>2017-07-10T09:12:08Z</time>
      </trkpt>
      <trkpt lat="45.98126" lon="4.8107">
        <ele>243</ele>
        <time>2017-07-10T09:12:10Z</time>
      </trkpt>
      <trkpt lat="45.98128" lon="4.81075">
        <ele>243</ele>
        <time>2017-07-10T09:12:11Z</time>
      </trkpt>
      <trkpt lat="45.98132" lon="4.81084">
        <ele>245</ele>
        <time>2017-07-10T09:12:13Z</time>
      </trkpt>
      <trkpt lat="45.98133" lon="4.81089">
        <ele>245</ele>
        <time>2017-07-10T09:12:14Z</time>
      </trkpt>
      <trkpt lat="45.98137" lon="4.81099">
        <ele>245</ele>
        <time>2017-07-10T09:12:16Z</time>
      </trkpt>
      <trkpt lat="45.98139" lon="4.81103">
        <ele>245</ele>
        <time>2017-07-10T09:12:17Z</time>
      </trkpt>
      <trkpt lat="45.98144" lon="4.81111">
        <ele>245</ele>
        <time>2017-07-10T09:12:19Z</time>
      </trkpt>
      <trkpt lat="45.98145" lon="4.81115">
        <ele>245</ele>
        <time>2017-07-10T09:12:20Z</time>
      </trkpt>
      <trkpt lat="45.98149" lon="4.81124">
        <ele>245</ele>
        <time>2017-07-10T09:12:22Z</time>
      </trkpt>
      <trkpt lat="45.98151" lon="4.81129">
        <ele>245</ele>
        <time>2017-07-10T09:12:23Z</time>
      </trkpt>
      <trkpt lat="45.98154" lon="4.81139">
        <ele>245</ele>
        <time>2017-07-10T09:12:25Z</time>
      </trkpt>
      <trkpt lat="45.98157" lon="4.81144">
        <ele>245</ele>
        <time>2017-07-10T09:12:26Z</time>
      </trkpt>
      <trkpt lat="45.9816" lon="4.81155">
        <ele>245</ele>
        <time>2017-07-10T09:12:28Z</time>
      </trkpt>
      <trkpt lat="45.98162" lon="4.81161">
        <ele>245</ele>
        <time>2017-07-10T09:12:29Z</time>
      </trkpt>
      <trkpt lat="45.98165" lon="4.81171">
        <ele>245</ele>
        <time>2017-07-10T09:12:31Z</time>
      </trkpt>
      <trkpt lat="45.98166" lon="4.81176">
        <ele>246</ele>
        <time>2017-07-10T09:12:32Z</time>
      </trkpt>
      <trkpt lat="45.98168" lon="4.81185">
        <ele>245</ele>
        <time>2017-07-10T09:12:34Z</time>
      </trkpt>
      <trkpt lat="45.98169" lon="4.81189">
        <ele>245</ele>
        <time>2017-07-10T09:12:35Z</time>
      </trkpt>
      <trkpt lat="45.98171" lon="4.81199">
        <ele>245</ele>
        <time>2017-07-10T09:12:37Z</time>
      </trkpt>
      <trkpt lat="45.98171" lon="4.81204">
        <ele>245</ele>
        <time>2017-07-10T09:12:38Z</time>
      </trkpt>
      <trkpt lat="45.98173" lon="4.81214">
        <ele>246</ele>
        <time>2017-07-10T09:12:40Z</time>
      </trkpt>
      <trkpt lat="45.98174" lon="4.81219">
        <ele>246</ele>
        <time>2017-07-10T09:12:41Z</time>
      </trkpt>
      <trkpt lat="45.98176" lon="4.81227">
        <ele>246</ele>
        <time>2017-07-10T09:12:43Z</time>
      </trkpt>
      <trkpt lat="45.98176" lon="4.81233">
        <ele>246</ele>
        <time>2017-07-10T09:12:44Z</time>
      </trkpt>
      <trkpt lat="45.98178" lon="4.81245">
        <ele>247</ele>
        <time>2017-07-10T09:12:46Z</time>
      </trkpt>
      <trkpt lat="45.98178" lon="4.81251">
        <ele>247</ele>
        <time>2017-07-10T09:12:47Z</time>
      </trkpt>
      <trkpt lat="45.98179" lon="4.81262">
        <ele>247</ele>
        <time>2017-07-10T09:12:49Z</time>
      </trkpt>
      <trkpt lat="45.9818" lon="4.81267">
        <ele>247</ele>
        <time>2017-07-10T09:12:50Z</time>
      </trkpt>
      <trkpt lat="45.98181" lon="4.81278">
        <ele>247</ele>
        <time>2017-07-10T09:12:52Z</time>
      </trkpt>
      <trkpt lat="45.98182" lon="4.81284">
        <ele>247</ele>
        <time>2017-07-10T09:12:53Z</time>
      </trkpt>
      <trkpt lat="45.98185" lon="4.81296">
        <ele>247</ele>
        <time>2017-07-10T09:12:55Z</time>
      </trkpt>
      <trkpt lat="45.98186" lon="4.81301">
        <ele>247</ele>
        <time>2017-07-10T09:12:56Z</time>
      </trkpt>
      <trkpt lat="45.98188" lon="4.81307">
        <ele>247</ele>
        <time>2017-07-10T09:12:57Z</time>
      </trkpt>
      <trkpt lat="45.98189" lon="4.81313">
        <ele>247</ele>
        <time>2017-07-10T09:12:58Z</time>
      </trkpt>
      <trkpt lat="45.98192" lon="4.81325">
        <ele>247</ele>
        <time>2017-07-10T09:13:00Z</time>
      </trkpt>
      <trkpt lat="45.98192" lon="4.8133">
        <ele>247</ele>
        <time>2017-07-10T09:13:01Z</time>
      </trkpt>
      <trkpt lat="45.98194" lon="4.8134">
        <ele>248</ele>
        <time>2017-07-10T09:13:03Z</time>
      </trkpt>
      <trkpt lat="45.98196" lon="4.81346">
        <ele>248</ele>
        <time>2017-07-10T09:13:04Z</time>
      </trkpt>
      <trkpt lat="45.98199" lon="4.81357">
        <ele>248</ele>
        <time>2017-07-10T09:13:06Z</time>
      </trkpt>
      <trkpt lat="45.982" lon="4.81363">
        <ele>248</ele>
        <time>2017-07-10T09:13:07Z</time>
      </trkpt>
      <trkpt lat="45.98202" lon="4.81374">
        <ele>248</ele>
        <time>2017-07-10T09:13:09Z</time>
      </trkpt>
      <trkpt lat="45.98203" lon="4.81379">
        <ele>248</ele>
        <time>2017-07-10T09:13:10Z</time>
      </trkpt>
      <trkpt lat="45.98206" lon="4.8139">
        <ele>248</ele>
        <time>2017-07-10T09:13:12Z</time>
      </trkpt>
      <trkpt lat="45.98208" lon="4.81395">
        <ele>248</ele>
        <time>2017-07-10T09:13:13Z</time>
      </trkpt>
      <trkpt lat="45.9821" lon="4.81405">
        <ele>248</ele>
        <time>2017-07-10T09:13:15Z</time>
      </trkpt>
      <trkpt lat="45.98212" lon="4.81411">
        <ele>248</ele>
        <time>2017-07-10T09:13:16Z</time>
      </trkpt>
      <trkpt lat="45.98215" lon="4.81419">
        <ele>249</ele>
        <time>2017-07-10T09:13:18Z</time>
      </trkpt>
      <trkpt lat="45.98217" lon="4.81423">
        <ele>249</ele>
        <time>2017-07-10T09:13:19Z</time>
      </trkpt>
      <trkpt lat="45.9822" lon="4.81431">
        <ele>249</ele>
        <time>2017-07-10T09:13:21Z</time>
      </trkpt>
      <trkpt lat="45.98222" lon="4.81434">
        <ele>249</ele>
        <time>2017-07-10T09:13:22Z</time>
      </trkpt>
      <trkpt lat="45.98225" lon="4.81441">
        <ele>249</ele>
        <time>2017-07-10T09:13:24Z</time>
      </trkpt>
      <trkpt lat="45.98227" lon="4.81446">
        <ele>249</ele>
        <time>2017-07-10T09:13:25Z</time>
      </trkpt>
      <trkpt lat="45.9823" lon="4.81454">
        <ele>249</ele>
        <time>2017-07-10T09:13:27Z</time>
      </trkpt>
      <trkpt lat="45.98231" lon="4.81458">
        <ele>249</ele>
        <time>2017-07-10T09:13:28Z</time>
      </trkpt>
      <trkpt lat="45.98234" lon="4.81467">
        <ele>249</ele>
        <time>2017-07-10T09:13:30Z</time>
      </trkpt>
      <trkpt lat="45.98235" lon="4.81472">
        <ele>249</ele>
        <time>2017-07-10T09:13:31Z</time>
      </trkpt>
      <trkpt lat="45.98238" lon="4.81482">
        <ele>249</ele>
        <time>2017-07-10T09:13:33Z</time>
      </trkpt>
      <trkpt lat="45.9824" lon="4.81488">
        <ele>249</ele>
        <time>2017-07-10T09:13:34Z</time>
      </trkpt>
      <trkpt lat="45.98242" lon="4.81494">
        <ele>249</ele>
        <time>2017-07-10T09:13:35Z</time>
      </trkpt>
      <trkpt lat="45.98245" lon="4.815">
        <ele>249</ele>
        <time>2017-07-10T09:13:36Z</time>
      </trkpt>
      <trkpt lat="45.98246" lon="4.81507">
        <ele>249</ele>
        <time>2017-07-10T09:13:37Z</time>
      </trkpt>
      <trkpt lat="45.98249" lon="4.81513">
        <ele>249</ele>
        <time>2017-07-10T09:13:38Z</time>
      </trkpt>
      <trkpt lat="45.98251" lon="4.81519">
        <ele>247</ele>
        <time>2017-07-10T09:13:39Z</time>
      </trkpt>
      <trkpt lat="45.98253" lon="4.81526">
        <ele>247</ele>
        <time>2017-07-10T09:13:40Z</time>
      </trkpt>
      <trkpt lat="45.98255" lon="4.81532">
        <ele>247</ele>
        <time>2017-07-10T09:13:41Z</time>
      </trkpt>
      <trkpt lat="45.98257" lon="4.81539">
        <ele>247</ele>
        <time>2017-07-10T09:13:42Z</time>
      </trkpt>
      <trkpt lat="45.98259" lon="4.81545">
        <ele>247</ele>
        <time>2017-07-10T09:13:43Z</time>
      </trkpt>
      <trkpt lat="45.98261" lon="4.81551">
        <ele>247</ele>
        <time>2017-07-10T09:13:44Z</time>
      </trkpt>
      <trkpt lat="45.98263" lon="4.81557">
        <ele>247</ele>
        <time>2017-07-10T09:13:45Z</time>
      </trkpt>
      <trkpt lat="45.98265" lon="4.81564">
        <ele>247</ele>
        <time>2017-07-10T09:13:46Z</time>
      </trkpt>
      <trkpt lat="45.98269" lon="4.81576">
        <ele>247</ele>
        <time>2017-07-10T09:13:48Z</time>
      </trkpt>
      <trkpt lat="45.98271" lon="4.81581">
        <ele>247</ele>
        <time>2017-07-10T09:13:49Z</time>
      </trkpt>
      <trkpt lat="45.98273" lon="4.81587">
        <ele>247</ele>
        <time>2017-07-10T09:13:50Z</time>
      </trkpt>
      <trkpt lat="45.98275" lon="4.81593">
        <ele>247</ele>
        <time>2017-07-10T09:13:51Z</time>
      </trkpt>
      <trkpt lat="45.98277" lon="4.81599">
        <ele>247</ele>
        <time>2017-07-10T09:13:52Z</time>
      </trkpt>
      <trkpt lat="45.9828" lon="4.81606">
        <ele>247</ele>
        <time>2017-07-10T09:13:53Z</time>
      </trkpt>
      <trkpt lat="45.98283" lon="4.81612">
        <ele>247</ele>
        <time>2017-07-10T09:13:54Z</time>
      </trkpt>
      <trkpt lat="45.98286" lon="4.81618">
        <ele>247</ele>
        <time>2017-07-10T09:13:55Z</time>
      </trkpt>
      <trkpt lat="45.98289" lon="4.81623">
        <ele>247</ele>
        <time>2017-07-10T09:13:56Z</time>
      </trkpt>
      <trkpt lat="45.98292" lon="4.81628">
        <ele>247</ele>
        <time>2017-07-10T09:13:57Z</time>
      </trkpt>
      <trkpt lat="45.98295" lon="4.81633">
        <ele>247</ele>
        <time>2017-07-10T09:13:58Z</time>
      </trkpt>
      <trkpt lat="45.98299" lon="4.81637">
        <ele>246</ele>
        <time>2017-07-10T09:13:59Z</time>
      </trkpt>
      <trkpt lat="45.98302" lon="4.81641">
        <ele>246</ele>
        <time>2017-07-10T09:14:00Z</time>
      </trkpt>
      <trkpt lat="45.98306" lon="4.81645">
        <ele>246</ele>
        <time>2017-07-10T09:14:01Z</time>
      </trkpt>
      <trkpt lat="45.9831" lon="4.81649">
        <ele>246</ele>
        <time>2017-07-10T09:14:02Z</time>
      </trkpt>
      <trkpt lat="45.98313" lon="4.81652">
        <ele>246</ele>
        <time>2017-07-10T09:14:03Z</time>
      </trkpt>
      <trkpt lat="45.98321" lon="4.8166">
        <ele>246</ele>
        <time>2017-07-10T09:14:05Z</time>
      </trkpt>
      <trkpt lat="45.98324" lon="4.81664">
        <ele>246</ele>
        <time>2017-07-10T09:14:06Z</time>
      </trkpt>
      <trkpt lat="45.98329" lon="4.81667">
        <ele>246</ele>
        <time>2017-07-10T09:14:07Z</time>
      </trkpt>
      <trkpt lat="45.98333" lon="4.8167">
        <ele>246</ele>
        <time>2017-07-10T09:14:08Z</time>
      </trkpt>
      <trkpt lat="45.98337" lon="4.81672">
        <ele>246</ele>
        <time>2017-07-10T09:14:09Z</time>
      </trkpt>
      <trkpt lat="45.98342" lon="4.81674">
        <ele>245</ele>
        <time>2017-07-10T09:14:10Z</time>
      </trkpt>
      <trkpt lat="45.98347" lon="4.81676">
        <ele>245</ele>
        <time>2017-07-10T09:14:11Z</time>
      </trkpt>
      <trkpt lat="45.98352" lon="4.81677">
        <ele>245</ele>
        <time>2017-07-10T09:14:12Z</time>
      </trkpt>
      <trkpt lat="45.98358" lon="4.81678">
        <ele>245</ele>
        <time>2017-07-10T09:14:13Z</time>
      </trkpt>
      <trkpt lat="45.98363" lon="4.81678">
        <ele>244</ele>
        <time>2017-07-10T09:14:14Z</time>
      </trkpt>
      <trkpt lat="45.98368" lon="4.81677">
        <ele>244</ele>
        <time>2017-07-10T09:14:15Z</time>
      </trkpt>
      <trkpt lat="45.98373" lon="4.81676">
        <ele>244</ele>
        <time>2017-07-10T09:14:16Z</time>
      </trkpt>
      <trkpt lat="45.98378" lon="4.81675">
        <ele>244</ele>
        <time>2017-07-10T09:14:17Z</time>
      </trkpt>
      <trkpt lat="45.98383" lon="4.81674">
        <ele>244</ele>
        <time>2017-07-10T09:14:18Z</time>
      </trkpt>
      <trkpt lat="45.98388" lon="4.81673">
        <ele>243</ele>
        <time>2017-07-10T09:14:19Z</time>
      </trkpt>
      <trkpt lat="45.98394" lon="4.81671">
        <ele>243</ele>
        <time>2017-07-10T09:14:20Z</time>
      </trkpt>
      <trkpt lat="45.98399" lon="4.81669">
        <ele>243</ele>
        <time>2017-07-10T09:14:21Z</time>
      </trkpt>
      <trkpt lat="45.98405" lon="4.81668">
        <ele>242</ele>
        <time>2017-07-10T09:14:22Z</time>
      </trkpt>
      <trkpt lat="45.9841" lon="4.81667">
        <ele>242</ele>
        <time>2017-07-10T09:14:23Z</time>
      </trkpt>
      <trkpt lat="45.98415" lon="4.81667">
        <ele>241</ele>
        <time>2017-07-10T09:14:24Z</time>
      </trkpt>
      <trkpt lat="45.9842" lon="4.81668">
        <ele>241</ele>
        <time>2017-07-10T09:14:25Z</time>
      </trkpt>
      <trkpt lat="45.98425" lon="4.81669">
        <ele>240</ele>
        <time>2017-07-10T09:14:26Z</time>
      </trkpt>
      <trkpt lat="45.9843" lon="4.81672">
        <ele>240</ele>
        <time>2017-07-10T09:14:27Z</time>
      </trkpt>
      <trkpt lat="45.98434" lon="4.81674">
        <ele>240</ele>
        <time>2017-07-10T09:14:28Z</time>
      </trkpt>
      <trkpt lat="45.98438" lon="4.81677">
        <ele>240</ele>
        <time>2017-07-10T09:14:29Z</time>
      </trkpt>
      <trkpt lat="45.98442" lon="4.81681">
        <ele>239</ele>
        <time>2017-07-10T09:14:30Z</time>
      </trkpt>
      <trkpt lat="45.98446" lon="4.81686">
        <ele>239</ele>
        <time>2017-07-10T09:14:31Z</time>
      </trkpt>
      <trkpt lat="45.98449" lon="4.81692">
        <ele>239</ele>
        <time>2017-07-10T09:14:32Z</time>
      </trkpt>
      <trkpt lat="45.98451" lon="4.81698">
        <ele>239</ele>
        <time>2017-07-10T09:14:33Z</time>
      </trkpt>
      <trkpt lat="45.98455" lon="4.81703">
        <ele>239</ele>
        <time>2017-07-10T09:14:34Z</time>
      </trkpt>
      <trkpt lat="45.98458" lon="4.81709">
        <ele>239</ele>
        <time>2017-07-10T09:14:35Z</time>
      </trkpt>
      <trkpt lat="45.98462" lon="4.81715">
        <ele>239</ele>
        <time>2017-07-10T09:14:36Z</time>
      </trkpt>
      <trkpt lat="45.98466" lon="4.81721">
        <ele>239</ele>
        <time>2017-07-10T09:14:37Z</time>
      </trkpt>
      <trkpt lat="45.98471" lon="4.81728">
        <ele>239</ele>
        <time>2017-07-10T09:14:38Z</time>
      </trkpt>
      <trkpt lat="45.98476" lon="4.81734">
        <ele>238</ele>
        <time>2017-07-10T09:14:39Z</time>
      </trkpt>
      <trkpt lat="45.98483" lon="4.81739">
        <ele>238</ele>
        <time>2017-07-10T09:14:40Z</time>
      </trkpt>
      <trkpt lat="45.98489" lon="4.81745">
        <ele>238</ele>
        <time>2017-07-10T09:14:41Z</time>
      </trkpt>
      <trkpt lat="45.98495" lon="4.81752">
        <ele>238</ele>
        <time>2017-07-10T09:14:42Z</time>
      </trkpt>
      <trkpt lat="45.98502" lon="4.81758">
        <ele>237</ele>
        <time>2017-07-10T09:14:43Z</time>
      </trkpt>
      <trkpt lat="45.98509" lon="4.81766">
        <ele>237</ele>
        <time>2017-07-10T09:14:44Z</time>
      </trkpt>
      <trkpt lat="45.98515" lon="4.81774">
        <ele>238</ele>
        <time>2017-07-10T09:14:45Z</time>
      </trkpt>
      <trkpt lat="45.98521" lon="4.81782">
        <ele>238</ele>
        <time>2017-07-10T09:14:46Z</time>
      </trkpt>
      <trkpt lat="45.98526" lon="4.81791">
        <ele>238</ele>
        <time>2017-07-10T09:14:47Z</time>
      </trkpt>
      <trkpt lat="45.98532" lon="4.81798">
        <ele>238</ele>
        <time>2017-07-10T09:14:48Z</time>
      </trkpt>
      <trkpt lat="45.98537" lon="4.81805">
        <ele>238</ele>
        <time>2017-07-10T09:14:49Z</time>
      </trkpt>
      <trkpt lat="45.98543" lon="4.81809">
        <ele>238</ele>
        <time>2017-07-10T09:14:50Z</time>
      </trkpt>
      <trkpt lat="45.9855" lon="4.81811">
        <ele>238</ele>
        <time>2017-07-10T09:14:51Z</time>
      </trkpt>
      <trkpt lat="45.98556" lon="4.8181">
        <ele>238</ele>
        <time>2017-07-10T09:14:52Z</time>
      </trkpt>
      <trkpt lat="45.98561" lon="4.81807">
        <ele>238</ele>
        <time>2017-07-10T09:14:53Z</time>
      </trkpt>
      <trkpt lat="45.98566" lon="4.81801">
        <ele>238</ele>
        <time>2017-07-10T09:14:54Z</time>
      </trkpt>
      <trkpt lat="45.98569" lon="4.81795">
        <ele>238</ele>
        <time>2017-07-10T09:14:55Z</time>
      </trkpt>
      <trkpt lat="45.98573" lon="4.81789">
        <ele>238</ele>
        <time>2017-07-10T09:14:56Z</time>
      </trkpt>
      <trkpt lat="45.98577" lon="4.81784">
        <ele>238</ele>
        <time>2017-07-10T09:14:57Z</time>
      </trkpt>
      <trkpt lat="45.98581" lon="4.81779">
        <ele>238</ele>
        <time>2017-07-10T09:14:58Z</time>
      </trkpt>
      <trkpt lat="45.98584" lon="4.81774">
        <ele>238</ele>
        <time>2017-07-10T09:14:59Z</time>
      </trkpt>
      <trkpt lat="45.98588" lon="4.8177">
        <ele>238</ele>
        <time>2017-07-10T09:15:00Z</time>
      </trkpt>
      <trkpt lat="45.98596" lon="4.81767">
        <ele>238</ele>
        <time>2017-07-10T09:15:02Z</time>
      </trkpt>
      <trkpt lat="45.98601" lon="4.81767">
        <ele>238</ele>
        <time>2017-07-10T09:15:03Z</time>
      </trkpt>
      <trkpt lat="45.98606" lon="4.81766">
        <ele>238</ele>
        <time>2017-07-10T09:15:04Z</time>
      </trkpt>
      <trkpt lat="45.9861" lon="4.81765">
        <ele>238</ele>
        <time>2017-07-10T09:15:05Z</time>
      </trkpt>
      <trkpt lat="45.98615" lon="4.81764">
        <ele>238</ele>
        <time>2017-07-10T09:15:06Z</time>
      </trkpt>
      <trkpt lat="45.9862" lon="4.81763">
        <ele>238</ele>
        <time>2017-07-10T09:15:07Z</time>
      </trkpt>
      <trkpt lat="45.98624" lon="4.81762">
        <ele>238</ele>
        <time>2017-07-10T09:15:08Z</time>
      </trkpt>
      <trkpt lat="45.98629" lon="4.81762">
        <ele>238</ele>
        <time>2017-07-10T09:15:09Z</time>
      </trkpt>
      <trkpt lat="45.98633" lon="4.81761">
        <ele>238</ele>
        <time>2017-07-10T09:15:10Z</time>
      </trkpt>
      <trkpt lat="45.98638" lon="4.81759">
        <ele>238</ele>
        <time>2017-07-10T09:15:11Z</time>
      </trkpt>
      <trkpt lat="45.98642" lon="4.81758">
        <ele>238</ele>
        <time>2017-07-10T09:15:12Z</time>
      </trkpt>
      <trkpt lat="45.98647" lon="4.81756">
        <ele>238</ele>
        <time>2017-07-10T09:15:13Z</time>
      </trkpt>
      <trkpt lat="45.98652" lon="4.81755">
        <ele>238</ele>
        <time>2017-07-10T09:15:14Z</time>
      </trkpt>
      <trkpt lat="45.98656" lon="4.81753">
        <ele>238</ele>
        <time>2017-07-10T09:15:15Z</time>
      </trkpt>
      <trkpt lat="45.98665" lon="4.8175">
        <ele>238</ele>
        <time>2017-07-10T09:15:17Z</time>
      </trkpt>
      <trkpt lat="45.98668" lon="4.81749">
        <ele>238</ele>
        <time>2017-07-10T09:15:18Z</time>
      </trkpt>
      <trkpt lat="45.98676" lon="4.81747">
        <ele>238</ele>
        <time>2017-07-10T09:15:20Z</time>
      </trkpt>
      <trkpt lat="45.98679" lon="4.81747">
        <ele>238</ele>
        <time>2017-07-10T09:15:21Z</time>
      </trkpt>
      <trkpt lat="45.98688" lon="4.81745">
        <ele>238</ele>
        <time>2017-07-10T09:15:23Z</time>
      </trkpt>
      <trkpt lat="45.98692" lon="4.81744">
        <ele>238</ele>
        <time>2017-07-10T09:15:24Z</time>
      </trkpt>
      <trkpt lat="45.987" lon="4.81743">
        <ele>239</ele>
        <time>2017-07-10T09:15:26Z</time>
      </trkpt>
      <trkpt lat="45.98705" lon="4.81742">
        <ele>239</ele>
        <time>2017-07-10T09:15:27Z</time>
      </trkpt>
      <trkpt lat="45.9871" lon="4.81741">
        <ele>239</ele>
        <time>2017-07-10T09:15:28Z</time>
      </trkpt>
      <trkpt lat="45.98715" lon="4.8174">
        <ele>239</ele>
        <time>2017-07-10T09:15:29Z</time>
      </trkpt>
      <trkpt lat="45.98724" lon="4.81742">
        <ele>239</ele>
        <time>2017-07-10T09:15:31Z</time>
      </trkpt>
      <trkpt lat="45.98727" lon="4.81744">
        <ele>239</ele>
        <time>2017-07-10T09:15:32Z</time>
      </trkpt>
      <trkpt lat="45.98734" lon="4.81752">
        <ele>240</ele>
        <time>2017-07-10T09:15:34Z</time>
      </trkpt>
      <trkpt lat="45.98736" lon="4.81756">
        <ele>240</ele>
        <time>2017-07-10T09:15:35Z</time>
      </trkpt>
      <trkpt lat="45.98739" lon="4.81762">
        <ele>240</ele>
        <time>2017-07-10T09:15:36Z</time>
      </trkpt>
      <trkpt lat="45.98742" lon="4.81767">
        <ele>240</ele>
        <time>2017-07-10T09:15:37Z</time>
      </trkpt>
      <trkpt lat="45.98744" lon="4.81773">
        <ele>240</ele>
        <time>2017-07-10T09:15:38Z</time>
      </trkpt>
      <trkpt lat="45.98747" lon="4.81778">
        <ele>240</ele>
        <time>2017-07-10T09:15:39Z</time>
      </trkpt>
      <trkpt lat="45.9875" lon="4.81783">
        <ele>240</ele>
        <time>2017-07-10T09:15:40Z</time>
      </trkpt>
      <trkpt lat="45.98753" lon="4.81789">
        <ele>241</ele>
        <time>2017-07-10T09:15:41Z</time>
      </trkpt>
      <trkpt lat="45.98756" lon="4.81795">
        <ele>240</ele>
        <time>2017-07-10T09:15:42Z</time>
      </trkpt>
      <trkpt lat="45.98759" lon="4.81801">
        <ele>240</ele>
        <time>2017-07-10T09:15:43Z</time>
      </trkpt>
      <trkpt lat="45.98762" lon="4.81808">
        <ele>240</ele>
        <time>2017-07-10T09:15:44Z</time>
      </trkpt>
      <trkpt lat="45.98764" lon="4.81814">
        <ele>240</ele>
        <time>2017-07-10T09:15:45Z</time>
      </trkpt>
      <trkpt lat="45.98767" lon="4.81821">
        <ele>240</ele>
        <time>2017-07-10T09:15:46Z</time>
      </trkpt>
      <trkpt lat="45.9877" lon="4.81829">
        <ele>240</ele>
        <time>2017-07-10T09:15:47Z</time>
      </trkpt>
      <trkpt lat="45.98773" lon="4.81836">
        <ele>239</ele>
        <time>2017-07-10T09:15:48Z</time>
      </trkpt>
      <trkpt lat="45.98776" lon="4.81843">
        <ele>239</ele>
        <time>2017-07-10T09:15:49Z</time>
      </trkpt>
      <trkpt lat="45.98779" lon="4.81849">
        <ele>239</ele>
        <time>2017-07-10T09:15:50Z</time>
      </trkpt>
      <trkpt lat="45.98783" lon="4.81856">
        <ele>239</ele>
        <time>2017-07-10T09:15:51Z</time>
      </trkpt>
      <trkpt lat="45.98786" lon="4.81864">
        <ele>239</ele>
        <time>2017-07-10T09:15:52Z</time>
      </trkpt>
      <trkpt lat="45.98789" lon="4.81871">
        <ele>239</ele>
        <time>2017-07-10T09:15:53Z</time>
      </trkpt>
      <trkpt lat="45.98792" lon="4.81879">
        <ele>239</ele>
        <time>2017-07-10T09:15:54Z</time>
      </trkpt>
      <trkpt lat="45.98794" lon="4.81886">
        <ele>239</ele>
        <time>2017-07-10T09:15:55Z</time>
      </trkpt>
      <trkpt lat="45.98797" lon="4.81895">
        <ele>239</ele>
        <time>2017-07-10T09:15:56Z</time>
      </trkpt>
      <trkpt lat="45.98799" lon="4.81903">
        <ele>239</ele>
        <time>2017-07-10T09:15:57Z</time>
      </trkpt>
      <trkpt lat="45.98801" lon="4.8191">
        <ele>239</ele>
        <time>2017-07-10T09:15:58Z</time>
      </trkpt>
      <trkpt lat="45.98803" lon="4.81919">
        <ele>239</ele>
        <time>2017-07-10T09:15:59Z</time>
      </trkpt>
      <trkpt lat="45.98805" lon="4.81926">
        <ele>239</ele>
        <time>2017-07-10T09:16:00Z</time>
      </trkpt>
      <trkpt lat="45.98807" lon="4.81933">
        <ele>239</ele>
        <time>2017-07-10T09:16:01Z</time>
      </trkpt>
      <trkpt lat="45.98808" lon="4.8194">
        <ele>239</ele>
        <time>2017-07-10T09:16:02Z</time>
      </trkpt>
      <trkpt lat="45.9881" lon="4.81947">
        <ele>239</ele>
        <time>2017-07-10T09:16:03Z</time>
      </trkpt>
      <trkpt lat="45.98811" lon="4.81954">
        <ele>239</ele>
        <time>2017-07-10T09:16:04Z</time>
      </trkpt>
      <trkpt lat="45.98812" lon="4.81961">
        <ele>239</ele>
        <time>2017-07-10T09:16:05Z</time>
      </trkpt>
      <trkpt lat="45.98812" lon="4.81968">
        <ele>239</ele>
        <time>2017-07-10T09:16:06Z</time>
      </trkpt>
      <trkpt lat="45.98814" lon="4.81975">
        <ele>239</ele>
        <time>2017-07-10T09:16:07Z</time>
      </trkpt>
      <trkpt lat="45.98815" lon="4.81982">
        <ele>239</ele>
        <time>2017-07-10T09:16:08Z</time>
      </trkpt>
      <trkpt lat="45.98817" lon="4.81989">
        <ele>238</ele>
        <time>2017-07-10T09:16:09Z</time>
      </trkpt>
      <trkpt lat="45.98818" lon="4.81997">
        <ele>238</ele>
        <time>2017-07-10T09:16:10Z</time>
      </trkpt>
      <trkpt lat="45.98818" lon="4.82006">
        <ele>238</ele>
        <time>2017-07-10T09:16:11Z</time>
      </trkpt>
      <trkpt lat="45.9882" lon="4.82014">
        <ele>238</ele>
        <time>2017-07-10T09:16:12Z</time>
      </trkpt>
      <trkpt lat="45.98821" lon="4.82022">
        <ele>238</ele>
        <time>2017-07-10T09:16:13Z</time>
      </trkpt>
      <trkpt lat="45.98823" lon="4.8203">
        <ele>238</ele>
        <time>2017-07-10T09:16:14Z</time>
      </trkpt>
      <trkpt lat="45.98824" lon="4.82038">
        <ele>238</ele>
        <time>2017-07-10T09:16:15Z</time>
      </trkpt>
      <trkpt lat="45.98826" lon="4.82046">
        <ele>238</ele>
        <time>2017-07-10T09:16:16Z</time>
      </trkpt>
      <trkpt lat="45.98827" lon="4.82054">
        <ele>237</ele>
        <time>2017-07-10T09:16:17Z</time>
      </trkpt>
      <trkpt lat="45.98828" lon="4.82062">
        <ele>237</ele>
        <time>2017-07-10T09:16:18Z</time>
      </trkpt>
      <trkpt lat="45.9883" lon="4.82069">
        <ele>237</ele>
        <time>2017-07-10T09:16:19Z</time>
      </trkpt>
      <trkpt lat="45.98831" lon="4.82076">
        <ele>237</ele>
        <time>2017-07-10T09:16:20Z</time>
      </trkpt>
      <trkpt lat="45.98832" lon="4.82084">
        <ele>236</ele>
        <time>2017-07-10T09:16:21Z</time>
      </trkpt>
      <trkpt lat="45.98834" lon="4.82091">
        <ele>236</ele>
        <time>2017-07-10T09:16:22Z</time>
      </trkpt>
      <trkpt lat="45.98836" lon="4.82098">
        <ele>236</ele>
        <time>2017-07-10T09:16:23Z</time>
      </trkpt>
      <trkpt lat="45.98837" lon="4.82104">
        <ele>236</ele>
        <time>2017-07-10T09:16:24Z</time>
      </trkpt>
      <trkpt lat="45.98839" lon="4.82111">
        <ele>235</ele>
        <time>2017-07-10T09:16:25Z</time>
      </trkpt>
      <trkpt lat="45.9884" lon="4.82119">
        <ele>235</ele>
        <time>2017-07-10T09:16:26Z</time>
      </trkpt>
      <trkpt lat="45.98841" lon="4.82126">
        <ele>236</ele>
        <time>2017-07-10T09:16:27Z</time>
      </trkpt>
      <trkpt lat="45.98843" lon="4.82133">
        <ele>236</ele>
        <time>2017-07-10T09:16:28Z</time>
      </trkpt>
      <trkpt lat="45.98844" lon="4.8214">
        <ele>236</ele>
        <time>2017-07-10T09:16:29Z</time>
      </trkpt>
      <trkpt lat="45.98846" lon="4.82146">
        <ele>236</ele>
        <time>2017-07-10T09:16:30Z</time>
      </trkpt>
      <trkpt lat="45.98848" lon="4.82153">
        <ele>236</ele>
        <time>2017-07-10T09:16:31Z</time>
      </trkpt>
      <trkpt lat="45.9885" lon="4.82161">
        <ele>236</ele>
        <time>2017-07-10T09:16:32Z</time>
      </trkpt>
      <trkpt lat="45.98852" lon="4.82168">
        <ele>236</ele>
        <time>2017-07-10T09:16:33Z</time>
      </trkpt>
      <trkpt lat="45.98854" lon="4.82176">
        <ele>236</ele>
        <time>2017-07-10T09:16:34Z</time>
      </trkpt>
      <trkpt lat="45.98857" lon="4.82182">
        <ele>236</ele>
        <time>2017-07-10T09:16:35Z</time>
      </trkpt>
      <trkpt lat="45.98859" lon="4.82189">
        <ele>236</ele>
        <time>2017-07-10T09:16:36Z</time>
      </trkpt>
      <trkpt lat="45.98862" lon="4.82196">
        <ele>236</ele>
        <time>2017-07-10T09:16:37Z</time>
      </trkpt>
      <trkpt lat="45.98864" lon="4.82203">
        <ele>236</ele>
        <time>2017-07-10T09:16:38Z</time>
      </trkpt>
      <trkpt lat="45.98867" lon="4.8221">
        <ele>236</ele>
        <time>2017-07-10T09:16:39Z</time>
      </trkpt>
      <trkpt lat="45.9887" lon="4.82217">
        <ele>236</ele>
        <time>2017-07-10T09:16:40Z</time>
      </trkpt>
      <trkpt lat="45.98873" lon="4.82224">
        <ele>236</ele>
        <time>2017-07-10T09:16:41Z</time>
      </trkpt>
      <trkpt lat="45.98876" lon="4.8223">
        <ele>236</ele>
        <time>2017-07-10T09:16:42Z</time>
      </trkpt>
      <trkpt lat="45.98878" lon="4.82237">
        <ele>236</ele>
        <time>2017-07-10T09:16:43Z</time>
      </trkpt>
      <trkpt lat="45.98881" lon="4.82243">
        <ele>236</ele>
        <time>2017-07-10T09:16:44Z</time>
      </trkpt>
      <trkpt lat="45.98884" lon="4.82249">
        <ele>236</ele>
        <time>2017-07-10T09:16:45Z</time>
      </trkpt>
      <trkpt lat="45.98886" lon="4.82255">
        <ele>236</ele>
        <time>2017-07-10T09:16:46Z</time>
      </trkpt>
      <trkpt lat="45.98889" lon="4.82261">
        <ele>236</ele>
        <time>2017-07-10T09:16:47Z</time>
      </trkpt>
      <trkpt lat="45.98892" lon="4.82267">
        <ele>236</ele>
        <time>2017-07-10T09:16:48Z</time>
      </trkpt>
      <trkpt lat="45.98896" lon="4.82273">
        <ele>236</ele>
        <time>2017-07-10T09:16:49Z</time>
      </trkpt>
      <trkpt lat="45.98899" lon="4.82278">
        <ele>236</ele>
        <time>2017-07-10T09:16:50Z</time>
      </trkpt>
      <trkpt lat="45.98904" lon="4.82283">
        <ele>236</ele>
        <time>2017-07-10T09:16:51Z</time>
      </trkpt>
      <trkpt lat="45.98908" lon="4.82288">
        <ele>236</ele>
        <time>2017-07-10T09:16:52Z</time>
      </trkpt>
      <trkpt lat="45.98912" lon="4.82293">
        <ele>236</ele>
        <time>2017-07-10T09:16:53Z</time>
      </trkpt>
      <trkpt lat="45.98917" lon="4.82297">
        <ele>236</ele>
        <time>2017-07-10T09:16:54Z</time>
      </trkpt>
      <trkpt lat="45.98921" lon="4.82302">
        <ele>234</ele>
        <time>2017-07-10T09:16:55Z</time>
      </trkpt>
      <trkpt lat="45.98925" lon="4.82308">
        <ele>234</ele>
        <time>2017-07-10T09:16:56Z</time>
      </trkpt>
      <trkpt lat="45.9893" lon="4.82313">
        <ele>235</ele>
        <time>2017-07-10T09:16:57Z</time>
      </trkpt>
      <trkpt lat="45.98934" lon="4.82317">
        <ele>235</ele>
        <time>2017-07-10T09:16:58Z</time>
      </trkpt>
      <trkpt lat="45.98938" lon="4.82322">
        <ele>235</ele>
        <time>2017-07-10T09:16:59Z</time>
      </trkpt>
      <trkpt lat="45.98941" lon="4.82327">
        <ele>234</ele>
        <time>2017-07-10T09:17:00Z</time>
      </trkpt>
      <trkpt lat="45.98945" lon="4.82331">
        <ele>234</ele>
        <time>2017-07-10T09:17:01Z</time>
      </trkpt>
      <trkpt lat="45.98948" lon="4.82336">
        <ele>235</ele>
        <time>2017-07-10T09:17:02Z</time>
      </trkpt>
      <trkpt lat="45.98951" lon="4.82341">
        <ele>235</ele>
        <time>2017-07-10T09:17:03Z</time>
      </trkpt>
      <trkpt lat="45.98954" lon="4.82346">
        <ele>235</ele>
        <time>2017-07-10T09:17:04Z</time>
      </trkpt>
      <trkpt lat="45.98957" lon="4.82352">
        <ele>235</ele>
        <time>2017-07-10T09:17:05Z</time>
      </trkpt>
      <trkpt lat="45.98959" lon="4.82358">
        <ele>235</ele>
        <time>2017-07-10T09:17:06Z</time>
      </trkpt>
      <trkpt lat="45.98962" lon="4.82365">
        <ele>235</ele>
        <time>2017-07-10T09:17:07Z</time>
      </trkpt>
      <trkpt lat="45.98964" lon="4.82373">
        <ele>235</ele>
        <time>2017-07-10T09:17:08Z</time>
      </trkpt>
      <trkpt lat="45.98966" lon="4.8238">
        <ele>235</ele>
        <time>2017-07-10T09:17:09Z</time>
      </trkpt>
      <trkpt lat="45.98968" lon="4.82388">
        <ele>235</ele>
        <time>2017-07-10T09:17:10Z</time>
      </trkpt>
      <trkpt lat="45.9897" lon="4.82395">
        <ele>235</ele>
        <time>2017-07-10T09:17:11Z</time>
      </trkpt>
      <trkpt lat="45.98971" lon="4.82402">
        <ele>235</ele>
        <time>2017-07-10T09:17:12Z</time>
      </trkpt>
      <trkpt lat="45.98973" lon="4.8241">
        <ele>235</ele>
        <time>2017-07-10T09:17:13Z</time>
      </trkpt>
      <trkpt lat="45.98975" lon="4.82417">
        <ele>236</ele>
        <time>2017-07-10T09:17:14Z</time>
      </trkpt>
      <trkpt lat="45.98977" lon="4.82425">
        <ele>236</ele>
        <time>2017-07-10T09:17:15Z</time>
      </trkpt>
      <trkpt lat="45.98979" lon="4.82432">
        <ele>236</ele>
        <time>2017-07-10T09:17:16Z</time>
      </trkpt>
      <trkpt lat="45.98981" lon="4.82439">
        <ele>236</ele>
        <time>2017-07-10T09:17:17Z</time>
      </trkpt>
      <trkpt lat="45.98983" lon="4.82446">
        <ele>236</ele>
        <time>2017-07-10T09:17:18Z</time>
      </trkpt>
      <trkpt lat="45.98984" lon="4.82452">
        <ele>236</ele>
        <time>2017-07-10T09:17:19Z</time>
      </trkpt>
      <trkpt lat="45.98986" lon="4.82458">
        <ele>236</ele>
        <time>2017-07-10T09:17:20Z</time>
      </trkpt>
      <trkpt lat="45.98987" lon="4.82465">
        <ele>236</ele>
        <time>2017-07-10T09:17:21Z</time>
      </trkpt>
      <trkpt lat="45.98989" lon="4.82471">
        <ele>236</ele>
        <time>2017-07-10T09:17:22Z</time>
      </trkpt>
      <trkpt lat="45.98991" lon="4.82477">
        <ele>236</ele>
        <time>2017-07-10T09:17:23Z</time>
      </trkpt>
      <trkpt lat="45.98993" lon="4.82483">
        <ele>236</ele>
        <time>2017-07-10T09:17:24Z</time>
      </trkpt>
      <trkpt lat="45.98996" lon="4.8249">
        <ele>236</ele>
        <time>2017-07-10T09:17:25Z</time>
      </trkpt>
      <trkpt lat="45.98999" lon="4.82497">
        <ele>235</ele>
        <time>2017-07-10T09:17:26Z</time>
      </trkpt>
      <trkpt lat="45.99002" lon="4.82504">
        <ele>235</ele>
        <time>2017-07-10T09:17:27Z</time>
      </trkpt>
      <trkpt lat="45.99006" lon="4.82511">
        <ele>235</ele>
        <time>2017-07-10T09:17:28Z</time>
      </trkpt>
      <trkpt lat="45.99009" lon="4.82518">
        <ele>235</ele>
        <time>2017-07-10T09:17:29Z</time>
      </trkpt>
      <trkpt lat="45.99012" lon="4.82524">
        <ele>235</ele>
        <time>2017-07-10T09:17:30Z</time>
      </trkpt>
      <trkpt lat="45.99016" lon="4.8253">
        <ele>235</ele>
        <time>2017-07-10T09:17:31Z</time>
      </trkpt>
      <trkpt lat="45.9902" lon="4.82535">
        <ele>235</ele>
        <time>2017-07-10T09:17:32Z</time>
      </trkpt>
      <trkpt lat="45.99024" lon="4.82539">
        <ele>235</ele>
        <time>2017-07-10T09:17:33Z</time>
      </trkpt>
      <trkpt lat="45.99028" lon="4.82544">
        <ele>235</ele>
        <time>2017-07-10T09:17:34Z</time>
      </trkpt>
      <trkpt lat="45.99032" lon="4.82549">
        <ele>235</ele>
        <time>2017-07-10T09:17:35Z</time>
      </trkpt>
      <trkpt lat="45.99036" lon="4.82554">
        <ele>235</ele>
        <time>2017-07-10T09:17:36Z</time>
      </trkpt>
      <trkpt lat="45.9904" lon="4.82557">
        <ele>235</ele>
        <time>2017-07-10T09:17:37Z</time>
      </trkpt>
      <trkpt lat="45.99045" lon="4.82561">
        <ele>235</ele>
        <time>2017-07-10T09:17:38Z</time>
      </trkpt>
      <trkpt lat="45.9905" lon="4.82565">
        <ele>235</ele>
        <time>2017-07-10T09:17:39Z</time>
      </trkpt>
      <trkpt lat="45.99055" lon="4.82568">
        <ele>235</ele>
        <time>2017-07-10T09:17:40Z</time>
      </trkpt>
      <trkpt lat="45.99059" lon="4.8257">
        <ele>235</ele>
        <time>2017-07-10T09:17:41Z</time>
      </trkpt>
      <trkpt lat="45.99064" lon="4.82572">
        <ele>235</ele>
        <time>2017-07-10T09:17:42Z</time>
      </trkpt>
      <trkpt lat="45.99068" lon="4.82574">
        <ele>235</ele>
        <time>2017-07-10T09:17:43Z</time>
      </trkpt>
      <trkpt lat="45.99076" lon="4.82579">
        <ele>235</ele>
        <time>2017-07-10T09:17:45Z</time>
      </trkpt>
      <trkpt lat="45.99078" lon="4.82582">
        <ele>235</ele>
        <time>2017-07-10T09:17:46Z</time>
      </trkpt>
      <trkpt lat="45.99075" lon="4.82594">
        <ele>235</ele>
        <time>2017-07-10T09:17:49Z</time>
      </trkpt>
      <trkpt lat="45.99073" lon="4.82598">
        <ele>235</ele>
        <time>2017-07-10T09:17:50Z</time>
      </trkpt>
      <trkpt lat="45.99069" lon="4.82607">
        <ele>236</ele>
        <time>2017-07-10T09:17:52Z</time>
      </trkpt>
      <trkpt lat="45.99067" lon="4.82612">
        <ele>236</ele>
        <time>2017-07-10T09:17:53Z</time>
      </trkpt>
      <trkpt lat="45.99062" lon="4.82621">
        <ele>236</ele>
        <time>2017-07-10T09:17:55Z</time>
      </trkpt>
      <trkpt lat="45.9906" lon="4.82626">
        <ele>236</ele>
        <time>2017-07-10T09:17:56Z</time>
      </trkpt>
      <trkpt lat="45.99056" lon="4.82635">
        <ele>236</ele>
        <time>2017-07-10T09:17:58Z</time>
      </trkpt>
      <trkpt lat="45.99054" lon="4.82639">
        <ele>236</ele>
        <time>2017-07-10T09:17:59Z</time>
      </trkpt>
      <trkpt lat="45.99051" lon="4.82649">
        <ele>236</ele>
        <time>2017-07-10T09:18:01Z</time>
      </trkpt>
      <trkpt lat="45.99049" lon="4.82653">
        <ele>236</ele>
        <time>2017-07-10T09:18:02Z</time>
      </trkpt>
      <trkpt lat="45.99045" lon="4.82662">
        <ele>236</ele>
        <time>2017-07-10T09:18:04Z</time>
      </trkpt>
      <trkpt lat="45.99044" lon="4.82666">
        <ele>236</ele>
        <time>2017-07-10T09:18:05Z</time>
      </trkpt>
      <trkpt lat="45.9904" lon="4.82674">
        <ele>238</ele>
        <time>2017-07-10T09:18:07Z</time>
      </trkpt>
      <trkpt lat="45.99038" lon="4.82679">
        <ele>238</ele>
        <time>2017-07-10T09:18:08Z</time>
      </trkpt>
      <trkpt lat="45.99034" lon="4.82687">
        <ele>238</ele>
        <time>2017-07-10T09:18:10Z</time>
      </trkpt>
      <trkpt lat="45.99033" lon="4.8269">
        <ele>238</ele>
        <time>2017-07-10T09:18:11Z</time>
      </trkpt>
      <trkpt lat="45.99029" lon="4.82698">
        <ele>238</ele>
        <time>2017-07-10T09:18:13Z</time>
      </trkpt>
      <trkpt lat="45.99027" lon="4.82702">
        <ele>238</ele>
        <time>2017-07-10T09:18:14Z</time>
      </trkpt>
      <trkpt lat="45.99023" lon="4.8271">
        <ele>238</ele>
        <time>2017-07-10T09:18:16Z</time>
      </trkpt>
      <trkpt lat="45.99021" lon="4.82714">
        <ele>239</ele>
        <time>2017-07-10T09:18:17Z</time>
      </trkpt>
      <trkpt lat="45.99017" lon="4.82721">
        <ele>239</ele>
        <time>2017-07-10T09:18:19Z</time>
      </trkpt>
      <trkpt lat="45.99015" lon="4.82725">
        <ele>239</ele>
        <time>2017-07-10T09:18:20Z</time>
      </trkpt>
      <trkpt lat="45.99012" lon="4.82732">
        <ele>239</ele>
        <time>2017-07-10T09:18:22Z</time>
      </trkpt>
      <trkpt lat="45.99011" lon="4.82736">
        <ele>239</ele>
        <time>2017-07-10T09:18:23Z</time>
      </trkpt>
      <trkpt lat="45.99006" lon="4.82746">
        <ele>240</ele>
        <time>2017-07-10T09:18:26Z</time>
      </trkpt>
      <trkpt lat="45.99004" lon="4.82749">
        <ele>241</ele>
        <time>2017-07-10T09:18:27Z</time>
      </trkpt>
      <trkpt lat="45.98999" lon="4.8276">
        <ele>243</ele>
        <time>2017-07-10T09:18:30Z</time>
      </trkpt>
      <trkpt lat="45.98998" lon="4.82764">
        <ele>244</ele>
        <time>2017-07-10T09:18:31Z</time>
      </trkpt>
      <trkpt lat="45.98994" lon="4.82773">
        <ele>246</ele>
        <time>2017-07-10T09:18:34Z</time>
      </trkpt>
      <trkpt lat="45.98993" lon="4.82775">
        <ele>246</ele>
        <time>2017-07-10T09:18:35Z</time>
      </trkpt>
      <trkpt lat="45.98988" lon="4.82786">
        <ele>247</ele>
        <time>2017-07-10T09:18:39Z</time>
      </trkpt>
      <trkpt lat="45.98987" lon="4.82788">
        <ele>247</ele>
        <time>2017-07-10T09:18:40Z</time>
      </trkpt>
      <trkpt lat="45.98982" lon="4.82799">
        <ele>248</ele>
        <time>2017-07-10T09:18:44Z</time>
      </trkpt>
      <trkpt lat="45.98981" lon="4.82802">
        <ele>248</ele>
        <time>2017-07-10T09:18:45Z</time>
      </trkpt>
      <trkpt lat="45.98977" lon="4.8281">
        <ele>248</ele>
        <time>2017-07-10T09:18:48Z</time>
      </trkpt>
      <trkpt lat="45.98975" lon="4.82813">
        <ele>248</ele>
        <time>2017-07-10T09:18:49Z</time>
      </trkpt>
      <trkpt lat="45.98971" lon="4.8282">
        <ele>249</ele>
        <time>2017-07-10T09:18:52Z</time>
      </trkpt>
      <trkpt lat="45.98969" lon="4.82823">
        <ele>249</ele>
        <time>2017-07-10T09:18:53Z</time>
      </trkpt>
      <trkpt lat="45.98966" lon="4.82835">
        <ele>252</ele>
        <time>2017-07-10T09:18:57Z</time>
      </trkpt>
      <trkpt lat="45.98964" lon="4.82838">
        <ele>252</ele>
        <time>2017-07-10T09:18:58Z</time>
      </trkpt>
      <trkpt lat="45.98961" lon="4.82847">
        <ele>252</ele>
        <time>2017-07-10T09:19:01Z</time>
      </trkpt>
      <trkpt lat="45.98959" lon="4.8285">
        <ele>252</ele>
        <time>2017-07-10T09:19:02Z</time>
      </trkpt>
      <trkpt lat="45.98955" lon="4.82859">
        <ele>252</ele>
        <time>2017-07-10T09:19:05Z</time>
      </trkpt>
      <trkpt lat="45.98954" lon="4.82862">
        <ele>252</ele>
        <time>2017-07-10T09:19:06Z</time>
      </trkpt>
      <trkpt lat="45.9895" lon="4.82871">
        <ele>253</ele>
        <time>2017-07-10T09:19:10Z</time>
      </trkpt>
      <trkpt lat="45.98949" lon="4.82874">
        <ele>253</ele>
        <time>2017-07-10T09:19:11Z</time>
      </trkpt>
      <trkpt lat="45.98944" lon="4.82884">
        <ele>253</ele>
        <time>2017-07-10T09:19:15Z</time>
      </trkpt>
      <trkpt lat="45.98943" lon="4.82887">
        <ele>253</ele>
        <time>2017-07-10T09:19:16Z</time>
      </trkpt>
      <trkpt lat="45.98939" lon="4.82895">
        <ele>253</ele>
        <time>2017-07-10T09:19:19Z</time>
      </trkpt>
      <trkpt lat="45.98937" lon="4.82897">
        <ele>253</ele>
        <time>2017-07-10T09:19:20Z</time>
      </trkpt>
      <trkpt lat="45.98933" lon="4.82905">
        <ele>254</ele>
        <time>2017-07-10T09:19:23Z</time>
      </trkpt>
      <trkpt lat="45.98932" lon="4.82908">
        <ele>254</ele>
        <time>2017-07-10T09:19:24Z</time>
      </trkpt>
      <trkpt lat="45.98928" lon="4.82918">
        <ele>255</ele>
        <time>2017-07-10T09:19:28Z</time>
      </trkpt>
      <trkpt lat="45.98928" lon="4.82921">
        <ele>255</ele>
        <time>2017-07-10T09:19:29Z</time>
      </trkpt>
      <trkpt lat="45.98923" lon="4.8293">
        <ele>255</ele>
        <time>2017-07-10T09:19:33Z</time>
      </trkpt>
      <trkpt lat="45.98922" lon="4.82933">
        <ele>255</ele>
        <time>2017-07-10T09:19:34Z</time>
      </trkpt>
      <trkpt lat="45.98918" lon="4.82942">
        <ele>255</ele>
        <time>2017-07-10T09:19:38Z</time>
      </trkpt>
      <trkpt lat="45.98917" lon="4.82944">
        <ele>258</ele>
        <time>2017-07-10T09:19:39Z</time>
      </trkpt>
      <trkpt lat="45.98912" lon="4.82954">
        <ele>258</ele>
        <time>2017-07-10T09:19:43Z</time>
      </trkpt>
      <trkpt lat="45.98911" lon="4.82957">
        <ele>258</ele>
        <time>2017-07-10T09:19:44Z</time>
      </trkpt>
      <trkpt lat="45.98905" lon="4.82965">
        <ele>259</ele>
        <time>2017-07-10T09:19:48Z</time>
      </trkpt>
      <trkpt lat="45.98903" lon="4.82967">
        <ele>259</ele>
        <time>2017-07-10T09:19:49Z</time>
      </trkpt>
      <trkpt lat="45.98897" lon="4.82974">
        <ele>259</ele>
        <time>2017-07-10T09:19:53Z</time>
      </trkpt>
      <trkpt lat="45.98895" lon="4.82976">
        <ele>259</ele>
        <time>2017-07-10T09:19:54Z</time>
      </trkpt>
      <trkpt lat="45.98889" lon="4.8298">
        <ele>259</ele>
        <time>2017-07-10T09:19:58Z</time>
      </trkpt>
      <trkpt lat="45.98887" lon="4.82982">
        <ele>259</ele>
        <time>2017-07-10T09:19:59Z</time>
      </trkpt>
      <trkpt lat="45.98882" lon="4.82989">
        <ele>259</ele>
        <time>2017-07-10T09:20:02Z</time>
      </trkpt>
      <trkpt lat="45.9888" lon="4.8299">
        <ele>260</ele>
        <time>2017-07-10T09:20:03Z</time>
      </trkpt>
      <trkpt lat="45.98873" lon="4.82996">
        <ele>260</ele>
        <time>2017-07-10T09:20:07Z</time>
      </trkpt>
      <trkpt lat="45.98872" lon="4.82997">
        <ele>260</ele>
        <time>2017-07-10T09:20:08Z</time>
      </trkpt>
      <trkpt lat="45.98864" lon="4.83001">
        <ele>260</ele>
        <time>2017-07-10T09:20:12Z</time>
      </trkpt>
      <trkpt lat="45.98862" lon="4.83003">
        <ele>260</ele>
        <time>2017-07-10T09:20:13Z</time>
      </trkpt>
      <trkpt lat="45.98856" lon="4.83008">
        <ele>261</ele>
        <time>2017-07-10T09:20:16Z</time>
      </trkpt>
      <trkpt lat="45.98854" lon="4.83009">
        <ele>261</ele>
        <time>2017-07-10T09:20:17Z</time>
      </trkpt>
      <trkpt lat="45.98848" lon="4.83014">
        <ele>261</ele>
        <time>2017-07-10T09:20:20Z</time>
      </trkpt>
      <trkpt lat="45.98846" lon="4.83015">
        <ele>261</ele>
        <time>2017-07-10T09:20:21Z</time>
      </trkpt>
      <trkpt lat="45.98839" lon="4.83019">
        <ele>261</ele>
        <time>2017-07-10T09:20:24Z</time>
      </trkpt>
      <trkpt lat="45.98837" lon="4.8302">
        <ele>261</ele>
        <time>2017-07-10T09:20:25Z</time>
      </trkpt>
      <trkpt lat="45.98829" lon="4.83024">
        <ele>264</ele>
        <time>2017-07-10T09:20:29Z</time>
      </trkpt>
      <trkpt lat="45.98827" lon="4.83026">
        <ele>264</ele>
        <time>2017-07-10T09:20:30Z</time>
      </trkpt>
      <trkpt lat="45.9882" lon="4.83029">
        <ele>264</ele>
        <time>2017-07-10T09:20:33Z</time>
      </trkpt>
      <trkpt lat="45.98818" lon="4.83031">
        <ele>264</ele>
        <time>2017-07-10T09:20:34Z</time>
      </trkpt>
      <trkpt lat="45.98812" lon="4.83037">
        <ele>264</ele>
        <time>2017-07-10T09:20:37Z</time>
      </trkpt>
      <trkpt lat="45.9881" lon="4.83039">
        <ele>264</ele>
        <time>2017-07-10T09:20:38Z</time>
      </trkpt>
      <trkpt lat="45.98804" lon="4.83043">
        <ele>264</ele>
        <time>2017-07-10T09:20:41Z</time>
      </trkpt>
      <trkpt lat="45.98802" lon="4.83045">
        <ele>264</ele>
        <time>2017-07-10T09:20:42Z</time>
      </trkpt>
      <trkpt lat="45.98796" lon="4.83053">
        <ele>264</ele>
        <time>2017-07-10T09:20:45Z</time>
      </trkpt>
      <trkpt lat="45.98794" lon="4.83055">
        <ele>265</ele>
        <time>2017-07-10T09:20:46Z</time>
      </trkpt>
      <trkpt lat="45.98788" lon="4.83061">
        <ele>265</ele>
        <time>2017-07-10T09:20:49Z</time>
      </trkpt>
      <trkpt lat="45.98786" lon="4.83063">
        <ele>265</ele>
        <time>2017-07-10T09:20:50Z</time>
      </trkpt>
      <trkpt lat="45.98779" lon="4.83068">
        <ele>265</ele>
        <time>2017-07-10T09:20:53Z</time>
      </trkpt>
      <trkpt lat="45.98776" lon="4.8307">
        <ele>265</ele>
        <time>2017-07-10T09:20:54Z</time>
      </trkpt>
      <trkpt lat="45.98769" lon="4.83077">
        <ele>266</ele>
        <time>2017-07-10T09:20:57Z</time>
      </trkpt>
      <trkpt lat="45.98767" lon="4.83079">
        <ele>266</ele>
        <time>2017-07-10T09:20:58Z</time>
      </trkpt>
      <trkpt lat="45.98761" lon="4.83085">
        <ele>266</ele>
        <time>2017-07-10T09:21:01Z</time>
      </trkpt>
      <trkpt lat="45.98758" lon="4.83088">
        <ele>266</ele>
        <time>2017-07-10T09:21:02Z</time>
      </trkpt>
      <trkpt lat="45.98753" lon="4.83093">
        <ele>266</ele>
        <time>2017-07-10T09:21:04Z</time>
      </trkpt>
      <trkpt lat="45.98751" lon="4.83096">
        <ele>266</ele>
        <time>2017-07-10T09:21:05Z</time>
      </trkpt>
      <trkpt lat="45.98744" lon="4.83102">
        <ele>267</ele>
        <time>2017-07-10T09:21:08Z</time>
      </trkpt>
      <trkpt lat="45.98741" lon="4.83103">
        <ele>267</ele>
        <time>2017-07-10T09:21:09Z</time>
      </trkpt>
      <trkpt lat="45.98735" lon="4.83109">
        <ele>267</ele>
        <time>2017-07-10T09:21:12Z</time>
      </trkpt>
      <trkpt lat="45.98732" lon="4.83111">
        <ele>267</ele>
        <time>2017-07-10T09:21:13Z</time>
      </trkpt>
      <trkpt lat="45.98727" lon="4.83117">
        <ele>267</ele>
        <time>2017-07-10T09:21:15Z</time>
      </trkpt>
      <trkpt lat="45.98725" lon="4.83119">
        <ele>266</ele>
        <time>2017-07-10T09:21:16Z</time>
      </trkpt>
      <trkpt lat="45.98717" lon="4.83124">
        <ele>266</ele>
        <time>2017-07-10T09:21:19Z</time>
      </trkpt>
      <trkpt lat="45.98714" lon="4.83125">
        <ele>266</ele>
        <time>2017-07-10T09:21:20Z</time>
      </trkpt>
      <trkpt lat="45.98708" lon="4.8313">
        <ele>266</ele>
        <time>2017-07-10T09:21:22Z</time>
      </trkpt>
      <trkpt lat="45.98705" lon="4.83132">
        <ele>266</ele>
        <time>2017-07-10T09:21:23Z</time>
      </trkpt>
      <trkpt lat="45.987" lon="4.83136">
        <ele>266</ele>
        <time>2017-07-10T09:21:25Z</time>
      </trkpt>
      <trkpt lat="45.98697" lon="4.83138">
        <ele>266</ele>
        <time>2017-07-10T09:21:26Z</time>
      </trkpt>
      <trkpt lat="45.98689" lon="4.83144">
        <ele>266</ele>
        <time>2017-07-10T09:21:29Z</time>
      </trkpt>
      <trkpt lat="45.98686" lon="4.83146">
        <ele>266</ele>
        <time>2017-07-10T09:21:30Z</time>
      </trkpt>
      <trkpt lat="45.98681" lon="4.83149">
        <ele>266</ele>
        <time>2017-07-10T09:21:32Z</time>
      </trkpt>
      <trkpt lat="45.98678" lon="4.83151">
        <ele>266</ele>
        <time>2017-07-10T09:21:33Z</time>
      </trkpt>
      <trkpt lat="45.9867" lon="4.83157">
        <ele>266</ele>
        <time>2017-07-10T09:21:36Z</time>
      </trkpt>
      <trkpt lat="45.98668" lon="4.83159">
        <ele>266</ele>
        <time>2017-07-10T09:21:37Z</time>
      </trkpt>
      <trkpt lat="45.98662" lon="4.83165">
        <ele>266</ele>
        <time>2017-07-10T09:21:39Z</time>
      </trkpt>
      <trkpt lat="45.98659" lon="4.83167">
        <ele>266</ele>
        <time>2017-07-10T09:21:40Z</time>
      </trkpt>
      <trkpt lat="45.98653" lon="4.83173">
        <ele>267</ele>
        <time>2017-07-10T09:21:42Z</time>
      </trkpt>
      <trkpt lat="45.9865" lon="4.83176">
        <ele>267</ele>
        <time>2017-07-10T09:21:43Z</time>
      </trkpt>
      <trkpt lat="45.98644" lon="4.83182">
        <ele>267</ele>
        <time>2017-07-10T09:21:45Z</time>
      </trkpt>
      <trkpt lat="45.98641" lon="4.83185">
        <ele>267</ele>
        <time>2017-07-10T09:21:46Z</time>
      </trkpt>
      <trkpt lat="45.98636" lon="4.8319">
        <ele>267</ele>
        <time>2017-07-10T09:21:48Z</time>
      </trkpt>
      <trkpt lat="45.98633" lon="4.83193">
        <ele>267</ele>
        <time>2017-07-10T09:21:49Z</time>
      </trkpt>
      <trkpt lat="45.98627" lon="4.83199">
        <ele>267</ele>
        <time>2017-07-10T09:21:51Z</time>
      </trkpt>
      <trkpt lat="45.98624" lon="4.83203">
        <ele>267</ele>
        <time>2017-07-10T09:21:52Z</time>
      </trkpt>
      <trkpt lat="45.98618" lon="4.83211">
        <ele>267</ele>
        <time>2017-07-10T09:21:54Z</time>
      </trkpt>
      <trkpt lat="45.98615" lon="4.83215">
        <ele>267</ele>
        <time>2017-07-10T09:21:55Z</time>
      </trkpt>
      <trkpt lat="45.9861" lon="4.83221">
        <ele>267</ele>
        <time>2017-07-10T09:21:57Z</time>
      </trkpt>
      <trkpt lat="45.98607" lon="4.83224">
        <ele>267</ele>
        <time>2017-07-10T09:21:58Z</time>
      </trkpt>
      <trkpt lat="45.98602" lon="4.83231">
        <ele>268</ele>
        <time>2017-07-10T09:22:00Z</time>
      </trkpt>
      <trkpt lat="45.986" lon="4.83235">
        <ele>268</ele>
        <time>2017-07-10T09:22:01Z</time>
      </trkpt>
      <trkpt lat="45.98593" lon="4.83243">
        <ele>268</ele>
        <time>2017-07-10T09:22:03Z</time>
      </trkpt>
      <trkpt lat="45.98589" lon="4.83247">
        <ele>268</ele>
        <time>2017-07-10T09:22:04Z</time>
      </trkpt>
      <trkpt lat="45.98586" lon="4.83252">
        <ele>268</ele>
        <time>2017-07-10T09:22:05Z</time>
      </trkpt>
      <trkpt lat="45.98583" lon="4.83256">
        <ele>268</ele>
        <time>2017-07-10T09:22:06Z</time>
      </trkpt>
      <trkpt lat="45.98577" lon="4.83263">
        <ele>269</ele>
        <time>2017-07-10T09:22:08Z</time>
      </trkpt>
      <trkpt lat="45.98575" lon="4.83267">
        <ele>269</ele>
        <time>2017-07-10T09:22:09Z</time>
      </trkpt>
      <trkpt lat="45.98569" lon="4.83273">
        <ele>269</ele>
        <time>2017-07-10T09:22:11Z</time>
      </trkpt>
      <trkpt lat="45.98567" lon="4.83277">
        <ele>269</ele>
        <time>2017-07-10T09:22:12Z</time>
      </trkpt>
      <trkpt lat="45.98562" lon="4.83284">
        <ele>269</ele>
        <time>2017-07-10T09:22:14Z</time>
      </trkpt>
      <trkpt lat="45.98559" lon="4.83287">
        <ele>269</ele>
        <time>2017-07-10T09:22:15Z</time>
      </trkpt>
      <trkpt lat="45.98554" lon="4.83296">
        <ele>269</ele>
        <time>2017-07-10T09:22:17Z</time>
      </trkpt>
      <trkpt lat="45.98551" lon="4.833">
        <ele>269</ele>
        <time>2017-07-10T09:22:18Z</time>
      </trkpt>
      <trkpt lat="45.98545" lon="4.83307">
        <ele>269</ele>
        <time>2017-07-10T09:22:20Z</time>
      </trkpt>
      <trkpt lat="45.98542" lon="4.8331">
        <ele>269</ele>
        <time>2017-07-10T09:22:21Z</time>
      </trkpt>
      <trkpt lat="45.98537" lon="4.83317">
        <ele>269</ele>
        <time>2017-07-10T09:22:23Z</time>
      </trkpt>
      <trkpt lat="45.98534" lon="4.8332">
        <ele>269</ele>
        <time>2017-07-10T09:22:24Z</time>
      </trkpt>
      <trkpt lat="45.9853" lon="4.83326">
        <ele>269</ele>
        <time>2017-07-10T09:22:26Z</time>
      </trkpt>
      <trkpt lat="45.98527" lon="4.8333">
        <ele>270</ele>
        <time>2017-07-10T09:22:27Z</time>
      </trkpt>
      <trkpt lat="45.98521" lon="4.83338">
        <ele>270</ele>
        <time>2017-07-10T09:22:29Z</time>
      </trkpt>
      <trkpt lat="45.98518" lon="4.83342">
        <ele>270</ele>
        <time>2017-07-10T09:22:30Z</time>
      </trkpt>
      <trkpt lat="45.98512" lon="4.8335">
        <ele>270</ele>
        <time>2017-07-10T09:22:32Z</time>
      </trkpt>
      <trkpt lat="45.98509" lon="4.83354">
        <ele>270</ele>
        <time>2017-07-10T09:22:33Z</time>
      </trkpt>
      <trkpt lat="45.98503" lon="4.83362">
        <ele>269</ele>
        <time>2017-07-10T09:22:35Z</time>
      </trkpt>
      <trkpt lat="45.985" lon="4.83367">
        <ele>270</ele>
        <time>2017-07-10T09:22:36Z</time>
      </trkpt>
      <trkpt lat="45.98494" lon="4.83375">
        <ele>270</ele>
        <time>2017-07-10T09:22:38Z</time>
      </trkpt>
      <trkpt lat="45.98491" lon="4.83379">
        <ele>269</ele>
        <time>2017-07-10T09:22:39Z</time>
      </trkpt>
      <trkpt lat="45.98488" lon="4.83383">
        <ele>269</ele>
        <time>2017-07-10T09:22:40Z</time>
      </trkpt>
      <trkpt lat="45.98484" lon="4.83388">
        <ele>269</ele>
        <time>2017-07-10T09:22:41Z</time>
      </trkpt>
      <trkpt lat="45.98481" lon="4.83392">
        <ele>269</ele>
        <time>2017-07-10T09:22:42Z</time>
      </trkpt>
      <trkpt lat="45.98478" lon="4.83397">
        <ele>269</ele>
        <time>2017-07-10T09:22:43Z</time>
      </trkpt>
      <trkpt lat="45.98471" lon="4.83405">
        <ele>269</ele>
        <time>2017-07-10T09:22:45Z</time>
      </trkpt>
      <trkpt lat="45.98468" lon="4.83409">
        <ele>269</ele>
        <time>2017-07-10T09:22:46Z</time>
      </trkpt>
      <trkpt lat="45.98465" lon="4.83414">
        <ele>269</ele>
        <time>2017-07-10T09:22:47Z</time>
      </trkpt>
      <trkpt lat="45.98461" lon="4.83418">
        <ele>269</ele>
        <time>2017-07-10T09:22:48Z</time>
      </trkpt>
      <trkpt lat="45.98458" lon="4.83423">
        <ele>269</ele>
        <time>2017-07-10T09:22:49Z</time>
      </trkpt>
      <trkpt lat="45.98455" lon="4.83428">
        <ele>268</ele>
        <time>2017-07-10T09:22:50Z</time>
      </trkpt>
      <trkpt lat="45.98451" lon="4.83433">
        <ele>268</ele>
        <time>2017-07-10T09:22:51Z</time>
      </trkpt>
      <trkpt lat="45.98448" lon="4.83438">
        <ele>268</ele>
        <time>2017-07-10T09:22:52Z</time>
      </trkpt>
      <trkpt lat="45.98444" lon="4.83444">
        <ele>268</ele>
        <time>2017-07-10T09:22:53Z</time>
      </trkpt>
      <trkpt lat="45.9844" lon="4.83449">
        <ele>268</ele>
        <time>2017-07-10T09:22:54Z</time>
      </trkpt>
      <trkpt lat="45.98436" lon="4.83454">
        <ele>268</ele>
        <time>2017-07-10T09:22:55Z</time>
      </trkpt>
      <trkpt lat="45.98432" lon="4.83458">
        <ele>268</ele>
        <time>2017-07-10T09:22:56Z</time>
      </trkpt>
      <trkpt lat="45.98429" lon="4.83463">
        <ele>268</ele>
        <time>2017-07-10T09:22:57Z</time>
      </trkpt>
      <trkpt lat="45.98425" lon="4.83468">
        <ele>268</ele>
        <time>2017-07-10T09:22:58Z</time>
      </trkpt>
      <trkpt lat="45.98422" lon="4.83473">
        <ele>268</ele>
        <time>2017-07-10T09:22:59Z</time>
      </trkpt>
      <trkpt lat="45.98418" lon="4.83477">
        <ele>268</ele>
        <time>2017-07-10T09:23:00Z</time>
      </trkpt>
      <trkpt lat="45.98415" lon="4.83482">
        <ele>269</ele>
        <time>2017-07-10T09:23:01Z</time>
      </trkpt>
      <trkpt lat="45.98411" lon="4.83486">
        <ele>269</ele>
        <time>2017-07-10T09:23:02Z</time>
      </trkpt>
      <trkpt lat="45.98405" lon="4.83494">
        <ele>269</ele>
        <time>2017-07-10T09:23:04Z</time>
      </trkpt>
      <trkpt lat="45.98402" lon="4.83499">
        <ele>269</ele>
        <time>2017-07-10T09:23:05Z</time>
      </trkpt>
      <trkpt lat="45.98399" lon="4.83504">
        <ele>269</ele>
        <time>2017-07-10T09:23:06Z</time>
      </trkpt>
      <trkpt lat="45.98395" lon="4.83509">
        <ele>269</ele>
        <time>2017-07-10T09:23:07Z</time>
      </trkpt>
      <trkpt lat="45.98391" lon="4.83514">
        <ele>269</ele>
        <time>2017-07-10T09:23:08Z</time>
      </trkpt>
      <trkpt lat="45.98387" lon="4.83519">
        <ele>269</ele>
        <time>2017-07-10T09:23:09Z</time>
      </trkpt>
      <trkpt lat="45.98383" lon="4.83525">
        <ele>269</ele>
        <time>2017-07-10T09:23:10Z</time>
      </trkpt>
      <trkpt lat="45.98379" lon="4.8353">
        <ele>269</ele>
        <time>2017-07-10T09:23:11Z</time>
      </trkpt>
      <trkpt lat="45.98375" lon="4.83535">
        <ele>269</ele>
        <time>2017-07-10T09:23:12Z</time>
      </trkpt>
      <trkpt lat="45.98371" lon="4.83539">
        <ele>269</ele>
        <time>2017-07-10T09:23:13Z</time>
      </trkpt>
      <trkpt lat="45.98367" lon="4.83544">
        <ele>269</ele>
        <time>2017-07-10T09:23:14Z</time>
      </trkpt>
      <trkpt lat="45.98364" lon="4.83549">
        <ele>269</ele>
        <time>2017-07-10T09:23:15Z</time>
      </trkpt>
      <trkpt lat="45.98358" lon="4.83558">
        <ele>269</ele>
        <time>2017-07-10T09:23:17Z</time>
      </trkpt>
      <trkpt lat="45.98355" lon="4.83562">
        <ele>269</ele>
        <time>2017-07-10T09:23:18Z</time>
      </trkpt>
      <trkpt lat="45.98351" lon="4.83567">
        <ele>269</ele>
        <time>2017-07-10T09:23:19Z</time>
      </trkpt>
      <trkpt lat="45.98347" lon="4.83571">
        <ele>269</ele>
        <time>2017-07-10T09:23:20Z</time>
      </trkpt>
      <trkpt lat="45.98344" lon="4.83576">
        <ele>270</ele>
        <time>2017-07-10T09:23:21Z</time>
      </trkpt>
      <trkpt lat="45.98341" lon="4.83581">
        <ele>270</ele>
        <time>2017-07-10T09:23:22Z</time>
      </trkpt>
      <trkpt lat="45.98337" lon="4.83586">
        <ele>270</ele>
        <time>2017-07-10T09:23:23Z</time>
      </trkpt>
      <trkpt lat="45.98333" lon="4.83591">
        <ele>270</ele>
        <time>2017-07-10T09:23:24Z</time>
      </trkpt>
      <trkpt lat="45.98329" lon="4.83596">
        <ele>270</ele>
        <time>2017-07-10T09:23:25Z</time>
      </trkpt>
      <trkpt lat="45.98326" lon="4.83601">
        <ele>271</ele>
        <time>2017-07-10T09:23:26Z</time>
      </trkpt>
      <trkpt lat="45.9832" lon="4.8361">
        <ele>271</ele>
        <time>2017-07-10T09:23:28Z</time>
      </trkpt>
      <trkpt lat="45.98317" lon="4.83615">
        <ele>271</ele>
        <time>2017-07-10T09:23:29Z</time>
      </trkpt>
      <trkpt lat="45.98312" lon="4.83623">
        <ele>271</ele>
        <time>2017-07-10T09:23:31Z</time>
      </trkpt>
      <trkpt lat="45.9831" lon="4.83628">
        <ele>271</ele>
        <time>2017-07-10T09:23:32Z</time>
      </trkpt>
      <trkpt lat="45.98307" lon="4.83633">
        <ele>271</ele>
        <time>2017-07-10T09:23:33Z</time>
      </trkpt>
      <trkpt lat="45.98305" lon="4.83639">
        <ele>271</ele>
        <time>2017-07-10T09:23:34Z</time>
      </trkpt>
      <trkpt lat="45.98302" lon="4.83645">
        <ele>271</ele>
        <time>2017-07-10T09:23:35Z</time>
      </trkpt>
      <trkpt lat="45.98299" lon="4.83652">
        <ele>271</ele>
        <time>2017-07-10T09:23:36Z</time>
      </trkpt>
      <trkpt lat="45.98297" lon="4.83658">
        <ele>271</ele>
        <time>2017-07-10T09:23:37Z</time>
      </trkpt>
      <trkpt lat="45.98295" lon="4.83664">
        <ele>271</ele>
        <time>2017-07-10T09:23:38Z</time>
      </trkpt>
      <trkpt lat="45.98292" lon="4.8367">
        <ele>272</ele>
        <time>2017-07-10T09:23:39Z</time>
      </trkpt>
      <trkpt lat="45.9829" lon="4.83675">
        <ele>272</ele>
        <time>2017-07-10T09:23:40Z</time>
      </trkpt>
      <trkpt lat="45.98288" lon="4.83681">
        <ele>272</ele>
        <time>2017-07-10T09:23:41Z</time>
      </trkpt>
      <trkpt lat="45.98286" lon="4.83687">
        <ele>272</ele>
        <time>2017-07-10T09:23:42Z</time>
      </trkpt>
      <trkpt lat="45.98282" lon="4.83698">
        <ele>272</ele>
        <time>2017-07-10T09:23:44Z</time>
      </trkpt>
      <trkpt lat="45.9828" lon="4.83703">
        <ele>272</ele>
        <time>2017-07-10T09:23:45Z</time>
      </trkpt>
      <trkpt lat="45.98277" lon="4.83714">
        <ele>272</ele>
        <time>2017-07-10T09:23:47Z</time>
      </trkpt>
      <trkpt lat="45.98275" lon="4.8372">
        <ele>272</ele>
        <time>2017-07-10T09:23:48Z</time>
      </trkpt>
      <trkpt lat="45.98272" lon="4.83726">
        <ele>272</ele>
        <time>2017-07-10T09:23:49Z</time>
      </trkpt>
      <trkpt lat="45.98271" lon="4.83732">
        <ele>272</ele>
        <time>2017-07-10T09:23:50Z</time>
      </trkpt>
      <trkpt lat="45.98268" lon="4.83738">
        <ele>272</ele>
        <time>2017-07-10T09:23:51Z</time>
      </trkpt>
      <trkpt lat="45.98266" lon="4.83744">
        <ele>272</ele>
        <time>2017-07-10T09:23:52Z</time>
      </trkpt>
      <trkpt lat="45.98264" lon="4.83751">
        <ele>272</ele>
        <time>2017-07-10T09:23:53Z</time>
      </trkpt>
      <trkpt lat="45.98261" lon="4.83758">
        <ele>272</ele>
        <time>2017-07-10T09:23:54Z</time>
      </trkpt>
      <trkpt lat="45.98259" lon="4.83765">
        <ele>272</ele>
        <time>2017-07-10T09:23:55Z</time>
      </trkpt>
      <trkpt lat="45.98257" lon="4.83771">
        <ele>272</ele>
        <time>2017-07-10T09:23:56Z</time>
      </trkpt>
      <trkpt lat="45.98254" lon="4.83777">
        <ele>272</ele>
        <time>2017-07-10T09:23:57Z</time>
      </trkpt>
      <trkpt lat="45.98252" lon="4.83784">
        <ele>272</ele>
        <time>2017-07-10T09:23:58Z</time>
      </trkpt>
      <trkpt lat="45.9825" lon="4.8379">
        <ele>272</ele>
        <time>2017-07-10T09:23:59Z</time>
      </trkpt>
      <trkpt lat="45.98248" lon="4.83796">
        <ele>272</ele>
        <time>2017-07-10T09:24:00Z</time>
      </trkpt>
      <trkpt lat="45.98244" lon="4.83807">
        <ele>272</ele>
        <time>2017-07-10T09:24:02Z</time>
      </trkpt>
      <trkpt lat="45.98243" lon="4.83813">
        <ele>272</ele>
        <time>2017-07-10T09:24:03Z</time>
      </trkpt>
      <trkpt lat="45.98241" lon="4.83819">
        <ele>272</ele>
        <time>2017-07-10T09:24:04Z</time>
      </trkpt>
      <trkpt lat="45.98239" lon="4.83825">
        <ele>272</ele>
        <time>2017-07-10T09:24:05Z</time>
      </trkpt>
      <trkpt lat="45.98236" lon="4.83831">
        <ele>272</ele>
        <time>2017-07-10T09:24:06Z</time>
      </trkpt>
      <trkpt lat="45.98234" lon="4.83837">
        <ele>272</ele>
        <time>2017-07-10T09:24:07Z</time>
      </trkpt>
      <trkpt lat="45.98231" lon="4.83845">
        <ele>272</ele>
        <time>2017-07-10T09:24:08Z</time>
      </trkpt>
      <trkpt lat="45.98228" lon="4.83852">
        <ele>272</ele>
        <time>2017-07-10T09:24:09Z</time>
      </trkpt>
      <trkpt lat="45.98226" lon="4.83859">
        <ele>272</ele>
        <time>2017-07-10T09:24:10Z</time>
      </trkpt>
      <trkpt lat="45.98224" lon="4.83865">
        <ele>272</ele>
        <time>2017-07-10T09:24:11Z</time>
      </trkpt>
      <trkpt lat="45.98222" lon="4.83872">
        <ele>272</ele>
        <time>2017-07-10T09:24:12Z</time>
      </trkpt>
      <trkpt lat="45.9822" lon="4.83878">
        <ele>272</ele>
        <time>2017-07-10T09:24:13Z</time>
      </trkpt>
      <trkpt lat="45.98218" lon="4.83885">
        <ele>272</ele>
        <time>2017-07-10T09:24:14Z</time>
      </trkpt>
      <trkpt lat="45.98215" lon="4.83891">
        <ele>273</ele>
        <time>2017-07-10T09:24:15Z</time>
      </trkpt>
      <trkpt lat="45.98213" lon="4.83897">
        <ele>273</ele>
        <time>2017-07-10T09:24:16Z</time>
      </trkpt>
      <trkpt lat="45.98211" lon="4.83903">
        <ele>273</ele>
        <time>2017-07-10T09:24:17Z</time>
      </trkpt>
      <trkpt lat="45.98209" lon="4.8391">
        <ele>273</ele>
        <time>2017-07-10T09:24:18Z</time>
      </trkpt>
      <trkpt lat="45.98206" lon="4.83916">
        <ele>273</ele>
        <time>2017-07-10T09:24:19Z</time>
      </trkpt>
      <trkpt lat="45.98204" lon="4.83923">
        <ele>273</ele>
        <time>2017-07-10T09:24:20Z</time>
      </trkpt>
      <trkpt lat="45.98201" lon="4.83929">
        <ele>273</ele>
        <time>2017-07-10T09:24:21Z</time>
      </trkpt>
      <trkpt lat="45.98199" lon="4.83936">
        <ele>273</ele>
        <time>2017-07-10T09:24:22Z</time>
      </trkpt>
      <trkpt lat="45.98197" lon="4.83942">
        <ele>273</ele>
        <time>2017-07-10T09:24:23Z</time>
      </trkpt>
      <trkpt lat="45.98195" lon="4.83948">
        <ele>273</ele>
        <time>2017-07-10T09:24:24Z</time>
      </trkpt>
      <trkpt lat="45.98193" lon="4.83954">
        <ele>273</ele>
        <time>2017-07-10T09:24:25Z</time>
      </trkpt>
      <trkpt lat="45.98189" lon="4.83966">
        <ele>273</ele>
        <time>2017-07-10T09:24:27Z</time>
      </trkpt>
      <trkpt lat="45.98187" lon="4.83971">
        <ele>273</ele>
        <time>2017-07-10T09:24:28Z</time>
      </trkpt>
      <trkpt lat="45.98183" lon="4.83981">
        <ele>273</ele>
        <time>2017-07-10T09:24:30Z</time>
      </trkpt>
      <trkpt lat="45.9818" lon="4.83986">
        <ele>273</ele>
        <time>2017-07-10T09:24:31Z</time>
      </trkpt>
      <trkpt lat="45.98178" lon="4.83992">
        <ele>273</ele>
        <time>2017-07-10T09:24:32Z</time>
      </trkpt>
      <trkpt lat="45.98175" lon="4.83998">
        <ele>273</ele>
        <time>2017-07-10T09:24:33Z</time>
      </trkpt>
      <trkpt lat="45.98172" lon="4.84005">
        <ele>273</ele>
        <time>2017-07-10T09:24:34Z</time>
      </trkpt>
      <trkpt lat="45.98168" lon="4.84011">
        <ele>273</ele>
        <time>2017-07-10T09:24:35Z</time>
      </trkpt>
      <trkpt lat="45.98165" lon="4.84018">
        <ele>273</ele>
        <time>2017-07-10T09:24:36Z</time>
      </trkpt>
      <trkpt lat="45.98162" lon="4.84024">
        <ele>273</ele>
        <time>2017-07-10T09:24:37Z</time>
      </trkpt>
      <trkpt lat="45.98158" lon="4.8403">
        <ele>273</ele>
        <time>2017-07-10T09:24:38Z</time>
      </trkpt>
      <trkpt lat="45.98155" lon="4.84036">
        <ele>273</ele>
        <time>2017-07-10T09:24:39Z</time>
      </trkpt>
      <trkpt lat="45.98151" lon="4.84041">
        <ele>273</ele>
        <time>2017-07-10T09:24:40Z</time>
      </trkpt>
      <trkpt lat="45.98148" lon="4.84046">
        <ele>273</ele>
        <time>2017-07-10T09:24:41Z</time>
      </trkpt>
      <trkpt lat="45.98144" lon="4.84051">
        <ele>273</ele>
        <time>2017-07-10T09:24:42Z</time>
      </trkpt>
      <trkpt lat="45.98141" lon="4.84056">
        <ele>273</ele>
        <time>2017-07-10T09:24:43Z</time>
      </trkpt>
      <trkpt lat="45.98135" lon="4.84065">
        <ele>273</ele>
        <time>2017-07-10T09:24:45Z</time>
      </trkpt>
      <trkpt lat="45.98131" lon="4.84069">
        <ele>273</ele>
        <time>2017-07-10T09:24:46Z</time>
      </trkpt>
      <trkpt lat="45.98124" lon="4.84076">
        <ele>273</ele>
        <time>2017-07-10T09:24:48Z</time>
      </trkpt>
      <trkpt lat="45.98121" lon="4.8408">
        <ele>273</ele>
        <time>2017-07-10T09:24:49Z</time>
      </trkpt>
      <trkpt lat="45.98116" lon="4.84084">
        <ele>273</ele>
        <time>2017-07-10T09:24:50Z</time>
      </trkpt>
      <trkpt lat="45.98113" lon="4.84088">
        <ele>273</ele>
        <time>2017-07-10T09:24:51Z</time>
      </trkpt>
      <trkpt lat="45.98109" lon="4.84093">
        <ele>273</ele>
        <time>2017-07-10T09:24:52Z</time>
      </trkpt>
      <trkpt lat="45.98105" lon="4.84097">
        <ele>273</ele>
        <time>2017-07-10T09:24:53Z</time>
      </trkpt>
      <trkpt lat="45.98098" lon="4.84103">
        <ele>273</ele>
        <time>2017-07-10T09:24:55Z</time>
      </trkpt>
      <trkpt lat="45.98095" lon="4.84106">
        <ele>273</ele>
        <time>2017-07-10T09:24:56Z</time>
      </trkpt>
      <trkpt lat="45.98088" lon="4.84113">
        <ele>273</ele>
        <time>2017-07-10T09:24:58Z</time>
      </trkpt>
      <trkpt lat="45.98084" lon="4.84117">
        <ele>273</ele>
        <time>2017-07-10T09:24:59Z</time>
      </trkpt>
      <trkpt lat="45.98079" lon="4.84121">
        <ele>273</ele>
        <time>2017-07-10T09:25:00Z</time>
      </trkpt>
      <trkpt lat="45.98075" lon="4.84126">
        <ele>273</ele>
        <time>2017-07-10T09:25:01Z</time>
      </trkpt>
      <trkpt lat="45.98071" lon="4.8413">
        <ele>273</ele>
        <time>2017-07-10T09:25:02Z</time>
      </trkpt>
      <trkpt lat="45.98066" lon="4.84135">
        <ele>273</ele>
        <time>2017-07-10T09:25:03Z</time>
      </trkpt>
      <trkpt lat="45.98062" lon="4.84139">
        <ele>273</ele>
        <time>2017-07-10T09:25:04Z</time>
      </trkpt>
      <trkpt lat="45.98057" lon="4.84143">
        <ele>273</ele>
        <time>2017-07-10T09:25:05Z</time>
      </trkpt>
      <trkpt lat="45.98053" lon="4.84147">
        <ele>273</ele>
        <time>2017-07-10T09:25:06Z</time>
      </trkpt>
      <trkpt lat="45.98049" lon="4.84151">
        <ele>273</ele>
        <time>2017-07-10T09:25:07Z</time>
      </trkpt>
      <trkpt lat="45.98046" lon="4.84155">
        <ele>273</ele>
        <time>2017-07-10T09:25:08Z</time>
      </trkpt>
      <trkpt lat="45.98042" lon="4.84159">
        <ele>273</ele>
        <time>2017-07-10T09:25:09Z</time>
      </trkpt>
      <trkpt lat="45.98035" lon="4.84165">
        <ele>273</ele>
        <time>2017-07-10T09:25:11Z</time>
      </trkpt>
      <trkpt lat="45.98031" lon="4.84168">
        <ele>273</ele>
        <time>2017-07-10T09:25:12Z</time>
      </trkpt>
      <trkpt lat="45.98023" lon="4.84175">
        <ele>274</ele>
        <time>2017-07-10T09:25:14Z</time>
      </trkpt>
      <trkpt lat="45.98019" lon="4.84179">
        <ele>274</ele>
        <time>2017-07-10T09:25:15Z</time>
      </trkpt>
      <trkpt lat="45.98015" lon="4.84183">
        <ele>274</ele>
        <time>2017-07-10T09:25:16Z</time>
      </trkpt>
      <trkpt lat="45.9801" lon="4.84187">
        <ele>274</ele>
        <time>2017-07-10T09:25:17Z</time>
      </trkpt>
      <trkpt lat="45.98006" lon="4.84191">
        <ele>274</ele>
        <time>2017-07-10T09:25:18Z</time>
      </trkpt>
      <trkpt lat="45.98002" lon="4.84194">
        <ele>274</ele>
        <time>2017-07-10T09:25:19Z</time>
      </trkpt>
      <trkpt lat="45.97995" lon="4.84201">
        <ele>274</ele>
        <time>2017-07-10T09:25:21Z</time>
      </trkpt>
      <trkpt lat="45.97991" lon="4.84204">
        <ele>274</ele>
        <time>2017-07-10T09:25:22Z</time>
      </trkpt>
      <trkpt lat="45.97984" lon="4.84211">
        <ele>274</ele>
        <time>2017-07-10T09:25:24Z</time>
      </trkpt>
      <trkpt lat="45.9798" lon="4.84214">
        <ele>274</ele>
        <time>2017-07-10T09:25:25Z</time>
      </trkpt>
      <trkpt lat="45.97976" lon="4.84217">
        <ele>274</ele>
        <time>2017-07-10T09:25:26Z</time>
      </trkpt>
      <trkpt lat="45.97972" lon="4.8422">
        <ele>274</ele>
        <time>2017-07-10T09:25:27Z</time>
      </trkpt>
      <trkpt lat="45.97968" lon="4.84224">
        <ele>274</ele>
        <time>2017-07-10T09:25:28Z</time>
      </trkpt>
      <trkpt lat="45.97964" lon="4.84228">
        <ele>274</ele>
        <time>2017-07-10T09:25:29Z</time>
      </trkpt>
      <trkpt lat="45.97957" lon="4.84236">
        <ele>275</ele>
        <time>2017-07-10T09:25:31Z</time>
      </trkpt>
      <trkpt lat="45.97954" lon="4.84239">
        <ele>275</ele>
        <time>2017-07-10T09:25:32Z</time>
      </trkpt>
      <trkpt lat="45.97947" lon="4.84245">
        <ele>275</ele>
        <time>2017-07-10T09:25:34Z</time>
      </trkpt>
      <trkpt lat="45.97944" lon="4.84248">
        <ele>275</ele>
        <time>2017-07-10T09:25:35Z</time>
      </trkpt>
      <trkpt lat="45.97937" lon="4.84255">
        <ele>275</ele>
        <time>2017-07-10T09:25:37Z</time>
      </trkpt>
      <trkpt lat="45.97934" lon="4.84259">
        <ele>275</ele>
        <time>2017-07-10T09:25:38Z</time>
      </trkpt>
      <trkpt lat="45.9793" lon="4.84263">
        <ele>275</ele>
        <time>2017-07-10T09:25:39Z</time>
      </trkpt>
      <trkpt lat="45.97928" lon="4.84269">
        <ele>275</ele>
        <time>2017-07-10T09:25:40Z</time>
      </trkpt>
      <trkpt lat="45.97927" lon="4.84276">
        <ele>275</ele>
        <time>2017-07-10T09:25:41Z</time>
      </trkpt>
      <trkpt lat="45.97926" lon="4.84283">
        <ele>275</ele>
        <time>2017-07-10T09:25:42Z</time>
      </trkpt>
      <trkpt lat="45.97926" lon="4.84289">
        <ele>275</ele>
        <time>2017-07-10T09:25:43Z</time>
      </trkpt>
      <trkpt lat="45.97926" lon="4.84296">
        <ele>275</ele>
        <time>2017-07-10T09:25:44Z</time>
      </trkpt>
      <trkpt lat="45.97927" lon="4.84308">
        <ele>275</ele>
        <time>2017-07-10T09:25:46Z</time>
      </trkpt>
      <trkpt lat="45.97928" lon="4.84314">
        <ele>275</ele>
        <time>2017-07-10T09:25:47Z</time>
      </trkpt>
      <trkpt lat="45.97929" lon="4.8432">
        <ele>275</ele>
        <time>2017-07-10T09:25:48Z</time>
      </trkpt>
      <trkpt lat="45.97931" lon="4.84327">
        <ele>275</ele>
        <time>2017-07-10T09:25:49Z</time>
      </trkpt>
      <trkpt lat="45.97932" lon="4.84334">
        <ele>275</ele>
        <time>2017-07-10T09:25:50Z</time>
      </trkpt>
      <trkpt lat="45.97933" lon="4.84341">
        <ele>275</ele>
        <time>2017-07-10T09:25:51Z</time>
      </trkpt>
      <trkpt lat="45.97934" lon="4.84348">
        <ele>275</ele>
        <time>2017-07-10T09:25:52Z</time>
      </trkpt>
      <trkpt lat="45.97935" lon="4.84355">
        <ele>275</ele>
        <time>2017-07-10T09:25:53Z</time>
      </trkpt>
      <trkpt lat="45.97937" lon="4.84367">
        <ele>275</ele>
        <time>2017-07-10T09:25:55Z</time>
      </trkpt>
      <trkpt lat="45.97938" lon="4.84374">
        <ele>275</ele>
        <time>2017-07-10T09:25:56Z</time>
      </trkpt>
      <trkpt lat="45.9794" lon="4.84386">
        <ele>275</ele>
        <time>2017-07-10T09:25:58Z</time>
      </trkpt>
      <trkpt lat="45.97941" lon="4.84392">
        <ele>275</ele>
        <time>2017-07-10T09:25:59Z</time>
      </trkpt>
      <trkpt lat="45.97942" lon="4.84404">
        <ele>275</ele>
        <time>2017-07-10T09:26:01Z</time>
      </trkpt>
      <trkpt lat="45.97944" lon="4.84409">
        <ele>275</ele>
        <time>2017-07-10T09:26:02Z</time>
      </trkpt>
      <trkpt lat="45.97945" lon="4.84421">
        <ele>275</ele>
        <time>2017-07-10T09:26:04Z</time>
      </trkpt>
      <trkpt lat="45.97946" lon="4.84428">
        <ele>275</ele>
        <time>2017-07-10T09:26:05Z</time>
      </trkpt>
      <trkpt lat="45.97948" lon="4.84435">
        <ele>275</ele>
        <time>2017-07-10T09:26:06Z</time>
      </trkpt>
      <trkpt lat="45.97949" lon="4.84442">
        <ele>275</ele>
        <time>2017-07-10T09:26:07Z</time>
      </trkpt>
      <trkpt lat="45.97951" lon="4.84448">
        <ele>275</ele>
        <time>2017-07-10T09:26:08Z</time>
      </trkpt>
      <trkpt lat="45.97952" lon="4.84455">
        <ele>275</ele>
        <time>2017-07-10T09:26:09Z</time>
      </trkpt>
      <trkpt lat="45.97953" lon="4.84461">
        <ele>275</ele>
        <time>2017-07-10T09:26:10Z</time>
      </trkpt>
      <trkpt lat="45.97954" lon="4.84467">
        <ele>275</ele>
        <time>2017-07-10T09:26:11Z</time>
      </trkpt>
      <trkpt lat="45.97955" lon="4.84479">
        <ele>275</ele>
        <time>2017-07-10T09:26:13Z</time>
      </trkpt>
      <trkpt lat="45.97956" lon="4.84486">
        <ele>275</ele>
        <time>2017-07-10T09:26:14Z</time>
      </trkpt>
      <trkpt lat="45.97958" lon="4.84498">
        <ele>275</ele>
        <time>2017-07-10T09:26:16Z</time>
      </trkpt>
      <trkpt lat="45.97959" lon="4.84504">
        <ele>275</ele>
        <time>2017-07-10T09:26:17Z</time>
      </trkpt>
      <trkpt lat="45.97961" lon="4.84517">
        <ele>275</ele>
        <time>2017-07-10T09:26:19Z</time>
      </trkpt>
      <trkpt lat="45.97962" lon="4.84523">
        <ele>275</ele>
        <time>2017-07-10T09:26:20Z</time>
      </trkpt>
      <trkpt lat="45.97963" lon="4.8453">
        <ele>275</ele>
        <time>2017-07-10T09:26:21Z</time>
      </trkpt>
      <trkpt lat="45.97964" lon="4.84538">
        <ele>275</ele>
        <time>2017-07-10T09:26:22Z</time>
      </trkpt>
      <trkpt lat="45.97965" lon="4.84545">
        <ele>275</ele>
        <time>2017-07-10T09:26:23Z</time>
      </trkpt>
      <trkpt lat="45.97966" lon="4.84552">
        <ele>275</ele>
        <time>2017-07-10T09:26:24Z</time>
      </trkpt>
      <trkpt lat="45.97967" lon="4.84559">
        <ele>275</ele>
        <time>2017-07-10T09:26:25Z</time>
      </trkpt>
      <trkpt lat="45.97968" lon="4.84566">
        <ele>275</ele>
        <time>2017-07-10T09:26:26Z</time>
      </trkpt>
      <trkpt lat="45.9797" lon="4.84573">
        <ele>275</ele>
        <time>2017-07-10T09:26:27Z</time>
      </trkpt>
      <trkpt lat="45.97972" lon="4.8458">
        <ele>275</ele>
        <time>2017-07-10T09:26:28Z</time>
      </trkpt>
      <trkpt lat="45.97973" lon="4.84587">
        <ele>274</ele>
        <time>2017-07-10T09:26:29Z</time>
      </trkpt>
      <trkpt lat="45.97974" lon="4.84594">
        <ele>275</ele>
        <time>2017-07-10T09:26:30Z</time>
      </trkpt>
      <trkpt lat="45.97975" lon="4.84601">
        <ele>275</ele>
        <time>2017-07-10T09:26:31Z</time>
      </trkpt>
      <trkpt lat="45.97976" lon="4.84607">
        <ele>275</ele>
        <time>2017-07-10T09:26:32Z</time>
      </trkpt>
      <trkpt lat="45.97979" lon="4.8462">
        <ele>275</ele>
        <time>2017-07-10T09:26:34Z</time>
      </trkpt>
      <trkpt lat="45.9798" lon="4.84626">
        <ele>275</ele>
        <time>2017-07-10T09:26:35Z</time>
      </trkpt>
      <trkpt lat="45.97981" lon="4.84638">
        <ele>275</ele>
        <time>2017-07-10T09:26:37Z</time>
      </trkpt>
      <trkpt lat="45.97983" lon="4.84645">
        <ele>275</ele>
        <time>2017-07-10T09:26:38Z</time>
      </trkpt>
      <trkpt lat="45.97984" lon="4.84652">
        <ele>274</ele>
        <time>2017-07-10T09:26:39Z</time>
      </trkpt>
      <trkpt lat="45.97984" lon="4.84659">
        <ele>274</ele>
        <time>2017-07-10T09:26:40Z</time>
      </trkpt>
      <trkpt lat="45.97985" lon="4.84666">
        <ele>274</ele>
        <time>2017-07-10T09:26:41Z</time>
      </trkpt>
      <trkpt lat="45.97986" lon="4.84673">
        <ele>275</ele>
        <time>2017-07-10T09:26:42Z</time>
      </trkpt>
      <trkpt lat="45.97987" lon="4.84686">
        <ele>275</ele>
        <time>2017-07-10T09:26:44Z</time>
      </trkpt>
      <trkpt lat="45.97988" lon="4.84693">
        <ele>275</ele>
        <time>2017-07-10T09:26:45Z</time>
      </trkpt>
      <trkpt lat="45.97988" lon="4.84699">
        <ele>275</ele>
        <time>2017-07-10T09:26:46Z</time>
      </trkpt>
      <trkpt lat="45.97989" lon="4.84705">
        <ele>275</ele>
        <time>2017-07-10T09:26:47Z</time>
      </trkpt>
      <trkpt lat="45.97989" lon="4.84713">
        <ele>275</ele>
        <time>2017-07-10T09:26:48Z</time>
      </trkpt>
      <trkpt lat="45.97989" lon="4.8472">
        <ele>275</ele>
        <time>2017-07-10T09:26:49Z</time>
      </trkpt>
      <trkpt lat="45.97989" lon="4.84727">
        <ele>275</ele>
        <time>2017-07-10T09:26:50Z</time>
      </trkpt>
      <trkpt lat="45.97989" lon="4.84733">
        <ele>275</ele>
        <time>2017-07-10T09:26:51Z</time>
      </trkpt>
      <trkpt lat="45.97989" lon="4.84745">
        <ele>275</ele>
        <time>2017-07-10T09:26:53Z</time>
      </trkpt>
      <trkpt lat="45.9799" lon="4.84751">
        <ele>275</ele>
        <time>2017-07-10T09:26:54Z</time>
      </trkpt>
      <trkpt lat="45.97991" lon="4.84762">
        <ele>275</ele>
        <time>2017-07-10T09:26:56Z</time>
      </trkpt>
      <trkpt lat="45.97991" lon="4.84768">
        <ele>275</ele>
        <time>2017-07-10T09:26:57Z</time>
      </trkpt>
      <trkpt lat="45.97992" lon="4.84775">
        <ele>274</ele>
        <time>2017-07-10T09:26:58Z</time>
      </trkpt>
      <trkpt lat="45.97992" lon="4.84783">
        <ele>274</ele>
        <time>2017-07-10T09:26:59Z</time>
      </trkpt>
      <trkpt lat="45.97993" lon="4.8479">
        <ele>274</ele>
        <time>2017-07-10T09:27:00Z</time>
      </trkpt>
      <trkpt lat="45.97994" lon="4.84798">
        <ele>274</ele>
        <time>2017-07-10T09:27:01Z</time>
      </trkpt>
      <trkpt lat="45.97995" lon="4.84805">
        <ele>274</ele>
        <time>2017-07-10T09:27:02Z</time>
      </trkpt>
      <trkpt lat="45.97995" lon="4.84812">
        <ele>273</ele>
        <time>2017-07-10T09:27:03Z</time>
      </trkpt>
      <trkpt lat="45.97996" lon="4.84818">
        <ele>273</ele>
        <time>2017-07-10T09:27:04Z</time>
      </trkpt>
      <trkpt lat="45.97996" lon="4.84825">
        <ele>273</ele>
        <time>2017-07-10T09:27:05Z</time>
      </trkpt>
      <trkpt lat="45.97997" lon="4.84836">
        <ele>272</ele>
        <time>2017-07-10T09:27:07Z</time>
      </trkpt>
      <trkpt lat="45.97998" lon="4.84842">
        <ele>272</ele>
        <time>2017-07-10T09:27:08Z</time>
      </trkpt>
      <trkpt lat="45.97999" lon="4.84855">
        <ele>272</ele>
        <time>2017-07-10T09:27:10Z</time>
      </trkpt>
      <trkpt lat="45.98" lon="4.84861">
        <ele>272</ele>
        <time>2017-07-10T09:27:11Z</time>
      </trkpt>
      <trkpt lat="45.98" lon="4.84869">
        <ele>272</ele>
        <time>2017-07-10T09:27:12Z</time>
      </trkpt>
      <trkpt lat="45.98001" lon="4.84877">
        <ele>272</ele>
        <time>2017-07-10T09:27:13Z</time>
      </trkpt>
      <trkpt lat="45.98002" lon="4.84887">
        <ele>272</ele>
        <time>2017-07-10T09:27:14Z</time>
      </trkpt>
      <trkpt lat="45.98004" lon="4.84896">
        <ele>272</ele>
        <time>2017-07-10T09:27:15Z</time>
      </trkpt>
      <trkpt lat="45.98005" lon="4.84904">
        <ele>272</ele>
        <time>2017-07-10T09:27:16Z</time>
      </trkpt>
      <trkpt lat="45.98006" lon="4.84911">
        <ele>272</ele>
        <time>2017-07-10T09:27:17Z</time>
      </trkpt>
      <trkpt lat="45.98007" lon="4.84918">
        <ele>272</ele>
        <time>2017-07-10T09:27:18Z</time>
      </trkpt>
      <trkpt lat="45.98008" lon="4.84925">
        <ele>272</ele>
        <time>2017-07-10T09:27:19Z</time>
      </trkpt>
      <trkpt lat="45.98009" lon="4.84932">
        <ele>272</ele>
        <time>2017-07-10T09:27:20Z</time>
      </trkpt>
      <trkpt lat="45.98009" lon="4.84939">
        <ele>272</ele>
        <time>2017-07-10T09:27:21Z</time>
      </trkpt>
      <trkpt lat="45.98009" lon="4.84945">
        <ele>272</ele>
        <time>2017-07-10T09:27:22Z</time>
      </trkpt>
      <trkpt lat="45.98009" lon="4.84952">
        <ele>272</ele>
        <time>2017-07-10T09:27:23Z</time>
      </trkpt>
      <trkpt lat="45.9801" lon="4.8496">
        <ele>272</ele>
        <time>2017-07-10T09:27:24Z</time>
      </trkpt>
      <trkpt lat="45.9801" lon="4.84967">
        <ele>272</ele>
        <time>2017-07-10T09:27:25Z</time>
      </trkpt>
      <trkpt lat="45.98011" lon="4.84975">
        <ele>272</ele>
        <time>2017-07-10T09:27:26Z</time>
      </trkpt>
      <trkpt lat="45.98012" lon="4.84982">
        <ele>272</ele>
        <time>2017-07-10T09:27:27Z</time>
      </trkpt>
      <trkpt lat="45.98013" lon="4.8499">
        <ele>272</ele>
        <time>2017-07-10T09:27:28Z</time>
      </trkpt>
      <trkpt lat="45.98014" lon="4.84998">
        <ele>272</ele>
        <time>2017-07-10T09:27:29Z</time>
      </trkpt>
      <trkpt lat="45.98015" lon="4.85005">
        <ele>272</ele>
        <time>2017-07-10T09:27:30Z</time>
      </trkpt>
      <trkpt lat="45.98015" lon="4.85012">
        <ele>272</ele>
        <time>2017-07-10T09:27:31Z</time>
      </trkpt>
      <trkpt lat="45.98016" lon="4.85019">
        <ele>273</ele>
        <time>2017-07-10T09:27:32Z</time>
      </trkpt>
      <trkpt lat="45.98016" lon="4.85026">
        <ele>273</ele>
        <time>2017-07-10T09:27:33Z</time>
      </trkpt>
      <trkpt lat="45.98017" lon="4.85033">
        <ele>273</ele>
        <time>2017-07-10T09:27:34Z</time>
      </trkpt>
      <trkpt lat="45.98017" lon="4.8504">
        <ele>273</ele>
        <time>2017-07-10T09:27:35Z</time>
      </trkpt>
      <trkpt lat="45.98017" lon="4.85047">
        <ele>273</ele>
        <time>2017-07-10T09:27:36Z</time>
      </trkpt>
      <trkpt lat="45.98018" lon="4.85053">
        <ele>273</ele>
        <time>2017-07-10T09:27:37Z</time>
      </trkpt>
      <trkpt lat="45.98018" lon="4.8506">
        <ele>273</ele>
        <time>2017-07-10T09:27:38Z</time>
      </trkpt>
      <trkpt lat="45.98018" lon="4.85067">
        <ele>273</ele>
        <time>2017-07-10T09:27:39Z</time>
      </trkpt>
      <trkpt lat="45.98018" lon="4.85075">
        <ele>273</ele>
        <time>2017-07-10T09:27:40Z</time>
      </trkpt>
      <trkpt lat="45.98018" lon="4.85082">
        <ele>273</ele>
        <time>2017-07-10T09:27:41Z</time>
      </trkpt>
      <trkpt lat="45.98019" lon="4.8509">
        <ele>274</ele>
        <time>2017-07-10T09:27:42Z</time>
      </trkpt>
      <trkpt lat="45.9802" lon="4.85097">
        <ele>274</ele>
        <time>2017-07-10T09:27:43Z</time>
      </trkpt>
      <trkpt lat="45.98021" lon="4.85104">
        <ele>274</ele>
        <time>2017-07-10T09:27:44Z</time>
      </trkpt>
      <trkpt lat="45.98023" lon="4.85112">
        <ele>274</ele>
        <time>2017-07-10T09:27:45Z</time>
      </trkpt>
      <trkpt lat="45.98024" lon="4.85118">
        <ele>274</ele>
        <time>2017-07-10T09:27:46Z</time>
      </trkpt>
      <trkpt lat="45.98026" lon="4.85125">
        <ele>274</ele>
        <time>2017-07-10T09:27:47Z</time>
      </trkpt>
      <trkpt lat="45.98027" lon="4.85131">
        <ele>274</ele>
        <time>2017-07-10T09:27:48Z</time>
      </trkpt>
      <trkpt lat="45.98029" lon="4.85137">
        <ele>275</ele>
        <time>2017-07-10T09:27:49Z</time>
      </trkpt>
      <trkpt lat="45.98032" lon="4.85143">
        <ele>275</ele>
        <time>2017-07-10T09:27:50Z</time>
      </trkpt>
      <trkpt lat="45.98034" lon="4.8515">
        <ele>275</ele>
        <time>2017-07-10T09:27:51Z</time>
      </trkpt>
      <trkpt lat="45.98036" lon="4.85157">
        <ele>275</ele>
        <time>2017-07-10T09:27:52Z</time>
      </trkpt>
      <trkpt lat="45.98039" lon="4.85162">
        <ele>275</ele>
        <time>2017-07-10T09:27:53Z</time>
      </trkpt>
      <trkpt lat="45.98043" lon="4.85172">
        <ele>275</ele>
        <time>2017-07-10T09:27:55Z</time>
      </trkpt>
      <trkpt lat="45.98044" lon="4.85178">
        <ele>276</ele>
        <time>2017-07-10T09:27:56Z</time>
      </trkpt>
      <trkpt lat="45.98048" lon="4.85187">
        <ele>276</ele>
        <time>2017-07-10T09:27:58Z</time>
      </trkpt>
      <trkpt lat="45.98049" lon="4.85192">
        <ele>276</ele>
        <time>2017-07-10T09:27:59Z</time>
      </trkpt>
      <trkpt lat="45.98052" lon="4.85202">
        <ele>276</ele>
        <time>2017-07-10T09:28:03Z</time>
      </trkpt>
      <trkpt lat="45.98053" lon="4.85203">
        <ele>276</ele>
        <time>2017-07-10T09:28:04Z</time>
      </trkpt>
      <trkpt lat="45.98054" lon="4.85215">
        <ele>276</ele>
        <time>2017-07-10T09:28:11Z</time>
      </trkpt>
      <trkpt lat="45.98056" lon="4.85218">
        <ele>276</ele>
        <time>2017-07-10T09:28:12Z</time>
      </trkpt>
      <trkpt lat="45.9806" lon="4.85227">
        <ele>276</ele>
        <time>2017-07-10T09:28:14Z</time>
      </trkpt>
      <trkpt lat="45.98062" lon="4.85232">
        <ele>276</ele>
        <time>2017-07-10T09:28:15Z</time>
      </trkpt>
      <trkpt lat="45.98065" lon="4.85238">
        <ele>276</ele>
        <time>2017-07-10T09:28:16Z</time>
      </trkpt>
      <trkpt lat="45.98068" lon="4.85243">
        <ele>276</ele>
        <time>2017-07-10T09:28:17Z</time>
      </trkpt>
      <trkpt lat="45.98072" lon="4.85249">
        <ele>276</ele>
        <time>2017-07-10T09:28:18Z</time>
      </trkpt>
      <trkpt lat="45.98075" lon="4.85255">
        <ele>276</ele>
        <time>2017-07-10T09:28:19Z</time>
      </trkpt>
      <trkpt lat="45.98078" lon="4.8526">
        <ele>276</ele>
        <time>2017-07-10T09:28:20Z</time>
      </trkpt>
      <trkpt lat="45.98081" lon="4.85265">
        <ele>276</ele>
        <time>2017-07-10T09:28:21Z</time>
      </trkpt>
      <trkpt lat="45.98083" lon="4.85271">
        <ele>276</ele>
        <time>2017-07-10T09:28:22Z</time>
      </trkpt>
      <trkpt lat="45.98086" lon="4.85277">
        <ele>276</ele>
        <time>2017-07-10T09:28:23Z</time>
      </trkpt>
      <trkpt lat="45.98089" lon="4.85282">
        <ele>276</ele>
        <time>2017-07-10T09:28:24Z</time>
      </trkpt>
      <trkpt lat="45.98092" lon="4.85287">
        <ele>276</ele>
        <time>2017-07-10T09:28:25Z</time>
      </trkpt>
      <trkpt lat="45.98095" lon="4.85293">
        <ele>276</ele>
        <time>2017-07-10T09:28:26Z</time>
      </trkpt>
      <trkpt lat="45.98097" lon="4.85299">
        <ele>276</ele>
        <time>2017-07-10T09:28:27Z</time>
      </trkpt>
      <trkpt lat="45.981" lon="4.85305">
        <ele>276</ele>
        <time>2017-07-10T09:28:28Z</time>
      </trkpt>
      <trkpt lat="45.98102" lon="4.85311">
        <ele>276</ele>
        <time>2017-07-10T09:28:29Z</time>
      </trkpt>
      <trkpt lat="45.98105" lon="4.85316">
        <ele>276</ele>
        <time>2017-07-10T09:28:30Z</time>
      </trkpt>
      <trkpt lat="45.98107" lon="4.85322">
        <ele>276</ele>
        <time>2017-07-10T09:28:31Z</time>
      </trkpt>
      <trkpt lat="45.98109" lon="4.85328">
        <ele>276</ele>
        <time>2017-07-10T09:28:32Z</time>
      </trkpt>
      <trkpt lat="45.98111" lon="4.85335">
        <ele>276</ele>
        <time>2017-07-10T09:28:33Z</time>
      </trkpt>
      <trkpt lat="45.98113" lon="4.85342">
        <ele>276</ele>
        <time>2017-07-10T09:28:34Z</time>
      </trkpt>
      <trkpt lat="45.98115" lon="4.85349">
        <ele>276</ele>
        <time>2017-07-10T09:28:35Z</time>
      </trkpt>
      <trkpt lat="45.98118" lon="4.85355">
        <ele>276</ele>
        <time>2017-07-10T09:28:36Z</time>
      </trkpt>
      <trkpt lat="45.9812" lon="4.85363">
        <ele>276</ele>
        <time>2017-07-10T09:28:37Z</time>
      </trkpt>
      <trkpt lat="45.98123" lon="4.85369">
        <ele>276</ele>
        <time>2017-07-10T09:28:38Z</time>
      </trkpt>
      <trkpt lat="45.98125" lon="4.85376">
        <ele>276</ele>
        <time>2017-07-10T09:28:39Z</time>
      </trkpt>
      <trkpt lat="45.98128" lon="4.85383">
        <ele>276</ele>
        <time>2017-07-10T09:28:40Z</time>
      </trkpt>
      <trkpt lat="45.9813" lon="4.8539">
        <ele>276</ele>
        <time>2017-07-10T09:28:41Z</time>
      </trkpt>
      <trkpt lat="45.98133" lon="4.85396">
        <ele>276</ele>
        <time>2017-07-10T09:28:42Z</time>
      </trkpt>
      <trkpt lat="45.98136" lon="4.85401">
        <ele>276</ele>
        <time>2017-07-10T09:28:43Z</time>
      </trkpt>
      <trkpt lat="45.98139" lon="4.85407">
        <ele>276</ele>
        <time>2017-07-10T09:28:44Z</time>
      </trkpt>
      <trkpt lat="45.98142" lon="4.85413">
        <ele>276</ele>
        <time>2017-07-10T09:28:45Z</time>
      </trkpt>
      <trkpt lat="45.98145" lon="4.85419">
        <ele>276</ele>
        <time>2017-07-10T09:28:46Z</time>
      </trkpt>
      <trkpt lat="45.98148" lon="4.85425">
        <ele>276</ele>
        <time>2017-07-10T09:28:47Z</time>
      </trkpt>
      <trkpt lat="45.98151" lon="4.85431">
        <ele>276</ele>
        <time>2017-07-10T09:28:48Z</time>
      </trkpt>
      <trkpt lat="45.98154" lon="4.85437">
        <ele>276</ele>
        <time>2017-07-10T09:28:49Z</time>
      </trkpt>
      <trkpt lat="45.98158" lon="4.85447">
        <ele>276</ele>
        <time>2017-07-10T09:28:51Z</time>
      </trkpt>
      <trkpt lat="45.9816" lon="4.85453">
        <ele>276</ele>
        <time>2017-07-10T09:28:52Z</time>
      </trkpt>
      <trkpt lat="45.98161" lon="4.85458">
        <ele>276</ele>
        <time>2017-07-10T09:28:53Z</time>
      </trkpt>
      <trkpt lat="45.98164" lon="4.85465">
        <ele>275</ele>
        <time>2017-07-10T09:28:54Z</time>
      </trkpt>
      <trkpt lat="45.98166" lon="4.85471">
        <ele>275</ele>
        <time>2017-07-10T09:28:55Z</time>
      </trkpt>
      <trkpt lat="45.98169" lon="4.85478">
        <ele>275</ele>
        <time>2017-07-10T09:28:56Z</time>
      </trkpt>
      <trkpt lat="45.98172" lon="4.85485">
        <ele>275</ele>
        <time>2017-07-10T09:28:57Z</time>
      </trkpt>
      <trkpt lat="45.98175" lon="4.85492">
        <ele>275</ele>
        <time>2017-07-10T09:28:58Z</time>
      </trkpt>
      <trkpt lat="45.98178" lon="4.85499">
        <ele>275</ele>
        <time>2017-07-10T09:28:59Z</time>
      </trkpt>
      <trkpt lat="45.9818" lon="4.85506">
        <ele>275</ele>
        <time>2017-07-10T09:29:00Z</time>
      </trkpt>
      <trkpt lat="45.98183" lon="4.85513">
        <ele>275</ele>
        <time>2017-07-10T09:29:01Z</time>
      </trkpt>
      <trkpt lat="45.98186" lon="4.8552">
        <ele>275</ele>
        <time>2017-07-10T09:29:02Z</time>
      </trkpt>
      <trkpt lat="45.98188" lon="4.85526">
        <ele>276</ele>
        <time>2017-07-10T09:29:03Z</time>
      </trkpt>
      <trkpt lat="45.98191" lon="4.85532">
        <ele>276</ele>
        <time>2017-07-10T09:29:04Z</time>
      </trkpt>
      <trkpt lat="45.98195" lon="4.85543">
        <ele>276</ele>
        <time>2017-07-10T09:29:06Z</time>
      </trkpt>
      <trkpt lat="45.98198" lon="4.85548">
        <ele>276</ele>
        <time>2017-07-10T09:29:07Z</time>
      </trkpt>
      <trkpt lat="45.982" lon="4.85554">
        <ele>276</ele>
        <time>2017-07-10T09:29:08Z</time>
      </trkpt>
      <trkpt lat="45.98203" lon="4.8556">
        <ele>276</ele>
        <time>2017-07-10T09:29:09Z</time>
      </trkpt>
      <trkpt lat="45.98205" lon="4.85566">
        <ele>276</ele>
        <time>2017-07-10T09:29:10Z</time>
      </trkpt>
      <trkpt lat="45.98208" lon="4.85572">
        <ele>276</ele>
        <time>2017-07-10T09:29:11Z</time>
      </trkpt>
      <trkpt lat="45.98211" lon="4.85579">
        <ele>276</ele>
        <time>2017-07-10T09:29:12Z</time>
      </trkpt>
      <trkpt lat="45.98214" lon="4.85585">
        <ele>277</ele>
        <time>2017-07-10T09:29:13Z</time>
      </trkpt>
      <trkpt lat="45.98216" lon="4.85592">
        <ele>277</ele>
        <time>2017-07-10T09:29:14Z</time>
      </trkpt>
      <trkpt lat="45.98219" lon="4.85598">
        <ele>277</ele>
        <time>2017-07-10T09:29:15Z</time>
      </trkpt>
      <trkpt lat="45.98221" lon="4.85604">
        <ele>277</ele>
        <time>2017-07-10T09:29:16Z</time>
      </trkpt>
      <trkpt lat="45.98223" lon="4.8561">
        <ele>277</ele>
        <time>2017-07-10T09:29:17Z</time>
      </trkpt>
      <trkpt lat="45.98228" lon="4.8562">
        <ele>277</ele>
        <time>2017-07-10T09:29:19Z</time>
      </trkpt>
      <trkpt lat="45.9823" lon="4.85625">
        <ele>277</ele>
        <time>2017-07-10T09:29:20Z</time>
      </trkpt>
      <trkpt lat="45.98234" lon="4.85636">
        <ele>277</ele>
        <time>2017-07-10T09:29:22Z</time>
      </trkpt>
      <trkpt lat="45.98236" lon="4.85642">
        <ele>277</ele>
        <time>2017-07-10T09:29:23Z</time>
      </trkpt>
      <trkpt lat="45.98239" lon="4.85648">
        <ele>276</ele>
        <time>2017-07-10T09:29:24Z</time>
      </trkpt>
      <trkpt lat="45.98241" lon="4.85654">
        <ele>276</ele>
        <time>2017-07-10T09:29:25Z</time>
      </trkpt>
      <trkpt lat="45.98244" lon="4.8566">
        <ele>276</ele>
        <time>2017-07-10T09:29:26Z</time>
      </trkpt>
      <trkpt lat="45.98246" lon="4.85666">
        <ele>276</ele>
        <time>2017-07-10T09:29:27Z</time>
      </trkpt>
      <trkpt lat="45.9825" lon="4.85677">
        <ele>276</ele>
        <time>2017-07-10T09:29:29Z</time>
      </trkpt>
      <trkpt lat="45.98252" lon="4.85682">
        <ele>275</ele>
        <time>2017-07-10T09:29:30Z</time>
      </trkpt>
      <trkpt lat="45.98256" lon="4.85692">
        <ele>275</ele>
        <time>2017-07-10T09:29:32Z</time>
      </trkpt>
      <trkpt lat="45.98258" lon="4.85697">
        <ele>275</ele>
        <time>2017-07-10T09:29:33Z</time>
      </trkpt>
      <trkpt lat="45.98263" lon="4.85708">
        <ele>275</ele>
        <time>2017-07-10T09:29:35Z</time>
      </trkpt>
      <trkpt lat="45.98265" lon="4.85714">
        <ele>275</ele>
        <time>2017-07-10T09:29:36Z</time>
      </trkpt>
      <trkpt lat="45.98267" lon="4.85721">
        <ele>275</ele>
        <time>2017-07-10T09:29:37Z</time>
      </trkpt>
      <trkpt lat="45.9827" lon="4.85727">
        <ele>275</ele>
        <time>2017-07-10T09:29:38Z</time>
      </trkpt>
      <trkpt lat="45.98272" lon="4.85733">
        <ele>274</ele>
        <time>2017-07-10T09:29:39Z</time>
      </trkpt>
      <trkpt lat="45.98275" lon="4.8574">
        <ele>274</ele>
        <time>2017-07-10T09:29:40Z</time>
      </trkpt>
      <trkpt lat="45.98278" lon="4.85746">
        <ele>274</ele>
        <time>2017-07-10T09:29:41Z</time>
      </trkpt>
      <trkpt lat="45.9828" lon="4.85752">
        <ele>275</ele>
        <time>2017-07-10T09:29:42Z</time>
      </trkpt>
      <trkpt lat="45.98283" lon="4.85759">
        <ele>275</ele>
        <time>2017-07-10T09:29:43Z</time>
      </trkpt>
      <trkpt lat="45.98285" lon="4.85765">
        <ele>275</ele>
        <time>2017-07-10T09:29:44Z</time>
      </trkpt>
      <trkpt lat="45.98288" lon="4.85772">
        <ele>275</ele>
        <time>2017-07-10T09:29:45Z</time>
      </trkpt>
      <trkpt lat="45.98291" lon="4.85779">
        <ele>275</ele>
        <time>2017-07-10T09:29:46Z</time>
      </trkpt>
      <trkpt lat="45.98294" lon="4.85786">
        <ele>275</ele>
        <time>2017-07-10T09:29:47Z</time>
      </trkpt>
      <trkpt lat="45.98297" lon="4.85793">
        <ele>275</ele>
        <time>2017-07-10T09:29:48Z</time>
      </trkpt>
      <trkpt lat="45.983" lon="4.858">
        <ele>275</ele>
        <time>2017-07-10T09:29:49Z</time>
      </trkpt>
      <trkpt lat="45.98302" lon="4.85806">
        <ele>275</ele>
        <time>2017-07-10T09:29:50Z</time>
      </trkpt>
      <trkpt lat="45.98304" lon="4.85812">
        <ele>275</ele>
        <time>2017-07-10T09:29:51Z</time>
      </trkpt>
      <trkpt lat="45.98307" lon="4.85818">
        <ele>275</ele>
        <time>2017-07-10T09:29:52Z</time>
      </trkpt>
      <trkpt lat="45.98311" lon="4.85829">
        <ele>275</ele>
        <time>2017-07-10T09:29:54Z</time>
      </trkpt>
      <trkpt lat="45.98313" lon="4.85835">
        <ele>276</ele>
        <time>2017-07-10T09:29:55Z</time>
      </trkpt>
      <trkpt lat="45.98315" lon="4.85841">
        <ele>276</ele>
        <time>2017-07-10T09:29:56Z</time>
      </trkpt>
      <trkpt lat="45.98318" lon="4.85847">
        <ele>276</ele>
        <time>2017-07-10T09:29:57Z</time>
      </trkpt>
      <trkpt lat="45.98321" lon="4.85854">
        <ele>276</ele>
        <time>2017-07-10T09:29:58Z</time>
      </trkpt>
      <trkpt lat="45.98323" lon="4.8586">
        <ele>276</ele>
        <time>2017-07-10T09:29:59Z</time>
      </trkpt>
      <trkpt lat="45.98326" lon="4.85866">
        <ele>276</ele>
        <time>2017-07-10T09:30:00Z</time>
      </trkpt>
      <trkpt lat="45.98329" lon="4.85873">
        <ele>276</ele>
        <time>2017-07-10T09:30:01Z</time>
      </trkpt>
      <trkpt lat="45.98331" lon="4.85879">
        <ele>276</ele>
        <time>2017-07-10T09:30:02Z</time>
      </trkpt>
      <trkpt lat="45.98334" lon="4.85886">
        <ele>276</ele>
        <time>2017-07-10T09:30:03Z</time>
      </trkpt>
      <trkpt lat="45.98336" lon="4.85894">
        <ele>276</ele>
        <time>2017-07-10T09:30:04Z</time>
      </trkpt>
      <trkpt lat="45.98339" lon="4.85901">
        <ele>276</ele>
        <time>2017-07-10T09:30:05Z</time>
      </trkpt>
      <trkpt lat="45.98341" lon="4.85908">
        <ele>276</ele>
        <time>2017-07-10T09:30:06Z</time>
      </trkpt>
      <trkpt lat="45.98344" lon="4.85914">
        <ele>276</ele>
        <time>2017-07-10T09:30:07Z</time>
      </trkpt>
      <trkpt lat="45.98346" lon="4.85921">
        <ele>276</ele>
        <time>2017-07-10T09:30:08Z</time>
      </trkpt>
      <trkpt lat="45.9835" lon="4.85927">
        <ele>276</ele>
        <time>2017-07-10T09:30:09Z</time>
      </trkpt>
      <trkpt lat="45.98353" lon="4.85933">
        <ele>276</ele>
        <time>2017-07-10T09:30:10Z</time>
      </trkpt>
      <trkpt lat="45.98355" lon="4.85938">
        <ele>276</ele>
        <time>2017-07-10T09:30:11Z</time>
      </trkpt>
      <trkpt lat="45.9836" lon="4.85947">
        <ele>276</ele>
        <time>2017-07-10T09:30:13Z</time>
      </trkpt>
      <trkpt lat="45.98361" lon="4.85953">
        <ele>276</ele>
        <time>2017-07-10T09:30:14Z</time>
      </trkpt>
      <trkpt lat="45.98363" lon="4.85959">
        <ele>276</ele>
        <time>2017-07-10T09:30:15Z</time>
      </trkpt>
      <trkpt lat="45.98365" lon="4.85966">
        <ele>276</ele>
        <time>2017-07-10T09:30:16Z</time>
      </trkpt>
      <trkpt lat="45.98367" lon="4.85973">
        <ele>276</ele>
        <time>2017-07-10T09:30:17Z</time>
      </trkpt>
      <trkpt lat="45.9837" lon="4.8598">
        <ele>276</ele>
        <time>2017-07-10T09:30:18Z</time>
      </trkpt>
      <trkpt lat="45.98372" lon="4.85986">
        <ele>276</ele>
        <time>2017-07-10T09:30:19Z</time>
      </trkpt>
      <trkpt lat="45.98374" lon="4.85993">
        <ele>277</ele>
        <time>2017-07-10T09:30:20Z</time>
      </trkpt>
      <trkpt lat="45.98376" lon="4.85999">
        <ele>277</ele>
        <time>2017-07-10T09:30:21Z</time>
      </trkpt>
      <trkpt lat="45.98378" lon="4.86006">
        <ele>277</ele>
        <time>2017-07-10T09:30:22Z</time>
      </trkpt>
      <trkpt lat="45.9838" lon="4.86012">
        <ele>277</ele>
        <time>2017-07-10T09:30:23Z</time>
      </trkpt>
      <trkpt lat="45.98382" lon="4.86019">
        <ele>277</ele>
        <time>2017-07-10T09:30:24Z</time>
      </trkpt>
      <trkpt lat="45.98384" lon="4.86025">
        <ele>277</ele>
        <time>2017-07-10T09:30:25Z</time>
      </trkpt>
      <trkpt lat="45.98386" lon="4.8603">
        <ele>277</ele>
        <time>2017-07-10T09:30:26Z</time>
      </trkpt>
      <trkpt lat="45.98391" lon="4.86041">
        <ele>277</ele>
        <time>2017-07-10T09:30:28Z</time>
      </trkpt>
      <trkpt lat="45.98394" lon="4.86046">
        <ele>277</ele>
        <time>2017-07-10T09:30:29Z</time>
      </trkpt>
      <trkpt lat="45.98397" lon="4.86052">
        <ele>277</ele>
        <time>2017-07-10T09:30:30Z</time>
      </trkpt>
      <trkpt lat="45.98399" lon="4.86058">
        <ele>277</ele>
        <time>2017-07-10T09:30:31Z</time>
      </trkpt>
      <trkpt lat="45.98401" lon="4.86065">
        <ele>277</ele>
        <time>2017-07-10T09:30:32Z</time>
      </trkpt>
      <trkpt lat="45.98402" lon="4.86072">
        <ele>277</ele>
        <time>2017-07-10T09:30:33Z</time>
      </trkpt>
      <trkpt lat="45.98404" lon="4.86079">
        <ele>277</ele>
        <time>2017-07-10T09:30:34Z</time>
      </trkpt>
      <trkpt lat="45.98405" lon="4.86086">
        <ele>277</ele>
        <time>2017-07-10T09:30:35Z</time>
      </trkpt>
      <trkpt lat="45.98406" lon="4.86093">
        <ele>277</ele>
        <time>2017-07-10T09:30:36Z</time>
      </trkpt>
      <trkpt lat="45.98407" lon="4.861">
        <ele>277</ele>
        <time>2017-07-10T09:30:37Z</time>
      </trkpt>
      <trkpt lat="45.98409" lon="4.86107">
        <ele>277</ele>
        <time>2017-07-10T09:30:38Z</time>
      </trkpt>
      <trkpt lat="45.9841" lon="4.86113">
        <ele>277</ele>
        <time>2017-07-10T09:30:39Z</time>
      </trkpt>
      <trkpt lat="45.98412" lon="4.8612">
        <ele>277</ele>
        <time>2017-07-10T09:30:40Z</time>
      </trkpt>
      <trkpt lat="45.98413" lon="4.86127">
        <ele>276</ele>
        <time>2017-07-10T09:30:41Z</time>
      </trkpt>
      <trkpt lat="45.98414" lon="4.86134">
        <ele>276</ele>
        <time>2017-07-10T09:30:42Z</time>
      </trkpt>
      <trkpt lat="45.98415" lon="4.8614">
        <ele>276</ele>
        <time>2017-07-10T09:30:43Z</time>
      </trkpt>
      <trkpt lat="45.98416" lon="4.86151">
        <ele>276</ele>
        <time>2017-07-10T09:30:45Z</time>
      </trkpt>
      <trkpt lat="45.98417" lon="4.86156">
        <ele>276</ele>
        <time>2017-07-10T09:30:46Z</time>
      </trkpt>
      <trkpt lat="45.98418" lon="4.86165">
        <ele>276</ele>
        <time>2017-07-10T09:30:48Z</time>
      </trkpt>
      <trkpt lat="45.98418" lon="4.8617">
        <ele>276</ele>
        <time>2017-07-10T09:30:49Z</time>
      </trkpt>
      <trkpt lat="45.9842" lon="4.8618">
        <ele>275</ele>
        <time>2017-07-10T09:30:51Z</time>
      </trkpt>
      <trkpt lat="45.98421" lon="4.86185">
        <ele>275</ele>
        <time>2017-07-10T09:30:52Z</time>
      </trkpt>
      <trkpt lat="45.98423" lon="4.86196">
        <ele>275</ele>
        <time>2017-07-10T09:30:54Z</time>
      </trkpt>
      <trkpt lat="45.98424" lon="4.86201">
        <ele>275</ele>
        <time>2017-07-10T09:30:55Z</time>
      </trkpt>
      <trkpt lat="45.98425" lon="4.86212">
        <ele>275</ele>
        <time>2017-07-10T09:30:57Z</time>
      </trkpt>
      <trkpt lat="45.98426" lon="4.86217">
        <ele>275</ele>
        <time>2017-07-10T09:30:58Z</time>
      </trkpt>
      <trkpt lat="45.98428" lon="4.8623">
        <ele>275</ele>
        <time>2017-07-10T09:31:00Z</time>
      </trkpt>
      <trkpt lat="45.98429" lon="4.86236">
        <ele>275</ele>
        <time>2017-07-10T09:31:01Z</time>
      </trkpt>
      <trkpt lat="45.98429" lon="4.86244">
        <ele>275</ele>
        <time>2017-07-10T09:31:02Z</time>
      </trkpt>
      <trkpt lat="45.9843" lon="4.86252">
        <ele>275</ele>
        <time>2017-07-10T09:31:03Z</time>
      </trkpt>
      <trkpt lat="45.98431" lon="4.8626">
        <ele>275</ele>
        <time>2017-07-10T09:31:04Z</time>
      </trkpt>
      <trkpt lat="45.98433" lon="4.86269">
        <ele>275</ele>
        <time>2017-07-10T09:31:05Z</time>
      </trkpt>
      <trkpt lat="45.98434" lon="4.86279">
        <ele>276</ele>
        <time>2017-07-10T09:31:06Z</time>
      </trkpt>
      <trkpt lat="45.98436" lon="4.86289">
        <ele>276</ele>
        <time>2017-07-10T09:31:07Z</time>
      </trkpt>
      <trkpt lat="45.98437" lon="4.86298">
        <ele>276</ele>
        <time>2017-07-10T09:31:08Z</time>
      </trkpt>
      <trkpt lat="45.98439" lon="4.86309">
        <ele>276</ele>
        <time>2017-07-10T09:31:09Z</time>
      </trkpt>
      <trkpt lat="45.98441" lon="4.86318">
        <ele>276</ele>
        <time>2017-07-10T09:31:10Z</time>
      </trkpt>
      <trkpt lat="45.98443" lon="4.86328">
        <ele>276</ele>
        <time>2017-07-10T09:31:11Z</time>
      </trkpt>
      <trkpt lat="45.98446" lon="4.86337">
        <ele>277</ele>
        <time>2017-07-10T09:31:12Z</time>
      </trkpt>
      <trkpt lat="45.98448" lon="4.86347">
        <ele>277</ele>
        <time>2017-07-10T09:31:13Z</time>
      </trkpt>
      <trkpt lat="45.98451" lon="4.86356">
        <ele>277</ele>
        <time>2017-07-10T09:31:14Z</time>
      </trkpt>
      <trkpt lat="45.98454" lon="4.86364">
        <ele>277</ele>
        <time>2017-07-10T09:31:15Z</time>
      </trkpt>
      <trkpt lat="45.98457" lon="4.86373">
        <ele>277</ele>
        <time>2017-07-10T09:31:16Z</time>
      </trkpt>
      <trkpt lat="45.9846" lon="4.86382">
        <ele>277</ele>
        <time>2017-07-10T09:31:17Z</time>
      </trkpt>
      <trkpt lat="45.98463" lon="4.8639">
        <ele>277</ele>
        <time>2017-07-10T09:31:18Z</time>
      </trkpt>
      <trkpt lat="45.98467" lon="4.86397">
        <ele>277</ele>
        <time>2017-07-10T09:31:19Z</time>
      </trkpt>
      <trkpt lat="45.9847" lon="4.86404">
        <ele>277</ele>
        <time>2017-07-10T09:31:20Z</time>
      </trkpt>
      <trkpt lat="45.98473" lon="4.86411">
        <ele>277</ele>
        <time>2017-07-10T09:31:21Z</time>
      </trkpt>
      <trkpt lat="45.98477" lon="4.86418">
        <ele>278</ele>
        <time>2017-07-10T09:31:22Z</time>
      </trkpt>
      <trkpt lat="45.9848" lon="4.86426">
        <ele>278</ele>
        <time>2017-07-10T09:31:23Z</time>
      </trkpt>
      <trkpt lat="45.98484" lon="4.86433">
        <ele>278</ele>
        <time>2017-07-10T09:31:24Z</time>
      </trkpt>
      <trkpt lat="45.98487" lon="4.86439">
        <ele>278</ele>
        <time>2017-07-10T09:31:25Z</time>
      </trkpt>
      <trkpt lat="45.98491" lon="4.86446">
        <ele>278</ele>
        <time>2017-07-10T09:31:26Z</time>
      </trkpt>
      <trkpt lat="45.98494" lon="4.86452">
        <ele>278</ele>
        <time>2017-07-10T09:31:27Z</time>
      </trkpt>
      <trkpt lat="45.98498" lon="4.86458">
        <ele>278</ele>
        <time>2017-07-10T09:31:28Z</time>
      </trkpt>
      <trkpt lat="45.985" lon="4.86464">
        <ele>278</ele>
        <time>2017-07-10T09:31:29Z</time>
      </trkpt>
      <trkpt lat="45.98503" lon="4.8647">
        <ele>278</ele>
        <time>2017-07-10T09:31:30Z</time>
      </trkpt>
      <trkpt lat="45.98505" lon="4.86476">
        <ele>278</ele>
        <time>2017-07-10T09:31:31Z</time>
      </trkpt>
      <trkpt lat="45.98507" lon="4.86482">
        <ele>278</ele>
        <time>2017-07-10T09:31:32Z</time>
      </trkpt>
      <trkpt lat="45.98511" lon="4.86489">
        <ele>279</ele>
        <time>2017-07-10T09:31:33Z</time>
      </trkpt>
      <trkpt lat="45.98514" lon="4.86496">
        <ele>279</ele>
        <time>2017-07-10T09:31:34Z</time>
      </trkpt>
      <trkpt lat="45.98517" lon="4.86503">
        <ele>279</ele>
        <time>2017-07-10T09:31:35Z</time>
      </trkpt>
      <trkpt lat="45.9852" lon="4.86509">
        <ele>279</ele>
        <time>2017-07-10T09:31:36Z</time>
      </trkpt>
      <trkpt lat="45.98524" lon="4.86516">
        <ele>279</ele>
        <time>2017-07-10T09:31:37Z</time>
      </trkpt>
      <trkpt lat="45.98527" lon="4.86523">
        <ele>279</ele>
        <time>2017-07-10T09:31:38Z</time>
      </trkpt>
      <trkpt lat="45.98531" lon="4.86529">
        <ele>279</ele>
        <time>2017-07-10T09:31:39Z</time>
      </trkpt>
      <trkpt lat="45.98535" lon="4.86536">
        <ele>278</ele>
        <time>2017-07-10T09:31:40Z</time>
      </trkpt>
      <trkpt lat="45.98538" lon="4.86543">
        <ele>278</ele>
        <time>2017-07-10T09:31:41Z</time>
      </trkpt>
      <trkpt lat="45.98543" lon="4.86551">
        <ele>278</ele>
        <time>2017-07-10T09:31:42Z</time>
      </trkpt>
      <trkpt lat="45.98546" lon="4.86559">
        <ele>278</ele>
        <time>2017-07-10T09:31:43Z</time>
      </trkpt>
      <trkpt lat="45.9855" lon="4.86567">
        <ele>278</ele>
        <time>2017-07-10T09:31:44Z</time>
      </trkpt>
      <trkpt lat="45.98552" lon="4.86575">
        <ele>278</ele>
        <time>2017-07-10T09:31:45Z</time>
      </trkpt>
      <trkpt lat="45.98555" lon="4.86583">
        <ele>278</ele>
        <time>2017-07-10T09:31:46Z</time>
      </trkpt>
      <trkpt lat="45.98557" lon="4.86591">
        <ele>278</ele>
        <time>2017-07-10T09:31:47Z</time>
      </trkpt>
      <trkpt lat="45.98558" lon="4.86599">
        <ele>278</ele>
        <time>2017-07-10T09:31:48Z</time>
      </trkpt>
      <trkpt lat="45.9856" lon="4.86606">
        <ele>278</ele>
        <time>2017-07-10T09:31:49Z</time>
      </trkpt>
      <trkpt lat="45.98561" lon="4.86614">
        <ele>278</ele>
        <time>2017-07-10T09:31:50Z</time>
      </trkpt>
      <trkpt lat="45.98562" lon="4.86622">
        <ele>278</ele>
        <time>2017-07-10T09:31:51Z</time>
      </trkpt>
      <trkpt lat="45.98564" lon="4.8663">
        <ele>278</ele>
        <time>2017-07-10T09:31:52Z</time>
      </trkpt>
      <trkpt lat="45.98564" lon="4.86638">
        <ele>277</ele>
        <time>2017-07-10T09:31:53Z</time>
      </trkpt>
      <trkpt lat="45.98566" lon="4.86646">
        <ele>277</ele>
        <time>2017-07-10T09:31:54Z</time>
      </trkpt>
      <trkpt lat="45.98568" lon="4.86653">
        <ele>277</ele>
        <time>2017-07-10T09:31:55Z</time>
      </trkpt>
      <trkpt lat="45.98569" lon="4.86661">
        <ele>276</ele>
        <time>2017-07-10T09:31:56Z</time>
      </trkpt>
      <trkpt lat="45.9857" lon="4.86668">
        <ele>276</ele>
        <time>2017-07-10T09:31:57Z</time>
      </trkpt>
      <trkpt lat="45.9857" lon="4.86675">
        <ele>276</ele>
        <time>2017-07-10T09:31:58Z</time>
      </trkpt>
      <trkpt lat="45.98571" lon="4.86682">
        <ele>276</ele>
        <time>2017-07-10T09:31:59Z</time>
      </trkpt>
      <trkpt lat="45.9857" lon="4.86688">
        <ele>277</ele>
        <time>2017-07-10T09:32:00Z</time>
      </trkpt>
      <trkpt lat="45.98569" lon="4.86694">
        <ele>277</ele>
        <time>2017-07-10T09:32:01Z</time>
      </trkpt>
      <trkpt lat="45.98568" lon="4.86706">
        <ele>277</ele>
        <time>2017-07-10T09:32:03Z</time>
      </trkpt>
      <trkpt lat="45.98568" lon="4.86713">
        <ele>277</ele>
        <time>2017-07-10T09:32:04Z</time>
      </trkpt>
      <trkpt lat="45.98568" lon="4.86721">
        <ele>277</ele>
        <time>2017-07-10T09:32:05Z</time>
      </trkpt>
      <trkpt lat="45.98568" lon="4.86728">
        <ele>277</ele>
        <time>2017-07-10T09:32:06Z</time>
      </trkpt>
      <trkpt lat="45.98568" lon="4.86736">
        <ele>277</ele>
        <time>2017-07-10T09:32:07Z</time>
      </trkpt>
      <trkpt lat="45.98569" lon="4.86745">
        <ele>277</ele>
        <time>2017-07-10T09:32:08Z</time>
      </trkpt>
      <trkpt lat="45.9857" lon="4.86753">
        <ele>277</ele>
        <time>2017-07-10T09:32:09Z</time>
      </trkpt>
      <trkpt lat="45.98571" lon="4.8676">
        <ele>277</ele>
        <time>2017-07-10T09:32:10Z</time>
      </trkpt>
      <trkpt lat="45.98572" lon="4.86766">
        <ele>277</ele>
        <time>2017-07-10T09:32:11Z</time>
      </trkpt>
      <trkpt lat="45.98573" lon="4.86772">
        <ele>277</ele>
        <time>2017-07-10T09:32:12Z</time>
      </trkpt>
      <trkpt lat="45.98574" lon="4.86779">
        <ele>277</ele>
        <time>2017-07-10T09:32:13Z</time>
      </trkpt>
      <trkpt lat="45.98576" lon="4.86785">
        <ele>277</ele>
        <time>2017-07-10T09:32:14Z</time>
      </trkpt>
      <trkpt lat="45.98578" lon="4.86792">
        <ele>277</ele>
        <time>2017-07-10T09:32:15Z</time>
      </trkpt>
      <trkpt lat="45.98579" lon="4.86798">
        <ele>277</ele>
        <time>2017-07-10T09:32:16Z</time>
      </trkpt>
      <trkpt lat="45.98581" lon="4.86805">
        <ele>277</ele>
        <time>2017-07-10T09:32:17Z</time>
      </trkpt>
      <trkpt lat="45.98582" lon="4.86813">
        <ele>277</ele>
        <time>2017-07-10T09:32:18Z</time>
      </trkpt>
      <trkpt lat="45.98583" lon="4.86821">
        <ele>277</ele>
        <time>2017-07-10T09:32:19Z</time>
      </trkpt>
      <trkpt lat="45.98583" lon="4.86829">
        <ele>277</ele>
        <time>2017-07-10T09:32:20Z</time>
      </trkpt>
      <trkpt lat="45.98584" lon="4.86837">
        <ele>277</ele>
        <time>2017-07-10T09:32:21Z</time>
      </trkpt>
      <trkpt lat="45.98585" lon="4.86845">
        <ele>277</ele>
        <time>2017-07-10T09:32:22Z</time>
      </trkpt>
      <trkpt lat="45.98586" lon="4.86852">
        <ele>277</ele>
        <time>2017-07-10T09:32:23Z</time>
      </trkpt>
      <trkpt lat="45.98586" lon="4.86861">
        <ele>277</ele>
        <time>2017-07-10T09:32:24Z</time>
      </trkpt>
      <trkpt lat="45.98587" lon="4.86869">
        <ele>277</ele>
        <time>2017-07-10T09:32:25Z</time>
      </trkpt>
      <trkpt lat="45.98587" lon="4.86877">
        <ele>277</ele>
        <time>2017-07-10T09:32:26Z</time>
      </trkpt>
      <trkpt lat="45.98586" lon="4.86885">
        <ele>278</ele>
        <time>2017-07-10T09:32:27Z</time>
      </trkpt>
      <trkpt lat="45.98587" lon="4.86893">
        <ele>278</ele>
        <time>2017-07-10T09:32:28Z</time>
      </trkpt>
      <trkpt lat="45.98587" lon="4.86901">
        <ele>278</ele>
        <time>2017-07-10T09:32:29Z</time>
      </trkpt>
      <trkpt lat="45.98587" lon="4.86908">
        <ele>278</ele>
        <time>2017-07-10T09:32:30Z</time>
      </trkpt>
      <trkpt lat="45.98587" lon="4.86916">
        <ele>279</ele>
        <time>2017-07-10T09:32:31Z</time>
      </trkpt>
      <trkpt lat="45.98588" lon="4.86924">
        <ele>279</ele>
        <time>2017-07-10T09:32:32Z</time>
      </trkpt>
      <trkpt lat="45.98588" lon="4.86932">
        <ele>279</ele>
        <time>2017-07-10T09:32:33Z</time>
      </trkpt>
      <trkpt lat="45.98588" lon="4.8694">
        <ele>279</ele>
        <time>2017-07-10T09:32:34Z</time>
      </trkpt>
      <trkpt lat="45.98588" lon="4.86949">
        <ele>279</ele>
        <time>2017-07-10T09:32:35Z</time>
      </trkpt>
      <trkpt lat="45.98587" lon="4.86957">
        <ele>279</ele>
        <time>2017-07-10T09:32:36Z</time>
      </trkpt>
      <trkpt lat="45.98586" lon="4.86965">
        <ele>279</ele>
        <time>2017-07-10T09:32:37Z</time>
      </trkpt>
      <trkpt lat="45.98587" lon="4.86973">
        <ele>279</ele>
        <time>2017-07-10T09:32:38Z</time>
      </trkpt>
      <trkpt lat="45.98587" lon="4.86982">
        <ele>279</ele>
        <time>2017-07-10T09:32:39Z</time>
      </trkpt>
      <trkpt lat="45.98588" lon="4.86991">
        <ele>279</ele>
        <time>2017-07-10T09:32:40Z</time>
      </trkpt>
      <trkpt lat="45.98589" lon="4.86999">
        <ele>280</ele>
        <time>2017-07-10T09:32:41Z</time>
      </trkpt>
      <trkpt lat="45.9859" lon="4.87008">
        <ele>279</ele>
        <time>2017-07-10T09:32:42Z</time>
      </trkpt>
      <trkpt lat="45.98591" lon="4.87016">
        <ele>279</ele>
        <time>2017-07-10T09:32:43Z</time>
      </trkpt>
      <trkpt lat="45.98592" lon="4.87024">
        <ele>279</ele>
        <time>2017-07-10T09:32:44Z</time>
      </trkpt>
      <trkpt lat="45.98593" lon="4.87032">
        <ele>279</ele>
        <time>2017-07-10T09:32:45Z</time>
      </trkpt>
      <trkpt lat="45.98594" lon="4.8704">
        <ele>279</ele>
        <time>2017-07-10T09:32:46Z</time>
      </trkpt>
      <trkpt lat="45.98595" lon="4.87047">
        <ele>279</ele>
        <time>2017-07-10T09:32:47Z</time>
      </trkpt>
      <trkpt lat="45.98596" lon="4.87053">
        <ele>279</ele>
        <time>2017-07-10T09:32:48Z</time>
      </trkpt>
      <trkpt lat="45.98597" lon="4.87065">
        <ele>279</ele>
        <time>2017-07-10T09:32:50Z</time>
      </trkpt>
      <trkpt lat="45.98598" lon="4.87072">
        <ele>279</ele>
        <time>2017-07-10T09:32:51Z</time>
      </trkpt>
      <trkpt lat="45.986" lon="4.8708">
        <ele>279</ele>
        <time>2017-07-10T09:32:52Z</time>
      </trkpt>
      <trkpt lat="45.98601" lon="4.87087">
        <ele>279</ele>
        <time>2017-07-10T09:32:53Z</time>
      </trkpt>
      <trkpt lat="45.98605" lon="4.87094">
        <ele>279</ele>
        <time>2017-07-10T09:32:54Z</time>
      </trkpt>
      <trkpt lat="45.98606" lon="4.87101">
        <ele>279</ele>
        <time>2017-07-10T09:32:55Z</time>
      </trkpt>
      <trkpt lat="45.98608" lon="4.8711">
        <ele>279</ele>
        <time>2017-07-10T09:32:56Z</time>
      </trkpt>
      <trkpt lat="45.98608" lon="4.87119">
        <ele>279</ele>
        <time>2017-07-10T09:32:57Z</time>
      </trkpt>
      <trkpt lat="45.98608" lon="4.87129">
        <ele>279</ele>
        <time>2017-07-10T09:32:58Z</time>
      </trkpt>
      <trkpt lat="45.98607" lon="4.87137">
        <ele>278</ele>
        <time>2017-07-10T09:32:59Z</time>
      </trkpt>
      <trkpt lat="45.98607" lon="4.87147">
        <ele>278</ele>
        <time>2017-07-10T09:33:00Z</time>
      </trkpt>
      <trkpt lat="45.98607" lon="4.87156">
        <ele>278</ele>
        <time>2017-07-10T09:33:01Z</time>
      </trkpt>
      <trkpt lat="45.98607" lon="4.87165">
        <ele>278</ele>
        <time>2017-07-10T09:33:02Z</time>
      </trkpt>
      <trkpt lat="45.98607" lon="4.87174">
        <ele>277</ele>
        <time>2017-07-10T09:33:03Z</time>
      </trkpt>
      <trkpt lat="45.98607" lon="4.87182">
        <ele>277</ele>
        <time>2017-07-10T09:33:04Z</time>
      </trkpt>
      <trkpt lat="45.98607" lon="4.87191">
        <ele>277</ele>
        <time>2017-07-10T09:33:05Z</time>
      </trkpt>
      <trkpt lat="45.98605" lon="4.87202">
        <ele>277</ele>
        <time>2017-07-10T09:33:06Z</time>
      </trkpt>
      <trkpt lat="45.98604" lon="4.87212">
        <ele>277</ele>
        <time>2017-07-10T09:33:07Z</time>
      </trkpt>
      <trkpt lat="45.98603" lon="4.87221">
        <ele>277</ele>
        <time>2017-07-10T09:33:08Z</time>
      </trkpt>
      <trkpt lat="45.98602" lon="4.8723">
        <ele>277</ele>
        <time>2017-07-10T09:33:09Z</time>
      </trkpt>
      <trkpt lat="45.98602" lon="4.87238">
        <ele>277</ele>
        <time>2017-07-10T09:33:10Z</time>
      </trkpt>
      <trkpt lat="45.98601" lon="4.87246">
        <ele>277</ele>
        <time>2017-07-10T09:33:11Z</time>
      </trkpt>
      <trkpt lat="45.98601" lon="4.87253">
        <ele>275</ele>
        <time>2017-07-10T09:33:12Z</time>
      </trkpt>
      <trkpt lat="45.98601" lon="4.87261">
        <ele>275</ele>
        <time>2017-07-10T09:33:13Z</time>
      </trkpt>
      <trkpt lat="45.98601" lon="4.8727">
        <ele>275</ele>
        <time>2017-07-10T09:33:14Z</time>
      </trkpt>
      <trkpt lat="45.98601" lon="4.87278">
        <ele>275</ele>
        <time>2017-07-10T09:33:15Z</time>
      </trkpt>
      <trkpt lat="45.98602" lon="4.87288">
        <ele>275</ele>
        <time>2017-07-10T09:33:16Z</time>
      </trkpt>
      <trkpt lat="45.98602" lon="4.87298">
        <ele>275</ele>
        <time>2017-07-10T09:33:17Z</time>
      </trkpt>
      <trkpt lat="45.98603" lon="4.87308">
        <ele>274</ele>
        <time>2017-07-10T09:33:18Z</time>
      </trkpt>
      <trkpt lat="45.98605" lon="4.87319">
        <ele>274</ele>
        <time>2017-07-10T09:33:19Z</time>
      </trkpt>
      <trkpt lat="45.98606" lon="4.87328">
        <ele>274</ele>
        <time>2017-07-10T09:33:20Z</time>
      </trkpt>
      <trkpt lat="45.98607" lon="4.87339">
        <ele>272</ele>
        <time>2017-07-10T09:33:21Z</time>
      </trkpt>
      <trkpt lat="45.98608" lon="4.8735">
        <ele>272</ele>
        <time>2017-07-10T09:33:22Z</time>
      </trkpt>
      <trkpt lat="45.9861" lon="4.8736">
        <ele>272</ele>
        <time>2017-07-10T09:33:23Z</time>
      </trkpt>
      <trkpt lat="45.98612" lon="4.8737">
        <ele>271</ele>
        <time>2017-07-10T09:33:24Z</time>
      </trkpt>
      <trkpt lat="45.98614" lon="4.87381">
        <ele>271</ele>
        <time>2017-07-10T09:33:25Z</time>
      </trkpt>
      <trkpt lat="45.98617" lon="4.87391">
        <ele>271</ele>
        <time>2017-07-10T09:33:26Z</time>
      </trkpt>
      <trkpt lat="45.9862" lon="4.87402">
        <ele>271</ele>
        <time>2017-07-10T09:33:27Z</time>
      </trkpt>
      <trkpt lat="45.98623" lon="4.87413">
        <ele>271</ele>
        <time>2017-07-10T09:33:28Z</time>
      </trkpt>
      <trkpt lat="45.98626" lon="4.87425">
        <ele>269</ele>
        <time>2017-07-10T09:33:29Z</time>
      </trkpt>
      <trkpt lat="45.98627" lon="4.87436">
        <ele>268</ele>
        <time>2017-07-10T09:33:30Z</time>
      </trkpt>
      <trkpt lat="45.98629" lon="4.87446">
        <ele>268</ele>
        <time>2017-07-10T09:33:31Z</time>
      </trkpt>
      <trkpt lat="45.9863" lon="4.87457">
        <ele>268</ele>
        <time>2017-07-10T09:33:32Z</time>
      </trkpt>
      <trkpt lat="45.98632" lon="4.87468">
        <ele>268</ele>
        <time>2017-07-10T09:33:33Z</time>
      </trkpt>
      <trkpt lat="45.98634" lon="4.87479">
        <ele>268</ele>
        <time>2017-07-10T09:33:34Z</time>
      </trkpt>
      <trkpt lat="45.98636" lon="4.8749">
        <ele>267</ele>
        <time>2017-07-10T09:33:35Z</time>
      </trkpt>
      <trkpt lat="45.98638" lon="4.87501">
        <ele>267</ele>
        <time>2017-07-10T09:33:36Z</time>
      </trkpt>
      <trkpt lat="45.98639" lon="4.87511">
        <ele>267</ele>
        <time>2017-07-10T09:33:37Z</time>
      </trkpt>
      <trkpt lat="45.98641" lon="4.87521">
        <ele>267</ele>
        <time>2017-07-10T09:33:38Z</time>
      </trkpt>
      <trkpt lat="45.98643" lon="4.87531">
        <ele>267</ele>
        <time>2017-07-10T09:33:39Z</time>
      </trkpt>
      <trkpt lat="45.98645" lon="4.87541">
        <ele>267</ele>
        <time>2017-07-10T09:33:40Z</time>
      </trkpt>
      <trkpt lat="45.98649" lon="4.87551">
        <ele>267</ele>
        <time>2017-07-10T09:33:41Z</time>
      </trkpt>
      <trkpt lat="45.98654" lon="4.87559">
        <ele>267</ele>
        <time>2017-07-10T09:33:42Z</time>
      </trkpt>
      <trkpt lat="45.98659" lon="4.87565">
        <ele>267</ele>
        <time>2017-07-10T09:33:43Z</time>
      </trkpt>
      <trkpt lat="45.98665" lon="4.87569">
        <ele>267</ele>
        <time>2017-07-10T09:33:44Z</time>
      </trkpt>
      <trkpt lat="45.98672" lon="4.8757">
        <ele>267</ele>
        <time>2017-07-10T09:33:45Z</time>
      </trkpt>
      <trkpt lat="45.98679" lon="4.87571">
        <ele>267</ele>
        <time>2017-07-10T09:33:46Z</time>
      </trkpt>
      <trkpt lat="45.98685" lon="4.8757">
        <ele>267</ele>
        <time>2017-07-10T09:33:47Z</time>
      </trkpt>
      <trkpt lat="45.98691" lon="4.87568">
        <ele>267</ele>
        <time>2017-07-10T09:33:48Z</time>
      </trkpt>
      <trkpt lat="45.98696" lon="4.87567">
        <ele>267</ele>
        <time>2017-07-10T09:33:49Z</time>
      </trkpt>
      <trkpt lat="45.98704" lon="4.87564">
        <ele>267</ele>
        <time>2017-07-10T09:33:51Z</time>
      </trkpt>
      <trkpt lat="45.98709" lon="4.87564">
        <ele>267</ele>
        <time>2017-07-10T09:33:52Z</time>
      </trkpt>
      <trkpt lat="45.98717" lon="4.87562">
        <ele>267</ele>
        <time>2017-07-10T09:33:54Z</time>
      </trkpt>
      <trkpt lat="45.98722" lon="4.87561">
        <ele>267</ele>
        <time>2017-07-10T09:33:55Z</time>
      </trkpt>
      <trkpt lat="45.98729" lon="4.8756">
        <ele>267</ele>
        <time>2017-07-10T09:33:57Z</time>
      </trkpt>
      <trkpt lat="45.98732" lon="4.87561">
        <ele>267</ele>
        <time>2017-07-10T09:33:58Z</time>
      </trkpt>
      <trkpt lat="45.98739" lon="4.87561">
        <ele>267</ele>
        <time>2017-07-10T09:34:00Z</time>
      </trkpt>
      <trkpt lat="45.98743" lon="4.87562">
        <ele>267</ele>
        <time>2017-07-10T09:34:01Z</time>
      </trkpt>
      <trkpt lat="45.98749" lon="4.87567">
        <ele>267</ele>
        <time>2017-07-10T09:34:03Z</time>
      </trkpt>
      <trkpt lat="45.98753" lon="4.8757">
        <ele>268</ele>
        <time>2017-07-10T09:34:04Z</time>
      </trkpt>
      <trkpt lat="45.98757" lon="4.87573">
        <ele>268</ele>
        <time>2017-07-10T09:34:05Z</time>
      </trkpt>
      <trkpt lat="45.98761" lon="4.87577">
        <ele>268</ele>
        <time>2017-07-10T09:34:06Z</time>
      </trkpt>
      <trkpt lat="45.98765" lon="4.87581">
        <ele>269</ele>
        <time>2017-07-10T09:34:07Z</time>
      </trkpt>
      <trkpt lat="45.98768" lon="4.87585">
        <ele>270</ele>
        <time>2017-07-10T09:34:08Z</time>
      </trkpt>
      <trkpt lat="45.98775" lon="4.87593">
        <ele>270</ele>
        <time>2017-07-10T09:34:10Z</time>
      </trkpt>
      <trkpt lat="45.98777" lon="4.87597">
        <ele>270</ele>
        <time>2017-07-10T09:34:11Z</time>
      </trkpt>
      <trkpt lat="45.98783" lon="4.87605">
        <ele>271</ele>
        <time>2017-07-10T09:34:13Z</time>
      </trkpt>
      <trkpt lat="45.98785" lon="4.87609">
        <ele>271</ele>
        <time>2017-07-10T09:34:14Z</time>
      </trkpt>
      <trkpt lat="45.9879" lon="4.8762">
        <ele>271</ele>
        <time>2017-07-10T09:34:16Z</time>
      </trkpt>
      <trkpt lat="45.98793" lon="4.87626">
        <ele>271</ele>
        <time>2017-07-10T09:34:17Z</time>
      </trkpt>
      <trkpt lat="45.98796" lon="4.87637">
        <ele>271</ele>
        <time>2017-07-10T09:34:19Z</time>
      </trkpt>
      <trkpt lat="45.988" lon="4.87643">
        <ele>272</ele>
        <time>2017-07-10T09:34:20Z</time>
      </trkpt>
      <trkpt lat="45.98802" lon="4.87649">
        <ele>272</ele>
        <time>2017-07-10T09:34:21Z</time>
      </trkpt>
      <trkpt lat="45.98804" lon="4.87655">
        <ele>272</ele>
        <time>2017-07-10T09:34:22Z</time>
      </trkpt>
      <trkpt lat="45.98806" lon="4.87662">
        <ele>272</ele>
        <time>2017-07-10T09:34:23Z</time>
      </trkpt>
      <trkpt lat="45.98809" lon="4.87668">
        <ele>273</ele>
        <time>2017-07-10T09:34:24Z</time>
      </trkpt>
      <trkpt lat="45.98811" lon="4.87674">
        <ele>273</ele>
        <time>2017-07-10T09:34:25Z</time>
      </trkpt>
      <trkpt lat="45.98813" lon="4.87681">
        <ele>273</ele>
        <time>2017-07-10T09:34:26Z</time>
      </trkpt>
      <trkpt lat="45.98815" lon="4.87688">
        <ele>273</ele>
        <time>2017-07-10T09:34:27Z</time>
      </trkpt>
      <trkpt lat="45.98817" lon="4.87694">
        <ele>273</ele>
        <time>2017-07-10T09:34:28Z</time>
      </trkpt>
      <trkpt lat="45.98819" lon="4.87701">
        <ele>273</ele>
        <time>2017-07-10T09:34:29Z</time>
      </trkpt>
      <trkpt lat="45.98828" lon="4.8771">
        <ele>273</ele>
        <time>2017-07-10T09:34:30Z</time>
      </trkpt>
      <trkpt lat="45.98831" lon="4.87717">
        <ele>274</ele>
        <time>2017-07-10T09:34:31Z</time>
      </trkpt>
      <trkpt lat="45.98834" lon="4.87723">
        <ele>273</ele>
        <time>2017-07-10T09:34:32Z</time>
      </trkpt>
      <trkpt lat="45.98836" lon="4.8773">
        <ele>273</ele>
        <time>2017-07-10T09:34:33Z</time>
      </trkpt>
      <trkpt lat="45.98838" lon="4.87736">
        <ele>273</ele>
        <time>2017-07-10T09:34:34Z</time>
      </trkpt>
      <trkpt lat="45.9884" lon="4.87743">
        <ele>273</ele>
        <time>2017-07-10T09:34:35Z</time>
      </trkpt>
      <trkpt lat="45.98841" lon="4.8775">
        <ele>273</ele>
        <time>2017-07-10T09:34:36Z</time>
      </trkpt>
      <trkpt lat="45.98843" lon="4.87757">
        <ele>273</ele>
        <time>2017-07-10T09:34:37Z</time>
      </trkpt>
      <trkpt lat="45.98844" lon="4.87764">
        <ele>273</ele>
        <time>2017-07-10T09:34:38Z</time>
      </trkpt>
      <trkpt lat="45.98845" lon="4.87771">
        <ele>273</ele>
        <time>2017-07-10T09:34:39Z</time>
      </trkpt>
      <trkpt lat="45.98847" lon="4.87778">
        <ele>273</ele>
        <time>2017-07-10T09:34:40Z</time>
      </trkpt>
      <trkpt lat="45.98849" lon="4.87789">
        <ele>273</ele>
        <time>2017-07-10T09:34:42Z</time>
      </trkpt>
      <trkpt lat="45.98851" lon="4.87795">
        <ele>273</ele>
        <time>2017-07-10T09:34:43Z</time>
      </trkpt>
      <trkpt lat="45.98854" lon="4.87807">
        <ele>273</ele>
        <time>2017-07-10T09:34:45Z</time>
      </trkpt>
      <trkpt lat="45.98855" lon="4.87812">
        <ele>273</ele>
        <time>2017-07-10T09:34:46Z</time>
      </trkpt>
      <trkpt lat="45.98858" lon="4.87824">
        <ele>273</ele>
        <time>2017-07-10T09:34:48Z</time>
      </trkpt>
      <trkpt lat="45.9886" lon="4.8783">
        <ele>273</ele>
        <time>2017-07-10T09:34:49Z</time>
      </trkpt>
      <trkpt lat="45.98863" lon="4.87836">
        <ele>273</ele>
        <time>2017-07-10T09:34:50Z</time>
      </trkpt>
      <trkpt lat="45.98865" lon="4.87841">
        <ele>273</ele>
        <time>2017-07-10T09:34:51Z</time>
      </trkpt>
      <trkpt lat="45.98868" lon="4.87847">
        <ele>273</ele>
        <time>2017-07-10T09:34:52Z</time>
      </trkpt>
      <trkpt lat="45.98871" lon="4.87852">
        <ele>273</ele>
        <time>2017-07-10T09:34:53Z</time>
      </trkpt>
      <trkpt lat="45.98874" lon="4.87857">
        <ele>273</ele>
        <time>2017-07-10T09:34:54Z</time>
      </trkpt>
      <trkpt lat="45.98878" lon="4.8786">
        <ele>272</ele>
        <time>2017-07-10T09:34:55Z</time>
      </trkpt>
      <trkpt lat="45.98885" lon="4.87868">
        <ele>272</ele>
        <time>2017-07-10T09:34:57Z</time>
      </trkpt>
      <trkpt lat="45.98888" lon="4.87872">
        <ele>272</ele>
        <time>2017-07-10T09:34:58Z</time>
      </trkpt>
      <trkpt lat="45.98891" lon="4.87876">
        <ele>272</ele>
        <time>2017-07-10T09:34:59Z</time>
      </trkpt>
      <trkpt lat="45.98895" lon="4.87881">
        <ele>272</ele>
        <time>2017-07-10T09:35:00Z</time>
      </trkpt>
      <trkpt lat="45.98899" lon="4.87889">
        <ele>272</ele>
        <time>2017-07-10T09:35:01Z</time>
      </trkpt>
      <trkpt lat="45.98901" lon="4.87894">
        <ele>272</ele>
        <time>2017-07-10T09:35:02Z</time>
      </trkpt>
      <trkpt lat="45.98905" lon="4.87899">
        <ele>272</ele>
        <time>2017-07-10T09:35:03Z</time>
      </trkpt>
      <trkpt lat="45.98912" lon="4.87903">
        <ele>272</ele>
        <time>2017-07-10T09:35:04Z</time>
      </trkpt>
      <trkpt lat="45.98919" lon="4.8791">
        <ele>272</ele>
        <time>2017-07-10T09:35:06Z</time>
      </trkpt>
      <trkpt lat="45.98922" lon="4.87913">
        <ele>272</ele>
        <time>2017-07-10T09:35:07Z</time>
      </trkpt>
      <trkpt lat="45.98929" lon="4.87918">
        <ele>272</ele>
        <time>2017-07-10T09:35:09Z</time>
      </trkpt>
      <trkpt lat="45.98932" lon="4.8792">
        <ele>272</ele>
        <time>2017-07-10T09:35:10Z</time>
      </trkpt>
      <trkpt lat="45.98938" lon="4.87925">
        <ele>272</ele>
        <time>2017-07-10T09:35:12Z</time>
      </trkpt>
      <trkpt lat="45.98941" lon="4.87927">
        <ele>273</ele>
        <time>2017-07-10T09:35:13Z</time>
      </trkpt>
      <trkpt lat="45.98948" lon="4.87931">
        <ele>273</ele>
        <time>2017-07-10T09:35:15Z</time>
      </trkpt>
      <trkpt lat="45.9895" lon="4.87933">
        <ele>273</ele>
        <time>2017-07-10T09:35:16Z</time>
      </trkpt>
      <trkpt lat="45.98957" lon="4.87935">
        <ele>273</ele>
        <time>2017-07-10T09:35:18Z</time>
      </trkpt>
      <trkpt lat="45.9896" lon="4.87936">
        <ele>273</ele>
        <time>2017-07-10T09:35:19Z</time>
      </trkpt>
      <trkpt lat="45.98966" lon="4.8794">
        <ele>274</ele>
        <time>2017-07-10T09:35:21Z</time>
      </trkpt>
      <trkpt lat="45.98969" lon="4.87943">
        <ele>274</ele>
        <time>2017-07-10T09:35:22Z</time>
      </trkpt>
      <trkpt lat="45.98977" lon="4.87948">
        <ele>274</ele>
        <time>2017-07-10T09:35:24Z</time>
      </trkpt>
      <trkpt lat="45.98981" lon="4.8795">
        <ele>274</ele>
        <time>2017-07-10T09:35:25Z</time>
      </trkpt>
      <trkpt lat="45.98989" lon="4.87953">
        <ele>274</ele>
        <time>2017-07-10T09:35:27Z</time>
      </trkpt>
      <trkpt lat="45.98993" lon="4.87955">
        <ele>274</ele>
        <time>2017-07-10T09:35:28Z</time>
      </trkpt>
      <trkpt lat="45.99001" lon="4.87959">
        <ele>276</ele>
        <time>2017-07-10T09:35:30Z</time>
      </trkpt>
      <trkpt lat="45.99005" lon="4.87961">
        <ele>276</ele>
        <time>2017-07-10T09:35:31Z</time>
      </trkpt>
      <trkpt lat="45.99012" lon="4.87966">
        <ele>276</ele>
        <time>2017-07-10T09:35:33Z</time>
      </trkpt>
      <trkpt lat="45.99016" lon="4.87968">
        <ele>276</ele>
        <time>2017-07-10T09:35:34Z</time>
      </trkpt>
      <trkpt lat="45.99023" lon="4.87972">
        <ele>276</ele>
        <time>2017-07-10T09:35:36Z</time>
      </trkpt>
      <trkpt lat="45.99026" lon="4.87974">
        <ele>276</ele>
        <time>2017-07-10T09:35:37Z</time>
      </trkpt>
      <trkpt lat="45.99032" lon="4.87978">
        <ele>276</ele>
        <time>2017-07-10T09:35:39Z</time>
      </trkpt>
      <trkpt lat="45.99035" lon="4.87979">
        <ele>276</ele>
        <time>2017-07-10T09:35:40Z</time>
      </trkpt>
      <trkpt lat="45.99041" lon="4.87982">
        <ele>276</ele>
        <time>2017-07-10T09:35:42Z</time>
      </trkpt>
      <trkpt lat="45.99045" lon="4.87985">
        <ele>277</ele>
        <time>2017-07-10T09:35:43Z</time>
      </trkpt>
      <trkpt lat="45.99052" lon="4.87989">
        <ele>277</ele>
        <time>2017-07-10T09:35:45Z</time>
      </trkpt>
      <trkpt lat="45.99056" lon="4.87991">
        <ele>277</ele>
        <time>2017-07-10T09:35:46Z</time>
      </trkpt>
      <trkpt lat="45.99063" lon="4.87995">
        <ele>277</ele>
        <time>2017-07-10T09:35:48Z</time>
      </trkpt>
      <trkpt lat="45.99066" lon="4.87997">
        <ele>277</ele>
        <time>2017-07-10T09:35:49Z</time>
      </trkpt>
      <trkpt lat="45.99072" lon="4.88002">
        <ele>278</ele>
        <time>2017-07-10T09:35:51Z</time>
      </trkpt>
      <trkpt lat="45.99075" lon="4.88004">
        <ele>278</ele>
        <time>2017-07-10T09:35:52Z</time>
      </trkpt>
      <trkpt lat="45.99083" lon="4.88008">
        <ele>278</ele>
        <time>2017-07-10T09:35:54Z</time>
      </trkpt>
      <trkpt lat="45.99086" lon="4.8801">
        <ele>278</ele>
        <time>2017-07-10T09:35:55Z</time>
      </trkpt>
      <trkpt lat="45.99094" lon="4.88014">
        <ele>278</ele>
        <time>2017-07-10T09:35:57Z</time>
      </trkpt>
      <trkpt lat="45.99097" lon="4.88016">
        <ele>278</ele>
        <time>2017-07-10T09:35:58Z</time>
      </trkpt>
      <trkpt lat="45.99103" lon="4.88021">
        <ele>278</ele>
        <time>2017-07-10T09:36:00Z</time>
      </trkpt>
      <trkpt lat="45.99107" lon="4.88023">
        <ele>278</ele>
        <time>2017-07-10T09:36:01Z</time>
      </trkpt>
      <trkpt lat="45.99115" lon="4.88026">
        <ele>278</ele>
        <time>2017-07-10T09:36:03Z</time>
      </trkpt>
      <trkpt lat="45.99119" lon="4.88027">
        <ele>278</ele>
        <time>2017-07-10T09:36:04Z</time>
      </trkpt>
      <trkpt lat="45.99126" lon="4.88032">
        <ele>279</ele>
        <time>2017-07-10T09:36:06Z</time>
      </trkpt>
      <trkpt lat="45.99129" lon="4.88034">
        <ele>279</ele>
        <time>2017-07-10T09:36:07Z</time>
      </trkpt>
      <trkpt lat="45.99136" lon="4.88038">
        <ele>279</ele>
        <time>2017-07-10T09:36:09Z</time>
      </trkpt>
      <trkpt lat="45.9914" lon="4.8804">
        <ele>279</ele>
        <time>2017-07-10T09:36:10Z</time>
      </trkpt>
      <trkpt lat="45.99147" lon="4.88045">
        <ele>279</ele>
        <time>2017-07-10T09:36:12Z</time>
      </trkpt>
      <trkpt lat="45.99151" lon="4.88047">
        <ele>279</ele>
        <time>2017-07-10T09:36:13Z</time>
      </trkpt>
      <trkpt lat="45.99158" lon="4.88053">
        <ele>279</ele>
        <time>2017-07-10T09:36:15Z</time>
      </trkpt>
      <trkpt lat="45.99162" lon="4.88055">
        <ele>279</ele>
        <time>2017-07-10T09:36:16Z</time>
      </trkpt>
      <trkpt lat="45.99168" lon="4.8806">
        <ele>279</ele>
        <time>2017-07-10T09:36:18Z</time>
      </trkpt>
      <trkpt lat="45.99171" lon="4.88063">
        <ele>279</ele>
        <time>2017-07-10T09:36:19Z</time>
      </trkpt>
      <trkpt lat="45.99178" lon="4.88069">
        <ele>279</ele>
        <time>2017-07-10T09:36:21Z</time>
      </trkpt>
      <trkpt lat="45.99182" lon="4.88072">
        <ele>279</ele>
        <time>2017-07-10T09:36:22Z</time>
      </trkpt>
      <trkpt lat="45.99188" lon="4.88078">
        <ele>280</ele>
        <time>2017-07-10T09:36:24Z</time>
      </trkpt>
      <trkpt lat="45.99192" lon="4.88081">
        <ele>280</ele>
        <time>2017-07-10T09:36:25Z</time>
      </trkpt>
      <trkpt lat="45.99198" lon="4.88086">
        <ele>280</ele>
        <time>2017-07-10T09:36:27Z</time>
      </trkpt>
      <trkpt lat="45.99202" lon="4.88089">
        <ele>280</ele>
        <time>2017-07-10T09:36:28Z</time>
      </trkpt>
      <trkpt lat="45.99209" lon="4.88095">
        <ele>280</ele>
        <time>2017-07-10T09:36:30Z</time>
      </trkpt>
      <trkpt lat="45.99212" lon="4.88097">
        <ele>280</ele>
        <time>2017-07-10T09:36:31Z</time>
      </trkpt>
      <trkpt lat="45.99218" lon="4.88103">
        <ele>280</ele>
        <time>2017-07-10T09:36:33Z</time>
      </trkpt>
      <trkpt lat="45.99221" lon="4.88105">
        <ele>280</ele>
        <time>2017-07-10T09:36:34Z</time>
      </trkpt>
      <trkpt lat="45.99228" lon="4.88111">
        <ele>280</ele>
        <time>2017-07-10T09:36:36Z</time>
      </trkpt>
      <trkpt lat="45.99232" lon="4.88114">
        <ele>280</ele>
        <time>2017-07-10T09:36:37Z</time>
      </trkpt>
      <trkpt lat="45.99239" lon="4.8812">
        <ele>280</ele>
        <time>2017-07-10T09:36:39Z</time>
      </trkpt>
      <trkpt lat="45.99242" lon="4.88122">
        <ele>280</ele>
        <time>2017-07-10T09:36:40Z</time>
      </trkpt>
      <trkpt lat="45.99248" lon="4.88128">
        <ele>280</ele>
        <time>2017-07-10T09:36:42Z</time>
      </trkpt>
      <trkpt lat="45.99251" lon="4.8813">
        <ele>283</ele>
        <time>2017-07-10T09:36:43Z</time>
      </trkpt>
      <trkpt lat="45.99258" lon="4.88135">
        <ele>283</ele>
        <time>2017-07-10T09:36:45Z</time>
      </trkpt>
      <trkpt lat="45.99261" lon="4.88138">
        <ele>283</ele>
        <time>2017-07-10T09:36:46Z</time>
      </trkpt>
      <trkpt lat="45.99269" lon="4.88143">
        <ele>283</ele>
        <time>2017-07-10T09:36:48Z</time>
      </trkpt>
      <trkpt lat="45.99272" lon="4.88146">
        <ele>283</ele>
        <time>2017-07-10T09:36:49Z</time>
      </trkpt>
      <trkpt lat="45.99278" lon="4.88152">
        <ele>283</ele>
        <time>2017-07-10T09:36:51Z</time>
      </trkpt>
      <trkpt lat="45.99281" lon="4.88154">
        <ele>284</ele>
        <time>2017-07-10T09:36:52Z</time>
      </trkpt>
      <trkpt lat="45.99288" lon="4.8816">
        <ele>284</ele>
        <time>2017-07-10T09:36:54Z</time>
      </trkpt>
      <trkpt lat="45.99291" lon="4.88163">
        <ele>284</ele>
        <time>2017-07-10T09:36:55Z</time>
      </trkpt>
      <trkpt lat="45.99298" lon="4.88169">
        <ele>284</ele>
        <time>2017-07-10T09:36:57Z</time>
      </trkpt>
      <trkpt lat="45.993" lon="4.88172">
        <ele>285</ele>
        <time>2017-07-10T09:36:58Z</time>
      </trkpt>
      <trkpt lat="45.99307" lon="4.88178">
        <ele>285</ele>
        <time>2017-07-10T09:37:00Z</time>
      </trkpt>
      <trkpt lat="45.99311" lon="4.8818">
        <ele>285</ele>
        <time>2017-07-10T09:37:01Z</time>
      </trkpt>
      <trkpt lat="45.99319" lon="4.88186">
        <ele>285</ele>
        <time>2017-07-10T09:37:03Z</time>
      </trkpt>
      <trkpt lat="45.99322" lon="4.88189">
        <ele>285</ele>
        <time>2017-07-10T09:37:04Z</time>
      </trkpt>
      <trkpt lat="45.99328" lon="4.88195">
        <ele>285</ele>
        <time>2017-07-10T09:37:06Z</time>
      </trkpt>
      <trkpt lat="45.99331" lon="4.88198">
        <ele>285</ele>
        <time>2017-07-10T09:37:07Z</time>
      </trkpt>
      <trkpt lat="45.99337" lon="4.88203">
        <ele>288</ele>
        <time>2017-07-10T09:37:09Z</time>
      </trkpt>
      <trkpt lat="45.99341" lon="4.88205">
        <ele>288</ele>
        <time>2017-07-10T09:37:10Z</time>
      </trkpt>
      <trkpt lat="45.99347" lon="4.88211">
        <ele>287</ele>
        <time>2017-07-10T09:37:12Z</time>
      </trkpt>
      <trkpt lat="45.9935" lon="4.88214">
        <ele>287</ele>
        <time>2017-07-10T09:37:13Z</time>
      </trkpt>
      <trkpt lat="45.99357" lon="4.88219">
        <ele>287</ele>
        <time>2017-07-10T09:37:15Z</time>
      </trkpt>
      <trkpt lat="45.9936" lon="4.88223">
        <ele>287</ele>
        <time>2017-07-10T09:37:16Z</time>
      </trkpt>
      <trkpt lat="45.99365" lon="4.88228">
        <ele>287</ele>
        <time>2017-07-10T09:37:18Z</time>
      </trkpt>
      <trkpt lat="45.99368" lon="4.88231">
        <ele>287</ele>
        <time>2017-07-10T09:37:19Z</time>
      </trkpt>
      <trkpt lat="45.99374" lon="4.88238">
        <ele>287</ele>
        <time>2017-07-10T09:37:21Z</time>
      </trkpt>
      <trkpt lat="45.99377" lon="4.88242">
        <ele>287</ele>
        <time>2017-07-10T09:37:22Z</time>
      </trkpt>
      <trkpt lat="45.99382" lon="4.88251">
        <ele>285</ele>
        <time>2017-07-10T09:37:24Z</time>
      </trkpt>
      <trkpt lat="45.99384" lon="4.88255">
        <ele>285</ele>
        <time>2017-07-10T09:37:25Z</time>
      </trkpt>
      <trkpt lat="45.99388" lon="4.88262">
        <ele>285</ele>
        <time>2017-07-10T09:37:27Z</time>
      </trkpt>
      <trkpt lat="45.9939" lon="4.88267">
        <ele>285</ele>
        <time>2017-07-10T09:37:28Z</time>
      </trkpt>
      <trkpt lat="45.99393" lon="4.88278">
        <ele>284</ele>
        <time>2017-07-10T09:37:30Z</time>
      </trkpt>
      <trkpt lat="45.99395" lon="4.88284">
        <ele>284</ele>
        <time>2017-07-10T09:37:31Z</time>
      </trkpt>
      <trkpt lat="45.99399" lon="4.88294">
        <ele>284</ele>
        <time>2017-07-10T09:37:33Z</time>
      </trkpt>
      <trkpt lat="45.99401" lon="4.88299">
        <ele>284</ele>
        <time>2017-07-10T09:37:34Z</time>
      </trkpt>
      <trkpt lat="45.99404" lon="4.88309">
        <ele>283</ele>
        <time>2017-07-10T09:37:36Z</time>
      </trkpt>
      <trkpt lat="45.99406" lon="4.88314">
        <ele>283</ele>
        <time>2017-07-10T09:37:37Z</time>
      </trkpt>
      <trkpt lat="45.9941" lon="4.88324">
        <ele>283</ele>
        <time>2017-07-10T09:37:39Z</time>
      </trkpt>
      <trkpt lat="45.99412" lon="4.8833">
        <ele>282</ele>
        <time>2017-07-10T09:37:40Z</time>
      </trkpt>
      <trkpt lat="45.99415" lon="4.8834">
        <ele>282</ele>
        <time>2017-07-10T09:37:42Z</time>
      </trkpt>
      <trkpt lat="45.99417" lon="4.88344">
        <ele>282</ele>
        <time>2017-07-10T09:37:43Z</time>
      </trkpt>
      <trkpt lat="45.99421" lon="4.88353">
        <ele>283</ele>
        <time>2017-07-10T09:37:45Z</time>
      </trkpt>
      <trkpt lat="45.99422" lon="4.88358">
        <ele>283</ele>
        <time>2017-07-10T09:37:46Z</time>
      </trkpt>
      <trkpt lat="45.99426" lon="4.88368">
        <ele>283</ele>
        <time>2017-07-10T09:37:48Z</time>
      </trkpt>
      <trkpt lat="45.99428" lon="4.88374">
        <ele>283</ele>
        <time>2017-07-10T09:37:49Z</time>
      </trkpt>
      <trkpt lat="45.99432" lon="4.88384">
        <ele>283</ele>
        <time>2017-07-10T09:37:51Z</time>
      </trkpt>
      <trkpt lat="45.99434" lon="4.88389">
        <ele>283</ele>
        <time>2017-07-10T09:37:52Z</time>
      </trkpt>
      <trkpt lat="45.9944" lon="4.88398">
        <ele>283</ele>
        <time>2017-07-10T09:37:54Z</time>
      </trkpt>
      <trkpt lat="45.99444" lon="4.88403">
        <ele>283</ele>
        <time>2017-07-10T09:37:55Z</time>
      </trkpt>
      <trkpt lat="45.99447" lon="4.88407">
        <ele>283</ele>
        <time>2017-07-10T09:37:56Z</time>
      </trkpt>
      <trkpt lat="45.99451" lon="4.88411">
        <ele>283</ele>
        <time>2017-07-10T09:37:57Z</time>
      </trkpt>
      <trkpt lat="45.99456" lon="4.88415">
        <ele>283</ele>
        <time>2017-07-10T09:37:58Z</time>
      </trkpt>
      <trkpt lat="45.99459" lon="4.88418">
        <ele>284</ele>
        <time>2017-07-10T09:37:59Z</time>
      </trkpt>
      <trkpt lat="45.99467" lon="4.88424">
        <ele>284</ele>
        <time>2017-07-10T09:38:01Z</time>
      </trkpt>
      <trkpt lat="45.9947" lon="4.88428">
        <ele>284</ele>
        <time>2017-07-10T09:38:02Z</time>
      </trkpt>
      <trkpt lat="45.99477" lon="4.88435">
        <ele>284</ele>
        <time>2017-07-10T09:38:04Z</time>
      </trkpt>
      <trkpt lat="45.99481" lon="4.88439">
        <ele>284</ele>
        <time>2017-07-10T09:38:05Z</time>
      </trkpt>
      <trkpt lat="45.99484" lon="4.88444">
        <ele>284</ele>
        <time>2017-07-10T09:38:06Z</time>
      </trkpt>
      <trkpt lat="45.99488" lon="4.8845">
        <ele>284</ele>
        <time>2017-07-10T09:38:07Z</time>
      </trkpt>
      <trkpt lat="45.99491" lon="4.88455">
        <ele>284</ele>
        <time>2017-07-10T09:38:08Z</time>
      </trkpt>
      <trkpt lat="45.99494" lon="4.88461">
        <ele>284</ele>
        <time>2017-07-10T09:38:09Z</time>
      </trkpt>
      <trkpt lat="45.99497" lon="4.88466">
        <ele>284</ele>
        <time>2017-07-10T09:38:10Z</time>
      </trkpt>
      <trkpt lat="45.995" lon="4.88471">
        <ele>284</ele>
        <time>2017-07-10T09:38:11Z</time>
      </trkpt>
      <trkpt lat="45.99505" lon="4.88481">
        <ele>284</ele>
        <time>2017-07-10T09:38:13Z</time>
      </trkpt>
      <trkpt lat="45.99507" lon="4.88486">
        <ele>284</ele>
        <time>2017-07-10T09:38:14Z</time>
      </trkpt>
      <trkpt lat="45.99512" lon="4.88497">
        <ele>284</ele>
        <time>2017-07-10T09:38:16Z</time>
      </trkpt>
      <trkpt lat="45.99514" lon="4.88502">
        <ele>285</ele>
        <time>2017-07-10T09:38:17Z</time>
      </trkpt>
      <trkpt lat="45.99517" lon="4.88507">
        <ele>285</ele>
        <time>2017-07-10T09:38:18Z</time>
      </trkpt>
      <trkpt lat="45.9952" lon="4.88513">
        <ele>285</ele>
        <time>2017-07-10T09:38:19Z</time>
      </trkpt>
      <trkpt lat="45.99524" lon="4.88523">
        <ele>285</ele>
        <time>2017-07-10T09:38:21Z</time>
      </trkpt>
      <trkpt lat="45.99527" lon="4.88528">
        <ele>285</ele>
        <time>2017-07-10T09:38:22Z</time>
      </trkpt>
      <trkpt lat="45.99532" lon="4.88537">
        <ele>285</ele>
        <time>2017-07-10T09:38:24Z</time>
      </trkpt>
      <trkpt lat="45.99534" lon="4.88541">
        <ele>285</ele>
        <time>2017-07-10T09:38:25Z</time>
      </trkpt>
      <trkpt lat="45.99537" lon="4.8855">
        <ele>285</ele>
        <time>2017-07-10T09:38:27Z</time>
      </trkpt>
      <trkpt lat="45.99539" lon="4.88554">
        <ele>285</ele>
        <time>2017-07-10T09:38:28Z</time>
      </trkpt>
      <trkpt lat="45.9954" lon="4.88562">
        <ele>285</ele>
        <time>2017-07-10T09:38:30Z</time>
      </trkpt>
      <trkpt lat="45.99542" lon="4.88566">
        <ele>285</ele>
        <time>2017-07-10T09:38:31Z</time>
      </trkpt>
      <trkpt lat="45.99545" lon="4.88576">
        <ele>286</ele>
        <time>2017-07-10T09:38:33Z</time>
      </trkpt>
      <trkpt lat="45.99546" lon="4.88582">
        <ele>286</ele>
        <time>2017-07-10T09:38:34Z</time>
      </trkpt>
      <trkpt lat="45.99547" lon="4.88594">
        <ele>286</ele>
        <time>2017-07-10T09:38:36Z</time>
      </trkpt>
      <trkpt lat="45.99548" lon="4.886">
        <ele>286</ele>
        <time>2017-07-10T09:38:37Z</time>
      </trkpt>
      <trkpt lat="45.99548" lon="4.88607">
        <ele>286</ele>
        <time>2017-07-10T09:38:38Z</time>
      </trkpt>
      <trkpt lat="45.99549" lon="4.88614">
        <ele>286</ele>
        <time>2017-07-10T09:38:39Z</time>
      </trkpt>
      <trkpt lat="45.99549" lon="4.8862">
        <ele>286</ele>
        <time>2017-07-10T09:38:40Z</time>
      </trkpt>
      <trkpt lat="45.9955" lon="4.88627">
        <ele>286</ele>
        <time>2017-07-10T09:38:41Z</time>
      </trkpt>
      <trkpt lat="45.9955" lon="4.88634">
        <ele>286</ele>
        <time>2017-07-10T09:38:42Z</time>
      </trkpt>
      <trkpt lat="45.99551" lon="4.8864">
        <ele>286</ele>
        <time>2017-07-10T09:38:43Z</time>
      </trkpt>
      <trkpt lat="45.99551" lon="4.88647">
        <ele>286</ele>
        <time>2017-07-10T09:38:44Z</time>
      </trkpt>
      <trkpt lat="45.99552" lon="4.88654">
        <ele>286</ele>
        <time>2017-07-10T09:38:45Z</time>
      </trkpt>
      <trkpt lat="45.99552" lon="4.88661">
        <ele>286</ele>
        <time>2017-07-10T09:38:46Z</time>
      </trkpt>
      <trkpt lat="45.99553" lon="4.88668">
        <ele>286</ele>
        <time>2017-07-10T09:38:47Z</time>
      </trkpt>
      <trkpt lat="45.99554" lon="4.88674">
        <ele>286</ele>
        <time>2017-07-10T09:38:48Z</time>
      </trkpt>
      <trkpt lat="45.99555" lon="4.8868">
        <ele>286</ele>
        <time>2017-07-10T09:38:49Z</time>
      </trkpt>
      <trkpt lat="45.99556" lon="4.88687">
        <ele>286</ele>
        <time>2017-07-10T09:38:50Z</time>
      </trkpt>
      <trkpt lat="45.99557" lon="4.88695">
        <ele>286</ele>
        <time>2017-07-10T09:38:51Z</time>
      </trkpt>
      <trkpt lat="45.99558" lon="4.88702">
        <ele>286</ele>
        <time>2017-07-10T09:38:52Z</time>
      </trkpt>
      <trkpt lat="45.99559" lon="4.88709">
        <ele>286</ele>
        <time>2017-07-10T09:38:53Z</time>
      </trkpt>
      <trkpt lat="45.9956" lon="4.88715">
        <ele>286</ele>
        <time>2017-07-10T09:38:54Z</time>
      </trkpt>
      <trkpt lat="45.99561" lon="4.88722">
        <ele>286</ele>
        <time>2017-07-10T09:38:55Z</time>
      </trkpt>
      <trkpt lat="45.99561" lon="4.88728">
        <ele>286</ele>
        <time>2017-07-10T09:38:56Z</time>
      </trkpt>
      <trkpt lat="45.99562" lon="4.88735">
        <ele>287</ele>
        <time>2017-07-10T09:38:57Z</time>
      </trkpt>
      <trkpt lat="45.99563" lon="4.88742">
        <ele>287</ele>
        <time>2017-07-10T09:38:58Z</time>
      </trkpt>
      <trkpt lat="45.99564" lon="4.8875">
        <ele>287</ele>
        <time>2017-07-10T09:38:59Z</time>
      </trkpt>
      <trkpt lat="45.99565" lon="4.88758">
        <ele>287</ele>
        <time>2017-07-10T09:39:00Z</time>
      </trkpt>
      <trkpt lat="45.99566" lon="4.88765">
        <ele>287</ele>
        <time>2017-07-10T09:39:01Z</time>
      </trkpt>
      <trkpt lat="45.99567" lon="4.88772">
        <ele>287</ele>
        <time>2017-07-10T09:39:02Z</time>
      </trkpt>
      <trkpt lat="45.99567" lon="4.88779">
        <ele>287</ele>
        <time>2017-07-10T09:39:03Z</time>
      </trkpt>
      <trkpt lat="45.99568" lon="4.88786">
        <ele>287</ele>
        <time>2017-07-10T09:39:04Z</time>
      </trkpt>
      <trkpt lat="45.99568" lon="4.88792">
        <ele>287</ele>
        <time>2017-07-10T09:39:05Z</time>
      </trkpt>
      <trkpt lat="45.99569" lon="4.88804">
        <ele>287</ele>
        <time>2017-07-10T09:39:07Z</time>
      </trkpt>
      <trkpt lat="45.9957" lon="4.8881">
        <ele>287</ele>
        <time>2017-07-10T09:39:08Z</time>
      </trkpt>
      <trkpt lat="45.99571" lon="4.88816">
        <ele>287</ele>
        <time>2017-07-10T09:39:09Z</time>
      </trkpt>
      <trkpt lat="45.99572" lon="4.88823">
        <ele>287</ele>
        <time>2017-07-10T09:39:10Z</time>
      </trkpt>
      <trkpt lat="45.99572" lon="4.8883">
        <ele>287</ele>
        <time>2017-07-10T09:39:11Z</time>
      </trkpt>
      <trkpt lat="45.99572" lon="4.88837">
        <ele>287</ele>
        <time>2017-07-10T09:39:12Z</time>
      </trkpt>
      <trkpt lat="45.99573" lon="4.88844">
        <ele>287</ele>
        <time>2017-07-10T09:39:13Z</time>
      </trkpt>
      <trkpt lat="45.99574" lon="4.88851">
        <ele>287</ele>
        <time>2017-07-10T09:39:14Z</time>
      </trkpt>
      <trkpt lat="45.99575" lon="4.88858">
        <ele>287</ele>
        <time>2017-07-10T09:39:15Z</time>
      </trkpt>
      <trkpt lat="45.99576" lon="4.88865">
        <ele>287</ele>
        <time>2017-07-10T09:39:16Z</time>
      </trkpt>
      <trkpt lat="45.99576" lon="4.88871">
        <ele>287</ele>
        <time>2017-07-10T09:39:17Z</time>
      </trkpt>
      <trkpt lat="45.99577" lon="4.88877">
        <ele>287</ele>
        <time>2017-07-10T09:39:18Z</time>
      </trkpt>
      <trkpt lat="45.99577" lon="4.88884">
        <ele>287</ele>
        <time>2017-07-10T09:39:19Z</time>
      </trkpt>
      <trkpt lat="45.99578" lon="4.88891">
        <ele>287</ele>
        <time>2017-07-10T09:39:20Z</time>
      </trkpt>
      <trkpt lat="45.99579" lon="4.88897">
        <ele>287</ele>
        <time>2017-07-10T09:39:21Z</time>
      </trkpt>
      <trkpt lat="45.9958" lon="4.88904">
        <ele>287</ele>
        <time>2017-07-10T09:39:22Z</time>
      </trkpt>
      <trkpt lat="45.9958" lon="4.88917">
        <ele>287</ele>
        <time>2017-07-10T09:39:24Z</time>
      </trkpt>
      <trkpt lat="45.99581" lon="4.88922">
        <ele>287</ele>
        <time>2017-07-10T09:39:25Z</time>
      </trkpt>
      <trkpt lat="45.99582" lon="4.88935">
        <ele>287</ele>
        <time>2017-07-10T09:39:27Z</time>
      </trkpt>
      <trkpt lat="45.99582" lon="4.88941">
        <ele>287</ele>
        <time>2017-07-10T09:39:28Z</time>
      </trkpt>
      <trkpt lat="45.99583" lon="4.88947">
        <ele>287</ele>
        <time>2017-07-10T09:39:29Z</time>
      </trkpt>
      <trkpt lat="45.99584" lon="4.88954">
        <ele>287</ele>
        <time>2017-07-10T09:39:30Z</time>
      </trkpt>
      <trkpt lat="45.99585" lon="4.88966">
        <ele>288</ele>
        <time>2017-07-10T09:39:32Z</time>
      </trkpt>
      <trkpt lat="45.99585" lon="4.88972">
        <ele>288</ele>
        <time>2017-07-10T09:39:33Z</time>
      </trkpt>
      <trkpt lat="45.99585" lon="4.88983">
        <ele>288</ele>
        <time>2017-07-10T09:39:35Z</time>
      </trkpt>
      <trkpt lat="45.99585" lon="4.88989">
        <ele>288</ele>
        <time>2017-07-10T09:39:36Z</time>
      </trkpt>
      <trkpt lat="45.99586" lon="4.89002">
        <ele>288</ele>
        <time>2017-07-10T09:39:38Z</time>
      </trkpt>
      <trkpt lat="45.99586" lon="4.89008">
        <ele>288</ele>
        <time>2017-07-10T09:39:39Z</time>
      </trkpt>
      <trkpt lat="45.99585" lon="4.89021">
        <ele>288</ele>
        <time>2017-07-10T09:39:41Z</time>
      </trkpt>
      <trkpt lat="45.99585" lon="4.89027">
        <ele>288</ele>
        <time>2017-07-10T09:39:42Z</time>
      </trkpt>
      <trkpt lat="45.99585" lon="4.89033">
        <ele>289</ele>
        <time>2017-07-10T09:39:43Z</time>
      </trkpt>
      <trkpt lat="45.99585" lon="4.8904">
        <ele>289</ele>
        <time>2017-07-10T09:39:44Z</time>
      </trkpt>
      <trkpt lat="45.99584" lon="4.89047">
        <ele>289</ele>
        <time>2017-07-10T09:39:45Z</time>
      </trkpt>
      <trkpt lat="45.99584" lon="4.89054">
        <ele>289</ele>
        <time>2017-07-10T09:39:46Z</time>
      </trkpt>
      <trkpt lat="45.99583" lon="4.89061">
        <ele>289</ele>
        <time>2017-07-10T09:39:47Z</time>
      </trkpt>
      <trkpt lat="45.99582" lon="4.89068">
        <ele>289</ele>
        <time>2017-07-10T09:39:48Z</time>
      </trkpt>
      <trkpt lat="45.99581" lon="4.89075">
        <ele>289</ele>
        <time>2017-07-10T09:39:49Z</time>
      </trkpt>
      <trkpt lat="45.9958" lon="4.89081">
        <ele>289</ele>
        <time>2017-07-10T09:39:50Z</time>
      </trkpt>
      <trkpt lat="45.99578" lon="4.89093">
        <ele>289</ele>
        <time>2017-07-10T09:39:52Z</time>
      </trkpt>
      <trkpt lat="45.99577" lon="4.89099">
        <ele>289</ele>
        <time>2017-07-10T09:39:53Z</time>
      </trkpt>
      <trkpt lat="45.99576" lon="4.89111">
        <ele>289</ele>
        <time>2017-07-10T09:39:55Z</time>
      </trkpt>
      <trkpt lat="45.99576" lon="4.89118">
        <ele>289</ele>
        <time>2017-07-10T09:39:56Z</time>
      </trkpt>
      <trkpt lat="45.99576" lon="4.89125">
        <ele>289</ele>
        <time>2017-07-10T09:39:57Z</time>
      </trkpt>
      <trkpt lat="45.99577" lon="4.89131">
        <ele>289</ele>
        <time>2017-07-10T09:39:58Z</time>
      </trkpt>
      <trkpt lat="45.99577" lon="4.89144">
        <ele>289</ele>
        <time>2017-07-10T09:40:00Z</time>
      </trkpt>
      <trkpt lat="45.99576" lon="4.8915">
        <ele>289</ele>
        <time>2017-07-10T09:40:01Z</time>
      </trkpt>
      <trkpt lat="45.99576" lon="4.89162">
        <ele>288</ele>
        <time>2017-07-10T09:40:03Z</time>
      </trkpt>
      <trkpt lat="45.99576" lon="4.89168">
        <ele>288</ele>
        <time>2017-07-10T09:40:04Z</time>
      </trkpt>
      <trkpt lat="45.99576" lon="4.89175">
        <ele>288</ele>
        <time>2017-07-10T09:40:05Z</time>
      </trkpt>
      <trkpt lat="45.99576" lon="4.89182">
        <ele>288</ele>
        <time>2017-07-10T09:40:06Z</time>
      </trkpt>
      <trkpt lat="45.99576" lon="4.89189">
        <ele>288</ele>
        <time>2017-07-10T09:40:07Z</time>
      </trkpt>
      <trkpt lat="45.99576" lon="4.89196">
        <ele>288</ele>
        <time>2017-07-10T09:40:08Z</time>
      </trkpt>
      <trkpt lat="45.99577" lon="4.89202">
        <ele>288</ele>
        <time>2017-07-10T09:40:09Z</time>
      </trkpt>
      <trkpt lat="45.99577" lon="4.89209">
        <ele>288</ele>
        <time>2017-07-10T09:40:10Z</time>
      </trkpt>
      <trkpt lat="45.99578" lon="4.89215">
        <ele>288</ele>
        <time>2017-07-10T09:40:11Z</time>
      </trkpt>
      <trkpt lat="45.99579" lon="4.89222">
        <ele>288</ele>
        <time>2017-07-10T09:40:12Z</time>
      </trkpt>
      <trkpt lat="45.99579" lon="4.89233">
        <ele>288</ele>
        <time>2017-07-10T09:40:14Z</time>
      </trkpt>
      <trkpt lat="45.99579" lon="4.89239">
        <ele>288</ele>
        <time>2017-07-10T09:40:15Z</time>
      </trkpt>
      <trkpt lat="45.9958" lon="4.89246">
        <ele>288</ele>
        <time>2017-07-10T09:40:16Z</time>
      </trkpt>
      <trkpt lat="45.99581" lon="4.89252">
        <ele>288</ele>
        <time>2017-07-10T09:40:17Z</time>
      </trkpt>
      <trkpt lat="45.99582" lon="4.89264">
        <ele>288</ele>
        <time>2017-07-10T09:40:19Z</time>
      </trkpt>
      <trkpt lat="45.99583" lon="4.89271">
        <ele>288</ele>
        <time>2017-07-10T09:40:20Z</time>
      </trkpt>
      <trkpt lat="45.99585" lon="4.89283">
        <ele>289</ele>
        <time>2017-07-10T09:40:22Z</time>
      </trkpt>
      <trkpt lat="45.99585" lon="4.89291">
        <ele>289</ele>
        <time>2017-07-10T09:40:23Z</time>
      </trkpt>
      <trkpt lat="45.99586" lon="4.89298">
        <ele>289</ele>
        <time>2017-07-10T09:40:24Z</time>
      </trkpt>
      <trkpt lat="45.99587" lon="4.89306">
        <ele>289</ele>
        <time>2017-07-10T09:40:25Z</time>
      </trkpt>
      <trkpt lat="45.99588" lon="4.89313">
        <ele>289</ele>
        <time>2017-07-10T09:40:26Z</time>
      </trkpt>
      <trkpt lat="45.99589" lon="4.8932">
        <ele>289</ele>
        <time>2017-07-10T09:40:27Z</time>
      </trkpt>
      <trkpt lat="45.99589" lon="4.89327">
        <ele>289</ele>
        <time>2017-07-10T09:40:28Z</time>
      </trkpt>
      <trkpt lat="45.9959" lon="4.89333">
        <ele>289</ele>
        <time>2017-07-10T09:40:29Z</time>
      </trkpt>
      <trkpt lat="45.9959" lon="4.89346">
        <ele>289</ele>
        <time>2017-07-10T09:40:31Z</time>
      </trkpt>
      <trkpt lat="45.9959" lon="4.89352">
        <ele>289</ele>
        <time>2017-07-10T09:40:32Z</time>
      </trkpt>
      <trkpt lat="45.9959" lon="4.89358">
        <ele>289</ele>
        <time>2017-07-10T09:40:33Z</time>
      </trkpt>
      <trkpt lat="45.99591" lon="4.89365">
        <ele>289</ele>
        <time>2017-07-10T09:40:34Z</time>
      </trkpt>
      <trkpt lat="45.99591" lon="4.89372">
        <ele>289</ele>
        <time>2017-07-10T09:40:35Z</time>
      </trkpt>
      <trkpt lat="45.99592" lon="4.89379">
        <ele>290</ele>
        <time>2017-07-10T09:40:36Z</time>
      </trkpt>
      <trkpt lat="45.99592" lon="4.89387">
        <ele>290</ele>
        <time>2017-07-10T09:40:37Z</time>
      </trkpt>
      <trkpt lat="45.99592" lon="4.89394">
        <ele>290</ele>
        <time>2017-07-10T09:40:38Z</time>
      </trkpt>
      <trkpt lat="45.99593" lon="4.89401">
        <ele>290</ele>
        <time>2017-07-10T09:40:39Z</time>
      </trkpt>
      <trkpt lat="45.99593" lon="4.89407">
        <ele>290</ele>
        <time>2017-07-10T09:40:40Z</time>
      </trkpt>
      <trkpt lat="45.99593" lon="4.8942">
        <ele>290</ele>
        <time>2017-07-10T09:40:42Z</time>
      </trkpt>
      <trkpt lat="45.99593" lon="4.89427">
        <ele>290</ele>
        <time>2017-07-10T09:40:43Z</time>
      </trkpt>
      <trkpt lat="45.99593" lon="4.89434">
        <ele>290</ele>
        <time>2017-07-10T09:40:44Z</time>
      </trkpt>
      <trkpt lat="45.99593" lon="4.8944">
        <ele>290</ele>
        <time>2017-07-10T09:40:45Z</time>
      </trkpt>
      <trkpt lat="45.99594" lon="4.89447">
        <ele>290</ele>
        <time>2017-07-10T09:40:46Z</time>
      </trkpt>
      <trkpt lat="45.99594" lon="4.89455">
        <ele>290</ele>
        <time>2017-07-10T09:40:47Z</time>
      </trkpt>
      <trkpt lat="45.99594" lon="4.89462">
        <ele>290</ele>
        <time>2017-07-10T09:40:48Z</time>
      </trkpt>
      <trkpt lat="45.99594" lon="4.8947">
        <ele>290</ele>
        <time>2017-07-10T09:40:49Z</time>
      </trkpt>
      <trkpt lat="45.99595" lon="4.89478">
        <ele>290</ele>
        <time>2017-07-10T09:40:50Z</time>
      </trkpt>
      <trkpt lat="45.99595" lon="4.89485">
        <ele>290</ele>
        <time>2017-07-10T09:40:51Z</time>
      </trkpt>
      <trkpt lat="45.99596" lon="4.89492">
        <ele>290</ele>
        <time>2017-07-10T09:40:52Z</time>
      </trkpt>
      <trkpt lat="45.99596" lon="4.895">
        <ele>290</ele>
        <time>2017-07-10T09:40:53Z</time>
      </trkpt>
      <trkpt lat="45.99596" lon="4.89507">
        <ele>290</ele>
        <time>2017-07-10T09:40:54Z</time>
      </trkpt>
      <trkpt lat="45.99597" lon="4.89514">
        <ele>290</ele>
        <time>2017-07-10T09:40:55Z</time>
      </trkpt>
      <trkpt lat="45.99597" lon="4.89522">
        <ele>291</ele>
        <time>2017-07-10T09:40:56Z</time>
      </trkpt>
      <trkpt lat="45.99597" lon="4.89529">
        <ele>291</ele>
        <time>2017-07-10T09:40:57Z</time>
      </trkpt>
      <trkpt lat="45.99598" lon="4.89536">
        <ele>291</ele>
        <time>2017-07-10T09:40:58Z</time>
      </trkpt>
      <trkpt lat="45.99598" lon="4.89543">
        <ele>291</ele>
        <time>2017-07-10T09:40:59Z</time>
      </trkpt>
      <trkpt lat="45.99599" lon="4.8955">
        <ele>291</ele>
        <time>2017-07-10T09:41:00Z</time>
      </trkpt>
      <trkpt lat="45.996" lon="4.89558">
        <ele>291</ele>
        <time>2017-07-10T09:41:01Z</time>
      </trkpt>
      <trkpt lat="45.996" lon="4.89566">
        <ele>291</ele>
        <time>2017-07-10T09:41:02Z</time>
      </trkpt>
      <trkpt lat="45.99601" lon="4.89574">
        <ele>291</ele>
        <time>2017-07-10T09:41:03Z</time>
      </trkpt>
      <trkpt lat="45.99601" lon="4.89582">
        <ele>291</ele>
        <time>2017-07-10T09:41:04Z</time>
      </trkpt>
      <trkpt lat="45.99602" lon="4.8959">
        <ele>292</ele>
        <time>2017-07-10T09:41:05Z</time>
      </trkpt>
      <trkpt lat="45.99602" lon="4.89597">
        <ele>292</ele>
        <time>2017-07-10T09:41:06Z</time>
      </trkpt>
      <trkpt lat="45.99602" lon="4.89603">
        <ele>292</ele>
        <time>2017-07-10T09:41:07Z</time>
      </trkpt>
      <trkpt lat="45.99603" lon="4.8961">
        <ele>291</ele>
        <time>2017-07-10T09:41:08Z</time>
      </trkpt>
      <trkpt lat="45.99603" lon="4.89616">
        <ele>291</ele>
        <time>2017-07-10T09:41:09Z</time>
      </trkpt>
      <trkpt lat="45.99603" lon="4.89628">
        <ele>291</ele>
        <time>2017-07-10T09:41:11Z</time>
      </trkpt>
      <trkpt lat="45.99603" lon="4.89634">
        <ele>291</ele>
        <time>2017-07-10T09:41:12Z</time>
      </trkpt>
      <trkpt lat="45.99603" lon="4.89646">
        <ele>291</ele>
        <time>2017-07-10T09:41:14Z</time>
      </trkpt>
      <trkpt lat="45.99603" lon="4.89652">
        <ele>291</ele>
        <time>2017-07-10T09:41:15Z</time>
      </trkpt>
      <trkpt lat="45.99603" lon="4.89659">
        <ele>292</ele>
        <time>2017-07-10T09:41:16Z</time>
      </trkpt>
      <trkpt lat="45.99603" lon="4.89666">
        <ele>292</ele>
        <time>2017-07-10T09:41:17Z</time>
      </trkpt>
      <trkpt lat="45.99602" lon="4.89673">
        <ele>292</ele>
        <time>2017-07-10T09:41:18Z</time>
      </trkpt>
      <trkpt lat="45.99602" lon="4.8968">
        <ele>292</ele>
        <time>2017-07-10T09:41:19Z</time>
      </trkpt>
      <trkpt lat="45.99601" lon="4.89687">
        <ele>292</ele>
        <time>2017-07-10T09:41:20Z</time>
      </trkpt>
      <trkpt lat="45.99601" lon="4.89693">
        <ele>292</ele>
        <time>2017-07-10T09:41:21Z</time>
      </trkpt>
      <trkpt lat="45.996" lon="4.897">
        <ele>292</ele>
        <time>2017-07-10T09:41:22Z</time>
      </trkpt>
      <trkpt lat="45.996" lon="4.89706">
        <ele>292</ele>
        <time>2017-07-10T09:41:23Z</time>
      </trkpt>
      <trkpt lat="45.99599" lon="4.89713">
        <ele>292</ele>
        <time>2017-07-10T09:41:24Z</time>
      </trkpt>
      <trkpt lat="45.99599" lon="4.89721">
        <ele>292</ele>
        <time>2017-07-10T09:41:25Z</time>
      </trkpt>
      <trkpt lat="45.99599" lon="4.89728">
        <ele>292</ele>
        <time>2017-07-10T09:41:26Z</time>
      </trkpt>
      <trkpt lat="45.99597" lon="4.89734">
        <ele>292</ele>
        <time>2017-07-10T09:41:27Z</time>
      </trkpt>
      <trkpt lat="45.99597" lon="4.89747">
        <ele>292</ele>
        <time>2017-07-10T09:41:29Z</time>
      </trkpt>
      <trkpt lat="45.99597" lon="4.89753">
        <ele>293</ele>
        <time>2017-07-10T09:41:30Z</time>
      </trkpt>
      <trkpt lat="45.99597" lon="4.89764">
        <ele>292</ele>
        <time>2017-07-10T09:41:32Z</time>
      </trkpt>
      <trkpt lat="45.99597" lon="4.89769">
        <ele>292</ele>
        <time>2017-07-10T09:41:33Z</time>
      </trkpt>
      <trkpt lat="45.99597" lon="4.89782">
        <ele>292</ele>
        <time>2017-07-10T09:41:35Z</time>
      </trkpt>
      <trkpt lat="45.99597" lon="4.89788">
        <ele>292</ele>
        <time>2017-07-10T09:41:36Z</time>
      </trkpt>
      <trkpt lat="45.99597" lon="4.89795">
        <ele>292</ele>
        <time>2017-07-10T09:41:37Z</time>
      </trkpt>
      <trkpt lat="45.99597" lon="4.89802">
        <ele>292</ele>
        <time>2017-07-10T09:41:38Z</time>
      </trkpt>
      <trkpt lat="45.99597" lon="4.89809">
        <ele>292</ele>
        <time>2017-07-10T09:41:39Z</time>
      </trkpt>
      <trkpt lat="45.99597" lon="4.89815">
        <ele>292</ele>
        <time>2017-07-10T09:41:40Z</time>
      </trkpt>
      <trkpt lat="45.99596" lon="4.89827">
        <ele>293</ele>
        <time>2017-07-10T09:41:42Z</time>
      </trkpt>
      <trkpt lat="45.99596" lon="4.89832">
        <ele>293</ele>
        <time>2017-07-10T09:41:43Z</time>
      </trkpt>
      <trkpt lat="45.99597" lon="4.8984">
        <ele>293</ele>
        <time>2017-07-10T09:41:44Z</time>
      </trkpt>
      <trkpt lat="45.99597" lon="4.89846">
        <ele>293</ele>
        <time>2017-07-10T09:41:45Z</time>
      </trkpt>
      <trkpt lat="45.99598" lon="4.89854">
        <ele>293</ele>
        <time>2017-07-10T09:41:46Z</time>
      </trkpt>
      <trkpt lat="45.99598" lon="4.8986">
        <ele>293</ele>
        <time>2017-07-10T09:41:47Z</time>
      </trkpt>
      <trkpt lat="45.99599" lon="4.89868">
        <ele>293</ele>
        <time>2017-07-10T09:41:48Z</time>
      </trkpt>
      <trkpt lat="45.99599" lon="4.89875">
        <ele>292</ele>
        <time>2017-07-10T09:41:49Z</time>
      </trkpt>
      <trkpt lat="45.996" lon="4.89883">
        <ele>292</ele>
        <time>2017-07-10T09:41:50Z</time>
      </trkpt>
      <trkpt lat="45.996" lon="4.8989">
        <ele>292</ele>
        <time>2017-07-10T09:41:51Z</time>
      </trkpt>
      <trkpt lat="45.99602" lon="4.89898">
        <ele>292</ele>
        <time>2017-07-10T09:41:52Z</time>
      </trkpt>
      <trkpt lat="45.99602" lon="4.89905">
        <ele>292</ele>
        <time>2017-07-10T09:41:53Z</time>
      </trkpt>
      <trkpt lat="45.99602" lon="4.89911">
        <ele>292</ele>
        <time>2017-07-10T09:41:54Z</time>
      </trkpt>
      <trkpt lat="45.99603" lon="4.89918">
        <ele>293</ele>
        <time>2017-07-10T09:41:55Z</time>
      </trkpt>
      <trkpt lat="45.99603" lon="4.89925">
        <ele>293</ele>
        <time>2017-07-10T09:41:56Z</time>
      </trkpt>
      <trkpt lat="45.99603" lon="4.89933">
        <ele>293</ele>
        <time>2017-07-10T09:41:57Z</time>
      </trkpt>
      <trkpt lat="45.99604" lon="4.8994">
        <ele>293</ele>
        <time>2017-07-10T09:41:58Z</time>
      </trkpt>
      <trkpt lat="45.99604" lon="4.89946">
        <ele>294</ele>
        <time>2017-07-10T09:41:59Z</time>
      </trkpt>
      <trkpt lat="45.99603" lon="4.89953">
        <ele>294</ele>
        <time>2017-07-10T09:42:00Z</time>
      </trkpt>
      <trkpt lat="45.99604" lon="4.8996">
        <ele>294</ele>
        <time>2017-07-10T09:42:01Z</time>
      </trkpt>
      <trkpt lat="45.99605" lon="4.89971">
        <ele>294</ele>
        <time>2017-07-10T09:42:03Z</time>
      </trkpt>
      <trkpt lat="45.99606" lon="4.89977">
        <ele>294</ele>
        <time>2017-07-10T09:42:04Z</time>
      </trkpt>
      <trkpt lat="45.99608" lon="4.89988">
        <ele>294</ele>
        <time>2017-07-10T09:42:06Z</time>
      </trkpt>
      <trkpt lat="45.99608" lon="4.89994">
        <ele>294</ele>
        <time>2017-07-10T09:42:07Z</time>
      </trkpt>
      <trkpt lat="45.9961" lon="4.90006">
        <ele>296</ele>
        <time>2017-07-10T09:42:09Z</time>
      </trkpt>
      <trkpt lat="45.99612" lon="4.90012">
        <ele>296</ele>
        <time>2017-07-10T09:42:10Z</time>
      </trkpt>
      <trkpt lat="45.99614" lon="4.90018">
        <ele>296</ele>
        <time>2017-07-10T09:42:11Z</time>
      </trkpt>
      <trkpt lat="45.99617" lon="4.90024">
        <ele>296</ele>
        <time>2017-07-10T09:42:12Z</time>
      </trkpt>
      <trkpt lat="45.99621" lon="4.90035">
        <ele>296</ele>
        <time>2017-07-10T09:42:14Z</time>
      </trkpt>
      <trkpt lat="45.99622" lon="4.90041">
        <ele>296</ele>
        <time>2017-07-10T09:42:15Z</time>
      </trkpt>
      <trkpt lat="45.99625" lon="4.90047">
        <ele>297</ele>
        <time>2017-07-10T09:42:16Z</time>
      </trkpt>
      <trkpt lat="45.99627" lon="4.90053">
        <ele>297</ele>
        <time>2017-07-10T09:42:17Z</time>
      </trkpt>
      <trkpt lat="45.99629" lon="4.90058">
        <ele>297</ele>
        <time>2017-07-10T09:42:18Z</time>
      </trkpt>
      <trkpt lat="45.99632" lon="4.90064">
        <ele>297</ele>
        <time>2017-07-10T09:42:19Z</time>
      </trkpt>
      <trkpt lat="45.99637" lon="4.90074">
        <ele>297</ele>
        <time>2017-07-10T09:42:21Z</time>
      </trkpt>
      <trkpt lat="45.99639" lon="4.90079">
        <ele>297</ele>
        <time>2017-07-10T09:42:22Z</time>
      </trkpt>
      <trkpt lat="45.99642" lon="4.90089">
        <ele>299</ele>
        <time>2017-07-10T09:42:24Z</time>
      </trkpt>
      <trkpt lat="45.99645" lon="4.90094">
        <ele>299</ele>
        <time>2017-07-10T09:42:25Z</time>
      </trkpt>
      <trkpt lat="45.99647" lon="4.90104">
        <ele>299</ele>
        <time>2017-07-10T09:42:27Z</time>
      </trkpt>
      <trkpt lat="45.99648" lon="4.90109">
        <ele>299</ele>
        <time>2017-07-10T09:42:28Z</time>
      </trkpt>
      <trkpt lat="45.9965" lon="4.90119">
        <ele>299</ele>
        <time>2017-07-10T09:42:30Z</time>
      </trkpt>
      <trkpt lat="45.99651" lon="4.90124">
        <ele>299</ele>
        <time>2017-07-10T09:42:31Z</time>
      </trkpt>
      <trkpt lat="45.99652" lon="4.90134">
        <ele>299</ele>
        <time>2017-07-10T09:42:33Z</time>
      </trkpt>
      <trkpt lat="45.99653" lon="4.90139">
        <ele>300</ele>
        <time>2017-07-10T09:42:34Z</time>
      </trkpt>
      <trkpt lat="45.99656" lon="4.90148">
        <ele>300</ele>
        <time>2017-07-10T09:42:36Z</time>
      </trkpt>
      <trkpt lat="45.99656" lon="4.90153">
        <ele>300</ele>
        <time>2017-07-10T09:42:37Z</time>
      </trkpt>
      <trkpt lat="45.99657" lon="4.90164">
        <ele>300</ele>
        <time>2017-07-10T09:42:39Z</time>
      </trkpt>
      <trkpt lat="45.99659" lon="4.90168">
        <ele>301</ele>
        <time>2017-07-10T09:42:40Z</time>
      </trkpt>
      <trkpt lat="45.99662" lon="4.90178">
        <ele>301</ele>
        <time>2017-07-10T09:42:42Z</time>
      </trkpt>
      <trkpt lat="45.99664" lon="4.90183">
        <ele>301</ele>
        <time>2017-07-10T09:42:43Z</time>
      </trkpt>
      <trkpt lat="45.99667" lon="4.90192">
        <ele>303</ele>
        <time>2017-07-10T09:42:45Z</time>
      </trkpt>
      <trkpt lat="45.99669" lon="4.90197">
        <ele>303</ele>
        <time>2017-07-10T09:42:46Z</time>
      </trkpt>
      <trkpt lat="45.99672" lon="4.90207">
        <ele>303</ele>
        <time>2017-07-10T09:42:48Z</time>
      </trkpt>
      <trkpt lat="45.99674" lon="4.90212">
        <ele>303</ele>
        <time>2017-07-10T09:42:49Z</time>
      </trkpt>
      <trkpt lat="45.99676" lon="4.90222">
        <ele>304</ele>
        <time>2017-07-10T09:42:51Z</time>
      </trkpt>
      <trkpt lat="45.99678" lon="4.90228">
        <ele>304</ele>
        <time>2017-07-10T09:42:52Z</time>
      </trkpt>
      <trkpt lat="45.99681" lon="4.90237">
        <ele>304</ele>
        <time>2017-07-10T09:42:54Z</time>
      </trkpt>
      <trkpt lat="45.99683" lon="4.90242">
        <ele>304</ele>
        <time>2017-07-10T09:42:55Z</time>
      </trkpt>
      <trkpt lat="45.99684" lon="4.90252">
        <ele>305</ele>
        <time>2017-07-10T09:42:57Z</time>
      </trkpt>
      <trkpt lat="45.99684" lon="4.90256">
        <ele>305</ele>
        <time>2017-07-10T09:42:58Z</time>
      </trkpt>
      <trkpt lat="45.99683" lon="4.90268">
        <ele>305</ele>
        <time>2017-07-10T09:43:01Z</time>
      </trkpt>
      <trkpt lat="45.99683" lon="4.90272">
        <ele>305</ele>
        <time>2017-07-10T09:43:02Z</time>
      </trkpt>
      <trkpt lat="45.99682" lon="4.90281">
        <ele>305</ele>
        <time>2017-07-10T09:43:04Z</time>
      </trkpt>
      <trkpt lat="45.9968" lon="4.90286">
        <ele>304</ele>
        <time>2017-07-10T09:43:05Z</time>
      </trkpt>
      <trkpt lat="45.99677" lon="4.90296">
        <ele>304</ele>
        <time>2017-07-10T09:43:07Z</time>
      </trkpt>
      <trkpt lat="45.99675" lon="4.90301">
        <ele>304</ele>
        <time>2017-07-10T09:43:08Z</time>
      </trkpt>
      <trkpt lat="45.99674" lon="4.90311">
        <ele>304</ele>
        <time>2017-07-10T09:43:10Z</time>
      </trkpt>
      <trkpt lat="45.99674" lon="4.90315">
        <ele>304</ele>
        <time>2017-07-10T09:43:11Z</time>
      </trkpt>
      <trkpt lat="45.99678" lon="4.90326">
        <ele>303</ele>
        <time>2017-07-10T09:43:16Z</time>
      </trkpt>
      <trkpt lat="45.9968" lon="4.90327">
        <ele>303</ele>
        <time>2017-07-10T09:43:17Z</time>
      </trkpt>
      <trkpt lat="45.99685" lon="4.90331">
        <ele>304</ele>
        <time>2017-07-10T09:43:19Z</time>
      </trkpt>
      <trkpt lat="45.99688" lon="4.90333">
        <ele>304</ele>
        <time>2017-07-10T09:43:20Z</time>
      </trkpt>
      <trkpt lat="45.99688" lon="4.90344">
        <ele>303</ele>
        <time>2017-07-10T09:43:23Z</time>
      </trkpt>
      <trkpt lat="45.99688" lon="4.90349">
        <ele>303</ele>
        <time>2017-07-10T09:43:24Z</time>
      </trkpt>
      <trkpt lat="45.99687" lon="4.90356">
        <ele>302</ele>
        <time>2017-07-10T09:43:25Z</time>
      </trkpt>
      <trkpt lat="45.99685" lon="4.90365">
        <ele>302</ele>
        <time>2017-07-10T09:43:26Z</time>
      </trkpt>
      <trkpt lat="45.99683" lon="4.90373">
        <ele>302</ele>
        <time>2017-07-10T09:43:27Z</time>
      </trkpt>
      <trkpt lat="45.99682" lon="4.90382">
        <ele>302</ele>
        <time>2017-07-10T09:43:28Z</time>
      </trkpt>
      <trkpt lat="45.99681" lon="4.9039">
        <ele>302</ele>
        <time>2017-07-10T09:43:29Z</time>
      </trkpt>
      <trkpt lat="45.99679" lon="4.90399">
        <ele>302</ele>
        <time>2017-07-10T09:43:30Z</time>
      </trkpt>
      <trkpt lat="45.99676" lon="4.90406">
        <ele>302</ele>
        <time>2017-07-10T09:43:31Z</time>
      </trkpt>
      <trkpt lat="45.99673" lon="4.90413">
        <ele>301</ele>
        <time>2017-07-10T09:43:32Z</time>
      </trkpt>
      <trkpt lat="45.9967" lon="4.9042">
        <ele>301</ele>
        <time>2017-07-10T09:43:33Z</time>
      </trkpt>
      <trkpt lat="45.99667" lon="4.90424">
        <ele>301</ele>
        <time>2017-07-10T09:43:34Z</time>
      </trkpt>
      <trkpt lat="45.99659" lon="4.90429">
        <ele>300</ele>
        <time>2017-07-10T09:43:36Z</time>
      </trkpt>
      <trkpt lat="45.99655" lon="4.90431">
        <ele>300</ele>
        <time>2017-07-10T09:43:37Z</time>
      </trkpt>
      <trkpt lat="45.99647" lon="4.90435">
        <ele>300</ele>
        <time>2017-07-10T09:43:39Z</time>
      </trkpt>
      <trkpt lat="45.99643" lon="4.90437">
        <ele>300</ele>
        <time>2017-07-10T09:43:40Z</time>
      </trkpt>
      <trkpt lat="45.99638" lon="4.90439">
        <ele>300</ele>
        <time>2017-07-10T09:43:41Z</time>
      </trkpt>
      <trkpt lat="45.99634" lon="4.9044">
        <ele>300</ele>
        <time>2017-07-10T09:43:42Z</time>
      </trkpt>
      <trkpt lat="45.99629" lon="4.9044">
        <ele>300</ele>
        <time>2017-07-10T09:43:43Z</time>
      </trkpt>
      <trkpt lat="45.99625" lon="4.90441">
        <ele>300</ele>
        <time>2017-07-10T09:43:44Z</time>
      </trkpt>
      <trkpt lat="45.9962" lon="4.90442">
        <ele>300</ele>
        <time>2017-07-10T09:43:45Z</time>
      </trkpt>
      <trkpt lat="45.99614" lon="4.90442">
        <ele>300</ele>
        <time>2017-07-10T09:43:46Z</time>
      </trkpt>
      <trkpt lat="45.99606" lon="4.90444">
        <ele>300</ele>
        <time>2017-07-10T09:43:48Z</time>
      </trkpt>
      <trkpt lat="45.99602" lon="4.90446">
        <ele>300</ele>
        <time>2017-07-10T09:43:49Z</time>
      </trkpt>
      <trkpt lat="45.99598" lon="4.90447">
        <ele>300</ele>
        <time>2017-07-10T09:43:50Z</time>
      </trkpt>
      <trkpt lat="45.99593" lon="4.90448">
        <ele>300</ele>
        <time>2017-07-10T09:43:51Z</time>
      </trkpt>
      <trkpt lat="45.99589" lon="4.9045">
        <ele>300</ele>
        <time>2017-07-10T09:43:52Z</time>
      </trkpt>
      <trkpt lat="45.99584" lon="4.90452">
        <ele>300</ele>
        <time>2017-07-10T09:43:53Z</time>
      </trkpt>
      <trkpt lat="45.9958" lon="4.90455">
        <ele>299</ele>
        <time>2017-07-10T09:43:54Z</time>
      </trkpt>
      <trkpt lat="45.99576" lon="4.9046">
        <ele>299</ele>
        <time>2017-07-10T09:43:55Z</time>
      </trkpt>
      <trkpt lat="45.99572" lon="4.90465">
        <ele>299</ele>
        <time>2017-07-10T09:43:56Z</time>
      </trkpt>
      <trkpt lat="45.99568" lon="4.9047">
        <ele>299</ele>
        <time>2017-07-10T09:43:57Z</time>
      </trkpt>
      <trkpt lat="45.99564" lon="4.90474">
        <ele>299</ele>
        <time>2017-07-10T09:43:58Z</time>
      </trkpt>
      <trkpt lat="45.9956" lon="4.90478">
        <ele>299</ele>
        <time>2017-07-10T09:43:59Z</time>
      </trkpt>
      <trkpt lat="45.99556" lon="4.90483">
        <ele>299</ele>
        <time>2017-07-10T09:44:00Z</time>
      </trkpt>
      <trkpt lat="45.99552" lon="4.90487">
        <ele>299</ele>
        <time>2017-07-10T09:44:01Z</time>
      </trkpt>
      <trkpt lat="45.99548" lon="4.90491">
        <ele>299</ele>
        <time>2017-07-10T09:44:02Z</time>
      </trkpt>
      <trkpt lat="45.99544" lon="4.90496">
        <ele>299</ele>
        <time>2017-07-10T09:44:03Z</time>
      </trkpt>
      <trkpt lat="45.99541" lon="4.905">
        <ele>299</ele>
        <time>2017-07-10T09:44:04Z</time>
      </trkpt>
      <trkpt lat="45.99537" lon="4.90505">
        <ele>299</ele>
        <time>2017-07-10T09:44:05Z</time>
      </trkpt>
      <trkpt lat="45.99533" lon="4.9051">
        <ele>299</ele>
        <time>2017-07-10T09:44:06Z</time>
      </trkpt>
      <trkpt lat="45.99529" lon="4.90515">
        <ele>299</ele>
        <time>2017-07-10T09:44:07Z</time>
      </trkpt>
      <trkpt lat="45.99525" lon="4.9052">
        <ele>299</ele>
        <time>2017-07-10T09:44:08Z</time>
      </trkpt>
      <trkpt lat="45.99521" lon="4.90524">
        <ele>299</ele>
        <time>2017-07-10T09:44:09Z</time>
      </trkpt>
      <trkpt lat="45.99517" lon="4.90529">
        <ele>299</ele>
        <time>2017-07-10T09:44:10Z</time>
      </trkpt>
      <trkpt lat="45.99513" lon="4.90533">
        <ele>299</ele>
        <time>2017-07-10T09:44:11Z</time>
      </trkpt>
      <trkpt lat="45.99509" lon="4.90537">
        <ele>299</ele>
        <time>2017-07-10T09:44:12Z</time>
      </trkpt>
      <trkpt lat="45.99505" lon="4.90541">
        <ele>299</ele>
        <time>2017-07-10T09:44:13Z</time>
      </trkpt>
      <trkpt lat="45.99501" lon="4.90546">
        <ele>299</ele>
        <time>2017-07-10T09:44:14Z</time>
      </trkpt>
      <trkpt lat="45.99498" lon="4.9055">
        <ele>299</ele>
        <time>2017-07-10T09:44:15Z</time>
      </trkpt>
      <trkpt lat="45.99494" lon="4.90555">
        <ele>299</ele>
        <time>2017-07-10T09:44:16Z</time>
      </trkpt>
      <trkpt lat="45.99491" lon="4.90559">
        <ele>299</ele>
        <time>2017-07-10T09:44:17Z</time>
      </trkpt>
      <trkpt lat="45.99484" lon="4.90567">
        <ele>299</ele>
        <time>2017-07-10T09:44:19Z</time>
      </trkpt>
      <trkpt lat="45.99482" lon="4.90571">
        <ele>299</ele>
        <time>2017-07-10T09:44:20Z</time>
      </trkpt>
      <trkpt lat="45.99475" lon="4.90578">
        <ele>299</ele>
        <time>2017-07-10T09:44:22Z</time>
      </trkpt>
      <trkpt lat="45.99471" lon="4.90582">
        <ele>299</ele>
        <time>2017-07-10T09:44:23Z</time>
      </trkpt>
      <trkpt lat="45.99468" lon="4.90586">
        <ele>298</ele>
        <time>2017-07-10T09:44:24Z</time>
      </trkpt>
      <trkpt lat="45.99464" lon="4.90591">
        <ele>298</ele>
        <time>2017-07-10T09:44:25Z</time>
      </trkpt>
      <trkpt lat="45.99459" lon="4.90597">
        <ele>298</ele>
        <time>2017-07-10T09:44:26Z</time>
      </trkpt>
      <trkpt lat="45.99454" lon="4.90602">
        <ele>298</ele>
        <time>2017-07-10T09:44:27Z</time>
      </trkpt>
      <trkpt lat="45.99451" lon="4.90606">
        <ele>298</ele>
        <time>2017-07-10T09:44:28Z</time>
      </trkpt>
      <trkpt lat="45.99448" lon="4.90611">
        <ele>298</ele>
        <time>2017-07-10T09:44:29Z</time>
      </trkpt>
      <trkpt lat="45.99441" lon="4.9062">
        <ele>298</ele>
        <time>2017-07-10T09:44:31Z</time>
      </trkpt>
      <trkpt lat="45.99438" lon="4.90625">
        <ele>298</ele>
        <time>2017-07-10T09:44:32Z</time>
      </trkpt>
      <trkpt lat="45.99435" lon="4.9063">
        <ele>298</ele>
        <time>2017-07-10T09:44:33Z</time>
      </trkpt>
      <trkpt lat="45.99431" lon="4.90634">
        <ele>298</ele>
        <time>2017-07-10T09:44:34Z</time>
      </trkpt>
      <trkpt lat="45.99428" lon="4.90638">
        <ele>298</ele>
        <time>2017-07-10T09:44:35Z</time>
      </trkpt>
      <trkpt lat="45.99424" lon="4.90643">
        <ele>298</ele>
        <time>2017-07-10T09:44:36Z</time>
      </trkpt>
      <trkpt lat="45.99418" lon="4.90651">
        <ele>298</ele>
        <time>2017-07-10T09:44:38Z</time>
      </trkpt>
      <trkpt lat="45.99415" lon="4.90654">
        <ele>298</ele>
        <time>2017-07-10T09:44:39Z</time>
      </trkpt>
      <trkpt lat="45.99409" lon="4.90662">
        <ele>298</ele>
        <time>2017-07-10T09:44:41Z</time>
      </trkpt>
      <trkpt lat="45.99407" lon="4.90666">
        <ele>298</ele>
        <time>2017-07-10T09:44:42Z</time>
      </trkpt>
      <trkpt lat="45.99401" lon="4.90673">
        <ele>298</ele>
        <time>2017-07-10T09:44:44Z</time>
      </trkpt>
      <trkpt lat="45.99397" lon="4.90677">
        <ele>298</ele>
        <time>2017-07-10T09:44:45Z</time>
      </trkpt>
      <trkpt lat="45.9939" lon="4.90685">
        <ele>298</ele>
        <time>2017-07-10T09:44:47Z</time>
      </trkpt>
      <trkpt lat="45.99387" lon="4.90689">
        <ele>298</ele>
        <time>2017-07-10T09:44:48Z</time>
      </trkpt>
      <trkpt lat="45.9938" lon="4.90696">
        <ele>298</ele>
        <time>2017-07-10T09:44:50Z</time>
      </trkpt>
      <trkpt lat="45.99376" lon="4.907">
        <ele>298</ele>
        <time>2017-07-10T09:44:51Z</time>
      </trkpt>
      <trkpt lat="45.9937" lon="4.90709">
        <ele>299</ele>
        <time>2017-07-10T09:44:53Z</time>
      </trkpt>
      <trkpt lat="45.99367" lon="4.90713">
        <ele>299</ele>
        <time>2017-07-10T09:44:54Z</time>
      </trkpt>
      <trkpt lat="45.99362" lon="4.90718">
        <ele>299</ele>
        <time>2017-07-10T09:44:55Z</time>
      </trkpt>
      <trkpt lat="45.99358" lon="4.90723">
        <ele>299</ele>
        <time>2017-07-10T09:44:56Z</time>
      </trkpt>
      <trkpt lat="45.99354" lon="4.90729">
        <ele>299</ele>
        <time>2017-07-10T09:44:57Z</time>
      </trkpt>
      <trkpt lat="45.99349" lon="4.90734">
        <ele>299</ele>
        <time>2017-07-10T09:44:58Z</time>
      </trkpt>
      <trkpt lat="45.99345" lon="4.90739">
        <ele>299</ele>
        <time>2017-07-10T09:44:59Z</time>
      </trkpt>
      <trkpt lat="45.99342" lon="4.90744">
        <ele>299</ele>
        <time>2017-07-10T09:45:00Z</time>
      </trkpt>
      <trkpt lat="45.99338" lon="4.90748">
        <ele>300</ele>
        <time>2017-07-10T09:45:01Z</time>
      </trkpt>
      <trkpt lat="45.99334" lon="4.90753">
        <ele>300</ele>
        <time>2017-07-10T09:45:02Z</time>
      </trkpt>
      <trkpt lat="45.9933" lon="4.90757">
        <ele>300</ele>
        <time>2017-07-10T09:45:03Z</time>
      </trkpt>
      <trkpt lat="45.99327" lon="4.9076">
        <ele>300</ele>
        <time>2017-07-10T09:45:04Z</time>
      </trkpt>
      <trkpt lat="45.99323" lon="4.90764">
        <ele>300</ele>
        <time>2017-07-10T09:45:05Z</time>
      </trkpt>
      <trkpt lat="45.99319" lon="4.90769">
        <ele>300</ele>
        <time>2017-07-10T09:45:06Z</time>
      </trkpt>
      <trkpt lat="45.99315" lon="4.90773">
        <ele>300</ele>
        <time>2017-07-10T09:45:07Z</time>
      </trkpt>
      <trkpt lat="45.99311" lon="4.90778">
        <ele>300</ele>
        <time>2017-07-10T09:45:08Z</time>
      </trkpt>
      <trkpt lat="45.99307" lon="4.90782">
        <ele>300</ele>
        <time>2017-07-10T09:45:09Z</time>
      </trkpt>
      <trkpt lat="45.99304" lon="4.90786">
        <ele>300</ele>
        <time>2017-07-10T09:45:10Z</time>
      </trkpt>
      <trkpt lat="45.99299" lon="4.9079">
        <ele>300</ele>
        <time>2017-07-10T09:45:11Z</time>
      </trkpt>
      <trkpt lat="45.99295" lon="4.90794">
        <ele>300</ele>
        <time>2017-07-10T09:45:12Z</time>
      </trkpt>
      <trkpt lat="45.99291" lon="4.90799">
        <ele>300</ele>
        <time>2017-07-10T09:45:13Z</time>
      </trkpt>
      <trkpt lat="45.99287" lon="4.90804">
        <ele>300</ele>
        <time>2017-07-10T09:45:14Z</time>
      </trkpt>
      <trkpt lat="45.99283" lon="4.90809">
        <ele>300</ele>
        <time>2017-07-10T09:45:15Z</time>
      </trkpt>
      <trkpt lat="45.99278" lon="4.90814">
        <ele>300</ele>
        <time>2017-07-10T09:45:16Z</time>
      </trkpt>
      <trkpt lat="45.99274" lon="4.90819">
        <ele>300</ele>
        <time>2017-07-10T09:45:17Z</time>
      </trkpt>
      <trkpt lat="45.99271" lon="4.90825">
        <ele>300</ele>
        <time>2017-07-10T09:45:18Z</time>
      </trkpt>
      <trkpt lat="45.99267" lon="4.9083">
        <ele>300</ele>
        <time>2017-07-10T09:45:19Z</time>
      </trkpt>
      <trkpt lat="45.99263" lon="4.90835">
        <ele>300</ele>
        <time>2017-07-10T09:45:20Z</time>
      </trkpt>
      <trkpt lat="45.9926" lon="4.90839">
        <ele>300</ele>
        <time>2017-07-10T09:45:21Z</time>
      </trkpt>
      <trkpt lat="45.99256" lon="4.90844">
        <ele>300</ele>
        <time>2017-07-10T09:45:22Z</time>
      </trkpt>
      <trkpt lat="45.9925" lon="4.90852">
        <ele>300</ele>
        <time>2017-07-10T09:45:24Z</time>
      </trkpt>
      <trkpt lat="45.99246" lon="4.90856">
        <ele>300</ele>
        <time>2017-07-10T09:45:25Z</time>
      </trkpt>
      <trkpt lat="45.99242" lon="4.90861">
        <ele>300</ele>
        <time>2017-07-10T09:45:26Z</time>
      </trkpt>
      <trkpt lat="45.99239" lon="4.90866">
        <ele>300</ele>
        <time>2017-07-10T09:45:27Z</time>
      </trkpt>
      <trkpt lat="45.99235" lon="4.9087">
        <ele>300</ele>
        <time>2017-07-10T09:45:28Z</time>
      </trkpt>
      <trkpt lat="45.99232" lon="4.90875">
        <ele>299</ele>
        <time>2017-07-10T09:45:29Z</time>
      </trkpt>
      <trkpt lat="45.99228" lon="4.9088">
        <ele>299</ele>
        <time>2017-07-10T09:45:30Z</time>
      </trkpt>
      <trkpt lat="45.99224" lon="4.90884">
        <ele>299</ele>
        <time>2017-07-10T09:45:31Z</time>
      </trkpt>
      <trkpt lat="45.9922" lon="4.90889">
        <ele>299</ele>
        <time>2017-07-10T09:45:32Z</time>
      </trkpt>
      <trkpt lat="45.99216" lon="4.90894">
        <ele>299</ele>
        <time>2017-07-10T09:45:33Z</time>
      </trkpt>
      <trkpt lat="45.99213" lon="4.90898">
        <ele>299</ele>
        <time>2017-07-10T09:45:34Z</time>
      </trkpt>
      <trkpt lat="45.99209" lon="4.90902">
        <ele>299</ele>
        <time>2017-07-10T09:45:35Z</time>
      </trkpt>
      <trkpt lat="45.99205" lon="4.90907">
        <ele>300</ele>
        <time>2017-07-10T09:45:36Z</time>
      </trkpt>
      <trkpt lat="45.99201" lon="4.90911">
        <ele>300</ele>
        <time>2017-07-10T09:45:37Z</time>
      </trkpt>
      <trkpt lat="45.99198" lon="4.90916">
        <ele>300</ele>
        <time>2017-07-10T09:45:38Z</time>
      </trkpt>
      <trkpt lat="45.99194" lon="4.9092">
        <ele>300</ele>
        <time>2017-07-10T09:45:39Z</time>
      </trkpt>
      <trkpt lat="45.99191" lon="4.90925">
        <ele>300</ele>
        <time>2017-07-10T09:45:40Z</time>
      </trkpt>
      <trkpt lat="45.99186" lon="4.9093">
        <ele>300</ele>
        <time>2017-07-10T09:45:41Z</time>
      </trkpt>
      <trkpt lat="45.99182" lon="4.90935">
        <ele>300</ele>
        <time>2017-07-10T09:45:42Z</time>
      </trkpt>
      <trkpt lat="45.99179" lon="4.90941">
        <ele>300</ele>
        <time>2017-07-10T09:45:43Z</time>
      </trkpt>
      <trkpt lat="45.99175" lon="4.90946">
        <ele>300</ele>
        <time>2017-07-10T09:45:44Z</time>
      </trkpt>
      <trkpt lat="45.99171" lon="4.90951">
        <ele>300</ele>
        <time>2017-07-10T09:45:45Z</time>
      </trkpt>
      <trkpt lat="45.99167" lon="4.90955">
        <ele>300</ele>
        <time>2017-07-10T09:45:46Z</time>
      </trkpt>
      <trkpt lat="45.99163" lon="4.90959">
        <ele>300</ele>
        <time>2017-07-10T09:45:47Z</time>
      </trkpt>
      <trkpt lat="45.9916" lon="4.90964">
        <ele>300</ele>
        <time>2017-07-10T09:45:48Z</time>
      </trkpt>
      <trkpt lat="45.99157" lon="4.90969">
        <ele>300</ele>
        <time>2017-07-10T09:45:49Z</time>
      </trkpt>
      <trkpt lat="45.99153" lon="4.90974">
        <ele>300</ele>
        <time>2017-07-10T09:45:50Z</time>
      </trkpt>
      <trkpt lat="45.99149" lon="4.90979">
        <ele>301</ele>
        <time>2017-07-10T09:45:51Z</time>
      </trkpt>
      <trkpt lat="45.99143" lon="4.90984">
        <ele>301</ele>
        <time>2017-07-10T09:45:52Z</time>
      </trkpt>
      <trkpt lat="45.99139" lon="4.90988">
        <ele>301</ele>
        <time>2017-07-10T09:45:53Z</time>
      </trkpt>
      <trkpt lat="45.99135" lon="4.90993">
        <ele>301</ele>
        <time>2017-07-10T09:45:54Z</time>
      </trkpt>
      <trkpt lat="45.99131" lon="4.90999">
        <ele>301</ele>
        <time>2017-07-10T09:45:55Z</time>
      </trkpt>
      <trkpt lat="45.99127" lon="4.91004">
        <ele>301</ele>
        <time>2017-07-10T09:45:56Z</time>
      </trkpt>
      <trkpt lat="45.99123" lon="4.91008">
        <ele>301</ele>
        <time>2017-07-10T09:45:57Z</time>
      </trkpt>
      <trkpt lat="45.99119" lon="4.91014">
        <ele>301</ele>
        <time>2017-07-10T09:45:58Z</time>
      </trkpt>
      <trkpt lat="45.99116" lon="4.91019">
        <ele>301</ele>
        <time>2017-07-10T09:45:59Z</time>
      </trkpt>
      <trkpt lat="45.99111" lon="4.91025">
        <ele>301</ele>
        <time>2017-07-10T09:46:00Z</time>
      </trkpt>
      <trkpt lat="45.99107" lon="4.91029">
        <ele>301</ele>
        <time>2017-07-10T09:46:01Z</time>
      </trkpt>
      <trkpt lat="45.99103" lon="4.91034">
        <ele>301</ele>
        <time>2017-07-10T09:46:02Z</time>
      </trkpt>
      <trkpt lat="45.991" lon="4.91038">
        <ele>301</ele>
        <time>2017-07-10T09:46:03Z</time>
      </trkpt>
      <trkpt lat="45.99096" lon="4.91043">
        <ele>301</ele>
        <time>2017-07-10T09:46:04Z</time>
      </trkpt>
      <trkpt lat="45.99092" lon="4.91047">
        <ele>301</ele>
        <time>2017-07-10T09:46:05Z</time>
      </trkpt>
      <trkpt lat="45.99088" lon="4.91051">
        <ele>301</ele>
        <time>2017-07-10T09:46:06Z</time>
      </trkpt>
      <trkpt lat="45.99085" lon="4.91056">
        <ele>301</ele>
        <time>2017-07-10T09:46:07Z</time>
      </trkpt>
      <trkpt lat="45.99081" lon="4.91061">
        <ele>300</ele>
        <time>2017-07-10T09:46:08Z</time>
      </trkpt>
      <trkpt lat="45.99077" lon="4.91066">
        <ele>300</ele>
        <time>2017-07-10T09:46:09Z</time>
      </trkpt>
      <trkpt lat="45.99074" lon="4.91071">
        <ele>300</ele>
        <time>2017-07-10T09:46:10Z</time>
      </trkpt>
      <trkpt lat="45.99069" lon="4.91076">
        <ele>300</ele>
        <time>2017-07-10T09:46:11Z</time>
      </trkpt>
      <trkpt lat="45.99065" lon="4.91081">
        <ele>300</ele>
        <time>2017-07-10T09:46:12Z</time>
      </trkpt>
      <trkpt lat="45.99061" lon="4.91087">
        <ele>300</ele>
        <time>2017-07-10T09:46:13Z</time>
      </trkpt>
      <trkpt lat="45.99057" lon="4.91093">
        <ele>299</ele>
        <time>2017-07-10T09:46:14Z</time>
      </trkpt>
      <trkpt lat="45.99052" lon="4.91099">
        <ele>299</ele>
        <time>2017-07-10T09:46:15Z</time>
      </trkpt>
      <trkpt lat="45.99048" lon="4.91104">
        <ele>299</ele>
        <time>2017-07-10T09:46:16Z</time>
      </trkpt>
      <trkpt lat="45.99043" lon="4.91109">
        <ele>299</ele>
        <time>2017-07-10T09:46:17Z</time>
      </trkpt>
      <trkpt lat="45.99038" lon="4.91114">
        <ele>299</ele>
        <time>2017-07-10T09:46:18Z</time>
      </trkpt>
      <trkpt lat="45.99034" lon="4.91119">
        <ele>299</ele>
        <time>2017-07-10T09:46:19Z</time>
      </trkpt>
      <trkpt lat="45.9903" lon="4.91124">
        <ele>299</ele>
        <time>2017-07-10T09:46:20Z</time>
      </trkpt>
      <trkpt lat="45.99026" lon="4.91129">
        <ele>299</ele>
        <time>2017-07-10T09:46:21Z</time>
      </trkpt>
      <trkpt lat="45.99022" lon="4.91134">
        <ele>299</ele>
        <time>2017-07-10T09:46:22Z</time>
      </trkpt>
      <trkpt lat="45.99017" lon="4.91139">
        <ele>299</ele>
        <time>2017-07-10T09:46:23Z</time>
      </trkpt>
      <trkpt lat="45.99013" lon="4.91145">
        <ele>299</ele>
        <time>2017-07-10T09:46:24Z</time>
      </trkpt>
      <trkpt lat="45.99008" lon="4.9115">
        <ele>299</ele>
        <time>2017-07-10T09:46:25Z</time>
      </trkpt>
      <trkpt lat="45.99004" lon="4.91156">
        <ele>299</ele>
        <time>2017-07-10T09:46:26Z</time>
      </trkpt>
      <trkpt lat="45.98999" lon="4.91162">
        <ele>299</ele>
        <time>2017-07-10T09:46:27Z</time>
      </trkpt>
      <trkpt lat="45.98994" lon="4.91169">
        <ele>299</ele>
        <time>2017-07-10T09:46:28Z</time>
      </trkpt>
      <trkpt lat="45.9899" lon="4.91174">
        <ele>299</ele>
        <time>2017-07-10T09:46:29Z</time>
      </trkpt>
      <trkpt lat="45.98985" lon="4.9118">
        <ele>299</ele>
        <time>2017-07-10T09:46:30Z</time>
      </trkpt>
      <trkpt lat="45.9898" lon="4.91185">
        <ele>299</ele>
        <time>2017-07-10T09:46:31Z</time>
      </trkpt>
      <trkpt lat="45.98976" lon="4.91191">
        <ele>299</ele>
        <time>2017-07-10T09:46:32Z</time>
      </trkpt>
      <trkpt lat="45.98971" lon="4.91196">
        <ele>299</ele>
        <time>2017-07-10T09:46:33Z</time>
      </trkpt>
      <trkpt lat="45.98967" lon="4.91202">
        <ele>299</ele>
        <time>2017-07-10T09:46:34Z</time>
      </trkpt>
      <trkpt lat="45.98963" lon="4.91207">
        <ele>299</ele>
        <time>2017-07-10T09:46:35Z</time>
      </trkpt>
      <trkpt lat="45.98959" lon="4.91212">
        <ele>299</ele>
        <time>2017-07-10T09:46:36Z</time>
      </trkpt>
      <trkpt lat="45.98955" lon="4.91217">
        <ele>299</ele>
        <time>2017-07-10T09:46:37Z</time>
      </trkpt>
      <trkpt lat="45.9895" lon="4.91222">
        <ele>299</ele>
        <time>2017-07-10T09:46:38Z</time>
      </trkpt>
      <trkpt lat="45.98946" lon="4.91227">
        <ele>299</ele>
        <time>2017-07-10T09:46:39Z</time>
      </trkpt>
      <trkpt lat="45.98942" lon="4.91233">
        <ele>299</ele>
        <time>2017-07-10T09:46:40Z</time>
      </trkpt>
      <trkpt lat="45.98937" lon="4.91239">
        <ele>299</ele>
        <time>2017-07-10T09:46:41Z</time>
      </trkpt>
      <trkpt lat="45.98933" lon="4.91244">
        <ele>299</ele>
        <time>2017-07-10T09:46:42Z</time>
      </trkpt>
      <trkpt lat="45.98929" lon="4.91249">
        <ele>299</ele>
        <time>2017-07-10T09:46:43Z</time>
      </trkpt>
      <trkpt lat="45.98925" lon="4.91253">
        <ele>299</ele>
        <time>2017-07-10T09:46:44Z</time>
      </trkpt>
      <trkpt lat="45.98921" lon="4.91258">
        <ele>299</ele>
        <time>2017-07-10T09:46:45Z</time>
      </trkpt>
      <trkpt lat="45.98917" lon="4.91263">
        <ele>299</ele>
        <time>2017-07-10T09:46:46Z</time>
      </trkpt>
      <trkpt lat="45.98913" lon="4.91268">
        <ele>299</ele>
        <time>2017-07-10T09:46:47Z</time>
      </trkpt>
      <trkpt lat="45.9891" lon="4.91273">
        <ele>299</ele>
        <time>2017-07-10T09:46:48Z</time>
      </trkpt>
      <trkpt lat="45.98906" lon="4.91278">
        <ele>299</ele>
        <time>2017-07-10T09:46:49Z</time>
      </trkpt>
      <trkpt lat="45.98902" lon="4.91284">
        <ele>299</ele>
        <time>2017-07-10T09:46:50Z</time>
      </trkpt>
      <trkpt lat="45.98898" lon="4.9129">
        <ele>299</ele>
        <time>2017-07-10T09:46:51Z</time>
      </trkpt>
      <trkpt lat="45.98893" lon="4.91295">
        <ele>299</ele>
        <time>2017-07-10T09:46:52Z</time>
      </trkpt>
      <trkpt lat="45.98889" lon="4.913">
        <ele>299</ele>
        <time>2017-07-10T09:46:53Z</time>
      </trkpt>
      <trkpt lat="45.98885" lon="4.91306">
        <ele>299</ele>
        <time>2017-07-10T09:46:54Z</time>
      </trkpt>
      <trkpt lat="45.98882" lon="4.9131">
        <ele>299</ele>
        <time>2017-07-10T09:46:55Z</time>
      </trkpt>
      <trkpt lat="45.98877" lon="4.91315">
        <ele>299</ele>
        <time>2017-07-10T09:46:56Z</time>
      </trkpt>
      <trkpt lat="45.98873" lon="4.9132">
        <ele>298</ele>
        <time>2017-07-10T09:46:57Z</time>
      </trkpt>
      <trkpt lat="45.98869" lon="4.91325">
        <ele>298</ele>
        <time>2017-07-10T09:46:58Z</time>
      </trkpt>
      <trkpt lat="45.98865" lon="4.9133">
        <ele>298</ele>
        <time>2017-07-10T09:46:59Z</time>
      </trkpt>
      <trkpt lat="45.98861" lon="4.91335">
        <ele>298</ele>
        <time>2017-07-10T09:47:00Z</time>
      </trkpt>
      <trkpt lat="45.98856" lon="4.91341">
        <ele>298</ele>
        <time>2017-07-10T09:47:01Z</time>
      </trkpt>
      <trkpt lat="45.98852" lon="4.91347">
        <ele>298</ele>
        <time>2017-07-10T09:47:02Z</time>
      </trkpt>
      <trkpt lat="45.98847" lon="4.91353">
        <ele>298</ele>
        <time>2017-07-10T09:47:03Z</time>
      </trkpt>
      <trkpt lat="45.98843" lon="4.91358">
        <ele>298</ele>
        <time>2017-07-10T09:47:04Z</time>
      </trkpt>
      <trkpt lat="45.98838" lon="4.91364">
        <ele>298</ele>
        <time>2017-07-10T09:47:05Z</time>
      </trkpt>
      <trkpt lat="45.98834" lon="4.91369">
        <ele>298</ele>
        <time>2017-07-10T09:47:06Z</time>
      </trkpt>
      <trkpt lat="45.9883" lon="4.91374">
        <ele>298</ele>
        <time>2017-07-10T09:47:07Z</time>
      </trkpt>
      <trkpt lat="45.98826" lon="4.91379">
        <ele>298</ele>
        <time>2017-07-10T09:47:08Z</time>
      </trkpt>
      <trkpt lat="45.98822" lon="4.91384">
        <ele>298</ele>
        <time>2017-07-10T09:47:09Z</time>
      </trkpt>
      <trkpt lat="45.98818" lon="4.91389">
        <ele>298</ele>
        <time>2017-07-10T09:47:10Z</time>
      </trkpt>
      <trkpt lat="45.98814" lon="4.91393">
        <ele>299</ele>
        <time>2017-07-10T09:47:11Z</time>
      </trkpt>
      <trkpt lat="45.9881" lon="4.91398">
        <ele>299</ele>
        <time>2017-07-10T09:47:12Z</time>
      </trkpt>
      <trkpt lat="45.98806" lon="4.91403">
        <ele>299</ele>
        <time>2017-07-10T09:47:13Z</time>
      </trkpt>
      <trkpt lat="45.98802" lon="4.91408">
        <ele>299</ele>
        <time>2017-07-10T09:47:14Z</time>
      </trkpt>
      <trkpt lat="45.98798" lon="4.91414">
        <ele>299</ele>
        <time>2017-07-10T09:47:15Z</time>
      </trkpt>
      <trkpt lat="45.98793" lon="4.9142">
        <ele>298</ele>
        <time>2017-07-10T09:47:16Z</time>
      </trkpt>
      <trkpt lat="45.98789" lon="4.91425">
        <ele>298</ele>
        <time>2017-07-10T09:47:17Z</time>
      </trkpt>
      <trkpt lat="45.98784" lon="4.9143">
        <ele>298</ele>
        <time>2017-07-10T09:47:18Z</time>
      </trkpt>
      <trkpt lat="45.9878" lon="4.91435">
        <ele>298</ele>
        <time>2017-07-10T09:47:19Z</time>
      </trkpt>
      <trkpt lat="45.98776" lon="4.9144">
        <ele>298</ele>
        <time>2017-07-10T09:47:20Z</time>
      </trkpt>
      <trkpt lat="45.98771" lon="4.91445">
        <ele>298</ele>
        <time>2017-07-10T09:47:21Z</time>
      </trkpt>
      <trkpt lat="45.98767" lon="4.9145">
        <ele>298</ele>
        <time>2017-07-10T09:47:22Z</time>
      </trkpt>
      <trkpt lat="45.98764" lon="4.91455">
        <ele>298</ele>
        <time>2017-07-10T09:47:23Z</time>
      </trkpt>
      <trkpt lat="45.9876" lon="4.91459">
        <ele>298</ele>
        <time>2017-07-10T09:47:24Z</time>
      </trkpt>
      <trkpt lat="45.98756" lon="4.91463">
        <ele>298</ele>
        <time>2017-07-10T09:47:25Z</time>
      </trkpt>
      <trkpt lat="45.98752" lon="4.91467">
        <ele>298</ele>
        <time>2017-07-10T09:47:26Z</time>
      </trkpt>
      <trkpt lat="45.98749" lon="4.91472">
        <ele>299</ele>
        <time>2017-07-10T09:47:27Z</time>
      </trkpt>
      <trkpt lat="45.98745" lon="4.91477">
        <ele>299</ele>
        <time>2017-07-10T09:47:28Z</time>
      </trkpt>
      <trkpt lat="45.98741" lon="4.91481">
        <ele>299</ele>
        <time>2017-07-10T09:47:29Z</time>
      </trkpt>
      <trkpt lat="45.98736" lon="4.91487">
        <ele>299</ele>
        <time>2017-07-10T09:47:30Z</time>
      </trkpt>
      <trkpt lat="45.98732" lon="4.91492">
        <ele>299</ele>
        <time>2017-07-10T09:47:31Z</time>
      </trkpt>
      <trkpt lat="45.98729" lon="4.91496">
        <ele>299</ele>
        <time>2017-07-10T09:47:32Z</time>
      </trkpt>
      <trkpt lat="45.98725" lon="4.91501">
        <ele>299</ele>
        <time>2017-07-10T09:47:33Z</time>
      </trkpt>
      <trkpt lat="45.98722" lon="4.91505">
        <ele>299</ele>
        <time>2017-07-10T09:47:34Z</time>
      </trkpt>
      <trkpt lat="45.98719" lon="4.9151">
        <ele>299</ele>
        <time>2017-07-10T09:47:35Z</time>
      </trkpt>
      <trkpt lat="45.98713" lon="4.91517">
        <ele>299</ele>
        <time>2017-07-10T09:47:37Z</time>
      </trkpt>
      <trkpt lat="45.98709" lon="4.91522">
        <ele>299</ele>
        <time>2017-07-10T09:47:38Z</time>
      </trkpt>
      <trkpt lat="45.98705" lon="4.91526">
        <ele>299</ele>
        <time>2017-07-10T09:47:39Z</time>
      </trkpt>
      <trkpt lat="45.98701" lon="4.91531">
        <ele>299</ele>
        <time>2017-07-10T09:47:40Z</time>
      </trkpt>
      <trkpt lat="45.98696" lon="4.91536">
        <ele>299</ele>
        <time>2017-07-10T09:47:41Z</time>
      </trkpt>
      <trkpt lat="45.98692" lon="4.91542">
        <ele>299</ele>
        <time>2017-07-10T09:47:42Z</time>
      </trkpt>
      <trkpt lat="45.98687" lon="4.91548">
        <ele>299</ele>
        <time>2017-07-10T09:47:43Z</time>
      </trkpt>
      <trkpt lat="45.98682" lon="4.91554">
        <ele>299</ele>
        <time>2017-07-10T09:47:44Z</time>
      </trkpt>
      <trkpt lat="45.98678" lon="4.91559">
        <ele>299</ele>
        <time>2017-07-10T09:47:45Z</time>
      </trkpt>
      <trkpt lat="45.98673" lon="4.91564">
        <ele>299</ele>
        <time>2017-07-10T09:47:46Z</time>
      </trkpt>
      <trkpt lat="45.98669" lon="4.91569">
        <ele>299</ele>
        <time>2017-07-10T09:47:47Z</time>
      </trkpt>
      <trkpt lat="45.98665" lon="4.91574">
        <ele>299</ele>
        <time>2017-07-10T09:47:48Z</time>
      </trkpt>
      <trkpt lat="45.98661" lon="4.9158">
        <ele>299</ele>
        <time>2017-07-10T09:47:49Z</time>
      </trkpt>
      <trkpt lat="45.98656" lon="4.91586">
        <ele>299</ele>
        <time>2017-07-10T09:47:50Z</time>
      </trkpt>
      <trkpt lat="45.98652" lon="4.91592">
        <ele>299</ele>
        <time>2017-07-10T09:47:51Z</time>
      </trkpt>
      <trkpt lat="45.98647" lon="4.91598">
        <ele>299</ele>
        <time>2017-07-10T09:47:52Z</time>
      </trkpt>
      <trkpt lat="45.98643" lon="4.91604">
        <ele>298</ele>
        <time>2017-07-10T09:47:53Z</time>
      </trkpt>
      <trkpt lat="45.98638" lon="4.91609">
        <ele>298</ele>
        <time>2017-07-10T09:47:54Z</time>
      </trkpt>
      <trkpt lat="45.98634" lon="4.91614">
        <ele>298</ele>
        <time>2017-07-10T09:47:55Z</time>
      </trkpt>
      <trkpt lat="45.98628" lon="4.91619">
        <ele>298</ele>
        <time>2017-07-10T09:47:56Z</time>
      </trkpt>
      <trkpt lat="45.98624" lon="4.91625">
        <ele>298</ele>
        <time>2017-07-10T09:47:57Z</time>
      </trkpt>
      <trkpt lat="45.98619" lon="4.91631">
        <ele>298</ele>
        <time>2017-07-10T09:47:58Z</time>
      </trkpt>
      <trkpt lat="45.98613" lon="4.91638">
        <ele>298</ele>
        <time>2017-07-10T09:47:59Z</time>
      </trkpt>
      <trkpt lat="45.98608" lon="4.91644">
        <ele>298</ele>
        <time>2017-07-10T09:48:00Z</time>
      </trkpt>
      <trkpt lat="45.98602" lon="4.91651">
        <ele>298</ele>
        <time>2017-07-10T09:48:01Z</time>
      </trkpt>
      <trkpt lat="45.98597" lon="4.91657">
        <ele>298</ele>
        <time>2017-07-10T09:48:02Z</time>
      </trkpt>
      <trkpt lat="45.98592" lon="4.91663">
        <ele>298</ele>
        <time>2017-07-10T09:48:03Z</time>
      </trkpt>
      <trkpt lat="45.98586" lon="4.91671">
        <ele>298</ele>
        <time>2017-07-10T09:48:04Z</time>
      </trkpt>
      <trkpt lat="45.98581" lon="4.91677">
        <ele>298</ele>
        <time>2017-07-10T09:48:05Z</time>
      </trkpt>
      <trkpt lat="45.98577" lon="4.91682">
        <ele>298</ele>
        <time>2017-07-10T09:48:06Z</time>
      </trkpt>
      <trkpt lat="45.98572" lon="4.91688">
        <ele>298</ele>
        <time>2017-07-10T09:48:07Z</time>
      </trkpt>
      <trkpt lat="45.98568" lon="4.91693">
        <ele>298</ele>
        <time>2017-07-10T09:48:08Z</time>
      </trkpt>
      <trkpt lat="45.98563" lon="4.91698">
        <ele>298</ele>
        <time>2017-07-10T09:48:09Z</time>
      </trkpt>
      <trkpt lat="45.98559" lon="4.91703">
        <ele>298</ele>
        <time>2017-07-10T09:48:10Z</time>
      </trkpt>
      <trkpt lat="45.98555" lon="4.91709">
        <ele>298</ele>
        <time>2017-07-10T09:48:11Z</time>
      </trkpt>
      <trkpt lat="45.9855" lon="4.91714">
        <ele>298</ele>
        <time>2017-07-10T09:48:12Z</time>
      </trkpt>
      <trkpt lat="45.98546" lon="4.91719">
        <ele>298</ele>
        <time>2017-07-10T09:48:13Z</time>
      </trkpt>
      <trkpt lat="45.98543" lon="4.91724">
        <ele>298</ele>
        <time>2017-07-10T09:48:14Z</time>
      </trkpt>
      <trkpt lat="45.98539" lon="4.91729">
        <ele>297</ele>
        <time>2017-07-10T09:48:15Z</time>
      </trkpt>
      <trkpt lat="45.98535" lon="4.91733">
        <ele>297</ele>
        <time>2017-07-10T09:48:16Z</time>
      </trkpt>
      <trkpt lat="45.9853" lon="4.91738">
        <ele>297</ele>
        <time>2017-07-10T09:48:17Z</time>
      </trkpt>
      <trkpt lat="45.98526" lon="4.91743">
        <ele>297</ele>
        <time>2017-07-10T09:48:18Z</time>
      </trkpt>
      <trkpt lat="45.98521" lon="4.91749">
        <ele>297</ele>
        <time>2017-07-10T09:48:19Z</time>
      </trkpt>
      <trkpt lat="45.98517" lon="4.91755">
        <ele>297</ele>
        <time>2017-07-10T09:48:20Z</time>
      </trkpt>
      <trkpt lat="45.98512" lon="4.9176">
        <ele>297</ele>
        <time>2017-07-10T09:48:21Z</time>
      </trkpt>
      <trkpt lat="45.98507" lon="4.91766">
        <ele>297</ele>
        <time>2017-07-10T09:48:22Z</time>
      </trkpt>
      <trkpt lat="45.98502" lon="4.91771">
        <ele>297</ele>
        <time>2017-07-10T09:48:23Z</time>
      </trkpt>
      <trkpt lat="45.98498" lon="4.91776">
        <ele>297</ele>
        <time>2017-07-10T09:48:24Z</time>
      </trkpt>
      <trkpt lat="45.98494" lon="4.91781">
        <ele>297</ele>
        <time>2017-07-10T09:48:25Z</time>
      </trkpt>
      <trkpt lat="45.98489" lon="4.91787">
        <ele>297</ele>
        <time>2017-07-10T09:48:26Z</time>
      </trkpt>
      <trkpt lat="45.98485" lon="4.91792">
        <ele>297</ele>
        <time>2017-07-10T09:48:27Z</time>
      </trkpt>
      <trkpt lat="45.98481" lon="4.91797">
        <ele>297</ele>
        <time>2017-07-10T09:48:28Z</time>
      </trkpt>
      <trkpt lat="45.98477" lon="4.91803">
        <ele>297</ele>
        <time>2017-07-10T09:48:29Z</time>
      </trkpt>
      <trkpt lat="45.98472" lon="4.91808">
        <ele>297</ele>
        <time>2017-07-10T09:48:30Z</time>
      </trkpt>
      <trkpt lat="45.98468" lon="4.91813">
        <ele>297</ele>
        <time>2017-07-10T09:48:31Z</time>
      </trkpt>
      <trkpt lat="45.98464" lon="4.91819">
        <ele>297</ele>
        <time>2017-07-10T09:48:32Z</time>
      </trkpt>
      <trkpt lat="45.9846" lon="4.91824">
        <ele>297</ele>
        <time>2017-07-10T09:48:33Z</time>
      </trkpt>
      <trkpt lat="45.98456" lon="4.91829">
        <ele>297</ele>
        <time>2017-07-10T09:48:34Z</time>
      </trkpt>
      <trkpt lat="45.98451" lon="4.91834">
        <ele>297</ele>
        <time>2017-07-10T09:48:35Z</time>
      </trkpt>
      <trkpt lat="45.98447" lon="4.91839">
        <ele>297</ele>
        <time>2017-07-10T09:48:36Z</time>
      </trkpt>
      <trkpt lat="45.98442" lon="4.91845">
        <ele>297</ele>
        <time>2017-07-10T09:48:37Z</time>
      </trkpt>
      <trkpt lat="45.98438" lon="4.9185">
        <ele>297</ele>
        <time>2017-07-10T09:48:38Z</time>
      </trkpt>
      <trkpt lat="45.98434" lon="4.91856">
        <ele>297</ele>
        <time>2017-07-10T09:48:39Z</time>
      </trkpt>
      <trkpt lat="45.98429" lon="4.91862">
        <ele>297</ele>
        <time>2017-07-10T09:48:40Z</time>
      </trkpt>
      <trkpt lat="45.98424" lon="4.91868">
        <ele>297</ele>
        <time>2017-07-10T09:48:41Z</time>
      </trkpt>
      <trkpt lat="45.9842" lon="4.91873">
        <ele>297</ele>
        <time>2017-07-10T09:48:42Z</time>
      </trkpt>
      <trkpt lat="45.98415" lon="4.91879">
        <ele>297</ele>
        <time>2017-07-10T09:48:43Z</time>
      </trkpt>
      <trkpt lat="45.9841" lon="4.91884">
        <ele>297</ele>
        <time>2017-07-10T09:48:44Z</time>
      </trkpt>
      <trkpt lat="45.98406" lon="4.91889">
        <ele>297</ele>
        <time>2017-07-10T09:48:45Z</time>
      </trkpt>
      <trkpt lat="45.98402" lon="4.91895">
        <ele>297</ele>
        <time>2017-07-10T09:48:46Z</time>
      </trkpt>
      <trkpt lat="45.98397" lon="4.919">
        <ele>297</ele>
        <time>2017-07-10T09:48:47Z</time>
      </trkpt>
      <trkpt lat="45.98393" lon="4.91904">
        <ele>297</ele>
        <time>2017-07-10T09:48:48Z</time>
      </trkpt>
      <trkpt lat="45.98389" lon="4.91909">
        <ele>298</ele>
        <time>2017-07-10T09:48:49Z</time>
      </trkpt>
      <trkpt lat="45.98385" lon="4.91914">
        <ele>298</ele>
        <time>2017-07-10T09:48:50Z</time>
      </trkpt>
      <trkpt lat="45.98381" lon="4.91918">
        <ele>297</ele>
        <time>2017-07-10T09:48:51Z</time>
      </trkpt>
      <trkpt lat="45.98378" lon="4.91923">
        <ele>297</ele>
        <time>2017-07-10T09:48:52Z</time>
      </trkpt>
      <trkpt lat="45.98374" lon="4.91927">
        <ele>298</ele>
        <time>2017-07-10T09:48:53Z</time>
      </trkpt>
      <trkpt lat="45.9837" lon="4.91931">
        <ele>298</ele>
        <time>2017-07-10T09:48:54Z</time>
      </trkpt>
      <trkpt lat="45.98366" lon="4.91935">
        <ele>298</ele>
        <time>2017-07-10T09:48:55Z</time>
      </trkpt>
      <trkpt lat="45.98362" lon="4.9194">
        <ele>298</ele>
        <time>2017-07-10T09:48:56Z</time>
      </trkpt>
      <trkpt lat="45.98358" lon="4.91946">
        <ele>298</ele>
        <time>2017-07-10T09:48:57Z</time>
      </trkpt>
      <trkpt lat="45.98354" lon="4.91952">
        <ele>298</ele>
        <time>2017-07-10T09:48:58Z</time>
      </trkpt>
      <trkpt lat="45.9835" lon="4.91957">
        <ele>298</ele>
        <time>2017-07-10T09:48:59Z</time>
      </trkpt>
      <trkpt lat="45.98345" lon="4.91963">
        <ele>297</ele>
        <time>2017-07-10T09:49:00Z</time>
      </trkpt>
      <trkpt lat="45.9834" lon="4.91968">
        <ele>297</ele>
        <time>2017-07-10T09:49:01Z</time>
      </trkpt>
      <trkpt lat="45.98336" lon="4.91973">
        <ele>297</ele>
        <time>2017-07-10T09:49:02Z</time>
      </trkpt>
      <trkpt lat="45.98332" lon="4.91978">
        <ele>298</ele>
        <time>2017-07-10T09:49:03Z</time>
      </trkpt>
      <trkpt lat="45.98328" lon="4.91983">
        <ele>298</ele>
        <time>2017-07-10T09:49:04Z</time>
      </trkpt>
      <trkpt lat="45.98324" lon="4.91988">
        <ele>298</ele>
        <time>2017-07-10T09:49:05Z</time>
      </trkpt>
      <trkpt lat="45.98319" lon="4.91993">
        <ele>298</ele>
        <time>2017-07-10T09:49:06Z</time>
      </trkpt>
      <trkpt lat="45.98316" lon="4.91998">
        <ele>298</ele>
        <time>2017-07-10T09:49:07Z</time>
      </trkpt>
      <trkpt lat="45.98312" lon="4.92002">
        <ele>298</ele>
        <time>2017-07-10T09:49:08Z</time>
      </trkpt>
      <trkpt lat="45.98308" lon="4.92007">
        <ele>298</ele>
        <time>2017-07-10T09:49:09Z</time>
      </trkpt>
      <trkpt lat="45.98305" lon="4.92011">
        <ele>298</ele>
        <time>2017-07-10T09:49:10Z</time>
      </trkpt>
      <trkpt lat="45.98299" lon="4.9202">
        <ele>298</ele>
        <time>2017-07-10T09:49:12Z</time>
      </trkpt>
      <trkpt lat="45.98295" lon="4.92024">
        <ele>298</ele>
        <time>2017-07-10T09:49:13Z</time>
      </trkpt>
      <trkpt lat="45.98292" lon="4.92029">
        <ele>298</ele>
        <time>2017-07-10T09:49:14Z</time>
      </trkpt>
      <trkpt lat="45.98287" lon="4.92034">
        <ele>298</ele>
        <time>2017-07-10T09:49:15Z</time>
      </trkpt>
      <trkpt lat="45.98284" lon="4.92039">
        <ele>298</ele>
        <time>2017-07-10T09:49:16Z</time>
      </trkpt>
      <trkpt lat="45.9828" lon="4.92043">
        <ele>298</ele>
        <time>2017-07-10T09:49:17Z</time>
      </trkpt>
      <trkpt lat="45.98274" lon="4.92051">
        <ele>298</ele>
        <time>2017-07-10T09:49:19Z</time>
      </trkpt>
      <trkpt lat="45.9827" lon="4.92055">
        <ele>298</ele>
        <time>2017-07-10T09:49:20Z</time>
      </trkpt>
      <trkpt lat="45.98266" lon="4.9206">
        <ele>298</ele>
        <time>2017-07-10T09:49:21Z</time>
      </trkpt>
      <trkpt lat="45.98262" lon="4.92065">
        <ele>298</ele>
        <time>2017-07-10T09:49:22Z</time>
      </trkpt>
      <trkpt lat="45.98257" lon="4.9207">
        <ele>299</ele>
        <time>2017-07-10T09:49:23Z</time>
      </trkpt>
      <trkpt lat="45.98253" lon="4.92075">
        <ele>299</ele>
        <time>2017-07-10T09:49:24Z</time>
      </trkpt>
      <trkpt lat="45.98249" lon="4.92079">
        <ele>299</ele>
        <time>2017-07-10T09:49:25Z</time>
      </trkpt>
      <trkpt lat="45.98245" lon="4.92083">
        <ele>299</ele>
        <time>2017-07-10T09:49:26Z</time>
      </trkpt>
      <trkpt lat="45.98241" lon="4.92087">
        <ele>299</ele>
        <time>2017-07-10T09:49:27Z</time>
      </trkpt>
      <trkpt lat="45.98237" lon="4.92091">
        <ele>299</ele>
        <time>2017-07-10T09:49:28Z</time>
      </trkpt>
      <trkpt lat="45.98232" lon="4.92095">
        <ele>299</ele>
        <time>2017-07-10T09:49:29Z</time>
      </trkpt>
      <trkpt lat="45.98228" lon="4.92099">
        <ele>299</ele>
        <time>2017-07-10T09:49:30Z</time>
      </trkpt>
      <trkpt lat="45.98224" lon="4.92103">
        <ele>299</ele>
        <time>2017-07-10T09:49:31Z</time>
      </trkpt>
      <trkpt lat="45.98217" lon="4.92109">
        <ele>299</ele>
        <time>2017-07-10T09:49:32Z</time>
      </trkpt>
      <trkpt lat="45.98213" lon="4.92114">
        <ele>299</ele>
        <time>2017-07-10T09:49:33Z</time>
      </trkpt>
      <trkpt lat="45.98209" lon="4.92119">
        <ele>299</ele>
        <time>2017-07-10T09:49:34Z</time>
      </trkpt>
      <trkpt lat="45.98205" lon="4.92124">
        <ele>299</ele>
        <time>2017-07-10T09:49:35Z</time>
      </trkpt>
      <trkpt lat="45.98201" lon="4.92129">
        <ele>299</ele>
        <time>2017-07-10T09:49:36Z</time>
      </trkpt>
      <trkpt lat="45.98197" lon="4.92133">
        <ele>299</ele>
        <time>2017-07-10T09:49:37Z</time>
      </trkpt>
      <trkpt lat="45.98193" lon="4.92137">
        <ele>299</ele>
        <time>2017-07-10T09:49:38Z</time>
      </trkpt>
      <trkpt lat="45.98187" lon="4.92146">
        <ele>299</ele>
        <time>2017-07-10T09:49:40Z</time>
      </trkpt>
      <trkpt lat="45.98184" lon="4.9215">
        <ele>299</ele>
        <time>2017-07-10T09:49:41Z</time>
      </trkpt>
      <trkpt lat="45.9818" lon="4.92155">
        <ele>299</ele>
        <time>2017-07-10T09:49:42Z</time>
      </trkpt>
      <trkpt lat="45.98176" lon="4.9216">
        <ele>299</ele>
        <time>2017-07-10T09:49:43Z</time>
      </trkpt>
      <trkpt lat="45.98172" lon="4.92164">
        <ele>299</ele>
        <time>2017-07-10T09:49:44Z</time>
      </trkpt>
      <trkpt lat="45.98168" lon="4.92169">
        <ele>299</ele>
        <time>2017-07-10T09:49:45Z</time>
      </trkpt>
      <trkpt lat="45.98163" lon="4.92174">
        <ele>299</ele>
        <time>2017-07-10T09:49:46Z</time>
      </trkpt>
      <trkpt lat="45.98159" lon="4.9218">
        <ele>299</ele>
        <time>2017-07-10T09:49:47Z</time>
      </trkpt>
      <trkpt lat="45.98154" lon="4.92185">
        <ele>299</ele>
        <time>2017-07-10T09:49:48Z</time>
      </trkpt>
      <trkpt lat="45.98149" lon="4.92191">
        <ele>299</ele>
        <time>2017-07-10T09:49:49Z</time>
      </trkpt>
      <trkpt lat="45.98145" lon="4.92196">
        <ele>299</ele>
        <time>2017-07-10T09:49:50Z</time>
      </trkpt>
      <trkpt lat="45.98141" lon="4.92201">
        <ele>299</ele>
        <time>2017-07-10T09:49:51Z</time>
      </trkpt>
      <trkpt lat="45.98137" lon="4.92206">
        <ele>299</ele>
        <time>2017-07-10T09:49:52Z</time>
      </trkpt>
      <trkpt lat="45.98134" lon="4.92211">
        <ele>299</ele>
        <time>2017-07-10T09:49:53Z</time>
      </trkpt>
      <trkpt lat="45.9813" lon="4.92215">
        <ele>299</ele>
        <time>2017-07-10T09:49:54Z</time>
      </trkpt>
      <trkpt lat="45.98127" lon="4.9222">
        <ele>299</ele>
        <time>2017-07-10T09:49:55Z</time>
      </trkpt>
      <trkpt lat="45.98123" lon="4.92225">
        <ele>299</ele>
        <time>2017-07-10T09:49:56Z</time>
      </trkpt>
      <trkpt lat="45.98119" lon="4.9223">
        <ele>299</ele>
        <time>2017-07-10T09:49:57Z</time>
      </trkpt>
      <trkpt lat="45.98115" lon="4.92235">
        <ele>299</ele>
        <time>2017-07-10T09:49:58Z</time>
      </trkpt>
      <trkpt lat="45.98111" lon="4.9224">
        <ele>299</ele>
        <time>2017-07-10T09:49:59Z</time>
      </trkpt>
      <trkpt lat="45.98107" lon="4.92245">
        <ele>299</ele>
        <time>2017-07-10T09:50:00Z</time>
      </trkpt>
      <trkpt lat="45.98104" lon="4.9225">
        <ele>299</ele>
        <time>2017-07-10T09:50:01Z</time>
      </trkpt>
      <trkpt lat="45.981" lon="4.92255">
        <ele>300</ele>
        <time>2017-07-10T09:50:02Z</time>
      </trkpt>
      <trkpt lat="45.98097" lon="4.9226">
        <ele>300</ele>
        <time>2017-07-10T09:50:03Z</time>
      </trkpt>
      <trkpt lat="45.98093" lon="4.92264">
        <ele>300</ele>
        <time>2017-07-10T09:50:04Z</time>
      </trkpt>
      <trkpt lat="45.98089" lon="4.92269">
        <ele>300</ele>
        <time>2017-07-10T09:50:05Z</time>
      </trkpt>
      <trkpt lat="45.98085" lon="4.92274">
        <ele>300</ele>
        <time>2017-07-10T09:50:06Z</time>
      </trkpt>
      <trkpt lat="45.98081" lon="4.92279">
        <ele>299</ele>
        <time>2017-07-10T09:50:07Z</time>
      </trkpt>
      <trkpt lat="45.98077" lon="4.92285">
        <ele>299</ele>
        <time>2017-07-10T09:50:08Z</time>
      </trkpt>
      <trkpt lat="45.98073" lon="4.9229">
        <ele>299</ele>
        <time>2017-07-10T09:50:09Z</time>
      </trkpt>
      <trkpt lat="45.98069" lon="4.92294">
        <ele>299</ele>
        <time>2017-07-10T09:50:10Z</time>
      </trkpt>
      <trkpt lat="45.98065" lon="4.92299">
        <ele>299</ele>
        <time>2017-07-10T09:50:11Z</time>
      </trkpt>
      <trkpt lat="45.98061" lon="4.92303">
        <ele>299</ele>
        <time>2017-07-10T09:50:12Z</time>
      </trkpt>
      <trkpt lat="45.98057" lon="4.92308">
        <ele>299</ele>
        <time>2017-07-10T09:50:13Z</time>
      </trkpt>
      <trkpt lat="45.98054" lon="4.92312">
        <ele>299</ele>
        <time>2017-07-10T09:50:14Z</time>
      </trkpt>
      <trkpt lat="45.9805" lon="4.92316">
        <ele>299</ele>
        <time>2017-07-10T09:50:15Z</time>
      </trkpt>
      <trkpt lat="45.98046" lon="4.92321">
        <ele>299</ele>
        <time>2017-07-10T09:50:16Z</time>
      </trkpt>
      <trkpt lat="45.98042" lon="4.92326">
        <ele>299</ele>
        <time>2017-07-10T09:50:17Z</time>
      </trkpt>
      <trkpt lat="45.98038" lon="4.92331">
        <ele>299</ele>
        <time>2017-07-10T09:50:18Z</time>
      </trkpt>
      <trkpt lat="45.98034" lon="4.92337">
        <ele>299</ele>
        <time>2017-07-10T09:50:19Z</time>
      </trkpt>
      <trkpt lat="45.9803" lon="4.92342">
        <ele>299</ele>
        <time>2017-07-10T09:50:20Z</time>
      </trkpt>
      <trkpt lat="45.98026" lon="4.92347">
        <ele>298</ele>
        <time>2017-07-10T09:50:21Z</time>
      </trkpt>
      <trkpt lat="45.98023" lon="4.92352">
        <ele>298</ele>
        <time>2017-07-10T09:50:22Z</time>
      </trkpt>
      <trkpt lat="45.98019" lon="4.92357">
        <ele>298</ele>
        <time>2017-07-10T09:50:23Z</time>
      </trkpt>
      <trkpt lat="45.98016" lon="4.92362">
        <ele>298</ele>
        <time>2017-07-10T09:50:24Z</time>
      </trkpt>
      <trkpt lat="45.98012" lon="4.92366">
        <ele>298</ele>
        <time>2017-07-10T09:50:25Z</time>
      </trkpt>
      <trkpt lat="45.98008" lon="4.92371">
        <ele>298</ele>
        <time>2017-07-10T09:50:26Z</time>
      </trkpt>
      <trkpt lat="45.98005" lon="4.92375">
        <ele>298</ele>
        <time>2017-07-10T09:50:27Z</time>
      </trkpt>
      <trkpt lat="45.98001" lon="4.9238">
        <ele>298</ele>
        <time>2017-07-10T09:50:28Z</time>
      </trkpt>
      <trkpt lat="45.97997" lon="4.92385">
        <ele>298</ele>
        <time>2017-07-10T09:50:29Z</time>
      </trkpt>
      <trkpt lat="45.97993" lon="4.9239">
        <ele>298</ele>
        <time>2017-07-10T09:50:30Z</time>
      </trkpt>
      <trkpt lat="45.97989" lon="4.92395">
        <ele>298</ele>
        <time>2017-07-10T09:50:31Z</time>
      </trkpt>
      <trkpt lat="45.97985" lon="4.924">
        <ele>298</ele>
        <time>2017-07-10T09:50:32Z</time>
      </trkpt>
      <trkpt lat="45.97981" lon="4.92404">
        <ele>298</ele>
        <time>2017-07-10T09:50:33Z</time>
      </trkpt>
      <trkpt lat="45.97977" lon="4.9241">
        <ele>298</ele>
        <time>2017-07-10T09:50:34Z</time>
      </trkpt>
      <trkpt lat="45.97973" lon="4.92414">
        <ele>298</ele>
        <time>2017-07-10T09:50:35Z</time>
      </trkpt>
      <trkpt lat="45.97969" lon="4.92419">
        <ele>298</ele>
        <time>2017-07-10T09:50:36Z</time>
      </trkpt>
      <trkpt lat="45.97965" lon="4.92424">
        <ele>298</ele>
        <time>2017-07-10T09:50:37Z</time>
      </trkpt>
      <trkpt lat="45.97961" lon="4.92428">
        <ele>298</ele>
        <time>2017-07-10T09:50:38Z</time>
      </trkpt>
      <trkpt lat="45.97957" lon="4.92433">
        <ele>299</ele>
        <time>2017-07-10T09:50:39Z</time>
      </trkpt>
      <trkpt lat="45.97952" lon="4.92439">
        <ele>299</ele>
        <time>2017-07-10T09:50:40Z</time>
      </trkpt>
      <trkpt lat="45.97948" lon="4.92444">
        <ele>299</ele>
        <time>2017-07-10T09:50:41Z</time>
      </trkpt>
      <trkpt lat="45.97944" lon="4.92449">
        <ele>299</ele>
        <time>2017-07-10T09:50:42Z</time>
      </trkpt>
      <trkpt lat="45.97939" lon="4.92454">
        <ele>299</ele>
        <time>2017-07-10T09:50:43Z</time>
      </trkpt>
      <trkpt lat="45.97935" lon="4.92459">
        <ele>299</ele>
        <time>2017-07-10T09:50:44Z</time>
      </trkpt>
      <trkpt lat="45.9793" lon="4.92465">
        <ele>299</ele>
        <time>2017-07-10T09:50:45Z</time>
      </trkpt>
      <trkpt lat="45.97926" lon="4.9247">
        <ele>299</ele>
        <time>2017-07-10T09:50:46Z</time>
      </trkpt>
      <trkpt lat="45.97921" lon="4.92476">
        <ele>299</ele>
        <time>2017-07-10T09:50:47Z</time>
      </trkpt>
      <trkpt lat="45.97916" lon="4.92482">
        <ele>299</ele>
        <time>2017-07-10T09:50:48Z</time>
      </trkpt>
      <trkpt lat="45.97912" lon="4.92487">
        <ele>299</ele>
        <time>2017-07-10T09:50:49Z</time>
      </trkpt>
      <trkpt lat="45.97907" lon="4.92492">
        <ele>299</ele>
        <time>2017-07-10T09:50:50Z</time>
      </trkpt>
      <trkpt lat="45.97902" lon="4.92497">
        <ele>299</ele>
        <time>2017-07-10T09:50:51Z</time>
      </trkpt>
      <trkpt lat="45.97898" lon="4.92502">
        <ele>299</ele>
        <time>2017-07-10T09:50:52Z</time>
      </trkpt>
      <trkpt lat="45.97894" lon="4.92507">
        <ele>299</ele>
        <time>2017-07-10T09:50:53Z</time>
      </trkpt>
      <trkpt lat="45.97891" lon="4.92512">
        <ele>300</ele>
        <time>2017-07-10T09:50:54Z</time>
      </trkpt>
      <trkpt lat="45.97887" lon="4.92516">
        <ele>300</ele>
        <time>2017-07-10T09:50:55Z</time>
      </trkpt>
      <trkpt lat="45.97883" lon="4.92521">
        <ele>300</ele>
        <time>2017-07-10T09:50:56Z</time>
      </trkpt>
      <trkpt lat="45.97879" lon="4.92527">
        <ele>300</ele>
        <time>2017-07-10T09:50:57Z</time>
      </trkpt>
      <trkpt lat="45.97875" lon="4.92532">
        <ele>300</ele>
        <time>2017-07-10T09:50:58Z</time>
      </trkpt>
      <trkpt lat="45.9787" lon="4.92537">
        <ele>300</ele>
        <time>2017-07-10T09:50:59Z</time>
      </trkpt>
      <trkpt lat="45.97866" lon="4.92543">
        <ele>300</ele>
        <time>2017-07-10T09:51:00Z</time>
      </trkpt>
      <trkpt lat="45.97862" lon="4.92548">
        <ele>300</ele>
        <time>2017-07-10T09:51:01Z</time>
      </trkpt>
      <trkpt lat="45.97858" lon="4.92553">
        <ele>300</ele>
        <time>2017-07-10T09:51:02Z</time>
      </trkpt>
      <trkpt lat="45.97854" lon="4.92557">
        <ele>300</ele>
        <time>2017-07-10T09:51:03Z</time>
      </trkpt>
      <trkpt lat="45.9785" lon="4.92562">
        <ele>300</ele>
        <time>2017-07-10T09:51:04Z</time>
      </trkpt>
      <trkpt lat="45.97846" lon="4.92567">
        <ele>300</ele>
        <time>2017-07-10T09:51:05Z</time>
      </trkpt>
      <trkpt lat="45.97842" lon="4.92572">
        <ele>300</ele>
        <time>2017-07-10T09:51:06Z</time>
      </trkpt>
      <trkpt lat="45.97838" lon="4.92578">
        <ele>300</ele>
        <time>2017-07-10T09:51:07Z</time>
      </trkpt>
      <trkpt lat="45.97833" lon="4.92583">
        <ele>300</ele>
        <time>2017-07-10T09:51:08Z</time>
      </trkpt>
      <trkpt lat="45.97829" lon="4.92588">
        <ele>300</ele>
        <time>2017-07-10T09:51:09Z</time>
      </trkpt>
      <trkpt lat="45.97824" lon="4.92594">
        <ele>300</ele>
        <time>2017-07-10T09:51:10Z</time>
      </trkpt>
      <trkpt lat="45.9782" lon="4.92599">
        <ele>300</ele>
        <time>2017-07-10T09:51:11Z</time>
      </trkpt>
      <trkpt lat="45.97816" lon="4.92604">
        <ele>300</ele>
        <time>2017-07-10T09:51:12Z</time>
      </trkpt>
      <trkpt lat="45.97811" lon="4.9261">
        <ele>300</ele>
        <time>2017-07-10T09:51:13Z</time>
      </trkpt>
      <trkpt lat="45.97807" lon="4.92615">
        <ele>300</ele>
        <time>2017-07-10T09:51:14Z</time>
      </trkpt>
      <trkpt lat="45.97803" lon="4.9262">
        <ele>300</ele>
        <time>2017-07-10T09:51:15Z</time>
      </trkpt>
      <trkpt lat="45.97799" lon="4.92624">
        <ele>300</ele>
        <time>2017-07-10T09:51:16Z</time>
      </trkpt>
      <trkpt lat="45.97795" lon="4.92629">
        <ele>301</ele>
        <time>2017-07-10T09:51:17Z</time>
      </trkpt>
      <trkpt lat="45.97791" lon="4.92634">
        <ele>300</ele>
        <time>2017-07-10T09:51:18Z</time>
      </trkpt>
      <trkpt lat="45.97787" lon="4.92639">
        <ele>300</ele>
        <time>2017-07-10T09:51:19Z</time>
      </trkpt>
      <trkpt lat="45.97784" lon="4.92643">
        <ele>300</ele>
        <time>2017-07-10T09:51:20Z</time>
      </trkpt>
      <trkpt lat="45.9778" lon="4.92648">
        <ele>300</ele>
        <time>2017-07-10T09:51:21Z</time>
      </trkpt>
      <trkpt lat="45.97776" lon="4.92653">
        <ele>300</ele>
        <time>2017-07-10T09:51:22Z</time>
      </trkpt>
      <trkpt lat="45.97772" lon="4.92658">
        <ele>300</ele>
        <time>2017-07-10T09:51:23Z</time>
      </trkpt>
      <trkpt lat="45.97768" lon="4.92664">
        <ele>300</ele>
        <time>2017-07-10T09:51:24Z</time>
      </trkpt>
      <trkpt lat="45.97764" lon="4.92669">
        <ele>300</ele>
        <time>2017-07-10T09:51:25Z</time>
      </trkpt>
      <trkpt lat="45.97759" lon="4.92675">
        <ele>300</ele>
        <time>2017-07-10T09:51:26Z</time>
      </trkpt>
      <trkpt lat="45.97755" lon="4.9268">
        <ele>300</ele>
        <time>2017-07-10T09:51:27Z</time>
      </trkpt>
      <trkpt lat="45.97751" lon="4.92686">
        <ele>300</ele>
        <time>2017-07-10T09:51:28Z</time>
      </trkpt>
      <trkpt lat="45.97747" lon="4.92691">
        <ele>301</ele>
        <time>2017-07-10T09:51:29Z</time>
      </trkpt>
      <trkpt lat="45.97743" lon="4.92695">
        <ele>301</ele>
        <time>2017-07-10T09:51:30Z</time>
      </trkpt>
      <trkpt lat="45.97739" lon="4.927">
        <ele>301</ele>
        <time>2017-07-10T09:51:31Z</time>
      </trkpt>
      <trkpt lat="45.97735" lon="4.92704">
        <ele>301</ele>
        <time>2017-07-10T09:51:32Z</time>
      </trkpt>
      <trkpt lat="45.97731" lon="4.92709">
        <ele>301</ele>
        <time>2017-07-10T09:51:33Z</time>
      </trkpt>
      <trkpt lat="45.97727" lon="4.92713">
        <ele>301</ele>
        <time>2017-07-10T09:51:34Z</time>
      </trkpt>
      <trkpt lat="45.97724" lon="4.92718">
        <ele>301</ele>
        <time>2017-07-10T09:51:35Z</time>
      </trkpt>
      <trkpt lat="45.97721" lon="4.92723">
        <ele>301</ele>
        <time>2017-07-10T09:51:36Z</time>
      </trkpt>
      <trkpt lat="45.97717" lon="4.92727">
        <ele>301</ele>
        <time>2017-07-10T09:51:37Z</time>
      </trkpt>
      <trkpt lat="45.97713" lon="4.92732">
        <ele>301</ele>
        <time>2017-07-10T09:51:38Z</time>
      </trkpt>
      <trkpt lat="45.97708" lon="4.92737">
        <ele>302</ele>
        <time>2017-07-10T09:51:39Z</time>
      </trkpt>
      <trkpt lat="45.97704" lon="4.92743">
        <ele>302</ele>
        <time>2017-07-10T09:51:40Z</time>
      </trkpt>
      <trkpt lat="45.977" lon="4.92748">
        <ele>302</ele>
        <time>2017-07-10T09:51:41Z</time>
      </trkpt>
      <trkpt lat="45.97696" lon="4.92753">
        <ele>301</ele>
        <time>2017-07-10T09:51:42Z</time>
      </trkpt>
      <trkpt lat="45.97692" lon="4.92757">
        <ele>301</ele>
        <time>2017-07-10T09:51:43Z</time>
      </trkpt>
      <trkpt lat="45.97688" lon="4.92763">
        <ele>302</ele>
        <time>2017-07-10T09:51:44Z</time>
      </trkpt>
      <trkpt lat="45.97684" lon="4.92767">
        <ele>302</ele>
        <time>2017-07-10T09:51:45Z</time>
      </trkpt>
      <trkpt lat="45.97681" lon="4.92772">
        <ele>301</ele>
        <time>2017-07-10T09:51:46Z</time>
      </trkpt>
      <trkpt lat="45.97677" lon="4.92777">
        <ele>301</ele>
        <time>2017-07-10T09:51:47Z</time>
      </trkpt>
      <trkpt lat="45.97673" lon="4.92782">
        <ele>301</ele>
        <time>2017-07-10T09:51:48Z</time>
      </trkpt>
      <trkpt lat="45.97669" lon="4.92787">
        <ele>301</ele>
        <time>2017-07-10T09:51:49Z</time>
      </trkpt>
      <trkpt lat="45.97666" lon="4.92791">
        <ele>301</ele>
        <time>2017-07-10T09:51:50Z</time>
      </trkpt>
      <trkpt lat="45.97662" lon="4.92797">
        <ele>301</ele>
        <time>2017-07-10T09:51:51Z</time>
      </trkpt>
      <trkpt lat="45.97658" lon="4.92802">
        <ele>300</ele>
        <time>2017-07-10T09:51:52Z</time>
      </trkpt>
      <trkpt lat="45.97654" lon="4.92807">
        <ele>300</ele>
        <time>2017-07-10T09:51:53Z</time>
      </trkpt>
      <trkpt lat="45.97649" lon="4.92813">
        <ele>300</ele>
        <time>2017-07-10T09:51:54Z</time>
      </trkpt>
      <trkpt lat="45.97645" lon="4.92818">
        <ele>300</ele>
        <time>2017-07-10T09:51:55Z</time>
      </trkpt>
      <trkpt lat="45.9764" lon="4.92824">
        <ele>300</ele>
        <time>2017-07-10T09:51:56Z</time>
      </trkpt>
      <trkpt lat="45.97636" lon="4.92829">
        <ele>300</ele>
        <time>2017-07-10T09:51:57Z</time>
      </trkpt>
      <trkpt lat="45.97632" lon="4.92834">
        <ele>298</ele>
        <time>2017-07-10T09:51:58Z</time>
      </trkpt>
      <trkpt lat="45.97628" lon="4.92838">
        <ele>298</ele>
        <time>2017-07-10T09:51:59Z</time>
      </trkpt>
      <trkpt lat="45.97623" lon="4.92843">
        <ele>298</ele>
        <time>2017-07-10T09:52:00Z</time>
      </trkpt>
      <trkpt lat="45.97619" lon="4.92848">
        <ele>298</ele>
        <time>2017-07-10T09:52:01Z</time>
      </trkpt>
      <trkpt lat="45.97615" lon="4.92853">
        <ele>298</ele>
        <time>2017-07-10T09:52:02Z</time>
      </trkpt>
      <trkpt lat="45.97611" lon="4.92858">
        <ele>298</ele>
        <time>2017-07-10T09:52:03Z</time>
      </trkpt>
      <trkpt lat="45.97607" lon="4.92863">
        <ele>298</ele>
        <time>2017-07-10T09:52:04Z</time>
      </trkpt>
      <trkpt lat="45.97603" lon="4.92868">
        <ele>298</ele>
        <time>2017-07-10T09:52:05Z</time>
      </trkpt>
      <trkpt lat="45.976" lon="4.92873">
        <ele>298</ele>
        <time>2017-07-10T09:52:06Z</time>
      </trkpt>
      <trkpt lat="45.97596" lon="4.92877">
        <ele>298</ele>
        <time>2017-07-10T09:52:07Z</time>
      </trkpt>
      <trkpt lat="45.9759" lon="4.92886">
        <ele>298</ele>
        <time>2017-07-10T09:52:09Z</time>
      </trkpt>
      <trkpt lat="45.97587" lon="4.9289">
        <ele>298</ele>
        <time>2017-07-10T09:52:10Z</time>
      </trkpt>
      <trkpt lat="45.97583" lon="4.92895">
        <ele>298</ele>
        <time>2017-07-10T09:52:11Z</time>
      </trkpt>
      <trkpt lat="45.9758" lon="4.92899">
        <ele>298</ele>
        <time>2017-07-10T09:52:12Z</time>
      </trkpt>
      <trkpt lat="45.97573" lon="4.92907">
        <ele>298</ele>
        <time>2017-07-10T09:52:14Z</time>
      </trkpt>
      <trkpt lat="45.97569" lon="4.92912">
        <ele>298</ele>
        <time>2017-07-10T09:52:15Z</time>
      </trkpt>
      <trkpt lat="45.97565" lon="4.92916">
        <ele>298</ele>
        <time>2017-07-10T09:52:16Z</time>
      </trkpt>
      <trkpt lat="45.97561" lon="4.92921">
        <ele>298</ele>
        <time>2017-07-10T09:52:17Z</time>
      </trkpt>
      <trkpt lat="45.97557" lon="4.92926">
        <ele>298</ele>
        <time>2017-07-10T09:52:18Z</time>
      </trkpt>
      <trkpt lat="45.97553" lon="4.92931">
        <ele>299</ele>
        <time>2017-07-10T09:52:19Z</time>
      </trkpt>
      <trkpt lat="45.97549" lon="4.92936">
        <ele>299</ele>
        <time>2017-07-10T09:52:20Z</time>
      </trkpt>
      <trkpt lat="45.97545" lon="4.9294">
        <ele>299</ele>
        <time>2017-07-10T09:52:21Z</time>
      </trkpt>
      <trkpt lat="45.9754" lon="4.92945">
        <ele>299</ele>
        <time>2017-07-10T09:52:22Z</time>
      </trkpt>
      <trkpt lat="45.97536" lon="4.9295">
        <ele>299</ele>
        <time>2017-07-10T09:52:23Z</time>
      </trkpt>
      <trkpt lat="45.97532" lon="4.92955">
        <ele>299</ele>
        <time>2017-07-10T09:52:24Z</time>
      </trkpt>
      <trkpt lat="45.97529" lon="4.92959">
        <ele>299</ele>
        <time>2017-07-10T09:52:25Z</time>
      </trkpt>
      <trkpt lat="45.97525" lon="4.92964">
        <ele>299</ele>
        <time>2017-07-10T09:52:26Z</time>
      </trkpt>
      <trkpt lat="45.9752" lon="4.92969">
        <ele>299</ele>
        <time>2017-07-10T09:52:27Z</time>
      </trkpt>
      <trkpt lat="45.97516" lon="4.92974">
        <ele>299</ele>
        <time>2017-07-10T09:52:28Z</time>
      </trkpt>
      <trkpt lat="45.97511" lon="4.9298">
        <ele>299</ele>
        <time>2017-07-10T09:52:29Z</time>
      </trkpt>
      <trkpt lat="45.97507" lon="4.92985">
        <ele>299</ele>
        <time>2017-07-10T09:52:30Z</time>
      </trkpt>
      <trkpt lat="45.97503" lon="4.92991">
        <ele>299</ele>
        <time>2017-07-10T09:52:31Z</time>
      </trkpt>
      <trkpt lat="45.97498" lon="4.92996">
        <ele>299</ele>
        <time>2017-07-10T09:52:32Z</time>
      </trkpt>
      <trkpt lat="45.97494" lon="4.93001">
        <ele>299</ele>
        <time>2017-07-10T09:52:33Z</time>
      </trkpt>
      <trkpt lat="45.9749" lon="4.93006">
        <ele>299</ele>
        <time>2017-07-10T09:52:34Z</time>
      </trkpt>
      <trkpt lat="45.97485" lon="4.93011">
        <ele>299</ele>
        <time>2017-07-10T09:52:35Z</time>
      </trkpt>
      <trkpt lat="45.97481" lon="4.93017">
        <ele>299</ele>
        <time>2017-07-10T09:52:36Z</time>
      </trkpt>
      <trkpt lat="45.97476" lon="4.93022">
        <ele>299</ele>
        <time>2017-07-10T09:52:37Z</time>
      </trkpt>
      <trkpt lat="45.97473" lon="4.93026">
        <ele>299</ele>
        <time>2017-07-10T09:52:38Z</time>
      </trkpt>
      <trkpt lat="45.97469" lon="4.93031">
        <ele>299</ele>
        <time>2017-07-10T09:52:39Z</time>
      </trkpt>
      <trkpt lat="45.97466" lon="4.93035">
        <ele>299</ele>
        <time>2017-07-10T09:52:40Z</time>
      </trkpt>
      <trkpt lat="45.97462" lon="4.9304">
        <ele>299</ele>
        <time>2017-07-10T09:52:41Z</time>
      </trkpt>
      <trkpt lat="45.97458" lon="4.93045">
        <ele>299</ele>
        <time>2017-07-10T09:52:42Z</time>
      </trkpt>
      <trkpt lat="45.97454" lon="4.93049">
        <ele>299</ele>
        <time>2017-07-10T09:52:43Z</time>
      </trkpt>
      <trkpt lat="45.97451" lon="4.93054">
        <ele>299</ele>
        <time>2017-07-10T09:52:44Z</time>
      </trkpt>
      <trkpt lat="45.97447" lon="4.93059">
        <ele>299</ele>
        <time>2017-07-10T09:52:45Z</time>
      </trkpt>
      <trkpt lat="45.97444" lon="4.93063">
        <ele>299</ele>
        <time>2017-07-10T09:52:46Z</time>
      </trkpt>
      <trkpt lat="45.9744" lon="4.93067">
        <ele>299</ele>
        <time>2017-07-10T09:52:47Z</time>
      </trkpt>
      <trkpt lat="45.97433" lon="4.93075">
        <ele>299</ele>
        <time>2017-07-10T09:52:49Z</time>
      </trkpt>
      <trkpt lat="45.9743" lon="4.9308">
        <ele>299</ele>
        <time>2017-07-10T09:52:50Z</time>
      </trkpt>
      <trkpt lat="45.97426" lon="4.93085">
        <ele>299</ele>
        <time>2017-07-10T09:52:51Z</time>
      </trkpt>
      <trkpt lat="45.97422" lon="4.93089">
        <ele>299</ele>
        <time>2017-07-10T09:52:52Z</time>
      </trkpt>
      <trkpt lat="45.97418" lon="4.93093">
        <ele>299</ele>
        <time>2017-07-10T09:52:53Z</time>
      </trkpt>
      <trkpt lat="45.97414" lon="4.93098">
        <ele>299</ele>
        <time>2017-07-10T09:52:54Z</time>
      </trkpt>
      <trkpt lat="45.9741" lon="4.93103">
        <ele>300</ele>
        <time>2017-07-10T09:52:55Z</time>
      </trkpt>
      <trkpt lat="45.97406" lon="4.93108">
        <ele>300</ele>
        <time>2017-07-10T09:52:56Z</time>
      </trkpt>
      <trkpt lat="45.97402" lon="4.93112">
        <ele>300</ele>
        <time>2017-07-10T09:52:57Z</time>
      </trkpt>
      <trkpt lat="45.97399" lon="4.93117">
        <ele>300</ele>
        <time>2017-07-10T09:52:58Z</time>
      </trkpt>
      <trkpt lat="45.97395" lon="4.93121">
        <ele>300</ele>
        <time>2017-07-10T09:52:59Z</time>
      </trkpt>
      <trkpt lat="45.97392" lon="4.93126">
        <ele>300</ele>
        <time>2017-07-10T09:53:00Z</time>
      </trkpt>
      <trkpt lat="45.97388" lon="4.9313">
        <ele>300</ele>
        <time>2017-07-10T09:53:01Z</time>
      </trkpt>
      <trkpt lat="45.97385" lon="4.93134">
        <ele>300</ele>
        <time>2017-07-10T09:53:02Z</time>
      </trkpt>
      <trkpt lat="45.97381" lon="4.93139">
        <ele>300</ele>
        <time>2017-07-10T09:53:03Z</time>
      </trkpt>
      <trkpt lat="45.97377" lon="4.93144">
        <ele>300</ele>
        <time>2017-07-10T09:53:04Z</time>
      </trkpt>
      <trkpt lat="45.97374" lon="4.93148">
        <ele>300</ele>
        <time>2017-07-10T09:53:05Z</time>
      </trkpt>
      <trkpt lat="45.9737" lon="4.93152">
        <ele>300</ele>
        <time>2017-07-10T09:53:06Z</time>
      </trkpt>
      <trkpt lat="45.97366" lon="4.93156">
        <ele>300</ele>
        <time>2017-07-10T09:53:07Z</time>
      </trkpt>
      <trkpt lat="45.97362" lon="4.9316">
        <ele>300</ele>
        <time>2017-07-10T09:53:08Z</time>
      </trkpt>
      <trkpt lat="45.97355" lon="4.93168">
        <ele>301</ele>
        <time>2017-07-10T09:53:10Z</time>
      </trkpt>
      <trkpt lat="45.97352" lon="4.93172">
        <ele>301</ele>
        <time>2017-07-10T09:53:11Z</time>
      </trkpt>
      <trkpt lat="45.97345" lon="4.93181">
        <ele>301</ele>
        <time>2017-07-10T09:53:13Z</time>
      </trkpt>
      <trkpt lat="45.97341" lon="4.93186">
        <ele>301</ele>
        <time>2017-07-10T09:53:14Z</time>
      </trkpt>
      <trkpt lat="45.97338" lon="4.9319">
        <ele>301</ele>
        <time>2017-07-10T09:53:15Z</time>
      </trkpt>
      <trkpt lat="45.97334" lon="4.93194">
        <ele>301</ele>
        <time>2017-07-10T09:53:16Z</time>
      </trkpt>
      <trkpt lat="45.97327" lon="4.93201">
        <ele>301</ele>
        <time>2017-07-10T09:53:18Z</time>
      </trkpt>
      <trkpt lat="45.97324" lon="4.93205">
        <ele>301</ele>
        <time>2017-07-10T09:53:19Z</time>
      </trkpt>
      <trkpt lat="45.9732" lon="4.93209">
        <ele>301</ele>
        <time>2017-07-10T09:53:20Z</time>
      </trkpt>
      <trkpt lat="45.97316" lon="4.93213">
        <ele>301</ele>
        <time>2017-07-10T09:53:21Z</time>
      </trkpt>
      <trkpt lat="45.9731" lon="4.93221">
        <ele>302</ele>
        <time>2017-07-10T09:53:23Z</time>
      </trkpt>
      <trkpt lat="45.97306" lon="4.93226">
        <ele>302</ele>
        <time>2017-07-10T09:53:24Z</time>
      </trkpt>
      <trkpt lat="45.97303" lon="4.93231">
        <ele>302</ele>
        <time>2017-07-10T09:53:25Z</time>
      </trkpt>
      <trkpt lat="45.97299" lon="4.93235">
        <ele>302</ele>
        <time>2017-07-10T09:53:26Z</time>
      </trkpt>
      <trkpt lat="45.97293" lon="4.93243">
        <ele>301</ele>
        <time>2017-07-10T09:53:28Z</time>
      </trkpt>
      <trkpt lat="45.9729" lon="4.93247">
        <ele>301</ele>
        <time>2017-07-10T09:53:29Z</time>
      </trkpt>
      <trkpt lat="45.97286" lon="4.93251">
        <ele>302</ele>
        <time>2017-07-10T09:53:30Z</time>
      </trkpt>
      <trkpt lat="45.97281" lon="4.93256">
        <ele>302</ele>
        <time>2017-07-10T09:53:31Z</time>
      </trkpt>
      <trkpt lat="45.97277" lon="4.9326">
        <ele>302</ele>
        <time>2017-07-10T09:53:32Z</time>
      </trkpt>
      <trkpt lat="45.97272" lon="4.93265">
        <ele>302</ele>
        <time>2017-07-10T09:53:33Z</time>
      </trkpt>
      <trkpt lat="45.97268" lon="4.9327">
        <ele>302</ele>
        <time>2017-07-10T09:53:34Z</time>
      </trkpt>
      <trkpt lat="45.97263" lon="4.93275">
        <ele>302</ele>
        <time>2017-07-10T09:53:35Z</time>
      </trkpt>
      <trkpt lat="45.97258" lon="4.9328">
        <ele>302</ele>
        <time>2017-07-10T09:53:36Z</time>
      </trkpt>
      <trkpt lat="45.97252" lon="4.93286">
        <ele>302</ele>
        <time>2017-07-10T09:53:37Z</time>
      </trkpt>
      <trkpt lat="45.97247" lon="4.93292">
        <ele>300</ele>
        <time>2017-07-10T09:53:38Z</time>
      </trkpt>
      <trkpt lat="45.97243" lon="4.93297">
        <ele>300</ele>
        <time>2017-07-10T09:53:39Z</time>
      </trkpt>
      <trkpt lat="45.97239" lon="4.93301">
        <ele>300</ele>
        <time>2017-07-10T09:53:40Z</time>
      </trkpt>
      <trkpt lat="45.97235" lon="4.93306">
        <ele>300</ele>
        <time>2017-07-10T09:53:41Z</time>
      </trkpt>
      <trkpt lat="45.97231" lon="4.93311">
        <ele>300</ele>
        <time>2017-07-10T09:53:42Z</time>
      </trkpt>
      <trkpt lat="45.97227" lon="4.93317">
        <ele>300</ele>
        <time>2017-07-10T09:53:43Z</time>
      </trkpt>
      <trkpt lat="45.97223" lon="4.93322">
        <ele>300</ele>
        <time>2017-07-10T09:53:44Z</time>
      </trkpt>
      <trkpt lat="45.97218" lon="4.93327">
        <ele>300</ele>
        <time>2017-07-10T09:53:45Z</time>
      </trkpt>
      <trkpt lat="45.97214" lon="4.93331">
        <ele>300</ele>
        <time>2017-07-10T09:53:46Z</time>
      </trkpt>
      <trkpt lat="45.9721" lon="4.93335">
        <ele>301</ele>
        <time>2017-07-10T09:53:47Z</time>
      </trkpt>
      <trkpt lat="45.97206" lon="4.9334">
        <ele>301</ele>
        <time>2017-07-10T09:53:48Z</time>
      </trkpt>
      <trkpt lat="45.97203" lon="4.93344">
        <ele>301</ele>
        <time>2017-07-10T09:53:49Z</time>
      </trkpt>
      <trkpt lat="45.97199" lon="4.93348">
        <ele>301</ele>
        <time>2017-07-10T09:53:50Z</time>
      </trkpt>
      <trkpt lat="45.97195" lon="4.93353">
        <ele>301</ele>
        <time>2017-07-10T09:53:51Z</time>
      </trkpt>
      <trkpt lat="45.97192" lon="4.93357">
        <ele>301</ele>
        <time>2017-07-10T09:53:52Z</time>
      </trkpt>
      <trkpt lat="45.97188" lon="4.93362">
        <ele>301</ele>
        <time>2017-07-10T09:53:53Z</time>
      </trkpt>
      <trkpt lat="45.97185" lon="4.93366">
        <ele>301</ele>
        <time>2017-07-10T09:53:54Z</time>
      </trkpt>
      <trkpt lat="45.97181" lon="4.93371">
        <ele>301</ele>
        <time>2017-07-10T09:53:55Z</time>
      </trkpt>
      <trkpt lat="45.97177" lon="4.93376">
        <ele>301</ele>
        <time>2017-07-10T09:53:56Z</time>
      </trkpt>
      <trkpt lat="45.97173" lon="4.9338">
        <ele>301</ele>
        <time>2017-07-10T09:53:57Z</time>
      </trkpt>
      <trkpt lat="45.97169" lon="4.93385">
        <ele>301</ele>
        <time>2017-07-10T09:53:58Z</time>
      </trkpt>
      <trkpt lat="45.97166" lon="4.93389">
        <ele>301</ele>
        <time>2017-07-10T09:53:59Z</time>
      </trkpt>
      <trkpt lat="45.97159" lon="4.93398">
        <ele>301</ele>
        <time>2017-07-10T09:54:01Z</time>
      </trkpt>
      <trkpt lat="45.97156" lon="4.93402">
        <ele>301</ele>
        <time>2017-07-10T09:54:02Z</time>
      </trkpt>
      <trkpt lat="45.97152" lon="4.93406">
        <ele>301</ele>
        <time>2017-07-10T09:54:03Z</time>
      </trkpt>
      <trkpt lat="45.97149" lon="4.93411">
        <ele>301</ele>
        <time>2017-07-10T09:54:04Z</time>
      </trkpt>
      <trkpt lat="45.97145" lon="4.93415">
        <ele>301</ele>
        <time>2017-07-10T09:54:05Z</time>
      </trkpt>
      <trkpt lat="45.97141" lon="4.9342">
        <ele>301</ele>
        <time>2017-07-10T09:54:06Z</time>
      </trkpt>
      <trkpt lat="45.97138" lon="4.93425">
        <ele>301</ele>
        <time>2017-07-10T09:54:07Z</time>
      </trkpt>
      <trkpt lat="45.97133" lon="4.9343">
        <ele>301</ele>
        <time>2017-07-10T09:54:08Z</time>
      </trkpt>
      <trkpt lat="45.9713" lon="4.93435">
        <ele>301</ele>
        <time>2017-07-10T09:54:09Z</time>
      </trkpt>
      <trkpt lat="45.97126" lon="4.93439">
        <ele>301</ele>
        <time>2017-07-10T09:54:10Z</time>
      </trkpt>
      <trkpt lat="45.97122" lon="4.93444">
        <ele>301</ele>
        <time>2017-07-10T09:54:11Z</time>
      </trkpt>
      <trkpt lat="45.97118" lon="4.93449">
        <ele>301</ele>
        <time>2017-07-10T09:54:12Z</time>
      </trkpt>
      <trkpt lat="45.97114" lon="4.93454">
        <ele>301</ele>
        <time>2017-07-10T09:54:13Z</time>
      </trkpt>
      <trkpt lat="45.97111" lon="4.93459">
        <ele>301</ele>
        <time>2017-07-10T09:54:14Z</time>
      </trkpt>
      <trkpt lat="45.97107" lon="4.93464">
        <ele>301</ele>
        <time>2017-07-10T09:54:15Z</time>
      </trkpt>
      <trkpt lat="45.97103" lon="4.93468">
        <ele>301</ele>
        <time>2017-07-10T09:54:16Z</time>
      </trkpt>
      <trkpt lat="45.97096" lon="4.93476">
        <ele>301</ele>
        <time>2017-07-10T09:54:18Z</time>
      </trkpt>
      <trkpt lat="45.97093" lon="4.93481">
        <ele>301</ele>
        <time>2017-07-10T09:54:19Z</time>
      </trkpt>
      <trkpt lat="45.97089" lon="4.93485">
        <ele>301</ele>
        <time>2017-07-10T09:54:20Z</time>
      </trkpt>
      <trkpt lat="45.97085" lon="4.93489">
        <ele>300</ele>
        <time>2017-07-10T09:54:21Z</time>
      </trkpt>
      <trkpt lat="45.97081" lon="4.93494">
        <ele>300</ele>
        <time>2017-07-10T09:54:22Z</time>
      </trkpt>
      <trkpt lat="45.97077" lon="4.93499">
        <ele>300</ele>
        <time>2017-07-10T09:54:23Z</time>
      </trkpt>
      <trkpt lat="45.97073" lon="4.93504">
        <ele>300</ele>
        <time>2017-07-10T09:54:24Z</time>
      </trkpt>
      <trkpt lat="45.97069" lon="4.93509">
        <ele>299</ele>
        <time>2017-07-10T09:54:25Z</time>
      </trkpt>
      <trkpt lat="45.97065" lon="4.93514">
        <ele>299</ele>
        <time>2017-07-10T09:54:26Z</time>
      </trkpt>
      <trkpt lat="45.97061" lon="4.93518">
        <ele>299</ele>
        <time>2017-07-10T09:54:27Z</time>
      </trkpt>
      <trkpt lat="45.97058" lon="4.93523">
        <ele>299</ele>
        <time>2017-07-10T09:54:28Z</time>
      </trkpt>
      <trkpt lat="45.97054" lon="4.93528">
        <ele>299</ele>
        <time>2017-07-10T09:54:29Z</time>
      </trkpt>
      <trkpt lat="45.9705" lon="4.93533">
        <ele>299</ele>
        <time>2017-07-10T09:54:30Z</time>
      </trkpt>
      <trkpt lat="45.97046" lon="4.93538">
        <ele>299</ele>
        <time>2017-07-10T09:54:31Z</time>
      </trkpt>
      <trkpt lat="45.97043" lon="4.93542">
        <ele>299</ele>
        <time>2017-07-10T09:54:32Z</time>
      </trkpt>
      <trkpt lat="45.97039" lon="4.93547">
        <ele>299</ele>
        <time>2017-07-10T09:54:33Z</time>
      </trkpt>
      <trkpt lat="45.97036" lon="4.93551">
        <ele>299</ele>
        <time>2017-07-10T09:54:34Z</time>
      </trkpt>
      <trkpt lat="45.97032" lon="4.93556">
        <ele>299</ele>
        <time>2017-07-10T09:54:35Z</time>
      </trkpt>
      <trkpt lat="45.97028" lon="4.93561">
        <ele>299</ele>
        <time>2017-07-10T09:54:36Z</time>
      </trkpt>
      <trkpt lat="45.97024" lon="4.93566">
        <ele>299</ele>
        <time>2017-07-10T09:54:37Z</time>
      </trkpt>
      <trkpt lat="45.97021" lon="4.93572">
        <ele>299</ele>
        <time>2017-07-10T09:54:38Z</time>
      </trkpt>
      <trkpt lat="45.97019" lon="4.93581">
        <ele>299</ele>
        <time>2017-07-10T09:54:39Z</time>
      </trkpt>
      <trkpt lat="45.97015" lon="4.93586">
        <ele>299</ele>
        <time>2017-07-10T09:54:40Z</time>
      </trkpt>
      <trkpt lat="45.9701" lon="4.93592">
        <ele>299</ele>
        <time>2017-07-10T09:54:41Z</time>
      </trkpt>
      <trkpt lat="45.97005" lon="4.93597">
        <ele>299</ele>
        <time>2017-07-10T09:54:42Z</time>
      </trkpt>
      <trkpt lat="45.97001" lon="4.93602">
        <ele>300</ele>
        <time>2017-07-10T09:54:43Z</time>
      </trkpt>
      <trkpt lat="45.96998" lon="4.93607">
        <ele>299</ele>
        <time>2017-07-10T09:54:44Z</time>
      </trkpt>
      <trkpt lat="45.96994" lon="4.93612">
        <ele>299</ele>
        <time>2017-07-10T09:54:45Z</time>
      </trkpt>
      <trkpt lat="45.9699" lon="4.93617">
        <ele>299</ele>
        <time>2017-07-10T09:54:46Z</time>
      </trkpt>
      <trkpt lat="45.96986" lon="4.93621">
        <ele>299</ele>
        <time>2017-07-10T09:54:47Z</time>
      </trkpt>
      <trkpt lat="45.96982" lon="4.93626">
        <ele>299</ele>
        <time>2017-07-10T09:54:48Z</time>
      </trkpt>
      <trkpt lat="45.96979" lon="4.93631">
        <ele>299</ele>
        <time>2017-07-10T09:54:49Z</time>
      </trkpt>
      <trkpt lat="45.96975" lon="4.93635">
        <ele>299</ele>
        <time>2017-07-10T09:54:50Z</time>
      </trkpt>
      <trkpt lat="45.96971" lon="4.9364">
        <ele>299</ele>
        <time>2017-07-10T09:54:51Z</time>
      </trkpt>
      <trkpt lat="45.96966" lon="4.93646">
        <ele>299</ele>
        <time>2017-07-10T09:54:52Z</time>
      </trkpt>
      <trkpt lat="45.96963" lon="4.93651">
        <ele>299</ele>
        <time>2017-07-10T09:54:53Z</time>
      </trkpt>
      <trkpt lat="45.96959" lon="4.93656">
        <ele>299</ele>
        <time>2017-07-10T09:54:54Z</time>
      </trkpt>
      <trkpt lat="45.96955" lon="4.9366">
        <ele>299</ele>
        <time>2017-07-10T09:54:55Z</time>
      </trkpt>
      <trkpt lat="45.96951" lon="4.93665">
        <ele>299</ele>
        <time>2017-07-10T09:54:56Z</time>
      </trkpt>
      <trkpt lat="45.96948" lon="4.9367">
        <ele>298</ele>
        <time>2017-07-10T09:54:57Z</time>
      </trkpt>
      <trkpt lat="45.96944" lon="4.93675">
        <ele>298</ele>
        <time>2017-07-10T09:54:58Z</time>
      </trkpt>
      <trkpt lat="45.96939" lon="4.9368">
        <ele>298</ele>
        <time>2017-07-10T09:54:59Z</time>
      </trkpt>
      <trkpt lat="45.96935" lon="4.93685">
        <ele>298</ele>
        <time>2017-07-10T09:55:00Z</time>
      </trkpt>
      <trkpt lat="45.96931" lon="4.93691">
        <ele>298</ele>
        <time>2017-07-10T09:55:01Z</time>
      </trkpt>
      <trkpt lat="45.96926" lon="4.93696">
        <ele>298</ele>
        <time>2017-07-10T09:55:02Z</time>
      </trkpt>
      <trkpt lat="45.96922" lon="4.937">
        <ele>298</ele>
        <time>2017-07-10T09:55:03Z</time>
      </trkpt>
      <trkpt lat="45.96917" lon="4.93704">
        <ele>298</ele>
        <time>2017-07-10T09:55:04Z</time>
      </trkpt>
      <trkpt lat="45.96912" lon="4.93709">
        <ele>297</ele>
        <time>2017-07-10T09:55:05Z</time>
      </trkpt>
      <trkpt lat="45.96907" lon="4.93713">
        <ele>297</ele>
        <time>2017-07-10T09:55:06Z</time>
      </trkpt>
      <trkpt lat="45.96902" lon="4.93717">
        <ele>297</ele>
        <time>2017-07-10T09:55:07Z</time>
      </trkpt>
      <trkpt lat="45.96896" lon="4.9372">
        <ele>297</ele>
        <time>2017-07-10T09:55:08Z</time>
      </trkpt>
      <trkpt lat="45.96891" lon="4.93724">
        <ele>297</ele>
        <time>2017-07-10T09:55:09Z</time>
      </trkpt>
      <trkpt lat="45.96885" lon="4.93727">
        <ele>297</ele>
        <time>2017-07-10T09:55:10Z</time>
      </trkpt>
      <trkpt lat="45.96879" lon="4.93731">
        <ele>297</ele>
        <time>2017-07-10T09:55:11Z</time>
      </trkpt>
      <trkpt lat="45.96873" lon="4.93734">
        <ele>297</ele>
        <time>2017-07-10T09:55:12Z</time>
      </trkpt>
      <trkpt lat="45.96867" lon="4.93737">
        <ele>297</ele>
        <time>2017-07-10T09:55:13Z</time>
      </trkpt>
      <trkpt lat="45.96861" lon="4.9374">
        <ele>297</ele>
        <time>2017-07-10T09:55:14Z</time>
      </trkpt>
      <trkpt lat="45.96856" lon="4.93742">
        <ele>297</ele>
        <time>2017-07-10T09:55:15Z</time>
      </trkpt>
      <trkpt lat="45.9685" lon="4.93744">
        <ele>296</ele>
        <time>2017-07-10T09:55:16Z</time>
      </trkpt>
      <trkpt lat="45.96844" lon="4.93746">
        <ele>296</ele>
        <time>2017-07-10T09:55:17Z</time>
      </trkpt>
      <trkpt lat="45.96838" lon="4.93748">
        <ele>296</ele>
        <time>2017-07-10T09:55:18Z</time>
      </trkpt>
      <trkpt lat="45.96832" lon="4.9375">
        <ele>296</ele>
        <time>2017-07-10T09:55:19Z</time>
      </trkpt>
      <trkpt lat="45.96826" lon="4.93753">
        <ele>296</ele>
        <time>2017-07-10T09:55:20Z</time>
      </trkpt>
      <trkpt lat="45.96819" lon="4.93755">
        <ele>296</ele>
        <time>2017-07-10T09:55:21Z</time>
      </trkpt>
      <trkpt lat="45.96813" lon="4.93758">
        <ele>296</ele>
        <time>2017-07-10T09:55:22Z</time>
      </trkpt>
      <trkpt lat="45.96806" lon="4.9376">
        <ele>295</ele>
        <time>2017-07-10T09:55:23Z</time>
      </trkpt>
      <trkpt lat="45.968" lon="4.93762">
        <ele>295</ele>
        <time>2017-07-10T09:55:24Z</time>
      </trkpt>
      <trkpt lat="45.96794" lon="4.93764">
        <ele>295</ele>
        <time>2017-07-10T09:55:25Z</time>
      </trkpt>
      <trkpt lat="45.96787" lon="4.93767">
        <ele>295</ele>
        <time>2017-07-10T09:55:26Z</time>
      </trkpt>
      <trkpt lat="45.96781" lon="4.93769">
        <ele>295</ele>
        <time>2017-07-10T09:55:27Z</time>
      </trkpt>
      <trkpt lat="45.96774" lon="4.93771">
        <ele>295</ele>
        <time>2017-07-10T09:55:28Z</time>
      </trkpt>
      <trkpt lat="45.96768" lon="4.93773">
        <ele>295</ele>
        <time>2017-07-10T09:55:29Z</time>
      </trkpt>
      <trkpt lat="45.96761" lon="4.93775">
        <ele>295</ele>
        <time>2017-07-10T09:55:30Z</time>
      </trkpt>
      <trkpt lat="45.96755" lon="4.93777">
        <ele>295</ele>
        <time>2017-07-10T09:55:31Z</time>
      </trkpt>
      <trkpt lat="45.96749" lon="4.93779">
        <ele>295</ele>
        <time>2017-07-10T09:55:32Z</time>
      </trkpt>
      <trkpt lat="45.96744" lon="4.93782">
        <ele>296</ele>
        <time>2017-07-10T09:55:33Z</time>
      </trkpt>
      <trkpt lat="45.96738" lon="4.93784">
        <ele>296</ele>
        <time>2017-07-10T09:55:34Z</time>
      </trkpt>
      <trkpt lat="45.96732" lon="4.93786">
        <ele>296</ele>
        <time>2017-07-10T09:55:35Z</time>
      </trkpt>
      <trkpt lat="45.96726" lon="4.93789">
        <ele>296</ele>
        <time>2017-07-10T09:55:36Z</time>
      </trkpt>
      <trkpt lat="45.96721" lon="4.9379">
        <ele>296</ele>
        <time>2017-07-10T09:55:37Z</time>
      </trkpt>
      <trkpt lat="45.96716" lon="4.93792">
        <ele>296</ele>
        <time>2017-07-10T09:55:38Z</time>
      </trkpt>
      <trkpt lat="45.9671" lon="4.93794">
        <ele>296</ele>
        <time>2017-07-10T09:55:39Z</time>
      </trkpt>
      <trkpt lat="45.96704" lon="4.93796">
        <ele>296</ele>
        <time>2017-07-10T09:55:40Z</time>
      </trkpt>
      <trkpt lat="45.96698" lon="4.93799">
        <ele>296</ele>
        <time>2017-07-10T09:55:41Z</time>
      </trkpt>
      <trkpt lat="45.96692" lon="4.93802">
        <ele>297</ele>
        <time>2017-07-10T09:55:42Z</time>
      </trkpt>
      <trkpt lat="45.96686" lon="4.93804">
        <ele>297</ele>
        <time>2017-07-10T09:55:43Z</time>
      </trkpt>
      <trkpt lat="45.96681" lon="4.93805">
        <ele>297</ele>
        <time>2017-07-10T09:55:44Z</time>
      </trkpt>
      <trkpt lat="45.96676" lon="4.93807">
        <ele>297</ele>
        <time>2017-07-10T09:55:45Z</time>
      </trkpt>
      <trkpt lat="45.96671" lon="4.93809">
        <ele>297</ele>
        <time>2017-07-10T09:55:46Z</time>
      </trkpt>
      <trkpt lat="45.96666" lon="4.9381">
        <ele>297</ele>
        <time>2017-07-10T09:55:47Z</time>
      </trkpt>
      <trkpt lat="45.9666" lon="4.93812">
        <ele>297</ele>
        <time>2017-07-10T09:55:48Z</time>
      </trkpt>
      <trkpt lat="45.96654" lon="4.93814">
        <ele>297</ele>
        <time>2017-07-10T09:55:49Z</time>
      </trkpt>
      <trkpt lat="45.96648" lon="4.93816">
        <ele>297</ele>
        <time>2017-07-10T09:55:50Z</time>
      </trkpt>
      <trkpt lat="45.96643" lon="4.93818">
        <ele>297</ele>
        <time>2017-07-10T09:55:51Z</time>
      </trkpt>
      <trkpt lat="45.96637" lon="4.93821">
        <ele>297</ele>
        <time>2017-07-10T09:55:52Z</time>
      </trkpt>
      <trkpt lat="45.96632" lon="4.93823">
        <ele>297</ele>
        <time>2017-07-10T09:55:53Z</time>
      </trkpt>
      <trkpt lat="45.96626" lon="4.93825">
        <ele>297</ele>
        <time>2017-07-10T09:55:54Z</time>
      </trkpt>
      <trkpt lat="45.96621" lon="4.93826">
        <ele>297</ele>
        <time>2017-07-10T09:55:55Z</time>
      </trkpt>
      <trkpt lat="45.96616" lon="4.93828">
        <ele>297</ele>
        <time>2017-07-10T09:55:56Z</time>
      </trkpt>
      <trkpt lat="45.9661" lon="4.9383">
        <ele>297</ele>
        <time>2017-07-10T09:55:57Z</time>
      </trkpt>
      <trkpt lat="45.96604" lon="4.93832">
        <ele>297</ele>
        <time>2017-07-10T09:55:58Z</time>
      </trkpt>
      <trkpt lat="45.96598" lon="4.93834">
        <ele>296</ele>
        <time>2017-07-10T09:55:59Z</time>
      </trkpt>
      <trkpt lat="45.96593" lon="4.93836">
        <ele>296</ele>
        <time>2017-07-10T09:56:00Z</time>
      </trkpt>
      <trkpt lat="45.96587" lon="4.93838">
        <ele>296</ele>
        <time>2017-07-10T09:56:01Z</time>
      </trkpt>
      <trkpt lat="45.96581" lon="4.93841">
        <ele>296</ele>
        <time>2017-07-10T09:56:02Z</time>
      </trkpt>
      <trkpt lat="45.96576" lon="4.93842">
        <ele>296</ele>
        <time>2017-07-10T09:56:03Z</time>
      </trkpt>
      <trkpt lat="45.96571" lon="4.93844">
        <ele>296</ele>
        <time>2017-07-10T09:56:04Z</time>
      </trkpt>
      <trkpt lat="45.96565" lon="4.93846">
        <ele>296</ele>
        <time>2017-07-10T09:56:05Z</time>
      </trkpt>
      <trkpt lat="45.9656" lon="4.93847">
        <ele>296</ele>
        <time>2017-07-10T09:56:06Z</time>
      </trkpt>
      <trkpt lat="45.96555" lon="4.93849">
        <ele>296</ele>
        <time>2017-07-10T09:56:07Z</time>
      </trkpt>
      <trkpt lat="45.9655" lon="4.93851">
        <ele>296</ele>
        <time>2017-07-10T09:56:08Z</time>
      </trkpt>
      <trkpt lat="45.96544" lon="4.93852">
        <ele>296</ele>
        <time>2017-07-10T09:56:09Z</time>
      </trkpt>
      <trkpt lat="45.96539" lon="4.93854">
        <ele>296</ele>
        <time>2017-07-10T09:56:10Z</time>
      </trkpt>
      <trkpt lat="45.96534" lon="4.93856">
        <ele>296</ele>
        <time>2017-07-10T09:56:11Z</time>
      </trkpt>
      <trkpt lat="45.96529" lon="4.93857">
        <ele>296</ele>
        <time>2017-07-10T09:56:12Z</time>
      </trkpt>
      <trkpt lat="45.96524" lon="4.93859">
        <ele>296</ele>
        <time>2017-07-10T09:56:13Z</time>
      </trkpt>
      <trkpt lat="45.96519" lon="4.93862">
        <ele>296</ele>
        <time>2017-07-10T09:56:14Z</time>
      </trkpt>
      <trkpt lat="45.96513" lon="4.93865">
        <ele>296</ele>
        <time>2017-07-10T09:56:15Z</time>
      </trkpt>
      <trkpt lat="45.96508" lon="4.93867">
        <ele>296</ele>
        <time>2017-07-10T09:56:16Z</time>
      </trkpt>
      <trkpt lat="45.96503" lon="4.93869">
        <ele>296</ele>
        <time>2017-07-10T09:56:17Z</time>
      </trkpt>
      <trkpt lat="45.96497" lon="4.9387">
        <ele>296</ele>
        <time>2017-07-10T09:56:18Z</time>
      </trkpt>
      <trkpt lat="45.96492" lon="4.93872">
        <ele>296</ele>
        <time>2017-07-10T09:56:19Z</time>
      </trkpt>
      <trkpt lat="45.96486" lon="4.93873">
        <ele>296</ele>
        <time>2017-07-10T09:56:20Z</time>
      </trkpt>
      <trkpt lat="45.96481" lon="4.93875">
        <ele>295</ele>
        <time>2017-07-10T09:56:21Z</time>
      </trkpt>
      <trkpt lat="45.96476" lon="4.93877">
        <ele>295</ele>
        <time>2017-07-10T09:56:22Z</time>
      </trkpt>
      <trkpt lat="45.96471" lon="4.93878">
        <ele>295</ele>
        <time>2017-07-10T09:56:23Z</time>
      </trkpt>
      <trkpt lat="45.96466" lon="4.9388">
        <ele>295</ele>
        <time>2017-07-10T09:56:24Z</time>
      </trkpt>
      <trkpt lat="45.9646" lon="4.93882">
        <ele>295</ele>
        <time>2017-07-10T09:56:25Z</time>
      </trkpt>
      <trkpt lat="45.96455" lon="4.93884">
        <ele>296</ele>
        <time>2017-07-10T09:56:26Z</time>
      </trkpt>
      <trkpt lat="45.96449" lon="4.93886">
        <ele>296</ele>
        <time>2017-07-10T09:56:27Z</time>
      </trkpt>
      <trkpt lat="45.96443" lon="4.93888">
        <ele>296</ele>
        <time>2017-07-10T09:56:28Z</time>
      </trkpt>
      <trkpt lat="45.96438" lon="4.9389">
        <ele>296</ele>
        <time>2017-07-10T09:56:29Z</time>
      </trkpt>
      <trkpt lat="45.96432" lon="4.93891">
        <ele>296</ele>
        <time>2017-07-10T09:56:30Z</time>
      </trkpt>
      <trkpt lat="45.96427" lon="4.93893">
        <ele>296</ele>
        <time>2017-07-10T09:56:31Z</time>
      </trkpt>
      <trkpt lat="45.96422" lon="4.93895">
        <ele>296</ele>
        <time>2017-07-10T09:56:32Z</time>
      </trkpt>
      <trkpt lat="45.96417" lon="4.93897">
        <ele>295</ele>
        <time>2017-07-10T09:56:33Z</time>
      </trkpt>
      <trkpt lat="45.96411" lon="4.93899">
        <ele>295</ele>
        <time>2017-07-10T09:56:34Z</time>
      </trkpt>
      <trkpt lat="45.96406" lon="4.93901">
        <ele>295</ele>
        <time>2017-07-10T09:56:35Z</time>
      </trkpt>
      <trkpt lat="45.96401" lon="4.93903">
        <ele>295</ele>
        <time>2017-07-10T09:56:36Z</time>
      </trkpt>
      <trkpt lat="45.96396" lon="4.93904">
        <ele>295</ele>
        <time>2017-07-10T09:56:37Z</time>
      </trkpt>
      <trkpt lat="45.96391" lon="4.93906">
        <ele>294</ele>
        <time>2017-07-10T09:56:38Z</time>
      </trkpt>
      <trkpt lat="45.96386" lon="4.93908">
        <ele>294</ele>
        <time>2017-07-10T09:56:39Z</time>
      </trkpt>
      <trkpt lat="45.96381" lon="4.9391">
        <ele>294</ele>
        <time>2017-07-10T09:56:40Z</time>
      </trkpt>
      <trkpt lat="45.96376" lon="4.93912">
        <ele>294</ele>
        <time>2017-07-10T09:56:41Z</time>
      </trkpt>
      <trkpt lat="45.9637" lon="4.93913">
        <ele>294</ele>
        <time>2017-07-10T09:56:42Z</time>
      </trkpt>
      <trkpt lat="45.96365" lon="4.93916">
        <ele>294</ele>
        <time>2017-07-10T09:56:43Z</time>
      </trkpt>
      <trkpt lat="45.9636" lon="4.93918">
        <ele>294</ele>
        <time>2017-07-10T09:56:44Z</time>
      </trkpt>
      <trkpt lat="45.96354" lon="4.9392">
        <ele>294</ele>
        <time>2017-07-10T09:56:45Z</time>
      </trkpt>
      <trkpt lat="45.96349" lon="4.93921">
        <ele>293</ele>
        <time>2017-07-10T09:56:46Z</time>
      </trkpt>
      <trkpt lat="45.96343" lon="4.93924">
        <ele>293</ele>
        <time>2017-07-10T09:56:47Z</time>
      </trkpt>
      <trkpt lat="45.96337" lon="4.93926">
        <ele>293</ele>
        <time>2017-07-10T09:56:48Z</time>
      </trkpt>
      <trkpt lat="45.96331" lon="4.93928">
        <ele>292</ele>
        <time>2017-07-10T09:56:49Z</time>
      </trkpt>
      <trkpt lat="45.96324" lon="4.9393">
        <ele>292</ele>
        <time>2017-07-10T09:56:50Z</time>
      </trkpt>
      <trkpt lat="45.96317" lon="4.93932">
        <ele>292</ele>
        <time>2017-07-10T09:56:51Z</time>
      </trkpt>
      <trkpt lat="45.9631" lon="4.93935">
        <ele>292</ele>
        <time>2017-07-10T09:56:52Z</time>
      </trkpt>
      <trkpt lat="45.96303" lon="4.93937">
        <ele>292</ele>
        <time>2017-07-10T09:56:53Z</time>
      </trkpt>
      <trkpt lat="45.96296" lon="4.93939">
        <ele>292</ele>
        <time>2017-07-10T09:56:54Z</time>
      </trkpt>
      <trkpt lat="45.96289" lon="4.93942">
        <ele>292</ele>
        <time>2017-07-10T09:56:55Z</time>
      </trkpt>
      <trkpt lat="45.96282" lon="4.93944">
        <ele>291</ele>
        <time>2017-07-10T09:56:56Z</time>
      </trkpt>
      <trkpt lat="45.96275" lon="4.93947">
        <ele>291</ele>
        <time>2017-07-10T09:56:57Z</time>
      </trkpt>
      <trkpt lat="45.96269" lon="4.93949">
        <ele>291</ele>
        <time>2017-07-10T09:56:58Z</time>
      </trkpt>
      <trkpt lat="45.96262" lon="4.93952">
        <ele>291</ele>
        <time>2017-07-10T09:56:59Z</time>
      </trkpt>
      <trkpt lat="45.96255" lon="4.93955">
        <ele>291</ele>
        <time>2017-07-10T09:57:00Z</time>
      </trkpt>
      <trkpt lat="45.96249" lon="4.93959">
        <ele>290</ele>
        <time>2017-07-10T09:57:01Z</time>
      </trkpt>
      <trkpt lat="45.96243" lon="4.93963">
        <ele>290</ele>
        <time>2017-07-10T09:57:02Z</time>
      </trkpt>
      <trkpt lat="45.96236" lon="4.93968">
        <ele>290</ele>
        <time>2017-07-10T09:57:03Z</time>
      </trkpt>
      <trkpt lat="45.9623" lon="4.93972">
        <ele>290</ele>
        <time>2017-07-10T09:57:04Z</time>
      </trkpt>
      <trkpt lat="45.96223" lon="4.93978">
        <ele>290</ele>
        <time>2017-07-10T09:57:05Z</time>
      </trkpt>
      <trkpt lat="45.96217" lon="4.93983">
        <ele>290</ele>
        <time>2017-07-10T09:57:06Z</time>
      </trkpt>
      <trkpt lat="45.96211" lon="4.93989">
        <ele>290</ele>
        <time>2017-07-10T09:57:07Z</time>
      </trkpt>
      <trkpt lat="45.96204" lon="4.93994">
        <ele>290</ele>
        <time>2017-07-10T09:57:08Z</time>
      </trkpt>
      <trkpt lat="45.96198" lon="4.93999">
        <ele>290</ele>
        <time>2017-07-10T09:57:09Z</time>
      </trkpt>
      <trkpt lat="45.96192" lon="4.94004">
        <ele>290</ele>
        <time>2017-07-10T09:57:10Z</time>
      </trkpt>
      <trkpt lat="45.96186" lon="4.94009">
        <ele>290</ele>
        <time>2017-07-10T09:57:11Z</time>
      </trkpt>
      <trkpt lat="45.96181" lon="4.94014">
        <ele>290</ele>
        <time>2017-07-10T09:57:12Z</time>
      </trkpt>
      <trkpt lat="45.96175" lon="4.94018">
        <ele>290</ele>
        <time>2017-07-10T09:57:13Z</time>
      </trkpt>
      <trkpt lat="45.9617" lon="4.94023">
        <ele>290</ele>
        <time>2017-07-10T09:57:14Z</time>
      </trkpt>
      <trkpt lat="45.96165" lon="4.94028">
        <ele>290</ele>
        <time>2017-07-10T09:57:15Z</time>
      </trkpt>
      <trkpt lat="45.96159" lon="4.94032">
        <ele>290</ele>
        <time>2017-07-10T09:57:16Z</time>
      </trkpt>
      <trkpt lat="45.96154" lon="4.94037">
        <ele>290</ele>
        <time>2017-07-10T09:57:17Z</time>
      </trkpt>
      <trkpt lat="45.96149" lon="4.94041">
        <ele>290</ele>
        <time>2017-07-10T09:57:18Z</time>
      </trkpt>
      <trkpt lat="45.96144" lon="4.94045">
        <ele>290</ele>
        <time>2017-07-10T09:57:19Z</time>
      </trkpt>
      <trkpt lat="45.9614" lon="4.94049">
        <ele>290</ele>
        <time>2017-07-10T09:57:20Z</time>
      </trkpt>
      <trkpt lat="45.96136" lon="4.94053">
        <ele>290</ele>
        <time>2017-07-10T09:57:21Z</time>
      </trkpt>
      <trkpt lat="45.96131" lon="4.94057">
        <ele>290</ele>
        <time>2017-07-10T09:57:22Z</time>
      </trkpt>
      <trkpt lat="45.96126" lon="4.94061">
        <ele>290</ele>
        <time>2017-07-10T09:57:23Z</time>
      </trkpt>
      <trkpt lat="45.96121" lon="4.94065">
        <ele>290</ele>
        <time>2017-07-10T09:57:24Z</time>
      </trkpt>
      <trkpt lat="45.96116" lon="4.94069">
        <ele>290</ele>
        <time>2017-07-10T09:57:25Z</time>
      </trkpt>
      <trkpt lat="45.96111" lon="4.94073">
        <ele>291</ele>
        <time>2017-07-10T09:57:26Z</time>
      </trkpt>
      <trkpt lat="45.96107" lon="4.94077">
        <ele>291</ele>
        <time>2017-07-10T09:57:27Z</time>
      </trkpt>
      <trkpt lat="45.96102" lon="4.94081">
        <ele>291</ele>
        <time>2017-07-10T09:57:28Z</time>
      </trkpt>
      <trkpt lat="45.96097" lon="4.94085">
        <ele>291</ele>
        <time>2017-07-10T09:57:29Z</time>
      </trkpt>
      <trkpt lat="45.96093" lon="4.94089">
        <ele>291</ele>
        <time>2017-07-10T09:57:30Z</time>
      </trkpt>
      <trkpt lat="45.96088" lon="4.94092">
        <ele>291</ele>
        <time>2017-07-10T09:57:31Z</time>
      </trkpt>
      <trkpt lat="45.96084" lon="4.94096">
        <ele>291</ele>
        <time>2017-07-10T09:57:32Z</time>
      </trkpt>
      <trkpt lat="45.9608" lon="4.941">
        <ele>291</ele>
        <time>2017-07-10T09:57:33Z</time>
      </trkpt>
      <trkpt lat="45.96075" lon="4.94103">
        <ele>291</ele>
        <time>2017-07-10T09:57:34Z</time>
      </trkpt>
      <trkpt lat="45.96071" lon="4.94107">
        <ele>291</ele>
        <time>2017-07-10T09:57:35Z</time>
      </trkpt>
      <trkpt lat="45.96066" lon="4.94111">
        <ele>291</ele>
        <time>2017-07-10T09:57:36Z</time>
      </trkpt>
      <trkpt lat="45.96062" lon="4.94114">
        <ele>291</ele>
        <time>2017-07-10T09:57:37Z</time>
      </trkpt>
      <trkpt lat="45.96057" lon="4.94118">
        <ele>291</ele>
        <time>2017-07-10T09:57:38Z</time>
      </trkpt>
      <trkpt lat="45.96053" lon="4.94121">
        <ele>291</ele>
        <time>2017-07-10T09:57:39Z</time>
      </trkpt>
      <trkpt lat="45.96049" lon="4.94124">
        <ele>291</ele>
        <time>2017-07-10T09:57:40Z</time>
      </trkpt>
      <trkpt lat="45.96044" lon="4.94125">
        <ele>291</ele>
        <time>2017-07-10T09:57:41Z</time>
      </trkpt>
      <trkpt lat="45.96039" lon="4.94127">
        <ele>291</ele>
        <time>2017-07-10T09:57:42Z</time>
      </trkpt>
      <trkpt lat="45.96034" lon="4.94128">
        <ele>291</ele>
        <time>2017-07-10T09:57:43Z</time>
      </trkpt>
      <trkpt lat="45.96029" lon="4.94128">
        <ele>291</ele>
        <time>2017-07-10T09:57:44Z</time>
      </trkpt>
      <trkpt lat="45.96024" lon="4.94127">
        <ele>291</ele>
        <time>2017-07-10T09:57:45Z</time>
      </trkpt>
      <trkpt lat="45.96019" lon="4.94126">
        <ele>291</ele>
        <time>2017-07-10T09:57:46Z</time>
      </trkpt>
      <trkpt lat="45.96013" lon="4.94126">
        <ele>291</ele>
        <time>2017-07-10T09:57:47Z</time>
      </trkpt>
      <trkpt lat="45.96008" lon="4.94125">
        <ele>291</ele>
        <time>2017-07-10T09:57:48Z</time>
      </trkpt>
      <trkpt lat="45.96003" lon="4.94124">
        <ele>291</ele>
        <time>2017-07-10T09:57:49Z</time>
      </trkpt>
      <trkpt lat="45.95994" lon="4.94121">
        <ele>291</ele>
        <time>2017-07-10T09:57:51Z</time>
      </trkpt>
      <trkpt lat="45.95991" lon="4.9412">
        <ele>292</ele>
        <time>2017-07-10T09:57:52Z</time>
      </trkpt>
      <trkpt lat="45.95982" lon="4.94117">
        <ele>292</ele>
        <time>2017-07-10T09:57:54Z</time>
      </trkpt>
      <trkpt lat="45.95978" lon="4.94116">
        <ele>292</ele>
        <time>2017-07-10T09:57:55Z</time>
      </trkpt>
      <trkpt lat="45.95973" lon="4.94115">
        <ele>292</ele>
        <time>2017-07-10T09:57:56Z</time>
      </trkpt>
      <trkpt lat="45.95968" lon="4.94113">
        <ele>292</ele>
        <time>2017-07-10T09:57:57Z</time>
      </trkpt>
      <trkpt lat="45.95963" lon="4.94112">
        <ele>292</ele>
        <time>2017-07-10T09:57:58Z</time>
      </trkpt>
      <trkpt lat="45.95959" lon="4.9411">
        <ele>292</ele>
        <time>2017-07-10T09:57:59Z</time>
      </trkpt>
      <trkpt lat="45.95954" lon="4.94108">
        <ele>292</ele>
        <time>2017-07-10T09:58:00Z</time>
      </trkpt>
      <trkpt lat="45.95949" lon="4.94107">
        <ele>292</ele>
        <time>2017-07-10T09:58:01Z</time>
      </trkpt>
      <trkpt lat="45.95944" lon="4.94105">
        <ele>292</ele>
        <time>2017-07-10T09:58:02Z</time>
      </trkpt>
      <trkpt lat="45.9594" lon="4.94104">
        <ele>292</ele>
        <time>2017-07-10T09:58:03Z</time>
      </trkpt>
      <trkpt lat="45.95931" lon="4.94102">
        <ele>292</ele>
        <time>2017-07-10T09:58:05Z</time>
      </trkpt>
      <trkpt lat="45.95926" lon="4.94101">
        <ele>292</ele>
        <time>2017-07-10T09:58:06Z</time>
      </trkpt>
      <trkpt lat="45.95921" lon="4.941">
        <ele>292</ele>
        <time>2017-07-10T09:58:07Z</time>
      </trkpt>
      <trkpt lat="45.95917" lon="4.94099">
        <ele>293</ele>
        <time>2017-07-10T09:58:08Z</time>
      </trkpt>
      <trkpt lat="45.95912" lon="4.94098">
        <ele>293</ele>
        <time>2017-07-10T09:58:09Z</time>
      </trkpt>
      <trkpt lat="45.95907" lon="4.94097">
        <ele>293</ele>
        <time>2017-07-10T09:58:10Z</time>
      </trkpt>
      <trkpt lat="45.95902" lon="4.94096">
        <ele>293</ele>
        <time>2017-07-10T09:58:11Z</time>
      </trkpt>
      <trkpt lat="45.95897" lon="4.94095">
        <ele>293</ele>
        <time>2017-07-10T09:58:12Z</time>
      </trkpt>
      <trkpt lat="45.95892" lon="4.94093">
        <ele>293</ele>
        <time>2017-07-10T09:58:13Z</time>
      </trkpt>
      <trkpt lat="45.95887" lon="4.94091">
        <ele>293</ele>
        <time>2017-07-10T09:58:14Z</time>
      </trkpt>
      <trkpt lat="45.95883" lon="4.94089">
        <ele>293</ele>
        <time>2017-07-10T09:58:15Z</time>
      </trkpt>
      <trkpt lat="45.95878" lon="4.94087">
        <ele>293</ele>
        <time>2017-07-10T09:58:16Z</time>
      </trkpt>
      <trkpt lat="45.95873" lon="4.94086">
        <ele>293</ele>
        <time>2017-07-10T09:58:17Z</time>
      </trkpt>
      <trkpt lat="45.95868" lon="4.94085">
        <ele>293</ele>
        <time>2017-07-10T09:58:18Z</time>
      </trkpt>
      <trkpt lat="45.95863" lon="4.94083">
        <ele>293</ele>
        <time>2017-07-10T09:58:19Z</time>
      </trkpt>
      <trkpt lat="45.95857" lon="4.94082">
        <ele>293</ele>
        <time>2017-07-10T09:58:20Z</time>
      </trkpt>
      <trkpt lat="45.95852" lon="4.9408">
        <ele>293</ele>
        <time>2017-07-10T09:58:21Z</time>
      </trkpt>
      <trkpt lat="45.95846" lon="4.94079">
        <ele>293</ele>
        <time>2017-07-10T09:58:22Z</time>
      </trkpt>
      <trkpt lat="45.95842" lon="4.94078">
        <ele>294</ele>
        <time>2017-07-10T09:58:23Z</time>
      </trkpt>
      <trkpt lat="45.95836" lon="4.94077">
        <ele>294</ele>
        <time>2017-07-10T09:58:24Z</time>
      </trkpt>
      <trkpt lat="45.95831" lon="4.94076">
        <ele>294</ele>
        <time>2017-07-10T09:58:25Z</time>
      </trkpt>
      <trkpt lat="45.95826" lon="4.94075">
        <ele>294</ele>
        <time>2017-07-10T09:58:26Z</time>
      </trkpt>
      <trkpt lat="45.95821" lon="4.94074">
        <ele>294</ele>
        <time>2017-07-10T09:58:27Z</time>
      </trkpt>
      <trkpt lat="45.95815" lon="4.94073">
        <ele>294</ele>
        <time>2017-07-10T09:58:28Z</time>
      </trkpt>
      <trkpt lat="45.95811" lon="4.94073">
        <ele>294</ele>
        <time>2017-07-10T09:58:29Z</time>
      </trkpt>
      <trkpt lat="45.95806" lon="4.94071">
        <ele>294</ele>
        <time>2017-07-10T09:58:30Z</time>
      </trkpt>
      <trkpt lat="45.95797" lon="4.94069">
        <ele>294</ele>
        <time>2017-07-10T09:58:32Z</time>
      </trkpt>
      <trkpt lat="45.95793" lon="4.94067">
        <ele>294</ele>
        <time>2017-07-10T09:58:33Z</time>
      </trkpt>
      <trkpt lat="45.95789" lon="4.94066">
        <ele>294</ele>
        <time>2017-07-10T09:58:34Z</time>
      </trkpt>
      <trkpt lat="45.95784" lon="4.94065">
        <ele>294</ele>
        <time>2017-07-10T09:58:35Z</time>
      </trkpt>
      <trkpt lat="45.95779" lon="4.94063">
        <ele>294</ele>
        <time>2017-07-10T09:58:36Z</time>
      </trkpt>
      <trkpt lat="45.95775" lon="4.94061">
        <ele>294</ele>
        <time>2017-07-10T09:58:37Z</time>
      </trkpt>
      <trkpt lat="45.9577" lon="4.9406">
        <ele>294</ele>
        <time>2017-07-10T09:58:38Z</time>
      </trkpt>
      <trkpt lat="45.95765" lon="4.94059">
        <ele>294</ele>
        <time>2017-07-10T09:58:39Z</time>
      </trkpt>
      <trkpt lat="45.95756" lon="4.94056">
        <ele>294</ele>
        <time>2017-07-10T09:58:41Z</time>
      </trkpt>
      <trkpt lat="45.95752" lon="4.94056">
        <ele>294</ele>
        <time>2017-07-10T09:58:42Z</time>
      </trkpt>
      <trkpt lat="45.95747" lon="4.94055">
        <ele>295</ele>
        <time>2017-07-10T09:58:43Z</time>
      </trkpt>
      <trkpt lat="45.95742" lon="4.94053">
        <ele>295</ele>
        <time>2017-07-10T09:58:44Z</time>
      </trkpt>
      <trkpt lat="45.95738" lon="4.94051">
        <ele>295</ele>
        <time>2017-07-10T09:58:45Z</time>
      </trkpt>
      <trkpt lat="45.95733" lon="4.94049">
        <ele>295</ele>
        <time>2017-07-10T09:58:46Z</time>
      </trkpt>
      <trkpt lat="45.95729" lon="4.94048">
        <ele>295</ele>
        <time>2017-07-10T09:58:47Z</time>
      </trkpt>
      <trkpt lat="45.95724" lon="4.94046">
        <ele>295</ele>
        <time>2017-07-10T09:58:48Z</time>
      </trkpt>
      <trkpt lat="45.95715" lon="4.94045">
        <ele>295</ele>
        <time>2017-07-10T09:58:50Z</time>
      </trkpt>
      <trkpt lat="45.95711" lon="4.94044">
        <ele>295</ele>
        <time>2017-07-10T09:58:51Z</time>
      </trkpt>
      <trkpt lat="45.95706" lon="4.94043">
        <ele>295</ele>
        <time>2017-07-10T09:58:52Z</time>
      </trkpt>
      <trkpt lat="45.95702" lon="4.94042">
        <ele>295</ele>
        <time>2017-07-10T09:58:53Z</time>
      </trkpt>
      <trkpt lat="45.95693" lon="4.9404">
        <ele>295</ele>
        <time>2017-07-10T09:58:55Z</time>
      </trkpt>
      <trkpt lat="45.9569" lon="4.9404">
        <ele>295</ele>
        <time>2017-07-10T09:58:56Z</time>
      </trkpt>
      <trkpt lat="45.95686" lon="4.94039">
        <ele>295</ele>
        <time>2017-07-10T09:58:57Z</time>
      </trkpt>
      <trkpt lat="45.95681" lon="4.94037">
        <ele>295</ele>
        <time>2017-07-10T09:58:58Z</time>
      </trkpt>
      <trkpt lat="45.95675" lon="4.94029">
        <ele>295</ele>
        <time>2017-07-10T09:59:00Z</time>
      </trkpt>
      <trkpt lat="45.95674" lon="4.94024">
        <ele>295</ele>
        <time>2017-07-10T09:59:01Z</time>
      </trkpt>
      <trkpt lat="45.95674" lon="4.94013">
        <ele>295</ele>
        <time>2017-07-10T09:59:03Z</time>
      </trkpt>
      <trkpt lat="45.95674" lon="4.94008">
        <ele>296</ele>
        <time>2017-07-10T09:59:04Z</time>
      </trkpt>
      <trkpt lat="45.95674" lon="4.93998">
        <ele>296</ele>
        <time>2017-07-10T09:59:06Z</time>
      </trkpt>
      <trkpt lat="45.95672" lon="4.93993">
        <ele>295</ele>
        <time>2017-07-10T09:59:07Z</time>
      </trkpt>
      <trkpt lat="45.95665" lon="4.93985">
        <ele>295</ele>
        <time>2017-07-10T09:59:10Z</time>
      </trkpt>
      <trkpt lat="45.95662" lon="4.93983">
        <ele>295</ele>
        <time>2017-07-10T09:59:11Z</time>
      </trkpt>
      <trkpt lat="45.95656" lon="4.93976">
        <ele>294</ele>
        <time>2017-07-10T09:59:13Z</time>
      </trkpt>
      <trkpt lat="45.95654" lon="4.93972">
        <ele>294</ele>
        <time>2017-07-10T09:59:14Z</time>
      </trkpt>
      <trkpt lat="45.95652" lon="4.93966">
        <ele>294</ele>
        <time>2017-07-10T09:59:15Z</time>
      </trkpt>
      <trkpt lat="45.95652" lon="4.93959">
        <ele>294</ele>
        <time>2017-07-10T09:59:16Z</time>
      </trkpt>
      <trkpt lat="45.95651" lon="4.93952">
        <ele>294</ele>
        <time>2017-07-10T09:59:17Z</time>
      </trkpt>
      <trkpt lat="45.9565" lon="4.93942">
        <ele>294</ele>
        <time>2017-07-10T09:59:18Z</time>
      </trkpt>
      <trkpt lat="45.95651" lon="4.93933">
        <ele>294</ele>
        <time>2017-07-10T09:59:19Z</time>
      </trkpt>
      <trkpt lat="45.95652" lon="4.93922">
        <ele>294</ele>
        <time>2017-07-10T09:59:20Z</time>
      </trkpt>
      <trkpt lat="45.95653" lon="4.93911">
        <ele>292</ele>
        <time>2017-07-10T09:59:21Z</time>
      </trkpt>
      <trkpt lat="45.95655" lon="4.93901">
        <ele>292</ele>
        <time>2017-07-10T09:59:22Z</time>
      </trkpt>
      <trkpt lat="45.95657" lon="4.93892">
        <ele>292</ele>
        <time>2017-07-10T09:59:23Z</time>
      </trkpt>
      <trkpt lat="45.95658" lon="4.93883">
        <ele>291</ele>
        <time>2017-07-10T09:59:24Z</time>
      </trkpt>
      <trkpt lat="45.95657" lon="4.93874">
        <ele>291</ele>
        <time>2017-07-10T09:59:25Z</time>
      </trkpt>
      <trkpt lat="45.95653" lon="4.93866">
        <ele>290</ele>
        <time>2017-07-10T09:59:26Z</time>
      </trkpt>
      <trkpt lat="45.95649" lon="4.93859">
        <ele>290</ele>
        <time>2017-07-10T09:59:27Z</time>
      </trkpt>
      <trkpt lat="45.95643" lon="4.93854">
        <ele>290</ele>
        <time>2017-07-10T09:59:28Z</time>
      </trkpt>
      <trkpt lat="45.95635" lon="4.9385">
        <ele>290</ele>
        <time>2017-07-10T09:59:29Z</time>
      </trkpt>
      <trkpt lat="45.95628" lon="4.93846">
        <ele>290</ele>
        <time>2017-07-10T09:59:30Z</time>
      </trkpt>
      <trkpt lat="45.95622" lon="4.93842">
        <ele>290</ele>
        <time>2017-07-10T09:59:31Z</time>
      </trkpt>
      <trkpt lat="45.95616" lon="4.93838">
        <ele>290</ele>
        <time>2017-07-10T09:59:32Z</time>
      </trkpt>
      <trkpt lat="45.9561" lon="4.93834">
        <ele>290</ele>
        <time>2017-07-10T09:59:33Z</time>
      </trkpt>
      <trkpt lat="45.95604" lon="4.93829">
        <ele>289</ele>
        <time>2017-07-10T09:59:34Z</time>
      </trkpt>
      <trkpt lat="45.95598" lon="4.93824">
        <ele>289</ele>
        <time>2017-07-10T09:59:35Z</time>
      </trkpt>
      <trkpt lat="45.95593" lon="4.93819">
        <ele>289</ele>
        <time>2017-07-10T09:59:36Z</time>
      </trkpt>
      <trkpt lat="45.95588" lon="4.93813">
        <ele>289</ele>
        <time>2017-07-10T09:59:37Z</time>
      </trkpt>
      <trkpt lat="45.95583" lon="4.93808">
        <ele>290</ele>
        <time>2017-07-10T09:59:38Z</time>
      </trkpt>
      <trkpt lat="45.95578" lon="4.93803">
        <ele>290</ele>
        <time>2017-07-10T09:59:39Z</time>
      </trkpt>
      <trkpt lat="45.95574" lon="4.93797">
        <ele>290</ele>
        <time>2017-07-10T09:59:40Z</time>
      </trkpt>
      <trkpt lat="45.9557" lon="4.93791">
        <ele>290</ele>
        <time>2017-07-10T09:59:41Z</time>
      </trkpt>
      <trkpt lat="45.95568" lon="4.93783">
        <ele>290</ele>
        <time>2017-07-10T09:59:42Z</time>
      </trkpt>
      <trkpt lat="45.95565" lon="4.93775">
        <ele>290</ele>
        <time>2017-07-10T09:59:43Z</time>
      </trkpt>
      <trkpt lat="45.95564" lon="4.93768">
        <ele>290</ele>
        <time>2017-07-10T09:59:44Z</time>
      </trkpt>
      <trkpt lat="45.95563" lon="4.93761">
        <ele>290</ele>
        <time>2017-07-10T09:59:45Z</time>
      </trkpt>
      <trkpt lat="45.95562" lon="4.93753">
        <ele>290</ele>
        <time>2017-07-10T09:59:46Z</time>
      </trkpt>
      <trkpt lat="45.95562" lon="4.93746">
        <ele>290</ele>
        <time>2017-07-10T09:59:47Z</time>
      </trkpt>
      <trkpt lat="45.95562" lon="4.93739">
        <ele>290</ele>
        <time>2017-07-10T09:59:48Z</time>
      </trkpt>
      <trkpt lat="45.95564" lon="4.93732">
        <ele>290</ele>
        <time>2017-07-10T09:59:49Z</time>
      </trkpt>
      <trkpt lat="45.95564" lon="4.93726">
        <ele>290</ele>
        <time>2017-07-10T09:59:50Z</time>
      </trkpt>
      <trkpt lat="45.95565" lon="4.93719">
        <ele>290</ele>
        <time>2017-07-10T09:59:51Z</time>
      </trkpt>
      <trkpt lat="45.95565" lon="4.93712">
        <ele>290</ele>
        <time>2017-07-10T09:59:52Z</time>
      </trkpt>
      <trkpt lat="45.95565" lon="4.93705">
        <ele>290</ele>
        <time>2017-07-10T09:59:53Z</time>
      </trkpt>
      <trkpt lat="45.95565" lon="4.93698">
        <ele>290</ele>
        <time>2017-07-10T09:59:54Z</time>
      </trkpt>
      <trkpt lat="45.95565" lon="4.9369">
        <ele>290</ele>
        <time>2017-07-10T09:59:55Z</time>
      </trkpt>
      <trkpt lat="45.95566" lon="4.93682">
        <ele>289</ele>
        <time>2017-07-10T09:59:56Z</time>
      </trkpt>
      <trkpt lat="45.95566" lon="4.93674">
        <ele>289</ele>
        <time>2017-07-10T09:59:57Z</time>
      </trkpt>
      <trkpt lat="45.95566" lon="4.93666">
        <ele>289</ele>
        <time>2017-07-10T09:59:58Z</time>
      </trkpt>
      <trkpt lat="45.95568" lon="4.93659">
        <ele>289</ele>
        <time>2017-07-10T09:59:59Z</time>
      </trkpt>
      <trkpt lat="45.95568" lon="4.93651">
        <ele>289</ele>
        <time>2017-07-10T10:00:00Z</time>
      </trkpt>
      <trkpt lat="45.9557" lon="4.93644">
        <ele>289</ele>
        <time>2017-07-10T10:00:01Z</time>
      </trkpt>
      <trkpt lat="45.95571" lon="4.93637">
        <ele>289</ele>
        <time>2017-07-10T10:00:02Z</time>
      </trkpt>
      <trkpt lat="45.95572" lon="4.93631">
        <ele>289</ele>
        <time>2017-07-10T10:00:03Z</time>
      </trkpt>
      <trkpt lat="45.95573" lon="4.93624">
        <ele>289</ele>
        <time>2017-07-10T10:00:04Z</time>
      </trkpt>
      <trkpt lat="45.95574" lon="4.93617">
        <ele>289</ele>
        <time>2017-07-10T10:00:05Z</time>
      </trkpt>
      <trkpt lat="45.95576" lon="4.93609">
        <ele>289</ele>
        <time>2017-07-10T10:00:06Z</time>
      </trkpt>
      <trkpt lat="45.95576" lon="4.93602">
        <ele>289</ele>
        <time>2017-07-10T10:00:07Z</time>
      </trkpt>
      <trkpt lat="45.95577" lon="4.93595">
        <ele>289</ele>
        <time>2017-07-10T10:00:08Z</time>
      </trkpt>
      <trkpt lat="45.95578" lon="4.93588">
        <ele>289</ele>
        <time>2017-07-10T10:00:09Z</time>
      </trkpt>
      <trkpt lat="45.95579" lon="4.93582">
        <ele>289</ele>
        <time>2017-07-10T10:00:10Z</time>
      </trkpt>
      <trkpt lat="45.9558" lon="4.93575">
        <ele>289</ele>
        <time>2017-07-10T10:00:11Z</time>
      </trkpt>
      <trkpt lat="45.95581" lon="4.93569">
        <ele>289</ele>
        <time>2017-07-10T10:00:12Z</time>
      </trkpt>
      <trkpt lat="45.95583" lon="4.93563">
        <ele>289</ele>
        <time>2017-07-10T10:00:13Z</time>
      </trkpt>
      <trkpt lat="45.95584" lon="4.93556">
        <ele>289</ele>
        <time>2017-07-10T10:00:14Z</time>
      </trkpt>
      <trkpt lat="45.95584" lon="4.9355">
        <ele>289</ele>
        <time>2017-07-10T10:00:15Z</time>
      </trkpt>
      <trkpt lat="45.95585" lon="4.93543">
        <ele>289</ele>
        <time>2017-07-10T10:00:16Z</time>
      </trkpt>
      <trkpt lat="45.95584" lon="4.93536">
        <ele>289</ele>
        <time>2017-07-10T10:00:17Z</time>
      </trkpt>
      <trkpt lat="45.95584" lon="4.93528">
        <ele>289</ele>
        <time>2017-07-10T10:00:18Z</time>
      </trkpt>
      <trkpt lat="45.95583" lon="4.93521">
        <ele>290</ele>
        <time>2017-07-10T10:00:19Z</time>
      </trkpt>
      <trkpt lat="45.95581" lon="4.93514">
        <ele>290</ele>
        <time>2017-07-10T10:00:20Z</time>
      </trkpt>
      <trkpt lat="45.95579" lon="4.93507">
        <ele>290</ele>
        <time>2017-07-10T10:00:21Z</time>
      </trkpt>
      <trkpt lat="45.95576" lon="4.93501">
        <ele>290</ele>
        <time>2017-07-10T10:00:22Z</time>
      </trkpt>
      <trkpt lat="45.95574" lon="4.93495">
        <ele>290</ele>
        <time>2017-07-10T10:00:23Z</time>
      </trkpt>
      <trkpt lat="45.95571" lon="4.93489">
        <ele>290</ele>
        <time>2017-07-10T10:00:24Z</time>
      </trkpt>
      <trkpt lat="45.95567" lon="4.93483">
        <ele>290</ele>
        <time>2017-07-10T10:00:25Z</time>
      </trkpt>
      <trkpt lat="45.95564" lon="4.93477">
        <ele>289</ele>
        <time>2017-07-10T10:00:26Z</time>
      </trkpt>
      <trkpt lat="45.9556" lon="4.93471">
        <ele>289</ele>
        <time>2017-07-10T10:00:27Z</time>
      </trkpt>
      <trkpt lat="45.95557" lon="4.93465">
        <ele>289</ele>
        <time>2017-07-10T10:00:28Z</time>
      </trkpt>
      <trkpt lat="45.95554" lon="4.93459">
        <ele>289</ele>
        <time>2017-07-10T10:00:29Z</time>
      </trkpt>
      <trkpt lat="45.95552" lon="4.93453">
        <ele>289</ele>
        <time>2017-07-10T10:00:30Z</time>
      </trkpt>
      <trkpt lat="45.95549" lon="4.93442">
        <ele>289</ele>
        <time>2017-07-10T10:00:32Z</time>
      </trkpt>
      <trkpt lat="45.95547" lon="4.93436">
        <ele>289</ele>
        <time>2017-07-10T10:00:33Z</time>
      </trkpt>
      <trkpt lat="45.95544" lon="4.93425">
        <ele>289</ele>
        <time>2017-07-10T10:00:35Z</time>
      </trkpt>
      <trkpt lat="45.95542" lon="4.93419">
        <ele>289</ele>
        <time>2017-07-10T10:00:36Z</time>
      </trkpt>
      <trkpt lat="45.95541" lon="4.93414">
        <ele>289</ele>
        <time>2017-07-10T10:00:37Z</time>
      </trkpt>
      <trkpt lat="45.95538" lon="4.93408">
        <ele>289</ele>
        <time>2017-07-10T10:00:38Z</time>
      </trkpt>
      <trkpt lat="45.95537" lon="4.93402">
        <ele>289</ele>
        <time>2017-07-10T10:00:39Z</time>
      </trkpt>
      <trkpt lat="45.95534" lon="4.93395">
        <ele>289</ele>
        <time>2017-07-10T10:00:40Z</time>
      </trkpt>
      <trkpt lat="45.95531" lon="4.93389">
        <ele>289</ele>
        <time>2017-07-10T10:00:41Z</time>
      </trkpt>
      <trkpt lat="45.95529" lon="4.93383">
        <ele>289</ele>
        <time>2017-07-10T10:00:42Z</time>
      </trkpt>
      <trkpt lat="45.95526" lon="4.93377">
        <ele>289</ele>
        <time>2017-07-10T10:00:43Z</time>
      </trkpt>
      <trkpt lat="45.95523" lon="4.9337">
        <ele>289</ele>
        <time>2017-07-10T10:00:44Z</time>
      </trkpt>
      <trkpt lat="45.9552" lon="4.93364">
        <ele>289</ele>
        <time>2017-07-10T10:00:45Z</time>
      </trkpt>
      <trkpt lat="45.95517" lon="4.93359">
        <ele>289</ele>
        <time>2017-07-10T10:00:46Z</time>
      </trkpt>
      <trkpt lat="45.95514" lon="4.93352">
        <ele>289</ele>
        <time>2017-07-10T10:00:47Z</time>
      </trkpt>
      <trkpt lat="45.95511" lon="4.93346">
        <ele>289</ele>
        <time>2017-07-10T10:00:48Z</time>
      </trkpt>
      <trkpt lat="45.95508" lon="4.93339">
        <ele>289</ele>
        <time>2017-07-10T10:00:49Z</time>
      </trkpt>
      <trkpt lat="45.95505" lon="4.93332">
        <ele>289</ele>
        <time>2017-07-10T10:00:50Z</time>
      </trkpt>
      <trkpt lat="45.95503" lon="4.93325">
        <ele>289</ele>
        <time>2017-07-10T10:00:51Z</time>
      </trkpt>
      <trkpt lat="45.955" lon="4.93319">
        <ele>289</ele>
        <time>2017-07-10T10:00:52Z</time>
      </trkpt>
      <trkpt lat="45.95497" lon="4.93313">
        <ele>290</ele>
        <time>2017-07-10T10:00:53Z</time>
      </trkpt>
      <trkpt lat="45.95495" lon="4.93307">
        <ele>290</ele>
        <time>2017-07-10T10:00:54Z</time>
      </trkpt>
      <trkpt lat="45.95492" lon="4.93301">
        <ele>290</ele>
        <time>2017-07-10T10:00:55Z</time>
      </trkpt>
      <trkpt lat="45.9549" lon="4.93295">
        <ele>290</ele>
        <time>2017-07-10T10:00:56Z</time>
      </trkpt>
      <trkpt lat="45.95488" lon="4.9329">
        <ele>290</ele>
        <time>2017-07-10T10:00:57Z</time>
      </trkpt>
      <trkpt lat="45.95486" lon="4.93283">
        <ele>290</ele>
        <time>2017-07-10T10:00:58Z</time>
      </trkpt>
      <trkpt lat="45.95484" lon="4.93277">
        <ele>290</ele>
        <time>2017-07-10T10:00:59Z</time>
      </trkpt>
      <trkpt lat="45.95481" lon="4.9327">
        <ele>290</ele>
        <time>2017-07-10T10:01:00Z</time>
      </trkpt>
      <trkpt lat="45.95477" lon="4.93264">
        <ele>290</ele>
        <time>2017-07-10T10:01:01Z</time>
      </trkpt>
      <trkpt lat="45.95474" lon="4.93258">
        <ele>290</ele>
        <time>2017-07-10T10:01:02Z</time>
      </trkpt>
      <trkpt lat="45.9547" lon="4.93252">
        <ele>290</ele>
        <time>2017-07-10T10:01:03Z</time>
      </trkpt>
      <trkpt lat="45.95467" lon="4.93246">
        <ele>290</ele>
        <time>2017-07-10T10:01:04Z</time>
      </trkpt>
      <trkpt lat="45.95464" lon="4.93241">
        <ele>290</ele>
        <time>2017-07-10T10:01:05Z</time>
      </trkpt>
      <trkpt lat="45.95461" lon="4.93234">
        <ele>290</ele>
        <time>2017-07-10T10:01:06Z</time>
      </trkpt>
      <trkpt lat="45.95459" lon="4.93228">
        <ele>290</ele>
        <time>2017-07-10T10:01:07Z</time>
      </trkpt>
      <trkpt lat="45.95457" lon="4.93221">
        <ele>291</ele>
        <time>2017-07-10T10:01:08Z</time>
      </trkpt>
      <trkpt lat="45.95455" lon="4.93215">
        <ele>291</ele>
        <time>2017-07-10T10:01:09Z</time>
      </trkpt>
      <trkpt lat="45.95454" lon="4.93208">
        <ele>291</ele>
        <time>2017-07-10T10:01:10Z</time>
      </trkpt>
      <trkpt lat="45.95454" lon="4.932">
        <ele>291</ele>
        <time>2017-07-10T10:01:11Z</time>
      </trkpt>
      <trkpt lat="45.95455" lon="4.93193">
        <ele>291</ele>
        <time>2017-07-10T10:01:12Z</time>
      </trkpt>
      <trkpt lat="45.95456" lon="4.93185">
        <ele>291</ele>
        <time>2017-07-10T10:01:13Z</time>
      </trkpt>
      <trkpt lat="45.95458" lon="4.93179">
        <ele>291</ele>
        <time>2017-07-10T10:01:14Z</time>
      </trkpt>
      <trkpt lat="45.95464" lon="4.93172">
        <ele>290</ele>
        <time>2017-07-10T10:01:16Z</time>
      </trkpt>
      <trkpt lat="45.95467" lon="4.93169">
        <ele>290</ele>
        <time>2017-07-10T10:01:17Z</time>
      </trkpt>
      <trkpt lat="45.95472" lon="4.93166">
        <ele>290</ele>
        <time>2017-07-10T10:01:18Z</time>
      </trkpt>
      <trkpt lat="45.95475" lon="4.93163">
        <ele>290</ele>
        <time>2017-07-10T10:01:19Z</time>
      </trkpt>
      <trkpt lat="45.95482" lon="4.93156">
        <ele>290</ele>
        <time>2017-07-10T10:01:21Z</time>
      </trkpt>
      <trkpt lat="45.95484" lon="4.93153">
        <ele>290</ele>
        <time>2017-07-10T10:01:22Z</time>
      </trkpt>
      <trkpt lat="45.95488" lon="4.93149">
        <ele>290</ele>
        <time>2017-07-10T10:01:23Z</time>
      </trkpt>
      <trkpt lat="45.95492" lon="4.93146">
        <ele>290</ele>
        <time>2017-07-10T10:01:24Z</time>
      </trkpt>
      <trkpt lat="45.95496" lon="4.93143">
        <ele>290</ele>
        <time>2017-07-10T10:01:25Z</time>
      </trkpt>
      <trkpt lat="45.95501" lon="4.93139">
        <ele>289</ele>
        <time>2017-07-10T10:01:26Z</time>
      </trkpt>
      <trkpt lat="45.95508" lon="4.93133">
        <ele>289</ele>
        <time>2017-07-10T10:01:28Z</time>
      </trkpt>
      <trkpt lat="45.95511" lon="4.93129">
        <ele>289</ele>
        <time>2017-07-10T10:01:29Z</time>
      </trkpt>
      <trkpt lat="45.95518" lon="4.93123">
        <ele>289</ele>
        <time>2017-07-10T10:01:31Z</time>
      </trkpt>
      <trkpt lat="45.95522" lon="4.93119">
        <ele>289</ele>
        <time>2017-07-10T10:01:32Z</time>
      </trkpt>
      <trkpt lat="45.95526" lon="4.93114">
        <ele>289</ele>
        <time>2017-07-10T10:01:33Z</time>
      </trkpt>
      <trkpt lat="45.9553" lon="4.9311">
        <ele>289</ele>
        <time>2017-07-10T10:01:34Z</time>
      </trkpt>
      <trkpt lat="45.95533" lon="4.93105">
        <ele>289</ele>
        <time>2017-07-10T10:01:35Z</time>
      </trkpt>
      <trkpt lat="45.95537" lon="4.931">
        <ele>289</ele>
        <time>2017-07-10T10:01:36Z</time>
      </trkpt>
      <trkpt lat="45.9554" lon="4.93094">
        <ele>289</ele>
        <time>2017-07-10T10:01:37Z</time>
      </trkpt>
      <trkpt lat="45.95543" lon="4.93087">
        <ele>290</ele>
        <time>2017-07-10T10:01:38Z</time>
      </trkpt>
      <trkpt lat="45.95545" lon="4.93081">
        <ele>290</ele>
        <time>2017-07-10T10:01:39Z</time>
      </trkpt>
      <trkpt lat="45.95546" lon="4.93074">
        <ele>290</ele>
        <time>2017-07-10T10:01:40Z</time>
      </trkpt>
      <trkpt lat="45.95548" lon="4.93067">
        <ele>290</ele>
        <time>2017-07-10T10:01:41Z</time>
      </trkpt>
      <trkpt lat="45.95549" lon="4.93061">
        <ele>290</ele>
        <time>2017-07-10T10:01:42Z</time>
      </trkpt>
      <trkpt lat="45.9555" lon="4.93049">
        <ele>290</ele>
        <time>2017-07-10T10:01:44Z</time>
      </trkpt>
      <trkpt lat="45.9555" lon="4.93042">
        <ele>291</ele>
        <time>2017-07-10T10:01:45Z</time>
      </trkpt>
      <trkpt lat="45.95551" lon="4.93035">
        <ele>291</ele>
        <time>2017-07-10T10:01:46Z</time>
      </trkpt>
      <trkpt lat="45.95551" lon="4.93028">
        <ele>291</ele>
        <time>2017-07-10T10:01:47Z</time>
      </trkpt>
      <trkpt lat="45.95552" lon="4.93021">
        <ele>291</ele>
        <time>2017-07-10T10:01:48Z</time>
      </trkpt>
      <trkpt lat="45.95552" lon="4.93014">
        <ele>291</ele>
        <time>2017-07-10T10:01:49Z</time>
      </trkpt>
      <trkpt lat="45.95553" lon="4.93007">
        <ele>291</ele>
        <time>2017-07-10T10:01:50Z</time>
      </trkpt>
      <trkpt lat="45.95553" lon="4.93">
        <ele>291</ele>
        <time>2017-07-10T10:01:51Z</time>
      </trkpt>
      <trkpt lat="45.95556" lon="4.92989">
        <ele>292</ele>
        <time>2017-07-10T10:01:53Z</time>
      </trkpt>
      <trkpt lat="45.95558" lon="4.92983">
        <ele>292</ele>
        <time>2017-07-10T10:01:54Z</time>
      </trkpt>
      <trkpt lat="45.9556" lon="4.92971">
        <ele>292</ele>
        <time>2017-07-10T10:01:56Z</time>
      </trkpt>
      <trkpt lat="45.95559" lon="4.92964">
        <ele>292</ele>
        <time>2017-07-10T10:01:57Z</time>
      </trkpt>
      <trkpt lat="45.9556" lon="4.92958">
        <ele>292</ele>
        <time>2017-07-10T10:01:58Z</time>
      </trkpt>
      <trkpt lat="45.95561" lon="4.92951">
        <ele>292</ele>
        <time>2017-07-10T10:01:59Z</time>
      </trkpt>
      <trkpt lat="45.95563" lon="4.92944">
        <ele>292</ele>
        <time>2017-07-10T10:02:00Z</time>
      </trkpt>
      <trkpt lat="45.95564" lon="4.92937">
        <ele>292</ele>
        <time>2017-07-10T10:02:01Z</time>
      </trkpt>
      <trkpt lat="45.95566" lon="4.92931">
        <ele>293</ele>
        <time>2017-07-10T10:02:02Z</time>
      </trkpt>
      <trkpt lat="45.95568" lon="4.92924">
        <ele>293</ele>
        <time>2017-07-10T10:02:03Z</time>
      </trkpt>
      <trkpt lat="45.95568" lon="4.92917">
        <ele>293</ele>
        <time>2017-07-10T10:02:04Z</time>
      </trkpt>
      <trkpt lat="45.95569" lon="4.92911">
        <ele>294</ele>
        <time>2017-07-10T10:02:05Z</time>
      </trkpt>
      <trkpt lat="45.9557" lon="4.92904">
        <ele>294</ele>
        <time>2017-07-10T10:02:06Z</time>
      </trkpt>
      <trkpt lat="45.95571" lon="4.92898">
        <ele>294</ele>
        <time>2017-07-10T10:02:07Z</time>
      </trkpt>
      <trkpt lat="45.95572" lon="4.92891">
        <ele>294</ele>
        <time>2017-07-10T10:02:08Z</time>
      </trkpt>
      <trkpt lat="45.95573" lon="4.92884">
        <ele>294</ele>
        <time>2017-07-10T10:02:09Z</time>
      </trkpt>
      <trkpt lat="45.95575" lon="4.92877">
        <ele>294</ele>
        <time>2017-07-10T10:02:10Z</time>
      </trkpt>
      <trkpt lat="45.95576" lon="4.9287">
        <ele>294</ele>
        <time>2017-07-10T10:02:11Z</time>
      </trkpt>
      <trkpt lat="45.95577" lon="4.92863">
        <ele>294</ele>
        <time>2017-07-10T10:02:12Z</time>
      </trkpt>
      <trkpt lat="45.95578" lon="4.92856">
        <ele>294</ele>
        <time>2017-07-10T10:02:13Z</time>
      </trkpt>
      <trkpt lat="45.95579" lon="4.92849">
        <ele>294</ele>
        <time>2017-07-10T10:02:14Z</time>
      </trkpt>
      <trkpt lat="45.95581" lon="4.92842">
        <ele>294</ele>
        <time>2017-07-10T10:02:15Z</time>
      </trkpt>
      <trkpt lat="45.95582" lon="4.92835">
        <ele>295</ele>
        <time>2017-07-10T10:02:16Z</time>
      </trkpt>
      <trkpt lat="45.95583" lon="4.92828">
        <ele>295</ele>
        <time>2017-07-10T10:02:17Z</time>
      </trkpt>
      <trkpt lat="45.95584" lon="4.92821">
        <ele>295</ele>
        <time>2017-07-10T10:02:18Z</time>
      </trkpt>
      <trkpt lat="45.95585" lon="4.92814">
        <ele>295</ele>
        <time>2017-07-10T10:02:19Z</time>
      </trkpt>
      <trkpt lat="45.95586" lon="4.92807">
        <ele>295</ele>
        <time>2017-07-10T10:02:20Z</time>
      </trkpt>
      <trkpt lat="45.95588" lon="4.92801">
        <ele>295</ele>
        <time>2017-07-10T10:02:21Z</time>
      </trkpt>
      <trkpt lat="45.9559" lon="4.9279">
        <ele>295</ele>
        <time>2017-07-10T10:02:23Z</time>
      </trkpt>
      <trkpt lat="45.95591" lon="4.92785">
        <ele>295</ele>
        <time>2017-07-10T10:02:24Z</time>
      </trkpt>
      <trkpt lat="45.95594" lon="4.92773">
        <ele>295</ele>
        <time>2017-07-10T10:02:26Z</time>
      </trkpt>
      <trkpt lat="45.95594" lon="4.92766">
        <ele>295</ele>
        <time>2017-07-10T10:02:27Z</time>
      </trkpt>
      <trkpt lat="45.95595" lon="4.92759">
        <ele>295</ele>
        <time>2017-07-10T10:02:28Z</time>
      </trkpt>
      <trkpt lat="45.95596" lon="4.92753">
        <ele>295</ele>
        <time>2017-07-10T10:02:29Z</time>
      </trkpt>
      <trkpt lat="45.95598" lon="4.92746">
        <ele>295</ele>
        <time>2017-07-10T10:02:30Z</time>
      </trkpt>
      <trkpt lat="45.956" lon="4.92739">
        <ele>295</ele>
        <time>2017-07-10T10:02:31Z</time>
      </trkpt>
      <trkpt lat="45.95601" lon="4.92733">
        <ele>295</ele>
        <time>2017-07-10T10:02:32Z</time>
      </trkpt>
      <trkpt lat="45.95602" lon="4.92726">
        <ele>295</ele>
        <time>2017-07-10T10:02:33Z</time>
      </trkpt>
      <trkpt lat="45.95603" lon="4.92719">
        <ele>295</ele>
        <time>2017-07-10T10:02:34Z</time>
      </trkpt>
      <trkpt lat="45.95604" lon="4.92712">
        <ele>295</ele>
        <time>2017-07-10T10:02:35Z</time>
      </trkpt>
      <trkpt lat="45.95605" lon="4.92705">
        <ele>295</ele>
        <time>2017-07-10T10:02:36Z</time>
      </trkpt>
      <trkpt lat="45.95607" lon="4.92698">
        <ele>295</ele>
        <time>2017-07-10T10:02:37Z</time>
      </trkpt>
      <trkpt lat="45.95607" lon="4.92691">
        <ele>295</ele>
        <time>2017-07-10T10:02:38Z</time>
      </trkpt>
      <trkpt lat="45.95609" lon="4.92684">
        <ele>295</ele>
        <time>2017-07-10T10:02:39Z</time>
      </trkpt>
      <trkpt lat="45.9561" lon="4.92677">
        <ele>295</ele>
        <time>2017-07-10T10:02:40Z</time>
      </trkpt>
      <trkpt lat="45.95612" lon="4.92671">
        <ele>295</ele>
        <time>2017-07-10T10:02:41Z</time>
      </trkpt>
      <trkpt lat="45.95613" lon="4.92664">
        <ele>294</ele>
        <time>2017-07-10T10:02:42Z</time>
      </trkpt>
      <trkpt lat="45.95615" lon="4.92657">
        <ele>294</ele>
        <time>2017-07-10T10:02:43Z</time>
      </trkpt>
      <trkpt lat="45.95617" lon="4.92651">
        <ele>294</ele>
        <time>2017-07-10T10:02:44Z</time>
      </trkpt>
      <trkpt lat="45.95618" lon="4.92644">
        <ele>294</ele>
        <time>2017-07-10T10:02:45Z</time>
      </trkpt>
      <trkpt lat="45.9562" lon="4.92636">
        <ele>294</ele>
        <time>2017-07-10T10:02:46Z</time>
      </trkpt>
      <trkpt lat="45.95621" lon="4.92628">
        <ele>294</ele>
        <time>2017-07-10T10:02:47Z</time>
      </trkpt>
      <trkpt lat="45.95622" lon="4.92621">
        <ele>294</ele>
        <time>2017-07-10T10:02:48Z</time>
      </trkpt>
      <trkpt lat="45.95622" lon="4.92613">
        <ele>294</ele>
        <time>2017-07-10T10:02:49Z</time>
      </trkpt>
      <trkpt lat="45.95624" lon="4.92601">
        <ele>294</ele>
        <time>2017-07-10T10:02:51Z</time>
      </trkpt>
      <trkpt lat="45.95626" lon="4.92595">
        <ele>294</ele>
        <time>2017-07-10T10:02:52Z</time>
      </trkpt>
      <trkpt lat="45.95628" lon="4.92583">
        <ele>294</ele>
        <time>2017-07-10T10:02:54Z</time>
      </trkpt>
      <trkpt lat="45.9563" lon="4.92576">
        <ele>294</ele>
        <time>2017-07-10T10:02:55Z</time>
      </trkpt>
      <trkpt lat="45.95631" lon="4.92569">
        <ele>294</ele>
        <time>2017-07-10T10:02:56Z</time>
      </trkpt>
      <trkpt lat="45.95631" lon="4.92562">
        <ele>294</ele>
        <time>2017-07-10T10:02:57Z</time>
      </trkpt>
      <trkpt lat="45.95632" lon="4.92555">
        <ele>294</ele>
        <time>2017-07-10T10:02:58Z</time>
      </trkpt>
      <trkpt lat="45.95632" lon="4.92548">
        <ele>294</ele>
        <time>2017-07-10T10:02:59Z</time>
      </trkpt>
      <trkpt lat="45.95633" lon="4.9254">
        <ele>294</ele>
        <time>2017-07-10T10:03:00Z</time>
      </trkpt>
      <trkpt lat="45.95634" lon="4.92533">
        <ele>294</ele>
        <time>2017-07-10T10:03:01Z</time>
      </trkpt>
      <trkpt lat="45.95635" lon="4.92526">
        <ele>294</ele>
        <time>2017-07-10T10:03:02Z</time>
      </trkpt>
      <trkpt lat="45.95635" lon="4.92519">
        <ele>294</ele>
        <time>2017-07-10T10:03:03Z</time>
      </trkpt>
      <trkpt lat="45.95636" lon="4.92512">
        <ele>294</ele>
        <time>2017-07-10T10:03:04Z</time>
      </trkpt>
      <trkpt lat="45.95637" lon="4.92505">
        <ele>294</ele>
        <time>2017-07-10T10:03:05Z</time>
      </trkpt>
      <trkpt lat="45.95637" lon="4.92498">
        <ele>293</ele>
        <time>2017-07-10T10:03:06Z</time>
      </trkpt>
      <trkpt lat="45.95637" lon="4.92491">
        <ele>293</ele>
        <time>2017-07-10T10:03:07Z</time>
      </trkpt>
      <trkpt lat="45.95637" lon="4.92484">
        <ele>293</ele>
        <time>2017-07-10T10:03:08Z</time>
      </trkpt>
      <trkpt lat="45.95638" lon="4.92478">
        <ele>293</ele>
        <time>2017-07-10T10:03:09Z</time>
      </trkpt>
      <trkpt lat="45.95639" lon="4.92471">
        <ele>293</ele>
        <time>2017-07-10T10:03:10Z</time>
      </trkpt>
      <trkpt lat="45.95639" lon="4.92465">
        <ele>293</ele>
        <time>2017-07-10T10:03:11Z</time>
      </trkpt>
      <trkpt lat="45.9564" lon="4.92458">
        <ele>293</ele>
        <time>2017-07-10T10:03:12Z</time>
      </trkpt>
      <trkpt lat="45.95641" lon="4.92452">
        <ele>293</ele>
        <time>2017-07-10T10:03:13Z</time>
      </trkpt>
      <trkpt lat="45.95643" lon="4.92445">
        <ele>293</ele>
        <time>2017-07-10T10:03:14Z</time>
      </trkpt>
      <trkpt lat="45.95644" lon="4.92438">
        <ele>293</ele>
        <time>2017-07-10T10:03:15Z</time>
      </trkpt>
      <trkpt lat="45.95646" lon="4.92431">
        <ele>293</ele>
        <time>2017-07-10T10:03:16Z</time>
      </trkpt>
      <trkpt lat="45.95647" lon="4.92424">
        <ele>293</ele>
        <time>2017-07-10T10:03:17Z</time>
      </trkpt>
      <trkpt lat="45.95648" lon="4.92417">
        <ele>293</ele>
        <time>2017-07-10T10:03:18Z</time>
      </trkpt>
      <trkpt lat="45.9565" lon="4.9241">
        <ele>293</ele>
        <time>2017-07-10T10:03:19Z</time>
      </trkpt>
      <trkpt lat="45.95651" lon="4.92403">
        <ele>293</ele>
        <time>2017-07-10T10:03:20Z</time>
      </trkpt>
      <trkpt lat="45.95652" lon="4.92396">
        <ele>293</ele>
        <time>2017-07-10T10:03:21Z</time>
      </trkpt>
      <trkpt lat="45.95652" lon="4.92389">
        <ele>293</ele>
        <time>2017-07-10T10:03:22Z</time>
      </trkpt>
      <trkpt lat="45.95653" lon="4.92382">
        <ele>293</ele>
        <time>2017-07-10T10:03:23Z</time>
      </trkpt>
      <trkpt lat="45.95654" lon="4.92374">
        <ele>293</ele>
        <time>2017-07-10T10:03:24Z</time>
      </trkpt>
      <trkpt lat="45.95655" lon="4.92368">
        <ele>293</ele>
        <time>2017-07-10T10:03:25Z</time>
      </trkpt>
      <trkpt lat="45.95655" lon="4.9236">
        <ele>293</ele>
        <time>2017-07-10T10:03:26Z</time>
      </trkpt>
      <trkpt lat="45.95656" lon="4.92353">
        <ele>293</ele>
        <time>2017-07-10T10:03:27Z</time>
      </trkpt>
      <trkpt lat="45.95657" lon="4.92346">
        <ele>293</ele>
        <time>2017-07-10T10:03:28Z</time>
      </trkpt>
      <trkpt lat="45.95658" lon="4.92339">
        <ele>293</ele>
        <time>2017-07-10T10:03:29Z</time>
      </trkpt>
      <trkpt lat="45.95658" lon="4.92332">
        <ele>293</ele>
        <time>2017-07-10T10:03:30Z</time>
      </trkpt>
      <trkpt lat="45.95659" lon="4.92324">
        <ele>293</ele>
        <time>2017-07-10T10:03:31Z</time>
      </trkpt>
      <trkpt lat="45.95659" lon="4.92317">
        <ele>293</ele>
        <time>2017-07-10T10:03:32Z</time>
      </trkpt>
      <trkpt lat="45.95659" lon="4.9231">
        <ele>293</ele>
        <time>2017-07-10T10:03:33Z</time>
      </trkpt>
      <trkpt lat="45.95659" lon="4.92303">
        <ele>293</ele>
        <time>2017-07-10T10:03:34Z</time>
      </trkpt>
      <trkpt lat="45.95659" lon="4.92296">
        <ele>293</ele>
        <time>2017-07-10T10:03:35Z</time>
      </trkpt>
      <trkpt lat="45.9566" lon="4.92284">
        <ele>293</ele>
        <time>2017-07-10T10:03:37Z</time>
      </trkpt>
      <trkpt lat="45.95661" lon="4.92277">
        <ele>293</ele>
        <time>2017-07-10T10:03:38Z</time>
      </trkpt>
      <trkpt lat="45.95661" lon="4.92271">
        <ele>294</ele>
        <time>2017-07-10T10:03:39Z</time>
      </trkpt>
      <trkpt lat="45.95661" lon="4.92264">
        <ele>294</ele>
        <time>2017-07-10T10:03:40Z</time>
      </trkpt>
      <trkpt lat="45.95661" lon="4.92257">
        <ele>294</ele>
        <time>2017-07-10T10:03:41Z</time>
      </trkpt>
      <trkpt lat="45.95661" lon="4.92249">
        <ele>294</ele>
        <time>2017-07-10T10:03:42Z</time>
      </trkpt>
      <trkpt lat="45.95662" lon="4.92242">
        <ele>294</ele>
        <time>2017-07-10T10:03:43Z</time>
      </trkpt>
      <trkpt lat="45.95662" lon="4.92235">
        <ele>294</ele>
        <time>2017-07-10T10:03:44Z</time>
      </trkpt>
      <trkpt lat="45.95662" lon="4.92228">
        <ele>294</ele>
        <time>2017-07-10T10:03:45Z</time>
      </trkpt>
      <trkpt lat="45.95663" lon="4.92222">
        <ele>294</ele>
        <time>2017-07-10T10:03:46Z</time>
      </trkpt>
      <trkpt lat="45.95663" lon="4.92209">
        <ele>294</ele>
        <time>2017-07-10T10:03:48Z</time>
      </trkpt>
      <trkpt lat="45.95663" lon="4.92203">
        <ele>295</ele>
        <time>2017-07-10T10:03:49Z</time>
      </trkpt>
      <trkpt lat="45.95664" lon="4.92191">
        <ele>295</ele>
        <time>2017-07-10T10:03:51Z</time>
      </trkpt>
      <trkpt lat="45.95664" lon="4.92185">
        <ele>295</ele>
        <time>2017-07-10T10:03:52Z</time>
      </trkpt>
      <trkpt lat="45.95664" lon="4.92173">
        <ele>296</ele>
        <time>2017-07-10T10:03:54Z</time>
      </trkpt>
      <trkpt lat="45.95665" lon="4.92166">
        <ele>297</ele>
        <time>2017-07-10T10:03:55Z</time>
      </trkpt>
      <trkpt lat="45.95665" lon="4.9216">
        <ele>296</ele>
        <time>2017-07-10T10:03:56Z</time>
      </trkpt>
      <trkpt lat="45.95664" lon="4.92152">
        <ele>296</ele>
        <time>2017-07-10T10:03:57Z</time>
      </trkpt>
      <trkpt lat="45.95664" lon="4.92142">
        <ele>296</ele>
        <time>2017-07-10T10:03:59Z</time>
      </trkpt>
      <trkpt lat="45.95665" lon="4.92137">
        <ele>296</ele>
        <time>2017-07-10T10:04:00Z</time>
      </trkpt>
      <trkpt lat="45.95665" lon="4.92127">
        <ele>296</ele>
        <time>2017-07-10T10:04:02Z</time>
      </trkpt>
      <trkpt lat="45.95666" lon="4.92122">
        <ele>296</ele>
        <time>2017-07-10T10:04:03Z</time>
      </trkpt>
      <trkpt lat="45.95667" lon="4.92112">
        <ele>300</ele>
        <time>2017-07-10T10:04:05Z</time>
      </trkpt>
      <trkpt lat="45.95668" lon="4.92106">
        <ele>300</ele>
        <time>2017-07-10T10:04:06Z</time>
      </trkpt>
      <trkpt lat="45.95667" lon="4.92094">
        <ele>299</ele>
        <time>2017-07-10T10:04:08Z</time>
      </trkpt>
      <trkpt lat="45.95668" lon="4.92088">
        <ele>299</ele>
        <time>2017-07-10T10:04:09Z</time>
      </trkpt>
      <trkpt lat="45.9567" lon="4.92076">
        <ele>300</ele>
        <time>2017-07-10T10:04:11Z</time>
      </trkpt>
      <trkpt lat="45.95671" lon="4.9207">
        <ele>300</ele>
        <time>2017-07-10T10:04:12Z</time>
      </trkpt>
      <trkpt lat="45.95672" lon="4.92063">
        <ele>300</ele>
        <time>2017-07-10T10:04:13Z</time>
      </trkpt>
      <trkpt lat="45.95673" lon="4.92056">
        <ele>300</ele>
        <time>2017-07-10T10:04:14Z</time>
      </trkpt>
      <trkpt lat="45.95674" lon="4.9205">
        <ele>300</ele>
        <time>2017-07-10T10:04:15Z</time>
      </trkpt>
      <trkpt lat="45.95675" lon="4.92043">
        <ele>300</ele>
        <time>2017-07-10T10:04:16Z</time>
      </trkpt>
      <trkpt lat="45.95675" lon="4.92031">
        <ele>300</ele>
        <time>2017-07-10T10:04:18Z</time>
      </trkpt>
      <trkpt lat="45.95674" lon="4.92026">
        <ele>300</ele>
        <time>2017-07-10T10:04:19Z</time>
      </trkpt>
      <trkpt lat="45.9567" lon="4.92016">
        <ele>299</ele>
        <time>2017-07-10T10:04:21Z</time>
      </trkpt>
      <trkpt lat="45.95668" lon="4.92012">
        <ele>299</ele>
        <time>2017-07-10T10:04:22Z</time>
      </trkpt>
      <trkpt lat="45.95662" lon="4.92003">
        <ele>298</ele>
        <time>2017-07-10T10:04:24Z</time>
      </trkpt>
      <trkpt lat="45.95658" lon="4.91998">
        <ele>297</ele>
        <time>2017-07-10T10:04:25Z</time>
      </trkpt>
      <trkpt lat="45.95654" lon="4.91994">
        <ele>297</ele>
        <time>2017-07-10T10:04:26Z</time>
      </trkpt>
      <trkpt lat="45.9565" lon="4.9199">
        <ele>296</ele>
        <time>2017-07-10T10:04:27Z</time>
      </trkpt>
      <trkpt lat="45.95645" lon="4.91984">
        <ele>296</ele>
        <time>2017-07-10T10:04:28Z</time>
      </trkpt>
      <trkpt lat="45.95642" lon="4.91979">
        <ele>296</ele>
        <time>2017-07-10T10:04:29Z</time>
      </trkpt>
      <trkpt lat="45.95636" lon="4.91971">
        <ele>295</ele>
        <time>2017-07-10T10:04:31Z</time>
      </trkpt>
      <trkpt lat="45.95634" lon="4.91967">
        <ele>295</ele>
        <time>2017-07-10T10:04:32Z</time>
      </trkpt>
      <trkpt lat="45.95629" lon="4.9196">
        <ele>295</ele>
        <time>2017-07-10T10:04:34Z</time>
      </trkpt>
      <trkpt lat="45.95625" lon="4.91956">
        <ele>295</ele>
        <time>2017-07-10T10:04:35Z</time>
      </trkpt>
      <trkpt lat="45.95621" lon="4.91952">
        <ele>295</ele>
        <time>2017-07-10T10:04:36Z</time>
      </trkpt>
      <trkpt lat="45.95617" lon="4.91948">
        <ele>295</ele>
        <time>2017-07-10T10:04:37Z</time>
      </trkpt>
      <trkpt lat="45.95611" lon="4.91941">
        <ele>294</ele>
        <time>2017-07-10T10:04:39Z</time>
      </trkpt>
      <trkpt lat="45.95607" lon="4.91938">
        <ele>294</ele>
        <time>2017-07-10T10:04:40Z</time>
      </trkpt>
      <trkpt lat="45.95602" lon="4.91933">
        <ele>294</ele>
        <time>2017-07-10T10:04:42Z</time>
      </trkpt>
      <trkpt lat="45.95598" lon="4.91929">
        <ele>294</ele>
        <time>2017-07-10T10:04:43Z</time>
      </trkpt>
      <trkpt lat="45.95591" lon="4.91924">
        <ele>294</ele>
        <time>2017-07-10T10:04:45Z</time>
      </trkpt>
      <trkpt lat="45.95586" lon="4.9192">
        <ele>293</ele>
        <time>2017-07-10T10:04:46Z</time>
      </trkpt>
      <trkpt lat="45.95582" lon="4.91917">
        <ele>293</ele>
        <time>2017-07-10T10:04:47Z</time>
      </trkpt>
      <trkpt lat="45.95577" lon="4.91914">
        <ele>293</ele>
        <time>2017-07-10T10:04:48Z</time>
      </trkpt>
      <trkpt lat="45.95571" lon="4.9191">
        <ele>294</ele>
        <time>2017-07-10T10:04:49Z</time>
      </trkpt>
      <trkpt lat="45.95566" lon="4.91906">
        <ele>294</ele>
        <time>2017-07-10T10:04:50Z</time>
      </trkpt>
      <trkpt lat="45.95561" lon="4.91903">
        <ele>294</ele>
        <time>2017-07-10T10:04:51Z</time>
      </trkpt>
      <trkpt lat="45.95557" lon="4.91899">
        <ele>294</ele>
        <time>2017-07-10T10:04:52Z</time>
      </trkpt>
      <trkpt lat="45.95552" lon="4.91893">
        <ele>294</ele>
        <time>2017-07-10T10:04:54Z</time>
      </trkpt>
      <trkpt lat="45.95548" lon="4.9189">
        <ele>294</ele>
        <time>2017-07-10T10:04:55Z</time>
      </trkpt>
      <trkpt lat="45.95541" lon="4.91882">
        <ele>294</ele>
        <time>2017-07-10T10:04:57Z</time>
      </trkpt>
      <trkpt lat="45.95537" lon="4.91879">
        <ele>294</ele>
        <time>2017-07-10T10:04:58Z</time>
      </trkpt>
      <trkpt lat="45.95531" lon="4.91874">
        <ele>295</ele>
        <time>2017-07-10T10:04:59Z</time>
      </trkpt>
      <trkpt lat="45.95524" lon="4.91869">
        <ele>295</ele>
        <time>2017-07-10T10:05:00Z</time>
      </trkpt>
      <trkpt lat="45.95519" lon="4.91865">
        <ele>295</ele>
        <time>2017-07-10T10:05:01Z</time>
      </trkpt>
      <trkpt lat="45.95514" lon="4.91861">
        <ele>295</ele>
        <time>2017-07-10T10:05:02Z</time>
      </trkpt>
      <trkpt lat="45.9551" lon="4.91858">
        <ele>295</ele>
        <time>2017-07-10T10:05:03Z</time>
      </trkpt>
      <trkpt lat="45.95506" lon="4.91854">
        <ele>295</ele>
        <time>2017-07-10T10:05:04Z</time>
      </trkpt>
      <trkpt lat="45.95502" lon="4.9185">
        <ele>295</ele>
        <time>2017-07-10T10:05:05Z</time>
      </trkpt>
      <trkpt lat="45.95497" lon="4.91846">
        <ele>295</ele>
        <time>2017-07-10T10:05:06Z</time>
      </trkpt>
      <trkpt lat="45.95486" lon="4.91837">
        <ele>295</ele>
        <time>2017-07-10T10:05:07Z</time>
      </trkpt>
      <trkpt lat="45.95481" lon="4.91828">
        <ele>297</ele>
        <time>2017-07-10T10:05:09Z</time>
      </trkpt>
      <trkpt lat="45.95479" lon="4.91824">
        <ele>297</ele>
        <time>2017-07-10T10:05:10Z</time>
      </trkpt>
      <trkpt lat="45.95475" lon="4.9182">
        <ele>297</ele>
        <time>2017-07-10T10:05:11Z</time>
      </trkpt>
      <trkpt lat="45.95471" lon="4.91816">
        <ele>297</ele>
        <time>2017-07-10T10:05:12Z</time>
      </trkpt>
      <trkpt lat="45.95465" lon="4.9181">
        <ele>298</ele>
        <time>2017-07-10T10:05:13Z</time>
      </trkpt>
      <trkpt lat="45.95463" lon="4.91805">
        <ele>298</ele>
        <time>2017-07-10T10:05:14Z</time>
      </trkpt>
      <trkpt lat="45.95458" lon="4.91798">
        <ele>298</ele>
        <time>2017-07-10T10:05:15Z</time>
      </trkpt>
      <trkpt lat="45.95455" lon="4.91792">
        <ele>298</ele>
        <time>2017-07-10T10:05:16Z</time>
      </trkpt>
      <trkpt lat="45.95452" lon="4.91788">
        <ele>298</ele>
        <time>2017-07-10T10:05:17Z</time>
      </trkpt>
      <trkpt lat="45.95449" lon="4.91782">
        <ele>298</ele>
        <time>2017-07-10T10:05:18Z</time>
      </trkpt>
      <trkpt lat="45.95444" lon="4.91773">
        <ele>298</ele>
        <time>2017-07-10T10:05:20Z</time>
      </trkpt>
      <trkpt lat="45.95441" lon="4.91768">
        <ele>298</ele>
        <time>2017-07-10T10:05:21Z</time>
      </trkpt>
      <trkpt lat="45.95437" lon="4.91757">
        <ele>298</ele>
        <time>2017-07-10T10:05:23Z</time>
      </trkpt>
      <trkpt lat="45.95436" lon="4.91752">
        <ele>298</ele>
        <time>2017-07-10T10:05:24Z</time>
      </trkpt>
      <trkpt lat="45.95433" lon="4.91741">
        <ele>300</ele>
        <time>2017-07-10T10:05:26Z</time>
      </trkpt>
      <trkpt lat="45.95431" lon="4.91736">
        <ele>300</ele>
        <time>2017-07-10T10:05:27Z</time>
      </trkpt>
      <trkpt lat="45.95427" lon="4.91726">
        <ele>300</ele>
        <time>2017-07-10T10:05:29Z</time>
      </trkpt>
      <trkpt lat="45.95426" lon="4.91722">
        <ele>301</ele>
        <time>2017-07-10T10:05:30Z</time>
      </trkpt>
      <trkpt lat="45.95422" lon="4.91712">
        <ele>301</ele>
        <time>2017-07-10T10:05:34Z</time>
      </trkpt>
      <trkpt lat="45.95421" lon="4.91709">
        <ele>301</ele>
        <time>2017-07-10T10:05:35Z</time>
      </trkpt>
      <trkpt lat="45.95417" lon="4.91699">
        <ele>301</ele>
        <time>2017-07-10T10:05:38Z</time>
      </trkpt>
      <trkpt lat="45.95416" lon="4.91696">
        <ele>300</ele>
        <time>2017-07-10T10:05:39Z</time>
      </trkpt>
      <trkpt lat="45.95413" lon="4.91686">
        <ele>300</ele>
        <time>2017-07-10T10:05:42Z</time>
      </trkpt>
      <trkpt lat="45.95413" lon="4.91683">
        <ele>300</ele>
        <time>2017-07-10T10:05:43Z</time>
      </trkpt>
      <trkpt lat="45.95408" lon="4.91674">
        <ele>300</ele>
        <time>2017-07-10T10:05:45Z</time>
      </trkpt>
      <trkpt lat="45.95406" lon="4.91671">
        <ele>300</ele>
        <time>2017-07-10T10:05:46Z</time>
      </trkpt>
      <trkpt lat="45.95403" lon="4.91659">
        <ele>301</ele>
        <time>2017-07-10T10:05:49Z</time>
      </trkpt>
      <trkpt lat="45.95403" lon="4.91655">
        <ele>301</ele>
        <time>2017-07-10T10:05:50Z</time>
      </trkpt>
      <trkpt lat="45.954" lon="4.91644">
        <ele>301</ele>
        <time>2017-07-10T10:05:52Z</time>
      </trkpt>
      <trkpt lat="45.95399" lon="4.9164">
        <ele>301</ele>
        <time>2017-07-10T10:05:53Z</time>
      </trkpt>
      <trkpt lat="45.95396" lon="4.91632">
        <ele>301</ele>
        <time>2017-07-10T10:05:55Z</time>
      </trkpt>
      <trkpt lat="45.95393" lon="4.91628">
        <ele>301</ele>
        <time>2017-07-10T10:05:56Z</time>
      </trkpt>
      <trkpt lat="45.95391" lon="4.9162">
        <ele>301</ele>
        <time>2017-07-10T10:05:58Z</time>
      </trkpt>
      <trkpt lat="45.9539" lon="4.91615">
        <ele>301</ele>
        <time>2017-07-10T10:05:59Z</time>
      </trkpt>
      <trkpt lat="45.95389" lon="4.91602">
        <ele>301</ele>
        <time>2017-07-10T10:06:02Z</time>
      </trkpt>
      <trkpt lat="45.95388" lon="4.91598">
        <ele>301</ele>
        <time>2017-07-10T10:06:03Z</time>
      </trkpt>
      <trkpt lat="45.95387" lon="4.91586">
        <ele>301</ele>
        <time>2017-07-10T10:06:06Z</time>
      </trkpt>
      <trkpt lat="45.95387" lon="4.91583">
        <ele>300</ele>
        <time>2017-07-10T10:06:07Z</time>
      </trkpt>
      <trkpt lat="45.95384" lon="4.91572">
        <ele>300</ele>
        <time>2017-07-10T10:06:10Z</time>
      </trkpt>
      <trkpt lat="45.95383" lon="4.91567">
        <ele>300</ele>
        <time>2017-07-10T10:06:11Z</time>
      </trkpt>
      <trkpt lat="45.95382" lon="4.91556">
        <ele>300</ele>
        <time>2017-07-10T10:06:13Z</time>
      </trkpt>
      <trkpt lat="45.95381" lon="4.91551">
        <ele>300</ele>
        <time>2017-07-10T10:06:14Z</time>
      </trkpt>
      <trkpt lat="45.95379" lon="4.9154">
        <ele>300</ele>
        <time>2017-07-10T10:06:16Z</time>
      </trkpt>
      <trkpt lat="45.95376" lon="4.91533">
        <ele>300</ele>
        <time>2017-07-10T10:06:17Z</time>
      </trkpt>
      <trkpt lat="45.95371" lon="4.91522">
        <ele>300</ele>
        <time>2017-07-10T10:06:19Z</time>
      </trkpt>
      <trkpt lat="45.9537" lon="4.91518">
        <ele>299</ele>
        <time>2017-07-10T10:06:20Z</time>
      </trkpt>
      <trkpt lat="45.95371" lon="4.91507">
        <ele>299</ele>
        <time>2017-07-10T10:06:22Z</time>
      </trkpt>
      <trkpt lat="45.95369" lon="4.91503">
        <ele>299</ele>
        <time>2017-07-10T10:06:23Z</time>
      </trkpt>
      <trkpt lat="45.95368" lon="4.91493">
        <ele>299</ele>
        <time>2017-07-10T10:06:25Z</time>
      </trkpt>
      <trkpt lat="45.95368" lon="4.91489">
        <ele>299</ele>
        <time>2017-07-10T10:06:26Z</time>
      </trkpt>
      <trkpt lat="45.95366" lon="4.91478">
        <ele>299</ele>
        <time>2017-07-10T10:06:29Z</time>
      </trkpt>
      <trkpt lat="45.95366" lon="4.91474">
        <ele>299</ele>
        <time>2017-07-10T10:06:30Z</time>
      </trkpt>
      <trkpt lat="45.95367" lon="4.91464">
        <ele>299</ele>
        <time>2017-07-10T10:06:33Z</time>
      </trkpt>
      <trkpt lat="45.95366" lon="4.91461">
        <ele>299</ele>
        <time>2017-07-10T10:06:34Z</time>
      </trkpt>
      <trkpt lat="45.95366" lon="4.91449">
        <ele>299</ele>
        <time>2017-07-10T10:06:37Z</time>
      </trkpt>
      <trkpt lat="45.95365" lon="4.91445">
        <ele>299</ele>
        <time>2017-07-10T10:06:38Z</time>
      </trkpt>
      <trkpt lat="45.95367" lon="4.91434">
        <ele>299</ele>
        <time>2017-07-10T10:06:41Z</time>
      </trkpt>
      <trkpt lat="45.95367" lon="4.9143">
        <ele>299</ele>
        <time>2017-07-10T10:06:42Z</time>
      </trkpt>
      <trkpt lat="45.95369" lon="4.91421">
        <ele>299</ele>
        <time>2017-07-10T10:06:45Z</time>
      </trkpt>
      <trkpt lat="45.9537" lon="4.91417">
        <ele>299</ele>
        <time>2017-07-10T10:06:46Z</time>
      </trkpt>
      <trkpt lat="45.95367" lon="4.91406">
        <ele>298</ele>
        <time>2017-07-10T10:06:49Z</time>
      </trkpt>
      <trkpt lat="45.95367" lon="4.91402">
        <ele>298</ele>
        <time>2017-07-10T10:06:50Z</time>
      </trkpt>
      <trkpt lat="45.95364" lon="4.91392">
        <ele>298</ele>
        <time>2017-07-10T10:06:53Z</time>
      </trkpt>
      <trkpt lat="45.95362" lon="4.91389">
        <ele>298</ele>
        <time>2017-07-10T10:06:54Z</time>
      </trkpt>
      <trkpt lat="45.95363" lon="4.91379">
        <ele>298</ele>
        <time>2017-07-10T10:06:57Z</time>
      </trkpt>
      <trkpt lat="45.95364" lon="4.91376">
        <ele>298</ele>
        <time>2017-07-10T10:06:58Z</time>
      </trkpt>
      <trkpt lat="45.95362" lon="4.91364">
        <ele>298</ele>
        <time>2017-07-10T10:07:01Z</time>
      </trkpt>
      <trkpt lat="45.95359" lon="4.91358">
        <ele>298</ele>
        <time>2017-07-10T10:07:02Z</time>
      </trkpt>
      <trkpt lat="45.95358" lon="4.91346">
        <ele>298</ele>
        <time>2017-07-10T10:07:05Z</time>
      </trkpt>
      <trkpt lat="45.95357" lon="4.91342">
        <ele>298</ele>
        <time>2017-07-10T10:07:06Z</time>
      </trkpt>
      <trkpt lat="45.95357" lon="4.91332">
        <ele>298</ele>
        <time>2017-07-10T10:07:08Z</time>
      </trkpt>
      <trkpt lat="45.95356" lon="4.91327">
        <ele>298</ele>
        <time>2017-07-10T10:07:09Z</time>
      </trkpt>
      <trkpt lat="45.95356" lon="4.91316">
        <ele>298</ele>
        <time>2017-07-10T10:07:12Z</time>
      </trkpt>
      <trkpt lat="45.95356" lon="4.91312">
        <ele>298</ele>
        <time>2017-07-10T10:07:13Z</time>
      </trkpt>
      <trkpt lat="45.95355" lon="4.91304">
        <ele>298</ele>
        <time>2017-07-10T10:07:15Z</time>
      </trkpt>
      <trkpt lat="45.95353" lon="4.913">
        <ele>298</ele>
        <time>2017-07-10T10:07:16Z</time>
      </trkpt>
      <trkpt lat="45.95352" lon="4.91287">
        <ele>299</ele>
        <time>2017-07-10T10:07:19Z</time>
      </trkpt>
      <trkpt lat="45.95352" lon="4.91284">
        <ele>299</ele>
        <time>2017-07-10T10:07:20Z</time>
      </trkpt>
      <trkpt lat="45.95348" lon="4.91273">
        <ele>299</ele>
        <time>2017-07-10T10:07:23Z</time>
      </trkpt>
      <trkpt lat="45.95345" lon="4.91269">
        <ele>299</ele>
        <time>2017-07-10T10:07:24Z</time>
      </trkpt>
      <trkpt lat="45.9534" lon="4.9126">
        <ele>299</ele>
        <time>2017-07-10T10:07:27Z</time>
      </trkpt>
      <trkpt lat="45.95337" lon="4.91256">
        <ele>299</ele>
        <time>2017-07-10T10:07:28Z</time>
      </trkpt>
      <trkpt lat="45.95331" lon="4.91246">
        <ele>299</ele>
        <time>2017-07-10T10:07:30Z</time>
      </trkpt>
      <trkpt lat="45.95326" lon="4.91241">
        <ele>299</ele>
        <time>2017-07-10T10:07:31Z</time>
      </trkpt>
      <trkpt lat="45.95321" lon="4.91236">
        <ele>299</ele>
        <time>2017-07-10T10:07:32Z</time>
      </trkpt>
      <trkpt lat="45.95318" lon="4.91232">
        <ele>299</ele>
        <time>2017-07-10T10:07:33Z</time>
      </trkpt>
      <trkpt lat="45.95312" lon="4.91223">
        <ele>299</ele>
        <time>2017-07-10T10:07:35Z</time>
      </trkpt>
      <trkpt lat="45.95309" lon="4.91218">
        <ele>299</ele>
        <time>2017-07-10T10:07:36Z</time>
      </trkpt>
      <trkpt lat="45.95303" lon="4.91211">
        <ele>299</ele>
        <time>2017-07-10T10:07:37Z</time>
      </trkpt>
      <trkpt lat="45.953" lon="4.91207">
        <ele>299</ele>
        <time>2017-07-10T10:07:38Z</time>
      </trkpt>
      <trkpt lat="45.95298" lon="4.91203">
        <ele>299</ele>
        <time>2017-07-10T10:07:39Z</time>
      </trkpt>
      <trkpt lat="45.9529" lon="4.91197">
        <ele>299</ele>
        <time>2017-07-10T10:07:40Z</time>
      </trkpt>
      <trkpt lat="45.95285" lon="4.91189">
        <ele>299</ele>
        <time>2017-07-10T10:07:42Z</time>
      </trkpt>
      <trkpt lat="45.95284" lon="4.91185">
        <ele>299</ele>
        <time>2017-07-10T10:07:43Z</time>
      </trkpt>
      <trkpt lat="45.95279" lon="4.91178">
        <ele>299</ele>
        <time>2017-07-10T10:07:45Z</time>
      </trkpt>
      <trkpt lat="45.95277" lon="4.91174">
        <ele>299</ele>
        <time>2017-07-10T10:07:46Z</time>
      </trkpt>
      <trkpt lat="45.95273" lon="4.91165">
        <ele>299</ele>
        <time>2017-07-10T10:07:48Z</time>
      </trkpt>
      <trkpt lat="45.95267" lon="4.91159">
        <ele>299</ele>
        <time>2017-07-10T10:07:49Z</time>
      </trkpt>
      <trkpt lat="45.95261" lon="4.9115">
        <ele>299</ele>
        <time>2017-07-10T10:07:51Z</time>
      </trkpt>
      <trkpt lat="45.95259" lon="4.91146">
        <ele>299</ele>
        <time>2017-07-10T10:07:52Z</time>
      </trkpt>
      <trkpt lat="45.95254" lon="4.91138">
        <ele>299</ele>
        <time>2017-07-10T10:07:55Z</time>
      </trkpt>
      <trkpt lat="45.95252" lon="4.91135">
        <ele>299</ele>
        <time>2017-07-10T10:07:56Z</time>
      </trkpt>
      <trkpt lat="45.95249" lon="4.91128">
        <ele>298</ele>
        <time>2017-07-10T10:07:58Z</time>
      </trkpt>
      <trkpt lat="45.95247" lon="4.91124">
        <ele>298</ele>
        <time>2017-07-10T10:07:59Z</time>
      </trkpt>
      <trkpt lat="45.95243" lon="4.91117">
        <ele>298</ele>
        <time>2017-07-10T10:08:01Z</time>
      </trkpt>
      <trkpt lat="45.95241" lon="4.91113">
        <ele>298</ele>
        <time>2017-07-10T10:08:02Z</time>
      </trkpt>
      <trkpt lat="45.95237" lon="4.91105">
        <ele>298</ele>
        <time>2017-07-10T10:08:04Z</time>
      </trkpt>
      <trkpt lat="45.95234" lon="4.91101">
        <ele>298</ele>
        <time>2017-07-10T10:08:05Z</time>
      </trkpt>
      <trkpt lat="45.95229" lon="4.91093">
        <ele>298</ele>
        <time>2017-07-10T10:08:08Z</time>
      </trkpt>
      <trkpt lat="45.95227" lon="4.91091">
        <ele>298</ele>
        <time>2017-07-10T10:08:09Z</time>
      </trkpt>
      <trkpt lat="45.95223" lon="4.91089">
        <ele>298</ele>
        <time>2017-07-10T10:08:10Z</time>
      </trkpt>
      <trkpt lat="45.95216" lon="4.91086">
        <ele>298</ele>
        <time>2017-07-10T10:08:11Z</time>
      </trkpt>
      <trkpt lat="45.95212" lon="4.91084">
        <ele>298</ele>
        <time>2017-07-10T10:08:12Z</time>
      </trkpt>
      <trkpt lat="45.95202" lon="4.91077">
        <ele>297</ele>
        <time>2017-07-10T10:08:13Z</time>
      </trkpt>
      <trkpt lat="45.95197" lon="4.91075">
        <ele>297</ele>
        <time>2017-07-10T10:08:15Z</time>
      </trkpt>
      <trkpt lat="45.95193" lon="4.91074">
        <ele>297</ele>
        <time>2017-07-10T10:08:16Z</time>
      </trkpt>
      <trkpt lat="45.95185" lon="4.9107">
        <ele>297</ele>
        <time>2017-07-10T10:08:19Z</time>
      </trkpt>
      <trkpt lat="45.95183" lon="4.91067">
        <ele>297</ele>
        <time>2017-07-10T10:08:20Z</time>
      </trkpt>
      <trkpt lat="45.95179" lon="4.91058">
        <ele>297</ele>
        <time>2017-07-10T10:08:23Z</time>
      </trkpt>
      <trkpt lat="45.95178" lon="4.91056">
        <ele>297</ele>
        <time>2017-07-10T10:08:24Z</time>
      </trkpt>
      <trkpt lat="45.95175" lon="4.91046">
        <ele>297</ele>
        <time>2017-07-10T10:08:28Z</time>
      </trkpt>
      <trkpt lat="45.95173" lon="4.91044">
        <ele>297</ele>
        <time>2017-07-10T10:08:29Z</time>
      </trkpt>
      <trkpt lat="45.95172" lon="4.91043">
        <ele>297</ele>
        <time>2017-07-10T10:08:30Z</time>
      </trkpt>
      <trkpt lat="45.95171" lon="4.91042">
        <ele>297</ele>
        <time>2017-07-10T10:08:31Z</time>
      </trkpt>
      <trkpt lat="45.95169" lon="4.91042">
        <ele>297</ele>
        <time>2017-07-10T10:08:43Z</time>
      </trkpt>
      <trkpt lat="45.95168" lon="4.91043">
        <ele>297</ele>
        <time>2017-07-10T10:08:44Z</time>
      </trkpt>
      <trkpt lat="45.95175" lon="4.9105">
        <ele>297</ele>
        <time>2017-07-10T10:15:09Z</time>
      </trkpt>
      <trkpt lat="45.95175" lon="4.91051">
        <ele>297</ele>
        <time>2017-07-10T10:15:10Z</time>
      </trkpt>
      <trkpt lat="45.95179" lon="4.91062">
        <ele>297</ele>
        <time>2017-07-10T10:15:15Z</time>
      </trkpt>
      <trkpt lat="45.9518" lon="4.91064">
        <ele>297</ele>
        <time>2017-07-10T10:15:16Z</time>
      </trkpt>
      <trkpt lat="45.95184" lon="4.91072">
        <ele>297</ele>
        <time>2017-07-10T10:15:20Z</time>
      </trkpt>
      <trkpt lat="45.95186" lon="4.91075">
        <ele>297</ele>
        <time>2017-07-10T10:15:21Z</time>
      </trkpt>
      <trkpt lat="45.95192" lon="4.91079">
        <ele>297</ele>
        <time>2017-07-10T10:15:24Z</time>
      </trkpt>
      <trkpt lat="45.95195" lon="4.91079">
        <ele>297</ele>
        <time>2017-07-10T10:15:25Z</time>
      </trkpt>
      <trkpt lat="45.95203" lon="4.91079">
        <ele>297</ele>
        <time>2017-07-10T10:15:28Z</time>
      </trkpt>
      <trkpt lat="45.95206" lon="4.91078">
        <ele>297</ele>
        <time>2017-07-10T10:15:29Z</time>
      </trkpt>
      <trkpt lat="45.95205" lon="4.91066">
        <ele>297</ele>
        <time>2017-07-10T10:15:34Z</time>
      </trkpt>
      <trkpt lat="45.95203" lon="4.91062">
        <ele>297</ele>
        <time>2017-07-10T10:15:35Z</time>
      </trkpt>
      <trkpt lat="45.95199" lon="4.91051">
        <ele>297</ele>
        <time>2017-07-10T10:15:38Z</time>
      </trkpt>
      <trkpt lat="45.95197" lon="4.91048">
        <ele>297</ele>
        <time>2017-07-10T10:15:39Z</time>
      </trkpt>
      <trkpt lat="45.95194" lon="4.91038">
        <ele>297</ele>
        <time>2017-07-10T10:15:42Z</time>
      </trkpt>
      <trkpt lat="45.95192" lon="4.91034">
        <ele>297</ele>
        <time>2017-07-10T10:15:43Z</time>
      </trkpt>
      <trkpt lat="45.9519" lon="4.91026">
        <ele>297</ele>
        <time>2017-07-10T10:15:45Z</time>
      </trkpt>
      <trkpt lat="45.95189" lon="4.91022">
        <ele>297</ele>
        <time>2017-07-10T10:15:46Z</time>
      </trkpt>
      <trkpt lat="45.95186" lon="4.91011">
        <ele>297</ele>
        <time>2017-07-10T10:15:48Z</time>
      </trkpt>
      <trkpt lat="45.95186" lon="4.91006">
        <ele>298</ele>
        <time>2017-07-10T10:15:49Z</time>
      </trkpt>
      <trkpt lat="45.95184" lon="4.90994">
        <ele>298</ele>
        <time>2017-07-10T10:15:51Z</time>
      </trkpt>
      <trkpt lat="45.95184" lon="4.90988">
        <ele>298</ele>
        <time>2017-07-10T10:15:52Z</time>
      </trkpt>
      <trkpt lat="45.95182" lon="4.90977">
        <ele>298</ele>
        <time>2017-07-10T10:15:54Z</time>
      </trkpt>
      <trkpt lat="45.95182" lon="4.90972">
        <ele>298</ele>
        <time>2017-07-10T10:15:55Z</time>
      </trkpt>
      <trkpt lat="45.95181" lon="4.9096">
        <ele>298</ele>
        <time>2017-07-10T10:15:57Z</time>
      </trkpt>
      <trkpt lat="45.95181" lon="4.90955">
        <ele>297</ele>
        <time>2017-07-10T10:15:58Z</time>
      </trkpt>
      <trkpt lat="45.9518" lon="4.90943">
        <ele>297</ele>
        <time>2017-07-10T10:16:00Z</time>
      </trkpt>
      <trkpt lat="45.9518" lon="4.90937">
        <ele>297</ele>
        <time>2017-07-10T10:16:01Z</time>
      </trkpt>
      <trkpt lat="45.9518" lon="4.90931">
        <ele>297</ele>
        <time>2017-07-10T10:16:02Z</time>
      </trkpt>
      <trkpt lat="45.9518" lon="4.90924">
        <ele>297</ele>
        <time>2017-07-10T10:16:03Z</time>
      </trkpt>
      <trkpt lat="45.95181" lon="4.90917">
        <ele>297</ele>
        <time>2017-07-10T10:16:04Z</time>
      </trkpt>
      <trkpt lat="45.95182" lon="4.9091">
        <ele>298</ele>
        <time>2017-07-10T10:16:05Z</time>
      </trkpt>
      <trkpt lat="45.95183" lon="4.90904">
        <ele>298</ele>
        <time>2017-07-10T10:16:06Z</time>
      </trkpt>
      <trkpt lat="45.95182" lon="4.90897">
        <ele>298</ele>
        <time>2017-07-10T10:16:07Z</time>
      </trkpt>
      <trkpt lat="45.95183" lon="4.9089">
        <ele>298</ele>
        <time>2017-07-10T10:16:08Z</time>
      </trkpt>
      <trkpt lat="45.95181" lon="4.90882">
        <ele>298</ele>
        <time>2017-07-10T10:16:09Z</time>
      </trkpt>
      <trkpt lat="45.95181" lon="4.90875">
        <ele>298</ele>
        <time>2017-07-10T10:16:10Z</time>
      </trkpt>
      <trkpt lat="45.95181" lon="4.90868">
        <ele>298</ele>
        <time>2017-07-10T10:16:11Z</time>
      </trkpt>
      <trkpt lat="45.95182" lon="4.90862">
        <ele>298</ele>
        <time>2017-07-10T10:16:12Z</time>
      </trkpt>
      <trkpt lat="45.95182" lon="4.90855">
        <ele>298</ele>
        <time>2017-07-10T10:16:13Z</time>
      </trkpt>
      <trkpt lat="45.95183" lon="4.90848">
        <ele>298</ele>
        <time>2017-07-10T10:16:14Z</time>
      </trkpt>
      <trkpt lat="45.95184" lon="4.90841">
        <ele>298</ele>
        <time>2017-07-10T10:16:15Z</time>
      </trkpt>
      <trkpt lat="45.95185" lon="4.90834">
        <ele>298</ele>
        <time>2017-07-10T10:16:16Z</time>
      </trkpt>
      <trkpt lat="45.95185" lon="4.90827">
        <ele>298</ele>
        <time>2017-07-10T10:16:17Z</time>
      </trkpt>
      <trkpt lat="45.95186" lon="4.9082">
        <ele>298</ele>
        <time>2017-07-10T10:16:18Z</time>
      </trkpt>
      <trkpt lat="45.95187" lon="4.90813">
        <ele>298</ele>
        <time>2017-07-10T10:16:19Z</time>
      </trkpt>
      <trkpt lat="45.95189" lon="4.90802">
        <ele>299</ele>
        <time>2017-07-10T10:16:21Z</time>
      </trkpt>
      <trkpt lat="45.95188" lon="4.90796">
        <ele>298</ele>
        <time>2017-07-10T10:16:22Z</time>
      </trkpt>
      <trkpt lat="45.95187" lon="4.90791">
        <ele>298</ele>
        <time>2017-07-10T10:16:23Z</time>
      </trkpt>
      <trkpt lat="45.95182" lon="4.90784">
        <ele>298</ele>
        <time>2017-07-10T10:16:24Z</time>
      </trkpt>
      <trkpt lat="45.9518" lon="4.90772">
        <ele>298</ele>
        <time>2017-07-10T10:16:26Z</time>
      </trkpt>
      <trkpt lat="45.95179" lon="4.90765">
        <ele>298</ele>
        <time>2017-07-10T10:16:27Z</time>
      </trkpt>
      <trkpt lat="45.95179" lon="4.90758">
        <ele>298</ele>
        <time>2017-07-10T10:16:28Z</time>
      </trkpt>
      <trkpt lat="45.95179" lon="4.90749">
        <ele>297</ele>
        <time>2017-07-10T10:16:29Z</time>
      </trkpt>
      <trkpt lat="45.9518" lon="4.90741">
        <ele>297</ele>
        <time>2017-07-10T10:16:30Z</time>
      </trkpt>
      <trkpt lat="45.9518" lon="4.90732">
        <ele>297</ele>
        <time>2017-07-10T10:16:31Z</time>
      </trkpt>
      <trkpt lat="45.95181" lon="4.90724">
        <ele>297</ele>
        <time>2017-07-10T10:16:32Z</time>
      </trkpt>
      <trkpt lat="45.95181" lon="4.90717">
        <ele>297</ele>
        <time>2017-07-10T10:16:33Z</time>
      </trkpt>
      <trkpt lat="45.95183" lon="4.9071">
        <ele>297</ele>
        <time>2017-07-10T10:16:34Z</time>
      </trkpt>
      <trkpt lat="45.95183" lon="4.90702">
        <ele>297</ele>
        <time>2017-07-10T10:16:35Z</time>
      </trkpt>
      <trkpt lat="45.95183" lon="4.90695">
        <ele>297</ele>
        <time>2017-07-10T10:16:36Z</time>
      </trkpt>
      <trkpt lat="45.95183" lon="4.90687">
        <ele>297</ele>
        <time>2017-07-10T10:16:37Z</time>
      </trkpt>
      <trkpt lat="45.95184" lon="4.90679">
        <ele>297</ele>
        <time>2017-07-10T10:16:38Z</time>
      </trkpt>
      <trkpt lat="45.95184" lon="4.90672">
        <ele>296</ele>
        <time>2017-07-10T10:16:39Z</time>
      </trkpt>
      <trkpt lat="45.95184" lon="4.90665">
        <ele>295</ele>
        <time>2017-07-10T10:16:40Z</time>
      </trkpt>
      <trkpt lat="45.95185" lon="4.90658">
        <ele>296</ele>
        <time>2017-07-10T10:16:41Z</time>
      </trkpt>
      <trkpt lat="45.95186" lon="4.9065">
        <ele>296</ele>
        <time>2017-07-10T10:16:42Z</time>
      </trkpt>
      <trkpt lat="45.95186" lon="4.90642">
        <ele>296</ele>
        <time>2017-07-10T10:16:43Z</time>
      </trkpt>
      <trkpt lat="45.95187" lon="4.90634">
        <ele>295</ele>
        <time>2017-07-10T10:16:44Z</time>
      </trkpt>
      <trkpt lat="45.95187" lon="4.90626">
        <ele>295</ele>
        <time>2017-07-10T10:16:45Z</time>
      </trkpt>
      <trkpt lat="45.95188" lon="4.90618">
        <ele>295</ele>
        <time>2017-07-10T10:16:46Z</time>
      </trkpt>
      <trkpt lat="45.95188" lon="4.9061">
        <ele>295</ele>
        <time>2017-07-10T10:16:47Z</time>
      </trkpt>
      <trkpt lat="45.95189" lon="4.90602">
        <ele>295</ele>
        <time>2017-07-10T10:16:48Z</time>
      </trkpt>
      <trkpt lat="45.95189" lon="4.90593">
        <ele>295</ele>
        <time>2017-07-10T10:16:49Z</time>
      </trkpt>
      <trkpt lat="45.95189" lon="4.90585">
        <ele>295</ele>
        <time>2017-07-10T10:16:50Z</time>
      </trkpt>
      <trkpt lat="45.9519" lon="4.90577">
        <ele>293</ele>
        <time>2017-07-10T10:16:51Z</time>
      </trkpt>
      <trkpt lat="45.9519" lon="4.90571">
        <ele>293</ele>
        <time>2017-07-10T10:16:52Z</time>
      </trkpt>
      <trkpt lat="45.9519" lon="4.90564">
        <ele>293</ele>
        <time>2017-07-10T10:16:53Z</time>
      </trkpt>
      <trkpt lat="45.95191" lon="4.90555">
        <ele>293</ele>
        <time>2017-07-10T10:16:54Z</time>
      </trkpt>
      <trkpt lat="45.95191" lon="4.90548">
        <ele>293</ele>
        <time>2017-07-10T10:16:55Z</time>
      </trkpt>
      <trkpt lat="45.95192" lon="4.9054">
        <ele>293</ele>
        <time>2017-07-10T10:16:56Z</time>
      </trkpt>
      <trkpt lat="45.95193" lon="4.90532">
        <ele>293</ele>
        <time>2017-07-10T10:16:57Z</time>
      </trkpt>
      <trkpt lat="45.95194" lon="4.90524">
        <ele>292</ele>
        <time>2017-07-10T10:16:58Z</time>
      </trkpt>
      <trkpt lat="45.95195" lon="4.90516">
        <ele>292</ele>
        <time>2017-07-10T10:16:59Z</time>
      </trkpt>
      <trkpt lat="45.95195" lon="4.90508">
        <ele>292</ele>
        <time>2017-07-10T10:17:00Z</time>
      </trkpt>
      <trkpt lat="45.95195" lon="4.905">
        <ele>291</ele>
        <time>2017-07-10T10:17:01Z</time>
      </trkpt>
      <trkpt lat="45.95196" lon="4.90491">
        <ele>290</ele>
        <time>2017-07-10T10:17:02Z</time>
      </trkpt>
      <trkpt lat="45.95196" lon="4.90483">
        <ele>290</ele>
        <time>2017-07-10T10:17:03Z</time>
      </trkpt>
      <trkpt lat="45.95196" lon="4.90474">
        <ele>290</ele>
        <time>2017-07-10T10:17:04Z</time>
      </trkpt>
      <trkpt lat="45.95197" lon="4.90465">
        <ele>290</ele>
        <time>2017-07-10T10:17:05Z</time>
      </trkpt>
      <trkpt lat="45.95197" lon="4.90456">
        <ele>290</ele>
        <time>2017-07-10T10:17:06Z</time>
      </trkpt>
      <trkpt lat="45.95197" lon="4.90446">
        <ele>290</ele>
        <time>2017-07-10T10:17:07Z</time>
      </trkpt>
      <trkpt lat="45.95198" lon="4.90437">
        <ele>290</ele>
        <time>2017-07-10T10:17:08Z</time>
      </trkpt>
      <trkpt lat="45.95198" lon="4.90428">
        <ele>289</ele>
        <time>2017-07-10T10:17:09Z</time>
      </trkpt>
      <trkpt lat="45.95199" lon="4.90419">
        <ele>289</ele>
        <time>2017-07-10T10:17:10Z</time>
      </trkpt>
      <trkpt lat="45.95198" lon="4.9041">
        <ele>288</ele>
        <time>2017-07-10T10:17:11Z</time>
      </trkpt>
      <trkpt lat="45.95199" lon="4.90401">
        <ele>288</ele>
        <time>2017-07-10T10:17:12Z</time>
      </trkpt>
      <trkpt lat="45.952" lon="4.90393">
        <ele>288</ele>
        <time>2017-07-10T10:17:13Z</time>
      </trkpt>
      <trkpt lat="45.952" lon="4.90384">
        <ele>288</ele>
        <time>2017-07-10T10:17:14Z</time>
      </trkpt>
      <trkpt lat="45.95202" lon="4.90375">
        <ele>288</ele>
        <time>2017-07-10T10:17:15Z</time>
      </trkpt>
      <trkpt lat="45.95203" lon="4.90367">
        <ele>288</ele>
        <time>2017-07-10T10:17:16Z</time>
      </trkpt>
      <trkpt lat="45.95205" lon="4.90359">
        <ele>288</ele>
        <time>2017-07-10T10:17:17Z</time>
      </trkpt>
      <trkpt lat="45.95206" lon="4.90351">
        <ele>288</ele>
        <time>2017-07-10T10:17:18Z</time>
      </trkpt>
      <trkpt lat="45.95208" lon="4.90343">
        <ele>288</ele>
        <time>2017-07-10T10:17:19Z</time>
      </trkpt>
      <trkpt lat="45.95209" lon="4.90335">
        <ele>288</ele>
        <time>2017-07-10T10:17:20Z</time>
      </trkpt>
      <trkpt lat="45.95211" lon="4.90326">
        <ele>287</ele>
        <time>2017-07-10T10:17:21Z</time>
      </trkpt>
      <trkpt lat="45.95211" lon="4.90318">
        <ele>287</ele>
        <time>2017-07-10T10:17:22Z</time>
      </trkpt>
      <trkpt lat="45.95212" lon="4.90311">
        <ele>287</ele>
        <time>2017-07-10T10:17:23Z</time>
      </trkpt>
      <trkpt lat="45.95213" lon="4.90303">
        <ele>287</ele>
        <time>2017-07-10T10:17:24Z</time>
      </trkpt>
      <trkpt lat="45.95214" lon="4.90295">
        <ele>287</ele>
        <time>2017-07-10T10:17:25Z</time>
      </trkpt>
      <trkpt lat="45.95215" lon="4.90287">
        <ele>287</ele>
        <time>2017-07-10T10:17:26Z</time>
      </trkpt>
      <trkpt lat="45.95216" lon="4.9028">
        <ele>287</ele>
        <time>2017-07-10T10:17:27Z</time>
      </trkpt>
      <trkpt lat="45.95217" lon="4.90273">
        <ele>287</ele>
        <time>2017-07-10T10:17:28Z</time>
      </trkpt>
      <trkpt lat="45.95218" lon="4.90265">
        <ele>287</ele>
        <time>2017-07-10T10:17:29Z</time>
      </trkpt>
      <trkpt lat="45.95218" lon="4.90257">
        <ele>287</ele>
        <time>2017-07-10T10:17:30Z</time>
      </trkpt>
      <trkpt lat="45.95218" lon="4.90249">
        <ele>286</ele>
        <time>2017-07-10T10:17:31Z</time>
      </trkpt>
      <trkpt lat="45.95218" lon="4.9024">
        <ele>286</ele>
        <time>2017-07-10T10:17:32Z</time>
      </trkpt>
      <trkpt lat="45.95217" lon="4.90232">
        <ele>286</ele>
        <time>2017-07-10T10:17:33Z</time>
      </trkpt>
      <trkpt lat="45.95216" lon="4.90224">
        <ele>286</ele>
        <time>2017-07-10T10:17:34Z</time>
      </trkpt>
      <trkpt lat="45.95216" lon="4.90216">
        <ele>286</ele>
        <time>2017-07-10T10:17:35Z</time>
      </trkpt>
      <trkpt lat="45.95215" lon="4.90209">
        <ele>286</ele>
        <time>2017-07-10T10:17:36Z</time>
      </trkpt>
      <trkpt lat="45.95214" lon="4.90202">
        <ele>286</ele>
        <time>2017-07-10T10:17:37Z</time>
      </trkpt>
      <trkpt lat="45.95213" lon="4.90195">
        <ele>286</ele>
        <time>2017-07-10T10:17:38Z</time>
      </trkpt>
      <trkpt lat="45.95212" lon="4.90188">
        <ele>286</ele>
        <time>2017-07-10T10:17:39Z</time>
      </trkpt>
      <trkpt lat="45.9521" lon="4.90181">
        <ele>286</ele>
        <time>2017-07-10T10:17:40Z</time>
      </trkpt>
      <trkpt lat="45.95208" lon="4.90175">
        <ele>287</ele>
        <time>2017-07-10T10:17:41Z</time>
      </trkpt>
      <trkpt lat="45.95204" lon="4.90171">
        <ele>287</ele>
        <time>2017-07-10T10:17:42Z</time>
      </trkpt>
      <trkpt lat="45.95199" lon="4.90168">
        <ele>287</ele>
        <time>2017-07-10T10:17:43Z</time>
      </trkpt>
      <trkpt lat="45.95192" lon="4.90168">
        <ele>287</ele>
        <time>2017-07-10T10:17:44Z</time>
      </trkpt>
      <trkpt lat="45.95185" lon="4.90168">
        <ele>287</ele>
        <time>2017-07-10T10:17:45Z</time>
      </trkpt>
      <trkpt lat="45.95179" lon="4.90169">
        <ele>287</ele>
        <time>2017-07-10T10:17:46Z</time>
      </trkpt>
      <trkpt lat="45.95173" lon="4.9017">
        <ele>287</ele>
        <time>2017-07-10T10:17:47Z</time>
      </trkpt>
      <trkpt lat="45.95167" lon="4.90171">
        <ele>287</ele>
        <time>2017-07-10T10:17:48Z</time>
      </trkpt>
      <trkpt lat="45.95161" lon="4.90172">
        <ele>287</ele>
        <time>2017-07-10T10:17:49Z</time>
      </trkpt>
      <trkpt lat="45.95156" lon="4.90172">
        <ele>287</ele>
        <time>2017-07-10T10:17:50Z</time>
      </trkpt>
      <trkpt lat="45.9515" lon="4.90172">
        <ele>287</ele>
        <time>2017-07-10T10:17:51Z</time>
      </trkpt>
      <trkpt lat="45.95145" lon="4.90172">
        <ele>287</ele>
        <time>2017-07-10T10:17:52Z</time>
      </trkpt>
      <trkpt lat="45.95139" lon="4.9017">
        <ele>287</ele>
        <time>2017-07-10T10:17:53Z</time>
      </trkpt>
      <trkpt lat="45.95134" lon="4.90168">
        <ele>287</ele>
        <time>2017-07-10T10:17:54Z</time>
      </trkpt>
      <trkpt lat="45.95129" lon="4.90164">
        <ele>286</ele>
        <time>2017-07-10T10:17:55Z</time>
      </trkpt>
      <trkpt lat="45.95124" lon="4.9016">
        <ele>286</ele>
        <time>2017-07-10T10:17:56Z</time>
      </trkpt>
      <trkpt lat="45.95119" lon="4.90157">
        <ele>286</ele>
        <time>2017-07-10T10:17:57Z</time>
      </trkpt>
      <trkpt lat="45.95114" lon="4.90153">
        <ele>286</ele>
        <time>2017-07-10T10:17:58Z</time>
      </trkpt>
      <trkpt lat="45.95109" lon="4.9015">
        <ele>286</ele>
        <time>2017-07-10T10:17:59Z</time>
      </trkpt>
      <trkpt lat="45.95105" lon="4.90145">
        <ele>286</ele>
        <time>2017-07-10T10:18:00Z</time>
      </trkpt>
      <trkpt lat="45.95101" lon="4.90141">
        <ele>286</ele>
        <time>2017-07-10T10:18:01Z</time>
      </trkpt>
      <trkpt lat="45.95097" lon="4.90137">
        <ele>286</ele>
        <time>2017-07-10T10:18:02Z</time>
      </trkpt>
      <trkpt lat="45.95093" lon="4.90132">
        <ele>286</ele>
        <time>2017-07-10T10:18:03Z</time>
      </trkpt>
      <trkpt lat="45.95089" lon="4.90127">
        <ele>286</ele>
        <time>2017-07-10T10:18:04Z</time>
      </trkpt>
      <trkpt lat="45.95084" lon="4.90122">
        <ele>286</ele>
        <time>2017-07-10T10:18:05Z</time>
      </trkpt>
      <trkpt lat="45.9508" lon="4.90116">
        <ele>285</ele>
        <time>2017-07-10T10:18:06Z</time>
      </trkpt>
      <trkpt lat="45.95076" lon="4.9011">
        <ele>285</ele>
        <time>2017-07-10T10:18:07Z</time>
      </trkpt>
      <trkpt lat="45.95072" lon="4.90104">
        <ele>285</ele>
        <time>2017-07-10T10:18:08Z</time>
      </trkpt>
      <trkpt lat="45.95068" lon="4.90098">
        <ele>285</ele>
        <time>2017-07-10T10:18:09Z</time>
      </trkpt>
      <trkpt lat="45.95064" lon="4.90093">
        <ele>285</ele>
        <time>2017-07-10T10:18:10Z</time>
      </trkpt>
      <trkpt lat="45.95059" lon="4.90088">
        <ele>285</ele>
        <time>2017-07-10T10:18:11Z</time>
      </trkpt>
      <trkpt lat="45.95055" lon="4.90082">
        <ele>285</ele>
        <time>2017-07-10T10:18:12Z</time>
      </trkpt>
      <trkpt lat="45.95051" lon="4.90077">
        <ele>285</ele>
        <time>2017-07-10T10:18:13Z</time>
      </trkpt>
      <trkpt lat="45.95047" lon="4.90071">
        <ele>285</ele>
        <time>2017-07-10T10:18:14Z</time>
      </trkpt>
      <trkpt lat="45.95043" lon="4.90066">
        <ele>285</ele>
        <time>2017-07-10T10:18:15Z</time>
      </trkpt>
      <trkpt lat="45.95039" lon="4.90061">
        <ele>285</ele>
        <time>2017-07-10T10:18:16Z</time>
      </trkpt>
      <trkpt lat="45.95035" lon="4.90054">
        <ele>285</ele>
        <time>2017-07-10T10:18:17Z</time>
      </trkpt>
      <trkpt lat="45.95031" lon="4.90049">
        <ele>284</ele>
        <time>2017-07-10T10:18:18Z</time>
      </trkpt>
      <trkpt lat="45.95027" lon="4.90043">
        <ele>284</ele>
        <time>2017-07-10T10:18:19Z</time>
      </trkpt>
      <trkpt lat="45.95024" lon="4.90037">
        <ele>284</ele>
        <time>2017-07-10T10:18:20Z</time>
      </trkpt>
      <trkpt lat="45.95021" lon="4.90031">
        <ele>284</ele>
        <time>2017-07-10T10:18:21Z</time>
      </trkpt>
      <trkpt lat="45.95019" lon="4.90026">
        <ele>284</ele>
        <time>2017-07-10T10:18:22Z</time>
      </trkpt>
      <trkpt lat="45.95016" lon="4.9002">
        <ele>284</ele>
        <time>2017-07-10T10:18:23Z</time>
      </trkpt>
      <trkpt lat="45.95014" lon="4.90015">
        <ele>284</ele>
        <time>2017-07-10T10:18:24Z</time>
      </trkpt>
      <trkpt lat="45.9501" lon="4.90009">
        <ele>284</ele>
        <time>2017-07-10T10:18:25Z</time>
      </trkpt>
      <trkpt lat="45.95007" lon="4.90004">
        <ele>283</ele>
        <time>2017-07-10T10:18:26Z</time>
      </trkpt>
      <trkpt lat="45.95004" lon="4.89997">
        <ele>283</ele>
        <time>2017-07-10T10:18:27Z</time>
      </trkpt>
      <trkpt lat="45.95" lon="4.89991">
        <ele>283</ele>
        <time>2017-07-10T10:18:28Z</time>
      </trkpt>
      <trkpt lat="45.94997" lon="4.89984">
        <ele>283</ele>
        <time>2017-07-10T10:18:29Z</time>
      </trkpt>
      <trkpt lat="45.94993" lon="4.89977">
        <ele>284</ele>
        <time>2017-07-10T10:18:30Z</time>
      </trkpt>
      <trkpt lat="45.94989" lon="4.8997">
        <ele>284</ele>
        <time>2017-07-10T10:18:31Z</time>
      </trkpt>
      <trkpt lat="45.94985" lon="4.89964">
        <ele>284</ele>
        <time>2017-07-10T10:18:32Z</time>
      </trkpt>
      <trkpt lat="45.9498" lon="4.89957">
        <ele>284</ele>
        <time>2017-07-10T10:18:33Z</time>
      </trkpt>
      <trkpt lat="45.94976" lon="4.89951">
        <ele>284</ele>
        <time>2017-07-10T10:18:34Z</time>
      </trkpt>
      <trkpt lat="45.94972" lon="4.89946">
        <ele>284</ele>
        <time>2017-07-10T10:18:35Z</time>
      </trkpt>
      <trkpt lat="45.94968" lon="4.8994">
        <ele>284</ele>
        <time>2017-07-10T10:18:36Z</time>
      </trkpt>
      <trkpt lat="45.94965" lon="4.89935">
        <ele>284</ele>
        <time>2017-07-10T10:18:37Z</time>
      </trkpt>
      <trkpt lat="45.94961" lon="4.89931">
        <ele>284</ele>
        <time>2017-07-10T10:18:38Z</time>
      </trkpt>
      <trkpt lat="45.94958" lon="4.89926">
        <ele>284</ele>
        <time>2017-07-10T10:18:39Z</time>
      </trkpt>
      <trkpt lat="45.94954" lon="4.89922">
        <ele>284</ele>
        <time>2017-07-10T10:18:40Z</time>
      </trkpt>
      <trkpt lat="45.94951" lon="4.89917">
        <ele>284</ele>
        <time>2017-07-10T10:18:41Z</time>
      </trkpt>
      <trkpt lat="45.94947" lon="4.89912">
        <ele>284</ele>
        <time>2017-07-10T10:18:42Z</time>
      </trkpt>
      <trkpt lat="45.94944" lon="4.89906">
        <ele>284</ele>
        <time>2017-07-10T10:18:43Z</time>
      </trkpt>
      <trkpt lat="45.94941" lon="4.899">
        <ele>284</ele>
        <time>2017-07-10T10:18:44Z</time>
      </trkpt>
      <trkpt lat="45.94938" lon="4.89894">
        <ele>284</ele>
        <time>2017-07-10T10:18:45Z</time>
      </trkpt>
      <trkpt lat="45.94934" lon="4.89888">
        <ele>284</ele>
        <time>2017-07-10T10:18:46Z</time>
      </trkpt>
      <trkpt lat="45.94931" lon="4.8988">
        <ele>284</ele>
        <time>2017-07-10T10:18:47Z</time>
      </trkpt>
      <trkpt lat="45.94929" lon="4.89873">
        <ele>284</ele>
        <time>2017-07-10T10:18:48Z</time>
      </trkpt>
      <trkpt lat="45.94928" lon="4.89865">
        <ele>284</ele>
        <time>2017-07-10T10:18:49Z</time>
      </trkpt>
      <trkpt lat="45.94927" lon="4.89857">
        <ele>284</ele>
        <time>2017-07-10T10:18:50Z</time>
      </trkpt>
      <trkpt lat="45.94926" lon="4.8985">
        <ele>284</ele>
        <time>2017-07-10T10:18:51Z</time>
      </trkpt>
      <trkpt lat="45.94926" lon="4.89842">
        <ele>284</ele>
        <time>2017-07-10T10:18:52Z</time>
      </trkpt>
      <trkpt lat="45.94926" lon="4.89835">
        <ele>284</ele>
        <time>2017-07-10T10:18:53Z</time>
      </trkpt>
      <trkpt lat="45.94926" lon="4.89828">
        <ele>284</ele>
        <time>2017-07-10T10:18:54Z</time>
      </trkpt>
      <trkpt lat="45.94926" lon="4.8982">
        <ele>284</ele>
        <time>2017-07-10T10:18:55Z</time>
      </trkpt>
      <trkpt lat="45.94927" lon="4.89813">
        <ele>284</ele>
        <time>2017-07-10T10:18:56Z</time>
      </trkpt>
      <trkpt lat="45.94929" lon="4.89805">
        <ele>284</ele>
        <time>2017-07-10T10:18:57Z</time>
      </trkpt>
      <trkpt lat="45.94931" lon="4.89797">
        <ele>284</ele>
        <time>2017-07-10T10:18:58Z</time>
      </trkpt>
      <trkpt lat="45.94934" lon="4.89789">
        <ele>284</ele>
        <time>2017-07-10T10:18:59Z</time>
      </trkpt>
      <trkpt lat="45.94936" lon="4.89781">
        <ele>284</ele>
        <time>2017-07-10T10:19:00Z</time>
      </trkpt>
      <trkpt lat="45.94938" lon="4.89773">
        <ele>284</ele>
        <time>2017-07-10T10:19:01Z</time>
      </trkpt>
      <trkpt lat="45.9494" lon="4.89765">
        <ele>284</ele>
        <time>2017-07-10T10:19:02Z</time>
      </trkpt>
      <trkpt lat="45.94942" lon="4.89758">
        <ele>284</ele>
        <time>2017-07-10T10:19:03Z</time>
      </trkpt>
      <trkpt lat="45.94944" lon="4.89751">
        <ele>284</ele>
        <time>2017-07-10T10:19:04Z</time>
      </trkpt>
      <trkpt lat="45.94946" lon="4.89743">
        <ele>284</ele>
        <time>2017-07-10T10:19:05Z</time>
      </trkpt>
      <trkpt lat="45.94948" lon="4.89736">
        <ele>284</ele>
        <time>2017-07-10T10:19:06Z</time>
      </trkpt>
      <trkpt lat="45.9495" lon="4.89729">
        <ele>284</ele>
        <time>2017-07-10T10:19:07Z</time>
      </trkpt>
      <trkpt lat="45.94952" lon="4.89722">
        <ele>284</ele>
        <time>2017-07-10T10:19:08Z</time>
      </trkpt>
      <trkpt lat="45.94953" lon="4.89715">
        <ele>284</ele>
        <time>2017-07-10T10:19:09Z</time>
      </trkpt>
      <trkpt lat="45.94955" lon="4.89707">
        <ele>284</ele>
        <time>2017-07-10T10:19:10Z</time>
      </trkpt>
      <trkpt lat="45.94958" lon="4.89699">
        <ele>284</ele>
        <time>2017-07-10T10:19:11Z</time>
      </trkpt>
      <trkpt lat="45.9496" lon="4.89691">
        <ele>284</ele>
        <time>2017-07-10T10:19:12Z</time>
      </trkpt>
      <trkpt lat="45.94962" lon="4.89683">
        <ele>284</ele>
        <time>2017-07-10T10:19:13Z</time>
      </trkpt>
      <trkpt lat="45.94964" lon="4.89675">
        <ele>284</ele>
        <time>2017-07-10T10:19:14Z</time>
      </trkpt>
      <trkpt lat="45.94966" lon="4.89668">
        <ele>284</ele>
        <time>2017-07-10T10:19:15Z</time>
      </trkpt>
      <trkpt lat="45.94968" lon="4.8966">
        <ele>285</ele>
        <time>2017-07-10T10:19:16Z</time>
      </trkpt>
      <trkpt lat="45.94969" lon="4.89652">
        <ele>285</ele>
        <time>2017-07-10T10:19:17Z</time>
      </trkpt>
      <trkpt lat="45.94971" lon="4.89644">
        <ele>285</ele>
        <time>2017-07-10T10:19:18Z</time>
      </trkpt>
      <trkpt lat="45.94973" lon="4.89637">
        <ele>285</ele>
        <time>2017-07-10T10:19:19Z</time>
      </trkpt>
      <trkpt lat="45.94975" lon="4.89631">
        <ele>285</ele>
        <time>2017-07-10T10:19:20Z</time>
      </trkpt>
      <trkpt lat="45.94977" lon="4.89624">
        <ele>285</ele>
        <time>2017-07-10T10:19:21Z</time>
      </trkpt>
      <trkpt lat="45.94979" lon="4.89617">
        <ele>285</ele>
        <time>2017-07-10T10:19:22Z</time>
      </trkpt>
      <trkpt lat="45.94981" lon="4.89611">
        <ele>285</ele>
        <time>2017-07-10T10:19:23Z</time>
      </trkpt>
      <trkpt lat="45.94984" lon="4.89604">
        <ele>285</ele>
        <time>2017-07-10T10:19:24Z</time>
      </trkpt>
      <trkpt lat="45.94986" lon="4.89598">
        <ele>284</ele>
        <time>2017-07-10T10:19:25Z</time>
      </trkpt>
      <trkpt lat="45.94988" lon="4.8959">
        <ele>284</ele>
        <time>2017-07-10T10:19:26Z</time>
      </trkpt>
      <trkpt lat="45.9499" lon="4.89583">
        <ele>284</ele>
        <time>2017-07-10T10:19:27Z</time>
      </trkpt>
      <trkpt lat="45.94992" lon="4.89575">
        <ele>284</ele>
        <time>2017-07-10T10:19:28Z</time>
      </trkpt>
      <trkpt lat="45.94994" lon="4.89568">
        <ele>284</ele>
        <time>2017-07-10T10:19:29Z</time>
      </trkpt>
      <trkpt lat="45.94997" lon="4.8956">
        <ele>284</ele>
        <time>2017-07-10T10:19:30Z</time>
      </trkpt>
      <trkpt lat="45.94999" lon="4.89553">
        <ele>284</ele>
        <time>2017-07-10T10:19:31Z</time>
      </trkpt>
      <trkpt lat="45.95002" lon="4.89546">
        <ele>283</ele>
        <time>2017-07-10T10:19:32Z</time>
      </trkpt>
      <trkpt lat="45.95005" lon="4.89539">
        <ele>283</ele>
        <time>2017-07-10T10:19:33Z</time>
      </trkpt>
      <trkpt lat="45.95008" lon="4.89532">
        <ele>283</ele>
        <time>2017-07-10T10:19:34Z</time>
      </trkpt>
      <trkpt lat="45.95013" lon="4.89527">
        <ele>283</ele>
        <time>2017-07-10T10:19:35Z</time>
      </trkpt>
      <trkpt lat="45.95018" lon="4.89522">
        <ele>283</ele>
        <time>2017-07-10T10:19:36Z</time>
      </trkpt>
      <trkpt lat="45.95022" lon="4.89518">
        <ele>283</ele>
        <time>2017-07-10T10:19:37Z</time>
      </trkpt>
      <trkpt lat="45.95028" lon="4.89516">
        <ele>283</ele>
        <time>2017-07-10T10:19:38Z</time>
      </trkpt>
      <trkpt lat="45.95033" lon="4.89515">
        <ele>283</ele>
        <time>2017-07-10T10:19:39Z</time>
      </trkpt>
      <trkpt lat="45.95038" lon="4.89515">
        <ele>283</ele>
        <time>2017-07-10T10:19:40Z</time>
      </trkpt>
      <trkpt lat="45.95043" lon="4.89514">
        <ele>283</ele>
        <time>2017-07-10T10:19:41Z</time>
      </trkpt>
      <trkpt lat="45.95048" lon="4.89513">
        <ele>283</ele>
        <time>2017-07-10T10:19:42Z</time>
      </trkpt>
      <trkpt lat="45.95053" lon="4.89512">
        <ele>283</ele>
        <time>2017-07-10T10:19:43Z</time>
      </trkpt>
      <trkpt lat="45.95058" lon="4.89511">
        <ele>283</ele>
        <time>2017-07-10T10:19:44Z</time>
      </trkpt>
      <trkpt lat="45.95063" lon="4.8951">
        <ele>282</ele>
        <time>2017-07-10T10:19:45Z</time>
      </trkpt>
      <trkpt lat="45.95068" lon="4.89508">
        <ele>282</ele>
        <time>2017-07-10T10:19:46Z</time>
      </trkpt>
      <trkpt lat="45.95073" lon="4.89506">
        <ele>282</ele>
        <time>2017-07-10T10:19:47Z</time>
      </trkpt>
      <trkpt lat="45.95077" lon="4.89502">
        <ele>282</ele>
        <time>2017-07-10T10:19:48Z</time>
      </trkpt>
      <trkpt lat="45.95081" lon="4.89498">
        <ele>282</ele>
        <time>2017-07-10T10:19:49Z</time>
      </trkpt>
      <trkpt lat="45.95085" lon="4.89492">
        <ele>282</ele>
        <time>2017-07-10T10:19:50Z</time>
      </trkpt>
      <trkpt lat="45.95087" lon="4.89485">
        <ele>282</ele>
        <time>2017-07-10T10:19:51Z</time>
      </trkpt>
      <trkpt lat="45.95089" lon="4.89478">
        <ele>282</ele>
        <time>2017-07-10T10:19:52Z</time>
      </trkpt>
      <trkpt lat="45.95089" lon="4.89471">
        <ele>282</ele>
        <time>2017-07-10T10:19:53Z</time>
      </trkpt>
      <trkpt lat="45.95088" lon="4.89464">
        <ele>282</ele>
        <time>2017-07-10T10:19:54Z</time>
      </trkpt>
      <trkpt lat="45.95086" lon="4.89456">
        <ele>282</ele>
        <time>2017-07-10T10:19:55Z</time>
      </trkpt>
      <trkpt lat="45.95083" lon="4.89448">
        <ele>282</ele>
        <time>2017-07-10T10:19:56Z</time>
      </trkpt>
      <trkpt lat="45.95081" lon="4.8944">
        <ele>282</ele>
        <time>2017-07-10T10:19:57Z</time>
      </trkpt>
      <trkpt lat="45.95078" lon="4.89433">
        <ele>282</ele>
        <time>2017-07-10T10:19:58Z</time>
      </trkpt>
      <trkpt lat="45.95077" lon="4.89426">
        <ele>282</ele>
        <time>2017-07-10T10:19:59Z</time>
      </trkpt>
      <trkpt lat="45.95075" lon="4.89418">
        <ele>282</ele>
        <time>2017-07-10T10:20:00Z</time>
      </trkpt>
      <trkpt lat="45.95074" lon="4.89411">
        <ele>282</ele>
        <time>2017-07-10T10:20:01Z</time>
      </trkpt>
      <trkpt lat="45.95073" lon="4.89404">
        <ele>283</ele>
        <time>2017-07-10T10:20:02Z</time>
      </trkpt>
      <trkpt lat="45.95072" lon="4.89397">
        <ele>283</ele>
        <time>2017-07-10T10:20:03Z</time>
      </trkpt>
      <trkpt lat="45.95071" lon="4.8939">
        <ele>283</ele>
        <time>2017-07-10T10:20:04Z</time>
      </trkpt>
      <trkpt lat="45.95071" lon="4.89383">
        <ele>283</ele>
        <time>2017-07-10T10:20:05Z</time>
      </trkpt>
      <trkpt lat="45.95071" lon="4.89375">
        <ele>283</ele>
        <time>2017-07-10T10:20:06Z</time>
      </trkpt>
      <trkpt lat="45.95071" lon="4.89368">
        <ele>283</ele>
        <time>2017-07-10T10:20:07Z</time>
      </trkpt>
      <trkpt lat="45.95071" lon="4.8936">
        <ele>283</ele>
        <time>2017-07-10T10:20:08Z</time>
      </trkpt>
      <trkpt lat="45.95071" lon="4.89352">
        <ele>283</ele>
        <time>2017-07-10T10:20:09Z</time>
      </trkpt>
      <trkpt lat="45.95072" lon="4.89344">
        <ele>283</ele>
        <time>2017-07-10T10:20:10Z</time>
      </trkpt>
      <trkpt lat="45.95071" lon="4.89336">
        <ele>283</ele>
        <time>2017-07-10T10:20:11Z</time>
      </trkpt>
      <trkpt lat="45.95071" lon="4.89328">
        <ele>283</ele>
        <time>2017-07-10T10:20:12Z</time>
      </trkpt>
      <trkpt lat="45.95072" lon="4.8932">
        <ele>283</ele>
        <time>2017-07-10T10:20:13Z</time>
      </trkpt>
      <trkpt lat="45.95073" lon="4.89313">
        <ele>283</ele>
        <time>2017-07-10T10:20:14Z</time>
      </trkpt>
      <trkpt lat="45.95073" lon="4.89306">
        <ele>283</ele>
        <time>2017-07-10T10:20:15Z</time>
      </trkpt>
      <trkpt lat="45.95074" lon="4.89299">
        <ele>283</ele>
        <time>2017-07-10T10:20:16Z</time>
      </trkpt>
      <trkpt lat="45.95075" lon="4.89292">
        <ele>283</ele>
        <time>2017-07-10T10:20:17Z</time>
      </trkpt>
      <trkpt lat="45.95076" lon="4.89285">
        <ele>283</ele>
        <time>2017-07-10T10:20:18Z</time>
      </trkpt>
      <trkpt lat="45.95077" lon="4.89277">
        <ele>283</ele>
        <time>2017-07-10T10:20:19Z</time>
      </trkpt>
      <trkpt lat="45.95078" lon="4.89269">
        <ele>283</ele>
        <time>2017-07-10T10:20:20Z</time>
      </trkpt>
      <trkpt lat="45.95078" lon="4.89261">
        <ele>283</ele>
        <time>2017-07-10T10:20:21Z</time>
      </trkpt>
      <trkpt lat="45.95079" lon="4.89253">
        <ele>283</ele>
        <time>2017-07-10T10:20:22Z</time>
      </trkpt>
      <trkpt lat="45.95079" lon="4.89246">
        <ele>283</ele>
        <time>2017-07-10T10:20:23Z</time>
      </trkpt>
      <trkpt lat="45.95079" lon="4.89238">
        <ele>283</ele>
        <time>2017-07-10T10:20:24Z</time>
      </trkpt>
      <trkpt lat="45.95079" lon="4.89232">
        <ele>284</ele>
        <time>2017-07-10T10:20:25Z</time>
      </trkpt>
      <trkpt lat="45.95079" lon="4.89225">
        <ele>284</ele>
        <time>2017-07-10T10:20:26Z</time>
      </trkpt>
      <trkpt lat="45.9508" lon="4.89218">
        <ele>284</ele>
        <time>2017-07-10T10:20:27Z</time>
      </trkpt>
      <trkpt lat="45.9508" lon="4.89211">
        <ele>284</ele>
        <time>2017-07-10T10:20:28Z</time>
      </trkpt>
      <trkpt lat="45.9508" lon="4.89205">
        <ele>284</ele>
        <time>2017-07-10T10:20:29Z</time>
      </trkpt>
      <trkpt lat="45.95081" lon="4.89198">
        <ele>284</ele>
        <time>2017-07-10T10:20:30Z</time>
      </trkpt>
      <trkpt lat="45.95081" lon="4.89192">
        <ele>284</ele>
        <time>2017-07-10T10:20:31Z</time>
      </trkpt>
      <trkpt lat="45.95082" lon="4.89185">
        <ele>284</ele>
        <time>2017-07-10T10:20:32Z</time>
      </trkpt>
      <trkpt lat="45.95082" lon="4.89178">
        <ele>284</ele>
        <time>2017-07-10T10:20:33Z</time>
      </trkpt>
      <trkpt lat="45.95083" lon="4.89166">
        <ele>284</ele>
        <time>2017-07-10T10:20:35Z</time>
      </trkpt>
      <trkpt lat="45.95084" lon="4.8916">
        <ele>284</ele>
        <time>2017-07-10T10:20:36Z</time>
      </trkpt>
      <trkpt lat="45.95083" lon="4.89147">
        <ele>284</ele>
        <time>2017-07-10T10:20:38Z</time>
      </trkpt>
      <trkpt lat="45.95083" lon="4.8914">
        <ele>285</ele>
        <time>2017-07-10T10:20:39Z</time>
      </trkpt>
      <trkpt lat="45.95084" lon="4.89134">
        <ele>283</ele>
        <time>2017-07-10T10:20:40Z</time>
      </trkpt>
      <trkpt lat="45.95085" lon="4.89127">
        <ele>283</ele>
        <time>2017-07-10T10:20:41Z</time>
      </trkpt>
      <trkpt lat="45.95086" lon="4.8912">
        <ele>283</ele>
        <time>2017-07-10T10:20:42Z</time>
      </trkpt>
      <trkpt lat="45.95086" lon="4.89113">
        <ele>283</ele>
        <time>2017-07-10T10:20:43Z</time>
      </trkpt>
      <trkpt lat="45.95086" lon="4.89106">
        <ele>283</ele>
        <time>2017-07-10T10:20:44Z</time>
      </trkpt>
      <trkpt lat="45.95086" lon="4.89098">
        <ele>283</ele>
        <time>2017-07-10T10:20:45Z</time>
      </trkpt>
      <trkpt lat="45.95087" lon="4.89091">
        <ele>284</ele>
        <time>2017-07-10T10:20:46Z</time>
      </trkpt>
      <trkpt lat="45.95087" lon="4.89084">
        <ele>284</ele>
        <time>2017-07-10T10:20:47Z</time>
      </trkpt>
      <trkpt lat="45.95088" lon="4.89077">
        <ele>284</ele>
        <time>2017-07-10T10:20:48Z</time>
      </trkpt>
      <trkpt lat="45.95089" lon="4.89071">
        <ele>284</ele>
        <time>2017-07-10T10:20:49Z</time>
      </trkpt>
      <trkpt lat="45.9509" lon="4.89064">
        <ele>284</ele>
        <time>2017-07-10T10:20:50Z</time>
      </trkpt>
      <trkpt lat="45.95091" lon="4.89057">
        <ele>284</ele>
        <time>2017-07-10T10:20:51Z</time>
      </trkpt>
      <trkpt lat="45.95092" lon="4.8905">
        <ele>284</ele>
        <time>2017-07-10T10:20:52Z</time>
      </trkpt>
      <trkpt lat="45.95093" lon="4.89043">
        <ele>284</ele>
        <time>2017-07-10T10:20:53Z</time>
      </trkpt>
      <trkpt lat="45.95094" lon="4.89037">
        <ele>284</ele>
        <time>2017-07-10T10:20:54Z</time>
      </trkpt>
      <trkpt lat="45.95094" lon="4.8903">
        <ele>284</ele>
        <time>2017-07-10T10:20:55Z</time>
      </trkpt>
      <trkpt lat="45.95095" lon="4.89017">
        <ele>284</ele>
        <time>2017-07-10T10:20:57Z</time>
      </trkpt>
      <trkpt lat="45.95095" lon="4.8901">
        <ele>284</ele>
        <time>2017-07-10T10:20:58Z</time>
      </trkpt>
      <trkpt lat="45.95096" lon="4.89004">
        <ele>284</ele>
        <time>2017-07-10T10:20:59Z</time>
      </trkpt>
      <trkpt lat="45.95096" lon="4.88998">
        <ele>285</ele>
        <time>2017-07-10T10:21:00Z</time>
      </trkpt>
      <trkpt lat="45.95097" lon="4.88985">
        <ele>284</ele>
        <time>2017-07-10T10:21:02Z</time>
      </trkpt>
      <trkpt lat="45.95098" lon="4.88979">
        <ele>284</ele>
        <time>2017-07-10T10:21:03Z</time>
      </trkpt>
      <trkpt lat="45.95099" lon="4.88972">
        <ele>284</ele>
        <time>2017-07-10T10:21:04Z</time>
      </trkpt>
      <trkpt lat="45.95099" lon="4.88964">
        <ele>284</ele>
        <time>2017-07-10T10:21:05Z</time>
      </trkpt>
      <trkpt lat="45.951" lon="4.88957">
        <ele>284</ele>
        <time>2017-07-10T10:21:06Z</time>
      </trkpt>
      <trkpt lat="45.95101" lon="4.88949">
        <ele>284</ele>
        <time>2017-07-10T10:21:07Z</time>
      </trkpt>
      <trkpt lat="45.95102" lon="4.88942">
        <ele>285</ele>
        <time>2017-07-10T10:21:08Z</time>
      </trkpt>
      <trkpt lat="45.95103" lon="4.88935">
        <ele>285</ele>
        <time>2017-07-10T10:21:09Z</time>
      </trkpt>
      <trkpt lat="45.95103" lon="4.88929">
        <ele>285</ele>
        <time>2017-07-10T10:21:10Z</time>
      </trkpt>
      <trkpt lat="45.95104" lon="4.88922">
        <ele>285</ele>
        <time>2017-07-10T10:21:11Z</time>
      </trkpt>
      <trkpt lat="45.95104" lon="4.88915">
        <ele>285</ele>
        <time>2017-07-10T10:21:12Z</time>
      </trkpt>
      <trkpt lat="45.95104" lon="4.88909">
        <ele>285</ele>
        <time>2017-07-10T10:21:13Z</time>
      </trkpt>
      <trkpt lat="45.95104" lon="4.88901">
        <ele>285</ele>
        <time>2017-07-10T10:21:14Z</time>
      </trkpt>
      <trkpt lat="45.95104" lon="4.88894">
        <ele>285</ele>
        <time>2017-07-10T10:21:15Z</time>
      </trkpt>
      <trkpt lat="45.95104" lon="4.88886">
        <ele>285</ele>
        <time>2017-07-10T10:21:16Z</time>
      </trkpt>
      <trkpt lat="45.95105" lon="4.88879">
        <ele>285</ele>
        <time>2017-07-10T10:21:17Z</time>
      </trkpt>
      <trkpt lat="45.95106" lon="4.88871">
        <ele>285</ele>
        <time>2017-07-10T10:21:18Z</time>
      </trkpt>
      <trkpt lat="45.95106" lon="4.88864">
        <ele>285</ele>
        <time>2017-07-10T10:21:19Z</time>
      </trkpt>
      <trkpt lat="45.95107" lon="4.88857">
        <ele>285</ele>
        <time>2017-07-10T10:21:20Z</time>
      </trkpt>
      <trkpt lat="45.95107" lon="4.88851">
        <ele>285</ele>
        <time>2017-07-10T10:21:21Z</time>
      </trkpt>
      <trkpt lat="45.95107" lon="4.88844">
        <ele>285</ele>
        <time>2017-07-10T10:21:22Z</time>
      </trkpt>
      <trkpt lat="45.95108" lon="4.88838">
        <ele>285</ele>
        <time>2017-07-10T10:21:23Z</time>
      </trkpt>
      <trkpt lat="45.95108" lon="4.88831">
        <ele>286</ele>
        <time>2017-07-10T10:21:24Z</time>
      </trkpt>
      <trkpt lat="45.95109" lon="4.88824">
        <ele>286</ele>
        <time>2017-07-10T10:21:25Z</time>
      </trkpt>
      <trkpt lat="45.9511" lon="4.88816">
        <ele>286</ele>
        <time>2017-07-10T10:21:26Z</time>
      </trkpt>
      <trkpt lat="45.9511" lon="4.88809">
        <ele>286</ele>
        <time>2017-07-10T10:21:27Z</time>
      </trkpt>
      <trkpt lat="45.95111" lon="4.88801">
        <ele>286</ele>
        <time>2017-07-10T10:21:28Z</time>
      </trkpt>
      <trkpt lat="45.95112" lon="4.88793">
        <ele>286</ele>
        <time>2017-07-10T10:21:29Z</time>
      </trkpt>
      <trkpt lat="45.95112" lon="4.88785">
        <ele>287</ele>
        <time>2017-07-10T10:21:30Z</time>
      </trkpt>
      <trkpt lat="45.95111" lon="4.88777">
        <ele>287</ele>
        <time>2017-07-10T10:21:31Z</time>
      </trkpt>
      <trkpt lat="45.95111" lon="4.88769">
        <ele>287</ele>
        <time>2017-07-10T10:21:32Z</time>
      </trkpt>
      <trkpt lat="45.95111" lon="4.88761">
        <ele>287</ele>
        <time>2017-07-10T10:21:33Z</time>
      </trkpt>
      <trkpt lat="45.95111" lon="4.88754">
        <ele>287</ele>
        <time>2017-07-10T10:21:34Z</time>
      </trkpt>
      <trkpt lat="45.95111" lon="4.88746">
        <ele>288</ele>
        <time>2017-07-10T10:21:35Z</time>
      </trkpt>
      <trkpt lat="45.95112" lon="4.88739">
        <ele>288</ele>
        <time>2017-07-10T10:21:36Z</time>
      </trkpt>
      <trkpt lat="45.95111" lon="4.88732">
        <ele>288</ele>
        <time>2017-07-10T10:21:37Z</time>
      </trkpt>
      <trkpt lat="45.95111" lon="4.88725">
        <ele>289</ele>
        <time>2017-07-10T10:21:38Z</time>
      </trkpt>
      <trkpt lat="45.95111" lon="4.88718">
        <ele>289</ele>
        <time>2017-07-10T10:21:39Z</time>
      </trkpt>
      <trkpt lat="45.95111" lon="4.88711">
        <ele>289</ele>
        <time>2017-07-10T10:21:40Z</time>
      </trkpt>
      <trkpt lat="45.95112" lon="4.88704">
        <ele>289</ele>
        <time>2017-07-10T10:21:41Z</time>
      </trkpt>
      <trkpt lat="45.95111" lon="4.88697">
        <ele>289</ele>
        <time>2017-07-10T10:21:42Z</time>
      </trkpt>
      <trkpt lat="45.95111" lon="4.8869">
        <ele>289</ele>
        <time>2017-07-10T10:21:43Z</time>
      </trkpt>
      <trkpt lat="45.95111" lon="4.88683">
        <ele>289</ele>
        <time>2017-07-10T10:21:44Z</time>
      </trkpt>
      <trkpt lat="45.95111" lon="4.88676">
        <ele>289</ele>
        <time>2017-07-10T10:21:45Z</time>
      </trkpt>
      <trkpt lat="45.95111" lon="4.88669">
        <ele>289</ele>
        <time>2017-07-10T10:21:46Z</time>
      </trkpt>
      <trkpt lat="45.95111" lon="4.88663">
        <ele>290</ele>
        <time>2017-07-10T10:21:47Z</time>
      </trkpt>
      <trkpt lat="45.95112" lon="4.8865">
        <ele>290</ele>
        <time>2017-07-10T10:21:49Z</time>
      </trkpt>
      <trkpt lat="45.95112" lon="4.88644">
        <ele>290</ele>
        <time>2017-07-10T10:21:50Z</time>
      </trkpt>
      <trkpt lat="45.95113" lon="4.88632">
        <ele>290</ele>
        <time>2017-07-10T10:21:52Z</time>
      </trkpt>
      <trkpt lat="45.95115" lon="4.88625">
        <ele>290</ele>
        <time>2017-07-10T10:21:53Z</time>
      </trkpt>
      <trkpt lat="45.95117" lon="4.88613">
        <ele>290</ele>
        <time>2017-07-10T10:21:55Z</time>
      </trkpt>
      <trkpt lat="45.95118" lon="4.88607">
        <ele>290</ele>
        <time>2017-07-10T10:21:56Z</time>
      </trkpt>
      <trkpt lat="45.95121" lon="4.88595">
        <ele>290</ele>
        <time>2017-07-10T10:21:58Z</time>
      </trkpt>
      <trkpt lat="45.95122" lon="4.88589">
        <ele>290</ele>
        <time>2017-07-10T10:21:59Z</time>
      </trkpt>
      <trkpt lat="45.95122" lon="4.88583">
        <ele>291</ele>
        <time>2017-07-10T10:22:00Z</time>
      </trkpt>
      <trkpt lat="45.95124" lon="4.88577">
        <ele>291</ele>
        <time>2017-07-10T10:22:01Z</time>
      </trkpt>
      <trkpt lat="45.95125" lon="4.88565">
        <ele>291</ele>
        <time>2017-07-10T10:22:03Z</time>
      </trkpt>
      <trkpt lat="45.95124" lon="4.88559">
        <ele>291</ele>
        <time>2017-07-10T10:22:04Z</time>
      </trkpt>
      <trkpt lat="45.95121" lon="4.88547">
        <ele>291</ele>
        <time>2017-07-10T10:22:06Z</time>
      </trkpt>
      <trkpt lat="45.95119" lon="4.88541">
        <ele>291</ele>
        <time>2017-07-10T10:22:07Z</time>
      </trkpt>
      <trkpt lat="45.95115" lon="4.8853">
        <ele>291</ele>
        <time>2017-07-10T10:22:09Z</time>
      </trkpt>
      <trkpt lat="45.95113" lon="4.88525">
        <ele>291</ele>
        <time>2017-07-10T10:22:10Z</time>
      </trkpt>
      <trkpt lat="45.95111" lon="4.88519">
        <ele>291</ele>
        <time>2017-07-10T10:22:11Z</time>
      </trkpt>
      <trkpt lat="45.9511" lon="4.88512">
        <ele>291</ele>
        <time>2017-07-10T10:22:12Z</time>
      </trkpt>
      <trkpt lat="45.95108" lon="4.88505">
        <ele>291</ele>
        <time>2017-07-10T10:22:13Z</time>
      </trkpt>
      <trkpt lat="45.95107" lon="4.88499">
        <ele>291</ele>
        <time>2017-07-10T10:22:14Z</time>
      </trkpt>
      <trkpt lat="45.95106" lon="4.88492">
        <ele>291</ele>
        <time>2017-07-10T10:22:15Z</time>
      </trkpt>
      <trkpt lat="45.95104" lon="4.88486">
        <ele>291</ele>
        <time>2017-07-10T10:22:16Z</time>
      </trkpt>
      <trkpt lat="45.95102" lon="4.88474">
        <ele>291</ele>
        <time>2017-07-10T10:22:18Z</time>
      </trkpt>
      <trkpt lat="45.95102" lon="4.88468">
        <ele>291</ele>
        <time>2017-07-10T10:22:19Z</time>
      </trkpt>
      <trkpt lat="45.95101" lon="4.88456">
        <ele>291</ele>
        <time>2017-07-10T10:22:21Z</time>
      </trkpt>
      <trkpt lat="45.95102" lon="4.8845">
        <ele>291</ele>
        <time>2017-07-10T10:22:22Z</time>
      </trkpt>
      <trkpt lat="45.95103" lon="4.88438">
        <ele>291</ele>
        <time>2017-07-10T10:22:24Z</time>
      </trkpt>
      <trkpt lat="45.95105" lon="4.88432">
        <ele>291</ele>
        <time>2017-07-10T10:22:25Z</time>
      </trkpt>
      <trkpt lat="45.95108" lon="4.88421">
        <ele>291</ele>
        <time>2017-07-10T10:22:27Z</time>
      </trkpt>
      <trkpt lat="45.95108" lon="4.88415">
        <ele>291</ele>
        <time>2017-07-10T10:22:28Z</time>
      </trkpt>
      <trkpt lat="45.95109" lon="4.88405">
        <ele>291</ele>
        <time>2017-07-10T10:22:30Z</time>
      </trkpt>
      <trkpt lat="45.9511" lon="4.884">
        <ele>291</ele>
        <time>2017-07-10T10:22:31Z</time>
      </trkpt>
      <trkpt lat="45.95111" lon="4.8839">
        <ele>291</ele>
        <time>2017-07-10T10:22:33Z</time>
      </trkpt>
      <trkpt lat="45.95112" lon="4.88385">
        <ele>291</ele>
        <time>2017-07-10T10:22:34Z</time>
      </trkpt>
      <trkpt lat="45.95113" lon="4.88375">
        <ele>290</ele>
        <time>2017-07-10T10:22:36Z</time>
      </trkpt>
      <trkpt lat="45.95113" lon="4.88369">
        <ele>290</ele>
        <time>2017-07-10T10:22:37Z</time>
      </trkpt>
      <trkpt lat="45.95114" lon="4.88362">
        <ele>290</ele>
        <time>2017-07-10T10:22:38Z</time>
      </trkpt>
      <trkpt lat="45.95115" lon="4.88356">
        <ele>290</ele>
        <time>2017-07-10T10:22:39Z</time>
      </trkpt>
      <trkpt lat="45.95118" lon="4.88344">
        <ele>290</ele>
        <time>2017-07-10T10:22:41Z</time>
      </trkpt>
      <trkpt lat="45.95119" lon="4.88337">
        <ele>290</ele>
        <time>2017-07-10T10:22:42Z</time>
      </trkpt>
      <trkpt lat="45.95119" lon="4.8833">
        <ele>289</ele>
        <time>2017-07-10T10:22:43Z</time>
      </trkpt>
      <trkpt lat="45.95119" lon="4.88323">
        <ele>289</ele>
        <time>2017-07-10T10:22:44Z</time>
      </trkpt>
      <trkpt lat="45.95121" lon="4.88315">
        <ele>289</ele>
        <time>2017-07-10T10:22:45Z</time>
      </trkpt>
      <trkpt lat="45.95122" lon="4.88308">
        <ele>289</ele>
        <time>2017-07-10T10:22:46Z</time>
      </trkpt>
      <trkpt lat="45.95123" lon="4.883">
        <ele>289</ele>
        <time>2017-07-10T10:22:47Z</time>
      </trkpt>
      <trkpt lat="45.95124" lon="4.88293">
        <ele>289</ele>
        <time>2017-07-10T10:22:48Z</time>
      </trkpt>
      <trkpt lat="45.95125" lon="4.88285">
        <ele>289</ele>
        <time>2017-07-10T10:22:49Z</time>
      </trkpt>
      <trkpt lat="45.95126" lon="4.88278">
        <ele>289</ele>
        <time>2017-07-10T10:22:50Z</time>
      </trkpt>
      <trkpt lat="45.95126" lon="4.88269">
        <ele>289</ele>
        <time>2017-07-10T10:22:51Z</time>
      </trkpt>
      <trkpt lat="45.95127" lon="4.88261">
        <ele>289</ele>
        <time>2017-07-10T10:22:52Z</time>
      </trkpt>
      <trkpt lat="45.95127" lon="4.88253">
        <ele>289</ele>
        <time>2017-07-10T10:22:53Z</time>
      </trkpt>
      <trkpt lat="45.95126" lon="4.88245">
        <ele>287</ele>
        <time>2017-07-10T10:22:54Z</time>
      </trkpt>
      <trkpt lat="45.95126" lon="4.88238">
        <ele>287</ele>
        <time>2017-07-10T10:22:55Z</time>
      </trkpt>
      <trkpt lat="45.95127" lon="4.8823">
        <ele>287</ele>
        <time>2017-07-10T10:22:56Z</time>
      </trkpt>
      <trkpt lat="45.95127" lon="4.88222">
        <ele>287</ele>
        <time>2017-07-10T10:22:57Z</time>
      </trkpt>
      <trkpt lat="45.95128" lon="4.88213">
        <ele>287</ele>
        <time>2017-07-10T10:22:58Z</time>
      </trkpt>
      <trkpt lat="45.95131" lon="4.88205">
        <ele>287</ele>
        <time>2017-07-10T10:22:59Z</time>
      </trkpt>
      <trkpt lat="45.95133" lon="4.88196">
        <ele>287</ele>
        <time>2017-07-10T10:23:00Z</time>
      </trkpt>
      <trkpt lat="45.95137" lon="4.8819">
        <ele>286</ele>
        <time>2017-07-10T10:23:01Z</time>
      </trkpt>
      <trkpt lat="45.9514" lon="4.88184">
        <ele>286</ele>
        <time>2017-07-10T10:23:02Z</time>
      </trkpt>
      <trkpt lat="45.95147" lon="4.8818">
        <ele>286</ele>
        <time>2017-07-10T10:23:03Z</time>
      </trkpt>
      <trkpt lat="45.95153" lon="4.88177">
        <ele>286</ele>
        <time>2017-07-10T10:23:04Z</time>
      </trkpt>
      <trkpt lat="45.95159" lon="4.88175">
        <ele>286</ele>
        <time>2017-07-10T10:23:05Z</time>
      </trkpt>
      <trkpt lat="45.95165" lon="4.88171">
        <ele>285</ele>
        <time>2017-07-10T10:23:06Z</time>
      </trkpt>
      <trkpt lat="45.9517" lon="4.88166">
        <ele>285</ele>
        <time>2017-07-10T10:23:07Z</time>
      </trkpt>
      <trkpt lat="45.95174" lon="4.8816">
        <ele>284</ele>
        <time>2017-07-10T10:23:08Z</time>
      </trkpt>
      <trkpt lat="45.95177" lon="4.88152">
        <ele>283</ele>
        <time>2017-07-10T10:23:09Z</time>
      </trkpt>
      <trkpt lat="45.95178" lon="4.88144">
        <ele>283</ele>
        <time>2017-07-10T10:23:10Z</time>
      </trkpt>
      <trkpt lat="45.95179" lon="4.88136">
        <ele>283</ele>
        <time>2017-07-10T10:23:11Z</time>
      </trkpt>
      <trkpt lat="45.9518" lon="4.88128">
        <ele>282</ele>
        <time>2017-07-10T10:23:12Z</time>
      </trkpt>
      <trkpt lat="45.95182" lon="4.88121">
        <ele>282</ele>
        <time>2017-07-10T10:23:13Z</time>
      </trkpt>
      <trkpt lat="45.95184" lon="4.88113">
        <ele>282</ele>
        <time>2017-07-10T10:23:14Z</time>
      </trkpt>
      <trkpt lat="45.95186" lon="4.88105">
        <ele>282</ele>
        <time>2017-07-10T10:23:15Z</time>
      </trkpt>
      <trkpt lat="45.95187" lon="4.88097">
        <ele>282</ele>
        <time>2017-07-10T10:23:16Z</time>
      </trkpt>
      <trkpt lat="45.95189" lon="4.88089">
        <ele>282</ele>
        <time>2017-07-10T10:23:17Z</time>
      </trkpt>
      <trkpt lat="45.95191" lon="4.88081">
        <ele>281</ele>
        <time>2017-07-10T10:23:18Z</time>
      </trkpt>
      <trkpt lat="45.95193" lon="4.88074">
        <ele>281</ele>
        <time>2017-07-10T10:23:19Z</time>
      </trkpt>
      <trkpt lat="45.95195" lon="4.88065">
        <ele>281</ele>
        <time>2017-07-10T10:23:20Z</time>
      </trkpt>
      <trkpt lat="45.95198" lon="4.88057">
        <ele>281</ele>
        <time>2017-07-10T10:23:21Z</time>
      </trkpt>
      <trkpt lat="45.95202" lon="4.88049">
        <ele>281</ele>
        <time>2017-07-10T10:23:22Z</time>
      </trkpt>
      <trkpt lat="45.95205" lon="4.88041">
        <ele>281</ele>
        <time>2017-07-10T10:23:23Z</time>
      </trkpt>
      <trkpt lat="45.95209" lon="4.88033">
        <ele>281</ele>
        <time>2017-07-10T10:23:24Z</time>
      </trkpt>
      <trkpt lat="45.95212" lon="4.88027">
        <ele>281</ele>
        <time>2017-07-10T10:23:25Z</time>
      </trkpt>
      <trkpt lat="45.95216" lon="4.88021">
        <ele>281</ele>
        <time>2017-07-10T10:23:26Z</time>
      </trkpt>
      <trkpt lat="45.9522" lon="4.88015">
        <ele>281</ele>
        <time>2017-07-10T10:23:27Z</time>
      </trkpt>
      <trkpt lat="45.95225" lon="4.88009">
        <ele>281</ele>
        <time>2017-07-10T10:23:28Z</time>
      </trkpt>
      <trkpt lat="45.95229" lon="4.88004">
        <ele>280</ele>
        <time>2017-07-10T10:23:29Z</time>
      </trkpt>
      <trkpt lat="45.95233" lon="4.87999">
        <ele>281</ele>
        <time>2017-07-10T10:23:30Z</time>
      </trkpt>
      <trkpt lat="45.95237" lon="4.87993">
        <ele>281</ele>
        <time>2017-07-10T10:23:31Z</time>
      </trkpt>
      <trkpt lat="45.95242" lon="4.87987">
        <ele>281</ele>
        <time>2017-07-10T10:23:32Z</time>
      </trkpt>
      <trkpt lat="45.95246" lon="4.87981">
        <ele>281</ele>
        <time>2017-07-10T10:23:33Z</time>
      </trkpt>
      <trkpt lat="45.9525" lon="4.87974">
        <ele>280</ele>
        <time>2017-07-10T10:23:34Z</time>
      </trkpt>
      <trkpt lat="45.95254" lon="4.87968">
        <ele>280</ele>
        <time>2017-07-10T10:23:35Z</time>
      </trkpt>
      <trkpt lat="45.95257" lon="4.87961">
        <ele>280</ele>
        <time>2017-07-10T10:23:36Z</time>
      </trkpt>
      <trkpt lat="45.9526" lon="4.87954">
        <ele>280</ele>
        <time>2017-07-10T10:23:37Z</time>
      </trkpt>
      <trkpt lat="45.95263" lon="4.87947">
        <ele>280</ele>
        <time>2017-07-10T10:23:38Z</time>
      </trkpt>
      <trkpt lat="45.95265" lon="4.87939">
        <ele>280</ele>
        <time>2017-07-10T10:23:39Z</time>
      </trkpt>
      <trkpt lat="45.95267" lon="4.87932">
        <ele>280</ele>
        <time>2017-07-10T10:23:40Z</time>
      </trkpt>
      <trkpt lat="45.95268" lon="4.87924">
        <ele>281</ele>
        <time>2017-07-10T10:23:41Z</time>
      </trkpt>
      <trkpt lat="45.95268" lon="4.87916">
        <ele>281</ele>
        <time>2017-07-10T10:23:42Z</time>
      </trkpt>
      <trkpt lat="45.95267" lon="4.87909">
        <ele>281</ele>
        <time>2017-07-10T10:23:43Z</time>
      </trkpt>
      <trkpt lat="45.95266" lon="4.87901">
        <ele>281</ele>
        <time>2017-07-10T10:23:44Z</time>
      </trkpt>
      <trkpt lat="45.95265" lon="4.87893">
        <ele>281</ele>
        <time>2017-07-10T10:23:45Z</time>
      </trkpt>
      <trkpt lat="45.95262" lon="4.87886">
        <ele>281</ele>
        <time>2017-07-10T10:23:46Z</time>
      </trkpt>
      <trkpt lat="45.95261" lon="4.87878">
        <ele>280</ele>
        <time>2017-07-10T10:23:47Z</time>
      </trkpt>
      <trkpt lat="45.95259" lon="4.8787">
        <ele>280</ele>
        <time>2017-07-10T10:23:48Z</time>
      </trkpt>
      <trkpt lat="45.95258" lon="4.87861">
        <ele>281</ele>
        <time>2017-07-10T10:23:49Z</time>
      </trkpt>
      <trkpt lat="45.95256" lon="4.87854">
        <ele>281</ele>
        <time>2017-07-10T10:23:50Z</time>
      </trkpt>
      <trkpt lat="45.95254" lon="4.87846">
        <ele>281</ele>
        <time>2017-07-10T10:23:51Z</time>
      </trkpt>
      <trkpt lat="45.95252" lon="4.87838">
        <ele>282</ele>
        <time>2017-07-10T10:23:52Z</time>
      </trkpt>
      <trkpt lat="45.9525" lon="4.87831">
        <ele>282</ele>
        <time>2017-07-10T10:23:53Z</time>
      </trkpt>
      <trkpt lat="45.95248" lon="4.87823">
        <ele>282</ele>
        <time>2017-07-10T10:23:54Z</time>
      </trkpt>
      <trkpt lat="45.95246" lon="4.87816">
        <ele>282</ele>
        <time>2017-07-10T10:23:55Z</time>
      </trkpt>
      <trkpt lat="45.95244" lon="4.87807">
        <ele>282</ele>
        <time>2017-07-10T10:23:56Z</time>
      </trkpt>
      <trkpt lat="45.95243" lon="4.87799">
        <ele>282</ele>
        <time>2017-07-10T10:23:57Z</time>
      </trkpt>
      <trkpt lat="45.95241" lon="4.87791">
        <ele>282</ele>
        <time>2017-07-10T10:23:58Z</time>
      </trkpt>
      <trkpt lat="45.95239" lon="4.87784">
        <ele>282</ele>
        <time>2017-07-10T10:23:59Z</time>
      </trkpt>
      <trkpt lat="45.95236" lon="4.87776">
        <ele>282</ele>
        <time>2017-07-10T10:24:00Z</time>
      </trkpt>
      <trkpt lat="45.95234" lon="4.87768">
        <ele>282</ele>
        <time>2017-07-10T10:24:01Z</time>
      </trkpt>
      <trkpt lat="45.95233" lon="4.87761">
        <ele>281</ele>
        <time>2017-07-10T10:24:02Z</time>
      </trkpt>
      <trkpt lat="45.95231" lon="4.87753">
        <ele>281</ele>
        <time>2017-07-10T10:24:03Z</time>
      </trkpt>
      <trkpt lat="45.9523" lon="4.87745">
        <ele>280</ele>
        <time>2017-07-10T10:24:04Z</time>
      </trkpt>
      <trkpt lat="45.95228" lon="4.87737">
        <ele>280</ele>
        <time>2017-07-10T10:24:05Z</time>
      </trkpt>
      <trkpt lat="45.95226" lon="4.8773">
        <ele>280</ele>
        <time>2017-07-10T10:24:06Z</time>
      </trkpt>
      <trkpt lat="45.95225" lon="4.87722">
        <ele>280</ele>
        <time>2017-07-10T10:24:07Z</time>
      </trkpt>
      <trkpt lat="45.95224" lon="4.87714">
        <ele>279</ele>
        <time>2017-07-10T10:24:08Z</time>
      </trkpt>
      <trkpt lat="45.95224" lon="4.87706">
        <ele>279</ele>
        <time>2017-07-10T10:24:09Z</time>
      </trkpt>
      <trkpt lat="45.95224" lon="4.87698">
        <ele>279</ele>
        <time>2017-07-10T10:24:10Z</time>
      </trkpt>
      <trkpt lat="45.95222" lon="4.87689">
        <ele>279</ele>
        <time>2017-07-10T10:24:11Z</time>
      </trkpt>
      <trkpt lat="45.9522" lon="4.87679">
        <ele>279</ele>
        <time>2017-07-10T10:24:12Z</time>
      </trkpt>
      <trkpt lat="45.95219" lon="4.87669">
        <ele>278</ele>
        <time>2017-07-10T10:24:13Z</time>
      </trkpt>
      <trkpt lat="45.95219" lon="4.87659">
        <ele>276</ele>
        <time>2017-07-10T10:24:14Z</time>
      </trkpt>
      <trkpt lat="45.95217" lon="4.8765">
        <ele>276</ele>
        <time>2017-07-10T10:24:15Z</time>
      </trkpt>
      <trkpt lat="45.95216" lon="4.87639">
        <ele>276</ele>
        <time>2017-07-10T10:24:16Z</time>
      </trkpt>
      <trkpt lat="45.95215" lon="4.8763">
        <ele>276</ele>
        <time>2017-07-10T10:24:17Z</time>
      </trkpt>
      <trkpt lat="45.95213" lon="4.87619">
        <ele>276</ele>
        <time>2017-07-10T10:24:18Z</time>
      </trkpt>
      <trkpt lat="45.95212" lon="4.87608">
        <ele>276</ele>
        <time>2017-07-10T10:24:19Z</time>
      </trkpt>
      <trkpt lat="45.95212" lon="4.87596">
        <ele>276</ele>
        <time>2017-07-10T10:24:20Z</time>
      </trkpt>
      <trkpt lat="45.95211" lon="4.87585">
        <ele>276</ele>
        <time>2017-07-10T10:24:21Z</time>
      </trkpt>
      <trkpt lat="45.9521" lon="4.87573">
        <ele>274</ele>
        <time>2017-07-10T10:24:22Z</time>
      </trkpt>
      <trkpt lat="45.95209" lon="4.87561">
        <ele>274</ele>
        <time>2017-07-10T10:24:23Z</time>
      </trkpt>
      <trkpt lat="45.95208" lon="4.87549">
        <ele>274</ele>
        <time>2017-07-10T10:24:24Z</time>
      </trkpt>
      <trkpt lat="45.95207" lon="4.87537">
        <ele>274</ele>
        <time>2017-07-10T10:24:25Z</time>
      </trkpt>
      <trkpt lat="45.95205" lon="4.87526">
        <ele>274</ele>
        <time>2017-07-10T10:24:26Z</time>
      </trkpt>
      <trkpt lat="45.95204" lon="4.87514">
        <ele>273</ele>
        <time>2017-07-10T10:24:27Z</time>
      </trkpt>
      <trkpt lat="45.95201" lon="4.87503">
        <ele>273</ele>
        <time>2017-07-10T10:24:28Z</time>
      </trkpt>
      <trkpt lat="45.95199" lon="4.87492">
        <ele>272</ele>
        <time>2017-07-10T10:24:29Z</time>
      </trkpt>
      <trkpt lat="45.95196" lon="4.87481">
        <ele>272</ele>
        <time>2017-07-10T10:24:30Z</time>
      </trkpt>
      <trkpt lat="45.95193" lon="4.87471">
        <ele>272</ele>
        <time>2017-07-10T10:24:31Z</time>
      </trkpt>
      <trkpt lat="45.9519" lon="4.8746">
        <ele>272</ele>
        <time>2017-07-10T10:24:32Z</time>
      </trkpt>
      <trkpt lat="45.95186" lon="4.8745">
        <ele>272</ele>
        <time>2017-07-10T10:24:33Z</time>
      </trkpt>
      <trkpt lat="45.95183" lon="4.8744">
        <ele>272</ele>
        <time>2017-07-10T10:24:34Z</time>
      </trkpt>
      <trkpt lat="45.95181" lon="4.8743">
        <ele>271</ele>
        <time>2017-07-10T10:24:35Z</time>
      </trkpt>
      <trkpt lat="45.95179" lon="4.8742">
        <ele>271</ele>
        <time>2017-07-10T10:24:36Z</time>
      </trkpt>
      <trkpt lat="45.95176" lon="4.87411">
        <ele>271</ele>
        <time>2017-07-10T10:24:37Z</time>
      </trkpt>
      <trkpt lat="45.95174" lon="4.87403">
        <ele>271</ele>
        <time>2017-07-10T10:24:38Z</time>
      </trkpt>
      <trkpt lat="45.95171" lon="4.87395">
        <ele>271</ele>
        <time>2017-07-10T10:24:39Z</time>
      </trkpt>
      <trkpt lat="45.9517" lon="4.87387">
        <ele>271</ele>
        <time>2017-07-10T10:24:40Z</time>
      </trkpt>
      <trkpt lat="45.95169" lon="4.87379">
        <ele>271</ele>
        <time>2017-07-10T10:24:41Z</time>
      </trkpt>
      <trkpt lat="45.95167" lon="4.87372">
        <ele>271</ele>
        <time>2017-07-10T10:24:42Z</time>
      </trkpt>
      <trkpt lat="45.95166" lon="4.87364">
        <ele>272</ele>
        <time>2017-07-10T10:24:43Z</time>
      </trkpt>
      <trkpt lat="45.95164" lon="4.87356">
        <ele>272</ele>
        <time>2017-07-10T10:24:44Z</time>
      </trkpt>
      <trkpt lat="45.95163" lon="4.87348">
        <ele>272</ele>
        <time>2017-07-10T10:24:45Z</time>
      </trkpt>
      <trkpt lat="45.95162" lon="4.8734">
        <ele>272</ele>
        <time>2017-07-10T10:24:46Z</time>
      </trkpt>
      <trkpt lat="45.95161" lon="4.87332">
        <ele>272</ele>
        <time>2017-07-10T10:24:47Z</time>
      </trkpt>
      <trkpt lat="45.95159" lon="4.87324">
        <ele>272</ele>
        <time>2017-07-10T10:24:48Z</time>
      </trkpt>
      <trkpt lat="45.95157" lon="4.87315">
        <ele>273</ele>
        <time>2017-07-10T10:24:49Z</time>
      </trkpt>
      <trkpt lat="45.95155" lon="4.87307">
        <ele>273</ele>
        <time>2017-07-10T10:24:50Z</time>
      </trkpt>
      <trkpt lat="45.95152" lon="4.87299">
        <ele>274</ele>
        <time>2017-07-10T10:24:51Z</time>
      </trkpt>
      <trkpt lat="45.9515" lon="4.87291">
        <ele>274</ele>
        <time>2017-07-10T10:24:52Z</time>
      </trkpt>
      <trkpt lat="45.95148" lon="4.87282">
        <ele>274</ele>
        <time>2017-07-10T10:24:53Z</time>
      </trkpt>
      <trkpt lat="45.95146" lon="4.87274">
        <ele>274</ele>
        <time>2017-07-10T10:24:54Z</time>
      </trkpt>
      <trkpt lat="45.95144" lon="4.87266">
        <ele>274</ele>
        <time>2017-07-10T10:24:55Z</time>
      </trkpt>
      <trkpt lat="45.95143" lon="4.87257">
        <ele>274</ele>
        <time>2017-07-10T10:24:56Z</time>
      </trkpt>
      <trkpt lat="45.95141" lon="4.87249">
        <ele>275</ele>
        <time>2017-07-10T10:24:57Z</time>
      </trkpt>
      <trkpt lat="45.9514" lon="4.87241">
        <ele>275</ele>
        <time>2017-07-10T10:24:58Z</time>
      </trkpt>
      <trkpt lat="45.95139" lon="4.87232">
        <ele>276</ele>
        <time>2017-07-10T10:24:59Z</time>
      </trkpt>
      <trkpt lat="45.95137" lon="4.87224">
        <ele>276</ele>
        <time>2017-07-10T10:25:00Z</time>
      </trkpt>
      <trkpt lat="45.95135" lon="4.87216">
        <ele>276</ele>
        <time>2017-07-10T10:25:01Z</time>
      </trkpt>
      <trkpt lat="45.95133" lon="4.87207">
        <ele>276</ele>
        <time>2017-07-10T10:25:02Z</time>
      </trkpt>
      <trkpt lat="45.9513" lon="4.87199">
        <ele>276</ele>
        <time>2017-07-10T10:25:03Z</time>
      </trkpt>
      <trkpt lat="45.95127" lon="4.87191">
        <ele>276</ele>
        <time>2017-07-10T10:25:04Z</time>
      </trkpt>
      <trkpt lat="45.95125" lon="4.87182">
        <ele>276</ele>
        <time>2017-07-10T10:25:05Z</time>
      </trkpt>
      <trkpt lat="45.95124" lon="4.87173">
        <ele>276</ele>
        <time>2017-07-10T10:25:06Z</time>
      </trkpt>
      <trkpt lat="45.95122" lon="4.87165">
        <ele>276</ele>
        <time>2017-07-10T10:25:07Z</time>
      </trkpt>
      <trkpt lat="45.95122" lon="4.87157">
        <ele>276</ele>
        <time>2017-07-10T10:25:08Z</time>
      </trkpt>
      <trkpt lat="45.95121" lon="4.8715">
        <ele>276</ele>
        <time>2017-07-10T10:25:09Z</time>
      </trkpt>
      <trkpt lat="45.95119" lon="4.87143">
        <ele>277</ele>
        <time>2017-07-10T10:25:10Z</time>
      </trkpt>
      <trkpt lat="45.95116" lon="4.87132">
        <ele>277</ele>
        <time>2017-07-10T10:25:12Z</time>
      </trkpt>
      <trkpt lat="45.95115" lon="4.87126">
        <ele>277</ele>
        <time>2017-07-10T10:25:13Z</time>
      </trkpt>
      <trkpt lat="45.95114" lon="4.8712">
        <ele>277</ele>
        <time>2017-07-10T10:25:14Z</time>
      </trkpt>
      <trkpt lat="45.95112" lon="4.87114">
        <ele>277</ele>
        <time>2017-07-10T10:25:15Z</time>
      </trkpt>
      <trkpt lat="45.95111" lon="4.87107">
        <ele>277</ele>
        <time>2017-07-10T10:25:16Z</time>
      </trkpt>
      <trkpt lat="45.95109" lon="4.87101">
        <ele>277</ele>
        <time>2017-07-10T10:25:17Z</time>
      </trkpt>
      <trkpt lat="45.95105" lon="4.8709">
        <ele>277</ele>
        <time>2017-07-10T10:25:19Z</time>
      </trkpt>
      <trkpt lat="45.95103" lon="4.87085">
        <ele>277</ele>
        <time>2017-07-10T10:25:20Z</time>
      </trkpt>
      <trkpt lat="45.95099" lon="4.87075">
        <ele>277</ele>
        <time>2017-07-10T10:25:22Z</time>
      </trkpt>
      <trkpt lat="45.95097" lon="4.8707">
        <ele>277</ele>
        <time>2017-07-10T10:25:23Z</time>
      </trkpt>
      <trkpt lat="45.95094" lon="4.87065">
        <ele>277</ele>
        <time>2017-07-10T10:25:24Z</time>
      </trkpt>
      <trkpt lat="45.9509" lon="4.8706">
        <ele>277</ele>
        <time>2017-07-10T10:25:25Z</time>
      </trkpt>
      <trkpt lat="45.95087" lon="4.87055">
        <ele>277</ele>
        <time>2017-07-10T10:25:26Z</time>
      </trkpt>
      <trkpt lat="45.95084" lon="4.87049">
        <ele>277</ele>
        <time>2017-07-10T10:25:27Z</time>
      </trkpt>
      <trkpt lat="45.95081" lon="4.87044">
        <ele>277</ele>
        <time>2017-07-10T10:25:28Z</time>
      </trkpt>
      <trkpt lat="45.95078" lon="4.87039">
        <ele>277</ele>
        <time>2017-07-10T10:25:29Z</time>
      </trkpt>
      <trkpt lat="45.95074" lon="4.87033">
        <ele>277</ele>
        <time>2017-07-10T10:25:30Z</time>
      </trkpt>
      <trkpt lat="45.95071" lon="4.87028">
        <ele>277</ele>
        <time>2017-07-10T10:25:31Z</time>
      </trkpt>
      <trkpt lat="45.95069" lon="4.87022">
        <ele>277</ele>
        <time>2017-07-10T10:25:32Z</time>
      </trkpt>
      <trkpt lat="45.95065" lon="4.87016">
        <ele>277</ele>
        <time>2017-07-10T10:25:33Z</time>
      </trkpt>
      <trkpt lat="45.95063" lon="4.8701">
        <ele>277</ele>
        <time>2017-07-10T10:25:34Z</time>
      </trkpt>
      <trkpt lat="45.9506" lon="4.87003">
        <ele>277</ele>
        <time>2017-07-10T10:25:35Z</time>
      </trkpt>
      <trkpt lat="45.95056" lon="4.86997">
        <ele>276</ele>
        <time>2017-07-10T10:25:36Z</time>
      </trkpt>
      <trkpt lat="45.95053" lon="4.8699">
        <ele>276</ele>
        <time>2017-07-10T10:25:37Z</time>
      </trkpt>
      <trkpt lat="45.95049" lon="4.86984">
        <ele>276</ele>
        <time>2017-07-10T10:25:38Z</time>
      </trkpt>
      <trkpt lat="45.95046" lon="4.86977">
        <ele>276</ele>
        <time>2017-07-10T10:25:39Z</time>
      </trkpt>
      <trkpt lat="45.95043" lon="4.86971">
        <ele>276</ele>
        <time>2017-07-10T10:25:40Z</time>
      </trkpt>
      <trkpt lat="45.95041" lon="4.86964">
        <ele>276</ele>
        <time>2017-07-10T10:25:41Z</time>
      </trkpt>
      <trkpt lat="45.95039" lon="4.86958">
        <ele>276</ele>
        <time>2017-07-10T10:25:42Z</time>
      </trkpt>
      <trkpt lat="45.95037" lon="4.8695">
        <ele>276</ele>
        <time>2017-07-10T10:25:43Z</time>
      </trkpt>
      <trkpt lat="45.95035" lon="4.86944">
        <ele>276</ele>
        <time>2017-07-10T10:25:44Z</time>
      </trkpt>
      <trkpt lat="45.95033" lon="4.86937">
        <ele>276</ele>
        <time>2017-07-10T10:25:45Z</time>
      </trkpt>
      <trkpt lat="45.95031" lon="4.86929">
        <ele>276</ele>
        <time>2017-07-10T10:25:46Z</time>
      </trkpt>
      <trkpt lat="45.95029" lon="4.86921">
        <ele>276</ele>
        <time>2017-07-10T10:25:47Z</time>
      </trkpt>
      <trkpt lat="45.95028" lon="4.86913">
        <ele>275</ele>
        <time>2017-07-10T10:25:48Z</time>
      </trkpt>
      <trkpt lat="45.95027" lon="4.86904">
        <ele>275</ele>
        <time>2017-07-10T10:25:49Z</time>
      </trkpt>
      <trkpt lat="45.95025" lon="4.86896">
        <ele>275</ele>
        <time>2017-07-10T10:25:50Z</time>
      </trkpt>
      <trkpt lat="45.95023" lon="4.86889">
        <ele>275</ele>
        <time>2017-07-10T10:25:51Z</time>
      </trkpt>
      <trkpt lat="45.95021" lon="4.86881">
        <ele>275</ele>
        <time>2017-07-10T10:25:52Z</time>
      </trkpt>
      <trkpt lat="45.95019" lon="4.86874">
        <ele>275</ele>
        <time>2017-07-10T10:25:53Z</time>
      </trkpt>
      <trkpt lat="45.95016" lon="4.86867">
        <ele>275</ele>
        <time>2017-07-10T10:25:54Z</time>
      </trkpt>
      <trkpt lat="45.95014" lon="4.86861">
        <ele>275</ele>
        <time>2017-07-10T10:25:55Z</time>
      </trkpt>
      <trkpt lat="45.95012" lon="4.86855">
        <ele>275</ele>
        <time>2017-07-10T10:25:56Z</time>
      </trkpt>
      <trkpt lat="45.9501" lon="4.86849">
        <ele>275</ele>
        <time>2017-07-10T10:25:57Z</time>
      </trkpt>
      <trkpt lat="45.95008" lon="4.86843">
        <ele>276</ele>
        <time>2017-07-10T10:25:58Z</time>
      </trkpt>
      <trkpt lat="45.95005" lon="4.86836">
        <ele>276</ele>
        <time>2017-07-10T10:25:59Z</time>
      </trkpt>
      <trkpt lat="45.95003" lon="4.86829">
        <ele>276</ele>
        <time>2017-07-10T10:26:00Z</time>
      </trkpt>
      <trkpt lat="45.95" lon="4.86822">
        <ele>276</ele>
        <time>2017-07-10T10:26:01Z</time>
      </trkpt>
      <trkpt lat="45.94997" lon="4.86816">
        <ele>276</ele>
        <time>2017-07-10T10:26:02Z</time>
      </trkpt>
      <trkpt lat="45.94994" lon="4.8681">
        <ele>276</ele>
        <time>2017-07-10T10:26:03Z</time>
      </trkpt>
      <trkpt lat="45.94989" lon="4.86799">
        <ele>276</ele>
        <time>2017-07-10T10:26:05Z</time>
      </trkpt>
      <trkpt lat="45.94986" lon="4.86795">
        <ele>276</ele>
        <time>2017-07-10T10:26:06Z</time>
      </trkpt>
      <trkpt lat="45.94982" lon="4.86789">
        <ele>276</ele>
        <time>2017-07-10T10:26:07Z</time>
      </trkpt>
      <trkpt lat="45.94979" lon="4.86783">
        <ele>275</ele>
        <time>2017-07-10T10:26:08Z</time>
      </trkpt>
      <trkpt lat="45.94976" lon="4.86778">
        <ele>275</ele>
        <time>2017-07-10T10:26:09Z</time>
      </trkpt>
      <trkpt lat="45.94972" lon="4.86772">
        <ele>275</ele>
        <time>2017-07-10T10:26:10Z</time>
      </trkpt>
      <trkpt lat="45.94968" lon="4.86765">
        <ele>275</ele>
        <time>2017-07-10T10:26:11Z</time>
      </trkpt>
      <trkpt lat="45.94965" lon="4.86759">
        <ele>275</ele>
        <time>2017-07-10T10:26:12Z</time>
      </trkpt>
      <trkpt lat="45.94961" lon="4.86752">
        <ele>275</ele>
        <time>2017-07-10T10:26:13Z</time>
      </trkpt>
      <trkpt lat="45.94958" lon="4.86746">
        <ele>275</ele>
        <time>2017-07-10T10:26:14Z</time>
      </trkpt>
      <trkpt lat="45.94955" lon="4.86739">
        <ele>275</ele>
        <time>2017-07-10T10:26:15Z</time>
      </trkpt>
      <trkpt lat="45.94952" lon="4.86732">
        <ele>275</ele>
        <time>2017-07-10T10:26:16Z</time>
      </trkpt>
      <trkpt lat="45.9495" lon="4.86726">
        <ele>275</ele>
        <time>2017-07-10T10:26:17Z</time>
      </trkpt>
      <trkpt lat="45.94948" lon="4.86719">
        <ele>275</ele>
        <time>2017-07-10T10:26:18Z</time>
      </trkpt>
      <trkpt lat="45.94946" lon="4.86713">
        <ele>275</ele>
        <time>2017-07-10T10:26:19Z</time>
      </trkpt>
      <trkpt lat="45.94945" lon="4.86706">
        <ele>275</ele>
        <time>2017-07-10T10:26:20Z</time>
      </trkpt>
      <trkpt lat="45.94944" lon="4.867">
        <ele>276</ele>
        <time>2017-07-10T10:26:21Z</time>
      </trkpt>
      <trkpt lat="45.94943" lon="4.86692">
        <ele>276</ele>
        <time>2017-07-10T10:26:22Z</time>
      </trkpt>
      <trkpt lat="45.94942" lon="4.86685">
        <ele>276</ele>
        <time>2017-07-10T10:26:23Z</time>
      </trkpt>
      <trkpt lat="45.94942" lon="4.86678">
        <ele>276</ele>
        <time>2017-07-10T10:26:24Z</time>
      </trkpt>
      <trkpt lat="45.94943" lon="4.86671">
        <ele>276</ele>
        <time>2017-07-10T10:26:25Z</time>
      </trkpt>
      <trkpt lat="45.94944" lon="4.86664">
        <ele>276</ele>
        <time>2017-07-10T10:26:26Z</time>
      </trkpt>
      <trkpt lat="45.94945" lon="4.86658">
        <ele>276</ele>
        <time>2017-07-10T10:26:27Z</time>
      </trkpt>
      <trkpt lat="45.94948" lon="4.86651">
        <ele>276</ele>
        <time>2017-07-10T10:26:28Z</time>
      </trkpt>
      <trkpt lat="45.94951" lon="4.86646">
        <ele>276</ele>
        <time>2017-07-10T10:26:29Z</time>
      </trkpt>
      <trkpt lat="45.94954" lon="4.86641">
        <ele>276</ele>
        <time>2017-07-10T10:26:30Z</time>
      </trkpt>
      <trkpt lat="45.94958" lon="4.86636">
        <ele>276</ele>
        <time>2017-07-10T10:26:31Z</time>
      </trkpt>
      <trkpt lat="45.94961" lon="4.86632">
        <ele>275</ele>
        <time>2017-07-10T10:26:32Z</time>
      </trkpt>
      <trkpt lat="45.94965" lon="4.86628">
        <ele>275</ele>
        <time>2017-07-10T10:26:33Z</time>
      </trkpt>
      <trkpt lat="45.9497" lon="4.86625">
        <ele>275</ele>
        <time>2017-07-10T10:26:34Z</time>
      </trkpt>
      <trkpt lat="45.94975" lon="4.86623">
        <ele>275</ele>
        <time>2017-07-10T10:26:35Z</time>
      </trkpt>
      <trkpt lat="45.9498" lon="4.86621">
        <ele>275</ele>
        <time>2017-07-10T10:26:36Z</time>
      </trkpt>
      <trkpt lat="45.94988" lon="4.86617">
        <ele>275</ele>
        <time>2017-07-10T10:26:38Z</time>
      </trkpt>
      <trkpt lat="45.94993" lon="4.86615">
        <ele>275</ele>
        <time>2017-07-10T10:26:39Z</time>
      </trkpt>
      <trkpt lat="45.94998" lon="4.86614">
        <ele>275</ele>
        <time>2017-07-10T10:26:40Z</time>
      </trkpt>
      <trkpt lat="45.95004" lon="4.86614">
        <ele>273</ele>
        <time>2017-07-10T10:26:41Z</time>
      </trkpt>
      <trkpt lat="45.95009" lon="4.86614">
        <ele>273</ele>
        <time>2017-07-10T10:26:42Z</time>
      </trkpt>
      <trkpt lat="45.95014" lon="4.86614">
        <ele>273</ele>
        <time>2017-07-10T10:26:43Z</time>
      </trkpt>
      <trkpt lat="45.9502" lon="4.86612">
        <ele>273</ele>
        <time>2017-07-10T10:26:44Z</time>
      </trkpt>
      <trkpt lat="45.95026" lon="4.8661">
        <ele>273</ele>
        <time>2017-07-10T10:26:45Z</time>
      </trkpt>
      <trkpt lat="45.95031" lon="4.86609">
        <ele>273</ele>
        <time>2017-07-10T10:26:46Z</time>
      </trkpt>
      <trkpt lat="45.95037" lon="4.86608">
        <ele>273</ele>
        <time>2017-07-10T10:26:47Z</time>
      </trkpt>
      <trkpt lat="45.95042" lon="4.86607">
        <ele>272</ele>
        <time>2017-07-10T10:26:48Z</time>
      </trkpt>
      <trkpt lat="45.95048" lon="4.86605">
        <ele>272</ele>
        <time>2017-07-10T10:26:49Z</time>
      </trkpt>
      <trkpt lat="45.95054" lon="4.86603">
        <ele>272</ele>
        <time>2017-07-10T10:26:50Z</time>
      </trkpt>
      <trkpt lat="45.9506" lon="4.86601">
        <ele>272</ele>
        <time>2017-07-10T10:26:51Z</time>
      </trkpt>
      <trkpt lat="45.95066" lon="4.86599">
        <ele>272</ele>
        <time>2017-07-10T10:26:52Z</time>
      </trkpt>
      <trkpt lat="45.95071" lon="4.86596">
        <ele>272</ele>
        <time>2017-07-10T10:26:53Z</time>
      </trkpt>
      <trkpt lat="45.95077" lon="4.86594">
        <ele>272</ele>
        <time>2017-07-10T10:26:54Z</time>
      </trkpt>
      <trkpt lat="45.95083" lon="4.86592">
        <ele>271</ele>
        <time>2017-07-10T10:26:55Z</time>
      </trkpt>
      <trkpt lat="45.95089" lon="4.8659">
        <ele>271</ele>
        <time>2017-07-10T10:26:56Z</time>
      </trkpt>
      <trkpt lat="45.95095" lon="4.86589">
        <ele>271</ele>
        <time>2017-07-10T10:26:57Z</time>
      </trkpt>
      <trkpt lat="45.95101" lon="4.86588">
        <ele>271</ele>
        <time>2017-07-10T10:26:58Z</time>
      </trkpt>
      <trkpt lat="45.95107" lon="4.86587">
        <ele>271</ele>
        <time>2017-07-10T10:26:59Z</time>
      </trkpt>
      <trkpt lat="45.95113" lon="4.86586">
        <ele>271</ele>
        <time>2017-07-10T10:27:00Z</time>
      </trkpt>
      <trkpt lat="45.95119" lon="4.86585">
        <ele>270</ele>
        <time>2017-07-10T10:27:01Z</time>
      </trkpt>
      <trkpt lat="45.95125" lon="4.86584">
        <ele>270</ele>
        <time>2017-07-10T10:27:02Z</time>
      </trkpt>
      <trkpt lat="45.95131" lon="4.86584">
        <ele>270</ele>
        <time>2017-07-10T10:27:03Z</time>
      </trkpt>
      <trkpt lat="45.95137" lon="4.86582">
        <ele>270</ele>
        <time>2017-07-10T10:27:04Z</time>
      </trkpt>
      <trkpt lat="45.95144" lon="4.86581">
        <ele>270</ele>
        <time>2017-07-10T10:27:05Z</time>
      </trkpt>
      <trkpt lat="45.9515" lon="4.8658">
        <ele>270</ele>
        <time>2017-07-10T10:27:06Z</time>
      </trkpt>
      <trkpt lat="45.95156" lon="4.86579">
        <ele>269</ele>
        <time>2017-07-10T10:27:07Z</time>
      </trkpt>
      <trkpt lat="45.95163" lon="4.86579">
        <ele>269</ele>
        <time>2017-07-10T10:27:08Z</time>
      </trkpt>
      <trkpt lat="45.95169" lon="4.86578">
        <ele>269</ele>
        <time>2017-07-10T10:27:09Z</time>
      </trkpt>
      <trkpt lat="45.95176" lon="4.86578">
        <ele>269</ele>
        <time>2017-07-10T10:27:10Z</time>
      </trkpt>
      <trkpt lat="45.95182" lon="4.86577">
        <ele>269</ele>
        <time>2017-07-10T10:27:11Z</time>
      </trkpt>
      <trkpt lat="45.95189" lon="4.86577">
        <ele>269</ele>
        <time>2017-07-10T10:27:12Z</time>
      </trkpt>
      <trkpt lat="45.95196" lon="4.86577">
        <ele>268</ele>
        <time>2017-07-10T10:27:13Z</time>
      </trkpt>
      <trkpt lat="45.95203" lon="4.86577">
        <ele>268</ele>
        <time>2017-07-10T10:27:14Z</time>
      </trkpt>
      <trkpt lat="45.9521" lon="4.86577">
        <ele>268</ele>
        <time>2017-07-10T10:27:15Z</time>
      </trkpt>
      <trkpt lat="45.95216" lon="4.86578">
        <ele>268</ele>
        <time>2017-07-10T10:27:16Z</time>
      </trkpt>
      <trkpt lat="45.95223" lon="4.86578">
        <ele>268</ele>
        <time>2017-07-10T10:27:17Z</time>
      </trkpt>
      <trkpt lat="45.9523" lon="4.8658">
        <ele>268</ele>
        <time>2017-07-10T10:27:18Z</time>
      </trkpt>
      <trkpt lat="45.95237" lon="4.86581">
        <ele>268</ele>
        <time>2017-07-10T10:27:19Z</time>
      </trkpt>
      <trkpt lat="45.95243" lon="4.86582">
        <ele>268</ele>
        <time>2017-07-10T10:27:20Z</time>
      </trkpt>
      <trkpt lat="45.95249" lon="4.86583">
        <ele>268</ele>
        <time>2017-07-10T10:27:21Z</time>
      </trkpt>
      <trkpt lat="45.95254" lon="4.86583">
        <ele>268</ele>
        <time>2017-07-10T10:27:22Z</time>
      </trkpt>
      <trkpt lat="45.95258" lon="4.86581">
        <ele>268</ele>
        <time>2017-07-10T10:27:23Z</time>
      </trkpt>
      <trkpt lat="45.95264" lon="4.86576">
        <ele>267</ele>
        <time>2017-07-10T10:27:25Z</time>
      </trkpt>
      <trkpt lat="45.95266" lon="4.86572">
        <ele>267</ele>
        <time>2017-07-10T10:27:26Z</time>
      </trkpt>
      <trkpt lat="45.95263" lon="4.86561">
        <ele>267</ele>
        <time>2017-07-10T10:27:29Z</time>
      </trkpt>
      <trkpt lat="45.9526" lon="4.86557">
        <ele>267</ele>
        <time>2017-07-10T10:27:30Z</time>
      </trkpt>
      <trkpt lat="45.95257" lon="4.86552">
        <ele>267</ele>
        <time>2017-07-10T10:27:31Z</time>
      </trkpt>
      <trkpt lat="45.95254" lon="4.86547">
        <ele>267</ele>
        <time>2017-07-10T10:27:32Z</time>
      </trkpt>
      <trkpt lat="45.9525" lon="4.86542">
        <ele>268</ele>
        <time>2017-07-10T10:27:33Z</time>
      </trkpt>
      <trkpt lat="45.95246" lon="4.86538">
        <ele>268</ele>
        <time>2017-07-10T10:27:34Z</time>
      </trkpt>
      <trkpt lat="45.95239" lon="4.86531">
        <ele>268</ele>
        <time>2017-07-10T10:27:36Z</time>
      </trkpt>
      <trkpt lat="45.95235" lon="4.86528">
        <ele>268</ele>
        <time>2017-07-10T10:27:37Z</time>
      </trkpt>
      <trkpt lat="45.95231" lon="4.86524">
        <ele>268</ele>
        <time>2017-07-10T10:27:38Z</time>
      </trkpt>
      <trkpt lat="45.95227" lon="4.8652">
        <ele>268</ele>
        <time>2017-07-10T10:27:39Z</time>
      </trkpt>
      <trkpt lat="45.95223" lon="4.86516">
        <ele>268</ele>
        <time>2017-07-10T10:27:40Z</time>
      </trkpt>
      <trkpt lat="45.95218" lon="4.86511">
        <ele>268</ele>
        <time>2017-07-10T10:27:41Z</time>
      </trkpt>
      <trkpt lat="45.95213" lon="4.86506">
        <ele>268</ele>
        <time>2017-07-10T10:27:42Z</time>
      </trkpt>
      <trkpt lat="45.9521" lon="4.86501">
        <ele>268</ele>
        <time>2017-07-10T10:27:43Z</time>
      </trkpt>
      <trkpt lat="45.95206" lon="4.86496">
        <ele>268</ele>
        <time>2017-07-10T10:27:44Z</time>
      </trkpt>
      <trkpt lat="45.95202" lon="4.86492">
        <ele>268</ele>
        <time>2017-07-10T10:27:45Z</time>
      </trkpt>
      <trkpt lat="45.95199" lon="4.86487">
        <ele>268</ele>
        <time>2017-07-10T10:27:46Z</time>
      </trkpt>
      <trkpt lat="45.95195" lon="4.86482">
        <ele>268</ele>
        <time>2017-07-10T10:27:47Z</time>
      </trkpt>
      <trkpt lat="45.95191" lon="4.86478">
        <ele>268</ele>
        <time>2017-07-10T10:27:48Z</time>
      </trkpt>
      <trkpt lat="45.95188" lon="4.86473">
        <ele>268</ele>
        <time>2017-07-10T10:27:49Z</time>
      </trkpt>
      <trkpt lat="45.95184" lon="4.86469">
        <ele>268</ele>
        <time>2017-07-10T10:27:50Z</time>
      </trkpt>
      <trkpt lat="45.9518" lon="4.86464">
        <ele>268</ele>
        <time>2017-07-10T10:27:51Z</time>
      </trkpt>
      <trkpt lat="45.95176" lon="4.8646">
        <ele>268</ele>
        <time>2017-07-10T10:27:52Z</time>
      </trkpt>
      <trkpt lat="45.95173" lon="4.86455">
        <ele>268</ele>
        <time>2017-07-10T10:27:53Z</time>
      </trkpt>
      <trkpt lat="45.9517" lon="4.86451">
        <ele>268</ele>
        <time>2017-07-10T10:27:54Z</time>
      </trkpt>
      <trkpt lat="45.95166" lon="4.86446">
        <ele>269</ele>
        <time>2017-07-10T10:27:55Z</time>
      </trkpt>
      <trkpt lat="45.95162" lon="4.86442">
        <ele>268</ele>
        <time>2017-07-10T10:27:56Z</time>
      </trkpt>
      <trkpt lat="45.95159" lon="4.86438">
        <ele>268</ele>
        <time>2017-07-10T10:27:57Z</time>
      </trkpt>
      <trkpt lat="45.95155" lon="4.86433">
        <ele>268</ele>
        <time>2017-07-10T10:27:58Z</time>
      </trkpt>
      <trkpt lat="45.95151" lon="4.86429">
        <ele>268</ele>
        <time>2017-07-10T10:27:59Z</time>
      </trkpt>
      <trkpt lat="45.95148" lon="4.86425">
        <ele>268</ele>
        <time>2017-07-10T10:28:00Z</time>
      </trkpt>
      <trkpt lat="45.95144" lon="4.86421">
        <ele>268</ele>
        <time>2017-07-10T10:28:01Z</time>
      </trkpt>
      <trkpt lat="45.95141" lon="4.86416">
        <ele>268</ele>
        <time>2017-07-10T10:28:02Z</time>
      </trkpt>
      <trkpt lat="45.95137" lon="4.86412">
        <ele>268</ele>
        <time>2017-07-10T10:28:03Z</time>
      </trkpt>
      <trkpt lat="45.95134" lon="4.86407">
        <ele>268</ele>
        <time>2017-07-10T10:28:04Z</time>
      </trkpt>
      <trkpt lat="45.9513" lon="4.86403">
        <ele>268</ele>
        <time>2017-07-10T10:28:05Z</time>
      </trkpt>
      <trkpt lat="45.95126" lon="4.86398">
        <ele>268</ele>
        <time>2017-07-10T10:28:06Z</time>
      </trkpt>
      <trkpt lat="45.95123" lon="4.86393">
        <ele>269</ele>
        <time>2017-07-10T10:28:07Z</time>
      </trkpt>
      <trkpt lat="45.95119" lon="4.86389">
        <ele>269</ele>
        <time>2017-07-10T10:28:08Z</time>
      </trkpt>
      <trkpt lat="45.95116" lon="4.86385">
        <ele>269</ele>
        <time>2017-07-10T10:28:09Z</time>
      </trkpt>
      <trkpt lat="45.95112" lon="4.8638">
        <ele>269</ele>
        <time>2017-07-10T10:28:10Z</time>
      </trkpt>
      <trkpt lat="45.95109" lon="4.86376">
        <ele>269</ele>
        <time>2017-07-10T10:28:11Z</time>
      </trkpt>
      <trkpt lat="45.95102" lon="4.86369">
        <ele>269</ele>
        <time>2017-07-10T10:28:13Z</time>
      </trkpt>
      <trkpt lat="45.95099" lon="4.86365">
        <ele>269</ele>
        <time>2017-07-10T10:28:14Z</time>
      </trkpt>
      <trkpt lat="45.95092" lon="4.86357">
        <ele>269</ele>
        <time>2017-07-10T10:28:16Z</time>
      </trkpt>
      <trkpt lat="45.95088" lon="4.86353">
        <ele>269</ele>
        <time>2017-07-10T10:28:17Z</time>
      </trkpt>
      <trkpt lat="45.95085" lon="4.86349">
        <ele>269</ele>
        <time>2017-07-10T10:28:18Z</time>
      </trkpt>
      <trkpt lat="45.95081" lon="4.86344">
        <ele>270</ele>
        <time>2017-07-10T10:28:19Z</time>
      </trkpt>
      <trkpt lat="45.95078" lon="4.8634">
        <ele>270</ele>
        <time>2017-07-10T10:28:20Z</time>
      </trkpt>
      <trkpt lat="45.95074" lon="4.86335">
        <ele>270</ele>
        <time>2017-07-10T10:28:21Z</time>
      </trkpt>
      <trkpt lat="45.9507" lon="4.8633">
        <ele>270</ele>
        <time>2017-07-10T10:28:22Z</time>
      </trkpt>
      <trkpt lat="45.95067" lon="4.86325">
        <ele>270</ele>
        <time>2017-07-10T10:28:23Z</time>
      </trkpt>
      <trkpt lat="45.95064" lon="4.86321">
        <ele>270</ele>
        <time>2017-07-10T10:28:24Z</time>
      </trkpt>
      <trkpt lat="45.9506" lon="4.86317">
        <ele>270</ele>
        <time>2017-07-10T10:28:25Z</time>
      </trkpt>
      <trkpt lat="45.95056" lon="4.86313">
        <ele>271</ele>
        <time>2017-07-10T10:28:26Z</time>
      </trkpt>
      <trkpt lat="45.95052" lon="4.86308">
        <ele>271</ele>
        <time>2017-07-10T10:28:27Z</time>
      </trkpt>
      <trkpt lat="45.95046" lon="4.86299">
        <ele>271</ele>
        <time>2017-07-10T10:28:29Z</time>
      </trkpt>
      <trkpt lat="45.95042" lon="4.86295">
        <ele>271</ele>
        <time>2017-07-10T10:28:30Z</time>
      </trkpt>
      <trkpt lat="45.95038" lon="4.86291">
        <ele>271</ele>
        <time>2017-07-10T10:28:31Z</time>
      </trkpt>
      <trkpt lat="45.95035" lon="4.86287">
        <ele>271</ele>
        <time>2017-07-10T10:28:32Z</time>
      </trkpt>
      <trkpt lat="45.95031" lon="4.86283">
        <ele>271</ele>
        <time>2017-07-10T10:28:33Z</time>
      </trkpt>
      <trkpt lat="45.95028" lon="4.86279">
        <ele>271</ele>
        <time>2017-07-10T10:28:34Z</time>
      </trkpt>
      <trkpt lat="45.95024" lon="4.86274">
        <ele>271</ele>
        <time>2017-07-10T10:28:35Z</time>
      </trkpt>
      <trkpt lat="45.95021" lon="4.8627">
        <ele>271</ele>
        <time>2017-07-10T10:28:36Z</time>
      </trkpt>
      <trkpt lat="45.95015" lon="4.86262">
        <ele>272</ele>
        <time>2017-07-10T10:28:38Z</time>
      </trkpt>
      <trkpt lat="45.95012" lon="4.86258">
        <ele>272</ele>
        <time>2017-07-10T10:28:39Z</time>
      </trkpt>
      <trkpt lat="45.95005" lon="4.86251">
        <ele>272</ele>
        <time>2017-07-10T10:28:41Z</time>
      </trkpt>
      <trkpt lat="45.95001" lon="4.86247">
        <ele>272</ele>
        <time>2017-07-10T10:28:42Z</time>
      </trkpt>
      <trkpt lat="45.94997" lon="4.86243">
        <ele>272</ele>
        <time>2017-07-10T10:28:43Z</time>
      </trkpt>
      <trkpt lat="45.94994" lon="4.86238">
        <ele>272</ele>
        <time>2017-07-10T10:28:44Z</time>
      </trkpt>
      <trkpt lat="45.94991" lon="4.86234">
        <ele>272</ele>
        <time>2017-07-10T10:28:45Z</time>
      </trkpt>
      <trkpt lat="45.94987" lon="4.86229">
        <ele>272</ele>
        <time>2017-07-10T10:28:46Z</time>
      </trkpt>
      <trkpt lat="45.94984" lon="4.86225">
        <ele>272</ele>
        <time>2017-07-10T10:28:47Z</time>
      </trkpt>
      <trkpt lat="45.9498" lon="4.86221">
        <ele>272</ele>
        <time>2017-07-10T10:28:48Z</time>
      </trkpt>
      <trkpt lat="45.94974" lon="4.86213">
        <ele>272</ele>
        <time>2017-07-10T10:28:50Z</time>
      </trkpt>
      <trkpt lat="45.9497" lon="4.86209">
        <ele>272</ele>
        <time>2017-07-10T10:28:51Z</time>
      </trkpt>
      <trkpt lat="45.94964" lon="4.86202">
        <ele>272</ele>
        <time>2017-07-10T10:28:53Z</time>
      </trkpt>
      <trkpt lat="45.94961" lon="4.86198">
        <ele>272</ele>
        <time>2017-07-10T10:28:54Z</time>
      </trkpt>
      <trkpt lat="45.94955" lon="4.86189">
        <ele>273</ele>
        <time>2017-07-10T10:28:56Z</time>
      </trkpt>
      <trkpt lat="45.94951" lon="4.86185">
        <ele>273</ele>
        <time>2017-07-10T10:28:57Z</time>
      </trkpt>
      <trkpt lat="45.94945" lon="4.86176">
        <ele>273</ele>
        <time>2017-07-10T10:28:59Z</time>
      </trkpt>
      <trkpt lat="45.94942" lon="4.86172">
        <ele>273</ele>
        <time>2017-07-10T10:29:00Z</time>
      </trkpt>
      <trkpt lat="45.94935" lon="4.86165">
        <ele>273</ele>
        <time>2017-07-10T10:29:02Z</time>
      </trkpt>
      <trkpt lat="45.94931" lon="4.8616">
        <ele>273</ele>
        <time>2017-07-10T10:29:03Z</time>
      </trkpt>
      <trkpt lat="45.94928" lon="4.86156">
        <ele>273</ele>
        <time>2017-07-10T10:29:04Z</time>
      </trkpt>
      <trkpt lat="45.94925" lon="4.86151">
        <ele>273</ele>
        <time>2017-07-10T10:29:05Z</time>
      </trkpt>
      <trkpt lat="45.94919" lon="4.86142">
        <ele>273</ele>
        <time>2017-07-10T10:29:07Z</time>
      </trkpt>
      <trkpt lat="45.94916" lon="4.86136">
        <ele>274</ele>
        <time>2017-07-10T10:29:08Z</time>
      </trkpt>
      <trkpt lat="45.94913" lon="4.86131">
        <ele>274</ele>
        <time>2017-07-10T10:29:09Z</time>
      </trkpt>
      <trkpt lat="45.9491" lon="4.86125">
        <ele>274</ele>
        <time>2017-07-10T10:29:10Z</time>
      </trkpt>
      <trkpt lat="45.94908" lon="4.8612">
        <ele>274</ele>
        <time>2017-07-10T10:29:11Z</time>
      </trkpt>
      <trkpt lat="45.94905" lon="4.86115">
        <ele>274</ele>
        <time>2017-07-10T10:29:12Z</time>
      </trkpt>
      <trkpt lat="45.949" lon="4.86105">
        <ele>274</ele>
        <time>2017-07-10T10:29:14Z</time>
      </trkpt>
      <trkpt lat="45.94898" lon="4.861">
        <ele>274</ele>
        <time>2017-07-10T10:29:15Z</time>
      </trkpt>
      <trkpt lat="45.94895" lon="4.86089">
        <ele>274</ele>
        <time>2017-07-10T10:29:17Z</time>
      </trkpt>
      <trkpt lat="45.94894" lon="4.86084">
        <ele>274</ele>
        <time>2017-07-10T10:29:18Z</time>
      </trkpt>
      <trkpt lat="45.9489" lon="4.86073">
        <ele>274</ele>
        <time>2017-07-10T10:29:20Z</time>
      </trkpt>
      <trkpt lat="45.94889" lon="4.86066">
        <ele>274</ele>
        <time>2017-07-10T10:29:21Z</time>
      </trkpt>
      <trkpt lat="45.94887" lon="4.8606">
        <ele>274</ele>
        <time>2017-07-10T10:29:22Z</time>
      </trkpt>
      <trkpt lat="45.94886" lon="4.86053">
        <ele>274</ele>
        <time>2017-07-10T10:29:23Z</time>
      </trkpt>
      <trkpt lat="45.94885" lon="4.86047">
        <ele>274</ele>
        <time>2017-07-10T10:29:24Z</time>
      </trkpt>
      <trkpt lat="45.94884" lon="4.86041">
        <ele>274</ele>
        <time>2017-07-10T10:29:25Z</time>
      </trkpt>
      <trkpt lat="45.9488" lon="4.86029">
        <ele>274</ele>
        <time>2017-07-10T10:29:27Z</time>
      </trkpt>
      <trkpt lat="45.94878" lon="4.86024">
        <ele>274</ele>
        <time>2017-07-10T10:29:28Z</time>
      </trkpt>
      <trkpt lat="45.94875" lon="4.86013">
        <ele>274</ele>
        <time>2017-07-10T10:29:30Z</time>
      </trkpt>
      <trkpt lat="45.94873" lon="4.86008">
        <ele>274</ele>
        <time>2017-07-10T10:29:31Z</time>
      </trkpt>
      <trkpt lat="45.9487" lon="4.85996">
        <ele>275</ele>
        <time>2017-07-10T10:29:33Z</time>
      </trkpt>
      <trkpt lat="45.94869" lon="4.8599">
        <ele>275</ele>
        <time>2017-07-10T10:29:34Z</time>
      </trkpt>
      <trkpt lat="45.94867" lon="4.85983">
        <ele>275</ele>
        <time>2017-07-10T10:29:35Z</time>
      </trkpt>
      <trkpt lat="45.94866" lon="4.85977">
        <ele>275</ele>
        <time>2017-07-10T10:29:36Z</time>
      </trkpt>
      <trkpt lat="45.94864" lon="4.8597">
        <ele>275</ele>
        <time>2017-07-10T10:29:37Z</time>
      </trkpt>
      <trkpt lat="45.94862" lon="4.85964">
        <ele>275</ele>
        <time>2017-07-10T10:29:38Z</time>
      </trkpt>
      <trkpt lat="45.9486" lon="4.85953">
        <ele>275</ele>
        <time>2017-07-10T10:29:40Z</time>
      </trkpt>
      <trkpt lat="45.94859" lon="4.85947">
        <ele>275</ele>
        <time>2017-07-10T10:29:41Z</time>
      </trkpt>
      <trkpt lat="45.94855" lon="4.85935">
        <ele>275</ele>
        <time>2017-07-10T10:29:43Z</time>
      </trkpt>
      <trkpt lat="45.94854" lon="4.85929">
        <ele>275</ele>
        <time>2017-07-10T10:29:44Z</time>
      </trkpt>
      <trkpt lat="45.94851" lon="4.85917">
        <ele>275</ele>
        <time>2017-07-10T10:29:46Z</time>
      </trkpt>
      <trkpt lat="45.94849" lon="4.85911">
        <ele>275</ele>
        <time>2017-07-10T10:29:47Z</time>
      </trkpt>
      <trkpt lat="45.94847" lon="4.85905">
        <ele>276</ele>
        <time>2017-07-10T10:29:48Z</time>
      </trkpt>
      <trkpt lat="45.94846" lon="4.85899">
        <ele>276</ele>
        <time>2017-07-10T10:29:49Z</time>
      </trkpt>
      <trkpt lat="45.94844" lon="4.85893">
        <ele>276</ele>
        <time>2017-07-10T10:29:50Z</time>
      </trkpt>
      <trkpt lat="45.94843" lon="4.85886">
        <ele>276</ele>
        <time>2017-07-10T10:29:51Z</time>
      </trkpt>
      <trkpt lat="45.94841" lon="4.8588">
        <ele>276</ele>
        <time>2017-07-10T10:29:52Z</time>
      </trkpt>
      <trkpt lat="45.9484" lon="4.85873">
        <ele>276</ele>
        <time>2017-07-10T10:29:53Z</time>
      </trkpt>
      <trkpt lat="45.94838" lon="4.85867">
        <ele>276</ele>
        <time>2017-07-10T10:29:54Z</time>
      </trkpt>
      <trkpt lat="45.94836" lon="4.85861">
        <ele>276</ele>
        <time>2017-07-10T10:29:55Z</time>
      </trkpt>
      <trkpt lat="45.94835" lon="4.85854">
        <ele>276</ele>
        <time>2017-07-10T10:29:56Z</time>
      </trkpt>
      <trkpt lat="45.94833" lon="4.85848">
        <ele>277</ele>
        <time>2017-07-10T10:29:57Z</time>
      </trkpt>
      <trkpt lat="45.94829" lon="4.85836">
        <ele>277</ele>
        <time>2017-07-10T10:29:59Z</time>
      </trkpt>
      <trkpt lat="45.94828" lon="4.8583">
        <ele>277</ele>
        <time>2017-07-10T10:30:00Z</time>
      </trkpt>
      <trkpt lat="45.94826" lon="4.85824">
        <ele>277</ele>
        <time>2017-07-10T10:30:01Z</time>
      </trkpt>
      <trkpt lat="45.94824" lon="4.85818">
        <ele>278</ele>
        <time>2017-07-10T10:30:02Z</time>
      </trkpt>
      <trkpt lat="45.94823" lon="4.85811">
        <ele>278</ele>
        <time>2017-07-10T10:30:03Z</time>
      </trkpt>
      <trkpt lat="45.94821" lon="4.85805">
        <ele>278</ele>
        <time>2017-07-10T10:30:04Z</time>
      </trkpt>
      <trkpt lat="45.94819" lon="4.85799">
        <ele>278</ele>
        <time>2017-07-10T10:30:05Z</time>
      </trkpt>
      <trkpt lat="45.94817" lon="4.85792">
        <ele>278</ele>
        <time>2017-07-10T10:30:06Z</time>
      </trkpt>
      <trkpt lat="45.94816" lon="4.85786">
        <ele>278</ele>
        <time>2017-07-10T10:30:07Z</time>
      </trkpt>
      <trkpt lat="45.94814" lon="4.8578">
        <ele>278</ele>
        <time>2017-07-10T10:30:08Z</time>
      </trkpt>
      <trkpt lat="45.94811" lon="4.85768">
        <ele>278</ele>
        <time>2017-07-10T10:30:10Z</time>
      </trkpt>
      <trkpt lat="45.94809" lon="4.85763">
        <ele>278</ele>
        <time>2017-07-10T10:30:11Z</time>
      </trkpt>
      <trkpt lat="45.94806" lon="4.85753">
        <ele>278</ele>
        <time>2017-07-10T10:30:13Z</time>
      </trkpt>
      <trkpt lat="45.94805" lon="4.85747">
        <ele>279</ele>
        <time>2017-07-10T10:30:14Z</time>
      </trkpt>
      <trkpt lat="45.94804" lon="4.85737">
        <ele>279</ele>
        <time>2017-07-10T10:30:16Z</time>
      </trkpt>
      <trkpt lat="45.94802" lon="4.85731">
        <ele>280</ele>
        <time>2017-07-10T10:30:17Z</time>
      </trkpt>
      <trkpt lat="45.94799" lon="4.85721">
        <ele>280</ele>
        <time>2017-07-10T10:30:19Z</time>
      </trkpt>
      <trkpt lat="45.94797" lon="4.85716">
        <ele>280</ele>
        <time>2017-07-10T10:30:20Z</time>
      </trkpt>
      <trkpt lat="45.94795" lon="4.85706">
        <ele>280</ele>
        <time>2017-07-10T10:30:22Z</time>
      </trkpt>
      <trkpt lat="45.94793" lon="4.85702">
        <ele>280</ele>
        <time>2017-07-10T10:30:23Z</time>
      </trkpt>
      <trkpt lat="45.9479" lon="4.85691">
        <ele>280</ele>
        <time>2017-07-10T10:30:25Z</time>
      </trkpt>
      <trkpt lat="45.94789" lon="4.85686">
        <ele>280</ele>
        <time>2017-07-10T10:30:26Z</time>
      </trkpt>
      <trkpt lat="45.94786" lon="4.85676">
        <ele>280</ele>
        <time>2017-07-10T10:30:28Z</time>
      </trkpt>
      <trkpt lat="45.94785" lon="4.8567">
        <ele>280</ele>
        <time>2017-07-10T10:30:29Z</time>
      </trkpt>
      <trkpt lat="45.94782" lon="4.85659">
        <ele>281</ele>
        <time>2017-07-10T10:30:31Z</time>
      </trkpt>
      <trkpt lat="45.94781" lon="4.85653">
        <ele>281</ele>
        <time>2017-07-10T10:30:32Z</time>
      </trkpt>
      <trkpt lat="45.9478" lon="4.85647">
        <ele>281</ele>
        <time>2017-07-10T10:30:33Z</time>
      </trkpt>
      <trkpt lat="45.94779" lon="4.8564">
        <ele>281</ele>
        <time>2017-07-10T10:30:34Z</time>
      </trkpt>
      <trkpt lat="45.94777" lon="4.85633">
        <ele>280</ele>
        <time>2017-07-10T10:30:35Z</time>
      </trkpt>
      <trkpt lat="45.94776" lon="4.85626">
        <ele>280</ele>
        <time>2017-07-10T10:30:36Z</time>
      </trkpt>
      <trkpt lat="45.94775" lon="4.85619">
        <ele>280</ele>
        <time>2017-07-10T10:30:37Z</time>
      </trkpt>
      <trkpt lat="45.94773" lon="4.85612">
        <ele>280</ele>
        <time>2017-07-10T10:30:38Z</time>
      </trkpt>
      <trkpt lat="45.94771" lon="4.85605">
        <ele>280</ele>
        <time>2017-07-10T10:30:39Z</time>
      </trkpt>
      <trkpt lat="45.9477" lon="4.85597">
        <ele>280</ele>
        <time>2017-07-10T10:30:40Z</time>
      </trkpt>
      <trkpt lat="45.94768" lon="4.8559">
        <ele>280</ele>
        <time>2017-07-10T10:30:41Z</time>
      </trkpt>
      <trkpt lat="45.94766" lon="4.85582">
        <ele>279</ele>
        <time>2017-07-10T10:30:42Z</time>
      </trkpt>
      <trkpt lat="45.94764" lon="4.85574">
        <ele>279</ele>
        <time>2017-07-10T10:30:43Z</time>
      </trkpt>
      <trkpt lat="45.94762" lon="4.85565">
        <ele>279</ele>
        <time>2017-07-10T10:30:44Z</time>
      </trkpt>
      <trkpt lat="45.9476" lon="4.85556">
        <ele>278</ele>
        <time>2017-07-10T10:30:45Z</time>
      </trkpt>
      <trkpt lat="45.94759" lon="4.85547">
        <ele>278</ele>
        <time>2017-07-10T10:30:46Z</time>
      </trkpt>
      <trkpt lat="45.94757" lon="4.85536">
        <ele>278</ele>
        <time>2017-07-10T10:30:47Z</time>
      </trkpt>
      <trkpt lat="45.94756" lon="4.85525">
        <ele>277</ele>
        <time>2017-07-10T10:30:48Z</time>
      </trkpt>
      <trkpt lat="45.94754" lon="4.85515">
        <ele>277</ele>
        <time>2017-07-10T10:30:49Z</time>
      </trkpt>
      <trkpt lat="45.94753" lon="4.85504">
        <ele>276</ele>
        <time>2017-07-10T10:30:50Z</time>
      </trkpt>
      <trkpt lat="45.94751" lon="4.85493">
        <ele>276</ele>
        <time>2017-07-10T10:30:51Z</time>
      </trkpt>
      <trkpt lat="45.9475" lon="4.85481">
        <ele>275</ele>
        <time>2017-07-10T10:30:52Z</time>
      </trkpt>
      <trkpt lat="45.94748" lon="4.85469">
        <ele>274</ele>
        <time>2017-07-10T10:30:53Z</time>
      </trkpt>
      <trkpt lat="45.94747" lon="4.85457">
        <ele>274</ele>
        <time>2017-07-10T10:30:54Z</time>
      </trkpt>
      <trkpt lat="45.94746" lon="4.85445">
        <ele>274</ele>
        <time>2017-07-10T10:30:55Z</time>
      </trkpt>
      <trkpt lat="45.94744" lon="4.85433">
        <ele>273</ele>
        <time>2017-07-10T10:30:56Z</time>
      </trkpt>
      <trkpt lat="45.94743" lon="4.85421">
        <ele>273</ele>
        <time>2017-07-10T10:30:57Z</time>
      </trkpt>
      <trkpt lat="45.94742" lon="4.85409">
        <ele>272</ele>
        <time>2017-07-10T10:30:58Z</time>
      </trkpt>
      <trkpt lat="45.9474" lon="4.85398">
        <ele>272</ele>
        <time>2017-07-10T10:30:59Z</time>
      </trkpt>
      <trkpt lat="45.94739" lon="4.85386">
        <ele>272</ele>
        <time>2017-07-10T10:31:00Z</time>
      </trkpt>
      <trkpt lat="45.94738" lon="4.85375">
        <ele>271</ele>
        <time>2017-07-10T10:31:01Z</time>
      </trkpt>
      <trkpt lat="45.94736" lon="4.85364">
        <ele>271</ele>
        <time>2017-07-10T10:31:02Z</time>
      </trkpt>
      <trkpt lat="45.94735" lon="4.85354">
        <ele>271</ele>
        <time>2017-07-10T10:31:03Z</time>
      </trkpt>
      <trkpt lat="45.94734" lon="4.85344">
        <ele>271</ele>
        <time>2017-07-10T10:31:04Z</time>
      </trkpt>
      <trkpt lat="45.94733" lon="4.85334">
        <ele>271</ele>
        <time>2017-07-10T10:31:05Z</time>
      </trkpt>
      <trkpt lat="45.94732" lon="4.85324">
        <ele>270</ele>
        <time>2017-07-10T10:31:06Z</time>
      </trkpt>
      <trkpt lat="45.94731" lon="4.85315">
        <ele>270</ele>
        <time>2017-07-10T10:31:07Z</time>
      </trkpt>
      <trkpt lat="45.9473" lon="4.85306">
        <ele>270</ele>
        <time>2017-07-10T10:31:08Z</time>
      </trkpt>
      <trkpt lat="45.94729" lon="4.85297">
        <ele>270</ele>
        <time>2017-07-10T10:31:09Z</time>
      </trkpt>
      <trkpt lat="45.94728" lon="4.85288">
        <ele>269</ele>
        <time>2017-07-10T10:31:10Z</time>
      </trkpt>
      <trkpt lat="45.94728" lon="4.8528">
        <ele>269</ele>
        <time>2017-07-10T10:31:11Z</time>
      </trkpt>
      <trkpt lat="45.94727" lon="4.85271">
        <ele>269</ele>
        <time>2017-07-10T10:31:12Z</time>
      </trkpt>
      <trkpt lat="45.94727" lon="4.85263">
        <ele>269</ele>
        <time>2017-07-10T10:31:13Z</time>
      </trkpt>
      <trkpt lat="45.94726" lon="4.85255">
        <ele>269</ele>
        <time>2017-07-10T10:31:14Z</time>
      </trkpt>
      <trkpt lat="45.94725" lon="4.85248">
        <ele>269</ele>
        <time>2017-07-10T10:31:15Z</time>
      </trkpt>
      <trkpt lat="45.94725" lon="4.8524">
        <ele>269</ele>
        <time>2017-07-10T10:31:16Z</time>
      </trkpt>
      <trkpt lat="45.94724" lon="4.85232">
        <ele>269</ele>
        <time>2017-07-10T10:31:17Z</time>
      </trkpt>
      <trkpt lat="45.94723" lon="4.85224">
        <ele>269</ele>
        <time>2017-07-10T10:31:18Z</time>
      </trkpt>
      <trkpt lat="45.94722" lon="4.85216">
        <ele>269</ele>
        <time>2017-07-10T10:31:19Z</time>
      </trkpt>
      <trkpt lat="45.94721" lon="4.85208">
        <ele>269</ele>
        <time>2017-07-10T10:31:20Z</time>
      </trkpt>
      <trkpt lat="45.94719" lon="4.85199">
        <ele>269</ele>
        <time>2017-07-10T10:31:21Z</time>
      </trkpt>
      <trkpt lat="45.94719" lon="4.85191">
        <ele>269</ele>
        <time>2017-07-10T10:31:22Z</time>
      </trkpt>
      <trkpt lat="45.94718" lon="4.85183">
        <ele>269</ele>
        <time>2017-07-10T10:31:23Z</time>
      </trkpt>
      <trkpt lat="45.94717" lon="4.85175">
        <ele>269</ele>
        <time>2017-07-10T10:31:24Z</time>
      </trkpt>
      <trkpt lat="45.94717" lon="4.85167">
        <ele>269</ele>
        <time>2017-07-10T10:31:25Z</time>
      </trkpt>
      <trkpt lat="45.94716" lon="4.85159">
        <ele>269</ele>
        <time>2017-07-10T10:31:26Z</time>
      </trkpt>
      <trkpt lat="45.94716" lon="4.85152">
        <ele>269</ele>
        <time>2017-07-10T10:31:27Z</time>
      </trkpt>
      <trkpt lat="45.94716" lon="4.85145">
        <ele>269</ele>
        <time>2017-07-10T10:31:28Z</time>
      </trkpt>
      <trkpt lat="45.94715" lon="4.85138">
        <ele>269</ele>
        <time>2017-07-10T10:31:29Z</time>
      </trkpt>
      <trkpt lat="45.94714" lon="4.8513">
        <ele>269</ele>
        <time>2017-07-10T10:31:30Z</time>
      </trkpt>
      <trkpt lat="45.94714" lon="4.85123">
        <ele>269</ele>
        <time>2017-07-10T10:31:31Z</time>
      </trkpt>
      <trkpt lat="45.94713" lon="4.85115">
        <ele>269</ele>
        <time>2017-07-10T10:31:32Z</time>
      </trkpt>
      <trkpt lat="45.94712" lon="4.85107">
        <ele>269</ele>
        <time>2017-07-10T10:31:33Z</time>
      </trkpt>
      <trkpt lat="45.94711" lon="4.85098">
        <ele>269</ele>
        <time>2017-07-10T10:31:34Z</time>
      </trkpt>
      <trkpt lat="45.9471" lon="4.8509">
        <ele>269</ele>
        <time>2017-07-10T10:31:35Z</time>
      </trkpt>
      <trkpt lat="45.94709" lon="4.85082">
        <ele>269</ele>
        <time>2017-07-10T10:31:36Z</time>
      </trkpt>
      <trkpt lat="45.94708" lon="4.85074">
        <ele>269</ele>
        <time>2017-07-10T10:31:37Z</time>
      </trkpt>
      <trkpt lat="45.94707" lon="4.85067">
        <ele>269</ele>
        <time>2017-07-10T10:31:38Z</time>
      </trkpt>
      <trkpt lat="45.94706" lon="4.85059">
        <ele>269</ele>
        <time>2017-07-10T10:31:39Z</time>
      </trkpt>
      <trkpt lat="45.94705" lon="4.85052">
        <ele>269</ele>
        <time>2017-07-10T10:31:40Z</time>
      </trkpt>
      <trkpt lat="45.94704" lon="4.85045">
        <ele>269</ele>
        <time>2017-07-10T10:31:41Z</time>
      </trkpt>
      <trkpt lat="45.94703" lon="4.85038">
        <ele>269</ele>
        <time>2017-07-10T10:31:42Z</time>
      </trkpt>
      <trkpt lat="45.94702" lon="4.85031">
        <ele>269</ele>
        <time>2017-07-10T10:31:43Z</time>
      </trkpt>
      <trkpt lat="45.94702" lon="4.85025">
        <ele>269</ele>
        <time>2017-07-10T10:31:44Z</time>
      </trkpt>
      <trkpt lat="45.94701" lon="4.85012">
        <ele>269</ele>
        <time>2017-07-10T10:31:46Z</time>
      </trkpt>
      <trkpt lat="45.947" lon="4.85005">
        <ele>269</ele>
        <time>2017-07-10T10:31:47Z</time>
      </trkpt>
      <trkpt lat="45.947" lon="4.84998">
        <ele>269</ele>
        <time>2017-07-10T10:31:48Z</time>
      </trkpt>
      <trkpt lat="45.94699" lon="4.84991">
        <ele>269</ele>
        <time>2017-07-10T10:31:49Z</time>
      </trkpt>
      <trkpt lat="45.94698" lon="4.84983">
        <ele>269</ele>
        <time>2017-07-10T10:31:50Z</time>
      </trkpt>
      <trkpt lat="45.94697" lon="4.84975">
        <ele>269</ele>
        <time>2017-07-10T10:31:51Z</time>
      </trkpt>
      <trkpt lat="45.94696" lon="4.84967">
        <ele>269</ele>
        <time>2017-07-10T10:31:52Z</time>
      </trkpt>
      <trkpt lat="45.94696" lon="4.8496">
        <ele>269</ele>
        <time>2017-07-10T10:31:53Z</time>
      </trkpt>
      <trkpt lat="45.94695" lon="4.84952">
        <ele>269</ele>
        <time>2017-07-10T10:31:54Z</time>
      </trkpt>
      <trkpt lat="45.94694" lon="4.84945">
        <ele>269</ele>
        <time>2017-07-10T10:31:55Z</time>
      </trkpt>
      <trkpt lat="45.94693" lon="4.84938">
        <ele>269</ele>
        <time>2017-07-10T10:31:56Z</time>
      </trkpt>
      <trkpt lat="45.94693" lon="4.84931">
        <ele>269</ele>
        <time>2017-07-10T10:31:57Z</time>
      </trkpt>
      <trkpt lat="45.94692" lon="4.84924">
        <ele>269</ele>
        <time>2017-07-10T10:31:58Z</time>
      </trkpt>
      <trkpt lat="45.94692" lon="4.84916">
        <ele>269</ele>
        <time>2017-07-10T10:31:59Z</time>
      </trkpt>
      <trkpt lat="45.94691" lon="4.84909">
        <ele>268</ele>
        <time>2017-07-10T10:32:00Z</time>
      </trkpt>
      <trkpt lat="45.9469" lon="4.84901">
        <ele>268</ele>
        <time>2017-07-10T10:32:01Z</time>
      </trkpt>
      <trkpt lat="45.94689" lon="4.84893">
        <ele>268</ele>
        <time>2017-07-10T10:32:02Z</time>
      </trkpt>
      <trkpt lat="45.94688" lon="4.84886">
        <ele>268</ele>
        <time>2017-07-10T10:32:03Z</time>
      </trkpt>
      <trkpt lat="45.94688" lon="4.84879">
        <ele>268</ele>
        <time>2017-07-10T10:32:04Z</time>
      </trkpt>
      <trkpt lat="45.94687" lon="4.84872">
        <ele>268</ele>
        <time>2017-07-10T10:32:05Z</time>
      </trkpt>
      <trkpt lat="45.94687" lon="4.84865">
        <ele>268</ele>
        <time>2017-07-10T10:32:06Z</time>
      </trkpt>
      <trkpt lat="45.94686" lon="4.84858">
        <ele>268</ele>
        <time>2017-07-10T10:32:07Z</time>
      </trkpt>
      <trkpt lat="45.94686" lon="4.84852">
        <ele>268</ele>
        <time>2017-07-10T10:32:08Z</time>
      </trkpt>
      <trkpt lat="45.94685" lon="4.84845">
        <ele>268</ele>
        <time>2017-07-10T10:32:09Z</time>
      </trkpt>
      <trkpt lat="45.94685" lon="4.84838">
        <ele>268</ele>
        <time>2017-07-10T10:32:10Z</time>
      </trkpt>
      <trkpt lat="45.94684" lon="4.84832">
        <ele>268</ele>
        <time>2017-07-10T10:32:11Z</time>
      </trkpt>
      <trkpt lat="45.94683" lon="4.84825">
        <ele>268</ele>
        <time>2017-07-10T10:32:12Z</time>
      </trkpt>
      <trkpt lat="45.94683" lon="4.84817">
        <ele>268</ele>
        <time>2017-07-10T10:32:13Z</time>
      </trkpt>
      <trkpt lat="45.94682" lon="4.8481">
        <ele>268</ele>
        <time>2017-07-10T10:32:14Z</time>
      </trkpt>
      <trkpt lat="45.94681" lon="4.84801">
        <ele>268</ele>
        <time>2017-07-10T10:32:15Z</time>
      </trkpt>
      <trkpt lat="45.94681" lon="4.84794">
        <ele>268</ele>
        <time>2017-07-10T10:32:16Z</time>
      </trkpt>
      <trkpt lat="45.9468" lon="4.84786">
        <ele>269</ele>
        <time>2017-07-10T10:32:17Z</time>
      </trkpt>
      <trkpt lat="45.94679" lon="4.84778">
        <ele>269</ele>
        <time>2017-07-10T10:32:18Z</time>
      </trkpt>
      <trkpt lat="45.94679" lon="4.8477">
        <ele>269</ele>
        <time>2017-07-10T10:32:19Z</time>
      </trkpt>
      <trkpt lat="45.94678" lon="4.84763">
        <ele>269</ele>
        <time>2017-07-10T10:32:20Z</time>
      </trkpt>
      <trkpt lat="45.94677" lon="4.84755">
        <ele>269</ele>
        <time>2017-07-10T10:32:21Z</time>
      </trkpt>
      <trkpt lat="45.94677" lon="4.84747">
        <ele>269</ele>
        <time>2017-07-10T10:32:22Z</time>
      </trkpt>
      <trkpt lat="45.94676" lon="4.84739">
        <ele>269</ele>
        <time>2017-07-10T10:32:23Z</time>
      </trkpt>
      <trkpt lat="45.94676" lon="4.84731">
        <ele>269</ele>
        <time>2017-07-10T10:32:24Z</time>
      </trkpt>
      <trkpt lat="45.94675" lon="4.84723">
        <ele>269</ele>
        <time>2017-07-10T10:32:25Z</time>
      </trkpt>
      <trkpt lat="45.94675" lon="4.84716">
        <ele>269</ele>
        <time>2017-07-10T10:32:26Z</time>
      </trkpt>
      <trkpt lat="45.94674" lon="4.84708">
        <ele>269</ele>
        <time>2017-07-10T10:32:27Z</time>
      </trkpt>
      <trkpt lat="45.94674" lon="4.84701">
        <ele>268</ele>
        <time>2017-07-10T10:32:28Z</time>
      </trkpt>
      <trkpt lat="45.94674" lon="4.84694">
        <ele>269</ele>
        <time>2017-07-10T10:32:29Z</time>
      </trkpt>
      <trkpt lat="45.94673" lon="4.84686">
        <ele>269</ele>
        <time>2017-07-10T10:32:30Z</time>
      </trkpt>
      <trkpt lat="45.94673" lon="4.84679">
        <ele>269</ele>
        <time>2017-07-10T10:32:31Z</time>
      </trkpt>
      <trkpt lat="45.94673" lon="4.84673">
        <ele>269</ele>
        <time>2017-07-10T10:32:32Z</time>
      </trkpt>
      <trkpt lat="45.94672" lon="4.84666">
        <ele>269</ele>
        <time>2017-07-10T10:32:33Z</time>
      </trkpt>
      <trkpt lat="45.94672" lon="4.84659">
        <ele>269</ele>
        <time>2017-07-10T10:32:34Z</time>
      </trkpt>
      <trkpt lat="45.94672" lon="4.84652">
        <ele>268</ele>
        <time>2017-07-10T10:32:35Z</time>
      </trkpt>
      <trkpt lat="45.94672" lon="4.84645">
        <ele>268</ele>
        <time>2017-07-10T10:32:36Z</time>
      </trkpt>
      <trkpt lat="45.94672" lon="4.84638">
        <ele>268</ele>
        <time>2017-07-10T10:32:37Z</time>
      </trkpt>
      <trkpt lat="45.94672" lon="4.84631">
        <ele>268</ele>
        <time>2017-07-10T10:32:38Z</time>
      </trkpt>
      <trkpt lat="45.94671" lon="4.84623">
        <ele>268</ele>
        <time>2017-07-10T10:32:39Z</time>
      </trkpt>
      <trkpt lat="45.94671" lon="4.84615">
        <ele>268</ele>
        <time>2017-07-10T10:32:40Z</time>
      </trkpt>
      <trkpt lat="45.94671" lon="4.84607">
        <ele>268</ele>
        <time>2017-07-10T10:32:41Z</time>
      </trkpt>
      <trkpt lat="45.94671" lon="4.846">
        <ele>268</ele>
        <time>2017-07-10T10:32:42Z</time>
      </trkpt>
      <trkpt lat="45.9467" lon="4.84593">
        <ele>268</ele>
        <time>2017-07-10T10:32:43Z</time>
      </trkpt>
      <trkpt lat="45.9467" lon="4.84581">
        <ele>268</ele>
        <time>2017-07-10T10:32:45Z</time>
      </trkpt>
      <trkpt lat="45.94669" lon="4.84574">
        <ele>268</ele>
        <time>2017-07-10T10:32:46Z</time>
      </trkpt>
      <trkpt lat="45.94669" lon="4.84568">
        <ele>268</ele>
        <time>2017-07-10T10:32:47Z</time>
      </trkpt>
      <trkpt lat="45.94668" lon="4.84561">
        <ele>268</ele>
        <time>2017-07-10T10:32:48Z</time>
      </trkpt>
      <trkpt lat="45.94668" lon="4.84554">
        <ele>268</ele>
        <time>2017-07-10T10:32:49Z</time>
      </trkpt>
      <trkpt lat="45.94667" lon="4.84547">
        <ele>268</ele>
        <time>2017-07-10T10:32:50Z</time>
      </trkpt>
      <trkpt lat="45.94666" lon="4.8454">
        <ele>268</ele>
        <time>2017-07-10T10:32:51Z</time>
      </trkpt>
      <trkpt lat="45.94666" lon="4.84533">
        <ele>268</ele>
        <time>2017-07-10T10:32:52Z</time>
      </trkpt>
      <trkpt lat="45.94664" lon="4.84521">
        <ele>268</ele>
        <time>2017-07-10T10:32:54Z</time>
      </trkpt>
      <trkpt lat="45.94663" lon="4.84514">
        <ele>268</ele>
        <time>2017-07-10T10:32:55Z</time>
      </trkpt>
      <trkpt lat="45.94662" lon="4.84508">
        <ele>268</ele>
        <time>2017-07-10T10:32:56Z</time>
      </trkpt>
      <trkpt lat="45.94662" lon="4.84501">
        <ele>268</ele>
        <time>2017-07-10T10:32:57Z</time>
      </trkpt>
      <trkpt lat="45.94661" lon="4.84494">
        <ele>268</ele>
        <time>2017-07-10T10:32:58Z</time>
      </trkpt>
      <trkpt lat="45.9466" lon="4.84486">
        <ele>268</ele>
        <time>2017-07-10T10:32:59Z</time>
      </trkpt>
      <trkpt lat="45.94659" lon="4.84479">
        <ele>268</ele>
        <time>2017-07-10T10:33:00Z</time>
      </trkpt>
      <trkpt lat="45.94659" lon="4.84472">
        <ele>268</ele>
        <time>2017-07-10T10:33:01Z</time>
      </trkpt>
      <trkpt lat="45.94658" lon="4.8446">
        <ele>268</ele>
        <time>2017-07-10T10:33:03Z</time>
      </trkpt>
      <trkpt lat="45.94657" lon="4.84453">
        <ele>268</ele>
        <time>2017-07-10T10:33:04Z</time>
      </trkpt>
      <trkpt lat="45.94655" lon="4.84441">
        <ele>268</ele>
        <time>2017-07-10T10:33:06Z</time>
      </trkpt>
      <trkpt lat="45.94654" lon="4.84435">
        <ele>268</ele>
        <time>2017-07-10T10:33:07Z</time>
      </trkpt>
      <trkpt lat="45.94654" lon="4.84427">
        <ele>268</ele>
        <time>2017-07-10T10:33:08Z</time>
      </trkpt>
      <trkpt lat="45.94653" lon="4.8442">
        <ele>268</ele>
        <time>2017-07-10T10:33:09Z</time>
      </trkpt>
      <trkpt lat="45.94652" lon="4.84413">
        <ele>268</ele>
        <time>2017-07-10T10:33:10Z</time>
      </trkpt>
      <trkpt lat="45.94651" lon="4.84405">
        <ele>268</ele>
        <time>2017-07-10T10:33:11Z</time>
      </trkpt>
      <trkpt lat="45.9465" lon="4.84398">
        <ele>268</ele>
        <time>2017-07-10T10:33:12Z</time>
      </trkpt>
      <trkpt lat="45.9465" lon="4.84391">
        <ele>268</ele>
        <time>2017-07-10T10:33:13Z</time>
      </trkpt>
      <trkpt lat="45.94649" lon="4.84385">
        <ele>268</ele>
        <time>2017-07-10T10:33:14Z</time>
      </trkpt>
      <trkpt lat="45.94648" lon="4.84378">
        <ele>268</ele>
        <time>2017-07-10T10:33:15Z</time>
      </trkpt>
      <trkpt lat="45.94647" lon="4.84365">
        <ele>268</ele>
        <time>2017-07-10T10:33:17Z</time>
      </trkpt>
      <trkpt lat="45.94646" lon="4.84359">
        <ele>268</ele>
        <time>2017-07-10T10:33:18Z</time>
      </trkpt>
      <trkpt lat="45.94645" lon="4.84353">
        <ele>268</ele>
        <time>2017-07-10T10:33:19Z</time>
      </trkpt>
      <trkpt lat="45.94645" lon="4.84346">
        <ele>268</ele>
        <time>2017-07-10T10:33:20Z</time>
      </trkpt>
      <trkpt lat="45.94645" lon="4.84339">
        <ele>268</ele>
        <time>2017-07-10T10:33:21Z</time>
      </trkpt>
      <trkpt lat="45.94643" lon="4.84332">
        <ele>268</ele>
        <time>2017-07-10T10:33:22Z</time>
      </trkpt>
      <trkpt lat="45.94642" lon="4.84324">
        <ele>268</ele>
        <time>2017-07-10T10:33:23Z</time>
      </trkpt>
      <trkpt lat="45.94642" lon="4.84316">
        <ele>269</ele>
        <time>2017-07-10T10:33:24Z</time>
      </trkpt>
      <trkpt lat="45.9464" lon="4.84308">
        <ele>269</ele>
        <time>2017-07-10T10:33:25Z</time>
      </trkpt>
      <trkpt lat="45.94639" lon="4.843">
        <ele>269</ele>
        <time>2017-07-10T10:33:26Z</time>
      </trkpt>
      <trkpt lat="45.94638" lon="4.84292">
        <ele>269</ele>
        <time>2017-07-10T10:33:27Z</time>
      </trkpt>
      <trkpt lat="45.94637" lon="4.84284">
        <ele>269</ele>
        <time>2017-07-10T10:33:28Z</time>
      </trkpt>
      <trkpt lat="45.94636" lon="4.84277">
        <ele>269</ele>
        <time>2017-07-10T10:33:29Z</time>
      </trkpt>
      <trkpt lat="45.94634" lon="4.84269">
        <ele>269</ele>
        <time>2017-07-10T10:33:30Z</time>
      </trkpt>
      <trkpt lat="45.94633" lon="4.84262">
        <ele>269</ele>
        <time>2017-07-10T10:33:31Z</time>
      </trkpt>
      <trkpt lat="45.94633" lon="4.84255">
        <ele>269</ele>
        <time>2017-07-10T10:33:32Z</time>
      </trkpt>
      <trkpt lat="45.94631" lon="4.84247">
        <ele>269</ele>
        <time>2017-07-10T10:33:33Z</time>
      </trkpt>
      <trkpt lat="45.9463" lon="4.84239">
        <ele>269</ele>
        <time>2017-07-10T10:33:34Z</time>
      </trkpt>
      <trkpt lat="45.94629" lon="4.84231">
        <ele>269</ele>
        <time>2017-07-10T10:33:35Z</time>
      </trkpt>
      <trkpt lat="45.94628" lon="4.84223">
        <ele>269</ele>
        <time>2017-07-10T10:33:36Z</time>
      </trkpt>
      <trkpt lat="45.94627" lon="4.84214">
        <ele>269</ele>
        <time>2017-07-10T10:33:37Z</time>
      </trkpt>
      <trkpt lat="45.94626" lon="4.84206">
        <ele>269</ele>
        <time>2017-07-10T10:33:38Z</time>
      </trkpt>
      <trkpt lat="45.94625" lon="4.84197">
        <ele>269</ele>
        <time>2017-07-10T10:33:39Z</time>
      </trkpt>
      <trkpt lat="45.94624" lon="4.84189">
        <ele>269</ele>
        <time>2017-07-10T10:33:40Z</time>
      </trkpt>
      <trkpt lat="45.94623" lon="4.84181">
        <ele>269</ele>
        <time>2017-07-10T10:33:41Z</time>
      </trkpt>
      <trkpt lat="45.94622" lon="4.84174">
        <ele>269</ele>
        <time>2017-07-10T10:33:42Z</time>
      </trkpt>
      <trkpt lat="45.94621" lon="4.84166">
        <ele>269</ele>
        <time>2017-07-10T10:33:43Z</time>
      </trkpt>
      <trkpt lat="45.9462" lon="4.84159">
        <ele>269</ele>
        <time>2017-07-10T10:33:44Z</time>
      </trkpt>
      <trkpt lat="45.94618" lon="4.84153">
        <ele>269</ele>
        <time>2017-07-10T10:33:45Z</time>
      </trkpt>
      <trkpt lat="45.94617" lon="4.84146">
        <ele>269</ele>
        <time>2017-07-10T10:33:46Z</time>
      </trkpt>
      <trkpt lat="45.94615" lon="4.84133">
        <ele>269</ele>
        <time>2017-07-10T10:33:48Z</time>
      </trkpt>
      <trkpt lat="45.94614" lon="4.84127">
        <ele>269</ele>
        <time>2017-07-10T10:33:49Z</time>
      </trkpt>
      <trkpt lat="45.94612" lon="4.84116">
        <ele>269</ele>
        <time>2017-07-10T10:33:51Z</time>
      </trkpt>
      <trkpt lat="45.94611" lon="4.8411">
        <ele>269</ele>
        <time>2017-07-10T10:33:52Z</time>
      </trkpt>
      <trkpt lat="45.94609" lon="4.84104">
        <ele>269</ele>
        <time>2017-07-10T10:33:53Z</time>
      </trkpt>
      <trkpt lat="45.94608" lon="4.84098">
        <ele>269</ele>
        <time>2017-07-10T10:33:54Z</time>
      </trkpt>
      <trkpt lat="45.94606" lon="4.84091">
        <ele>269</ele>
        <time>2017-07-10T10:33:55Z</time>
      </trkpt>
      <trkpt lat="45.94605" lon="4.84085">
        <ele>269</ele>
        <time>2017-07-10T10:33:56Z</time>
      </trkpt>
      <trkpt lat="45.94605" lon="4.84078">
        <ele>269</ele>
        <time>2017-07-10T10:33:57Z</time>
      </trkpt>
      <trkpt lat="45.94604" lon="4.84072">
        <ele>269</ele>
        <time>2017-07-10T10:33:58Z</time>
      </trkpt>
      <trkpt lat="45.94602" lon="4.84065">
        <ele>269</ele>
        <time>2017-07-10T10:33:59Z</time>
      </trkpt>
      <trkpt lat="45.94602" lon="4.84058">
        <ele>269</ele>
        <time>2017-07-10T10:34:00Z</time>
      </trkpt>
      <trkpt lat="45.946" lon="4.8405">
        <ele>269</ele>
        <time>2017-07-10T10:34:01Z</time>
      </trkpt>
      <trkpt lat="45.94599" lon="4.84043">
        <ele>269</ele>
        <time>2017-07-10T10:34:02Z</time>
      </trkpt>
      <trkpt lat="45.94597" lon="4.84035">
        <ele>269</ele>
        <time>2017-07-10T10:34:03Z</time>
      </trkpt>
      <trkpt lat="45.94596" lon="4.84028">
        <ele>269</ele>
        <time>2017-07-10T10:34:04Z</time>
      </trkpt>
      <trkpt lat="45.94595" lon="4.8402">
        <ele>269</ele>
        <time>2017-07-10T10:34:05Z</time>
      </trkpt>
      <trkpt lat="45.94594" lon="4.84012">
        <ele>269</ele>
        <time>2017-07-10T10:34:06Z</time>
      </trkpt>
      <trkpt lat="45.94593" lon="4.84004">
        <ele>269</ele>
        <time>2017-07-10T10:34:07Z</time>
      </trkpt>
      <trkpt lat="45.94591" lon="4.83996">
        <ele>269</ele>
        <time>2017-07-10T10:34:08Z</time>
      </trkpt>
      <trkpt lat="45.9459" lon="4.83989">
        <ele>269</ele>
        <time>2017-07-10T10:34:09Z</time>
      </trkpt>
      <trkpt lat="45.94589" lon="4.83981">
        <ele>268</ele>
        <time>2017-07-10T10:34:10Z</time>
      </trkpt>
      <trkpt lat="45.94588" lon="4.83973">
        <ele>268</ele>
        <time>2017-07-10T10:34:11Z</time>
      </trkpt>
      <trkpt lat="45.94587" lon="4.83965">
        <ele>268</ele>
        <time>2017-07-10T10:34:12Z</time>
      </trkpt>
      <trkpt lat="45.94586" lon="4.83957">
        <ele>268</ele>
        <time>2017-07-10T10:34:13Z</time>
      </trkpt>
      <trkpt lat="45.94585" lon="4.83949">
        <ele>268</ele>
        <time>2017-07-10T10:34:14Z</time>
      </trkpt>
      <trkpt lat="45.94583" lon="4.8394">
        <ele>269</ele>
        <time>2017-07-10T10:34:15Z</time>
      </trkpt>
      <trkpt lat="45.94582" lon="4.83931">
        <ele>268</ele>
        <time>2017-07-10T10:34:16Z</time>
      </trkpt>
      <trkpt lat="45.94581" lon="4.83922">
        <ele>268</ele>
        <time>2017-07-10T10:34:17Z</time>
      </trkpt>
      <trkpt lat="45.9458" lon="4.83913">
        <ele>268</ele>
        <time>2017-07-10T10:34:18Z</time>
      </trkpt>
      <trkpt lat="45.94579" lon="4.83904">
        <ele>268</ele>
        <time>2017-07-10T10:34:19Z</time>
      </trkpt>
      <trkpt lat="45.94578" lon="4.83895">
        <ele>267</ele>
        <time>2017-07-10T10:34:20Z</time>
      </trkpt>
      <trkpt lat="45.94576" lon="4.83885">
        <ele>267</ele>
        <time>2017-07-10T10:34:21Z</time>
      </trkpt>
      <trkpt lat="45.94575" lon="4.83876">
        <ele>267</ele>
        <time>2017-07-10T10:34:22Z</time>
      </trkpt>
      <trkpt lat="45.94574" lon="4.83867">
        <ele>267</ele>
        <time>2017-07-10T10:34:23Z</time>
      </trkpt>
      <trkpt lat="45.94572" lon="4.83856">
        <ele>266</ele>
        <time>2017-07-10T10:34:24Z</time>
      </trkpt>
      <trkpt lat="45.9457" lon="4.83846">
        <ele>266</ele>
        <time>2017-07-10T10:34:25Z</time>
      </trkpt>
      <trkpt lat="45.94569" lon="4.83836">
        <ele>266</ele>
        <time>2017-07-10T10:34:26Z</time>
      </trkpt>
      <trkpt lat="45.94568" lon="4.83827">
        <ele>265</ele>
        <time>2017-07-10T10:34:27Z</time>
      </trkpt>
      <trkpt lat="45.94567" lon="4.83817">
        <ele>264</ele>
        <time>2017-07-10T10:34:28Z</time>
      </trkpt>
      <trkpt lat="45.94565" lon="4.83807">
        <ele>264</ele>
        <time>2017-07-10T10:34:29Z</time>
      </trkpt>
      <trkpt lat="45.94564" lon="4.83797">
        <ele>264</ele>
        <time>2017-07-10T10:34:30Z</time>
      </trkpt>
      <trkpt lat="45.94562" lon="4.83787">
        <ele>264</ele>
        <time>2017-07-10T10:34:31Z</time>
      </trkpt>
      <trkpt lat="45.94561" lon="4.83777">
        <ele>264</ele>
        <time>2017-07-10T10:34:32Z</time>
      </trkpt>
      <trkpt lat="45.94559" lon="4.83767">
        <ele>263</ele>
        <time>2017-07-10T10:34:33Z</time>
      </trkpt>
      <trkpt lat="45.94558" lon="4.83758">
        <ele>263</ele>
        <time>2017-07-10T10:34:34Z</time>
      </trkpt>
      <trkpt lat="45.94557" lon="4.83749">
        <ele>262</ele>
        <time>2017-07-10T10:34:35Z</time>
      </trkpt>
      <trkpt lat="45.94555" lon="4.8374">
        <ele>262</ele>
        <time>2017-07-10T10:34:36Z</time>
      </trkpt>
      <trkpt lat="45.94554" lon="4.83731">
        <ele>262</ele>
        <time>2017-07-10T10:34:37Z</time>
      </trkpt>
      <trkpt lat="45.94552" lon="4.83723">
        <ele>262</ele>
        <time>2017-07-10T10:34:38Z</time>
      </trkpt>
      <trkpt lat="45.94551" lon="4.83714">
        <ele>262</ele>
        <time>2017-07-10T10:34:39Z</time>
      </trkpt>
      <trkpt lat="45.9455" lon="4.83706">
        <ele>262</ele>
        <time>2017-07-10T10:34:40Z</time>
      </trkpt>
      <trkpt lat="45.94549" lon="4.83698">
        <ele>262</ele>
        <time>2017-07-10T10:34:41Z</time>
      </trkpt>
      <trkpt lat="45.94547" lon="4.8369">
        <ele>262</ele>
        <time>2017-07-10T10:34:42Z</time>
      </trkpt>
      <trkpt lat="45.94546" lon="4.83683">
        <ele>262</ele>
        <time>2017-07-10T10:34:43Z</time>
      </trkpt>
      <trkpt lat="45.94544" lon="4.83675">
        <ele>262</ele>
        <time>2017-07-10T10:34:44Z</time>
      </trkpt>
      <trkpt lat="45.94543" lon="4.83668">
        <ele>262</ele>
        <time>2017-07-10T10:34:45Z</time>
      </trkpt>
      <trkpt lat="45.94542" lon="4.83661">
        <ele>261</ele>
        <time>2017-07-10T10:34:46Z</time>
      </trkpt>
      <trkpt lat="45.9454" lon="4.83654">
        <ele>261</ele>
        <time>2017-07-10T10:34:47Z</time>
      </trkpt>
      <trkpt lat="45.94539" lon="4.83648">
        <ele>261</ele>
        <time>2017-07-10T10:34:48Z</time>
      </trkpt>
      <trkpt lat="45.94538" lon="4.83641">
        <ele>261</ele>
        <time>2017-07-10T10:34:49Z</time>
      </trkpt>
      <trkpt lat="45.94536" lon="4.83635">
        <ele>261</ele>
        <time>2017-07-10T10:34:50Z</time>
      </trkpt>
      <trkpt lat="45.94535" lon="4.83628">
        <ele>261</ele>
        <time>2017-07-10T10:34:51Z</time>
      </trkpt>
      <trkpt lat="45.94535" lon="4.83621">
        <ele>261</ele>
        <time>2017-07-10T10:34:52Z</time>
      </trkpt>
      <trkpt lat="45.94534" lon="4.83614">
        <ele>261</ele>
        <time>2017-07-10T10:34:53Z</time>
      </trkpt>
      <trkpt lat="45.94532" lon="4.83606">
        <ele>261</ele>
        <time>2017-07-10T10:34:54Z</time>
      </trkpt>
      <trkpt lat="45.9453" lon="4.83599">
        <ele>261</ele>
        <time>2017-07-10T10:34:55Z</time>
      </trkpt>
      <trkpt lat="45.94529" lon="4.83591">
        <ele>261</ele>
        <time>2017-07-10T10:34:56Z</time>
      </trkpt>
      <trkpt lat="45.94526" lon="4.83584">
        <ele>261</ele>
        <time>2017-07-10T10:34:57Z</time>
      </trkpt>
      <trkpt lat="45.94524" lon="4.83577">
        <ele>261</ele>
        <time>2017-07-10T10:34:58Z</time>
      </trkpt>
      <trkpt lat="45.94521" lon="4.8357">
        <ele>261</ele>
        <time>2017-07-10T10:34:59Z</time>
      </trkpt>
      <trkpt lat="45.94518" lon="4.83564">
        <ele>261</ele>
        <time>2017-07-10T10:35:00Z</time>
      </trkpt>
      <trkpt lat="45.94515" lon="4.83558">
        <ele>261</ele>
        <time>2017-07-10T10:35:01Z</time>
      </trkpt>
      <trkpt lat="45.94511" lon="4.83552">
        <ele>261</ele>
        <time>2017-07-10T10:35:02Z</time>
      </trkpt>
      <trkpt lat="45.94508" lon="4.83546">
        <ele>261</ele>
        <time>2017-07-10T10:35:03Z</time>
      </trkpt>
      <trkpt lat="45.94505" lon="4.83541">
        <ele>262</ele>
        <time>2017-07-10T10:35:04Z</time>
      </trkpt>
      <trkpt lat="45.94501" lon="4.83535">
        <ele>262</ele>
        <time>2017-07-10T10:35:05Z</time>
      </trkpt>
      <trkpt lat="45.94498" lon="4.8353">
        <ele>262</ele>
        <time>2017-07-10T10:35:06Z</time>
      </trkpt>
      <trkpt lat="45.94494" lon="4.83524">
        <ele>262</ele>
        <time>2017-07-10T10:35:07Z</time>
      </trkpt>
      <trkpt lat="45.94491" lon="4.83519">
        <ele>262</ele>
        <time>2017-07-10T10:35:08Z</time>
      </trkpt>
      <trkpt lat="45.94487" lon="4.83514">
        <ele>262</ele>
        <time>2017-07-10T10:35:09Z</time>
      </trkpt>
      <trkpt lat="45.94484" lon="4.83508">
        <ele>262</ele>
        <time>2017-07-10T10:35:10Z</time>
      </trkpt>
      <trkpt lat="45.94481" lon="4.83503">
        <ele>262</ele>
        <time>2017-07-10T10:35:11Z</time>
      </trkpt>
      <trkpt lat="45.94478" lon="4.83498">
        <ele>263</ele>
        <time>2017-07-10T10:35:12Z</time>
      </trkpt>
      <trkpt lat="45.94475" lon="4.83492">
        <ele>263</ele>
        <time>2017-07-10T10:35:13Z</time>
      </trkpt>
      <trkpt lat="45.94472" lon="4.83487">
        <ele>263</ele>
        <time>2017-07-10T10:35:14Z</time>
      </trkpt>
      <trkpt lat="45.9447" lon="4.83482">
        <ele>263</ele>
        <time>2017-07-10T10:35:15Z</time>
      </trkpt>
      <trkpt lat="45.94466" lon="4.83477">
        <ele>263</ele>
        <time>2017-07-10T10:35:16Z</time>
      </trkpt>
      <trkpt lat="45.94463" lon="4.83471">
        <ele>263</ele>
        <time>2017-07-10T10:35:17Z</time>
      </trkpt>
      <trkpt lat="45.94459" lon="4.83466">
        <ele>263</ele>
        <time>2017-07-10T10:35:18Z</time>
      </trkpt>
      <trkpt lat="45.94457" lon="4.8346">
        <ele>263</ele>
        <time>2017-07-10T10:35:19Z</time>
      </trkpt>
      <trkpt lat="45.94454" lon="4.83454">
        <ele>263</ele>
        <time>2017-07-10T10:35:20Z</time>
      </trkpt>
      <trkpt lat="45.94451" lon="4.83449">
        <ele>263</ele>
        <time>2017-07-10T10:35:21Z</time>
      </trkpt>
      <trkpt lat="45.94448" lon="4.83444">
        <ele>263</ele>
        <time>2017-07-10T10:35:22Z</time>
      </trkpt>
      <trkpt lat="45.94445" lon="4.83439">
        <ele>263</ele>
        <time>2017-07-10T10:35:23Z</time>
      </trkpt>
      <trkpt lat="45.94441" lon="4.83435">
        <ele>263</ele>
        <time>2017-07-10T10:35:24Z</time>
      </trkpt>
      <trkpt lat="45.94435" lon="4.83425">
        <ele>264</ele>
        <time>2017-07-10T10:35:26Z</time>
      </trkpt>
      <trkpt lat="45.94432" lon="4.8342">
        <ele>264</ele>
        <time>2017-07-10T10:35:27Z</time>
      </trkpt>
      <trkpt lat="45.9443" lon="4.83414">
        <ele>264</ele>
        <time>2017-07-10T10:35:28Z</time>
      </trkpt>
      <trkpt lat="45.94427" lon="4.83409">
        <ele>264</ele>
        <time>2017-07-10T10:35:29Z</time>
      </trkpt>
      <trkpt lat="45.94425" lon="4.83403">
        <ele>264</ele>
        <time>2017-07-10T10:35:30Z</time>
      </trkpt>
      <trkpt lat="45.94423" lon="4.83397">
        <ele>264</ele>
        <time>2017-07-10T10:35:31Z</time>
      </trkpt>
      <trkpt lat="45.9442" lon="4.83391">
        <ele>264</ele>
        <time>2017-07-10T10:35:32Z</time>
      </trkpt>
      <trkpt lat="45.94417" lon="4.83386">
        <ele>264</ele>
        <time>2017-07-10T10:35:33Z</time>
      </trkpt>
      <trkpt lat="45.94413" lon="4.83375">
        <ele>264</ele>
        <time>2017-07-10T10:35:35Z</time>
      </trkpt>
      <trkpt lat="45.94411" lon="4.83369">
        <ele>264</ele>
        <time>2017-07-10T10:35:36Z</time>
      </trkpt>
      <trkpt lat="45.94408" lon="4.83364">
        <ele>264</ele>
        <time>2017-07-10T10:35:37Z</time>
      </trkpt>
      <trkpt lat="45.94406" lon="4.83358">
        <ele>264</ele>
        <time>2017-07-10T10:35:38Z</time>
      </trkpt>
      <trkpt lat="45.94403" lon="4.83351">
        <ele>263</ele>
        <time>2017-07-10T10:35:39Z</time>
      </trkpt>
      <trkpt lat="45.944" lon="4.83345">
        <ele>263</ele>
        <time>2017-07-10T10:35:40Z</time>
      </trkpt>
      <trkpt lat="45.94398" lon="4.83339">
        <ele>263</ele>
        <time>2017-07-10T10:35:41Z</time>
      </trkpt>
      <trkpt lat="45.94395" lon="4.83333">
        <ele>264</ele>
        <time>2017-07-10T10:35:42Z</time>
      </trkpt>
      <trkpt lat="45.94393" lon="4.83326">
        <ele>264</ele>
        <time>2017-07-10T10:35:43Z</time>
      </trkpt>
      <trkpt lat="45.9439" lon="4.83319">
        <ele>264</ele>
        <time>2017-07-10T10:35:44Z</time>
      </trkpt>
      <trkpt lat="45.94388" lon="4.83312">
        <ele>264</ele>
        <time>2017-07-10T10:35:45Z</time>
      </trkpt>
      <trkpt lat="45.94386" lon="4.83305">
        <ele>264</ele>
        <time>2017-07-10T10:35:46Z</time>
      </trkpt>
      <trkpt lat="45.94384" lon="4.83299">
        <ele>264</ele>
        <time>2017-07-10T10:35:47Z</time>
      </trkpt>
      <trkpt lat="45.94382" lon="4.83293">
        <ele>264</ele>
        <time>2017-07-10T10:35:48Z</time>
      </trkpt>
      <trkpt lat="45.9438" lon="4.83286">
        <ele>264</ele>
        <time>2017-07-10T10:35:49Z</time>
      </trkpt>
      <trkpt lat="45.94378" lon="4.8328">
        <ele>264</ele>
        <time>2017-07-10T10:35:50Z</time>
      </trkpt>
      <trkpt lat="45.94377" lon="4.83274">
        <ele>264</ele>
        <time>2017-07-10T10:35:51Z</time>
      </trkpt>
      <trkpt lat="45.94375" lon="4.83268">
        <ele>264</ele>
        <time>2017-07-10T10:35:52Z</time>
      </trkpt>
      <trkpt lat="45.94372" lon="4.83261">
        <ele>264</ele>
        <time>2017-07-10T10:35:53Z</time>
      </trkpt>
      <trkpt lat="45.9437" lon="4.83255">
        <ele>265</ele>
        <time>2017-07-10T10:35:54Z</time>
      </trkpt>
      <trkpt lat="45.94368" lon="4.83249">
        <ele>265</ele>
        <time>2017-07-10T10:35:55Z</time>
      </trkpt>
      <trkpt lat="45.94365" lon="4.83243">
        <ele>265</ele>
        <time>2017-07-10T10:35:56Z</time>
      </trkpt>
      <trkpt lat="45.94364" lon="4.83237">
        <ele>265</ele>
        <time>2017-07-10T10:35:57Z</time>
      </trkpt>
      <trkpt lat="45.94362" lon="4.83231">
        <ele>266</ele>
        <time>2017-07-10T10:35:58Z</time>
      </trkpt>
      <trkpt lat="45.9436" lon="4.83225">
        <ele>266</ele>
        <time>2017-07-10T10:35:59Z</time>
      </trkpt>
      <trkpt lat="45.94358" lon="4.83219">
        <ele>266</ele>
        <time>2017-07-10T10:36:00Z</time>
      </trkpt>
      <trkpt lat="45.94356" lon="4.83213">
        <ele>266</ele>
        <time>2017-07-10T10:36:01Z</time>
      </trkpt>
      <trkpt lat="45.94354" lon="4.83206">
        <ele>266</ele>
        <time>2017-07-10T10:36:02Z</time>
      </trkpt>
      <trkpt lat="45.94352" lon="4.832">
        <ele>266</ele>
        <time>2017-07-10T10:36:03Z</time>
      </trkpt>
      <trkpt lat="45.9435" lon="4.83194">
        <ele>266</ele>
        <time>2017-07-10T10:36:04Z</time>
      </trkpt>
      <trkpt lat="45.94347" lon="4.83188">
        <ele>266</ele>
        <time>2017-07-10T10:36:05Z</time>
      </trkpt>
      <trkpt lat="45.94345" lon="4.83182">
        <ele>266</ele>
        <time>2017-07-10T10:36:06Z</time>
      </trkpt>
      <trkpt lat="45.94344" lon="4.83176">
        <ele>266</ele>
        <time>2017-07-10T10:36:07Z</time>
      </trkpt>
      <trkpt lat="45.94342" lon="4.8317">
        <ele>266</ele>
        <time>2017-07-10T10:36:08Z</time>
      </trkpt>
      <trkpt lat="45.9434" lon="4.83164">
        <ele>266</ele>
        <time>2017-07-10T10:36:09Z</time>
      </trkpt>
      <trkpt lat="45.94338" lon="4.83158">
        <ele>266</ele>
        <time>2017-07-10T10:36:10Z</time>
      </trkpt>
      <trkpt lat="45.94334" lon="4.83147">
        <ele>266</ele>
        <time>2017-07-10T10:36:12Z</time>
      </trkpt>
      <trkpt lat="45.94332" lon="4.83141">
        <ele>266</ele>
        <time>2017-07-10T10:36:13Z</time>
      </trkpt>
      <trkpt lat="45.94328" lon="4.8313">
        <ele>266</ele>
        <time>2017-07-10T10:36:15Z</time>
      </trkpt>
      <trkpt lat="45.94326" lon="4.83125">
        <ele>266</ele>
        <time>2017-07-10T10:36:16Z</time>
      </trkpt>
      <trkpt lat="45.94323" lon="4.83119">
        <ele>266</ele>
        <time>2017-07-10T10:36:17Z</time>
      </trkpt>
      <trkpt lat="45.94321" lon="4.83113">
        <ele>266</ele>
        <time>2017-07-10T10:36:18Z</time>
      </trkpt>
      <trkpt lat="45.94319" lon="4.83106">
        <ele>266</ele>
        <time>2017-07-10T10:36:19Z</time>
      </trkpt>
      <trkpt lat="45.94317" lon="4.83099">
        <ele>266</ele>
        <time>2017-07-10T10:36:20Z</time>
      </trkpt>
      <trkpt lat="45.94315" lon="4.83093">
        <ele>266</ele>
        <time>2017-07-10T10:36:21Z</time>
      </trkpt>
      <trkpt lat="45.94313" lon="4.83086">
        <ele>266</ele>
        <time>2017-07-10T10:36:22Z</time>
      </trkpt>
      <trkpt lat="45.94311" lon="4.83079">
        <ele>266</ele>
        <time>2017-07-10T10:36:23Z</time>
      </trkpt>
      <trkpt lat="45.9431" lon="4.83072">
        <ele>266</ele>
        <time>2017-07-10T10:36:24Z</time>
      </trkpt>
      <trkpt lat="45.94308" lon="4.83065">
        <ele>266</ele>
        <time>2017-07-10T10:36:25Z</time>
      </trkpt>
      <trkpt lat="45.94306" lon="4.83058">
        <ele>266</ele>
        <time>2017-07-10T10:36:26Z</time>
      </trkpt>
      <trkpt lat="45.94305" lon="4.83052">
        <ele>266</ele>
        <time>2017-07-10T10:36:27Z</time>
      </trkpt>
      <trkpt lat="45.94304" lon="4.83046">
        <ele>266</ele>
        <time>2017-07-10T10:36:28Z</time>
      </trkpt>
      <trkpt lat="45.94303" lon="4.83039">
        <ele>266</ele>
        <time>2017-07-10T10:36:29Z</time>
      </trkpt>
      <trkpt lat="45.94302" lon="4.83033">
        <ele>266</ele>
        <time>2017-07-10T10:36:30Z</time>
      </trkpt>
      <trkpt lat="45.94302" lon="4.83027">
        <ele>266</ele>
        <time>2017-07-10T10:36:31Z</time>
      </trkpt>
      <trkpt lat="45.943" lon="4.8302">
        <ele>266</ele>
        <time>2017-07-10T10:36:32Z</time>
      </trkpt>
      <trkpt lat="45.94299" lon="4.83014">
        <ele>266</ele>
        <time>2017-07-10T10:36:33Z</time>
      </trkpt>
      <trkpt lat="45.94298" lon="4.83007">
        <ele>266</ele>
        <time>2017-07-10T10:36:34Z</time>
      </trkpt>
      <trkpt lat="45.94296" lon="4.82995">
        <ele>265</ele>
        <time>2017-07-10T10:36:36Z</time>
      </trkpt>
      <trkpt lat="45.94294" lon="4.82989">
        <ele>265</ele>
        <time>2017-07-10T10:36:37Z</time>
      </trkpt>
      <trkpt lat="45.9429" lon="4.82979">
        <ele>265</ele>
        <time>2017-07-10T10:36:39Z</time>
      </trkpt>
      <trkpt lat="45.94288" lon="4.82974">
        <ele>265</ele>
        <time>2017-07-10T10:36:40Z</time>
      </trkpt>
      <trkpt lat="45.94286" lon="4.82965">
        <ele>265</ele>
        <time>2017-07-10T10:36:42Z</time>
      </trkpt>
      <trkpt lat="45.94285" lon="4.8296">
        <ele>265</ele>
        <time>2017-07-10T10:36:43Z</time>
      </trkpt>
      <trkpt lat="45.94284" lon="4.82948">
        <ele>265</ele>
        <time>2017-07-10T10:36:45Z</time>
      </trkpt>
      <trkpt lat="45.94285" lon="4.82941">
        <ele>265</ele>
        <time>2017-07-10T10:36:46Z</time>
      </trkpt>
      <trkpt lat="45.94287" lon="4.82934">
        <ele>265</ele>
        <time>2017-07-10T10:36:47Z</time>
      </trkpt>
      <trkpt lat="45.94288" lon="4.82927">
        <ele>265</ele>
        <time>2017-07-10T10:36:48Z</time>
      </trkpt>
      <trkpt lat="45.94289" lon="4.82919">
        <ele>265</ele>
        <time>2017-07-10T10:36:49Z</time>
      </trkpt>
      <trkpt lat="45.94289" lon="4.82912">
        <ele>265</ele>
        <time>2017-07-10T10:36:50Z</time>
      </trkpt>
      <trkpt lat="45.9429" lon="4.82905">
        <ele>265</ele>
        <time>2017-07-10T10:36:51Z</time>
      </trkpt>
      <trkpt lat="45.94291" lon="4.82898">
        <ele>265</ele>
        <time>2017-07-10T10:36:52Z</time>
      </trkpt>
      <trkpt lat="45.94292" lon="4.82891">
        <ele>265</ele>
        <time>2017-07-10T10:36:53Z</time>
      </trkpt>
      <trkpt lat="45.94292" lon="4.82883">
        <ele>265</ele>
        <time>2017-07-10T10:36:54Z</time>
      </trkpt>
      <trkpt lat="45.94293" lon="4.82875">
        <ele>265</ele>
        <time>2017-07-10T10:36:55Z</time>
      </trkpt>
      <trkpt lat="45.94293" lon="4.82867">
        <ele>265</ele>
        <time>2017-07-10T10:36:56Z</time>
      </trkpt>
      <trkpt lat="45.94293" lon="4.82859">
        <ele>265</ele>
        <time>2017-07-10T10:36:57Z</time>
      </trkpt>
      <trkpt lat="45.94293" lon="4.82851">
        <ele>265</ele>
        <time>2017-07-10T10:36:58Z</time>
      </trkpt>
      <trkpt lat="45.94293" lon="4.82843">
        <ele>265</ele>
        <time>2017-07-10T10:36:59Z</time>
      </trkpt>
      <trkpt lat="45.94293" lon="4.82835">
        <ele>265</ele>
        <time>2017-07-10T10:37:00Z</time>
      </trkpt>
      <trkpt lat="45.94294" lon="4.82827">
        <ele>265</ele>
        <time>2017-07-10T10:37:01Z</time>
      </trkpt>
      <trkpt lat="45.94294" lon="4.82819">
        <ele>265</ele>
        <time>2017-07-10T10:37:02Z</time>
      </trkpt>
      <trkpt lat="45.94294" lon="4.82811">
        <ele>265</ele>
        <time>2017-07-10T10:37:03Z</time>
      </trkpt>
      <trkpt lat="45.94294" lon="4.82803">
        <ele>265</ele>
        <time>2017-07-10T10:37:04Z</time>
      </trkpt>
      <trkpt lat="45.94295" lon="4.82795">
        <ele>265</ele>
        <time>2017-07-10T10:37:05Z</time>
      </trkpt>
      <trkpt lat="45.94295" lon="4.82787">
        <ele>265</ele>
        <time>2017-07-10T10:37:06Z</time>
      </trkpt>
      <trkpt lat="45.94295" lon="4.82779">
        <ele>265</ele>
        <time>2017-07-10T10:37:07Z</time>
      </trkpt>
      <trkpt lat="45.94295" lon="4.82771">
        <ele>265</ele>
        <time>2017-07-10T10:37:08Z</time>
      </trkpt>
      <trkpt lat="45.94295" lon="4.82764">
        <ele>265</ele>
        <time>2017-07-10T10:37:09Z</time>
      </trkpt>
      <trkpt lat="45.94295" lon="4.82756">
        <ele>265</ele>
        <time>2017-07-10T10:37:10Z</time>
      </trkpt>
      <trkpt lat="45.94296" lon="4.82749">
        <ele>265</ele>
        <time>2017-07-10T10:37:11Z</time>
      </trkpt>
      <trkpt lat="45.94296" lon="4.82741">
        <ele>265</ele>
        <time>2017-07-10T10:37:12Z</time>
      </trkpt>
      <trkpt lat="45.94296" lon="4.82734">
        <ele>265</ele>
        <time>2017-07-10T10:37:13Z</time>
      </trkpt>
      <trkpt lat="45.94296" lon="4.82726">
        <ele>265</ele>
        <time>2017-07-10T10:37:14Z</time>
      </trkpt>
      <trkpt lat="45.94296" lon="4.82718">
        <ele>265</ele>
        <time>2017-07-10T10:37:15Z</time>
      </trkpt>
      <trkpt lat="45.94296" lon="4.82709">
        <ele>265</ele>
        <time>2017-07-10T10:37:16Z</time>
      </trkpt>
      <trkpt lat="45.94296" lon="4.827">
        <ele>265</ele>
        <time>2017-07-10T10:37:17Z</time>
      </trkpt>
      <trkpt lat="45.94296" lon="4.82692">
        <ele>265</ele>
        <time>2017-07-10T10:37:18Z</time>
      </trkpt>
      <trkpt lat="45.94296" lon="4.82683">
        <ele>265</ele>
        <time>2017-07-10T10:37:19Z</time>
      </trkpt>
      <trkpt lat="45.94297" lon="4.82674">
        <ele>265</ele>
        <time>2017-07-10T10:37:20Z</time>
      </trkpt>
      <trkpt lat="45.94297" lon="4.82666">
        <ele>265</ele>
        <time>2017-07-10T10:37:21Z</time>
      </trkpt>
      <trkpt lat="45.94297" lon="4.82658">
        <ele>265</ele>
        <time>2017-07-10T10:37:22Z</time>
      </trkpt>
      <trkpt lat="45.94297" lon="4.82649">
        <ele>265</ele>
        <time>2017-07-10T10:37:23Z</time>
      </trkpt>
      <trkpt lat="45.94297" lon="4.82641">
        <ele>265</ele>
        <time>2017-07-10T10:37:24Z</time>
      </trkpt>
      <trkpt lat="45.94297" lon="4.82633">
        <ele>265</ele>
        <time>2017-07-10T10:37:25Z</time>
      </trkpt>
      <trkpt lat="45.94297" lon="4.82625">
        <ele>265</ele>
        <time>2017-07-10T10:37:26Z</time>
      </trkpt>
      <trkpt lat="45.94297" lon="4.82618">
        <ele>265</ele>
        <time>2017-07-10T10:37:27Z</time>
      </trkpt>
      <trkpt lat="45.94297" lon="4.8261">
        <ele>265</ele>
        <time>2017-07-10T10:37:28Z</time>
      </trkpt>
      <trkpt lat="45.94297" lon="4.82603">
        <ele>265</ele>
        <time>2017-07-10T10:37:29Z</time>
      </trkpt>
      <trkpt lat="45.94297" lon="4.82596">
        <ele>265</ele>
        <time>2017-07-10T10:37:30Z</time>
      </trkpt>
      <trkpt lat="45.94297" lon="4.82589">
        <ele>265</ele>
        <time>2017-07-10T10:37:31Z</time>
      </trkpt>
      <trkpt lat="45.94298" lon="4.82581">
        <ele>264</ele>
        <time>2017-07-10T10:37:32Z</time>
      </trkpt>
      <trkpt lat="45.94298" lon="4.82573">
        <ele>264</ele>
        <time>2017-07-10T10:37:33Z</time>
      </trkpt>
      <trkpt lat="45.94298" lon="4.82564">
        <ele>264</ele>
        <time>2017-07-10T10:37:34Z</time>
      </trkpt>
      <trkpt lat="45.94299" lon="4.82556">
        <ele>264</ele>
        <time>2017-07-10T10:37:35Z</time>
      </trkpt>
      <trkpt lat="45.94299" lon="4.82547">
        <ele>264</ele>
        <time>2017-07-10T10:37:36Z</time>
      </trkpt>
      <trkpt lat="45.94299" lon="4.82539">
        <ele>264</ele>
        <time>2017-07-10T10:37:37Z</time>
      </trkpt>
      <trkpt lat="45.94299" lon="4.82531">
        <ele>264</ele>
        <time>2017-07-10T10:37:38Z</time>
      </trkpt>
      <trkpt lat="45.94299" lon="4.82522">
        <ele>264</ele>
        <time>2017-07-10T10:37:39Z</time>
      </trkpt>
      <trkpt lat="45.94299" lon="4.82515">
        <ele>264</ele>
        <time>2017-07-10T10:37:40Z</time>
      </trkpt>
      <trkpt lat="45.94299" lon="4.82506">
        <ele>264</ele>
        <time>2017-07-10T10:37:41Z</time>
      </trkpt>
      <trkpt lat="45.94298" lon="4.82499">
        <ele>264</ele>
        <time>2017-07-10T10:37:42Z</time>
      </trkpt>
      <trkpt lat="45.94298" lon="4.82491">
        <ele>264</ele>
        <time>2017-07-10T10:37:43Z</time>
      </trkpt>
      <trkpt lat="45.94298" lon="4.82483">
        <ele>264</ele>
        <time>2017-07-10T10:37:44Z</time>
      </trkpt>
      <trkpt lat="45.94298" lon="4.82475">
        <ele>264</ele>
        <time>2017-07-10T10:37:45Z</time>
      </trkpt>
      <trkpt lat="45.94297" lon="4.82467">
        <ele>264</ele>
        <time>2017-07-10T10:37:46Z</time>
      </trkpt>
      <trkpt lat="45.94297" lon="4.82459">
        <ele>264</ele>
        <time>2017-07-10T10:37:47Z</time>
      </trkpt>
      <trkpt lat="45.94297" lon="4.82451">
        <ele>264</ele>
        <time>2017-07-10T10:37:48Z</time>
      </trkpt>
      <trkpt lat="45.94297" lon="4.82443">
        <ele>264</ele>
        <time>2017-07-10T10:37:49Z</time>
      </trkpt>
      <trkpt lat="45.94296" lon="4.82434">
        <ele>264</ele>
        <time>2017-07-10T10:37:50Z</time>
      </trkpt>
      <trkpt lat="45.94296" lon="4.82425">
        <ele>264</ele>
        <time>2017-07-10T10:37:51Z</time>
      </trkpt>
      <trkpt lat="45.94296" lon="4.82417">
        <ele>264</ele>
        <time>2017-07-10T10:37:52Z</time>
      </trkpt>
      <trkpt lat="45.94295" lon="4.82408">
        <ele>264</ele>
        <time>2017-07-10T10:37:53Z</time>
      </trkpt>
      <trkpt lat="45.94295" lon="4.82399">
        <ele>264</ele>
        <time>2017-07-10T10:37:54Z</time>
      </trkpt>
      <trkpt lat="45.94294" lon="4.8239">
        <ele>264</ele>
        <time>2017-07-10T10:37:55Z</time>
      </trkpt>
      <trkpt lat="45.94294" lon="4.82381">
        <ele>264</ele>
        <time>2017-07-10T10:37:56Z</time>
      </trkpt>
      <trkpt lat="45.94293" lon="4.82372">
        <ele>264</ele>
        <time>2017-07-10T10:37:57Z</time>
      </trkpt>
      <trkpt lat="45.94293" lon="4.82363">
        <ele>264</ele>
        <time>2017-07-10T10:37:58Z</time>
      </trkpt>
      <trkpt lat="45.94292" lon="4.82354">
        <ele>264</ele>
        <time>2017-07-10T10:37:59Z</time>
      </trkpt>
      <trkpt lat="45.94292" lon="4.82345">
        <ele>264</ele>
        <time>2017-07-10T10:38:00Z</time>
      </trkpt>
      <trkpt lat="45.94292" lon="4.82334">
        <ele>264</ele>
        <time>2017-07-10T10:38:01Z</time>
      </trkpt>
      <trkpt lat="45.94291" lon="4.82324">
        <ele>265</ele>
        <time>2017-07-10T10:38:02Z</time>
      </trkpt>
      <trkpt lat="45.94291" lon="4.82313">
        <ele>265</ele>
        <time>2017-07-10T10:38:03Z</time>
      </trkpt>
      <trkpt lat="45.9429" lon="4.82302">
        <ele>265</ele>
        <time>2017-07-10T10:38:04Z</time>
      </trkpt>
      <trkpt lat="45.94289" lon="4.82291">
        <ele>265</ele>
        <time>2017-07-10T10:38:05Z</time>
      </trkpt>
      <trkpt lat="45.94289" lon="4.8228">
        <ele>265</ele>
        <time>2017-07-10T10:38:06Z</time>
      </trkpt>
      <trkpt lat="45.94288" lon="4.8227">
        <ele>265</ele>
        <time>2017-07-10T10:38:07Z</time>
      </trkpt>
      <trkpt lat="45.94288" lon="4.8226">
        <ele>265</ele>
        <time>2017-07-10T10:38:08Z</time>
      </trkpt>
      <trkpt lat="45.94287" lon="4.8225">
        <ele>264</ele>
        <time>2017-07-10T10:38:09Z</time>
      </trkpt>
      <trkpt lat="45.94287" lon="4.8224">
        <ele>264</ele>
        <time>2017-07-10T10:38:10Z</time>
      </trkpt>
      <trkpt lat="45.94287" lon="4.8223">
        <ele>264</ele>
        <time>2017-07-10T10:38:11Z</time>
      </trkpt>
      <trkpt lat="45.94286" lon="4.82221">
        <ele>264</ele>
        <time>2017-07-10T10:38:12Z</time>
      </trkpt>
      <trkpt lat="45.94284" lon="4.82211">
        <ele>264</ele>
        <time>2017-07-10T10:38:13Z</time>
      </trkpt>
      <trkpt lat="45.94283" lon="4.82202">
        <ele>264</ele>
        <time>2017-07-10T10:38:14Z</time>
      </trkpt>
      <trkpt lat="45.94282" lon="4.82193">
        <ele>264</ele>
        <time>2017-07-10T10:38:15Z</time>
      </trkpt>
      <trkpt lat="45.9428" lon="4.82184">
        <ele>264</ele>
        <time>2017-07-10T10:38:16Z</time>
      </trkpt>
      <trkpt lat="45.94279" lon="4.82175">
        <ele>264</ele>
        <time>2017-07-10T10:38:17Z</time>
      </trkpt>
      <trkpt lat="45.94277" lon="4.82167">
        <ele>263</ele>
        <time>2017-07-10T10:38:18Z</time>
      </trkpt>
      <trkpt lat="45.94276" lon="4.82158">
        <ele>263</ele>
        <time>2017-07-10T10:38:19Z</time>
      </trkpt>
      <trkpt lat="45.94274" lon="4.8215">
        <ele>263</ele>
        <time>2017-07-10T10:38:20Z</time>
      </trkpt>
      <trkpt lat="45.94272" lon="4.82142">
        <ele>263</ele>
        <time>2017-07-10T10:38:21Z</time>
      </trkpt>
      <trkpt lat="45.94271" lon="4.82134">
        <ele>263</ele>
        <time>2017-07-10T10:38:22Z</time>
      </trkpt>
      <trkpt lat="45.94269" lon="4.82126">
        <ele>263</ele>
        <time>2017-07-10T10:38:23Z</time>
      </trkpt>
      <trkpt lat="45.94268" lon="4.82119">
        <ele>263</ele>
        <time>2017-07-10T10:38:24Z</time>
      </trkpt>
      <trkpt lat="45.94266" lon="4.82112">
        <ele>263</ele>
        <time>2017-07-10T10:38:25Z</time>
      </trkpt>
      <trkpt lat="45.94265" lon="4.82105">
        <ele>263</ele>
        <time>2017-07-10T10:38:26Z</time>
      </trkpt>
      <trkpt lat="45.94263" lon="4.82097">
        <ele>262</ele>
        <time>2017-07-10T10:38:27Z</time>
      </trkpt>
      <trkpt lat="45.94262" lon="4.8209">
        <ele>262</ele>
        <time>2017-07-10T10:38:28Z</time>
      </trkpt>
      <trkpt lat="45.9426" lon="4.82082">
        <ele>262</ele>
        <time>2017-07-10T10:38:29Z</time>
      </trkpt>
      <trkpt lat="45.94259" lon="4.82073">
        <ele>262</ele>
        <time>2017-07-10T10:38:30Z</time>
      </trkpt>
      <trkpt lat="45.94258" lon="4.82064">
        <ele>262</ele>
        <time>2017-07-10T10:38:31Z</time>
      </trkpt>
      <trkpt lat="45.94256" lon="4.82055">
        <ele>262</ele>
        <time>2017-07-10T10:38:32Z</time>
      </trkpt>
      <trkpt lat="45.94254" lon="4.82047">
        <ele>262</ele>
        <time>2017-07-10T10:38:33Z</time>
      </trkpt>
      <trkpt lat="45.94253" lon="4.82039">
        <ele>262</ele>
        <time>2017-07-10T10:38:34Z</time>
      </trkpt>
      <trkpt lat="45.94251" lon="4.82032">
        <ele>262</ele>
        <time>2017-07-10T10:38:35Z</time>
      </trkpt>
      <trkpt lat="45.94249" lon="4.82024">
        <ele>263</ele>
        <time>2017-07-10T10:38:36Z</time>
      </trkpt>
      <trkpt lat="45.94247" lon="4.82017">
        <ele>263</ele>
        <time>2017-07-10T10:38:37Z</time>
      </trkpt>
      <trkpt lat="45.94245" lon="4.82009">
        <ele>263</ele>
        <time>2017-07-10T10:38:38Z</time>
      </trkpt>
      <trkpt lat="45.94244" lon="4.82">
        <ele>262</ele>
        <time>2017-07-10T10:38:39Z</time>
      </trkpt>
      <trkpt lat="45.94242" lon="4.81992">
        <ele>263</ele>
        <time>2017-07-10T10:38:40Z</time>
      </trkpt>
      <trkpt lat="45.9424" lon="4.81984">
        <ele>263</ele>
        <time>2017-07-10T10:38:41Z</time>
      </trkpt>
      <trkpt lat="45.94238" lon="4.81975">
        <ele>263</ele>
        <time>2017-07-10T10:38:42Z</time>
      </trkpt>
      <trkpt lat="45.94237" lon="4.81967">
        <ele>264</ele>
        <time>2017-07-10T10:38:43Z</time>
      </trkpt>
      <trkpt lat="45.94235" lon="4.81958">
        <ele>264</ele>
        <time>2017-07-10T10:38:44Z</time>
      </trkpt>
      <trkpt lat="45.94234" lon="4.81951">
        <ele>264</ele>
        <time>2017-07-10T10:38:45Z</time>
      </trkpt>
      <trkpt lat="45.94232" lon="4.81943">
        <ele>264</ele>
        <time>2017-07-10T10:38:46Z</time>
      </trkpt>
      <trkpt lat="45.94231" lon="4.81935">
        <ele>264</ele>
        <time>2017-07-10T10:38:47Z</time>
      </trkpt>
      <trkpt lat="45.94229" lon="4.81928">
        <ele>263</ele>
        <time>2017-07-10T10:38:48Z</time>
      </trkpt>
      <trkpt lat="45.94227" lon="4.81921">
        <ele>263</ele>
        <time>2017-07-10T10:38:49Z</time>
      </trkpt>
      <trkpt lat="45.94226" lon="4.81915">
        <ele>264</ele>
        <time>2017-07-10T10:38:50Z</time>
      </trkpt>
      <trkpt lat="45.94224" lon="4.81908">
        <ele>264</ele>
        <time>2017-07-10T10:38:51Z</time>
      </trkpt>
      <trkpt lat="45.94223" lon="4.81901">
        <ele>264</ele>
        <time>2017-07-10T10:38:52Z</time>
      </trkpt>
      <trkpt lat="45.94221" lon="4.81894">
        <ele>265</ele>
        <time>2017-07-10T10:38:53Z</time>
      </trkpt>
      <trkpt lat="45.9422" lon="4.81887">
        <ele>265</ele>
        <time>2017-07-10T10:38:54Z</time>
      </trkpt>
      <trkpt lat="45.94219" lon="4.8188">
        <ele>265</ele>
        <time>2017-07-10T10:38:55Z</time>
      </trkpt>
      <trkpt lat="45.94218" lon="4.81873">
        <ele>265</ele>
        <time>2017-07-10T10:38:56Z</time>
      </trkpt>
      <trkpt lat="45.94216" lon="4.81866">
        <ele>265</ele>
        <time>2017-07-10T10:38:57Z</time>
      </trkpt>
      <trkpt lat="45.94215" lon="4.81858">
        <ele>265</ele>
        <time>2017-07-10T10:38:58Z</time>
      </trkpt>
      <trkpt lat="45.94213" lon="4.81851">
        <ele>265</ele>
        <time>2017-07-10T10:38:59Z</time>
      </trkpt>
      <trkpt lat="45.94211" lon="4.81844">
        <ele>265</ele>
        <time>2017-07-10T10:39:00Z</time>
      </trkpt>
      <trkpt lat="45.94209" lon="4.81836">
        <ele>266</ele>
        <time>2017-07-10T10:39:01Z</time>
      </trkpt>
      <trkpt lat="45.94208" lon="4.81828">
        <ele>266</ele>
        <time>2017-07-10T10:39:02Z</time>
      </trkpt>
      <trkpt lat="45.94207" lon="4.81821">
        <ele>266</ele>
        <time>2017-07-10T10:39:03Z</time>
      </trkpt>
      <trkpt lat="45.94206" lon="4.81814">
        <ele>266</ele>
        <time>2017-07-10T10:39:04Z</time>
      </trkpt>
      <trkpt lat="45.94206" lon="4.81806">
        <ele>266</ele>
        <time>2017-07-10T10:39:05Z</time>
      </trkpt>
      <trkpt lat="45.94207" lon="4.81799">
        <ele>266</ele>
        <time>2017-07-10T10:39:06Z</time>
      </trkpt>
      <trkpt lat="45.94208" lon="4.81792">
        <ele>266</ele>
        <time>2017-07-10T10:39:07Z</time>
      </trkpt>
      <trkpt lat="45.94209" lon="4.81784">
        <ele>265</ele>
        <time>2017-07-10T10:39:08Z</time>
      </trkpt>
      <trkpt lat="45.94211" lon="4.81778">
        <ele>265</ele>
        <time>2017-07-10T10:39:09Z</time>
      </trkpt>
      <trkpt lat="45.94213" lon="4.81772">
        <ele>265</ele>
        <time>2017-07-10T10:39:10Z</time>
      </trkpt>
      <trkpt lat="45.94215" lon="4.81766">
        <ele>265</ele>
        <time>2017-07-10T10:39:11Z</time>
      </trkpt>
      <trkpt lat="45.94219" lon="4.8176">
        <ele>265</ele>
        <time>2017-07-10T10:39:12Z</time>
      </trkpt>
      <trkpt lat="45.94222" lon="4.81755">
        <ele>265</ele>
        <time>2017-07-10T10:39:13Z</time>
      </trkpt>
      <trkpt lat="45.94224" lon="4.81749">
        <ele>265</ele>
        <time>2017-07-10T10:39:14Z</time>
      </trkpt>
      <trkpt lat="45.94226" lon="4.81742">
        <ele>265</ele>
        <time>2017-07-10T10:39:15Z</time>
      </trkpt>
      <trkpt lat="45.94227" lon="4.81735">
        <ele>265</ele>
        <time>2017-07-10T10:39:16Z</time>
      </trkpt>
      <trkpt lat="45.94226" lon="4.81727">
        <ele>265</ele>
        <time>2017-07-10T10:39:17Z</time>
      </trkpt>
      <trkpt lat="45.94224" lon="4.8172">
        <ele>266</ele>
        <time>2017-07-10T10:39:18Z</time>
      </trkpt>
      <trkpt lat="45.9422" lon="4.81715">
        <ele>266</ele>
        <time>2017-07-10T10:39:19Z</time>
      </trkpt>
      <trkpt lat="45.94216" lon="4.81711">
        <ele>266</ele>
        <time>2017-07-10T10:39:20Z</time>
      </trkpt>
      <trkpt lat="45.94212" lon="4.81708">
        <ele>266</ele>
        <time>2017-07-10T10:39:21Z</time>
      </trkpt>
      <trkpt lat="45.94207" lon="4.81705">
        <ele>266</ele>
        <time>2017-07-10T10:39:22Z</time>
      </trkpt>
      <trkpt lat="45.94202" lon="4.81701">
        <ele>267</ele>
        <time>2017-07-10T10:39:23Z</time>
      </trkpt>
      <trkpt lat="45.94197" lon="4.81698">
        <ele>267</ele>
        <time>2017-07-10T10:39:24Z</time>
      </trkpt>
      <trkpt lat="45.94192" lon="4.81693">
        <ele>267</ele>
        <time>2017-07-10T10:39:25Z</time>
      </trkpt>
      <trkpt lat="45.94188" lon="4.81686">
        <ele>267</ele>
        <time>2017-07-10T10:39:26Z</time>
      </trkpt>
      <trkpt lat="45.94184" lon="4.81679">
        <ele>268</ele>
        <time>2017-07-10T10:39:27Z</time>
      </trkpt>
      <trkpt lat="45.94181" lon="4.8167">
        <ele>268</ele>
        <time>2017-07-10T10:39:28Z</time>
      </trkpt>
      <trkpt lat="45.94178" lon="4.81661">
        <ele>268</ele>
        <time>2017-07-10T10:39:29Z</time>
      </trkpt>
      <trkpt lat="45.94175" lon="4.81651">
        <ele>268</ele>
        <time>2017-07-10T10:39:30Z</time>
      </trkpt>
      <trkpt lat="45.94172" lon="4.81641">
        <ele>268</ele>
        <time>2017-07-10T10:39:31Z</time>
      </trkpt>
      <trkpt lat="45.9417" lon="4.8163">
        <ele>267</ele>
        <time>2017-07-10T10:39:32Z</time>
      </trkpt>
      <trkpt lat="45.94168" lon="4.81618">
        <ele>267</ele>
        <time>2017-07-10T10:39:33Z</time>
      </trkpt>
      <trkpt lat="45.94168" lon="4.81605">
        <ele>267</ele>
        <time>2017-07-10T10:39:34Z</time>
      </trkpt>
      <trkpt lat="45.94167" lon="4.81594">
        <ele>267</ele>
        <time>2017-07-10T10:39:35Z</time>
      </trkpt>
      <trkpt lat="45.94166" lon="4.81582">
        <ele>267</ele>
        <time>2017-07-10T10:39:36Z</time>
      </trkpt>
      <trkpt lat="45.94165" lon="4.8157">
        <ele>266</ele>
        <time>2017-07-10T10:39:37Z</time>
      </trkpt>
      <trkpt lat="45.94162" lon="4.81558">
        <ele>265</ele>
        <time>2017-07-10T10:39:38Z</time>
      </trkpt>
      <trkpt lat="45.94161" lon="4.81546">
        <ele>264</ele>
        <time>2017-07-10T10:39:39Z</time>
      </trkpt>
      <trkpt lat="45.94159" lon="4.81534">
        <ele>264</ele>
        <time>2017-07-10T10:39:40Z</time>
      </trkpt>
      <trkpt lat="45.94159" lon="4.81522">
        <ele>263</ele>
        <time>2017-07-10T10:39:41Z</time>
      </trkpt>
      <trkpt lat="45.94158" lon="4.8151">
        <ele>263</ele>
        <time>2017-07-10T10:39:42Z</time>
      </trkpt>
      <trkpt lat="45.94158" lon="4.81497">
        <ele>261</ele>
        <time>2017-07-10T10:39:43Z</time>
      </trkpt>
      <trkpt lat="45.94161" lon="4.81483">
        <ele>259</ele>
        <time>2017-07-10T10:39:44Z</time>
      </trkpt>
      <trkpt lat="45.94162" lon="4.81469">
        <ele>258</ele>
        <time>2017-07-10T10:39:45Z</time>
      </trkpt>
      <trkpt lat="45.94163" lon="4.81455">
        <ele>257</ele>
        <time>2017-07-10T10:39:46Z</time>
      </trkpt>
      <trkpt lat="45.94165" lon="4.81441">
        <ele>256</ele>
        <time>2017-07-10T10:39:47Z</time>
      </trkpt>
      <trkpt lat="45.94166" lon="4.81427">
        <ele>256</ele>
        <time>2017-07-10T10:39:48Z</time>
      </trkpt>
      <trkpt lat="45.94167" lon="4.81413">
        <ele>257</ele>
        <time>2017-07-10T10:39:49Z</time>
      </trkpt>
      <trkpt lat="45.94169" lon="4.81399">
        <ele>258</ele>
        <time>2017-07-10T10:39:50Z</time>
      </trkpt>
      <trkpt lat="45.9417" lon="4.81385">
        <ele>258</ele>
        <time>2017-07-10T10:39:51Z</time>
      </trkpt>
      <trkpt lat="45.94172" lon="4.81371">
        <ele>258</ele>
        <time>2017-07-10T10:39:52Z</time>
      </trkpt>
      <trkpt lat="45.94172" lon="4.81356">
        <ele>256</ele>
        <time>2017-07-10T10:39:53Z</time>
      </trkpt>
      <trkpt lat="45.94172" lon="4.8134">
        <ele>254</ele>
        <time>2017-07-10T10:39:54Z</time>
      </trkpt>
      <trkpt lat="45.94172" lon="4.81326">
        <ele>254</ele>
        <time>2017-07-10T10:39:55Z</time>
      </trkpt>
      <trkpt lat="45.94172" lon="4.81312">
        <ele>255</ele>
        <time>2017-07-10T10:39:56Z</time>
      </trkpt>
      <trkpt lat="45.94172" lon="4.81297">
        <ele>256</ele>
        <time>2017-07-10T10:39:57Z</time>
      </trkpt>
      <trkpt lat="45.94172" lon="4.81283">
        <ele>255</ele>
        <time>2017-07-10T10:39:58Z</time>
      </trkpt>
      <trkpt lat="45.9417" lon="4.81269">
        <ele>254</ele>
        <time>2017-07-10T10:39:59Z</time>
      </trkpt>
      <trkpt lat="45.94168" lon="4.81255">
        <ele>252</ele>
        <time>2017-07-10T10:40:00Z</time>
      </trkpt>
      <trkpt lat="45.94165" lon="4.81242">
        <ele>248</ele>
        <time>2017-07-10T10:40:01Z</time>
      </trkpt>
      <trkpt lat="45.94162" lon="4.81228">
        <ele>246</ele>
        <time>2017-07-10T10:40:02Z</time>
      </trkpt>
      <trkpt lat="45.94159" lon="4.81214">
        <ele>245</ele>
        <time>2017-07-10T10:40:03Z</time>
      </trkpt>
      <trkpt lat="45.94155" lon="4.81202">
        <ele>244</ele>
        <time>2017-07-10T10:40:04Z</time>
      </trkpt>
      <trkpt lat="45.94149" lon="4.81187">
        <ele>244</ele>
        <time>2017-07-10T10:40:05Z</time>
      </trkpt>
      <trkpt lat="45.94144" lon="4.81172">
        <ele>244</ele>
        <time>2017-07-10T10:40:06Z</time>
      </trkpt>
      <trkpt lat="45.94138" lon="4.81158">
        <ele>244</ele>
        <time>2017-07-10T10:40:07Z</time>
      </trkpt>
      <trkpt lat="45.94131" lon="4.81143">
        <ele>243</ele>
        <time>2017-07-10T10:40:08Z</time>
      </trkpt>
      <trkpt lat="45.94127" lon="4.81131">
        <ele>243</ele>
        <time>2017-07-10T10:40:09Z</time>
      </trkpt>
      <trkpt lat="45.94121" lon="4.81118">
        <ele>243</ele>
        <time>2017-07-10T10:40:10Z</time>
      </trkpt>
      <trkpt lat="45.94116" lon="4.81105">
        <ele>243</ele>
        <time>2017-07-10T10:40:11Z</time>
      </trkpt>
      <trkpt lat="45.94108" lon="4.81091">
        <ele>242</ele>
        <time>2017-07-10T10:40:12Z</time>
      </trkpt>
      <trkpt lat="45.94102" lon="4.81078">
        <ele>242</ele>
        <time>2017-07-10T10:40:13Z</time>
      </trkpt>
      <trkpt lat="45.94096" lon="4.81063">
        <ele>243</ele>
        <time>2017-07-10T10:40:14Z</time>
      </trkpt>
      <trkpt lat="45.94091" lon="4.81047">
        <ele>244</ele>
        <time>2017-07-10T10:40:15Z</time>
      </trkpt>
      <trkpt lat="45.94085" lon="4.81031">
        <ele>244</ele>
        <time>2017-07-10T10:40:16Z</time>
      </trkpt>
      <trkpt lat="45.9408" lon="4.81014">
        <ele>236</ele>
        <time>2017-07-10T10:40:17Z</time>
      </trkpt>
      <trkpt lat="45.94077" lon="4.80997">
        <ele>237</ele>
        <time>2017-07-10T10:40:18Z</time>
      </trkpt>
      <trkpt lat="45.94075" lon="4.8098">
        <ele>234</ele>
        <time>2017-07-10T10:40:19Z</time>
      </trkpt>
      <trkpt lat="45.94072" lon="4.80963">
        <ele>233</ele>
        <time>2017-07-10T10:40:20Z</time>
      </trkpt>
      <trkpt lat="45.9407" lon="4.80946">
        <ele>233</ele>
        <time>2017-07-10T10:40:21Z</time>
      </trkpt>
      <trkpt lat="45.94068" lon="4.8093">
        <ele>234</ele>
        <time>2017-07-10T10:40:22Z</time>
      </trkpt>
      <trkpt lat="45.94065" lon="4.80914">
        <ele>233</ele>
        <time>2017-07-10T10:40:23Z</time>
      </trkpt>
      <trkpt lat="45.94063" lon="4.80898">
        <ele>232</ele>
        <time>2017-07-10T10:40:24Z</time>
      </trkpt>
      <trkpt lat="45.94061" lon="4.80881">
        <ele>231</ele>
        <time>2017-07-10T10:40:25Z</time>
      </trkpt>
      <trkpt lat="45.94059" lon="4.80866">
        <ele>231</ele>
        <time>2017-07-10T10:40:26Z</time>
      </trkpt>
      <trkpt lat="45.94056" lon="4.80849">
        <ele>231</ele>
        <time>2017-07-10T10:40:27Z</time>
      </trkpt>
      <trkpt lat="45.94054" lon="4.80833">
        <ele>231</ele>
        <time>2017-07-10T10:40:28Z</time>
      </trkpt>
      <trkpt lat="45.94052" lon="4.80817">
        <ele>230</ele>
        <time>2017-07-10T10:40:29Z</time>
      </trkpt>
      <trkpt lat="45.94049" lon="4.80801">
        <ele>229</ele>
        <time>2017-07-10T10:40:30Z</time>
      </trkpt>
      <trkpt lat="45.94046" lon="4.80785">
        <ele>228</ele>
        <time>2017-07-10T10:40:31Z</time>
      </trkpt>
      <trkpt lat="45.94043" lon="4.80769">
        <ele>228</ele>
        <time>2017-07-10T10:40:32Z</time>
      </trkpt>
      <trkpt lat="45.94041" lon="4.80753">
        <ele>228</ele>
        <time>2017-07-10T10:40:33Z</time>
      </trkpt>
      <trkpt lat="45.94039" lon="4.80736">
        <ele>227</ele>
        <time>2017-07-10T10:40:34Z</time>
      </trkpt>
      <trkpt lat="45.94037" lon="4.80719">
        <ele>226</ele>
        <time>2017-07-10T10:40:35Z</time>
      </trkpt>
      <trkpt lat="45.94035" lon="4.80704">
        <ele>226</ele>
        <time>2017-07-10T10:40:36Z</time>
      </trkpt>
      <trkpt lat="45.94034" lon="4.80688">
        <ele>225</ele>
        <time>2017-07-10T10:40:37Z</time>
      </trkpt>
      <trkpt lat="45.94033" lon="4.80671">
        <ele>225</ele>
        <time>2017-07-10T10:40:38Z</time>
      </trkpt>
      <trkpt lat="45.94032" lon="4.80654">
        <ele>225</ele>
        <time>2017-07-10T10:40:39Z</time>
      </trkpt>
      <trkpt lat="45.94031" lon="4.80638">
        <ele>225</ele>
        <time>2017-07-10T10:40:40Z</time>
      </trkpt>
      <trkpt lat="45.94029" lon="4.80621">
        <ele>225</ele>
        <time>2017-07-10T10:40:41Z</time>
      </trkpt>
      <trkpt lat="45.94028" lon="4.80606">
        <ele>225</ele>
        <time>2017-07-10T10:40:42Z</time>
      </trkpt>
      <trkpt lat="45.94024" lon="4.80589">
        <ele>224</ele>
        <time>2017-07-10T10:40:43Z</time>
      </trkpt>
      <trkpt lat="45.94021" lon="4.80573">
        <ele>224</ele>
        <time>2017-07-10T10:40:44Z</time>
      </trkpt>
      <trkpt lat="45.9402" lon="4.80557">
        <ele>224</ele>
        <time>2017-07-10T10:40:45Z</time>
      </trkpt>
      <trkpt lat="45.94019" lon="4.80541">
        <ele>225</ele>
        <time>2017-07-10T10:40:46Z</time>
      </trkpt>
      <trkpt lat="45.94018" lon="4.80526">
        <ele>224</ele>
        <time>2017-07-10T10:40:47Z</time>
      </trkpt>
      <trkpt lat="45.94017" lon="4.80509">
        <ele>223</ele>
        <time>2017-07-10T10:40:48Z</time>
      </trkpt>
      <trkpt lat="45.94016" lon="4.80493">
        <ele>222</ele>
        <time>2017-07-10T10:40:49Z</time>
      </trkpt>
      <trkpt lat="45.94015" lon="4.80476">
        <ele>223</ele>
        <time>2017-07-10T10:40:50Z</time>
      </trkpt>
      <trkpt lat="45.94012" lon="4.80457">
        <ele>223</ele>
        <time>2017-07-10T10:40:51Z</time>
      </trkpt>
      <trkpt lat="45.9401" lon="4.8044">
        <ele>222</ele>
        <time>2017-07-10T10:40:52Z</time>
      </trkpt>
      <trkpt lat="45.94006" lon="4.80425">
        <ele>219</ele>
        <time>2017-07-10T10:40:53Z</time>
      </trkpt>
      <trkpt lat="45.94" lon="4.80411">
        <ele>217</ele>
        <time>2017-07-10T10:40:54Z</time>
      </trkpt>
      <trkpt lat="45.93996" lon="4.80396">
        <ele>210</ele>
        <time>2017-07-10T10:40:55Z</time>
      </trkpt>
      <trkpt lat="45.93992" lon="4.8038">
        <ele>208</ele>
        <time>2017-07-10T10:40:56Z</time>
      </trkpt>
      <trkpt lat="45.93988" lon="4.80364">
        <ele>207</ele>
        <time>2017-07-10T10:40:57Z</time>
      </trkpt>
      <trkpt lat="45.93985" lon="4.80345">
        <ele>206</ele>
        <time>2017-07-10T10:40:58Z</time>
      </trkpt>
      <trkpt lat="45.93981" lon="4.80327">
        <ele>204</ele>
        <time>2017-07-10T10:40:59Z</time>
      </trkpt>
      <trkpt lat="45.93979" lon="4.80311">
        <ele>203</ele>
        <time>2017-07-10T10:41:00Z</time>
      </trkpt>
      <trkpt lat="45.93976" lon="4.80297">
        <ele>203</ele>
        <time>2017-07-10T10:41:01Z</time>
      </trkpt>
      <trkpt lat="45.93973" lon="4.80282">
        <ele>202</ele>
        <time>2017-07-10T10:41:02Z</time>
      </trkpt>
      <trkpt lat="45.93969" lon="4.80266">
        <ele>202</ele>
        <time>2017-07-10T10:41:03Z</time>
      </trkpt>
      <trkpt lat="45.93965" lon="4.8025">
        <ele>202</ele>
        <time>2017-07-10T10:41:04Z</time>
      </trkpt>
      <trkpt lat="45.93961" lon="4.80236">
        <ele>204</ele>
        <time>2017-07-10T10:41:05Z</time>
      </trkpt>
      <trkpt lat="45.93958" lon="4.80222">
        <ele>205</ele>
        <time>2017-07-10T10:41:06Z</time>
      </trkpt>
      <trkpt lat="45.93954" lon="4.80208">
        <ele>205</ele>
        <time>2017-07-10T10:41:07Z</time>
      </trkpt>
      <trkpt lat="45.9395" lon="4.80194">
        <ele>205</ele>
        <time>2017-07-10T10:41:08Z</time>
      </trkpt>
      <trkpt lat="45.93948" lon="4.80181">
        <ele>206</ele>
        <time>2017-07-10T10:41:09Z</time>
      </trkpt>
      <trkpt lat="45.93946" lon="4.80168">
        <ele>206</ele>
        <time>2017-07-10T10:41:10Z</time>
      </trkpt>
      <trkpt lat="45.93945" lon="4.80156">
        <ele>208</ele>
        <time>2017-07-10T10:41:11Z</time>
      </trkpt>
      <trkpt lat="45.93943" lon="4.80143">
        <ele>208</ele>
        <time>2017-07-10T10:41:12Z</time>
      </trkpt>
      <trkpt lat="45.93941" lon="4.80131">
        <ele>208</ele>
        <time>2017-07-10T10:41:13Z</time>
      </trkpt>
      <trkpt lat="45.9394" lon="4.80118">
        <ele>208</ele>
        <time>2017-07-10T10:41:14Z</time>
      </trkpt>
      <trkpt lat="45.93939" lon="4.80105">
        <ele>208</ele>
        <time>2017-07-10T10:41:15Z</time>
      </trkpt>
      <trkpt lat="45.93939" lon="4.80092">
        <ele>208</ele>
        <time>2017-07-10T10:41:16Z</time>
      </trkpt>
      <trkpt lat="45.93938" lon="4.80079">
        <ele>207</ele>
        <time>2017-07-10T10:41:17Z</time>
      </trkpt>
      <trkpt lat="45.93938" lon="4.80067">
        <ele>207</ele>
        <time>2017-07-10T10:41:18Z</time>
      </trkpt>
      <trkpt lat="45.93939" lon="4.80055">
        <ele>207</ele>
        <time>2017-07-10T10:41:19Z</time>
      </trkpt>
      <trkpt lat="45.9394" lon="4.80044">
        <ele>207</ele>
        <time>2017-07-10T10:41:20Z</time>
      </trkpt>
      <trkpt lat="45.9394" lon="4.80031">
        <ele>207</ele>
        <time>2017-07-10T10:41:21Z</time>
      </trkpt>
      <trkpt lat="45.93939" lon="4.8002">
        <ele>206</ele>
        <time>2017-07-10T10:41:22Z</time>
      </trkpt>
      <trkpt lat="45.93944" lon="4.80011">
        <ele>206</ele>
        <time>2017-07-10T10:41:23Z</time>
      </trkpt>
      <trkpt lat="45.93946" lon="4.8">
        <ele>205</ele>
        <time>2017-07-10T10:41:24Z</time>
      </trkpt>
      <trkpt lat="45.93947" lon="4.7999">
        <ele>205</ele>
        <time>2017-07-10T10:41:25Z</time>
      </trkpt>
      <trkpt lat="45.93948" lon="4.7998">
        <ele>205</ele>
        <time>2017-07-10T10:41:26Z</time>
      </trkpt>
      <trkpt lat="45.93949" lon="4.79969">
        <ele>205</ele>
        <time>2017-07-10T10:41:27Z</time>
      </trkpt>
      <trkpt lat="45.9395" lon="4.79959">
        <ele>205</ele>
        <time>2017-07-10T10:41:28Z</time>
      </trkpt>
      <trkpt lat="45.93951" lon="4.7995">
        <ele>205</ele>
        <time>2017-07-10T10:41:29Z</time>
      </trkpt>
      <trkpt lat="45.93951" lon="4.7994">
        <ele>205</ele>
        <time>2017-07-10T10:41:30Z</time>
      </trkpt>
      <trkpt lat="45.93954" lon="4.79931">
        <ele>205</ele>
        <time>2017-07-10T10:41:31Z</time>
      </trkpt>
      <trkpt lat="45.93955" lon="4.79922">
        <ele>205</ele>
        <time>2017-07-10T10:41:32Z</time>
      </trkpt>
      <trkpt lat="45.93957" lon="4.79912">
        <ele>205</ele>
        <time>2017-07-10T10:41:33Z</time>
      </trkpt>
      <trkpt lat="45.93958" lon="4.79902">
        <ele>206</ele>
        <time>2017-07-10T10:41:34Z</time>
      </trkpt>
      <trkpt lat="45.9396" lon="4.79892">
        <ele>206</ele>
        <time>2017-07-10T10:41:35Z</time>
      </trkpt>
      <trkpt lat="45.93961" lon="4.79882">
        <ele>206</ele>
        <time>2017-07-10T10:41:36Z</time>
      </trkpt>
      <trkpt lat="45.93962" lon="4.79872">
        <ele>206</ele>
        <time>2017-07-10T10:41:37Z</time>
      </trkpt>
      <trkpt lat="45.93964" lon="4.79862">
        <ele>206</ele>
        <time>2017-07-10T10:41:38Z</time>
      </trkpt>
      <trkpt lat="45.93967" lon="4.79852">
        <ele>206</ele>
        <time>2017-07-10T10:41:39Z</time>
      </trkpt>
      <trkpt lat="45.9397" lon="4.79841">
        <ele>207</ele>
        <time>2017-07-10T10:41:40Z</time>
      </trkpt>
      <trkpt lat="45.93971" lon="4.7983">
        <ele>207</ele>
        <time>2017-07-10T10:41:41Z</time>
      </trkpt>
      <trkpt lat="45.93973" lon="4.79819">
        <ele>207</ele>
        <time>2017-07-10T10:41:42Z</time>
      </trkpt>
      <trkpt lat="45.93974" lon="4.79809">
        <ele>207</ele>
        <time>2017-07-10T10:41:43Z</time>
      </trkpt>
      <trkpt lat="45.93976" lon="4.79798">
        <ele>207</ele>
        <time>2017-07-10T10:41:44Z</time>
      </trkpt>
      <trkpt lat="45.93977" lon="4.79788">
        <ele>207</ele>
        <time>2017-07-10T10:41:45Z</time>
      </trkpt>
      <trkpt lat="45.93978" lon="4.79778">
        <ele>207</ele>
        <time>2017-07-10T10:41:46Z</time>
      </trkpt>
      <trkpt lat="45.93977" lon="4.79768">
        <ele>207</ele>
        <time>2017-07-10T10:41:47Z</time>
      </trkpt>
      <trkpt lat="45.93977" lon="4.79758">
        <ele>207</ele>
        <time>2017-07-10T10:41:48Z</time>
      </trkpt>
      <trkpt lat="45.93977" lon="4.79748">
        <ele>207</ele>
        <time>2017-07-10T10:41:49Z</time>
      </trkpt>
      <trkpt lat="45.93976" lon="4.79738">
        <ele>207</ele>
        <time>2017-07-10T10:41:50Z</time>
      </trkpt>
      <trkpt lat="45.93975" lon="4.79728">
        <ele>207</ele>
        <time>2017-07-10T10:41:51Z</time>
      </trkpt>
      <trkpt lat="45.93975" lon="4.79719">
        <ele>207</ele>
        <time>2017-07-10T10:41:52Z</time>
      </trkpt>
      <trkpt lat="45.93975" lon="4.79709">
        <ele>207</ele>
        <time>2017-07-10T10:41:53Z</time>
      </trkpt>
      <trkpt lat="45.93975" lon="4.79699">
        <ele>207</ele>
        <time>2017-07-10T10:41:54Z</time>
      </trkpt>
      <trkpt lat="45.93974" lon="4.79689">
        <ele>207</ele>
        <time>2017-07-10T10:41:55Z</time>
      </trkpt>
      <trkpt lat="45.93973" lon="4.7968">
        <ele>208</ele>
        <time>2017-07-10T10:41:56Z</time>
      </trkpt>
      <trkpt lat="45.93973" lon="4.7967">
        <ele>208</ele>
        <time>2017-07-10T10:41:57Z</time>
      </trkpt>
      <trkpt lat="45.93972" lon="4.79661">
        <ele>208</ele>
        <time>2017-07-10T10:41:58Z</time>
      </trkpt>
      <trkpt lat="45.93971" lon="4.79651">
        <ele>208</ele>
        <time>2017-07-10T10:41:59Z</time>
      </trkpt>
      <trkpt lat="45.9397" lon="4.79642">
        <ele>208</ele>
        <time>2017-07-10T10:42:00Z</time>
      </trkpt>
      <trkpt lat="45.93969" lon="4.79632">
        <ele>207</ele>
        <time>2017-07-10T10:42:01Z</time>
      </trkpt>
      <trkpt lat="45.93969" lon="4.79622">
        <ele>207</ele>
        <time>2017-07-10T10:42:02Z</time>
      </trkpt>
      <trkpt lat="45.93968" lon="4.79612">
        <ele>207</ele>
        <time>2017-07-10T10:42:03Z</time>
      </trkpt>
      <trkpt lat="45.93966" lon="4.79603">
        <ele>207</ele>
        <time>2017-07-10T10:42:04Z</time>
      </trkpt>
      <trkpt lat="45.93965" lon="4.79593">
        <ele>207</ele>
        <time>2017-07-10T10:42:05Z</time>
      </trkpt>
      <trkpt lat="45.93963" lon="4.79582">
        <ele>206</ele>
        <time>2017-07-10T10:42:06Z</time>
      </trkpt>
      <trkpt lat="45.93961" lon="4.79572">
        <ele>206</ele>
        <time>2017-07-10T10:42:07Z</time>
      </trkpt>
      <trkpt lat="45.9396" lon="4.79562">
        <ele>205</ele>
        <time>2017-07-10T10:42:08Z</time>
      </trkpt>
      <trkpt lat="45.93959" lon="4.79552">
        <ele>205</ele>
        <time>2017-07-10T10:42:09Z</time>
      </trkpt>
      <trkpt lat="45.93958" lon="4.79542">
        <ele>205</ele>
        <time>2017-07-10T10:42:10Z</time>
      </trkpt>
      <trkpt lat="45.93957" lon="4.79533">
        <ele>205</ele>
        <time>2017-07-10T10:42:11Z</time>
      </trkpt>
      <trkpt lat="45.93957" lon="4.79523">
        <ele>205</ele>
        <time>2017-07-10T10:42:12Z</time>
      </trkpt>
      <trkpt lat="45.93957" lon="4.79512">
        <ele>204</ele>
        <time>2017-07-10T10:42:13Z</time>
      </trkpt>
      <trkpt lat="45.93956" lon="4.79501">
        <ele>204</ele>
        <time>2017-07-10T10:42:14Z</time>
      </trkpt>
      <trkpt lat="45.93956" lon="4.79491">
        <ele>203</ele>
        <time>2017-07-10T10:42:15Z</time>
      </trkpt>
      <trkpt lat="45.93956" lon="4.7948">
        <ele>203</ele>
        <time>2017-07-10T10:42:16Z</time>
      </trkpt>
      <trkpt lat="45.93955" lon="4.79469">
        <ele>203</ele>
        <time>2017-07-10T10:42:17Z</time>
      </trkpt>
      <trkpt lat="45.93954" lon="4.7946">
        <ele>203</ele>
        <time>2017-07-10T10:42:18Z</time>
      </trkpt>
      <trkpt lat="45.93953" lon="4.79449">
        <ele>203</ele>
        <time>2017-07-10T10:42:19Z</time>
      </trkpt>
      <trkpt lat="45.93953" lon="4.79438">
        <ele>202</ele>
        <time>2017-07-10T10:42:20Z</time>
      </trkpt>
      <trkpt lat="45.93954" lon="4.79427">
        <ele>202</ele>
        <time>2017-07-10T10:42:21Z</time>
      </trkpt>
      <trkpt lat="45.93954" lon="4.79415">
        <ele>201</ele>
        <time>2017-07-10T10:42:22Z</time>
      </trkpt>
      <trkpt lat="45.93953" lon="4.79402">
        <ele>201</ele>
        <time>2017-07-10T10:42:23Z</time>
      </trkpt>
      <trkpt lat="45.93953" lon="4.7939">
        <ele>201</ele>
        <time>2017-07-10T10:42:24Z</time>
      </trkpt>
      <trkpt lat="45.93952" lon="4.79378">
        <ele>201</ele>
        <time>2017-07-10T10:42:25Z</time>
      </trkpt>
      <trkpt lat="45.93951" lon="4.79367">
        <ele>201</ele>
        <time>2017-07-10T10:42:26Z</time>
      </trkpt>
      <trkpt lat="45.93951" lon="4.79355">
        <ele>200</ele>
        <time>2017-07-10T10:42:27Z</time>
      </trkpt>
      <trkpt lat="45.93952" lon="4.79343">
        <ele>200</ele>
        <time>2017-07-10T10:42:28Z</time>
      </trkpt>
      <trkpt lat="45.93952" lon="4.7933">
        <ele>199</ele>
        <time>2017-07-10T10:42:29Z</time>
      </trkpt>
      <trkpt lat="45.93953" lon="4.79318">
        <ele>199</ele>
        <time>2017-07-10T10:42:30Z</time>
      </trkpt>
      <trkpt lat="45.93952" lon="4.79306">
        <ele>198</ele>
        <time>2017-07-10T10:42:31Z</time>
      </trkpt>
      <trkpt lat="45.93951" lon="4.79294">
        <ele>198</ele>
        <time>2017-07-10T10:42:32Z</time>
      </trkpt>
      <trkpt lat="45.93951" lon="4.79282">
        <ele>198</ele>
        <time>2017-07-10T10:42:33Z</time>
      </trkpt>
      <trkpt lat="45.93951" lon="4.79271">
        <ele>198</ele>
        <time>2017-07-10T10:42:34Z</time>
      </trkpt>
      <trkpt lat="45.9395" lon="4.79259">
        <ele>198</ele>
        <time>2017-07-10T10:42:35Z</time>
      </trkpt>
      <trkpt lat="45.93951" lon="4.79247">
        <ele>197</ele>
        <time>2017-07-10T10:42:36Z</time>
      </trkpt>
      <trkpt lat="45.93952" lon="4.79235">
        <ele>197</ele>
        <time>2017-07-10T10:42:37Z</time>
      </trkpt>
      <trkpt lat="45.93954" lon="4.79224">
        <ele>197</ele>
        <time>2017-07-10T10:42:38Z</time>
      </trkpt>
      <trkpt lat="45.93954" lon="4.79213">
        <ele>197</ele>
        <time>2017-07-10T10:42:39Z</time>
      </trkpt>
      <trkpt lat="45.93955" lon="4.79202">
        <ele>197</ele>
        <time>2017-07-10T10:42:40Z</time>
      </trkpt>
      <trkpt lat="45.93955" lon="4.79191">
        <ele>197</ele>
        <time>2017-07-10T10:42:41Z</time>
      </trkpt>
      <trkpt lat="45.93955" lon="4.79181">
        <ele>197</ele>
        <time>2017-07-10T10:42:42Z</time>
      </trkpt>
      <trkpt lat="45.93954" lon="4.7917">
        <ele>197</ele>
        <time>2017-07-10T10:42:43Z</time>
      </trkpt>
      <trkpt lat="45.93955" lon="4.7916">
        <ele>197</ele>
        <time>2017-07-10T10:42:44Z</time>
      </trkpt>
      <trkpt lat="45.93956" lon="4.79151">
        <ele>197</ele>
        <time>2017-07-10T10:42:45Z</time>
      </trkpt>
      <trkpt lat="45.93956" lon="4.7914">
        <ele>197</ele>
        <time>2017-07-10T10:42:46Z</time>
      </trkpt>
      <trkpt lat="45.93955" lon="4.7913">
        <ele>197</ele>
        <time>2017-07-10T10:42:47Z</time>
      </trkpt>
      <trkpt lat="45.93955" lon="4.79119">
        <ele>197</ele>
        <time>2017-07-10T10:42:48Z</time>
      </trkpt>
      <trkpt lat="45.93954" lon="4.79109">
        <ele>197</ele>
        <time>2017-07-10T10:42:49Z</time>
      </trkpt>
      <trkpt lat="45.93954" lon="4.79099">
        <ele>197</ele>
        <time>2017-07-10T10:42:50Z</time>
      </trkpt>
      <trkpt lat="45.93953" lon="4.79088">
        <ele>197</ele>
        <time>2017-07-10T10:42:51Z</time>
      </trkpt>
      <trkpt lat="45.93952" lon="4.79077">
        <ele>196</ele>
        <time>2017-07-10T10:42:52Z</time>
      </trkpt>
      <trkpt lat="45.93952" lon="4.79067">
        <ele>196</ele>
        <time>2017-07-10T10:42:53Z</time>
      </trkpt>
      <trkpt lat="45.9395" lon="4.79057">
        <ele>196</ele>
        <time>2017-07-10T10:42:54Z</time>
      </trkpt>
      <trkpt lat="45.93951" lon="4.79047">
        <ele>196</ele>
        <time>2017-07-10T10:42:55Z</time>
      </trkpt>
      <trkpt lat="45.93951" lon="4.79037">
        <ele>196</ele>
        <time>2017-07-10T10:42:56Z</time>
      </trkpt>
      <trkpt lat="45.93951" lon="4.79026">
        <ele>196</ele>
        <time>2017-07-10T10:42:57Z</time>
      </trkpt>
      <trkpt lat="45.9395" lon="4.79017">
        <ele>195</ele>
        <time>2017-07-10T10:42:58Z</time>
      </trkpt>
      <trkpt lat="45.93949" lon="4.79007">
        <ele>195</ele>
        <time>2017-07-10T10:42:59Z</time>
      </trkpt>
      <trkpt lat="45.93949" lon="4.78996">
        <ele>194</ele>
        <time>2017-07-10T10:43:00Z</time>
      </trkpt>
      <trkpt lat="45.93948" lon="4.78986">
        <ele>194</ele>
        <time>2017-07-10T10:43:01Z</time>
      </trkpt>
      <trkpt lat="45.93948" lon="4.78976">
        <ele>194</ele>
        <time>2017-07-10T10:43:02Z</time>
      </trkpt>
      <trkpt lat="45.93947" lon="4.78966">
        <ele>194</ele>
        <time>2017-07-10T10:43:03Z</time>
      </trkpt>
      <trkpt lat="45.93946" lon="4.78956">
        <ele>194</ele>
        <time>2017-07-10T10:43:04Z</time>
      </trkpt>
      <trkpt lat="45.93946" lon="4.78947">
        <ele>194</ele>
        <time>2017-07-10T10:43:05Z</time>
      </trkpt>
      <trkpt lat="45.93946" lon="4.78938">
        <ele>194</ele>
        <time>2017-07-10T10:43:06Z</time>
      </trkpt>
      <trkpt lat="45.93946" lon="4.78929">
        <ele>194</ele>
        <time>2017-07-10T10:43:07Z</time>
      </trkpt>
      <trkpt lat="45.93946" lon="4.7892">
        <ele>193</ele>
        <time>2017-07-10T10:43:08Z</time>
      </trkpt>
      <trkpt lat="45.93944" lon="4.78912">
        <ele>193</ele>
        <time>2017-07-10T10:43:09Z</time>
      </trkpt>
      <trkpt lat="45.93944" lon="4.78902">
        <ele>193</ele>
        <time>2017-07-10T10:43:10Z</time>
      </trkpt>
      <trkpt lat="45.93943" lon="4.78893">
        <ele>194</ele>
        <time>2017-07-10T10:43:11Z</time>
      </trkpt>
      <trkpt lat="45.93943" lon="4.78884">
        <ele>194</ele>
        <time>2017-07-10T10:43:12Z</time>
      </trkpt>
      <trkpt lat="45.93942" lon="4.78875">
        <ele>194</ele>
        <time>2017-07-10T10:43:13Z</time>
      </trkpt>
      <trkpt lat="45.93941" lon="4.78867">
        <ele>194</ele>
        <time>2017-07-10T10:43:14Z</time>
      </trkpt>
      <trkpt lat="45.9394" lon="4.78858">
        <ele>194</ele>
        <time>2017-07-10T10:43:15Z</time>
      </trkpt>
      <trkpt lat="45.9394" lon="4.78849">
        <ele>193</ele>
        <time>2017-07-10T10:43:16Z</time>
      </trkpt>
      <trkpt lat="45.93938" lon="4.7884">
        <ele>193</ele>
        <time>2017-07-10T10:43:17Z</time>
      </trkpt>
      <trkpt lat="45.93938" lon="4.78831">
        <ele>193</ele>
        <time>2017-07-10T10:43:18Z</time>
      </trkpt>
      <trkpt lat="45.93938" lon="4.78822">
        <ele>194</ele>
        <time>2017-07-10T10:43:19Z</time>
      </trkpt>
      <trkpt lat="45.93938" lon="4.78813">
        <ele>194</ele>
        <time>2017-07-10T10:43:20Z</time>
      </trkpt>
      <trkpt lat="45.93939" lon="4.78805">
        <ele>194</ele>
        <time>2017-07-10T10:43:21Z</time>
      </trkpt>
      <trkpt lat="45.93939" lon="4.78797">
        <ele>194</ele>
        <time>2017-07-10T10:43:22Z</time>
      </trkpt>
      <trkpt lat="45.93939" lon="4.78789">
        <ele>194</ele>
        <time>2017-07-10T10:43:23Z</time>
      </trkpt>
      <trkpt lat="45.93938" lon="4.78781">
        <ele>194</ele>
        <time>2017-07-10T10:43:24Z</time>
      </trkpt>
      <trkpt lat="45.93938" lon="4.78772">
        <ele>194</ele>
        <time>2017-07-10T10:43:25Z</time>
      </trkpt>
      <trkpt lat="45.93939" lon="4.78763">
        <ele>193</ele>
        <time>2017-07-10T10:43:26Z</time>
      </trkpt>
      <trkpt lat="45.93939" lon="4.78755">
        <ele>193</ele>
        <time>2017-07-10T10:43:27Z</time>
      </trkpt>
      <trkpt lat="45.9394" lon="4.78747">
        <ele>193</ele>
        <time>2017-07-10T10:43:28Z</time>
      </trkpt>
      <trkpt lat="45.9394" lon="4.7874">
        <ele>194</ele>
        <time>2017-07-10T10:43:29Z</time>
      </trkpt>
      <trkpt lat="45.93941" lon="4.78732">
        <ele>194</ele>
        <time>2017-07-10T10:43:30Z</time>
      </trkpt>
      <trkpt lat="45.93941" lon="4.78724">
        <ele>194</ele>
        <time>2017-07-10T10:43:31Z</time>
      </trkpt>
      <trkpt lat="45.93941" lon="4.78717">
        <ele>194</ele>
        <time>2017-07-10T10:43:32Z</time>
      </trkpt>
      <trkpt lat="45.93942" lon="4.7871">
        <ele>194</ele>
        <time>2017-07-10T10:43:33Z</time>
      </trkpt>
      <trkpt lat="45.93942" lon="4.78702">
        <ele>194</ele>
        <time>2017-07-10T10:43:34Z</time>
      </trkpt>
      <trkpt lat="45.93941" lon="4.78693">
        <ele>194</ele>
        <time>2017-07-10T10:43:35Z</time>
      </trkpt>
      <trkpt lat="45.9394" lon="4.78685">
        <ele>194</ele>
        <time>2017-07-10T10:43:36Z</time>
      </trkpt>
      <trkpt lat="45.9394" lon="4.78677">
        <ele>194</ele>
        <time>2017-07-10T10:43:37Z</time>
      </trkpt>
      <trkpt lat="45.9394" lon="4.78668">
        <ele>193</ele>
        <time>2017-07-10T10:43:38Z</time>
      </trkpt>
      <trkpt lat="45.9394" lon="4.7866">
        <ele>194</ele>
        <time>2017-07-10T10:43:39Z</time>
      </trkpt>
      <trkpt lat="45.93946" lon="4.7865">
        <ele>195</ele>
        <time>2017-07-10T10:43:40Z</time>
      </trkpt>
      <trkpt lat="45.93947" lon="4.78638">
        <ele>196</ele>
        <time>2017-07-10T10:43:41Z</time>
      </trkpt>
      <trkpt lat="45.93946" lon="4.78629">
        <ele>196</ele>
        <time>2017-07-10T10:43:42Z</time>
      </trkpt>
      <trkpt lat="45.93946" lon="4.78622">
        <ele>196</ele>
        <time>2017-07-10T10:43:43Z</time>
      </trkpt>
      <trkpt lat="45.93945" lon="4.78615">
        <ele>196</ele>
        <time>2017-07-10T10:43:44Z</time>
      </trkpt>
      <trkpt lat="45.93945" lon="4.78607">
        <ele>196</ele>
        <time>2017-07-10T10:43:45Z</time>
      </trkpt>
      <trkpt lat="45.93944" lon="4.78599">
        <ele>196</ele>
        <time>2017-07-10T10:43:46Z</time>
      </trkpt>
      <trkpt lat="45.93942" lon="4.78593">
        <ele>196</ele>
        <time>2017-07-10T10:43:47Z</time>
      </trkpt>
      <trkpt lat="45.93941" lon="4.78586">
        <ele>196</ele>
        <time>2017-07-10T10:43:48Z</time>
      </trkpt>
      <trkpt lat="45.9394" lon="4.78579">
        <ele>196</ele>
        <time>2017-07-10T10:43:49Z</time>
      </trkpt>
      <trkpt lat="45.93939" lon="4.78573">
        <ele>196</ele>
        <time>2017-07-10T10:43:50Z</time>
      </trkpt>
      <trkpt lat="45.93936" lon="4.78562">
        <ele>197</ele>
        <time>2017-07-10T10:43:52Z</time>
      </trkpt>
      <trkpt lat="45.93935" lon="4.78556">
        <ele>197</ele>
        <time>2017-07-10T10:43:53Z</time>
      </trkpt>
      <trkpt lat="45.93935" lon="4.78544">
        <ele>197</ele>
        <time>2017-07-10T10:43:55Z</time>
      </trkpt>
      <trkpt lat="45.93936" lon="4.78537">
        <ele>197</ele>
        <time>2017-07-10T10:43:56Z</time>
      </trkpt>
      <trkpt lat="45.93936" lon="4.78531">
        <ele>197</ele>
        <time>2017-07-10T10:43:57Z</time>
      </trkpt>
      <trkpt lat="45.93937" lon="4.78524">
        <ele>197</ele>
        <time>2017-07-10T10:43:58Z</time>
      </trkpt>
      <trkpt lat="45.93937" lon="4.78517">
        <ele>197</ele>
        <time>2017-07-10T10:43:59Z</time>
      </trkpt>
      <trkpt lat="45.93938" lon="4.78509">
        <ele>197</ele>
        <time>2017-07-10T10:44:00Z</time>
      </trkpt>
      <trkpt lat="45.93939" lon="4.78502">
        <ele>197</ele>
        <time>2017-07-10T10:44:01Z</time>
      </trkpt>
      <trkpt lat="45.93939" lon="4.78494">
        <ele>197</ele>
        <time>2017-07-10T10:44:02Z</time>
      </trkpt>
      <trkpt lat="45.9394" lon="4.78487">
        <ele>197</ele>
        <time>2017-07-10T10:44:03Z</time>
      </trkpt>
      <trkpt lat="45.93941" lon="4.7848">
        <ele>197</ele>
        <time>2017-07-10T10:44:04Z</time>
      </trkpt>
      <trkpt lat="45.93943" lon="4.78473">
        <ele>197</ele>
        <time>2017-07-10T10:44:05Z</time>
      </trkpt>
      <trkpt lat="45.93944" lon="4.78465">
        <ele>197</ele>
        <time>2017-07-10T10:44:06Z</time>
      </trkpt>
      <trkpt lat="45.93945" lon="4.78458">
        <ele>197</ele>
        <time>2017-07-10T10:44:07Z</time>
      </trkpt>
      <trkpt lat="45.93947" lon="4.78452">
        <ele>197</ele>
        <time>2017-07-10T10:44:08Z</time>
      </trkpt>
      <trkpt lat="45.93949" lon="4.78444">
        <ele>197</ele>
        <time>2017-07-10T10:44:09Z</time>
      </trkpt>
      <trkpt lat="45.93949" lon="4.78437">
        <ele>197</ele>
        <time>2017-07-10T10:44:10Z</time>
      </trkpt>
      <trkpt lat="45.9395" lon="4.7843">
        <ele>197</ele>
        <time>2017-07-10T10:44:11Z</time>
      </trkpt>
      <trkpt lat="45.93949" lon="4.78422">
        <ele>197</ele>
        <time>2017-07-10T10:44:12Z</time>
      </trkpt>
      <trkpt lat="45.93949" lon="4.78414">
        <ele>196</ele>
        <time>2017-07-10T10:44:13Z</time>
      </trkpt>
      <trkpt lat="45.93949" lon="4.78407">
        <ele>196</ele>
        <time>2017-07-10T10:44:14Z</time>
      </trkpt>
      <trkpt lat="45.9395" lon="4.78395">
        <ele>196</ele>
        <time>2017-07-10T10:44:16Z</time>
      </trkpt>
      <trkpt lat="45.93952" lon="4.78389">
        <ele>196</ele>
        <time>2017-07-10T10:44:17Z</time>
      </trkpt>
      <trkpt lat="45.93953" lon="4.78382">
        <ele>196</ele>
        <time>2017-07-10T10:44:18Z</time>
      </trkpt>
      <trkpt lat="45.93954" lon="4.78374">
        <ele>196</ele>
        <time>2017-07-10T10:44:19Z</time>
      </trkpt>
      <trkpt lat="45.93955" lon="4.78367">
        <ele>196</ele>
        <time>2017-07-10T10:44:20Z</time>
      </trkpt>
      <trkpt lat="45.93956" lon="4.7836">
        <ele>196</ele>
        <time>2017-07-10T10:44:21Z</time>
      </trkpt>
      <trkpt lat="45.93957" lon="4.78352">
        <ele>196</ele>
        <time>2017-07-10T10:44:22Z</time>
      </trkpt>
      <trkpt lat="45.93957" lon="4.78344">
        <ele>196</ele>
        <time>2017-07-10T10:44:23Z</time>
      </trkpt>
      <trkpt lat="45.9396" lon="4.78337">
        <ele>196</ele>
        <time>2017-07-10T10:44:24Z</time>
      </trkpt>
      <trkpt lat="45.93961" lon="4.7833">
        <ele>195</ele>
        <time>2017-07-10T10:44:25Z</time>
      </trkpt>
      <trkpt lat="45.93963" lon="4.78318">
        <ele>196</ele>
        <time>2017-07-10T10:44:27Z</time>
      </trkpt>
      <trkpt lat="45.93964" lon="4.78311">
        <ele>196</ele>
        <time>2017-07-10T10:44:28Z</time>
      </trkpt>
      <trkpt lat="45.93965" lon="4.78299">
        <ele>195</ele>
        <time>2017-07-10T10:44:30Z</time>
      </trkpt>
      <trkpt lat="45.93966" lon="4.78292">
        <ele>195</ele>
        <time>2017-07-10T10:44:31Z</time>
      </trkpt>
      <trkpt lat="45.93966" lon="4.78286">
        <ele>195</ele>
        <time>2017-07-10T10:44:32Z</time>
      </trkpt>
      <trkpt lat="45.93967" lon="4.78278">
        <ele>195</ele>
        <time>2017-07-10T10:44:33Z</time>
      </trkpt>
      <trkpt lat="45.93968" lon="4.78271">
        <ele>196</ele>
        <time>2017-07-10T10:44:34Z</time>
      </trkpt>
      <trkpt lat="45.93969" lon="4.78264">
        <ele>196</ele>
        <time>2017-07-10T10:44:35Z</time>
      </trkpt>
      <trkpt lat="45.9397" lon="4.78257">
        <ele>196</ele>
        <time>2017-07-10T10:44:36Z</time>
      </trkpt>
      <trkpt lat="45.93971" lon="4.78249">
        <ele>196</ele>
        <time>2017-07-10T10:44:37Z</time>
      </trkpt>
      <trkpt lat="45.93972" lon="4.78241">
        <ele>196</ele>
        <time>2017-07-10T10:44:38Z</time>
      </trkpt>
      <trkpt lat="45.93973" lon="4.78234">
        <ele>196</ele>
        <time>2017-07-10T10:44:39Z</time>
      </trkpt>
      <trkpt lat="45.93974" lon="4.78228">
        <ele>196</ele>
        <time>2017-07-10T10:44:40Z</time>
      </trkpt>
      <trkpt lat="45.93974" lon="4.7822">
        <ele>196</ele>
        <time>2017-07-10T10:44:41Z</time>
      </trkpt>
      <trkpt lat="45.93974" lon="4.78213">
        <ele>196</ele>
        <time>2017-07-10T10:44:42Z</time>
      </trkpt>
      <trkpt lat="45.93975" lon="4.78206">
        <ele>197</ele>
        <time>2017-07-10T10:44:43Z</time>
      </trkpt>
      <trkpt lat="45.93976" lon="4.78198">
        <ele>197</ele>
        <time>2017-07-10T10:44:44Z</time>
      </trkpt>
      <trkpt lat="45.93976" lon="4.78191">
        <ele>197</ele>
        <time>2017-07-10T10:44:45Z</time>
      </trkpt>
      <trkpt lat="45.93978" lon="4.78185">
        <ele>197</ele>
        <time>2017-07-10T10:44:46Z</time>
      </trkpt>
      <trkpt lat="45.9398" lon="4.78178">
        <ele>198</ele>
        <time>2017-07-10T10:44:47Z</time>
      </trkpt>
      <trkpt lat="45.93982" lon="4.78173">
        <ele>198</ele>
        <time>2017-07-10T10:44:48Z</time>
      </trkpt>
      <trkpt lat="45.93987" lon="4.78168">
        <ele>199</ele>
        <time>2017-07-10T10:44:49Z</time>
      </trkpt>
      <trkpt lat="45.93989" lon="4.78162">
        <ele>199</ele>
        <time>2017-07-10T10:44:50Z</time>
      </trkpt>
      <trkpt lat="45.93992" lon="4.78156">
        <ele>199</ele>
        <time>2017-07-10T10:44:51Z</time>
      </trkpt>
      <trkpt lat="45.93993" lon="4.7815">
        <ele>198</ele>
        <time>2017-07-10T10:44:52Z</time>
      </trkpt>
      <trkpt lat="45.93992" lon="4.78143">
        <ele>198</ele>
        <time>2017-07-10T10:44:53Z</time>
      </trkpt>
      <trkpt lat="45.93993" lon="4.78137">
        <ele>198</ele>
        <time>2017-07-10T10:44:54Z</time>
      </trkpt>
      <trkpt lat="45.93994" lon="4.7813">
        <ele>197</ele>
        <time>2017-07-10T10:44:55Z</time>
      </trkpt>
      <trkpt lat="45.93996" lon="4.78119">
        <ele>197</ele>
        <time>2017-07-10T10:44:57Z</time>
      </trkpt>
      <trkpt lat="45.93998" lon="4.78113">
        <ele>197</ele>
        <time>2017-07-10T10:44:58Z</time>
      </trkpt>
      <trkpt lat="45.94" lon="4.78101">
        <ele>202</ele>
        <time>2017-07-10T10:45:00Z</time>
      </trkpt>
      <trkpt lat="45.94001" lon="4.78095">
        <ele>201</ele>
        <time>2017-07-10T10:45:01Z</time>
      </trkpt>
      <trkpt lat="45.94002" lon="4.78088">
        <ele>200</ele>
        <time>2017-07-10T10:45:02Z</time>
      </trkpt>
      <trkpt lat="45.94002" lon="4.7808">
        <ele>200</ele>
        <time>2017-07-10T10:45:03Z</time>
      </trkpt>
      <trkpt lat="45.94003" lon="4.78074">
        <ele>200</ele>
        <time>2017-07-10T10:45:04Z</time>
      </trkpt>
      <trkpt lat="45.94004" lon="4.78066">
        <ele>201</ele>
        <time>2017-07-10T10:45:05Z</time>
      </trkpt>
      <trkpt lat="45.94005" lon="4.78058">
        <ele>201</ele>
        <time>2017-07-10T10:45:06Z</time>
      </trkpt>
      <trkpt lat="45.94007" lon="4.78051">
        <ele>201</ele>
        <time>2017-07-10T10:45:07Z</time>
      </trkpt>
      <trkpt lat="45.94009" lon="4.78044">
        <ele>201</ele>
        <time>2017-07-10T10:45:08Z</time>
      </trkpt>
      <trkpt lat="45.9401" lon="4.78038">
        <ele>201</ele>
        <time>2017-07-10T10:45:09Z</time>
      </trkpt>
      <trkpt lat="45.94011" lon="4.78031">
        <ele>201</ele>
        <time>2017-07-10T10:45:10Z</time>
      </trkpt>
      <trkpt lat="45.94013" lon="4.78023">
        <ele>201</ele>
        <time>2017-07-10T10:45:11Z</time>
      </trkpt>
      <trkpt lat="45.94014" lon="4.78016">
        <ele>200</ele>
        <time>2017-07-10T10:45:12Z</time>
      </trkpt>
      <trkpt lat="45.94016" lon="4.78008">
        <ele>200</ele>
        <time>2017-07-10T10:45:13Z</time>
      </trkpt>
      <trkpt lat="45.94018" lon="4.78">
        <ele>200</ele>
        <time>2017-07-10T10:45:14Z</time>
      </trkpt>
      <trkpt lat="45.94019" lon="4.77993">
        <ele>199</ele>
        <time>2017-07-10T10:45:15Z</time>
      </trkpt>
      <trkpt lat="45.94019" lon="4.77985">
        <ele>200</ele>
        <time>2017-07-10T10:45:16Z</time>
      </trkpt>
      <trkpt lat="45.94021" lon="4.77978">
        <ele>200</ele>
        <time>2017-07-10T10:45:17Z</time>
      </trkpt>
      <trkpt lat="45.94022" lon="4.77969">
        <ele>200</ele>
        <time>2017-07-10T10:45:18Z</time>
      </trkpt>
      <trkpt lat="45.94023" lon="4.77962">
        <ele>200</ele>
        <time>2017-07-10T10:45:19Z</time>
      </trkpt>
      <trkpt lat="45.94025" lon="4.77952">
        <ele>200</ele>
        <time>2017-07-10T10:45:21Z</time>
      </trkpt>
      <trkpt lat="45.94026" lon="4.77948">
        <ele>200</ele>
        <time>2017-07-10T10:45:22Z</time>
      </trkpt>
      <trkpt lat="45.94027" lon="4.7794">
        <ele>200</ele>
        <time>2017-07-10T10:45:24Z</time>
      </trkpt>
      <trkpt lat="45.94027" lon="4.77935">
        <ele>200</ele>
        <time>2017-07-10T10:45:25Z</time>
      </trkpt>
      <trkpt lat="45.94026" lon="4.77927">
        <ele>199</ele>
        <time>2017-07-10T10:45:27Z</time>
      </trkpt>
      <trkpt lat="45.94021" lon="4.77925">
        <ele>199</ele>
        <time>2017-07-10T10:45:28Z</time>
      </trkpt>
      <trkpt lat="45.94013" lon="4.77922">
        <ele>197</ele>
        <time>2017-07-10T10:45:30Z</time>
      </trkpt>
      <trkpt lat="45.94008" lon="4.77923">
        <ele>196</ele>
        <time>2017-07-10T10:45:31Z</time>
      </trkpt>
      <trkpt lat="45.94002" lon="4.77923">
        <ele>196</ele>
        <time>2017-07-10T10:45:32Z</time>
      </trkpt>
      <trkpt lat="45.93996" lon="4.77924">
        <ele>193</ele>
        <time>2017-07-10T10:45:33Z</time>
      </trkpt>
      <trkpt lat="45.9399" lon="4.77928">
        <ele>192</ele>
        <time>2017-07-10T10:45:34Z</time>
      </trkpt>
      <trkpt lat="45.93983" lon="4.77932">
        <ele>192</ele>
        <time>2017-07-10T10:45:35Z</time>
      </trkpt>
      <trkpt lat="45.93976" lon="4.77935">
        <ele>191</ele>
        <time>2017-07-10T10:45:36Z</time>
      </trkpt>
      <trkpt lat="45.93969" lon="4.7794">
        <ele>191</ele>
        <time>2017-07-10T10:45:37Z</time>
      </trkpt>
      <trkpt lat="45.93963" lon="4.77946">
        <ele>190</ele>
        <time>2017-07-10T10:45:38Z</time>
      </trkpt>
      <trkpt lat="45.93955" lon="4.77951">
        <ele>190</ele>
        <time>2017-07-10T10:45:39Z</time>
      </trkpt>
      <trkpt lat="45.93948" lon="4.77956">
        <ele>189</ele>
        <time>2017-07-10T10:45:40Z</time>
      </trkpt>
      <trkpt lat="45.9394" lon="4.77962">
        <ele>189</ele>
        <time>2017-07-10T10:45:41Z</time>
      </trkpt>
      <trkpt lat="45.93931" lon="4.77968">
        <ele>189</ele>
        <time>2017-07-10T10:45:42Z</time>
      </trkpt>
      <trkpt lat="45.93921" lon="4.77973">
        <ele>188</ele>
        <time>2017-07-10T10:45:43Z</time>
      </trkpt>
      <trkpt lat="45.93911" lon="4.77978">
        <ele>182</ele>
        <time>2017-07-10T10:45:44Z</time>
      </trkpt>
      <trkpt lat="45.93903" lon="4.77984">
        <ele>182</ele>
        <time>2017-07-10T10:45:45Z</time>
      </trkpt>
      <trkpt lat="45.93896" lon="4.77992">
        <ele>182</ele>
        <time>2017-07-10T10:45:46Z</time>
      </trkpt>
      <trkpt lat="45.9389" lon="4.77998">
        <ele>181</ele>
        <time>2017-07-10T10:45:47Z</time>
      </trkpt>
      <trkpt lat="45.93885" lon="4.78005">
        <ele>184</ele>
        <time>2017-07-10T10:45:48Z</time>
      </trkpt>
      <trkpt lat="45.93881" lon="4.7801">
        <ele>184</ele>
        <time>2017-07-10T10:45:49Z</time>
      </trkpt>
      <trkpt lat="45.93877" lon="4.78015">
        <ele>183</ele>
        <time>2017-07-10T10:45:50Z</time>
      </trkpt>
      <trkpt lat="45.93871" lon="4.78013">
        <ele>183</ele>
        <time>2017-07-10T10:45:51Z</time>
      </trkpt>
      <trkpt lat="45.93865" lon="4.78008">
        <ele>183</ele>
        <time>2017-07-10T10:45:52Z</time>
      </trkpt>
      <trkpt lat="45.93859" lon="4.78002">
        <ele>182</ele>
        <time>2017-07-10T10:45:53Z</time>
      </trkpt>
      <trkpt lat="45.93853" lon="4.77996">
        <ele>179</ele>
        <time>2017-07-10T10:45:54Z</time>
      </trkpt>
      <trkpt lat="45.93847" lon="4.77991">
        <ele>179</ele>
        <time>2017-07-10T10:45:55Z</time>
      </trkpt>
      <trkpt lat="45.93841" lon="4.77987">
        <ele>179</ele>
        <time>2017-07-10T10:45:56Z</time>
      </trkpt>
      <trkpt lat="45.93837" lon="4.77982">
        <ele>178</ele>
        <time>2017-07-10T10:45:57Z</time>
      </trkpt>
      <trkpt lat="45.93834" lon="4.77978">
        <ele>178</ele>
        <time>2017-07-10T10:45:58Z</time>
      </trkpt>
      <trkpt lat="45.9383" lon="4.77973">
        <ele>172</ele>
        <time>2017-07-10T10:45:59Z</time>
      </trkpt>
      <trkpt lat="45.93827" lon="4.77968">
        <ele>171</ele>
        <time>2017-07-10T10:46:00Z</time>
      </trkpt>
      <trkpt lat="45.93824" lon="4.77964">
        <ele>171</ele>
        <time>2017-07-10T10:46:01Z</time>
      </trkpt>
      <trkpt lat="45.9382" lon="4.7796">
        <ele>170</ele>
        <time>2017-07-10T10:46:02Z</time>
      </trkpt>
      <trkpt lat="45.93817" lon="4.77955">
        <ele>170</ele>
        <time>2017-07-10T10:46:03Z</time>
      </trkpt>
      <trkpt lat="45.93813" lon="4.77951">
        <ele>169</ele>
        <time>2017-07-10T10:46:04Z</time>
      </trkpt>
      <trkpt lat="45.9381" lon="4.77946">
        <ele>169</ele>
        <time>2017-07-10T10:46:05Z</time>
      </trkpt>
      <trkpt lat="45.93806" lon="4.77941">
        <ele>169</ele>
        <time>2017-07-10T10:46:06Z</time>
      </trkpt>
      <trkpt lat="45.93803" lon="4.77936">
        <ele>169</ele>
        <time>2017-07-10T10:46:07Z</time>
      </trkpt>
      <trkpt lat="45.93799" lon="4.77932">
        <ele>168</ele>
        <time>2017-07-10T10:46:08Z</time>
      </trkpt>
      <trkpt lat="45.93794" lon="4.77927">
        <ele>168</ele>
        <time>2017-07-10T10:46:09Z</time>
      </trkpt>
      <trkpt lat="45.93791" lon="4.77922">
        <ele>168</ele>
        <time>2017-07-10T10:46:10Z</time>
      </trkpt>
      <trkpt lat="45.93787" lon="4.77917">
        <ele>168</ele>
        <time>2017-07-10T10:46:11Z</time>
      </trkpt>
      <trkpt lat="45.93783" lon="4.77913">
        <ele>166</ele>
        <time>2017-07-10T10:46:12Z</time>
      </trkpt>
      <trkpt lat="45.93779" lon="4.77908">
        <ele>166</ele>
        <time>2017-07-10T10:46:13Z</time>
      </trkpt>
      <trkpt lat="45.93776" lon="4.77904">
        <ele>166</ele>
        <time>2017-07-10T10:46:14Z</time>
      </trkpt>
      <trkpt lat="45.93772" lon="4.779">
        <ele>166</ele>
        <time>2017-07-10T10:46:15Z</time>
      </trkpt>
      <trkpt lat="45.93769" lon="4.77895">
        <ele>166</ele>
        <time>2017-07-10T10:46:16Z</time>
      </trkpt>
      <trkpt lat="45.93765" lon="4.77891">
        <ele>166</ele>
        <time>2017-07-10T10:46:17Z</time>
      </trkpt>
      <trkpt lat="45.93762" lon="4.77886">
        <ele>166</ele>
        <time>2017-07-10T10:46:18Z</time>
      </trkpt>
      <trkpt lat="45.93757" lon="4.77877">
        <ele>166</ele>
        <time>2017-07-10T10:46:20Z</time>
      </trkpt>
      <trkpt lat="45.93754" lon="4.77873">
        <ele>166</ele>
        <time>2017-07-10T10:46:21Z</time>
      </trkpt>
      <trkpt lat="45.93749" lon="4.77864">
        <ele>167</ele>
        <time>2017-07-10T10:46:23Z</time>
      </trkpt>
      <trkpt lat="45.93745" lon="4.77859">
        <ele>167</ele>
        <time>2017-07-10T10:46:24Z</time>
      </trkpt>
      <trkpt lat="45.93742" lon="4.77855">
        <ele>167</ele>
        <time>2017-07-10T10:46:25Z</time>
      </trkpt>
      <trkpt lat="45.93738" lon="4.77851">
        <ele>167</ele>
        <time>2017-07-10T10:46:26Z</time>
      </trkpt>
      <trkpt lat="45.93731" lon="4.77843">
        <ele>167</ele>
        <time>2017-07-10T10:46:28Z</time>
      </trkpt>
      <trkpt lat="45.93728" lon="4.77838">
        <ele>167</ele>
        <time>2017-07-10T10:46:29Z</time>
      </trkpt>
      <trkpt lat="45.93724" lon="4.77834">
        <ele>167</ele>
        <time>2017-07-10T10:46:30Z</time>
      </trkpt>
      <trkpt lat="45.9372" lon="4.77829">
        <ele>168</ele>
        <time>2017-07-10T10:46:31Z</time>
      </trkpt>
      <trkpt lat="45.93717" lon="4.77825">
        <ele>169</ele>
        <time>2017-07-10T10:46:32Z</time>
      </trkpt>
      <trkpt lat="45.93713" lon="4.77819">
        <ele>169</ele>
        <time>2017-07-10T10:46:33Z</time>
      </trkpt>
      <trkpt lat="45.9371" lon="4.77814">
        <ele>169</ele>
        <time>2017-07-10T10:46:34Z</time>
      </trkpt>
      <trkpt lat="45.93706" lon="4.77809">
        <ele>169</ele>
        <time>2017-07-10T10:46:35Z</time>
      </trkpt>
      <trkpt lat="45.93702" lon="4.77804">
        <ele>169</ele>
        <time>2017-07-10T10:46:36Z</time>
      </trkpt>
      <trkpt lat="45.93698" lon="4.77799">
        <ele>169</ele>
        <time>2017-07-10T10:46:37Z</time>
      </trkpt>
      <trkpt lat="45.93693" lon="4.77793">
        <ele>169</ele>
        <time>2017-07-10T10:46:38Z</time>
      </trkpt>
      <trkpt lat="45.93689" lon="4.77788">
        <ele>170</ele>
        <time>2017-07-10T10:46:39Z</time>
      </trkpt>
      <trkpt lat="45.93684" lon="4.77782">
        <ele>170</ele>
        <time>2017-07-10T10:46:40Z</time>
      </trkpt>
      <trkpt lat="45.93679" lon="4.77775">
        <ele>170</ele>
        <time>2017-07-10T10:46:41Z</time>
      </trkpt>
      <trkpt lat="45.93675" lon="4.77769">
        <ele>170</ele>
        <time>2017-07-10T10:46:42Z</time>
      </trkpt>
      <trkpt lat="45.93671" lon="4.77762">
        <ele>170</ele>
        <time>2017-07-10T10:46:43Z</time>
      </trkpt>
      <trkpt lat="45.93666" lon="4.77755">
        <ele>171</ele>
        <time>2017-07-10T10:46:44Z</time>
      </trkpt>
      <trkpt lat="45.93662" lon="4.77747">
        <ele>171</ele>
        <time>2017-07-10T10:46:45Z</time>
      </trkpt>
      <trkpt lat="45.93657" lon="4.77739">
        <ele>170</ele>
        <time>2017-07-10T10:46:46Z</time>
      </trkpt>
      <trkpt lat="45.93652" lon="4.77731">
        <ele>170</ele>
        <time>2017-07-10T10:46:47Z</time>
      </trkpt>
      <trkpt lat="45.93648" lon="4.77723">
        <ele>170</ele>
        <time>2017-07-10T10:46:48Z</time>
      </trkpt>
      <trkpt lat="45.93643" lon="4.77714">
        <ele>170</ele>
        <time>2017-07-10T10:46:49Z</time>
      </trkpt>
      <trkpt lat="45.93638" lon="4.77705">
        <ele>170</ele>
        <time>2017-07-10T10:46:50Z</time>
      </trkpt>
      <trkpt lat="45.93633" lon="4.77696">
        <ele>169</ele>
        <time>2017-07-10T10:46:51Z</time>
      </trkpt>
      <trkpt lat="45.93629" lon="4.77687">
        <ele>169</ele>
        <time>2017-07-10T10:46:52Z</time>
      </trkpt>
      <trkpt lat="45.93625" lon="4.77677">
        <ele>169</ele>
        <time>2017-07-10T10:46:53Z</time>
      </trkpt>
      <trkpt lat="45.9362" lon="4.77668">
        <ele>169</ele>
        <time>2017-07-10T10:46:54Z</time>
      </trkpt>
      <trkpt lat="45.93616" lon="4.77659">
        <ele>169</ele>
        <time>2017-07-10T10:46:55Z</time>
      </trkpt>
      <trkpt lat="45.93612" lon="4.77649">
        <ele>169</ele>
        <time>2017-07-10T10:46:56Z</time>
      </trkpt>
      <trkpt lat="45.93608" lon="4.7764">
        <ele>169</ele>
        <time>2017-07-10T10:46:57Z</time>
      </trkpt>
      <trkpt lat="45.93604" lon="4.77631">
        <ele>169</ele>
        <time>2017-07-10T10:46:58Z</time>
      </trkpt>
      <trkpt lat="45.93601" lon="4.77621">
        <ele>170</ele>
        <time>2017-07-10T10:46:59Z</time>
      </trkpt>
      <trkpt lat="45.93599" lon="4.77612">
        <ele>170</ele>
        <time>2017-07-10T10:47:00Z</time>
      </trkpt>
      <trkpt lat="45.93596" lon="4.77603">
        <ele>170</ele>
        <time>2017-07-10T10:47:01Z</time>
      </trkpt>
      <trkpt lat="45.93593" lon="4.77595">
        <ele>170</ele>
        <time>2017-07-10T10:47:02Z</time>
      </trkpt>
      <trkpt lat="45.9359" lon="4.77586">
        <ele>170</ele>
        <time>2017-07-10T10:47:03Z</time>
      </trkpt>
      <trkpt lat="45.93588" lon="4.77578">
        <ele>170</ele>
        <time>2017-07-10T10:47:04Z</time>
      </trkpt>
      <trkpt lat="45.93585" lon="4.77569">
        <ele>170</ele>
        <time>2017-07-10T10:47:05Z</time>
      </trkpt>
      <trkpt lat="45.93583" lon="4.77561">
        <ele>169</ele>
        <time>2017-07-10T10:47:06Z</time>
      </trkpt>
      <trkpt lat="45.93581" lon="4.77553">
        <ele>169</ele>
        <time>2017-07-10T10:47:07Z</time>
      </trkpt>
      <trkpt lat="45.93579" lon="4.77545">
        <ele>169</ele>
        <time>2017-07-10T10:47:08Z</time>
      </trkpt>
      <trkpt lat="45.93577" lon="4.77537">
        <ele>169</ele>
        <time>2017-07-10T10:47:09Z</time>
      </trkpt>
      <trkpt lat="45.93575" lon="4.77529">
        <ele>169</ele>
        <time>2017-07-10T10:47:10Z</time>
      </trkpt>
      <trkpt lat="45.93573" lon="4.77521">
        <ele>169</ele>
        <time>2017-07-10T10:47:11Z</time>
      </trkpt>
      <trkpt lat="45.93571" lon="4.77513">
        <ele>169</ele>
        <time>2017-07-10T10:47:12Z</time>
      </trkpt>
      <trkpt lat="45.93569" lon="4.77504">
        <ele>169</ele>
        <time>2017-07-10T10:47:13Z</time>
      </trkpt>
      <trkpt lat="45.93567" lon="4.77496">
        <ele>169</ele>
        <time>2017-07-10T10:47:14Z</time>
      </trkpt>
      <trkpt lat="45.93565" lon="4.77487">
        <ele>169</ele>
        <time>2017-07-10T10:47:15Z</time>
      </trkpt>
      <trkpt lat="45.93563" lon="4.77478">
        <ele>169</ele>
        <time>2017-07-10T10:47:16Z</time>
      </trkpt>
      <trkpt lat="45.93561" lon="4.7747">
        <ele>169</ele>
        <time>2017-07-10T10:47:17Z</time>
      </trkpt>
      <trkpt lat="45.93559" lon="4.77461">
        <ele>169</ele>
        <time>2017-07-10T10:47:18Z</time>
      </trkpt>
      <trkpt lat="45.93557" lon="4.77453">
        <ele>169</ele>
        <time>2017-07-10T10:47:19Z</time>
      </trkpt>
      <trkpt lat="45.93556" lon="4.77445">
        <ele>169</ele>
        <time>2017-07-10T10:47:20Z</time>
      </trkpt>
      <trkpt lat="45.93554" lon="4.77438">
        <ele>169</ele>
        <time>2017-07-10T10:47:21Z</time>
      </trkpt>
      <trkpt lat="45.93552" lon="4.7743">
        <ele>170</ele>
        <time>2017-07-10T10:47:22Z</time>
      </trkpt>
      <trkpt lat="45.9355" lon="4.77422">
        <ele>170</ele>
        <time>2017-07-10T10:47:23Z</time>
      </trkpt>
      <trkpt lat="45.93548" lon="4.77414">
        <ele>170</ele>
        <time>2017-07-10T10:47:24Z</time>
      </trkpt>
      <trkpt lat="45.93546" lon="4.77406">
        <ele>170</ele>
        <time>2017-07-10T10:47:25Z</time>
      </trkpt>
      <trkpt lat="45.93544" lon="4.77397">
        <ele>170</ele>
        <time>2017-07-10T10:47:26Z</time>
      </trkpt>
      <trkpt lat="45.93542" lon="4.77389">
        <ele>170</ele>
        <time>2017-07-10T10:47:27Z</time>
      </trkpt>
      <trkpt lat="45.9354" lon="4.7738">
        <ele>170</ele>
        <time>2017-07-10T10:47:28Z</time>
      </trkpt>
      <trkpt lat="45.93539" lon="4.77372">
        <ele>170</ele>
        <time>2017-07-10T10:47:29Z</time>
      </trkpt>
      <trkpt lat="45.93537" lon="4.77364">
        <ele>170</ele>
        <time>2017-07-10T10:47:30Z</time>
      </trkpt>
      <trkpt lat="45.93535" lon="4.77356">
        <ele>170</ele>
        <time>2017-07-10T10:47:31Z</time>
      </trkpt>
      <trkpt lat="45.93534" lon="4.77348">
        <ele>170</ele>
        <time>2017-07-10T10:47:32Z</time>
      </trkpt>
      <trkpt lat="45.93532" lon="4.77339">
        <ele>170</ele>
        <time>2017-07-10T10:47:33Z</time>
      </trkpt>
      <trkpt lat="45.9353" lon="4.77331">
        <ele>170</ele>
        <time>2017-07-10T10:47:34Z</time>
      </trkpt>
      <trkpt lat="45.93529" lon="4.77323">
        <ele>170</ele>
        <time>2017-07-10T10:47:35Z</time>
      </trkpt>
      <trkpt lat="45.93527" lon="4.77316">
        <ele>170</ele>
        <time>2017-07-10T10:47:36Z</time>
      </trkpt>
      <trkpt lat="45.93526" lon="4.77309">
        <ele>170</ele>
        <time>2017-07-10T10:47:37Z</time>
      </trkpt>
      <trkpt lat="45.93524" lon="4.77301">
        <ele>170</ele>
        <time>2017-07-10T10:47:38Z</time>
      </trkpt>
      <trkpt lat="45.93523" lon="4.77294">
        <ele>170</ele>
        <time>2017-07-10T10:47:39Z</time>
      </trkpt>
      <trkpt lat="45.93521" lon="4.77287">
        <ele>170</ele>
        <time>2017-07-10T10:47:40Z</time>
      </trkpt>
      <trkpt lat="45.9352" lon="4.7728">
        <ele>170</ele>
        <time>2017-07-10T10:47:41Z</time>
      </trkpt>
      <trkpt lat="45.93518" lon="4.77273">
        <ele>170</ele>
        <time>2017-07-10T10:47:42Z</time>
      </trkpt>
      <trkpt lat="45.93516" lon="4.77265">
        <ele>170</ele>
        <time>2017-07-10T10:47:43Z</time>
      </trkpt>
      <trkpt lat="45.93514" lon="4.77258">
        <ele>170</ele>
        <time>2017-07-10T10:47:44Z</time>
      </trkpt>
      <trkpt lat="45.93513" lon="4.7725">
        <ele>170</ele>
        <time>2017-07-10T10:47:45Z</time>
      </trkpt>
      <trkpt lat="45.9351" lon="4.77243">
        <ele>169</ele>
        <time>2017-07-10T10:47:46Z</time>
      </trkpt>
      <trkpt lat="45.93509" lon="4.77236">
        <ele>169</ele>
        <time>2017-07-10T10:47:47Z</time>
      </trkpt>
      <trkpt lat="45.93507" lon="4.77228">
        <ele>169</ele>
        <time>2017-07-10T10:47:48Z</time>
      </trkpt>
      <trkpt lat="45.93506" lon="4.77221">
        <ele>169</ele>
        <time>2017-07-10T10:47:49Z</time>
      </trkpt>
      <trkpt lat="45.93505" lon="4.77214">
        <ele>169</ele>
        <time>2017-07-10T10:47:50Z</time>
      </trkpt>
      <trkpt lat="45.93503" lon="4.77207">
        <ele>169</ele>
        <time>2017-07-10T10:47:51Z</time>
      </trkpt>
      <trkpt lat="45.93502" lon="4.772">
        <ele>169</ele>
        <time>2017-07-10T10:47:52Z</time>
      </trkpt>
      <trkpt lat="45.935" lon="4.77194">
        <ele>169</ele>
        <time>2017-07-10T10:47:53Z</time>
      </trkpt>
      <trkpt lat="45.93498" lon="4.77187">
        <ele>169</ele>
        <time>2017-07-10T10:47:54Z</time>
      </trkpt>
      <trkpt lat="45.93497" lon="4.77179">
        <ele>169</ele>
        <time>2017-07-10T10:47:55Z</time>
      </trkpt>
      <trkpt lat="45.93496" lon="4.77172">
        <ele>169</ele>
        <time>2017-07-10T10:47:56Z</time>
      </trkpt>
      <trkpt lat="45.93494" lon="4.77164">
        <ele>169</ele>
        <time>2017-07-10T10:47:57Z</time>
      </trkpt>
      <trkpt lat="45.93493" lon="4.77156">
        <ele>169</ele>
        <time>2017-07-10T10:47:58Z</time>
      </trkpt>
      <trkpt lat="45.93491" lon="4.77147">
        <ele>169</ele>
        <time>2017-07-10T10:47:59Z</time>
      </trkpt>
      <trkpt lat="45.93489" lon="4.77139">
        <ele>169</ele>
        <time>2017-07-10T10:48:00Z</time>
      </trkpt>
      <trkpt lat="45.93488" lon="4.77131">
        <ele>169</ele>
        <time>2017-07-10T10:48:01Z</time>
      </trkpt>
      <trkpt lat="45.93486" lon="4.77123">
        <ele>169</ele>
        <time>2017-07-10T10:48:02Z</time>
      </trkpt>
      <trkpt lat="45.93485" lon="4.77115">
        <ele>169</ele>
        <time>2017-07-10T10:48:03Z</time>
      </trkpt>
      <trkpt lat="45.93484" lon="4.77107">
        <ele>169</ele>
        <time>2017-07-10T10:48:04Z</time>
      </trkpt>
      <trkpt lat="45.93482" lon="4.771">
        <ele>169</ele>
        <time>2017-07-10T10:48:05Z</time>
      </trkpt>
      <trkpt lat="45.9348" lon="4.77093">
        <ele>169</ele>
        <time>2017-07-10T10:48:06Z</time>
      </trkpt>
      <trkpt lat="45.93479" lon="4.77086">
        <ele>169</ele>
        <time>2017-07-10T10:48:07Z</time>
      </trkpt>
      <trkpt lat="45.93478" lon="4.77079">
        <ele>170</ele>
        <time>2017-07-10T10:48:08Z</time>
      </trkpt>
      <trkpt lat="45.93476" lon="4.77072">
        <ele>170</ele>
        <time>2017-07-10T10:48:09Z</time>
      </trkpt>
      <trkpt lat="45.93475" lon="4.77064">
        <ele>170</ele>
        <time>2017-07-10T10:48:10Z</time>
      </trkpt>
      <trkpt lat="45.93473" lon="4.77055">
        <ele>170</ele>
        <time>2017-07-10T10:48:11Z</time>
      </trkpt>
      <trkpt lat="45.93472" lon="4.77048">
        <ele>170</ele>
        <time>2017-07-10T10:48:12Z</time>
      </trkpt>
      <trkpt lat="45.9347" lon="4.7704">
        <ele>170</ele>
        <time>2017-07-10T10:48:13Z</time>
      </trkpt>
      <trkpt lat="45.93468" lon="4.77032">
        <ele>170</ele>
        <time>2017-07-10T10:48:14Z</time>
      </trkpt>
      <trkpt lat="45.93467" lon="4.77025">
        <ele>170</ele>
        <time>2017-07-10T10:48:15Z</time>
      </trkpt>
      <trkpt lat="45.93465" lon="4.77018">
        <ele>170</ele>
        <time>2017-07-10T10:48:16Z</time>
      </trkpt>
      <trkpt lat="45.93464" lon="4.7701">
        <ele>170</ele>
        <time>2017-07-10T10:48:17Z</time>
      </trkpt>
      <trkpt lat="45.93463" lon="4.77003">
        <ele>170</ele>
        <time>2017-07-10T10:48:18Z</time>
      </trkpt>
      <trkpt lat="45.93462" lon="4.76996">
        <ele>170</ele>
        <time>2017-07-10T10:48:19Z</time>
      </trkpt>
      <trkpt lat="45.93461" lon="4.76988">
        <ele>170</ele>
        <time>2017-07-10T10:48:20Z</time>
      </trkpt>
      <trkpt lat="45.9346" lon="4.7698">
        <ele>170</ele>
        <time>2017-07-10T10:48:21Z</time>
      </trkpt>
      <trkpt lat="45.93458" lon="4.76972">
        <ele>170</ele>
        <time>2017-07-10T10:48:22Z</time>
      </trkpt>
      <trkpt lat="45.93457" lon="4.76963">
        <ele>170</ele>
        <time>2017-07-10T10:48:23Z</time>
      </trkpt>
      <trkpt lat="45.93455" lon="4.76955">
        <ele>170</ele>
        <time>2017-07-10T10:48:24Z</time>
      </trkpt>
      <trkpt lat="45.93454" lon="4.76947">
        <ele>170</ele>
        <time>2017-07-10T10:48:25Z</time>
      </trkpt>
      <trkpt lat="45.93452" lon="4.7694">
        <ele>170</ele>
        <time>2017-07-10T10:48:26Z</time>
      </trkpt>
      <trkpt lat="45.93451" lon="4.76933">
        <ele>170</ele>
        <time>2017-07-10T10:48:27Z</time>
      </trkpt>
      <trkpt lat="45.9345" lon="4.76925">
        <ele>170</ele>
        <time>2017-07-10T10:48:28Z</time>
      </trkpt>
      <trkpt lat="45.93449" lon="4.76918">
        <ele>170</ele>
        <time>2017-07-10T10:48:29Z</time>
      </trkpt>
      <trkpt lat="45.93447" lon="4.7691">
        <ele>170</ele>
        <time>2017-07-10T10:48:30Z</time>
      </trkpt>
      <trkpt lat="45.93445" lon="4.76902">
        <ele>170</ele>
        <time>2017-07-10T10:48:31Z</time>
      </trkpt>
      <trkpt lat="45.93444" lon="4.76895">
        <ele>170</ele>
        <time>2017-07-10T10:48:32Z</time>
      </trkpt>
      <trkpt lat="45.93442" lon="4.76888">
        <ele>170</ele>
        <time>2017-07-10T10:48:33Z</time>
      </trkpt>
      <trkpt lat="45.93439" lon="4.76881">
        <ele>170</ele>
        <time>2017-07-10T10:48:34Z</time>
      </trkpt>
      <trkpt lat="45.93437" lon="4.76874">
        <ele>171</ele>
        <time>2017-07-10T10:48:35Z</time>
      </trkpt>
      <trkpt lat="45.93434" lon="4.76867">
        <ele>171</ele>
        <time>2017-07-10T10:48:36Z</time>
      </trkpt>
      <trkpt lat="45.93431" lon="4.76861">
        <ele>171</ele>
        <time>2017-07-10T10:48:37Z</time>
      </trkpt>
      <trkpt lat="45.93429" lon="4.76856">
        <ele>171</ele>
        <time>2017-07-10T10:48:38Z</time>
      </trkpt>
      <trkpt lat="45.93426" lon="4.7685">
        <ele>171</ele>
        <time>2017-07-10T10:48:39Z</time>
      </trkpt>
      <trkpt lat="45.93423" lon="4.76845">
        <ele>171</ele>
        <time>2017-07-10T10:48:40Z</time>
      </trkpt>
      <trkpt lat="45.93421" lon="4.7684">
        <ele>172</ele>
        <time>2017-07-10T10:48:41Z</time>
      </trkpt>
      <trkpt lat="45.93418" lon="4.76834">
        <ele>172</ele>
        <time>2017-07-10T10:48:42Z</time>
      </trkpt>
      <trkpt lat="45.93415" lon="4.76829">
        <ele>172</ele>
        <time>2017-07-10T10:48:43Z</time>
      </trkpt>
      <trkpt lat="45.93411" lon="4.76824">
        <ele>172</ele>
        <time>2017-07-10T10:48:44Z</time>
      </trkpt>
      <trkpt lat="45.93408" lon="4.76818">
        <ele>172</ele>
        <time>2017-07-10T10:48:45Z</time>
      </trkpt>
      <trkpt lat="45.93404" lon="4.76812">
        <ele>172</ele>
        <time>2017-07-10T10:48:46Z</time>
      </trkpt>
      <trkpt lat="45.934" lon="4.76807">
        <ele>172</ele>
        <time>2017-07-10T10:48:47Z</time>
      </trkpt>
      <trkpt lat="45.93397" lon="4.76802">
        <ele>172</ele>
        <time>2017-07-10T10:48:48Z</time>
      </trkpt>
      <trkpt lat="45.93393" lon="4.76797">
        <ele>172</ele>
        <time>2017-07-10T10:48:49Z</time>
      </trkpt>
      <trkpt lat="45.93389" lon="4.76792">
        <ele>172</ele>
        <time>2017-07-10T10:48:50Z</time>
      </trkpt>
      <trkpt lat="45.93385" lon="4.76787">
        <ele>172</ele>
        <time>2017-07-10T10:48:51Z</time>
      </trkpt>
      <trkpt lat="45.93381" lon="4.76783">
        <ele>172</ele>
        <time>2017-07-10T10:48:52Z</time>
      </trkpt>
      <trkpt lat="45.93377" lon="4.76779">
        <ele>172</ele>
        <time>2017-07-10T10:48:53Z</time>
      </trkpt>
      <trkpt lat="45.93373" lon="4.76774">
        <ele>172</ele>
        <time>2017-07-10T10:48:54Z</time>
      </trkpt>
      <trkpt lat="45.93369" lon="4.7677">
        <ele>172</ele>
        <time>2017-07-10T10:48:55Z</time>
      </trkpt>
      <trkpt lat="45.93364" lon="4.76765">
        <ele>172</ele>
        <time>2017-07-10T10:48:56Z</time>
      </trkpt>
      <trkpt lat="45.93359" lon="4.7676">
        <ele>172</ele>
        <time>2017-07-10T10:48:57Z</time>
      </trkpt>
      <trkpt lat="45.93354" lon="4.76755">
        <ele>172</ele>
        <time>2017-07-10T10:48:58Z</time>
      </trkpt>
      <trkpt lat="45.93349" lon="4.7675">
        <ele>173</ele>
        <time>2017-07-10T10:48:59Z</time>
      </trkpt>
      <trkpt lat="45.93344" lon="4.76745">
        <ele>173</ele>
        <time>2017-07-10T10:49:00Z</time>
      </trkpt>
      <trkpt lat="45.93339" lon="4.76741">
        <ele>173</ele>
        <time>2017-07-10T10:49:01Z</time>
      </trkpt>
      <trkpt lat="45.93334" lon="4.76737">
        <ele>172</ele>
        <time>2017-07-10T10:49:02Z</time>
      </trkpt>
      <trkpt lat="45.9333" lon="4.76732">
        <ele>172</ele>
        <time>2017-07-10T10:49:03Z</time>
      </trkpt>
      <trkpt lat="45.93326" lon="4.76728">
        <ele>172</ele>
        <time>2017-07-10T10:49:04Z</time>
      </trkpt>
      <trkpt lat="45.93321" lon="4.76724">
        <ele>172</ele>
        <time>2017-07-10T10:49:05Z</time>
      </trkpt>
      <trkpt lat="45.93317" lon="4.76721">
        <ele>172</ele>
        <time>2017-07-10T10:49:06Z</time>
      </trkpt>
      <trkpt lat="45.93313" lon="4.76717">
        <ele>172</ele>
        <time>2017-07-10T10:49:07Z</time>
      </trkpt>
      <trkpt lat="45.93309" lon="4.76713">
        <ele>172</ele>
        <time>2017-07-10T10:49:08Z</time>
      </trkpt>
      <trkpt lat="45.93305" lon="4.76709">
        <ele>172</ele>
        <time>2017-07-10T10:49:09Z</time>
      </trkpt>
      <trkpt lat="45.93301" lon="4.76704">
        <ele>172</ele>
        <time>2017-07-10T10:49:10Z</time>
      </trkpt>
      <trkpt lat="45.93298" lon="4.767">
        <ele>172</ele>
        <time>2017-07-10T10:49:11Z</time>
      </trkpt>
      <trkpt lat="45.93294" lon="4.76695">
        <ele>172</ele>
        <time>2017-07-10T10:49:12Z</time>
      </trkpt>
      <trkpt lat="45.9329" lon="4.76691">
        <ele>172</ele>
        <time>2017-07-10T10:49:13Z</time>
      </trkpt>
      <trkpt lat="45.93285" lon="4.76687">
        <ele>172</ele>
        <time>2017-07-10T10:49:14Z</time>
      </trkpt>
      <trkpt lat="45.93281" lon="4.76682">
        <ele>172</ele>
        <time>2017-07-10T10:49:15Z</time>
      </trkpt>
      <trkpt lat="45.93277" lon="4.76678">
        <ele>172</ele>
        <time>2017-07-10T10:49:16Z</time>
      </trkpt>
      <trkpt lat="45.93273" lon="4.76674">
        <ele>172</ele>
        <time>2017-07-10T10:49:17Z</time>
      </trkpt>
      <trkpt lat="45.93269" lon="4.76669">
        <ele>172</ele>
        <time>2017-07-10T10:49:18Z</time>
      </trkpt>
      <trkpt lat="45.93265" lon="4.76665">
        <ele>171</ele>
        <time>2017-07-10T10:49:19Z</time>
      </trkpt>
      <trkpt lat="45.93261" lon="4.76661">
        <ele>171</ele>
        <time>2017-07-10T10:49:20Z</time>
      </trkpt>
      <trkpt lat="45.93258" lon="4.76657">
        <ele>171</ele>
        <time>2017-07-10T10:49:21Z</time>
      </trkpt>
      <trkpt lat="45.9325" lon="4.7665">
        <ele>171</ele>
        <time>2017-07-10T10:49:23Z</time>
      </trkpt>
      <trkpt lat="45.93247" lon="4.76646">
        <ele>171</ele>
        <time>2017-07-10T10:49:24Z</time>
      </trkpt>
      <trkpt lat="45.93243" lon="4.76642">
        <ele>171</ele>
        <time>2017-07-10T10:49:25Z</time>
      </trkpt>
      <trkpt lat="45.93239" lon="4.76636">
        <ele>171</ele>
        <time>2017-07-10T10:49:26Z</time>
      </trkpt>
      <trkpt lat="45.93235" lon="4.7663">
        <ele>170</ele>
        <time>2017-07-10T10:49:27Z</time>
      </trkpt>
      <trkpt lat="45.93229" lon="4.76625">
        <ele>170</ele>
        <time>2017-07-10T10:49:28Z</time>
      </trkpt>
      <trkpt lat="45.93224" lon="4.7662">
        <ele>170</ele>
        <time>2017-07-10T10:49:29Z</time>
      </trkpt>
      <trkpt lat="45.9322" lon="4.76615">
        <ele>170</ele>
        <time>2017-07-10T10:49:30Z</time>
      </trkpt>
      <trkpt lat="45.93214" lon="4.76611">
        <ele>170</ele>
        <time>2017-07-10T10:49:31Z</time>
      </trkpt>
      <trkpt lat="45.93209" lon="4.76606">
        <ele>170</ele>
        <time>2017-07-10T10:49:32Z</time>
      </trkpt>
      <trkpt lat="45.93204" lon="4.76601">
        <ele>170</ele>
        <time>2017-07-10T10:49:33Z</time>
      </trkpt>
      <trkpt lat="45.932" lon="4.76597">
        <ele>170</ele>
        <time>2017-07-10T10:49:34Z</time>
      </trkpt>
      <trkpt lat="45.93196" lon="4.76593">
        <ele>170</ele>
        <time>2017-07-10T10:49:35Z</time>
      </trkpt>
      <trkpt lat="45.93191" lon="4.76589">
        <ele>170</ele>
        <time>2017-07-10T10:49:36Z</time>
      </trkpt>
      <trkpt lat="45.93187" lon="4.76585">
        <ele>171</ele>
        <time>2017-07-10T10:49:37Z</time>
      </trkpt>
      <trkpt lat="45.93183" lon="4.76582">
        <ele>170</ele>
        <time>2017-07-10T10:49:38Z</time>
      </trkpt>
      <trkpt lat="45.93179" lon="4.76578">
        <ele>170</ele>
        <time>2017-07-10T10:49:39Z</time>
      </trkpt>
      <trkpt lat="45.93173" lon="4.76574">
        <ele>170</ele>
        <time>2017-07-10T10:49:40Z</time>
      </trkpt>
      <trkpt lat="45.93169" lon="4.76569">
        <ele>170</ele>
        <time>2017-07-10T10:49:41Z</time>
      </trkpt>
      <trkpt lat="45.93165" lon="4.76564">
        <ele>170</ele>
        <time>2017-07-10T10:49:42Z</time>
      </trkpt>
      <trkpt lat="45.93161" lon="4.7656">
        <ele>170</ele>
        <time>2017-07-10T10:49:43Z</time>
      </trkpt>
      <trkpt lat="45.93157" lon="4.76556">
        <ele>170</ele>
        <time>2017-07-10T10:49:44Z</time>
      </trkpt>
      <trkpt lat="45.93153" lon="4.76551">
        <ele>170</ele>
        <time>2017-07-10T10:49:45Z</time>
      </trkpt>
      <trkpt lat="45.93149" lon="4.76547">
        <ele>170</ele>
        <time>2017-07-10T10:49:46Z</time>
      </trkpt>
      <trkpt lat="45.93145" lon="4.76543">
        <ele>170</ele>
        <time>2017-07-10T10:49:47Z</time>
      </trkpt>
      <trkpt lat="45.93141" lon="4.7654">
        <ele>170</ele>
        <time>2017-07-10T10:49:48Z</time>
      </trkpt>
      <trkpt lat="45.93137" lon="4.76535">
        <ele>170</ele>
        <time>2017-07-10T10:49:49Z</time>
      </trkpt>
      <trkpt lat="45.93132" lon="4.76531">
        <ele>170</ele>
        <time>2017-07-10T10:49:50Z</time>
      </trkpt>
      <trkpt lat="45.93129" lon="4.76527">
        <ele>170</ele>
        <time>2017-07-10T10:49:51Z</time>
      </trkpt>
      <trkpt lat="45.93125" lon="4.76523">
        <ele>170</ele>
        <time>2017-07-10T10:49:52Z</time>
      </trkpt>
      <trkpt lat="45.9312" lon="4.76518">
        <ele>170</ele>
        <time>2017-07-10T10:49:53Z</time>
      </trkpt>
      <trkpt lat="45.93116" lon="4.76512">
        <ele>170</ele>
        <time>2017-07-10T10:49:54Z</time>
      </trkpt>
      <trkpt lat="45.93111" lon="4.76506">
        <ele>170</ele>
        <time>2017-07-10T10:49:55Z</time>
      </trkpt>
      <trkpt lat="45.93106" lon="4.76501">
        <ele>170</ele>
        <time>2017-07-10T10:49:56Z</time>
      </trkpt>
      <trkpt lat="45.93101" lon="4.76496">
        <ele>169</ele>
        <time>2017-07-10T10:49:57Z</time>
      </trkpt>
      <trkpt lat="45.93096" lon="4.76492">
        <ele>170</ele>
        <time>2017-07-10T10:49:58Z</time>
      </trkpt>
      <trkpt lat="45.93091" lon="4.76488">
        <ele>170</ele>
        <time>2017-07-10T10:49:59Z</time>
      </trkpt>
      <trkpt lat="45.93086" lon="4.76483">
        <ele>170</ele>
        <time>2017-07-10T10:50:00Z</time>
      </trkpt>
      <trkpt lat="45.93081" lon="4.76479">
        <ele>169</ele>
        <time>2017-07-10T10:50:01Z</time>
      </trkpt>
      <trkpt lat="45.93076" lon="4.76475">
        <ele>169</ele>
        <time>2017-07-10T10:50:02Z</time>
      </trkpt>
      <trkpt lat="45.93071" lon="4.7647">
        <ele>169</ele>
        <time>2017-07-10T10:50:03Z</time>
      </trkpt>
      <trkpt lat="45.93067" lon="4.76466">
        <ele>169</ele>
        <time>2017-07-10T10:50:04Z</time>
      </trkpt>
      <trkpt lat="45.93064" lon="4.76462">
        <ele>169</ele>
        <time>2017-07-10T10:50:05Z</time>
      </trkpt>
      <trkpt lat="45.9306" lon="4.76458">
        <ele>169</ele>
        <time>2017-07-10T10:50:06Z</time>
      </trkpt>
      <trkpt lat="45.93056" lon="4.76454">
        <ele>169</ele>
        <time>2017-07-10T10:50:07Z</time>
      </trkpt>
      <trkpt lat="45.93051" lon="4.76449">
        <ele>169</ele>
        <time>2017-07-10T10:50:08Z</time>
      </trkpt>
      <trkpt lat="45.93046" lon="4.76444">
        <ele>169</ele>
        <time>2017-07-10T10:50:09Z</time>
      </trkpt>
      <trkpt lat="45.93041" lon="4.76439">
        <ele>169</ele>
        <time>2017-07-10T10:50:10Z</time>
      </trkpt>
      <trkpt lat="45.93037" lon="4.76435">
        <ele>169</ele>
        <time>2017-07-10T10:50:11Z</time>
      </trkpt>
      <trkpt lat="45.93032" lon="4.7643">
        <ele>169</ele>
        <time>2017-07-10T10:50:12Z</time>
      </trkpt>
      <trkpt lat="45.93027" lon="4.76426">
        <ele>169</ele>
        <time>2017-07-10T10:50:13Z</time>
      </trkpt>
      <trkpt lat="45.93023" lon="4.76421">
        <ele>169</ele>
        <time>2017-07-10T10:50:14Z</time>
      </trkpt>
      <trkpt lat="45.93019" lon="4.76416">
        <ele>169</ele>
        <time>2017-07-10T10:50:15Z</time>
      </trkpt>
      <trkpt lat="45.93014" lon="4.76412">
        <ele>169</ele>
        <time>2017-07-10T10:50:16Z</time>
      </trkpt>
      <trkpt lat="45.9301" lon="4.76408">
        <ele>169</ele>
        <time>2017-07-10T10:50:17Z</time>
      </trkpt>
      <trkpt lat="45.93006" lon="4.76403">
        <ele>169</ele>
        <time>2017-07-10T10:50:18Z</time>
      </trkpt>
      <trkpt lat="45.93002" lon="4.76399">
        <ele>169</ele>
        <time>2017-07-10T10:50:19Z</time>
      </trkpt>
      <trkpt lat="45.92997" lon="4.76395">
        <ele>169</ele>
        <time>2017-07-10T10:50:20Z</time>
      </trkpt>
      <trkpt lat="45.92992" lon="4.76391">
        <ele>169</ele>
        <time>2017-07-10T10:50:21Z</time>
      </trkpt>
      <trkpt lat="45.92987" lon="4.76386">
        <ele>169</ele>
        <time>2017-07-10T10:50:22Z</time>
      </trkpt>
      <trkpt lat="45.92983" lon="4.76382">
        <ele>169</ele>
        <time>2017-07-10T10:50:23Z</time>
      </trkpt>
      <trkpt lat="45.92978" lon="4.76378">
        <ele>169</ele>
        <time>2017-07-10T10:50:24Z</time>
      </trkpt>
      <trkpt lat="45.92974" lon="4.76374">
        <ele>169</ele>
        <time>2017-07-10T10:50:25Z</time>
      </trkpt>
      <trkpt lat="45.9297" lon="4.7637">
        <ele>169</ele>
        <time>2017-07-10T10:50:26Z</time>
      </trkpt>
      <trkpt lat="45.92966" lon="4.76365">
        <ele>169</ele>
        <time>2017-07-10T10:50:27Z</time>
      </trkpt>
      <trkpt lat="45.92962" lon="4.76361">
        <ele>169</ele>
        <time>2017-07-10T10:50:28Z</time>
      </trkpt>
      <trkpt lat="45.92957" lon="4.76357">
        <ele>169</ele>
        <time>2017-07-10T10:50:29Z</time>
      </trkpt>
      <trkpt lat="45.92953" lon="4.76353">
        <ele>169</ele>
        <time>2017-07-10T10:50:30Z</time>
      </trkpt>
      <trkpt lat="45.9295" lon="4.76348">
        <ele>169</ele>
        <time>2017-07-10T10:50:31Z</time>
      </trkpt>
      <trkpt lat="45.92946" lon="4.76344">
        <ele>169</ele>
        <time>2017-07-10T10:50:32Z</time>
      </trkpt>
      <trkpt lat="45.92942" lon="4.7634">
        <ele>169</ele>
        <time>2017-07-10T10:50:33Z</time>
      </trkpt>
      <trkpt lat="45.92937" lon="4.76337">
        <ele>169</ele>
        <time>2017-07-10T10:50:34Z</time>
      </trkpt>
      <trkpt lat="45.92932" lon="4.76333">
        <ele>169</ele>
        <time>2017-07-10T10:50:35Z</time>
      </trkpt>
      <trkpt lat="45.92928" lon="4.76329">
        <ele>169</ele>
        <time>2017-07-10T10:50:36Z</time>
      </trkpt>
      <trkpt lat="45.92923" lon="4.76324">
        <ele>169</ele>
        <time>2017-07-10T10:50:37Z</time>
      </trkpt>
      <trkpt lat="45.92918" lon="4.7632">
        <ele>169</ele>
        <time>2017-07-10T10:50:38Z</time>
      </trkpt>
      <trkpt lat="45.92913" lon="4.76315">
        <ele>169</ele>
        <time>2017-07-10T10:50:39Z</time>
      </trkpt>
      <trkpt lat="45.92909" lon="4.76309">
        <ele>169</ele>
        <time>2017-07-10T10:50:40Z</time>
      </trkpt>
      <trkpt lat="45.92904" lon="4.76304">
        <ele>169</ele>
        <time>2017-07-10T10:50:41Z</time>
      </trkpt>
      <trkpt lat="45.92901" lon="4.763">
        <ele>169</ele>
        <time>2017-07-10T10:50:42Z</time>
      </trkpt>
      <trkpt lat="45.92896" lon="4.76295">
        <ele>169</ele>
        <time>2017-07-10T10:50:43Z</time>
      </trkpt>
      <trkpt lat="45.92892" lon="4.76291">
        <ele>169</ele>
        <time>2017-07-10T10:50:44Z</time>
      </trkpt>
      <trkpt lat="45.92888" lon="4.76287">
        <ele>169</ele>
        <time>2017-07-10T10:50:45Z</time>
      </trkpt>
      <trkpt lat="45.92884" lon="4.76283">
        <ele>169</ele>
        <time>2017-07-10T10:50:46Z</time>
      </trkpt>
      <trkpt lat="45.9288" lon="4.76279">
        <ele>169</ele>
        <time>2017-07-10T10:50:47Z</time>
      </trkpt>
      <trkpt lat="45.92876" lon="4.76274">
        <ele>169</ele>
        <time>2017-07-10T10:50:48Z</time>
      </trkpt>
      <trkpt lat="45.92872" lon="4.7627">
        <ele>169</ele>
        <time>2017-07-10T10:50:49Z</time>
      </trkpt>
      <trkpt lat="45.92868" lon="4.76266">
        <ele>169</ele>
        <time>2017-07-10T10:50:50Z</time>
      </trkpt>
      <trkpt lat="45.92864" lon="4.76263">
        <ele>169</ele>
        <time>2017-07-10T10:50:51Z</time>
      </trkpt>
      <trkpt lat="45.9286" lon="4.76259">
        <ele>169</ele>
        <time>2017-07-10T10:50:52Z</time>
      </trkpt>
      <trkpt lat="45.92853" lon="4.76251">
        <ele>169</ele>
        <time>2017-07-10T10:50:54Z</time>
      </trkpt>
      <trkpt lat="45.92849" lon="4.76246">
        <ele>169</ele>
        <time>2017-07-10T10:50:55Z</time>
      </trkpt>
      <trkpt lat="45.92845" lon="4.76242">
        <ele>169</ele>
        <time>2017-07-10T10:50:56Z</time>
      </trkpt>
      <trkpt lat="45.9284" lon="4.76238">
        <ele>169</ele>
        <time>2017-07-10T10:50:57Z</time>
      </trkpt>
      <trkpt lat="45.92835" lon="4.76234">
        <ele>169</ele>
        <time>2017-07-10T10:50:58Z</time>
      </trkpt>
      <trkpt lat="45.9283" lon="4.76228">
        <ele>168</ele>
        <time>2017-07-10T10:50:59Z</time>
      </trkpt>
      <trkpt lat="45.92824" lon="4.76223">
        <ele>168</ele>
        <time>2017-07-10T10:51:00Z</time>
      </trkpt>
      <trkpt lat="45.92819" lon="4.76218">
        <ele>168</ele>
        <time>2017-07-10T10:51:01Z</time>
      </trkpt>
      <trkpt lat="45.92814" lon="4.76213">
        <ele>168</ele>
        <time>2017-07-10T10:51:02Z</time>
      </trkpt>
      <trkpt lat="45.9281" lon="4.76209">
        <ele>168</ele>
        <time>2017-07-10T10:51:03Z</time>
      </trkpt>
      <trkpt lat="45.92806" lon="4.76204">
        <ele>168</ele>
        <time>2017-07-10T10:51:04Z</time>
      </trkpt>
      <trkpt lat="45.92801" lon="4.762">
        <ele>168</ele>
        <time>2017-07-10T10:51:05Z</time>
      </trkpt>
      <trkpt lat="45.92797" lon="4.76196">
        <ele>168</ele>
        <time>2017-07-10T10:51:06Z</time>
      </trkpt>
      <trkpt lat="45.92793" lon="4.76191">
        <ele>168</ele>
        <time>2017-07-10T10:51:07Z</time>
      </trkpt>
      <trkpt lat="45.92786" lon="4.76185">
        <ele>168</ele>
        <time>2017-07-10T10:51:09Z</time>
      </trkpt>
      <trkpt lat="45.92783" lon="4.76182">
        <ele>168</ele>
        <time>2017-07-10T10:51:10Z</time>
      </trkpt>
      <trkpt lat="45.92779" lon="4.76179">
        <ele>167</ele>
        <time>2017-07-10T10:51:11Z</time>
      </trkpt>
      <trkpt lat="45.92775" lon="4.76175">
        <ele>167</ele>
        <time>2017-07-10T10:51:12Z</time>
      </trkpt>
      <trkpt lat="45.9277" lon="4.76172">
        <ele>167</ele>
        <time>2017-07-10T10:51:13Z</time>
      </trkpt>
      <trkpt lat="45.92766" lon="4.76168">
        <ele>167</ele>
        <time>2017-07-10T10:51:14Z</time>
      </trkpt>
      <trkpt lat="45.92761" lon="4.76164">
        <ele>167</ele>
        <time>2017-07-10T10:51:15Z</time>
      </trkpt>
      <trkpt lat="45.92757" lon="4.7616">
        <ele>167</ele>
        <time>2017-07-10T10:51:16Z</time>
      </trkpt>
      <trkpt lat="45.92751" lon="4.76156">
        <ele>167</ele>
        <time>2017-07-10T10:51:17Z</time>
      </trkpt>
      <trkpt lat="45.92746" lon="4.76152">
        <ele>168</ele>
        <time>2017-07-10T10:51:18Z</time>
      </trkpt>
      <trkpt lat="45.92741" lon="4.76148">
        <ele>168</ele>
        <time>2017-07-10T10:51:19Z</time>
      </trkpt>
      <trkpt lat="45.92736" lon="4.76145">
        <ele>168</ele>
        <time>2017-07-10T10:51:20Z</time>
      </trkpt>
      <trkpt lat="45.92732" lon="4.76141">
        <ele>168</ele>
        <time>2017-07-10T10:51:21Z</time>
      </trkpt>
      <trkpt lat="45.92727" lon="4.76138">
        <ele>168</ele>
        <time>2017-07-10T10:51:22Z</time>
      </trkpt>
      <trkpt lat="45.92723" lon="4.76134">
        <ele>168</ele>
        <time>2017-07-10T10:51:23Z</time>
      </trkpt>
      <trkpt lat="45.92718" lon="4.76131">
        <ele>168</ele>
        <time>2017-07-10T10:51:24Z</time>
      </trkpt>
      <trkpt lat="45.92714" lon="4.76128">
        <ele>168</ele>
        <time>2017-07-10T10:51:25Z</time>
      </trkpt>
      <trkpt lat="45.92709" lon="4.76125">
        <ele>168</ele>
        <time>2017-07-10T10:51:26Z</time>
      </trkpt>
      <trkpt lat="45.92705" lon="4.76122">
        <ele>169</ele>
        <time>2017-07-10T10:51:27Z</time>
      </trkpt>
      <trkpt lat="45.927" lon="4.76118">
        <ele>169</ele>
        <time>2017-07-10T10:51:28Z</time>
      </trkpt>
      <trkpt lat="45.92696" lon="4.76115">
        <ele>169</ele>
        <time>2017-07-10T10:51:29Z</time>
      </trkpt>
      <trkpt lat="45.92689" lon="4.76112">
        <ele>169</ele>
        <time>2017-07-10T10:51:30Z</time>
      </trkpt>
      <trkpt lat="45.92685" lon="4.76108">
        <ele>169</ele>
        <time>2017-07-10T10:51:31Z</time>
      </trkpt>
      <trkpt lat="45.92681" lon="4.76104">
        <ele>169</ele>
        <time>2017-07-10T10:51:32Z</time>
      </trkpt>
      <trkpt lat="45.92676" lon="4.761">
        <ele>169</ele>
        <time>2017-07-10T10:51:33Z</time>
      </trkpt>
      <trkpt lat="45.92671" lon="4.76097">
        <ele>169</ele>
        <time>2017-07-10T10:51:34Z</time>
      </trkpt>
      <trkpt lat="45.92666" lon="4.76093">
        <ele>170</ele>
        <time>2017-07-10T10:51:35Z</time>
      </trkpt>
      <trkpt lat="45.92661" lon="4.76088">
        <ele>170</ele>
        <time>2017-07-10T10:51:36Z</time>
      </trkpt>
      <trkpt lat="45.92655" lon="4.76084">
        <ele>170</ele>
        <time>2017-07-10T10:51:37Z</time>
      </trkpt>
      <trkpt lat="45.9265" lon="4.76079">
        <ele>170</ele>
        <time>2017-07-10T10:51:38Z</time>
      </trkpt>
      <trkpt lat="45.92645" lon="4.76075">
        <ele>170</ele>
        <time>2017-07-10T10:51:39Z</time>
      </trkpt>
      <trkpt lat="45.9264" lon="4.7607">
        <ele>170</ele>
        <time>2017-07-10T10:51:40Z</time>
      </trkpt>
      <trkpt lat="45.92635" lon="4.76066">
        <ele>170</ele>
        <time>2017-07-10T10:51:41Z</time>
      </trkpt>
      <trkpt lat="45.9263" lon="4.76063">
        <ele>170</ele>
        <time>2017-07-10T10:51:42Z</time>
      </trkpt>
      <trkpt lat="45.92625" lon="4.7606">
        <ele>171</ele>
        <time>2017-07-10T10:51:43Z</time>
      </trkpt>
      <trkpt lat="45.9262" lon="4.76056">
        <ele>171</ele>
        <time>2017-07-10T10:51:44Z</time>
      </trkpt>
      <trkpt lat="45.92615" lon="4.76052">
        <ele>171</ele>
        <time>2017-07-10T10:51:45Z</time>
      </trkpt>
      <trkpt lat="45.9261" lon="4.76048">
        <ele>171</ele>
        <time>2017-07-10T10:51:46Z</time>
      </trkpt>
      <trkpt lat="45.92606" lon="4.76045">
        <ele>171</ele>
        <time>2017-07-10T10:51:47Z</time>
      </trkpt>
      <trkpt lat="45.92601" lon="4.76043">
        <ele>171</ele>
        <time>2017-07-10T10:51:48Z</time>
      </trkpt>
      <trkpt lat="45.92594" lon="4.76038">
        <ele>171</ele>
        <time>2017-07-10T10:51:50Z</time>
      </trkpt>
      <trkpt lat="45.9259" lon="4.76035">
        <ele>171</ele>
        <time>2017-07-10T10:51:51Z</time>
      </trkpt>
      <trkpt lat="45.92583" lon="4.76028">
        <ele>172</ele>
        <time>2017-07-10T10:51:53Z</time>
      </trkpt>
      <trkpt lat="45.92579" lon="4.76026">
        <ele>172</ele>
        <time>2017-07-10T10:51:54Z</time>
      </trkpt>
      <trkpt lat="45.9257" lon="4.76022">
        <ele>172</ele>
        <time>2017-07-10T10:51:56Z</time>
      </trkpt>
      <trkpt lat="45.92566" lon="4.76019">
        <ele>172</ele>
        <time>2017-07-10T10:51:57Z</time>
      </trkpt>
      <trkpt lat="45.9256" lon="4.76014">
        <ele>172</ele>
        <time>2017-07-10T10:51:59Z</time>
      </trkpt>
      <trkpt lat="45.92556" lon="4.76012">
        <ele>172</ele>
        <time>2017-07-10T10:52:00Z</time>
      </trkpt>
      <trkpt lat="45.92552" lon="4.76009">
        <ele>172</ele>
        <time>2017-07-10T10:52:01Z</time>
      </trkpt>
      <trkpt lat="45.92548" lon="4.76006">
        <ele>172</ele>
        <time>2017-07-10T10:52:02Z</time>
      </trkpt>
      <trkpt lat="45.9254" lon="4.76001">
        <ele>172</ele>
        <time>2017-07-10T10:52:04Z</time>
      </trkpt>
      <trkpt lat="45.92536" lon="4.75998">
        <ele>172</ele>
        <time>2017-07-10T10:52:05Z</time>
      </trkpt>
      <trkpt lat="45.92528" lon="4.75993">
        <ele>172</ele>
        <time>2017-07-10T10:52:07Z</time>
      </trkpt>
      <trkpt lat="45.92525" lon="4.7599">
        <ele>172</ele>
        <time>2017-07-10T10:52:08Z</time>
      </trkpt>
      <trkpt lat="45.92517" lon="4.75985">
        <ele>172</ele>
        <time>2017-07-10T10:52:10Z</time>
      </trkpt>
      <trkpt lat="45.92513" lon="4.75982">
        <ele>172</ele>
        <time>2017-07-10T10:52:11Z</time>
      </trkpt>
      <trkpt lat="45.92509" lon="4.75979">
        <ele>172</ele>
        <time>2017-07-10T10:52:12Z</time>
      </trkpt>
      <trkpt lat="45.92504" lon="4.75976">
        <ele>172</ele>
        <time>2017-07-10T10:52:13Z</time>
      </trkpt>
      <trkpt lat="45.92499" lon="4.75973">
        <ele>172</ele>
        <time>2017-07-10T10:52:14Z</time>
      </trkpt>
      <trkpt lat="45.92495" lon="4.7597">
        <ele>172</ele>
        <time>2017-07-10T10:52:15Z</time>
      </trkpt>
      <trkpt lat="45.9249" lon="4.75967">
        <ele>172</ele>
        <time>2017-07-10T10:52:16Z</time>
      </trkpt>
      <trkpt lat="45.92486" lon="4.75964">
        <ele>172</ele>
        <time>2017-07-10T10:52:17Z</time>
      </trkpt>
      <trkpt lat="45.92481" lon="4.75961">
        <ele>172</ele>
        <time>2017-07-10T10:52:18Z</time>
      </trkpt>
      <trkpt lat="45.92476" lon="4.75958">
        <ele>172</ele>
        <time>2017-07-10T10:52:19Z</time>
      </trkpt>
      <trkpt lat="45.92472" lon="4.75955">
        <ele>172</ele>
        <time>2017-07-10T10:52:20Z</time>
      </trkpt>
      <trkpt lat="45.92467" lon="4.75952">
        <ele>172</ele>
        <time>2017-07-10T10:52:21Z</time>
      </trkpt>
      <trkpt lat="45.92463" lon="4.75949">
        <ele>172</ele>
        <time>2017-07-10T10:52:22Z</time>
      </trkpt>
      <trkpt lat="45.92458" lon="4.75946">
        <ele>172</ele>
        <time>2017-07-10T10:52:23Z</time>
      </trkpt>
      <trkpt lat="45.92453" lon="4.75943">
        <ele>172</ele>
        <time>2017-07-10T10:52:24Z</time>
      </trkpt>
      <trkpt lat="45.92449" lon="4.7594">
        <ele>172</ele>
        <time>2017-07-10T10:52:25Z</time>
      </trkpt>
      <trkpt lat="45.92444" lon="4.75937">
        <ele>172</ele>
        <time>2017-07-10T10:52:26Z</time>
      </trkpt>
      <trkpt lat="45.92439" lon="4.75933">
        <ele>172</ele>
        <time>2017-07-10T10:52:27Z</time>
      </trkpt>
      <trkpt lat="45.92434" lon="4.7593">
        <ele>172</ele>
        <time>2017-07-10T10:52:28Z</time>
      </trkpt>
      <trkpt lat="45.92428" lon="4.75926">
        <ele>172</ele>
        <time>2017-07-10T10:52:29Z</time>
      </trkpt>
      <trkpt lat="45.92423" lon="4.75923">
        <ele>172</ele>
        <time>2017-07-10T10:52:30Z</time>
      </trkpt>
      <trkpt lat="45.92417" lon="4.75919">
        <ele>172</ele>
        <time>2017-07-10T10:52:31Z</time>
      </trkpt>
      <trkpt lat="45.92412" lon="4.75915">
        <ele>172</ele>
        <time>2017-07-10T10:52:32Z</time>
      </trkpt>
      <trkpt lat="45.92406" lon="4.75912">
        <ele>172</ele>
        <time>2017-07-10T10:52:33Z</time>
      </trkpt>
      <trkpt lat="45.924" lon="4.75908">
        <ele>173</ele>
        <time>2017-07-10T10:52:34Z</time>
      </trkpt>
      <trkpt lat="45.92395" lon="4.75904">
        <ele>173</ele>
        <time>2017-07-10T10:52:35Z</time>
      </trkpt>
      <trkpt lat="45.9239" lon="4.759">
        <ele>173</ele>
        <time>2017-07-10T10:52:36Z</time>
      </trkpt>
      <trkpt lat="45.92384" lon="4.75896">
        <ele>173</ele>
        <time>2017-07-10T10:52:37Z</time>
      </trkpt>
      <trkpt lat="45.92379" lon="4.75893">
        <ele>173</ele>
        <time>2017-07-10T10:52:38Z</time>
      </trkpt>
      <trkpt lat="45.92374" lon="4.7589">
        <ele>173</ele>
        <time>2017-07-10T10:52:39Z</time>
      </trkpt>
      <trkpt lat="45.92369" lon="4.75887">
        <ele>173</ele>
        <time>2017-07-10T10:52:40Z</time>
      </trkpt>
      <trkpt lat="45.92364" lon="4.75884">
        <ele>173</ele>
        <time>2017-07-10T10:52:41Z</time>
      </trkpt>
      <trkpt lat="45.92359" lon="4.75881">
        <ele>173</ele>
        <time>2017-07-10T10:52:42Z</time>
      </trkpt>
      <trkpt lat="45.92354" lon="4.75878">
        <ele>173</ele>
        <time>2017-07-10T10:52:43Z</time>
      </trkpt>
      <trkpt lat="45.92349" lon="4.75876">
        <ele>173</ele>
        <time>2017-07-10T10:52:44Z</time>
      </trkpt>
      <trkpt lat="45.92344" lon="4.75873">
        <ele>173</ele>
        <time>2017-07-10T10:52:45Z</time>
      </trkpt>
      <trkpt lat="45.92339" lon="4.7587">
        <ele>173</ele>
        <time>2017-07-10T10:52:46Z</time>
      </trkpt>
      <trkpt lat="45.92334" lon="4.75866">
        <ele>173</ele>
        <time>2017-07-10T10:52:47Z</time>
      </trkpt>
      <trkpt lat="45.92329" lon="4.75862">
        <ele>173</ele>
        <time>2017-07-10T10:52:48Z</time>
      </trkpt>
      <trkpt lat="45.92324" lon="4.75859">
        <ele>173</ele>
        <time>2017-07-10T10:52:49Z</time>
      </trkpt>
      <trkpt lat="45.92316" lon="4.75853">
        <ele>173</ele>
        <time>2017-07-10T10:52:51Z</time>
      </trkpt>
      <trkpt lat="45.92312" lon="4.7585">
        <ele>173</ele>
        <time>2017-07-10T10:52:52Z</time>
      </trkpt>
      <trkpt lat="45.92308" lon="4.75847">
        <ele>173</ele>
        <time>2017-07-10T10:52:53Z</time>
      </trkpt>
      <trkpt lat="45.92303" lon="4.75844">
        <ele>173</ele>
        <time>2017-07-10T10:52:54Z</time>
      </trkpt>
      <trkpt lat="45.92299" lon="4.75841">
        <ele>173</ele>
        <time>2017-07-10T10:52:55Z</time>
      </trkpt>
      <trkpt lat="45.92294" lon="4.75837">
        <ele>173</ele>
        <time>2017-07-10T10:52:56Z</time>
      </trkpt>
      <trkpt lat="45.92289" lon="4.75834">
        <ele>173</ele>
        <time>2017-07-10T10:52:57Z</time>
      </trkpt>
      <trkpt lat="45.92283" lon="4.7583">
        <ele>174</ele>
        <time>2017-07-10T10:52:58Z</time>
      </trkpt>
      <trkpt lat="45.92278" lon="4.75825">
        <ele>174</ele>
        <time>2017-07-10T10:52:59Z</time>
      </trkpt>
      <trkpt lat="45.92273" lon="4.7582">
        <ele>174</ele>
        <time>2017-07-10T10:53:00Z</time>
      </trkpt>
      <trkpt lat="45.92269" lon="4.75814">
        <ele>174</ele>
        <time>2017-07-10T10:53:01Z</time>
      </trkpt>
      <trkpt lat="45.92266" lon="4.75808">
        <ele>174</ele>
        <time>2017-07-10T10:53:02Z</time>
      </trkpt>
      <trkpt lat="45.92264" lon="4.75802">
        <ele>174</ele>
        <time>2017-07-10T10:53:03Z</time>
      </trkpt>
      <trkpt lat="45.92263" lon="4.75795">
        <ele>174</ele>
        <time>2017-07-10T10:53:04Z</time>
      </trkpt>
      <trkpt lat="45.92261" lon="4.75788">
        <ele>174</ele>
        <time>2017-07-10T10:53:05Z</time>
      </trkpt>
      <trkpt lat="45.9226" lon="4.75782">
        <ele>174</ele>
        <time>2017-07-10T10:53:06Z</time>
      </trkpt>
      <trkpt lat="45.92259" lon="4.75775">
        <ele>174</ele>
        <time>2017-07-10T10:53:07Z</time>
      </trkpt>
      <trkpt lat="45.92258" lon="4.75768">
        <ele>174</ele>
        <time>2017-07-10T10:53:08Z</time>
      </trkpt>
      <trkpt lat="45.92257" lon="4.7576">
        <ele>174</ele>
        <time>2017-07-10T10:53:09Z</time>
      </trkpt>
      <trkpt lat="45.92255" lon="4.75753">
        <ele>174</ele>
        <time>2017-07-10T10:53:10Z</time>
      </trkpt>
      <trkpt lat="45.92254" lon="4.75746">
        <ele>174</ele>
        <time>2017-07-10T10:53:11Z</time>
      </trkpt>
      <trkpt lat="45.92252" lon="4.75739">
        <ele>174</ele>
        <time>2017-07-10T10:53:12Z</time>
      </trkpt>
      <trkpt lat="45.9225" lon="4.75732">
        <ele>174</ele>
        <time>2017-07-10T10:53:13Z</time>
      </trkpt>
      <trkpt lat="45.92248" lon="4.75725">
        <ele>174</ele>
        <time>2017-07-10T10:53:14Z</time>
      </trkpt>
      <trkpt lat="45.92245" lon="4.75719">
        <ele>174</ele>
        <time>2017-07-10T10:53:15Z</time>
      </trkpt>
      <trkpt lat="45.92241" lon="4.75714">
        <ele>174</ele>
        <time>2017-07-10T10:53:16Z</time>
      </trkpt>
      <trkpt lat="45.92238" lon="4.75708">
        <ele>174</ele>
        <time>2017-07-10T10:53:17Z</time>
      </trkpt>
      <trkpt lat="45.92234" lon="4.75702">
        <ele>174</ele>
        <time>2017-07-10T10:53:18Z</time>
      </trkpt>
      <trkpt lat="45.9223" lon="4.75697">
        <ele>174</ele>
        <time>2017-07-10T10:53:19Z</time>
      </trkpt>
      <trkpt lat="45.92225" lon="4.75693">
        <ele>174</ele>
        <time>2017-07-10T10:53:20Z</time>
      </trkpt>
      <trkpt lat="45.9222" lon="4.75689">
        <ele>174</ele>
        <time>2017-07-10T10:53:21Z</time>
      </trkpt>
      <trkpt lat="45.92216" lon="4.75684">
        <ele>174</ele>
        <time>2017-07-10T10:53:22Z</time>
      </trkpt>
      <trkpt lat="45.92211" lon="4.7568">
        <ele>174</ele>
        <time>2017-07-10T10:53:23Z</time>
      </trkpt>
      <trkpt lat="45.92206" lon="4.75676">
        <ele>174</ele>
        <time>2017-07-10T10:53:24Z</time>
      </trkpt>
      <trkpt lat="45.92202" lon="4.75671">
        <ele>174</ele>
        <time>2017-07-10T10:53:25Z</time>
      </trkpt>
      <trkpt lat="45.92197" lon="4.75667">
        <ele>174</ele>
        <time>2017-07-10T10:53:26Z</time>
      </trkpt>
      <trkpt lat="45.92192" lon="4.75663">
        <ele>174</ele>
        <time>2017-07-10T10:53:27Z</time>
      </trkpt>
      <trkpt lat="45.92187" lon="4.75659">
        <ele>174</ele>
        <time>2017-07-10T10:53:28Z</time>
      </trkpt>
      <trkpt lat="45.92183" lon="4.75655">
        <ele>174</ele>
        <time>2017-07-10T10:53:29Z</time>
      </trkpt>
      <trkpt lat="45.92179" lon="4.75651">
        <ele>174</ele>
        <time>2017-07-10T10:53:30Z</time>
      </trkpt>
      <trkpt lat="45.92175" lon="4.75646">
        <ele>174</ele>
        <time>2017-07-10T10:53:31Z</time>
      </trkpt>
      <trkpt lat="45.9217" lon="4.75642">
        <ele>174</ele>
        <time>2017-07-10T10:53:32Z</time>
      </trkpt>
      <trkpt lat="45.92166" lon="4.75637">
        <ele>174</ele>
        <time>2017-07-10T10:53:33Z</time>
      </trkpt>
      <trkpt lat="45.9216" lon="4.75633">
        <ele>174</ele>
        <time>2017-07-10T10:53:34Z</time>
      </trkpt>
      <trkpt lat="45.92155" lon="4.75627">
        <ele>174</ele>
        <time>2017-07-10T10:53:35Z</time>
      </trkpt>
      <trkpt lat="45.9215" lon="4.75623">
        <ele>174</ele>
        <time>2017-07-10T10:53:36Z</time>
      </trkpt>
      <trkpt lat="45.92146" lon="4.75618">
        <ele>174</ele>
        <time>2017-07-10T10:53:37Z</time>
      </trkpt>
      <trkpt lat="45.92142" lon="4.75613">
        <ele>174</ele>
        <time>2017-07-10T10:53:38Z</time>
      </trkpt>
      <trkpt lat="45.92139" lon="4.75608">
        <ele>174</ele>
        <time>2017-07-10T10:53:39Z</time>
      </trkpt>
      <trkpt lat="45.92135" lon="4.75604">
        <ele>174</ele>
        <time>2017-07-10T10:53:40Z</time>
      </trkpt>
      <trkpt lat="45.92131" lon="4.75599">
        <ele>174</ele>
        <time>2017-07-10T10:53:41Z</time>
      </trkpt>
      <trkpt lat="45.92127" lon="4.75595">
        <ele>174</ele>
        <time>2017-07-10T10:53:42Z</time>
      </trkpt>
      <trkpt lat="45.9212" lon="4.75587">
        <ele>174</ele>
        <time>2017-07-10T10:53:44Z</time>
      </trkpt>
      <trkpt lat="45.92118" lon="4.75582">
        <ele>174</ele>
        <time>2017-07-10T10:53:45Z</time>
      </trkpt>
      <trkpt lat="45.92115" lon="4.7557">
        <ele>174</ele>
        <time>2017-07-10T10:53:48Z</time>
      </trkpt>
      <trkpt lat="45.92116" lon="4.75567">
        <ele>174</ele>
        <time>2017-07-10T10:53:49Z</time>
      </trkpt>
      <trkpt lat="45.92119" lon="4.7556">
        <ele>174</ele>
        <time>2017-07-10T10:53:51Z</time>
      </trkpt>
      <trkpt lat="45.92121" lon="4.75556">
        <ele>174</ele>
        <time>2017-07-10T10:53:52Z</time>
      </trkpt>
      <trkpt lat="45.92127" lon="4.75547">
        <ele>174</ele>
        <time>2017-07-10T10:53:54Z</time>
      </trkpt>
      <trkpt lat="45.9213" lon="4.75542">
        <ele>174</ele>
        <time>2017-07-10T10:53:55Z</time>
      </trkpt>
      <trkpt lat="45.92133" lon="4.75536">
        <ele>174</ele>
        <time>2017-07-10T10:53:56Z</time>
      </trkpt>
      <trkpt lat="45.92137" lon="4.7553">
        <ele>174</ele>
        <time>2017-07-10T10:53:57Z</time>
      </trkpt>
      <trkpt lat="45.9214" lon="4.75524">
        <ele>174</ele>
        <time>2017-07-10T10:53:58Z</time>
      </trkpt>
      <trkpt lat="45.92143" lon="4.75517">
        <ele>174</ele>
        <time>2017-07-10T10:53:59Z</time>
      </trkpt>
      <trkpt lat="45.92146" lon="4.7551">
        <ele>175</ele>
        <time>2017-07-10T10:54:00Z</time>
      </trkpt>
      <trkpt lat="45.92149" lon="4.75504">
        <ele>175</ele>
        <time>2017-07-10T10:54:01Z</time>
      </trkpt>
      <trkpt lat="45.92152" lon="4.75498">
        <ele>175</ele>
        <time>2017-07-10T10:54:02Z</time>
      </trkpt>
      <trkpt lat="45.92155" lon="4.75491">
        <ele>175</ele>
        <time>2017-07-10T10:54:03Z</time>
      </trkpt>
      <trkpt lat="45.92157" lon="4.75486">
        <ele>176</ele>
        <time>2017-07-10T10:54:04Z</time>
      </trkpt>
      <trkpt lat="45.92159" lon="4.75478">
        <ele>176</ele>
        <time>2017-07-10T10:54:05Z</time>
      </trkpt>
      <trkpt lat="45.92161" lon="4.75471">
        <ele>176</ele>
        <time>2017-07-10T10:54:06Z</time>
      </trkpt>
      <trkpt lat="45.92164" lon="4.75465">
        <ele>176</ele>
        <time>2017-07-10T10:54:07Z</time>
      </trkpt>
      <trkpt lat="45.92167" lon="4.75458">
        <ele>176</ele>
        <time>2017-07-10T10:54:08Z</time>
      </trkpt>
      <trkpt lat="45.92169" lon="4.75451">
        <ele>176</ele>
        <time>2017-07-10T10:54:09Z</time>
      </trkpt>
      <trkpt lat="45.92172" lon="4.75444">
        <ele>176</ele>
        <time>2017-07-10T10:54:10Z</time>
      </trkpt>
      <trkpt lat="45.92174" lon="4.75438">
        <ele>177</ele>
        <time>2017-07-10T10:54:11Z</time>
      </trkpt>
      <trkpt lat="45.92176" lon="4.75431">
        <ele>177</ele>
        <time>2017-07-10T10:54:12Z</time>
      </trkpt>
      <trkpt lat="45.92178" lon="4.75424">
        <ele>177</ele>
        <time>2017-07-10T10:54:13Z</time>
      </trkpt>
      <trkpt lat="45.92181" lon="4.75417">
        <ele>177</ele>
        <time>2017-07-10T10:54:14Z</time>
      </trkpt>
      <trkpt lat="45.92184" lon="4.75411">
        <ele>177</ele>
        <time>2017-07-10T10:54:15Z</time>
      </trkpt>
      <trkpt lat="45.92186" lon="4.75404">
        <ele>177</ele>
        <time>2017-07-10T10:54:16Z</time>
      </trkpt>
      <trkpt lat="45.92188" lon="4.75397">
        <ele>177</ele>
        <time>2017-07-10T10:54:17Z</time>
      </trkpt>
      <trkpt lat="45.92191" lon="4.75391">
        <ele>177</ele>
        <time>2017-07-10T10:54:18Z</time>
      </trkpt>
      <trkpt lat="45.92194" lon="4.75385">
        <ele>177</ele>
        <time>2017-07-10T10:54:19Z</time>
      </trkpt>
      <trkpt lat="45.92196" lon="4.75379">
        <ele>177</ele>
        <time>2017-07-10T10:54:20Z</time>
      </trkpt>
      <trkpt lat="45.92199" lon="4.75373">
        <ele>177</ele>
        <time>2017-07-10T10:54:21Z</time>
      </trkpt>
      <trkpt lat="45.92201" lon="4.75367">
        <ele>177</ele>
        <time>2017-07-10T10:54:22Z</time>
      </trkpt>
      <trkpt lat="45.92203" lon="4.75361">
        <ele>177</ele>
        <time>2017-07-10T10:54:23Z</time>
      </trkpt>
      <trkpt lat="45.92204" lon="4.75354">
        <ele>177</ele>
        <time>2017-07-10T10:54:24Z</time>
      </trkpt>
      <trkpt lat="45.92206" lon="4.75348">
        <ele>177</ele>
        <time>2017-07-10T10:54:25Z</time>
      </trkpt>
      <trkpt lat="45.92208" lon="4.75341">
        <ele>177</ele>
        <time>2017-07-10T10:54:26Z</time>
      </trkpt>
      <trkpt lat="45.92209" lon="4.75333">
        <ele>176</ele>
        <time>2017-07-10T10:54:27Z</time>
      </trkpt>
      <trkpt lat="45.92211" lon="4.75325">
        <ele>176</ele>
        <time>2017-07-10T10:54:28Z</time>
      </trkpt>
      <trkpt lat="45.92213" lon="4.75317">
        <ele>176</ele>
        <time>2017-07-10T10:54:29Z</time>
      </trkpt>
      <trkpt lat="45.92214" lon="4.75309">
        <ele>176</ele>
        <time>2017-07-10T10:54:30Z</time>
      </trkpt>
      <trkpt lat="45.92214" lon="4.753">
        <ele>176</ele>
        <time>2017-07-10T10:54:31Z</time>
      </trkpt>
      <trkpt lat="45.92215" lon="4.75291">
        <ele>176</ele>
        <time>2017-07-10T10:54:32Z</time>
      </trkpt>
      <trkpt lat="45.92216" lon="4.75281">
        <ele>176</ele>
        <time>2017-07-10T10:54:33Z</time>
      </trkpt>
      <trkpt lat="45.92216" lon="4.75272">
        <ele>176</ele>
        <time>2017-07-10T10:54:34Z</time>
      </trkpt>
      <trkpt lat="45.92216" lon="4.75262">
        <ele>176</ele>
        <time>2017-07-10T10:54:35Z</time>
      </trkpt>
      <trkpt lat="45.92216" lon="4.75252">
        <ele>175</ele>
        <time>2017-07-10T10:54:36Z</time>
      </trkpt>
      <trkpt lat="45.92217" lon="4.75243">
        <ele>175</ele>
        <time>2017-07-10T10:54:37Z</time>
      </trkpt>
      <trkpt lat="45.92217" lon="4.75233">
        <ele>175</ele>
        <time>2017-07-10T10:54:38Z</time>
      </trkpt>
      <trkpt lat="45.92219" lon="4.75224">
        <ele>175</ele>
        <time>2017-07-10T10:54:39Z</time>
      </trkpt>
      <trkpt lat="45.9222" lon="4.75214">
        <ele>175</ele>
        <time>2017-07-10T10:54:40Z</time>
      </trkpt>
      <trkpt lat="45.92222" lon="4.75205">
        <ele>175</ele>
        <time>2017-07-10T10:54:41Z</time>
      </trkpt>
      <trkpt lat="45.92224" lon="4.75196">
        <ele>175</ele>
        <time>2017-07-10T10:54:42Z</time>
      </trkpt>
      <trkpt lat="45.92226" lon="4.75187">
        <ele>175</ele>
        <time>2017-07-10T10:54:43Z</time>
      </trkpt>
      <trkpt lat="45.92229" lon="4.75177">
        <ele>175</ele>
        <time>2017-07-10T10:54:44Z</time>
      </trkpt>
      <trkpt lat="45.92232" lon="4.75168">
        <ele>175</ele>
        <time>2017-07-10T10:54:45Z</time>
      </trkpt>
      <trkpt lat="45.92236" lon="4.75159">
        <ele>174</ele>
        <time>2017-07-10T10:54:46Z</time>
      </trkpt>
      <trkpt lat="45.92239" lon="4.75151">
        <ele>174</ele>
        <time>2017-07-10T10:54:47Z</time>
      </trkpt>
      <trkpt lat="45.92244" lon="4.75144">
        <ele>174</ele>
        <time>2017-07-10T10:54:48Z</time>
      </trkpt>
      <trkpt lat="45.92248" lon="4.75137">
        <ele>174</ele>
        <time>2017-07-10T10:54:49Z</time>
      </trkpt>
      <trkpt lat="45.92253" lon="4.7513">
        <ele>174</ele>
        <time>2017-07-10T10:54:50Z</time>
      </trkpt>
      <trkpt lat="45.92258" lon="4.75125">
        <ele>174</ele>
        <time>2017-07-10T10:54:51Z</time>
      </trkpt>
      <trkpt lat="45.92263" lon="4.75119">
        <ele>174</ele>
        <time>2017-07-10T10:54:52Z</time>
      </trkpt>
      <trkpt lat="45.92268" lon="4.75114">
        <ele>174</ele>
        <time>2017-07-10T10:54:53Z</time>
      </trkpt>
      <trkpt lat="45.92272" lon="4.7511">
        <ele>174</ele>
        <time>2017-07-10T10:54:54Z</time>
      </trkpt>
      <trkpt lat="45.92277" lon="4.75104">
        <ele>174</ele>
        <time>2017-07-10T10:54:55Z</time>
      </trkpt>
      <trkpt lat="45.92281" lon="4.75098">
        <ele>173</ele>
        <time>2017-07-10T10:54:56Z</time>
      </trkpt>
      <trkpt lat="45.92285" lon="4.75094">
        <ele>173</ele>
        <time>2017-07-10T10:54:57Z</time>
      </trkpt>
      <trkpt lat="45.92289" lon="4.75088">
        <ele>173</ele>
        <time>2017-07-10T10:54:58Z</time>
      </trkpt>
      <trkpt lat="45.92293" lon="4.75083">
        <ele>172</ele>
        <time>2017-07-10T10:54:59Z</time>
      </trkpt>
      <trkpt lat="45.92298" lon="4.75078">
        <ele>172</ele>
        <time>2017-07-10T10:55:00Z</time>
      </trkpt>
      <trkpt lat="45.92303" lon="4.75072">
        <ele>172</ele>
        <time>2017-07-10T10:55:01Z</time>
      </trkpt>
      <trkpt lat="45.92308" lon="4.75066">
        <ele>172</ele>
        <time>2017-07-10T10:55:02Z</time>
      </trkpt>
      <trkpt lat="45.92312" lon="4.75059">
        <ele>172</ele>
        <time>2017-07-10T10:55:03Z</time>
      </trkpt>
      <trkpt lat="45.92317" lon="4.75052">
        <ele>172</ele>
        <time>2017-07-10T10:55:04Z</time>
      </trkpt>
      <trkpt lat="45.92322" lon="4.75045">
        <ele>172</ele>
        <time>2017-07-10T10:55:05Z</time>
      </trkpt>
      <trkpt lat="45.92325" lon="4.75038">
        <ele>171</ele>
        <time>2017-07-10T10:55:06Z</time>
      </trkpt>
      <trkpt lat="45.92329" lon="4.7503">
        <ele>171</ele>
        <time>2017-07-10T10:55:07Z</time>
      </trkpt>
      <trkpt lat="45.92332" lon="4.75023">
        <ele>171</ele>
        <time>2017-07-10T10:55:08Z</time>
      </trkpt>
      <trkpt lat="45.92336" lon="4.75016">
        <ele>170</ele>
        <time>2017-07-10T10:55:09Z</time>
      </trkpt>
      <trkpt lat="45.9234" lon="4.75008">
        <ele>170</ele>
        <time>2017-07-10T10:55:10Z</time>
      </trkpt>
      <trkpt lat="45.92342" lon="4.75002">
        <ele>170</ele>
        <time>2017-07-10T10:55:11Z</time>
      </trkpt>
      <trkpt lat="45.92345" lon="4.74996">
        <ele>170</ele>
        <time>2017-07-10T10:55:12Z</time>
      </trkpt>
      <trkpt lat="45.92348" lon="4.7499">
        <ele>170</ele>
        <time>2017-07-10T10:55:13Z</time>
      </trkpt>
      <trkpt lat="45.92351" lon="4.74984">
        <ele>170</ele>
        <time>2017-07-10T10:55:14Z</time>
      </trkpt>
      <trkpt lat="45.92354" lon="4.74977">
        <ele>170</ele>
        <time>2017-07-10T10:55:15Z</time>
      </trkpt>
      <trkpt lat="45.92357" lon="4.7497">
        <ele>170</ele>
        <time>2017-07-10T10:55:16Z</time>
      </trkpt>
      <trkpt lat="45.92359" lon="4.74963">
        <ele>170</ele>
        <time>2017-07-10T10:55:17Z</time>
      </trkpt>
      <trkpt lat="45.92362" lon="4.74956">
        <ele>170</ele>
        <time>2017-07-10T10:55:18Z</time>
      </trkpt>
      <trkpt lat="45.92366" lon="4.74948">
        <ele>170</ele>
        <time>2017-07-10T10:55:19Z</time>
      </trkpt>
      <trkpt lat="45.92369" lon="4.7494">
        <ele>170</ele>
        <time>2017-07-10T10:55:20Z</time>
      </trkpt>
      <trkpt lat="45.92372" lon="4.74932">
        <ele>170</ele>
        <time>2017-07-10T10:55:21Z</time>
      </trkpt>
      <trkpt lat="45.92375" lon="4.74924">
        <ele>170</ele>
        <time>2017-07-10T10:55:22Z</time>
      </trkpt>
      <trkpt lat="45.92378" lon="4.74917">
        <ele>170</ele>
        <time>2017-07-10T10:55:23Z</time>
      </trkpt>
      <trkpt lat="45.92381" lon="4.7491">
        <ele>171</ele>
        <time>2017-07-10T10:55:24Z</time>
      </trkpt>
      <trkpt lat="45.92384" lon="4.74903">
        <ele>171</ele>
        <time>2017-07-10T10:55:25Z</time>
      </trkpt>
      <trkpt lat="45.92387" lon="4.74895">
        <ele>171</ele>
        <time>2017-07-10T10:55:26Z</time>
      </trkpt>
      <trkpt lat="45.92389" lon="4.74889">
        <ele>171</ele>
        <time>2017-07-10T10:55:27Z</time>
      </trkpt>
      <trkpt lat="45.92392" lon="4.74882">
        <ele>171</ele>
        <time>2017-07-10T10:55:28Z</time>
      </trkpt>
      <trkpt lat="45.92394" lon="4.74876">
        <ele>171</ele>
        <time>2017-07-10T10:55:29Z</time>
      </trkpt>
      <trkpt lat="45.92396" lon="4.74869">
        <ele>171</ele>
        <time>2017-07-10T10:55:30Z</time>
      </trkpt>
      <trkpt lat="45.92399" lon="4.74863">
        <ele>171</ele>
        <time>2017-07-10T10:55:31Z</time>
      </trkpt>
      <trkpt lat="45.92401" lon="4.74855">
        <ele>171</ele>
        <time>2017-07-10T10:55:32Z</time>
      </trkpt>
      <trkpt lat="45.92404" lon="4.74848">
        <ele>171</ele>
        <time>2017-07-10T10:55:33Z</time>
      </trkpt>
      <trkpt lat="45.92406" lon="4.74841">
        <ele>171</ele>
        <time>2017-07-10T10:55:34Z</time>
      </trkpt>
      <trkpt lat="45.92407" lon="4.74834">
        <ele>171</ele>
        <time>2017-07-10T10:55:35Z</time>
      </trkpt>
      <trkpt lat="45.92409" lon="4.74826">
        <ele>171</ele>
        <time>2017-07-10T10:55:36Z</time>
      </trkpt>
      <trkpt lat="45.92411" lon="4.74819">
        <ele>171</ele>
        <time>2017-07-10T10:55:37Z</time>
      </trkpt>
      <trkpt lat="45.92413" lon="4.74812">
        <ele>171</ele>
        <time>2017-07-10T10:55:38Z</time>
      </trkpt>
      <trkpt lat="45.92415" lon="4.74805">
        <ele>171</ele>
        <time>2017-07-10T10:55:39Z</time>
      </trkpt>
      <trkpt lat="45.92416" lon="4.74799">
        <ele>171</ele>
        <time>2017-07-10T10:55:40Z</time>
      </trkpt>
      <trkpt lat="45.92418" lon="4.74792">
        <ele>171</ele>
        <time>2017-07-10T10:55:41Z</time>
      </trkpt>
      <trkpt lat="45.92419" lon="4.74785">
        <ele>171</ele>
        <time>2017-07-10T10:55:42Z</time>
      </trkpt>
      <trkpt lat="45.92421" lon="4.74778">
        <ele>171</ele>
        <time>2017-07-10T10:55:43Z</time>
      </trkpt>
      <trkpt lat="45.92422" lon="4.74772">
        <ele>171</ele>
        <time>2017-07-10T10:55:44Z</time>
      </trkpt>
      <trkpt lat="45.92424" lon="4.74765">
        <ele>171</ele>
        <time>2017-07-10T10:55:45Z</time>
      </trkpt>
      <trkpt lat="45.92426" lon="4.74758">
        <ele>171</ele>
        <time>2017-07-10T10:55:46Z</time>
      </trkpt>
      <trkpt lat="45.92428" lon="4.74752">
        <ele>171</ele>
        <time>2017-07-10T10:55:47Z</time>
      </trkpt>
      <trkpt lat="45.9243" lon="4.74746">
        <ele>171</ele>
        <time>2017-07-10T10:55:48Z</time>
      </trkpt>
      <trkpt lat="45.92432" lon="4.74739">
        <ele>171</ele>
        <time>2017-07-10T10:55:49Z</time>
      </trkpt>
      <trkpt lat="45.92434" lon="4.74732">
        <ele>171</ele>
        <time>2017-07-10T10:55:50Z</time>
      </trkpt>
      <trkpt lat="45.92436" lon="4.74726">
        <ele>171</ele>
        <time>2017-07-10T10:55:51Z</time>
      </trkpt>
      <trkpt lat="45.92438" lon="4.74719">
        <ele>171</ele>
        <time>2017-07-10T10:55:52Z</time>
      </trkpt>
      <trkpt lat="45.92441" lon="4.74712">
        <ele>171</ele>
        <time>2017-07-10T10:55:53Z</time>
      </trkpt>
      <trkpt lat="45.92444" lon="4.74705">
        <ele>171</ele>
        <time>2017-07-10T10:55:54Z</time>
      </trkpt>
      <trkpt lat="45.92447" lon="4.74697">
        <ele>171</ele>
        <time>2017-07-10T10:55:55Z</time>
      </trkpt>
      <trkpt lat="45.9245" lon="4.74691">
        <ele>171</ele>
        <time>2017-07-10T10:55:56Z</time>
      </trkpt>
      <trkpt lat="45.92453" lon="4.74684">
        <ele>171</ele>
        <time>2017-07-10T10:55:57Z</time>
      </trkpt>
      <trkpt lat="45.92456" lon="4.74678">
        <ele>171</ele>
        <time>2017-07-10T10:55:58Z</time>
      </trkpt>
      <trkpt lat="45.92459" lon="4.74672">
        <ele>171</ele>
        <time>2017-07-10T10:55:59Z</time>
      </trkpt>
      <trkpt lat="45.92462" lon="4.74666">
        <ele>171</ele>
        <time>2017-07-10T10:56:00Z</time>
      </trkpt>
      <trkpt lat="45.92466" lon="4.7466">
        <ele>171</ele>
        <time>2017-07-10T10:56:01Z</time>
      </trkpt>
      <trkpt lat="45.92469" lon="4.74654">
        <ele>171</ele>
        <time>2017-07-10T10:56:02Z</time>
      </trkpt>
      <trkpt lat="45.92471" lon="4.74647">
        <ele>171</ele>
        <time>2017-07-10T10:56:03Z</time>
      </trkpt>
      <trkpt lat="45.92475" lon="4.74642">
        <ele>171</ele>
        <time>2017-07-10T10:56:04Z</time>
      </trkpt>
      <trkpt lat="45.92477" lon="4.74635">
        <ele>171</ele>
        <time>2017-07-10T10:56:05Z</time>
      </trkpt>
      <trkpt lat="45.92482" lon="4.7463">
        <ele>171</ele>
        <time>2017-07-10T10:56:06Z</time>
      </trkpt>
      <trkpt lat="45.92486" lon="4.74624">
        <ele>171</ele>
        <time>2017-07-10T10:56:07Z</time>
      </trkpt>
      <trkpt lat="45.9249" lon="4.74619">
        <ele>171</ele>
        <time>2017-07-10T10:56:08Z</time>
      </trkpt>
      <trkpt lat="45.92495" lon="4.74613">
        <ele>171</ele>
        <time>2017-07-10T10:56:09Z</time>
      </trkpt>
      <trkpt lat="45.92499" lon="4.74608">
        <ele>171</ele>
        <time>2017-07-10T10:56:10Z</time>
      </trkpt>
      <trkpt lat="45.92503" lon="4.74603">
        <ele>171</ele>
        <time>2017-07-10T10:56:11Z</time>
      </trkpt>
      <trkpt lat="45.92508" lon="4.74598">
        <ele>171</ele>
        <time>2017-07-10T10:56:12Z</time>
      </trkpt>
      <trkpt lat="45.92512" lon="4.74593">
        <ele>171</ele>
        <time>2017-07-10T10:56:13Z</time>
      </trkpt>
      <trkpt lat="45.92517" lon="4.74587">
        <ele>171</ele>
        <time>2017-07-10T10:56:14Z</time>
      </trkpt>
      <trkpt lat="45.92521" lon="4.74582">
        <ele>171</ele>
        <time>2017-07-10T10:56:15Z</time>
      </trkpt>
      <trkpt lat="45.92526" lon="4.74577">
        <ele>171</ele>
        <time>2017-07-10T10:56:16Z</time>
      </trkpt>
      <trkpt lat="45.9253" lon="4.74571">
        <ele>171</ele>
        <time>2017-07-10T10:56:17Z</time>
      </trkpt>
      <trkpt lat="45.92535" lon="4.74565">
        <ele>171</ele>
        <time>2017-07-10T10:56:18Z</time>
      </trkpt>
      <trkpt lat="45.92539" lon="4.74559">
        <ele>171</ele>
        <time>2017-07-10T10:56:19Z</time>
      </trkpt>
      <trkpt lat="45.92543" lon="4.74553">
        <ele>170</ele>
        <time>2017-07-10T10:56:20Z</time>
      </trkpt>
      <trkpt lat="45.92546" lon="4.74547">
        <ele>170</ele>
        <time>2017-07-10T10:56:21Z</time>
      </trkpt>
      <trkpt lat="45.9255" lon="4.74541">
        <ele>170</ele>
        <time>2017-07-10T10:56:22Z</time>
      </trkpt>
      <trkpt lat="45.92554" lon="4.74534">
        <ele>170</ele>
        <time>2017-07-10T10:56:23Z</time>
      </trkpt>
      <trkpt lat="45.92557" lon="4.74528">
        <ele>170</ele>
        <time>2017-07-10T10:56:24Z</time>
      </trkpt>
      <trkpt lat="45.9256" lon="4.74522">
        <ele>170</ele>
        <time>2017-07-10T10:56:25Z</time>
      </trkpt>
      <trkpt lat="45.92563" lon="4.74515">
        <ele>170</ele>
        <time>2017-07-10T10:56:26Z</time>
      </trkpt>
      <trkpt lat="45.92567" lon="4.7451">
        <ele>170</ele>
        <time>2017-07-10T10:56:27Z</time>
      </trkpt>
      <trkpt lat="45.9257" lon="4.74504">
        <ele>170</ele>
        <time>2017-07-10T10:56:28Z</time>
      </trkpt>
      <trkpt lat="45.92573" lon="4.74498">
        <ele>170</ele>
        <time>2017-07-10T10:56:29Z</time>
      </trkpt>
      <trkpt lat="45.92576" lon="4.74492">
        <ele>170</ele>
        <time>2017-07-10T10:56:30Z</time>
      </trkpt>
      <trkpt lat="45.92579" lon="4.74486">
        <ele>170</ele>
        <time>2017-07-10T10:56:31Z</time>
      </trkpt>
      <trkpt lat="45.92582" lon="4.74481">
        <ele>170</ele>
        <time>2017-07-10T10:56:32Z</time>
      </trkpt>
      <trkpt lat="45.92586" lon="4.74474">
        <ele>170</ele>
        <time>2017-07-10T10:56:33Z</time>
      </trkpt>
      <trkpt lat="45.92589" lon="4.74468">
        <ele>170</ele>
        <time>2017-07-10T10:56:34Z</time>
      </trkpt>
      <trkpt lat="45.92592" lon="4.74461">
        <ele>170</ele>
        <time>2017-07-10T10:56:35Z</time>
      </trkpt>
      <trkpt lat="45.92596" lon="4.74454">
        <ele>170</ele>
        <time>2017-07-10T10:56:36Z</time>
      </trkpt>
      <trkpt lat="45.926" lon="4.74448">
        <ele>170</ele>
        <time>2017-07-10T10:56:37Z</time>
      </trkpt>
      <trkpt lat="45.92604" lon="4.74441">
        <ele>170</ele>
        <time>2017-07-10T10:56:38Z</time>
      </trkpt>
      <trkpt lat="45.92607" lon="4.74434">
        <ele>170</ele>
        <time>2017-07-10T10:56:39Z</time>
      </trkpt>
      <trkpt lat="45.92611" lon="4.74429">
        <ele>170</ele>
        <time>2017-07-10T10:56:40Z</time>
      </trkpt>
      <trkpt lat="45.92614" lon="4.74422">
        <ele>170</ele>
        <time>2017-07-10T10:56:41Z</time>
      </trkpt>
      <trkpt lat="45.92618" lon="4.74415">
        <ele>170</ele>
        <time>2017-07-10T10:56:42Z</time>
      </trkpt>
      <trkpt lat="45.92621" lon="4.74409">
        <ele>170</ele>
        <time>2017-07-10T10:56:43Z</time>
      </trkpt>
      <trkpt lat="45.92625" lon="4.74403">
        <ele>170</ele>
        <time>2017-07-10T10:56:44Z</time>
      </trkpt>
      <trkpt lat="45.92629" lon="4.74398">
        <ele>170</ele>
        <time>2017-07-10T10:56:45Z</time>
      </trkpt>
      <trkpt lat="45.92632" lon="4.74392">
        <ele>170</ele>
        <time>2017-07-10T10:56:46Z</time>
      </trkpt>
      <trkpt lat="45.92635" lon="4.74386">
        <ele>170</ele>
        <time>2017-07-10T10:56:47Z</time>
      </trkpt>
      <trkpt lat="45.92638" lon="4.7438">
        <ele>170</ele>
        <time>2017-07-10T10:56:48Z</time>
      </trkpt>
      <trkpt lat="45.92641" lon="4.74374">
        <ele>171</ele>
        <time>2017-07-10T10:56:49Z</time>
      </trkpt>
      <trkpt lat="45.92644" lon="4.74368">
        <ele>171</ele>
        <time>2017-07-10T10:56:50Z</time>
      </trkpt>
      <trkpt lat="45.92647" lon="4.74361">
        <ele>171</ele>
        <time>2017-07-10T10:56:51Z</time>
      </trkpt>
      <trkpt lat="45.9265" lon="4.74355">
        <ele>171</ele>
        <time>2017-07-10T10:56:52Z</time>
      </trkpt>
      <trkpt lat="45.92654" lon="4.74348">
        <ele>171</ele>
        <time>2017-07-10T10:56:53Z</time>
      </trkpt>
      <trkpt lat="45.92658" lon="4.74341">
        <ele>171</ele>
        <time>2017-07-10T10:56:54Z</time>
      </trkpt>
      <trkpt lat="45.92661" lon="4.74334">
        <ele>171</ele>
        <time>2017-07-10T10:56:55Z</time>
      </trkpt>
      <trkpt lat="45.92665" lon="4.74327">
        <ele>171</ele>
        <time>2017-07-10T10:56:56Z</time>
      </trkpt>
      <trkpt lat="45.92668" lon="4.74321">
        <ele>171</ele>
        <time>2017-07-10T10:56:57Z</time>
      </trkpt>
      <trkpt lat="45.92672" lon="4.74315">
        <ele>171</ele>
        <time>2017-07-10T10:56:58Z</time>
      </trkpt>
      <trkpt lat="45.92675" lon="4.74309">
        <ele>171</ele>
        <time>2017-07-10T10:56:59Z</time>
      </trkpt>
      <trkpt lat="45.92678" lon="4.74303">
        <ele>171</ele>
        <time>2017-07-10T10:57:00Z</time>
      </trkpt>
      <trkpt lat="45.92682" lon="4.74297">
        <ele>171</ele>
        <time>2017-07-10T10:57:01Z</time>
      </trkpt>
      <trkpt lat="45.92685" lon="4.74291">
        <ele>171</ele>
        <time>2017-07-10T10:57:02Z</time>
      </trkpt>
      <trkpt lat="45.92688" lon="4.74285">
        <ele>171</ele>
        <time>2017-07-10T10:57:03Z</time>
      </trkpt>
      <trkpt lat="45.92691" lon="4.74279">
        <ele>171</ele>
        <time>2017-07-10T10:57:04Z</time>
      </trkpt>
      <trkpt lat="45.92695" lon="4.74273">
        <ele>171</ele>
        <time>2017-07-10T10:57:05Z</time>
      </trkpt>
      <trkpt lat="45.92699" lon="4.74266">
        <ele>171</ele>
        <time>2017-07-10T10:57:06Z</time>
      </trkpt>
      <trkpt lat="45.92703" lon="4.7426">
        <ele>171</ele>
        <time>2017-07-10T10:57:07Z</time>
      </trkpt>
      <trkpt lat="45.92707" lon="4.74253">
        <ele>171</ele>
        <time>2017-07-10T10:57:08Z</time>
      </trkpt>
      <trkpt lat="45.9271" lon="4.74247">
        <ele>171</ele>
        <time>2017-07-10T10:57:09Z</time>
      </trkpt>
      <trkpt lat="45.92714" lon="4.74241">
        <ele>171</ele>
        <time>2017-07-10T10:57:10Z</time>
      </trkpt>
      <trkpt lat="45.92718" lon="4.74235">
        <ele>171</ele>
        <time>2017-07-10T10:57:11Z</time>
      </trkpt>
      <trkpt lat="45.92721" lon="4.74229">
        <ele>171</ele>
        <time>2017-07-10T10:57:12Z</time>
      </trkpt>
      <trkpt lat="45.92725" lon="4.74224">
        <ele>171</ele>
        <time>2017-07-10T10:57:13Z</time>
      </trkpt>
      <trkpt lat="45.92728" lon="4.74218">
        <ele>171</ele>
        <time>2017-07-10T10:57:14Z</time>
      </trkpt>
      <trkpt lat="45.92732" lon="4.74214">
        <ele>171</ele>
        <time>2017-07-10T10:57:15Z</time>
      </trkpt>
      <trkpt lat="45.92736" lon="4.74208">
        <ele>171</ele>
        <time>2017-07-10T10:57:16Z</time>
      </trkpt>
      <trkpt lat="45.9274" lon="4.74203">
        <ele>171</ele>
        <time>2017-07-10T10:57:17Z</time>
      </trkpt>
      <trkpt lat="45.92744" lon="4.74197">
        <ele>171</ele>
        <time>2017-07-10T10:57:18Z</time>
      </trkpt>
      <trkpt lat="45.92748" lon="4.74192">
        <ele>172</ele>
        <time>2017-07-10T10:57:19Z</time>
      </trkpt>
      <trkpt lat="45.92752" lon="4.74187">
        <ele>172</ele>
        <time>2017-07-10T10:57:20Z</time>
      </trkpt>
      <trkpt lat="45.92755" lon="4.74182">
        <ele>172</ele>
        <time>2017-07-10T10:57:21Z</time>
      </trkpt>
      <trkpt lat="45.9276" lon="4.74177">
        <ele>172</ele>
        <time>2017-07-10T10:57:22Z</time>
      </trkpt>
      <trkpt lat="45.92764" lon="4.74173">
        <ele>172</ele>
        <time>2017-07-10T10:57:23Z</time>
      </trkpt>
      <trkpt lat="45.92768" lon="4.74168">
        <ele>172</ele>
        <time>2017-07-10T10:57:24Z</time>
      </trkpt>
      <trkpt lat="45.92772" lon="4.74164">
        <ele>172</ele>
        <time>2017-07-10T10:57:25Z</time>
      </trkpt>
      <trkpt lat="45.92776" lon="4.74159">
        <ele>172</ele>
        <time>2017-07-10T10:57:26Z</time>
      </trkpt>
      <trkpt lat="45.92781" lon="4.74154">
        <ele>172</ele>
        <time>2017-07-10T10:57:27Z</time>
      </trkpt>
      <trkpt lat="45.92785" lon="4.74149">
        <ele>172</ele>
        <time>2017-07-10T10:57:28Z</time>
      </trkpt>
      <trkpt lat="45.9279" lon="4.74145">
        <ele>172</ele>
        <time>2017-07-10T10:57:29Z</time>
      </trkpt>
      <trkpt lat="45.92794" lon="4.74141">
        <ele>172</ele>
        <time>2017-07-10T10:57:30Z</time>
      </trkpt>
      <trkpt lat="45.92799" lon="4.74136">
        <ele>172</ele>
        <time>2017-07-10T10:57:31Z</time>
      </trkpt>
      <trkpt lat="45.92803" lon="4.74132">
        <ele>172</ele>
        <time>2017-07-10T10:57:32Z</time>
      </trkpt>
      <trkpt lat="45.92807" lon="4.74128">
        <ele>172</ele>
        <time>2017-07-10T10:57:33Z</time>
      </trkpt>
      <trkpt lat="45.92812" lon="4.74123">
        <ele>172</ele>
        <time>2017-07-10T10:57:34Z</time>
      </trkpt>
      <trkpt lat="45.92816" lon="4.74118">
        <ele>172</ele>
        <time>2017-07-10T10:57:35Z</time>
      </trkpt>
      <trkpt lat="45.92821" lon="4.74113">
        <ele>172</ele>
        <time>2017-07-10T10:57:36Z</time>
      </trkpt>
      <trkpt lat="45.92825" lon="4.74109">
        <ele>171</ele>
        <time>2017-07-10T10:57:37Z</time>
      </trkpt>
      <trkpt lat="45.92829" lon="4.74104">
        <ele>171</ele>
        <time>2017-07-10T10:57:38Z</time>
      </trkpt>
      <trkpt lat="45.92833" lon="4.741">
        <ele>171</ele>
        <time>2017-07-10T10:57:39Z</time>
      </trkpt>
      <trkpt lat="45.92837" lon="4.74096">
        <ele>171</ele>
        <time>2017-07-10T10:57:40Z</time>
      </trkpt>
      <trkpt lat="45.9284" lon="4.74091">
        <ele>171</ele>
        <time>2017-07-10T10:57:41Z</time>
      </trkpt>
      <trkpt lat="45.92843" lon="4.74086">
        <ele>171</ele>
        <time>2017-07-10T10:57:42Z</time>
      </trkpt>
      <trkpt lat="45.92846" lon="4.74081">
        <ele>172</ele>
        <time>2017-07-10T10:57:43Z</time>
      </trkpt>
      <trkpt lat="45.9285" lon="4.74077">
        <ele>172</ele>
        <time>2017-07-10T10:57:44Z</time>
      </trkpt>
      <trkpt lat="45.92853" lon="4.74072">
        <ele>172</ele>
        <time>2017-07-10T10:57:45Z</time>
      </trkpt>
      <trkpt lat="45.92857" lon="4.74068">
        <ele>172</ele>
        <time>2017-07-10T10:57:46Z</time>
      </trkpt>
      <trkpt lat="45.92861" lon="4.74064">
        <ele>172</ele>
        <time>2017-07-10T10:57:47Z</time>
      </trkpt>
      <trkpt lat="45.92865" lon="4.7406">
        <ele>172</ele>
        <time>2017-07-10T10:57:48Z</time>
      </trkpt>
      <trkpt lat="45.9287" lon="4.74055">
        <ele>172</ele>
        <time>2017-07-10T10:57:49Z</time>
      </trkpt>
      <trkpt lat="45.92874" lon="4.7405">
        <ele>172</ele>
        <time>2017-07-10T10:57:50Z</time>
      </trkpt>
      <trkpt lat="45.92878" lon="4.74046">
        <ele>172</ele>
        <time>2017-07-10T10:57:51Z</time>
      </trkpt>
      <trkpt lat="45.92883" lon="4.74043">
        <ele>172</ele>
        <time>2017-07-10T10:57:52Z</time>
      </trkpt>
      <trkpt lat="45.92887" lon="4.74042">
        <ele>172</ele>
        <time>2017-07-10T10:57:53Z</time>
      </trkpt>
      <trkpt lat="45.92892" lon="4.74042">
        <ele>172</ele>
        <time>2017-07-10T10:57:54Z</time>
      </trkpt>
      <trkpt lat="45.92897" lon="4.74042">
        <ele>172</ele>
        <time>2017-07-10T10:57:55Z</time>
      </trkpt>
      <trkpt lat="45.92902" lon="4.74042">
        <ele>172</ele>
        <time>2017-07-10T10:57:56Z</time>
      </trkpt>
      <trkpt lat="45.92907" lon="4.7404">
        <ele>172</ele>
        <time>2017-07-10T10:57:57Z</time>
      </trkpt>
      <trkpt lat="45.92912" lon="4.74036">
        <ele>172</ele>
        <time>2017-07-10T10:57:58Z</time>
      </trkpt>
      <trkpt lat="45.92915" lon="4.74032">
        <ele>172</ele>
        <time>2017-07-10T10:57:59Z</time>
      </trkpt>
      <trkpt lat="45.92917" lon="4.74025">
        <ele>172</ele>
        <time>2017-07-10T10:58:00Z</time>
      </trkpt>
      <trkpt lat="45.92918" lon="4.74019">
        <ele>172</ele>
        <time>2017-07-10T10:58:01Z</time>
      </trkpt>
      <trkpt lat="45.92919" lon="4.74012">
        <ele>172</ele>
        <time>2017-07-10T10:58:02Z</time>
      </trkpt>
      <trkpt lat="45.92917" lon="4.74005">
        <ele>172</ele>
        <time>2017-07-10T10:58:03Z</time>
      </trkpt>
      <trkpt lat="45.92916" lon="4.73999">
        <ele>172</ele>
        <time>2017-07-10T10:58:04Z</time>
      </trkpt>
      <trkpt lat="45.92913" lon="4.73994">
        <ele>172</ele>
        <time>2017-07-10T10:58:05Z</time>
      </trkpt>
      <trkpt lat="45.92909" lon="4.7399">
        <ele>172</ele>
        <time>2017-07-10T10:58:06Z</time>
      </trkpt>
      <trkpt lat="45.92905" lon="4.73985">
        <ele>172</ele>
        <time>2017-07-10T10:58:07Z</time>
      </trkpt>
      <trkpt lat="45.92901" lon="4.73982">
        <ele>172</ele>
        <time>2017-07-10T10:58:08Z</time>
      </trkpt>
      <trkpt lat="45.92897" lon="4.73978">
        <ele>172</ele>
        <time>2017-07-10T10:58:09Z</time>
      </trkpt>
      <trkpt lat="45.92894" lon="4.73973">
        <ele>172</ele>
        <time>2017-07-10T10:58:10Z</time>
      </trkpt>
      <trkpt lat="45.92892" lon="4.73967">
        <ele>172</ele>
        <time>2017-07-10T10:58:11Z</time>
      </trkpt>
      <trkpt lat="45.9289" lon="4.73961">
        <ele>172</ele>
        <time>2017-07-10T10:58:12Z</time>
      </trkpt>
      <trkpt lat="45.92889" lon="4.73953">
        <ele>172</ele>
        <time>2017-07-10T10:58:13Z</time>
      </trkpt>
      <trkpt lat="45.92888" lon="4.73944">
        <ele>172</ele>
        <time>2017-07-10T10:58:14Z</time>
      </trkpt>
      <trkpt lat="45.92888" lon="4.73936">
        <ele>172</ele>
        <time>2017-07-10T10:58:15Z</time>
      </trkpt>
      <trkpt lat="45.92887" lon="4.73926">
        <ele>172</ele>
        <time>2017-07-10T10:58:16Z</time>
      </trkpt>
      <trkpt lat="45.92886" lon="4.73917">
        <ele>173</ele>
        <time>2017-07-10T10:58:17Z</time>
      </trkpt>
      <trkpt lat="45.92885" lon="4.73907">
        <ele>173</ele>
        <time>2017-07-10T10:58:18Z</time>
      </trkpt>
      <trkpt lat="45.92884" lon="4.73898">
        <ele>173</ele>
        <time>2017-07-10T10:58:19Z</time>
      </trkpt>
      <trkpt lat="45.92883" lon="4.73889">
        <ele>173</ele>
        <time>2017-07-10T10:58:20Z</time>
      </trkpt>
      <trkpt lat="45.92882" lon="4.73881">
        <ele>173</ele>
        <time>2017-07-10T10:58:21Z</time>
      </trkpt>
      <trkpt lat="45.9288" lon="4.73872">
        <ele>173</ele>
        <time>2017-07-10T10:58:22Z</time>
      </trkpt>
      <trkpt lat="45.92878" lon="4.73864">
        <ele>173</ele>
        <time>2017-07-10T10:58:23Z</time>
      </trkpt>
      <trkpt lat="45.92875" lon="4.73855">
        <ele>173</ele>
        <time>2017-07-10T10:58:24Z</time>
      </trkpt>
      <trkpt lat="45.9287" lon="4.7385">
        <ele>173</ele>
        <time>2017-07-10T10:58:25Z</time>
      </trkpt>
      <trkpt lat="45.92868" lon="4.73842">
        <ele>173</ele>
        <time>2017-07-10T10:58:26Z</time>
      </trkpt>
      <trkpt lat="45.92866" lon="4.73834">
        <ele>173</ele>
        <time>2017-07-10T10:58:27Z</time>
      </trkpt>
      <trkpt lat="45.92864" lon="4.73826">
        <ele>173</ele>
        <time>2017-07-10T10:58:28Z</time>
      </trkpt>
      <trkpt lat="45.92862" lon="4.73819">
        <ele>173</ele>
        <time>2017-07-10T10:58:29Z</time>
      </trkpt>
      <trkpt lat="45.9286" lon="4.73812">
        <ele>173</ele>
        <time>2017-07-10T10:58:30Z</time>
      </trkpt>
      <trkpt lat="45.92858" lon="4.73806">
        <ele>173</ele>
        <time>2017-07-10T10:58:31Z</time>
      </trkpt>
      <trkpt lat="45.92855" lon="4.738">
        <ele>173</ele>
        <time>2017-07-10T10:58:32Z</time>
      </trkpt>
      <trkpt lat="45.92851" lon="4.73795">
        <ele>173</ele>
        <time>2017-07-10T10:58:33Z</time>
      </trkpt>
      <trkpt lat="45.92844" lon="4.73789">
        <ele>173</ele>
        <time>2017-07-10T10:58:35Z</time>
      </trkpt>
      <trkpt lat="45.92839" lon="4.73786">
        <ele>173</ele>
        <time>2017-07-10T10:58:36Z</time>
      </trkpt>
      <trkpt lat="45.92835" lon="4.73783">
        <ele>173</ele>
        <time>2017-07-10T10:58:37Z</time>
      </trkpt>
      <trkpt lat="45.9283" lon="4.73781">
        <ele>173</ele>
        <time>2017-07-10T10:58:38Z</time>
      </trkpt>
      <trkpt lat="45.92822" lon="4.73776">
        <ele>173</ele>
        <time>2017-07-10T10:58:40Z</time>
      </trkpt>
      <trkpt lat="45.92819" lon="4.73773">
        <ele>173</ele>
        <time>2017-07-10T10:58:41Z</time>
      </trkpt>
      <trkpt lat="45.92812" lon="4.73768">
        <ele>173</ele>
        <time>2017-07-10T10:58:43Z</time>
      </trkpt>
      <trkpt lat="45.92807" lon="4.73766">
        <ele>173</ele>
        <time>2017-07-10T10:58:44Z</time>
      </trkpt>
      <trkpt lat="45.92799" lon="4.73763">
        <ele>173</ele>
        <time>2017-07-10T10:58:46Z</time>
      </trkpt>
      <trkpt lat="45.92795" lon="4.73761">
        <ele>173</ele>
        <time>2017-07-10T10:58:47Z</time>
      </trkpt>
      <trkpt lat="45.92789" lon="4.73754">
        <ele>173</ele>
        <time>2017-07-10T10:58:49Z</time>
      </trkpt>
      <trkpt lat="45.92786" lon="4.73751">
        <ele>173</ele>
        <time>2017-07-10T10:58:50Z</time>
      </trkpt>
      <trkpt lat="45.92781" lon="4.73742">
        <ele>172</ele>
        <time>2017-07-10T10:58:52Z</time>
      </trkpt>
      <trkpt lat="45.92778" lon="4.73737">
        <ele>172</ele>
        <time>2017-07-10T10:58:53Z</time>
      </trkpt>
      <trkpt lat="45.92773" lon="4.73734">
        <ele>172</ele>
        <time>2017-07-10T10:58:54Z</time>
      </trkpt>
      <trkpt lat="45.92767" lon="4.73732">
        <ele>172</ele>
        <time>2017-07-10T10:58:55Z</time>
      </trkpt>
      <trkpt lat="45.92763" lon="4.7373">
        <ele>172</ele>
        <time>2017-07-10T10:58:56Z</time>
      </trkpt>
      <trkpt lat="45.92758" lon="4.73729">
        <ele>172</ele>
        <time>2017-07-10T10:58:57Z</time>
      </trkpt>
      <trkpt lat="45.9275" lon="4.73725">
        <ele>173</ele>
        <time>2017-07-10T10:58:59Z</time>
      </trkpt>
      <trkpt lat="45.92745" lon="4.73722">
        <ele>173</ele>
        <time>2017-07-10T10:59:00Z</time>
      </trkpt>
      <trkpt lat="45.92741" lon="4.73721">
        <ele>173</ele>
        <time>2017-07-10T10:59:01Z</time>
      </trkpt>
      <trkpt lat="45.92736" lon="4.7372">
        <ele>173</ele>
        <time>2017-07-10T10:59:02Z</time>
      </trkpt>
      <trkpt lat="45.92731" lon="4.73718">
        <ele>173</ele>
        <time>2017-07-10T10:59:03Z</time>
      </trkpt>
      <trkpt lat="45.92727" lon="4.73717">
        <ele>173</ele>
        <time>2017-07-10T10:59:04Z</time>
      </trkpt>
      <trkpt lat="45.92722" lon="4.73715">
        <ele>173</ele>
        <time>2017-07-10T10:59:05Z</time>
      </trkpt>
      <trkpt lat="45.92717" lon="4.73713">
        <ele>173</ele>
        <time>2017-07-10T10:59:06Z</time>
      </trkpt>
      <trkpt lat="45.92712" lon="4.73711">
        <ele>173</ele>
        <time>2017-07-10T10:59:07Z</time>
      </trkpt>
      <trkpt lat="45.92708" lon="4.73711">
        <ele>173</ele>
        <time>2017-07-10T10:59:08Z</time>
      </trkpt>
      <trkpt lat="45.92703" lon="4.73709">
        <ele>173</ele>
        <time>2017-07-10T10:59:09Z</time>
      </trkpt>
      <trkpt lat="45.92697" lon="4.73708">
        <ele>173</ele>
        <time>2017-07-10T10:59:10Z</time>
      </trkpt>
      <trkpt lat="45.92692" lon="4.73707">
        <ele>173</ele>
        <time>2017-07-10T10:59:11Z</time>
      </trkpt>
      <trkpt lat="45.92686" lon="4.73706">
        <ele>173</ele>
        <time>2017-07-10T10:59:12Z</time>
      </trkpt>
      <trkpt lat="45.92681" lon="4.73704">
        <ele>173</ele>
        <time>2017-07-10T10:59:13Z</time>
      </trkpt>
      <trkpt lat="45.92676" lon="4.73702">
        <ele>173</ele>
        <time>2017-07-10T10:59:14Z</time>
      </trkpt>
      <trkpt lat="45.92672" lon="4.737">
        <ele>174</ele>
        <time>2017-07-10T10:59:15Z</time>
      </trkpt>
      <trkpt lat="45.92668" lon="4.73697">
        <ele>174</ele>
        <time>2017-07-10T10:59:16Z</time>
      </trkpt>
      <trkpt lat="45.9266" lon="4.73692">
        <ele>173</ele>
        <time>2017-07-10T10:59:18Z</time>
      </trkpt>
      <trkpt lat="45.92656" lon="4.73689">
        <ele>173</ele>
        <time>2017-07-10T10:59:19Z</time>
      </trkpt>
      <trkpt lat="45.92652" lon="4.73686">
        <ele>173</ele>
        <time>2017-07-10T10:59:20Z</time>
      </trkpt>
      <trkpt lat="45.92648" lon="4.73682">
        <ele>173</ele>
        <time>2017-07-10T10:59:21Z</time>
      </trkpt>
      <trkpt lat="45.92644" lon="4.73675">
        <ele>173</ele>
        <time>2017-07-10T10:59:23Z</time>
      </trkpt>
      <trkpt lat="45.92641" lon="4.7367">
        <ele>173</ele>
        <time>2017-07-10T10:59:24Z</time>
      </trkpt>
      <trkpt lat="45.92635" lon="4.7366">
        <ele>173</ele>
        <time>2017-07-10T10:59:26Z</time>
      </trkpt>
      <trkpt lat="45.92632" lon="4.73655">
        <ele>173</ele>
        <time>2017-07-10T10:59:27Z</time>
      </trkpt>
      <trkpt lat="45.9263" lon="4.73648">
        <ele>173</ele>
        <time>2017-07-10T10:59:28Z</time>
      </trkpt>
      <trkpt lat="45.92627" lon="4.73642">
        <ele>173</ele>
        <time>2017-07-10T10:59:29Z</time>
      </trkpt>
      <trkpt lat="45.92623" lon="4.73637">
        <ele>173</ele>
        <time>2017-07-10T10:59:30Z</time>
      </trkpt>
      <trkpt lat="45.9262" lon="4.73632">
        <ele>173</ele>
        <time>2017-07-10T10:59:31Z</time>
      </trkpt>
      <trkpt lat="45.92616" lon="4.73628">
        <ele>173</ele>
        <time>2017-07-10T10:59:32Z</time>
      </trkpt>
      <trkpt lat="45.92611" lon="4.73625">
        <ele>173</ele>
        <time>2017-07-10T10:59:33Z</time>
      </trkpt>
      <trkpt lat="45.92606" lon="4.73623">
        <ele>173</ele>
        <time>2017-07-10T10:59:34Z</time>
      </trkpt>
      <trkpt lat="45.92601" lon="4.73622">
        <ele>173</ele>
        <time>2017-07-10T10:59:35Z</time>
      </trkpt>
      <trkpt lat="45.92595" lon="4.73621">
        <ele>173</ele>
        <time>2017-07-10T10:59:36Z</time>
      </trkpt>
      <trkpt lat="45.92589" lon="4.73622">
        <ele>173</ele>
        <time>2017-07-10T10:59:37Z</time>
      </trkpt>
      <trkpt lat="45.92583" lon="4.73622">
        <ele>173</ele>
        <time>2017-07-10T10:59:38Z</time>
      </trkpt>
      <trkpt lat="45.92578" lon="4.73623">
        <ele>173</ele>
        <time>2017-07-10T10:59:39Z</time>
      </trkpt>
      <trkpt lat="45.92573" lon="4.73624">
        <ele>173</ele>
        <time>2017-07-10T10:59:40Z</time>
      </trkpt>
      <trkpt lat="45.92568" lon="4.73625">
        <ele>173</ele>
        <time>2017-07-10T10:59:41Z</time>
      </trkpt>
      <trkpt lat="45.92563" lon="4.73625">
        <ele>173</ele>
        <time>2017-07-10T10:59:42Z</time>
      </trkpt>
      <trkpt lat="45.92559" lon="4.73625">
        <ele>173</ele>
        <time>2017-07-10T10:59:43Z</time>
      </trkpt>
      <trkpt lat="45.92554" lon="4.73625">
        <ele>173</ele>
        <time>2017-07-10T10:59:44Z</time>
      </trkpt>
      <trkpt lat="45.92549" lon="4.73626">
        <ele>173</ele>
        <time>2017-07-10T10:59:45Z</time>
      </trkpt>
      <trkpt lat="45.92546" lon="4.73628">
        <ele>173</ele>
        <time>2017-07-10T10:59:46Z</time>
      </trkpt>
      <trkpt lat="45.9254" lon="4.7363">
        <ele>173</ele>
        <time>2017-07-10T10:59:47Z</time>
      </trkpt>
      <trkpt lat="45.92535" lon="4.73631">
        <ele>173</ele>
        <time>2017-07-10T10:59:48Z</time>
      </trkpt>
      <trkpt lat="45.92531" lon="4.73631">
        <ele>173</ele>
        <time>2017-07-10T10:59:49Z</time>
      </trkpt>
      <trkpt lat="45.92526" lon="4.73632">
        <ele>173</ele>
        <time>2017-07-10T10:59:50Z</time>
      </trkpt>
      <trkpt lat="45.92521" lon="4.73633">
        <ele>173</ele>
        <time>2017-07-10T10:59:51Z</time>
      </trkpt>
      <trkpt lat="45.92516" lon="4.73634">
        <ele>173</ele>
        <time>2017-07-10T10:59:52Z</time>
      </trkpt>
      <trkpt lat="45.92512" lon="4.73633">
        <ele>173</ele>
        <time>2017-07-10T10:59:53Z</time>
      </trkpt>
      <trkpt lat="45.92504" lon="4.73633">
        <ele>173</ele>
        <time>2017-07-10T10:59:55Z</time>
      </trkpt>
      <trkpt lat="45.925" lon="4.73633">
        <ele>174</ele>
        <time>2017-07-10T10:59:56Z</time>
      </trkpt>
      <trkpt lat="45.92492" lon="4.73633">
        <ele>174</ele>
        <time>2017-07-10T10:59:58Z</time>
      </trkpt>
      <trkpt lat="45.92489" lon="4.73633">
        <ele>174</ele>
        <time>2017-07-10T10:59:59Z</time>
      </trkpt>
      <trkpt lat="45.92482" lon="4.73634">
        <ele>174</ele>
        <time>2017-07-10T11:00:01Z</time>
      </trkpt>
      <trkpt lat="45.92478" lon="4.73634">
        <ele>174</ele>
        <time>2017-07-10T11:00:02Z</time>
      </trkpt>
      <trkpt lat="45.92472" lon="4.73637">
        <ele>174</ele>
        <time>2017-07-10T11:00:04Z</time>
      </trkpt>
      <trkpt lat="45.9247" lon="4.73641">
        <ele>174</ele>
        <time>2017-07-10T11:00:05Z</time>
      </trkpt>
      <trkpt lat="45.92467" lon="4.7365">
        <ele>174</ele>
        <time>2017-07-10T11:00:07Z</time>
      </trkpt>
      <trkpt lat="45.92466" lon="4.73655">
        <ele>174</ele>
        <time>2017-07-10T11:00:08Z</time>
      </trkpt>
      <trkpt lat="45.92465" lon="4.73665">
        <ele>174</ele>
        <time>2017-07-10T11:00:10Z</time>
      </trkpt>
      <trkpt lat="45.92464" lon="4.73669">
        <ele>174</ele>
        <time>2017-07-10T11:00:11Z</time>
      </trkpt>
      <trkpt lat="45.92463" lon="4.73678">
        <ele>174</ele>
        <time>2017-07-10T11:00:13Z</time>
      </trkpt>
      <trkpt lat="45.92463" lon="4.73682">
        <ele>174</ele>
        <time>2017-07-10T11:00:14Z</time>
      </trkpt>
      <trkpt lat="45.92462" lon="4.73694">
        <ele>174</ele>
        <time>2017-07-10T11:00:17Z</time>
      </trkpt>
      <trkpt lat="45.92462" lon="4.73696">
        <ele>174</ele>
        <time>2017-07-10T11:00:18Z</time>
      </trkpt>
      <trkpt lat="45.9246" lon="4.73699">
        <ele>174</ele>
        <time>2017-07-10T11:00:48.013Z</time>
      </trkpt>
    </trkseg>
  </trk>
</gpx>